<?xml version="1.0" encoding="UTF-8"?>
<gpx version="1.1" creator="https://www.www-youtrack-es.amenigma.com" xsi:schemaLocation="http://www.topografix.com/GPX/1/1 http://www.topografix.com/GPX/1/1/gpx.xsd http://www.garmin.com/xmlschemas/GpxExtensions/v3 http://www.garmin.com/xmlschemas/GpxExtensionsv3.xsd http://www.garmin.com/xmlschemas/TrackPointExtension/v1 http://www.garmin.com/xmlschemas/TrackPointExtensionv1.xsd" xmlns:gpxtpx="http://www.garmin.com/xmlschemas/TrackPointExtension/v1" xmlns:gpxx="http://www.garmin.com/xmlschemas/GpxExtensions/v3" xmlns:xsi="http://www.w3.org/2001/XMLSchema-instance">
  <metadata>
    <link href="https://www.www-youtrack-es.amenigma.com">
      <text>YouTrack.es</text>
    </link>
    <time>2026-08-31T21:01:34Z</time>
  </metadata>
  <trk>
    <src>https://www.www-youtrack-es.amenigma.com</src>
    <link href="https://www.www-youtrack-es.amenigma.com/ruta/19992-sant-medir">
      <text>YouTrack.es</text>
    </link>
    <trkseg>
      <trkpt lat="41.44935" lon="2.11601833">
        <ele>161.0</ele>
        <time>2021-03-03T09:42:01Z</time>
      </trkpt>
      <trkpt lat="41.44935567" lon="2.11602799">
        <ele>161.0</ele>
        <time>2021-03-03T09:42:02Z</time>
      </trkpt>
      <trkpt lat="41.44935167" lon="2.11604266">
        <ele>161.0</ele>
        <time>2021-03-03T09:42:03Z</time>
      </trkpt>
      <trkpt lat="41.44934434" lon="2.11605866">
        <ele>161.0</ele>
        <time>2021-03-03T09:42:04Z</time>
      </trkpt>
      <trkpt lat="41.44933068" lon="2.11606866">
        <ele>161.0</ele>
        <time>2021-03-03T09:42:05Z</time>
      </trkpt>
      <trkpt lat="41.44930068" lon="2.11606732">
        <ele>161.0</ele>
        <time>2021-03-03T09:42:06Z</time>
      </trkpt>
      <trkpt lat="41.44927435" lon="2.11606999">
        <ele>161.0</ele>
        <time>2021-03-03T09:42:07Z</time>
      </trkpt>
      <trkpt lat="41.4492657" lon="2.11608031">
        <ele>161.0</ele>
        <time>2021-03-03T09:42:08Z</time>
      </trkpt>
      <trkpt lat="41.44927369" lon="2.1160993">
        <ele>161.0</ele>
        <time>2021-03-03T09:42:09Z</time>
      </trkpt>
      <trkpt lat="41.44928069" lon="2.11612063">
        <ele>161.0</ele>
        <time>2021-03-03T09:42:10Z</time>
      </trkpt>
      <trkpt lat="41.44926435" lon="2.11613296">
        <ele>161.0</ele>
        <time>2021-03-03T09:42:11Z</time>
      </trkpt>
      <trkpt lat="41.4492357" lon="2.11613396">
        <ele>161.0</ele>
        <time>2021-03-03T09:42:12Z</time>
      </trkpt>
      <trkpt lat="41.4491977" lon="2.11612896">
        <ele>161.0</ele>
        <time>2021-03-03T09:42:13Z</time>
      </trkpt>
      <trkpt lat="41.44915737" lon="2.11612097">
        <ele>161.0</ele>
        <time>2021-03-03T09:42:14Z</time>
      </trkpt>
      <trkpt lat="41.44911405" lon="2.11610965">
        <ele>161.0</ele>
        <time>2021-03-03T09:42:15Z</time>
      </trkpt>
      <trkpt lat="41.44907106" lon="2.11609731">
        <ele>161.0</ele>
        <time>2021-03-03T09:42:16Z</time>
      </trkpt>
      <trkpt lat="41.44902639" lon="2.11608431">
        <ele>161.0</ele>
        <time>2021-03-03T09:42:17Z</time>
      </trkpt>
      <trkpt lat="41.44898273" lon="2.11607198">
        <ele>161.0</ele>
        <time>2021-03-03T09:42:18Z</time>
      </trkpt>
      <trkpt lat="41.44894639" lon="2.11606132">
        <ele>161.0</ele>
        <time>2021-03-03T09:42:19Z</time>
      </trkpt>
      <trkpt lat="41.44891474" lon="2.11604933">
        <ele>161.0</ele>
        <time>2021-03-03T09:42:20Z</time>
      </trkpt>
      <trkpt lat="41.44888908" lon="2.11603767">
        <ele>161.0</ele>
        <time>2021-03-03T09:42:21Z</time>
      </trkpt>
      <trkpt lat="41.44887608" lon="2.11603">
        <ele>161.0</ele>
        <time>2021-03-03T09:42:22Z</time>
      </trkpt>
      <trkpt lat="41.44885941" lon="2.11602167">
        <ele>161.0</ele>
        <time>2021-03-03T09:42:23Z</time>
      </trkpt>
      <trkpt lat="41.44884308" lon="2.11601634">
        <ele>161.0</ele>
        <time>2021-03-03T09:42:24Z</time>
      </trkpt>
      <trkpt lat="41.44883076" lon="2.11602">
        <ele>161.0</ele>
        <time>2021-03-03T09:42:25Z</time>
      </trkpt>
      <trkpt lat="41.44882777" lon="2.11603933">
        <ele>161.0</ele>
        <time>2021-03-03T09:42:26Z</time>
      </trkpt>
      <trkpt lat="41.44881244" lon="2.11605732">
        <ele>161.0</ele>
        <time>2021-03-03T09:42:27Z</time>
      </trkpt>
      <trkpt lat="41.44878611" lon="2.11606966">
        <ele>162.0</ele>
        <time>2021-03-03T09:42:28Z</time>
      </trkpt>
      <trkpt lat="41.44875011" lon="2.11607799">
        <ele>162.0</ele>
        <time>2021-03-03T09:42:29Z</time>
      </trkpt>
      <trkpt lat="41.44871079" lon="2.11608398">
        <ele>162.0</ele>
        <time>2021-03-03T09:42:30Z</time>
      </trkpt>
      <trkpt lat="41.44867113" lon="2.11608865">
        <ele>162.0</ele>
        <time>2021-03-03T09:42:31Z</time>
      </trkpt>
      <trkpt lat="41.44862981" lon="2.11609164">
        <ele>162.0</ele>
        <time>2021-03-03T09:42:32Z</time>
      </trkpt>
      <trkpt lat="41.44858715" lon="2.11609098">
        <ele>162.0</ele>
        <time>2021-03-03T09:42:33Z</time>
      </trkpt>
      <trkpt lat="41.44854382" lon="2.11608398">
        <ele>162.0</ele>
        <time>2021-03-03T09:42:34Z</time>
      </trkpt>
      <trkpt lat="41.44850148" lon="2.11607565">
        <ele>162.0</ele>
        <time>2021-03-03T09:42:35Z</time>
      </trkpt>
      <trkpt lat="41.44845948" lon="2.11606666">
        <ele>162.0</ele>
        <time>2021-03-03T09:42:36Z</time>
      </trkpt>
      <trkpt lat="41.44841916" lon="2.116058">
        <ele>162.0</ele>
        <time>2021-03-03T09:42:37Z</time>
      </trkpt>
      <trkpt lat="41.44838116" lon="2.11604967">
        <ele>163.0</ele>
        <time>2021-03-03T09:42:38Z</time>
      </trkpt>
      <trkpt lat="41.44834584" lon="2.11604033">
        <ele>164.0</ele>
        <time>2021-03-03T09:42:39Z</time>
      </trkpt>
      <trkpt lat="41.44831317" lon="2.11603167">
        <ele>164.0</ele>
        <time>2021-03-03T09:42:40Z</time>
      </trkpt>
      <trkpt lat="41.44828118" lon="2.11602334">
        <ele>164.0</ele>
        <time>2021-03-03T09:42:41Z</time>
      </trkpt>
      <trkpt lat="41.44825085" lon="2.11602001">
        <ele>165.0</ele>
        <time>2021-03-03T09:42:42Z</time>
      </trkpt>
      <trkpt lat="41.44821986" lon="2.11602034">
        <ele>165.0</ele>
        <time>2021-03-03T09:42:43Z</time>
      </trkpt>
      <trkpt lat="41.44818919" lon="2.11602233">
        <ele>165.0</ele>
        <time>2021-03-03T09:42:44Z</time>
      </trkpt>
      <trkpt lat="41.4481552" lon="2.11602267">
        <ele>165.0</ele>
        <time>2021-03-03T09:42:45Z</time>
      </trkpt>
      <trkpt lat="41.44811953" lon="2.11602134">
        <ele>165.0</ele>
        <time>2021-03-03T09:42:46Z</time>
      </trkpt>
      <trkpt lat="41.44807988" lon="2.11601634">
        <ele>166.0</ele>
        <time>2021-03-03T09:42:47Z</time>
      </trkpt>
      <trkpt lat="41.44804289" lon="2.11601035">
        <ele>166.0</ele>
        <time>2021-03-03T09:42:48Z</time>
      </trkpt>
      <trkpt lat="41.44800856" lon="2.11600436">
        <ele>167.0</ele>
        <time>2021-03-03T09:42:49Z</time>
      </trkpt>
      <trkpt lat="41.4479789" lon="2.11599837">
        <ele>167.0</ele>
        <time>2021-03-03T09:42:50Z</time>
      </trkpt>
      <trkpt lat="41.44795791" lon="2.11599004">
        <ele>167.0</ele>
        <time>2021-03-03T09:42:51Z</time>
      </trkpt>
      <trkpt lat="41.44794025" lon="2.11598237">
        <ele>167.0</ele>
        <time>2021-03-03T09:42:52Z</time>
      </trkpt>
      <trkpt lat="41.44792525" lon="2.11597404">
        <ele>167.0</ele>
        <time>2021-03-03T09:42:53Z</time>
      </trkpt>
      <trkpt lat="41.44791326" lon="2.11596505">
        <ele>168.0</ele>
        <time>2021-03-03T09:42:54Z</time>
      </trkpt>
      <trkpt lat="41.44790293" lon="2.11595738">
        <ele>168.0</ele>
        <time>2021-03-03T09:42:55Z</time>
      </trkpt>
      <trkpt lat="41.44788994" lon="2.11595038">
        <ele>167.0</ele>
        <time>2021-03-03T09:42:56Z</time>
      </trkpt>
      <trkpt lat="41.44787261" lon="2.11594473">
        <ele>166.0</ele>
        <time>2021-03-03T09:42:57Z</time>
      </trkpt>
      <trkpt lat="41.44785195" lon="2.11593773">
        <ele>166.0</ele>
        <time>2021-03-03T09:42:58Z</time>
      </trkpt>
      <trkpt lat="41.44782796" lon="2.11593139">
        <ele>166.0</ele>
        <time>2021-03-03T09:42:59Z</time>
      </trkpt>
      <trkpt lat="41.44780129" lon="2.1159254">
        <ele>165.0</ele>
        <time>2021-03-03T09:43:00Z</time>
      </trkpt>
      <trkpt lat="41.4477743" lon="2.1159214">
        <ele>165.0</ele>
        <time>2021-03-03T09:43:01Z</time>
      </trkpt>
      <trkpt lat="41.44774563" lon="2.11591808">
        <ele>166.0</ele>
        <time>2021-03-03T09:43:02Z</time>
      </trkpt>
      <trkpt lat="41.44771598" lon="2.11591874">
        <ele>166.0</ele>
        <time>2021-03-03T09:43:03Z</time>
      </trkpt>
      <trkpt lat="41.44768499" lon="2.11592506">
        <ele>167.0</ele>
        <time>2021-03-03T09:43:04Z</time>
      </trkpt>
      <trkpt lat="41.447648" lon="2.11593439">
        <ele>167.0</ele>
        <time>2021-03-03T09:43:05Z</time>
      </trkpt>
      <trkpt lat="41.44760834" lon="2.11595105">
        <ele>168.0</ele>
        <time>2021-03-03T09:43:06Z</time>
      </trkpt>
      <trkpt lat="41.44756801" lon="2.11597238">
        <ele>168.0</ele>
        <time>2021-03-03T09:43:07Z</time>
      </trkpt>
      <trkpt lat="41.44752867" lon="2.11599838">
        <ele>169.0</ele>
        <time>2021-03-03T09:43:08Z</time>
      </trkpt>
      <trkpt lat="41.44749368" lon="2.11602905">
        <ele>169.0</ele>
        <time>2021-03-03T09:43:09Z</time>
      </trkpt>
      <trkpt lat="41.44746536" lon="2.11606371">
        <ele>169.0</ele>
        <time>2021-03-03T09:43:10Z</time>
      </trkpt>
      <trkpt lat="41.44744237" lon="2.11610437">
        <ele>169.0</ele>
        <time>2021-03-03T09:43:11Z</time>
      </trkpt>
      <trkpt lat="41.44742504" lon="2.11614603">
        <ele>170.0</ele>
        <time>2021-03-03T09:43:12Z</time>
      </trkpt>
      <trkpt lat="41.44741205" lon="2.11618835">
        <ele>170.0</ele>
        <time>2021-03-03T09:43:13Z</time>
      </trkpt>
      <trkpt lat="41.44740105" lon="2.11623035">
        <ele>171.0</ele>
        <time>2021-03-03T09:43:14Z</time>
      </trkpt>
      <trkpt lat="41.44739305" lon="2.11626968">
        <ele>171.0</ele>
        <time>2021-03-03T09:43:15Z</time>
      </trkpt>
      <trkpt lat="41.44738672" lon="2.11631234">
        <ele>171.0</ele>
        <time>2021-03-03T09:43:16Z</time>
      </trkpt>
      <trkpt lat="41.44737972" lon="2.11635368">
        <ele>171.0</ele>
        <time>2021-03-03T09:43:17Z</time>
      </trkpt>
      <trkpt lat="41.44737273" lon="2.116396">
        <ele>172.0</ele>
        <time>2021-03-03T09:43:18Z</time>
      </trkpt>
      <trkpt lat="41.44736641" lon="2.11643867">
        <ele>172.0</ele>
        <time>2021-03-03T09:43:19Z</time>
      </trkpt>
      <trkpt lat="41.44736108" lon="2.11647866">
        <ele>172.0</ele>
        <time>2021-03-03T09:43:20Z</time>
      </trkpt>
      <trkpt lat="41.44735974" lon="2.11652599">
        <ele>172.0</ele>
        <time>2021-03-03T09:43:21Z</time>
      </trkpt>
      <trkpt lat="41.44735842" lon="2.11657266">
        <ele>172.0</ele>
        <time>2021-03-03T09:43:22Z</time>
      </trkpt>
      <trkpt lat="41.4473551" lon="2.11661599">
        <ele>173.0</ele>
        <time>2021-03-03T09:43:23Z</time>
      </trkpt>
      <trkpt lat="41.4473501" lon="2.11665598">
        <ele>173.0</ele>
        <time>2021-03-03T09:43:24Z</time>
      </trkpt>
      <trkpt lat="41.44734276" lon="2.11669431">
        <ele>173.0</ele>
        <time>2021-03-03T09:43:25Z</time>
      </trkpt>
      <trkpt lat="41.44733377" lon="2.11673064">
        <ele>173.0</ele>
        <time>2021-03-03T09:43:26Z</time>
      </trkpt>
      <trkpt lat="41.44732044" lon="2.11676163">
        <ele>174.0</ele>
        <time>2021-03-03T09:43:27Z</time>
      </trkpt>
      <trkpt lat="41.44730411" lon="2.11678763">
        <ele>174.0</ele>
        <time>2021-03-03T09:43:28Z</time>
      </trkpt>
      <trkpt lat="41.44728545" lon="2.11680795">
        <ele>174.0</ele>
        <time>2021-03-03T09:43:29Z</time>
      </trkpt>
      <trkpt lat="41.44726279" lon="2.11682295">
        <ele>174.0</ele>
        <time>2021-03-03T09:43:30Z</time>
      </trkpt>
      <trkpt lat="41.4472368" lon="2.11683227">
        <ele>174.0</ele>
        <time>2021-03-03T09:43:31Z</time>
      </trkpt>
      <trkpt lat="41.44720747" lon="2.11683526">
        <ele>175.0</ele>
        <time>2021-03-03T09:43:32Z</time>
      </trkpt>
      <trkpt lat="41.44718314" lon="2.11683826">
        <ele>175.0</ele>
        <time>2021-03-03T09:43:33Z</time>
      </trkpt>
      <trkpt lat="41.44716081" lon="2.11684259">
        <ele>175.0</ele>
        <time>2021-03-03T09:43:34Z</time>
      </trkpt>
      <trkpt lat="41.44714116" lon="2.11684458">
        <ele>175.0</ele>
        <time>2021-03-03T09:43:35Z</time>
      </trkpt>
      <trkpt lat="41.44712449" lon="2.11684359">
        <ele>175.0</ele>
        <time>2021-03-03T09:43:36Z</time>
      </trkpt>
      <trkpt lat="41.44711049" lon="2.1168406">
        <ele>175.0</ele>
        <time>2021-03-03T09:43:37Z</time>
      </trkpt>
      <trkpt lat="41.44709617" lon="2.1168326">
        <ele>175.0</ele>
        <time>2021-03-03T09:43:38Z</time>
      </trkpt>
      <trkpt lat="41.44708017" lon="2.11682127">
        <ele>176.0</ele>
        <time>2021-03-03T09:43:39Z</time>
      </trkpt>
      <trkpt lat="41.44705883" lon="2.11680228">
        <ele>176.0</ele>
        <time>2021-03-03T09:43:40Z</time>
      </trkpt>
      <trkpt lat="41.44703251" lon="2.11678395">
        <ele>176.0</ele>
        <time>2021-03-03T09:43:41Z</time>
      </trkpt>
      <trkpt lat="41.44700085" lon="2.11676296">
        <ele>176.0</ele>
        <time>2021-03-03T09:43:42Z</time>
      </trkpt>
      <trkpt lat="41.44696452" lon="2.11674663">
        <ele>176.0</ele>
        <time>2021-03-03T09:43:43Z</time>
      </trkpt>
      <trkpt lat="41.44692585" lon="2.11673997">
        <ele>176.0</ele>
        <time>2021-03-03T09:43:44Z</time>
      </trkpt>
      <trkpt lat="41.4468882" lon="2.11674363">
        <ele>176.0</ele>
        <time>2021-03-03T09:43:45Z</time>
      </trkpt>
      <trkpt lat="41.44685286" lon="2.11675495">
        <ele>176.0</ele>
        <time>2021-03-03T09:43:46Z</time>
      </trkpt>
      <trkpt lat="41.44681821" lon="2.11677128">
        <ele>176.0</ele>
        <time>2021-03-03T09:43:47Z</time>
      </trkpt>
      <trkpt lat="41.44678554" lon="2.11678894">
        <ele>176.0</ele>
        <time>2021-03-03T09:43:48Z</time>
      </trkpt>
      <trkpt lat="41.44675155" lon="2.11681161">
        <ele>177.0</ele>
        <time>2021-03-03T09:43:49Z</time>
      </trkpt>
      <trkpt lat="41.44671989" lon="2.1168356">
        <ele>177.0</ele>
        <time>2021-03-03T09:43:50Z</time>
      </trkpt>
      <trkpt lat="41.44669124" lon="2.1168626">
        <ele>177.0</ele>
        <time>2021-03-03T09:43:51Z</time>
      </trkpt>
      <trkpt lat="41.44666424" lon="2.11689025">
        <ele>177.0</ele>
        <time>2021-03-03T09:43:52Z</time>
      </trkpt>
      <trkpt lat="41.44663957" lon="2.11691824">
        <ele>178.0</ele>
        <time>2021-03-03T09:43:53Z</time>
      </trkpt>
      <trkpt lat="41.44662024" lon="2.11694824">
        <ele>178.0</ele>
        <time>2021-03-03T09:43:54Z</time>
      </trkpt>
      <trkpt lat="41.44660425" lon="2.11697823">
        <ele>178.0</ele>
        <time>2021-03-03T09:43:55Z</time>
      </trkpt>
      <trkpt lat="41.44659259" lon="2.1170049">
        <ele>179.0</ele>
        <time>2021-03-03T09:43:56Z</time>
      </trkpt>
      <trkpt lat="41.44657992" lon="2.11703222">
        <ele>179.0</ele>
        <time>2021-03-03T09:43:57Z</time>
      </trkpt>
      <trkpt lat="41.4465686" lon="2.11705589">
        <ele>180.0</ele>
        <time>2021-03-03T09:43:58Z</time>
      </trkpt>
      <trkpt lat="41.4465556" lon="2.11707956">
        <ele>180.0</ele>
        <time>2021-03-03T09:43:59Z</time>
      </trkpt>
      <trkpt lat="41.44653794" lon="2.11710221">
        <ele>180.0</ele>
        <time>2021-03-03T09:44:00Z</time>
      </trkpt>
      <trkpt lat="41.44651962" lon="2.11712655">
        <ele>180.0</ele>
        <time>2021-03-03T09:44:01Z</time>
      </trkpt>
      <trkpt lat="41.44650129" lon="2.11715254">
        <ele>181.0</ele>
        <time>2021-03-03T09:44:02Z</time>
      </trkpt>
      <trkpt lat="41.44648263" lon="2.1171772">
        <ele>181.0</ele>
        <time>2021-03-03T09:44:03Z</time>
      </trkpt>
      <trkpt lat="41.44646063" lon="2.11719787">
        <ele>182.0</ele>
        <time>2021-03-03T09:44:04Z</time>
      </trkpt>
      <trkpt lat="41.44643963" lon="2.11721586">
        <ele>182.0</ele>
        <time>2021-03-03T09:44:05Z</time>
      </trkpt>
      <trkpt lat="41.44641697" lon="2.11723453">
        <ele>182.0</ele>
        <time>2021-03-03T09:44:06Z</time>
      </trkpt>
      <trkpt lat="41.44639098" lon="2.11725652">
        <ele>182.0</ele>
        <time>2021-03-03T09:44:07Z</time>
      </trkpt>
      <trkpt lat="41.44636898" lon="2.11727951">
        <ele>182.0</ele>
        <time>2021-03-03T09:44:08Z</time>
      </trkpt>
      <trkpt lat="41.44634633" lon="2.11730751">
        <ele>183.0</ele>
        <time>2021-03-03T09:44:09Z</time>
      </trkpt>
      <trkpt lat="41.44632634" lon="2.11733916">
        <ele>183.0</ele>
        <time>2021-03-03T09:44:10Z</time>
      </trkpt>
      <trkpt lat="41.44630967" lon="2.11736949">
        <ele>183.0</ele>
        <time>2021-03-03T09:44:11Z</time>
      </trkpt>
      <trkpt lat="41.44629367" lon="2.11739849">
        <ele>183.0</ele>
        <time>2021-03-03T09:44:12Z</time>
      </trkpt>
      <trkpt lat="41.44627568" lon="2.11742848">
        <ele>183.0</ele>
        <time>2021-03-03T09:44:13Z</time>
      </trkpt>
      <trkpt lat="41.44625869" lon="2.11745981">
        <ele>184.0</ele>
        <time>2021-03-03T09:44:14Z</time>
      </trkpt>
      <trkpt lat="41.44624236" lon="2.11749247">
        <ele>184.0</ele>
        <time>2021-03-03T09:44:15Z</time>
      </trkpt>
      <trkpt lat="41.44622703" lon="2.11752347">
        <ele>184.0</ele>
        <time>2021-03-03T09:44:16Z</time>
      </trkpt>
      <trkpt lat="41.44620971" lon="2.11755613">
        <ele>184.0</ele>
        <time>2021-03-03T09:44:17Z</time>
      </trkpt>
      <trkpt lat="41.44619038" lon="2.11758512">
        <ele>184.0</ele>
        <time>2021-03-03T09:44:18Z</time>
      </trkpt>
      <trkpt lat="41.44617004" lon="2.11760846">
        <ele>184.0</ele>
        <time>2021-03-03T09:44:19Z</time>
      </trkpt>
      <trkpt lat="41.44615005" lon="2.11762778">
        <ele>185.0</ele>
        <time>2021-03-03T09:44:20Z</time>
      </trkpt>
      <trkpt lat="41.44612673" lon="2.11764811">
        <ele>185.0</ele>
        <time>2021-03-03T09:44:21Z</time>
      </trkpt>
      <trkpt lat="41.44610274" lon="2.1176701">
        <ele>185.0</ele>
        <time>2021-03-03T09:44:22Z</time>
      </trkpt>
      <trkpt lat="41.44607807" lon="2.11769543">
        <ele>185.0</ele>
        <time>2021-03-03T09:44:23Z</time>
      </trkpt>
      <trkpt lat="41.44605208" lon="2.11772309">
        <ele>185.0</ele>
        <time>2021-03-03T09:44:24Z</time>
      </trkpt>
      <trkpt lat="41.44602475" lon="2.11774976">
        <ele>185.0</ele>
        <time>2021-03-03T09:44:25Z</time>
      </trkpt>
      <trkpt lat="41.44599943" lon="2.11777443">
        <ele>185.0</ele>
        <time>2021-03-03T09:44:26Z</time>
      </trkpt>
      <trkpt lat="41.44597077" lon="2.11779908">
        <ele>185.0</ele>
        <time>2021-03-03T09:44:27Z</time>
      </trkpt>
      <trkpt lat="41.44594077" lon="2.11781941">
        <ele>186.0</ele>
        <time>2021-03-03T09:44:28Z</time>
      </trkpt>
      <trkpt lat="41.44590911" lon="2.11783707">
        <ele>186.0</ele>
        <time>2021-03-03T09:44:29Z</time>
      </trkpt>
      <trkpt lat="41.44587779" lon="2.11785474">
        <ele>186.0</ele>
        <time>2021-03-03T09:44:30Z</time>
      </trkpt>
      <trkpt lat="41.44584712" lon="2.11787273">
        <ele>186.0</ele>
        <time>2021-03-03T09:44:31Z</time>
      </trkpt>
      <trkpt lat="41.44581613" lon="2.11789239">
        <ele>186.0</ele>
        <time>2021-03-03T09:44:32Z</time>
      </trkpt>
      <trkpt lat="41.44578647" lon="2.11791339">
        <ele>186.0</ele>
        <time>2021-03-03T09:44:33Z</time>
      </trkpt>
      <trkpt lat="41.44575981" lon="2.11793504">
        <ele>186.0</ele>
        <time>2021-03-03T09:44:34Z</time>
      </trkpt>
      <trkpt lat="41.44573548" lon="2.11795937">
        <ele>187.0</ele>
        <time>2021-03-03T09:44:35Z</time>
      </trkpt>
      <trkpt lat="41.44571414" lon="2.1179847">
        <ele>187.0</ele>
        <time>2021-03-03T09:44:36Z</time>
      </trkpt>
      <trkpt lat="41.44569549" lon="2.11800903">
        <ele>187.0</ele>
        <time>2021-03-03T09:44:37Z</time>
      </trkpt>
      <trkpt lat="41.44568015" lon="2.1180327">
        <ele>187.0</ele>
        <time>2021-03-03T09:44:38Z</time>
      </trkpt>
      <trkpt lat="41.44566583" lon="2.1180557">
        <ele>188.0</ele>
        <time>2021-03-03T09:44:39Z</time>
      </trkpt>
      <trkpt lat="41.44565151" lon="2.11807836">
        <ele>188.0</ele>
        <time>2021-03-03T09:44:40Z</time>
      </trkpt>
      <trkpt lat="41.44563652" lon="2.11810001">
        <ele>189.0</ele>
        <time>2021-03-03T09:44:41Z</time>
      </trkpt>
      <trkpt lat="41.44562186" lon="2.11812168">
        <ele>189.0</ele>
        <time>2021-03-03T09:44:42Z</time>
      </trkpt>
      <trkpt lat="41.44560853" lon="2.11814334">
        <ele>190.0</ele>
        <time>2021-03-03T09:44:43Z</time>
      </trkpt>
      <trkpt lat="41.44559387" lon="2.11816467">
        <ele>190.0</ele>
        <time>2021-03-03T09:44:44Z</time>
      </trkpt>
      <trkpt lat="41.44557688" lon="2.11818467">
        <ele>190.0</ele>
        <time>2021-03-03T09:44:45Z</time>
      </trkpt>
      <trkpt lat="41.44556088" lon="2.118206">
        <ele>190.0</ele>
        <time>2021-03-03T09:44:46Z</time>
      </trkpt>
      <trkpt lat="41.44554488" lon="2.11822834">
        <ele>191.0</ele>
        <time>2021-03-03T09:44:47Z</time>
      </trkpt>
      <trkpt lat="41.44552821" lon="2.11825066">
        <ele>191.0</ele>
        <time>2021-03-03T09:44:48Z</time>
      </trkpt>
      <trkpt lat="41.44551155" lon="2.11827199">
        <ele>192.0</ele>
        <time>2021-03-03T09:44:49Z</time>
      </trkpt>
      <trkpt lat="41.44549488" lon="2.11829366">
        <ele>192.0</ele>
        <time>2021-03-03T09:44:50Z</time>
      </trkpt>
      <trkpt lat="41.44547922" lon="2.11831698">
        <ele>193.0</ele>
        <time>2021-03-03T09:44:51Z</time>
      </trkpt>
      <trkpt lat="41.44546622" lon="2.11833964">
        <ele>193.0</ele>
        <time>2021-03-03T09:44:52Z</time>
      </trkpt>
      <trkpt lat="41.44545357" lon="2.11836431">
        <ele>193.0</ele>
        <time>2021-03-03T09:44:53Z</time>
      </trkpt>
      <trkpt lat="41.44544057" lon="2.1183883">
        <ele>193.0</ele>
        <time>2021-03-03T09:44:54Z</time>
      </trkpt>
      <trkpt lat="41.44542758" lon="2.11841496">
        <ele>194.0</ele>
        <time>2021-03-03T09:44:55Z</time>
      </trkpt>
      <trkpt lat="41.44541558" lon="2.11844196">
        <ele>194.0</ele>
        <time>2021-03-03T09:44:56Z</time>
      </trkpt>
      <trkpt lat="41.44540458" lon="2.11846962">
        <ele>194.0</ele>
        <time>2021-03-03T09:44:57Z</time>
      </trkpt>
      <trkpt lat="41.44539525" lon="2.11849629">
        <ele>194.0</ele>
        <time>2021-03-03T09:44:58Z</time>
      </trkpt>
      <trkpt lat="41.4453856" lon="2.11852429">
        <ele>194.0</ele>
        <time>2021-03-03T09:44:59Z</time>
      </trkpt>
      <trkpt lat="41.44537793" lon="2.11855228">
        <ele>194.0</ele>
        <time>2021-03-03T09:45:00Z</time>
      </trkpt>
      <trkpt lat="41.44536894" lon="2.11858293">
        <ele>195.0</ele>
        <time>2021-03-03T09:45:01Z</time>
      </trkpt>
      <trkpt lat="41.44535527" lon="2.11861193">
        <ele>195.0</ele>
        <time>2021-03-03T09:45:02Z</time>
      </trkpt>
      <trkpt lat="41.44534028" lon="2.1186426">
        <ele>195.0</ele>
        <time>2021-03-03T09:45:03Z</time>
      </trkpt>
      <trkpt lat="41.44532395" lon="2.11867393">
        <ele>195.0</ele>
        <time>2021-03-03T09:45:04Z</time>
      </trkpt>
      <trkpt lat="41.44530762" lon="2.11870459">
        <ele>195.0</ele>
        <time>2021-03-03T09:45:05Z</time>
      </trkpt>
      <trkpt lat="41.44528962" lon="2.11873959">
        <ele>195.0</ele>
        <time>2021-03-03T09:45:06Z</time>
      </trkpt>
      <trkpt lat="41.44526963" lon="2.11877459">
        <ele>195.0</ele>
        <time>2021-03-03T09:45:07Z</time>
      </trkpt>
      <trkpt lat="41.44524996" lon="2.11880992">
        <ele>195.0</ele>
        <time>2021-03-03T09:45:08Z</time>
      </trkpt>
      <trkpt lat="41.44523164" lon="2.11884192">
        <ele>195.0</ele>
        <time>2021-03-03T09:45:09Z</time>
      </trkpt>
      <trkpt lat="41.44521098" lon="2.11887559">
        <ele>195.0</ele>
        <time>2021-03-03T09:45:10Z</time>
      </trkpt>
      <trkpt lat="41.44519031" lon="2.11890691">
        <ele>195.0</ele>
        <time>2021-03-03T09:45:11Z</time>
      </trkpt>
      <trkpt lat="41.44516899" lon="2.11893625">
        <ele>195.0</ele>
        <time>2021-03-03T09:45:12Z</time>
      </trkpt>
      <trkpt lat="41.44515066" lon="2.1189619">
        <ele>196.0</ele>
        <time>2021-03-03T09:45:13Z</time>
      </trkpt>
      <trkpt lat="41.44513166" lon="2.11898823">
        <ele>196.0</ele>
        <time>2021-03-03T09:45:14Z</time>
      </trkpt>
      <trkpt lat="41.44511267" lon="2.11901323">
        <ele>196.0</ele>
        <time>2021-03-03T09:45:15Z</time>
      </trkpt>
      <trkpt lat="41.44509467" lon="2.11903922">
        <ele>196.0</ele>
        <time>2021-03-03T09:45:16Z</time>
      </trkpt>
      <trkpt lat="41.44507868" lon="2.11906622">
        <ele>196.0</ele>
        <time>2021-03-03T09:45:17Z</time>
      </trkpt>
      <trkpt lat="41.44506401" lon="2.11909288">
        <ele>196.0</ele>
        <time>2021-03-03T09:45:18Z</time>
      </trkpt>
      <trkpt lat="41.44505102" lon="2.11912021">
        <ele>196.0</ele>
        <time>2021-03-03T09:45:19Z</time>
      </trkpt>
      <trkpt lat="41.44503835" lon="2.11914621">
        <ele>197.0</ele>
        <time>2021-03-03T09:45:20Z</time>
      </trkpt>
      <trkpt lat="41.44502769" lon="2.11917186">
        <ele>197.0</ele>
        <time>2021-03-03T09:45:21Z</time>
      </trkpt>
      <trkpt lat="41.44501836" lon="2.11919786">
        <ele>197.0</ele>
        <time>2021-03-03T09:45:22Z</time>
      </trkpt>
      <trkpt lat="41.44501104" lon="2.11922119">
        <ele>197.0</ele>
        <time>2021-03-03T09:45:23Z</time>
      </trkpt>
      <trkpt lat="41.44500437" lon="2.11924519">
        <ele>198.0</ele>
        <time>2021-03-03T09:45:24Z</time>
      </trkpt>
      <trkpt lat="41.44499772" lon="2.11926884">
        <ele>198.0</ele>
        <time>2021-03-03T09:45:25Z</time>
      </trkpt>
      <trkpt lat="41.44499173" lon="2.11929418">
        <ele>198.0</ele>
        <time>2021-03-03T09:45:26Z</time>
      </trkpt>
      <trkpt lat="41.44498606" lon="2.11932118">
        <ele>198.0</ele>
        <time>2021-03-03T09:45:27Z</time>
      </trkpt>
      <trkpt lat="41.44498039" lon="2.11934983">
        <ele>199.0</ele>
        <time>2021-03-03T09:45:28Z</time>
      </trkpt>
      <trkpt lat="41.44497573" lon="2.11937982">
        <ele>199.0</ele>
        <time>2021-03-03T09:45:29Z</time>
      </trkpt>
      <trkpt lat="41.4449724" lon="2.11940982">
        <ele>200.0</ele>
        <time>2021-03-03T09:45:30Z</time>
      </trkpt>
      <trkpt lat="41.44496975" lon="2.11943948">
        <ele>200.0</ele>
        <time>2021-03-03T09:45:31Z</time>
      </trkpt>
      <trkpt lat="41.44496741" lon="2.11946848">
        <ele>200.0</ele>
        <time>2021-03-03T09:45:32Z</time>
      </trkpt>
      <trkpt lat="41.44496476" lon="2.1194978">
        <ele>200.0</ele>
        <time>2021-03-03T09:45:33Z</time>
      </trkpt>
      <trkpt lat="41.44496077" lon="2.1195268">
        <ele>201.0</ele>
        <time>2021-03-03T09:45:34Z</time>
      </trkpt>
      <trkpt lat="41.4449571" lon="2.11955547">
        <ele>201.0</ele>
        <time>2021-03-03T09:45:35Z</time>
      </trkpt>
      <trkpt lat="41.44495544" lon="2.11958179">
        <ele>201.0</ele>
        <time>2021-03-03T09:45:36Z</time>
      </trkpt>
      <trkpt lat="41.44495677" lon="2.11960779">
        <ele>201.0</ele>
        <time>2021-03-03T09:45:37Z</time>
      </trkpt>
      <trkpt lat="41.44496043" lon="2.11963378">
        <ele>202.0</ele>
        <time>2021-03-03T09:45:38Z</time>
      </trkpt>
      <trkpt lat="41.44496442" lon="2.11965745">
        <ele>202.0</ele>
        <time>2021-03-03T09:45:39Z</time>
      </trkpt>
      <trkpt lat="41.44496875" lon="2.11968012">
        <ele>203.0</ele>
        <time>2021-03-03T09:45:40Z</time>
      </trkpt>
      <trkpt lat="41.44497308" lon="2.11970277">
        <ele>203.0</ele>
        <time>2021-03-03T09:45:41Z</time>
      </trkpt>
      <trkpt lat="41.44497907" lon="2.11972577">
        <ele>203.0</ele>
        <time>2021-03-03T09:45:42Z</time>
      </trkpt>
      <trkpt lat="41.44498506" lon="2.11974876">
        <ele>203.0</ele>
        <time>2021-03-03T09:45:43Z</time>
      </trkpt>
      <trkpt lat="41.44499206" lon="2.11977143">
        <ele>204.0</ele>
        <time>2021-03-03T09:45:44Z</time>
      </trkpt>
      <trkpt lat="41.44500072" lon="2.11979409">
        <ele>204.0</ele>
        <time>2021-03-03T09:45:45Z</time>
      </trkpt>
      <trkpt lat="41.44501071" lon="2.11981709">
        <ele>204.0</ele>
        <time>2021-03-03T09:45:46Z</time>
      </trkpt>
      <trkpt lat="41.44502237" lon="2.11984174">
        <ele>204.0</ele>
        <time>2021-03-03T09:45:47Z</time>
      </trkpt>
      <trkpt lat="41.44503603" lon="2.11986673">
        <ele>205.0</ele>
        <time>2021-03-03T09:45:48Z</time>
      </trkpt>
      <trkpt lat="41.4450517" lon="2.11989207">
        <ele>205.0</ele>
        <time>2021-03-03T09:45:49Z</time>
      </trkpt>
      <trkpt lat="41.44506836" lon="2.1199174">
        <ele>205.0</ele>
        <time>2021-03-03T09:45:50Z</time>
      </trkpt>
      <trkpt lat="41.44508503" lon="2.11993939">
        <ele>205.0</ele>
        <time>2021-03-03T09:45:51Z</time>
      </trkpt>
      <trkpt lat="41.4451017" lon="2.11996238">
        <ele>206.0</ele>
        <time>2021-03-03T09:45:52Z</time>
      </trkpt>
      <trkpt lat="41.4451157" lon="2.11998405">
        <ele>206.0</ele>
        <time>2021-03-03T09:45:53Z</time>
      </trkpt>
      <trkpt lat="41.44512835" lon="2.12000771">
        <ele>206.0</ele>
        <time>2021-03-03T09:45:54Z</time>
      </trkpt>
      <trkpt lat="41.44514001" lon="2.12003071">
        <ele>206.0</ele>
        <time>2021-03-03T09:45:55Z</time>
      </trkpt>
      <trkpt lat="41.44515133" lon="2.1200527">
        <ele>206.0</ele>
        <time>2021-03-03T09:45:56Z</time>
      </trkpt>
      <trkpt lat="41.44515999" lon="2.12007369">
        <ele>206.0</ele>
        <time>2021-03-03T09:45:57Z</time>
      </trkpt>
      <trkpt lat="41.44516766" lon="2.12009536">
        <ele>207.0</ele>
        <time>2021-03-03T09:45:58Z</time>
      </trkpt>
      <trkpt lat="41.44517631" lon="2.12011735">
        <ele>207.0</ele>
        <time>2021-03-03T09:45:59Z</time>
      </trkpt>
      <trkpt lat="41.44518331" lon="2.12013967">
        <ele>208.0</ele>
        <time>2021-03-03T09:46:00Z</time>
      </trkpt>
      <trkpt lat="41.44518898" lon="2.12016267">
        <ele>208.0</ele>
        <time>2021-03-03T09:46:01Z</time>
      </trkpt>
      <trkpt lat="41.4451933" lon="2.12018434">
        <ele>208.0</ele>
        <time>2021-03-03T09:46:02Z</time>
      </trkpt>
      <trkpt lat="41.44519797" lon="2.120205">
        <ele>208.0</ele>
        <time>2021-03-03T09:46:03Z</time>
      </trkpt>
      <trkpt lat="41.44520064" lon="2.12022766">
        <ele>208.0</ele>
        <time>2021-03-03T09:46:04Z</time>
      </trkpt>
      <trkpt lat="41.44520163" lon="2.12024999">
        <ele>209.0</ele>
        <time>2021-03-03T09:46:05Z</time>
      </trkpt>
      <trkpt lat="41.4452013" lon="2.12027099">
        <ele>209.0</ele>
        <time>2021-03-03T09:46:06Z</time>
      </trkpt>
      <trkpt lat="41.44520031" lon="2.12029331">
        <ele>209.0</ele>
        <time>2021-03-03T09:46:07Z</time>
      </trkpt>
      <trkpt lat="41.44519766" lon="2.12031764">
        <ele>209.0</ele>
        <time>2021-03-03T09:46:08Z</time>
      </trkpt>
      <trkpt lat="41.44519366" lon="2.12034098">
        <ele>210.0</ele>
        <time>2021-03-03T09:46:09Z</time>
      </trkpt>
      <trkpt lat="41.44518967" lon="2.12036563">
        <ele>210.0</ele>
        <time>2021-03-03T09:46:10Z</time>
      </trkpt>
      <trkpt lat="41.44518433" lon="2.12039129">
        <ele>211.0</ele>
        <time>2021-03-03T09:46:11Z</time>
      </trkpt>
      <trkpt lat="41.44517768" lon="2.12041962">
        <ele>211.0</ele>
        <time>2021-03-03T09:46:12Z</time>
      </trkpt>
      <trkpt lat="41.44516968" lon="2.12044562">
        <ele>211.0</ele>
        <time>2021-03-03T09:46:13Z</time>
      </trkpt>
      <trkpt lat="41.44515968" lon="2.12047295">
        <ele>211.0</ele>
        <time>2021-03-03T09:46:14Z</time>
      </trkpt>
      <trkpt lat="41.44514735" lon="2.1204986">
        <ele>212.0</ele>
        <time>2021-03-03T09:46:15Z</time>
      </trkpt>
      <trkpt lat="41.44513369" lon="2.12052227">
        <ele>212.0</ele>
        <time>2021-03-03T09:46:15Z</time>
      </trkpt>
      <trkpt lat="41.44511769" lon="2.12054627">
        <ele>212.0</ele>
        <time>2021-03-03T09:46:16Z</time>
      </trkpt>
      <trkpt lat="41.44510003" lon="2.12056893">
        <ele>212.0</ele>
        <time>2021-03-03T09:46:17Z</time>
      </trkpt>
      <trkpt lat="41.44507503" lon="2.12059026">
        <ele>212.0</ele>
        <time>2021-03-03T09:46:18Z</time>
      </trkpt>
      <trkpt lat="41.44504736" lon="2.12060692">
        <ele>212.0</ele>
        <time>2021-03-03T09:46:19Z</time>
      </trkpt>
      <trkpt lat="41.44501704" lon="2.12061857">
        <ele>212.0</ele>
        <time>2021-03-03T09:46:20Z</time>
      </trkpt>
      <trkpt lat="41.44498537" lon="2.12062624">
        <ele>212.0</ele>
        <time>2021-03-03T09:46:21Z</time>
      </trkpt>
      <trkpt lat="41.44494938" lon="2.12063057">
        <ele>212.0</ele>
        <time>2021-03-03T09:46:22Z</time>
      </trkpt>
      <trkpt lat="41.44491338" lon="2.1206339">
        <ele>212.0</ele>
        <time>2021-03-03T09:46:23Z</time>
      </trkpt>
      <trkpt lat="41.44488206" lon="2.1206389">
        <ele>212.0</ele>
        <time>2021-03-03T09:46:24Z</time>
      </trkpt>
      <trkpt lat="41.44484873" lon="2.12064922">
        <ele>213.0</ele>
        <time>2021-03-03T09:46:25Z</time>
      </trkpt>
      <trkpt lat="41.44481606" lon="2.12066354">
        <ele>213.0</ele>
        <time>2021-03-03T09:46:26Z</time>
      </trkpt>
      <trkpt lat="41.44478374" lon="2.12067854">
        <ele>213.0</ele>
        <time>2021-03-03T09:46:27Z</time>
      </trkpt>
      <trkpt lat="41.44475007" lon="2.12069487">
        <ele>213.0</ele>
        <time>2021-03-03T09:46:28Z</time>
      </trkpt>
      <trkpt lat="41.44471308" lon="2.12071219">
        <ele>213.0</ele>
        <time>2021-03-03T09:46:29Z</time>
      </trkpt>
      <trkpt lat="41.44467475" lon="2.12072519">
        <ele>213.0</ele>
        <time>2021-03-03T09:46:30Z</time>
      </trkpt>
      <trkpt lat="41.44463409" lon="2.12073585">
        <ele>213.0</ele>
        <time>2021-03-03T09:46:31Z</time>
      </trkpt>
      <trkpt lat="41.44458609" lon="2.12074018">
        <ele>213.0</ele>
        <time>2021-03-03T09:46:32Z</time>
      </trkpt>
      <trkpt lat="41.4445391" lon="2.12074018">
        <ele>213.0</ele>
        <time>2021-03-03T09:46:33Z</time>
      </trkpt>
      <trkpt lat="41.44449378" lon="2.12073985">
        <ele>213.0</ele>
        <time>2021-03-03T09:46:34Z</time>
      </trkpt>
      <trkpt lat="41.44445011" lon="2.12074184">
        <ele>213.0</ele>
        <time>2021-03-03T09:46:35Z</time>
      </trkpt>
      <trkpt lat="41.44440945" lon="2.12075017">
        <ele>213.0</ele>
        <time>2021-03-03T09:46:36Z</time>
      </trkpt>
      <trkpt lat="41.44437345" lon="2.1207635">
        <ele>213.0</ele>
        <time>2021-03-03T09:46:37Z</time>
      </trkpt>
      <trkpt lat="41.44434045" lon="2.12078316">
        <ele>213.0</ele>
        <time>2021-03-03T09:46:38Z</time>
      </trkpt>
      <trkpt lat="41.44430946" lon="2.12081083">
        <ele>213.0</ele>
        <time>2021-03-03T09:46:39Z</time>
      </trkpt>
      <trkpt lat="41.44428981" lon="2.12084248">
        <ele>213.0</ele>
        <time>2021-03-03T09:46:40Z</time>
      </trkpt>
      <trkpt lat="41.44426815" lon="2.12087615">
        <ele>213.0</ele>
        <time>2021-03-03T09:46:41Z</time>
      </trkpt>
      <trkpt lat="41.44424615" lon="2.12090847">
        <ele>213.0</ele>
        <time>2021-03-03T09:46:42Z</time>
      </trkpt>
      <trkpt lat="41.44421948" lon="2.12093813">
        <ele>213.0</ele>
        <time>2021-03-03T09:46:43Z</time>
      </trkpt>
      <trkpt lat="41.44419215" lon="2.1209658">
        <ele>213.0</ele>
        <time>2021-03-03T09:46:44Z</time>
      </trkpt>
      <trkpt lat="41.44416383" lon="2.12099246">
        <ele>213.0</ele>
        <time>2021-03-03T09:46:45Z</time>
      </trkpt>
      <trkpt lat="41.4441345" lon="2.12101645">
        <ele>213.0</ele>
        <time>2021-03-03T09:46:46Z</time>
      </trkpt>
      <trkpt lat="41.4441075" lon="2.12103911">
        <ele>213.0</ele>
        <time>2021-03-03T09:46:47Z</time>
      </trkpt>
      <trkpt lat="41.44408517" lon="2.12106311">
        <ele>213.0</ele>
        <time>2021-03-03T09:46:48Z</time>
      </trkpt>
      <trkpt lat="41.44406485" lon="2.12108577">
        <ele>213.0</ele>
        <time>2021-03-03T09:46:49Z</time>
      </trkpt>
      <trkpt lat="41.44404486" lon="2.12110643">
        <ele>213.0</ele>
        <time>2021-03-03T09:46:50Z</time>
      </trkpt>
      <trkpt lat="41.4440262" lon="2.12112376">
        <ele>213.0</ele>
        <time>2021-03-03T09:46:51Z</time>
      </trkpt>
      <trkpt lat="41.44400753" lon="2.12114242">
        <ele>213.0</ele>
        <time>2021-03-03T09:46:52Z</time>
      </trkpt>
      <trkpt lat="41.44399187" lon="2.12115908">
        <ele>213.0</ele>
        <time>2021-03-03T09:46:53Z</time>
      </trkpt>
      <trkpt lat="41.44397787" lon="2.12117374">
        <ele>213.0</ele>
        <time>2021-03-03T09:46:54Z</time>
      </trkpt>
      <trkpt lat="41.44396321" lon="2.1211864">
        <ele>213.0</ele>
        <time>2021-03-03T09:46:55Z</time>
      </trkpt>
      <trkpt lat="41.44394822" lon="2.12119606">
        <ele>214.0</ele>
        <time>2021-03-03T09:46:56Z</time>
      </trkpt>
      <trkpt lat="41.44393322" lon="2.12120638">
        <ele>214.0</ele>
        <time>2021-03-03T09:46:57Z</time>
      </trkpt>
      <trkpt lat="41.44392156" lon="2.12121805">
        <ele>214.0</ele>
        <time>2021-03-03T09:46:58Z</time>
      </trkpt>
      <trkpt lat="41.44391257" lon="2.12122972">
        <ele>214.0</ele>
        <time>2021-03-03T09:46:59Z</time>
      </trkpt>
      <trkpt lat="41.44390992" lon="2.12123837">
        <ele>214.0</ele>
        <time>2021-03-03T09:47:00Z</time>
      </trkpt>
      <trkpt lat="41.44391158" lon="2.12124171">
        <ele>214.0</ele>
        <time>2021-03-03T09:47:01Z</time>
      </trkpt>
      <trkpt lat="41.44391624" lon="2.12123738">
        <ele>214.0</ele>
        <time>2021-03-03T09:47:02Z</time>
      </trkpt>
      <trkpt lat="41.44392424" lon="2.12122705">
        <ele>214.0</ele>
        <time>2021-03-03T09:47:03Z</time>
      </trkpt>
      <trkpt lat="41.44393323" lon="2.12121339">
        <ele>214.0</ele>
        <time>2021-03-03T09:47:04Z</time>
      </trkpt>
      <trkpt lat="41.44394123" lon="2.12120174">
        <ele>214.0</ele>
        <time>2021-03-03T09:47:05Z</time>
      </trkpt>
      <trkpt lat="41.44394722" lon="2.1211924">
        <ele>214.0</ele>
        <time>2021-03-03T09:47:06Z</time>
      </trkpt>
      <trkpt lat="41.44396122" lon="2.12116908">
        <ele>214.0</ele>
        <time>2021-03-03T09:47:36Z</time>
      </trkpt>
      <trkpt lat="41.44397122" lon="2.12116575">
        <ele>214.0</ele>
        <time>2021-03-03T09:47:46Z</time>
      </trkpt>
      <trkpt lat="41.44398288" lon="2.12118074">
        <ele>214.0</ele>
        <time>2021-03-03T09:48:23Z</time>
      </trkpt>
      <trkpt lat="41.44398122" lon="2.1211824">
        <ele>214.0</ele>
        <time>2021-03-03T09:48:25Z</time>
      </trkpt>
      <trkpt lat="41.44397789" lon="2.1211774">
        <ele>214.0</ele>
        <time>2021-03-03T09:49:05Z</time>
      </trkpt>
      <trkpt lat="41.44398289" lon="2.12117907">
        <ele>214.0</ele>
        <time>2021-03-03T09:49:09Z</time>
      </trkpt>
      <trkpt lat="41.44398789" lon="2.12118407">
        <ele>214.0</ele>
        <time>2021-03-03T09:49:19Z</time>
      </trkpt>
      <trkpt lat="41.44399121" lon="2.12119073">
        <ele>214.0</ele>
        <time>2021-03-03T09:49:27Z</time>
      </trkpt>
      <trkpt lat="41.44399121" lon="2.12119073">
        <ele>214.0</ele>
        <time>2021-03-03T09:49:34Z</time>
      </trkpt>
      <trkpt lat="41.44399121" lon="2.12119138">
        <ele>214.0</ele>
        <time>2021-03-03T09:49:35Z</time>
      </trkpt>
      <trkpt lat="41.44399055" lon="2.12119172">
        <ele>214.0</ele>
        <time>2021-03-03T09:49:36Z</time>
      </trkpt>
      <trkpt lat="41.44399088" lon="2.12119237">
        <ele>214.0</ele>
        <time>2021-03-03T09:49:37Z</time>
      </trkpt>
      <trkpt lat="41.44398854" lon="2.12119071">
        <ele>214.0</ele>
        <time>2021-03-03T09:49:38Z</time>
      </trkpt>
      <trkpt lat="41.44398354" lon="2.12118737">
        <ele>214.0</ele>
        <time>2021-03-03T09:49:39Z</time>
      </trkpt>
      <trkpt lat="41.44397689" lon="2.12118305">
        <ele>214.0</ele>
        <time>2021-03-03T09:49:40Z</time>
      </trkpt>
      <trkpt lat="41.44396955" lon="2.12117738">
        <ele>214.0</ele>
        <time>2021-03-03T09:49:41Z</time>
      </trkpt>
      <trkpt lat="41.4439639" lon="2.12117306">
        <ele>214.0</ele>
        <time>2021-03-03T09:49:42Z</time>
      </trkpt>
      <trkpt lat="41.44395124" lon="2.12116074">
        <ele>214.0</ele>
        <time>2021-03-03T09:49:44Z</time>
      </trkpt>
      <trkpt lat="41.44395058" lon="2.12115974">
        <ele>214.0</ele>
        <time>2021-03-03T09:49:45Z</time>
      </trkpt>
      <trkpt lat="41.44395791" lon="2.12115741">
        <ele>214.0</ele>
        <time>2021-03-03T09:49:47Z</time>
      </trkpt>
      <trkpt lat="41.44395823" lon="2.12115807">
        <ele>214.0</ele>
        <time>2021-03-03T09:49:48Z</time>
      </trkpt>
      <trkpt lat="41.44395791" lon="2.12115741">
        <ele>214.0</ele>
        <time>2021-03-03T09:49:49Z</time>
      </trkpt>
      <trkpt lat="41.44396123" lon="2.12115908">
        <ele>214.0</ele>
        <time>2021-03-03T09:49:52Z</time>
      </trkpt>
      <trkpt lat="41.44396156" lon="2.12115808">
        <ele>214.0</ele>
        <time>2021-03-03T09:49:53Z</time>
      </trkpt>
      <trkpt lat="41.44396622" lon="2.12115908">
        <ele>214.0</ele>
        <time>2021-03-03T09:49:55Z</time>
      </trkpt>
      <trkpt lat="41.44396722" lon="2.12115908">
        <ele>214.0</ele>
        <time>2021-03-03T09:49:56Z</time>
      </trkpt>
      <trkpt lat="41.44396622" lon="2.12115908">
        <ele>214.0</ele>
        <time>2021-03-03T09:49:58Z</time>
      </trkpt>
      <trkpt lat="41.44396556" lon="2.1211594">
        <ele>214.0</ele>
        <time>2021-03-03T09:49:59Z</time>
      </trkpt>
      <trkpt lat="41.4439639" lon="2.12115974">
        <ele>214.0</ele>
        <time>2021-03-03T09:50:00Z</time>
      </trkpt>
      <trkpt lat="41.44395624" lon="2.12115908">
        <ele>214.0</ele>
        <time>2021-03-03T09:50:02Z</time>
      </trkpt>
      <trkpt lat="41.44395656" lon="2.1211594">
        <ele>214.0</ele>
        <time>2021-03-03T09:50:03Z</time>
      </trkpt>
      <trkpt lat="41.44395624" lon="2.12116074">
        <ele>214.0</ele>
        <time>2021-03-03T09:50:04Z</time>
      </trkpt>
      <trkpt lat="41.4439579" lon="2.12116273">
        <ele>214.0</ele>
        <time>2021-03-03T09:50:05Z</time>
      </trkpt>
      <trkpt lat="41.44396055" lon="2.12116405">
        <ele>214.0</ele>
        <time>2021-03-03T09:50:06Z</time>
      </trkpt>
      <trkpt lat="41.44396322" lon="2.12116738">
        <ele>214.0</ele>
        <time>2021-03-03T09:50:07Z</time>
      </trkpt>
      <trkpt lat="41.44396522" lon="2.12117037">
        <ele>214.0</ele>
        <time>2021-03-03T09:50:08Z</time>
      </trkpt>
      <trkpt lat="41.44396621" lon="2.1211737">
        <ele>214.0</ele>
        <time>2021-03-03T09:50:09Z</time>
      </trkpt>
      <trkpt lat="41.44395788" lon="2.1211857">
        <ele>214.0</ele>
        <time>2021-03-03T09:50:30Z</time>
      </trkpt>
      <trkpt lat="41.44395455" lon="2.12118236">
        <ele>214.0</ele>
        <time>2021-03-03T09:50:41Z</time>
      </trkpt>
      <trkpt lat="41.44396121" lon="2.1211777">
        <ele>214.0</ele>
        <time>2021-03-03T09:50:42Z</time>
      </trkpt>
      <trkpt lat="41.44397654" lon="2.12116704">
        <ele>214.0</ele>
        <time>2021-03-03T09:50:43Z</time>
      </trkpt>
      <trkpt lat="41.44400087" lon="2.12115171">
        <ele>214.0</ele>
        <time>2021-03-03T09:50:44Z</time>
      </trkpt>
      <trkpt lat="41.44402787" lon="2.12113205">
        <ele>214.0</ele>
        <time>2021-03-03T09:50:45Z</time>
      </trkpt>
      <trkpt lat="41.44405753" lon="2.12110939">
        <ele>214.0</ele>
        <time>2021-03-03T09:50:46Z</time>
      </trkpt>
      <trkpt lat="41.4440882" lon="2.12108273">
        <ele>214.0</ele>
        <time>2021-03-03T09:50:47Z</time>
      </trkpt>
      <trkpt lat="41.44412219" lon="2.12105307">
        <ele>214.0</ele>
        <time>2021-03-03T09:50:48Z</time>
      </trkpt>
      <trkpt lat="41.44415685" lon="2.12102007">
        <ele>214.0</ele>
        <time>2021-03-03T09:50:49Z</time>
      </trkpt>
      <trkpt lat="41.44419318" lon="2.12098375">
        <ele>214.0</ele>
        <time>2021-03-03T09:50:50Z</time>
      </trkpt>
      <trkpt lat="41.44422517" lon="2.12094509">
        <ele>213.0</ele>
        <time>2021-03-03T09:50:51Z</time>
      </trkpt>
      <trkpt lat="41.44425383" lon="2.1209051">
        <ele>213.0</ele>
        <time>2021-03-03T09:50:52Z</time>
      </trkpt>
      <trkpt lat="41.44428516" lon="2.1208711">
        <ele>213.0</ele>
        <time>2021-03-03T09:50:53Z</time>
      </trkpt>
      <trkpt lat="41.44431882" lon="2.12084443">
        <ele>213.0</ele>
        <time>2021-03-03T09:50:54Z</time>
      </trkpt>
      <trkpt lat="41.44435382" lon="2.12082678">
        <ele>213.0</ele>
        <time>2021-03-03T09:50:55Z</time>
      </trkpt>
      <trkpt lat="41.44439114" lon="2.12081678">
        <ele>213.0</ele>
        <time>2021-03-03T09:50:56Z</time>
      </trkpt>
      <trkpt lat="41.44443113" lon="2.12081178">
        <ele>212.0</ele>
        <time>2021-03-03T09:50:57Z</time>
      </trkpt>
      <trkpt lat="41.4444698" lon="2.12080645">
        <ele>212.0</ele>
        <time>2021-03-03T09:50:58Z</time>
      </trkpt>
      <trkpt lat="41.44450746" lon="2.12080013">
        <ele>212.0</ele>
        <time>2021-03-03T09:50:59Z</time>
      </trkpt>
      <trkpt lat="41.44454413" lon="2.12079046">
        <ele>212.0</ele>
        <time>2021-03-03T09:51:00Z</time>
      </trkpt>
      <trkpt lat="41.4445808" lon="2.12077814">
        <ele>212.0</ele>
        <time>2021-03-03T09:51:01Z</time>
      </trkpt>
      <trkpt lat="41.44461579" lon="2.12076347">
        <ele>212.0</ele>
        <time>2021-03-03T09:51:02Z</time>
      </trkpt>
      <trkpt lat="41.44464579" lon="2.12074747">
        <ele>212.0</ele>
        <time>2021-03-03T09:51:03Z</time>
      </trkpt>
      <trkpt lat="41.44466944" lon="2.12073381">
        <ele>212.0</ele>
        <time>2021-03-03T09:51:04Z</time>
      </trkpt>
      <trkpt lat="41.44468643" lon="2.12072182">
        <ele>212.0</ele>
        <time>2021-03-03T09:51:05Z</time>
      </trkpt>
      <trkpt lat="41.44469943" lon="2.12071382">
        <ele>212.0</ele>
        <time>2021-03-03T09:51:06Z</time>
      </trkpt>
      <trkpt lat="41.44472609" lon="2.12068749">
        <ele>212.0</ele>
        <time>2021-03-03T09:51:08Z</time>
      </trkpt>
      <trkpt lat="41.44472609" lon="2.12068649">
        <ele>212.0</ele>
        <time>2021-03-03T09:51:09Z</time>
      </trkpt>
      <trkpt lat="41.44472941" lon="2.12068584">
        <ele>212.0</ele>
        <time>2021-03-03T09:51:12Z</time>
      </trkpt>
      <trkpt lat="41.44473108" lon="2.12068085">
        <ele>212.0</ele>
        <time>2021-03-03T09:51:17Z</time>
      </trkpt>
      <trkpt lat="41.44473608" lon="2.12068085">
        <ele>212.0</ele>
        <time>2021-03-03T09:51:24Z</time>
      </trkpt>
      <trkpt lat="41.44474574" lon="2.12067985">
        <ele>212.0</ele>
        <time>2021-03-03T09:51:25Z</time>
      </trkpt>
      <trkpt lat="41.44476606" lon="2.12067786">
        <ele>212.0</ele>
        <time>2021-03-03T09:51:26Z</time>
      </trkpt>
      <trkpt lat="41.44479939" lon="2.12067052">
        <ele>212.0</ele>
        <time>2021-03-03T09:51:27Z</time>
      </trkpt>
      <trkpt lat="41.44483839" lon="2.12066253">
        <ele>212.0</ele>
        <time>2021-03-03T09:51:28Z</time>
      </trkpt>
      <trkpt lat="41.44488405" lon="2.12065121">
        <ele>213.0</ele>
        <time>2021-03-03T09:51:29Z</time>
      </trkpt>
      <trkpt lat="41.44492872" lon="2.12063421">
        <ele>213.0</ele>
        <time>2021-03-03T09:51:30Z</time>
      </trkpt>
      <trkpt lat="41.44496804" lon="2.12060888">
        <ele>213.0</ele>
        <time>2021-03-03T09:51:31Z</time>
      </trkpt>
      <trkpt lat="41.44500271" lon="2.12057622">
        <ele>213.0</ele>
        <time>2021-03-03T09:51:32Z</time>
      </trkpt>
      <trkpt lat="41.44503336" lon="2.12053722">
        <ele>213.0</ele>
        <time>2021-03-03T09:51:33Z</time>
      </trkpt>
      <trkpt lat="41.4450587" lon="2.12049623">
        <ele>213.0</ele>
        <time>2021-03-03T09:51:34Z</time>
      </trkpt>
      <trkpt lat="41.44508336" lon="2.12044523">
        <ele>213.0</ele>
        <time>2021-03-03T09:51:35Z</time>
      </trkpt>
      <trkpt lat="41.4451027" lon="2.12039191">
        <ele>213.0</ele>
        <time>2021-03-03T09:51:36Z</time>
      </trkpt>
      <trkpt lat="41.4451157" lon="2.12034024">
        <ele>212.0</ele>
        <time>2021-03-03T09:51:37Z</time>
      </trkpt>
      <trkpt lat="41.44512035" lon="2.12028458">
        <ele>212.0</ele>
        <time>2021-03-03T09:51:38Z</time>
      </trkpt>
      <trkpt lat="41.44511936" lon="2.12023192">
        <ele>212.0</ele>
        <time>2021-03-03T09:51:39Z</time>
      </trkpt>
      <trkpt lat="41.44511203" lon="2.12018225">
        <ele>212.0</ele>
        <time>2021-03-03T09:51:40Z</time>
      </trkpt>
      <trkpt lat="41.44509971" lon="2.12013759">
        <ele>211.0</ele>
        <time>2021-03-03T09:51:41Z</time>
      </trkpt>
      <trkpt lat="41.44508438" lon="2.12009493">
        <ele>211.0</ele>
        <time>2021-03-03T09:51:42Z</time>
      </trkpt>
      <trkpt lat="41.44506572" lon="2.12005194">
        <ele>210.0</ele>
        <time>2021-03-03T09:51:43Z</time>
      </trkpt>
      <trkpt lat="41.44504605" lon="2.1200106">
        <ele>210.0</ele>
        <time>2021-03-03T09:51:44Z</time>
      </trkpt>
      <trkpt lat="41.44502405" lon="2.11996794">
        <ele>209.0</ele>
        <time>2021-03-03T09:51:45Z</time>
      </trkpt>
      <trkpt lat="41.44500573" lon="2.11992894">
        <ele>209.0</ele>
        <time>2021-03-03T09:51:46Z</time>
      </trkpt>
      <trkpt lat="41.44498939" lon="2.11988595">
        <ele>208.0</ele>
        <time>2021-03-03T09:51:47Z</time>
      </trkpt>
      <trkpt lat="41.44497606" lon="2.11984429">
        <ele>208.0</ele>
        <time>2021-03-03T09:51:48Z</time>
      </trkpt>
      <trkpt lat="41.4449664" lon="2.11980329">
        <ele>207.0</ele>
        <time>2021-03-03T09:51:49Z</time>
      </trkpt>
      <trkpt lat="41.4449564" lon="2.11976097">
        <ele>207.0</ele>
        <time>2021-03-03T09:51:50Z</time>
      </trkpt>
      <trkpt lat="41.44494475" lon="2.11971564">
        <ele>207.0</ele>
        <time>2021-03-03T09:51:51Z</time>
      </trkpt>
      <trkpt lat="41.44493375" lon="2.11966698">
        <ele>206.0</ele>
        <time>2021-03-03T09:51:52Z</time>
      </trkpt>
      <trkpt lat="41.44492608" lon="2.11961564">
        <ele>206.0</ele>
        <time>2021-03-03T09:51:53Z</time>
      </trkpt>
      <trkpt lat="41.44492708" lon="2.11956265">
        <ele>205.0</ele>
        <time>2021-03-03T09:51:54Z</time>
      </trkpt>
      <trkpt lat="41.44493275" lon="2.11950699">
        <ele>205.0</ele>
        <time>2021-03-03T09:51:55Z</time>
      </trkpt>
      <trkpt lat="41.44494474" lon="2.11944965">
        <ele>204.0</ele>
        <time>2021-03-03T09:51:56Z</time>
      </trkpt>
      <trkpt lat="41.44495939" lon="2.119391">
        <ele>204.0</ele>
        <time>2021-03-03T09:51:57Z</time>
      </trkpt>
      <trkpt lat="41.44497573" lon="2.11933133">
        <ele>203.0</ele>
        <time>2021-03-03T09:51:58Z</time>
      </trkpt>
      <trkpt lat="41.44499473" lon="2.119271">
        <ele>202.0</ele>
        <time>2021-03-03T09:51:59Z</time>
      </trkpt>
      <trkpt lat="41.44501538" lon="2.11921034">
        <ele>202.0</ele>
        <time>2021-03-03T09:52:00Z</time>
      </trkpt>
      <trkpt lat="41.44504137" lon="2.11915101">
        <ele>201.0</ele>
        <time>2021-03-03T09:52:01Z</time>
      </trkpt>
      <trkpt lat="41.4450727" lon="2.11909301">
        <ele>201.0</ele>
        <time>2021-03-03T09:52:02Z</time>
      </trkpt>
      <trkpt lat="41.44511003" lon="2.11903602">
        <ele>200.0</ele>
        <time>2021-03-03T09:52:03Z</time>
      </trkpt>
      <trkpt lat="41.44515235" lon="2.11897903">
        <ele>200.0</ele>
        <time>2021-03-03T09:52:04Z</time>
      </trkpt>
      <trkpt lat="41.44519402" lon="2.1189207">
        <ele>199.0</ele>
        <time>2021-03-03T09:52:05Z</time>
      </trkpt>
      <trkpt lat="41.44523334" lon="2.11886071">
        <ele>198.0</ele>
        <time>2021-03-03T09:52:06Z</time>
      </trkpt>
      <trkpt lat="41.44527033" lon="2.11879839">
        <ele>198.0</ele>
        <time>2021-03-03T09:52:07Z</time>
      </trkpt>
      <trkpt lat="41.44530432" lon="2.1187354">
        <ele>197.0</ele>
        <time>2021-03-03T09:52:08Z</time>
      </trkpt>
      <trkpt lat="41.44533499" lon="2.1186714">
        <ele>197.0</ele>
        <time>2021-03-03T09:52:09Z</time>
      </trkpt>
      <trkpt lat="41.44536131" lon="2.11860407">
        <ele>197.0</ele>
        <time>2021-03-03T09:52:10Z</time>
      </trkpt>
      <trkpt lat="41.44538797" lon="2.11853473">
        <ele>196.0</ele>
        <time>2021-03-03T09:52:11Z</time>
      </trkpt>
      <trkpt lat="41.44541497" lon="2.11846341">
        <ele>196.0</ele>
        <time>2021-03-03T09:52:12Z</time>
      </trkpt>
      <trkpt lat="41.44544197" lon="2.11839042">
        <ele>196.0</ele>
        <time>2021-03-03T09:52:13Z</time>
      </trkpt>
      <trkpt lat="41.44547063" lon="2.11832175">
        <ele>196.0</ele>
        <time>2021-03-03T09:52:14Z</time>
      </trkpt>
      <trkpt lat="41.44550195" lon="2.1182571">
        <ele>195.0</ele>
        <time>2021-03-03T09:52:15Z</time>
      </trkpt>
      <trkpt lat="41.44553528" lon="2.1181961">
        <ele>195.0</ele>
        <time>2021-03-03T09:52:16Z</time>
      </trkpt>
      <trkpt lat="41.44557162" lon="2.11813743">
        <ele>194.0</ele>
        <time>2021-03-03T09:52:17Z</time>
      </trkpt>
      <trkpt lat="41.44560961" lon="2.1180841">
        <ele>194.0</ele>
        <time>2021-03-03T09:52:18Z</time>
      </trkpt>
      <trkpt lat="41.44564994" lon="2.11803376">
        <ele>193.0</ele>
        <time>2021-03-03T09:52:19Z</time>
      </trkpt>
      <trkpt lat="41.44569293" lon="2.11798711">
        <ele>193.0</ele>
        <time>2021-03-03T09:52:20Z</time>
      </trkpt>
      <trkpt lat="41.44573793" lon="2.11794244">
        <ele>192.0</ele>
        <time>2021-03-03T09:52:21Z</time>
      </trkpt>
      <trkpt lat="41.44578526" lon="2.11789778">
        <ele>191.0</ele>
        <time>2021-03-03T09:52:22Z</time>
      </trkpt>
      <trkpt lat="41.44583425" lon="2.11785212">
        <ele>190.0</ele>
        <time>2021-03-03T09:52:23Z</time>
      </trkpt>
      <trkpt lat="41.44588325" lon="2.11780712">
        <ele>190.0</ele>
        <time>2021-03-03T09:52:24Z</time>
      </trkpt>
      <trkpt lat="41.44593258" lon="2.11776413">
        <ele>189.0</ele>
        <time>2021-03-03T09:52:25Z</time>
      </trkpt>
      <trkpt lat="41.44598191" lon="2.11772246">
        <ele>189.0</ele>
        <time>2021-03-03T09:52:26Z</time>
      </trkpt>
      <trkpt lat="41.44602957" lon="2.11768147">
        <ele>188.0</ele>
        <time>2021-03-03T09:52:27Z</time>
      </trkpt>
      <trkpt lat="41.44607257" lon="2.11763981">
        <ele>187.0</ele>
        <time>2021-03-03T09:52:28Z</time>
      </trkpt>
      <trkpt lat="41.44611457" lon="2.11759715">
        <ele>187.0</ele>
        <time>2021-03-03T09:52:29Z</time>
      </trkpt>
      <trkpt lat="41.44615689" lon="2.11755416">
        <ele>187.0</ele>
        <time>2021-03-03T09:52:30Z</time>
      </trkpt>
      <trkpt lat="41.44620189" lon="2.11751149">
        <ele>186.0</ele>
        <time>2021-03-03T09:52:31Z</time>
      </trkpt>
      <trkpt lat="41.44624755" lon="2.1174675">
        <ele>186.0</ele>
        <time>2021-03-03T09:52:32Z</time>
      </trkpt>
      <trkpt lat="41.44629155" lon="2.11742051">
        <ele>186.0</ele>
        <time>2021-03-03T09:52:33Z</time>
      </trkpt>
      <trkpt lat="41.44633554" lon="2.11737485">
        <ele>185.0</ele>
        <time>2021-03-03T09:52:34Z</time>
      </trkpt>
      <trkpt lat="41.44637819" lon="2.11733085">
        <ele>185.0</ele>
        <time>2021-03-03T09:52:35Z</time>
      </trkpt>
      <trkpt lat="41.44641953" lon="2.11729153">
        <ele>184.0</ele>
        <time>2021-03-03T09:52:36Z</time>
      </trkpt>
      <trkpt lat="41.44645885" lon="2.11725321">
        <ele>184.0</ele>
        <time>2021-03-03T09:52:37Z</time>
      </trkpt>
      <trkpt lat="41.44649552" lon="2.11721154">
        <ele>184.0</ele>
        <time>2021-03-03T09:52:38Z</time>
      </trkpt>
      <trkpt lat="41.44653418" lon="2.11716422">
        <ele>184.0</ele>
        <time>2021-03-03T09:52:39Z</time>
      </trkpt>
      <trkpt lat="41.44657451" lon="2.11711255">
        <ele>184.0</ele>
        <time>2021-03-03T09:52:40Z</time>
      </trkpt>
      <trkpt lat="41.44661983" lon="2.11705456">
        <ele>183.0</ele>
        <time>2021-03-03T09:52:41Z</time>
      </trkpt>
      <trkpt lat="41.44666916" lon="2.11699723">
        <ele>183.0</ele>
        <time>2021-03-03T09:52:42Z</time>
      </trkpt>
      <trkpt lat="41.44672483" lon="2.11694223">
        <ele>182.0</ele>
        <time>2021-03-03T09:52:43Z</time>
      </trkpt>
      <trkpt lat="41.44678482" lon="2.11689324">
        <ele>181.0</ele>
        <time>2021-03-03T09:52:44Z</time>
      </trkpt>
      <trkpt lat="41.44684748" lon="2.11685357">
        <ele>181.0</ele>
        <time>2021-03-03T09:52:45Z</time>
      </trkpt>
      <trkpt lat="41.44690947" lon="2.11682757">
        <ele>180.0</ele>
        <time>2021-03-03T09:52:46Z</time>
      </trkpt>
      <trkpt lat="41.4469728" lon="2.11681725">
        <ele>179.0</ele>
        <time>2021-03-03T09:52:47Z</time>
      </trkpt>
      <trkpt lat="41.44703779" lon="2.11681691">
        <ele>179.0</ele>
        <time>2021-03-03T09:52:48Z</time>
      </trkpt>
      <trkpt lat="41.44710212" lon="2.11681725">
        <ele>179.0</ele>
        <time>2021-03-03T09:52:49Z</time>
      </trkpt>
      <trkpt lat="41.44716178" lon="2.11681126">
        <ele>179.0</ele>
        <time>2021-03-03T09:52:50Z</time>
      </trkpt>
      <trkpt lat="41.44721444" lon="2.11679392">
        <ele>178.0</ele>
        <time>2021-03-03T09:52:51Z</time>
      </trkpt>
      <trkpt lat="41.44725944" lon="2.11676492">
        <ele>178.0</ele>
        <time>2021-03-03T09:52:52Z</time>
      </trkpt>
      <trkpt lat="41.44729777" lon="2.1167256">
        <ele>177.0</ele>
        <time>2021-03-03T09:52:53Z</time>
      </trkpt>
      <trkpt lat="41.4473281" lon="2.11667661">
        <ele>177.0</ele>
        <time>2021-03-03T09:52:54Z</time>
      </trkpt>
      <trkpt lat="41.4473531" lon="2.11661994">
        <ele>177.0</ele>
        <time>2021-03-03T09:52:55Z</time>
      </trkpt>
      <trkpt lat="41.44737244" lon="2.11655762">
        <ele>176.0</ele>
        <time>2021-03-03T09:52:56Z</time>
      </trkpt>
      <trkpt lat="41.44738644" lon="2.11649362">
        <ele>176.0</ele>
        <time>2021-03-03T09:52:57Z</time>
      </trkpt>
      <trkpt lat="41.44739843" lon="2.11643163">
        <ele>175.0</ele>
        <time>2021-03-03T09:52:58Z</time>
      </trkpt>
      <trkpt lat="41.44740876" lon="2.11637196">
        <ele>175.0</ele>
        <time>2021-03-03T09:52:59Z</time>
      </trkpt>
      <trkpt lat="41.44741808" lon="2.11631431">
        <ele>175.0</ele>
        <time>2021-03-03T09:53:00Z</time>
      </trkpt>
      <trkpt lat="41.44742942" lon="2.11626032">
        <ele>175.0</ele>
        <time>2021-03-03T09:53:01Z</time>
      </trkpt>
      <trkpt lat="41.44744441" lon="2.11620765">
        <ele>174.0</ele>
        <time>2021-03-03T09:53:02Z</time>
      </trkpt>
      <trkpt lat="41.4474644" lon="2.11615665">
        <ele>174.0</ele>
        <time>2021-03-03T09:53:03Z</time>
      </trkpt>
      <trkpt lat="41.44749006" lon="2.11610966">
        <ele>173.0</ele>
        <time>2021-03-03T09:53:04Z</time>
      </trkpt>
      <trkpt lat="41.44752039" lon="2.11606734">
        <ele>173.0</ele>
        <time>2021-03-03T09:53:05Z</time>
      </trkpt>
      <trkpt lat="41.44755105" lon="2.116036">
        <ele>173.0</ele>
        <time>2021-03-03T09:53:06Z</time>
      </trkpt>
      <trkpt lat="41.44758305" lon="2.11601201">
        <ele>173.0</ele>
        <time>2021-03-03T09:53:07Z</time>
      </trkpt>
      <trkpt lat="41.44761871" lon="2.11599368">
        <ele>172.0</ele>
        <time>2021-03-03T09:53:08Z</time>
      </trkpt>
      <trkpt lat="41.44765704" lon="2.11598068">
        <ele>172.0</ele>
        <time>2021-03-03T09:53:09Z</time>
      </trkpt>
      <trkpt lat="41.4476947" lon="2.11597169">
        <ele>172.0</ele>
        <time>2021-03-03T09:53:10Z</time>
      </trkpt>
      <trkpt lat="41.44773702" lon="2.11596769">
        <ele>172.0</ele>
        <time>2021-03-03T09:53:11Z</time>
      </trkpt>
      <trkpt lat="41.44778102" lon="2.11596736">
        <ele>171.0</ele>
        <time>2021-03-03T09:53:12Z</time>
      </trkpt>
      <trkpt lat="41.44782901" lon="2.11596836">
        <ele>171.0</ele>
        <time>2021-03-03T09:53:13Z</time>
      </trkpt>
      <trkpt lat="41.44788067" lon="2.11596869">
        <ele>171.0</ele>
        <time>2021-03-03T09:53:14Z</time>
      </trkpt>
      <trkpt lat="41.447936" lon="2.11596636">
        <ele>171.0</ele>
        <time>2021-03-03T09:53:15Z</time>
      </trkpt>
      <trkpt lat="41.44799899" lon="2.11596302">
        <ele>170.0</ele>
        <time>2021-03-03T09:53:16Z</time>
      </trkpt>
      <trkpt lat="41.44806398" lon="2.11595536">
        <ele>169.0</ele>
        <time>2021-03-03T09:53:17Z</time>
      </trkpt>
      <trkpt lat="41.44812965" lon="2.11594536">
        <ele>169.0</ele>
        <time>2021-03-03T09:53:18Z</time>
      </trkpt>
      <trkpt lat="41.44819365" lon="2.11593337">
        <ele>168.0</ele>
        <time>2021-03-03T09:53:19Z</time>
      </trkpt>
      <trkpt lat="41.44825897" lon="2.11592071">
        <ele>167.0</ele>
        <time>2021-03-03T09:53:20Z</time>
      </trkpt>
      <trkpt lat="41.44832396" lon="2.11590738">
        <ele>167.0</ele>
        <time>2021-03-03T09:53:21Z</time>
      </trkpt>
      <trkpt lat="41.44838762" lon="2.11589271">
        <ele>166.0</ele>
        <time>2021-03-03T09:53:22Z</time>
      </trkpt>
      <trkpt lat="41.44844762" lon="2.11587805">
        <ele>165.0</ele>
        <time>2021-03-03T09:53:23Z</time>
      </trkpt>
      <trkpt lat="41.44851028" lon="2.11586205">
        <ele>165.0</ele>
        <time>2021-03-03T09:53:24Z</time>
      </trkpt>
      <trkpt lat="41.44856828" lon="2.11585306">
        <ele>164.0</ele>
        <time>2021-03-03T09:53:25Z</time>
      </trkpt>
      <trkpt lat="41.44862161" lon="2.11585306">
        <ele>164.0</ele>
        <time>2021-03-03T09:53:26Z</time>
      </trkpt>
      <trkpt lat="41.44867127" lon="2.11586105">
        <ele>164.0</ele>
        <time>2021-03-03T09:53:27Z</time>
      </trkpt>
      <trkpt lat="41.44871693" lon="2.11587439">
        <ele>164.0</ele>
        <time>2021-03-03T09:53:28Z</time>
      </trkpt>
      <trkpt lat="41.44876659" lon="2.11589338">
        <ele>164.0</ele>
        <time>2021-03-03T09:53:29Z</time>
      </trkpt>
      <trkpt lat="41.44881559" lon="2.11591503">
        <ele>163.0</ele>
        <time>2021-03-03T09:53:30Z</time>
      </trkpt>
      <trkpt lat="41.44885925" lon="2.1159367">
        <ele>163.0</ele>
        <time>2021-03-03T09:53:31Z</time>
      </trkpt>
      <trkpt lat="41.44890224" lon="2.11595669">
        <ele>163.0</ele>
        <time>2021-03-03T09:53:32Z</time>
      </trkpt>
      <trkpt lat="41.44894156" lon="2.11597302">
        <ele>163.0</ele>
        <time>2021-03-03T09:53:33Z</time>
      </trkpt>
      <trkpt lat="41.44896956" lon="2.11598435">
        <ele>163.0</ele>
        <time>2021-03-03T09:53:34Z</time>
      </trkpt>
      <trkpt lat="41.44898856" lon="2.11599034">
        <ele>163.0</ele>
        <time>2021-03-03T09:53:35Z</time>
      </trkpt>
      <trkpt lat="41.44899455" lon="2.115996">
        <ele>163.0</ele>
        <time>2021-03-03T09:53:36Z</time>
      </trkpt>
      <trkpt lat="41.44899487" lon="2.11600066">
        <ele>163.0</ele>
        <time>2021-03-03T09:53:37Z</time>
      </trkpt>
      <trkpt lat="41.44899222" lon="2.11600499">
        <ele>163.0</ele>
        <time>2021-03-03T09:53:38Z</time>
      </trkpt>
      <trkpt lat="41.44899322" lon="2.11600765">
        <ele>163.0</ele>
        <time>2021-03-03T09:53:39Z</time>
      </trkpt>
      <trkpt lat="41.44899354" lon="2.11600998">
        <ele>163.0</ele>
        <time>2021-03-03T09:53:40Z</time>
      </trkpt>
      <trkpt lat="41.44899887" lon="2.11601032">
        <ele>163.0</ele>
        <time>2021-03-03T09:53:41Z</time>
      </trkpt>
      <trkpt lat="41.44899986" lon="2.11601164">
        <ele>163.0</ele>
        <time>2021-03-03T09:53:42Z</time>
      </trkpt>
      <trkpt lat="41.44899954" lon="2.11601164">
        <ele>163.0</ele>
        <time>2021-03-03T09:53:43Z</time>
      </trkpt>
      <trkpt lat="41.44899888" lon="2.11600965">
        <ele>163.0</ele>
        <time>2021-03-03T09:53:44Z</time>
      </trkpt>
      <trkpt lat="41.44899722" lon="2.11600798">
        <ele>163.0</ele>
        <time>2021-03-03T09:53:45Z</time>
      </trkpt>
      <trkpt lat="41.44899488" lon="2.11600632">
        <ele>163.0</ele>
        <time>2021-03-03T09:53:46Z</time>
      </trkpt>
      <trkpt lat="41.44899223" lon="2.11600399">
        <ele>163.0</ele>
        <time>2021-03-03T09:53:47Z</time>
      </trkpt>
      <trkpt lat="41.44899124" lon="2.11600299">
        <ele>163.0</ele>
        <time>2021-03-03T09:53:48Z</time>
      </trkpt>
      <trkpt lat="41.44899256" lon="2.11600299">
        <ele>163.0</ele>
        <time>2021-03-03T09:53:49Z</time>
      </trkpt>
      <trkpt lat="41.44899389" lon="2.11600234">
        <ele>163.0</ele>
        <time>2021-03-03T09:53:50Z</time>
      </trkpt>
      <trkpt lat="41.44899389" lon="2.11600135">
        <ele>163.0</ele>
        <time>2021-03-03T09:53:52Z</time>
      </trkpt>
      <trkpt lat="41.4489929" lon="2.11600135">
        <ele>163.0</ele>
        <time>2021-03-03T09:53:53Z</time>
      </trkpt>
      <trkpt lat="41.44898724" lon="2.11599968">
        <ele>163.0</ele>
        <time>2021-03-03T09:53:55Z</time>
      </trkpt>
      <trkpt lat="41.44898391" lon="2.11599801">
        <ele>163.0</ele>
        <time>2021-03-03T09:53:57Z</time>
      </trkpt>
      <trkpt lat="41.44898292" lon="2.11599801">
        <ele>163.0</ele>
        <time>2021-03-03T09:53:58Z</time>
      </trkpt>
      <trkpt lat="41.44898059" lon="2.11599301">
        <ele>163.0</ele>
        <time>2021-03-03T09:54:01Z</time>
      </trkpt>
      <trkpt lat="41.44898059" lon="2.11598802">
        <ele>163.0</ele>
        <time>2021-03-03T09:54:05Z</time>
      </trkpt>
      <trkpt lat="41.44898292" lon="2.11598935">
        <ele>163.0</ele>
        <time>2021-03-03T09:54:06Z</time>
      </trkpt>
      <trkpt lat="41.44898759" lon="2.11599">
        <ele>163.0</ele>
        <time>2021-03-03T09:54:07Z</time>
      </trkpt>
      <trkpt lat="41.44899525" lon="2.11598968">
        <ele>163.0</ele>
        <time>2021-03-03T09:54:08Z</time>
      </trkpt>
      <trkpt lat="41.44900691" lon="2.11598968">
        <ele>163.0</ele>
        <time>2021-03-03T09:54:09Z</time>
      </trkpt>
      <trkpt lat="41.44902324" lon="2.115993">
        <ele>163.0</ele>
        <time>2021-03-03T09:54:10Z</time>
      </trkpt>
      <trkpt lat="41.44904289" lon="2.115999">
        <ele>163.0</ele>
        <time>2021-03-03T09:54:11Z</time>
      </trkpt>
      <trkpt lat="41.44906555" lon="2.11600599">
        <ele>163.0</ele>
        <time>2021-03-03T09:54:12Z</time>
      </trkpt>
      <trkpt lat="41.44909155" lon="2.11601499">
        <ele>163.0</ele>
        <time>2021-03-03T09:54:13Z</time>
      </trkpt>
      <trkpt lat="41.44912087" lon="2.11602298">
        <ele>163.0</ele>
        <time>2021-03-03T09:54:14Z</time>
      </trkpt>
      <trkpt lat="41.4491502" lon="2.11602998">
        <ele>163.0</ele>
        <time>2021-03-03T09:54:15Z</time>
      </trkpt>
      <trkpt lat="41.44918419" lon="2.11603364">
        <ele>163.0</ele>
        <time>2021-03-03T09:54:16Z</time>
      </trkpt>
      <trkpt lat="41.44921785" lon="2.11603597">
        <ele>163.0</ele>
        <time>2021-03-03T09:54:17Z</time>
      </trkpt>
      <trkpt lat="41.44925084" lon="2.1160383">
        <ele>163.0</ele>
        <time>2021-03-03T09:54:18Z</time>
      </trkpt>
      <trkpt lat="41.44928517" lon="2.11604262">
        <ele>163.0</ele>
        <time>2021-03-03T09:54:19Z</time>
      </trkpt>
      <trkpt lat="41.44931783" lon="2.11604962">
        <ele>163.0</ele>
        <time>2021-03-03T09:54:20Z</time>
      </trkpt>
      <trkpt lat="41.44935749" lon="2.11605662">
        <ele>163.0</ele>
        <time>2021-03-03T09:54:21Z</time>
      </trkpt>
      <trkpt lat="41.44940116" lon="2.11606429">
        <ele>163.0</ele>
        <time>2021-03-03T09:54:22Z</time>
      </trkpt>
      <trkpt lat="41.44944616" lon="2.11607028">
        <ele>162.0</ele>
        <time>2021-03-03T09:54:23Z</time>
      </trkpt>
      <trkpt lat="41.44949448" lon="2.1160776">
        <ele>162.0</ele>
        <time>2021-03-03T09:54:24Z</time>
      </trkpt>
      <trkpt lat="41.44954614" lon="2.11608527">
        <ele>162.0</ele>
        <time>2021-03-03T09:54:25Z</time>
      </trkpt>
      <trkpt lat="41.44959547" lon="2.11608892">
        <ele>162.0</ele>
        <time>2021-03-03T09:54:26Z</time>
      </trkpt>
      <trkpt lat="41.44964047" lon="2.11608727">
        <ele>161.0</ele>
        <time>2021-03-03T09:54:27Z</time>
      </trkpt>
      <trkpt lat="41.44967813" lon="2.11608027">
        <ele>161.0</ele>
        <time>2021-03-03T09:54:28Z</time>
      </trkpt>
      <trkpt lat="41.44970978" lon="2.11607194">
        <ele>160.0</ele>
        <time>2021-03-03T09:54:29Z</time>
      </trkpt>
      <trkpt lat="41.44973845" lon="2.11606194">
        <ele>160.0</ele>
        <time>2021-03-03T09:54:30Z</time>
      </trkpt>
      <trkpt lat="41.44976377" lon="2.11605161">
        <ele>159.0</ele>
        <time>2021-03-03T09:54:31Z</time>
      </trkpt>
      <trkpt lat="41.44978643" lon="2.11604295">
        <ele>159.0</ele>
        <time>2021-03-03T09:54:32Z</time>
      </trkpt>
      <trkpt lat="41.44981075" lon="2.11603662">
        <ele>158.0</ele>
        <time>2021-03-03T09:54:33Z</time>
      </trkpt>
      <trkpt lat="41.44983475" lon="2.11603163">
        <ele>158.0</ele>
        <time>2021-03-03T09:54:34Z</time>
      </trkpt>
      <trkpt lat="41.44985774" lon="2.11602396">
        <ele>157.0</ele>
        <time>2021-03-03T09:54:35Z</time>
      </trkpt>
      <trkpt lat="41.44987708" lon="2.11601296">
        <ele>157.0</ele>
        <time>2021-03-03T09:54:36Z</time>
      </trkpt>
      <trkpt lat="41.44989307" lon="2.11599996">
        <ele>157.0</ele>
        <time>2021-03-03T09:54:37Z</time>
      </trkpt>
      <trkpt lat="41.44990907" lon="2.11598497">
        <ele>156.0</ele>
        <time>2021-03-03T09:54:38Z</time>
      </trkpt>
      <trkpt lat="41.44992473" lon="2.11596998">
        <ele>156.0</ele>
        <time>2021-03-03T09:54:39Z</time>
      </trkpt>
      <trkpt lat="41.44993573" lon="2.11595398">
        <ele>156.0</ele>
        <time>2021-03-03T09:54:40Z</time>
      </trkpt>
      <trkpt lat="41.44994806" lon="2.11593832">
        <ele>156.0</ele>
        <time>2021-03-03T09:54:41Z</time>
      </trkpt>
      <trkpt lat="41.44996305" lon="2.11592232">
        <ele>155.0</ele>
        <time>2021-03-03T09:54:42Z</time>
      </trkpt>
      <trkpt lat="41.44998238" lon="2.11590666">
        <ele>155.0</ele>
        <time>2021-03-03T09:54:43Z</time>
      </trkpt>
      <trkpt lat="41.45000305" lon="2.11589">
        <ele>155.0</ele>
        <time>2021-03-03T09:54:44Z</time>
      </trkpt>
      <trkpt lat="41.45002404" lon="2.115874">
        <ele>155.0</ele>
        <time>2021-03-03T09:54:45Z</time>
      </trkpt>
      <trkpt lat="41.45004769" lon="2.11586">
        <ele>155.0</ele>
        <time>2021-03-03T09:54:45Z</time>
      </trkpt>
      <trkpt lat="41.45007336" lon="2.11584735">
        <ele>155.0</ele>
        <time>2021-03-03T09:54:46Z</time>
      </trkpt>
      <trkpt lat="41.45010235" lon="2.11584101">
        <ele>155.0</ele>
        <time>2021-03-03T09:54:47Z</time>
      </trkpt>
      <trkpt lat="41.45013235" lon="2.11584036">
        <ele>155.0</ele>
        <time>2021-03-03T09:54:48Z</time>
      </trkpt>
      <trkpt lat="41.45016767" lon="2.11584769">
        <ele>155.0</ele>
        <time>2021-03-03T09:54:49Z</time>
      </trkpt>
      <trkpt lat="41.45020301" lon="2.11585835">
        <ele>155.0</ele>
        <time>2021-03-03T09:54:50Z</time>
      </trkpt>
      <trkpt lat="41.45023866" lon="2.11587167">
        <ele>155.0</ele>
        <time>2021-03-03T09:54:51Z</time>
      </trkpt>
      <trkpt lat="41.45027666" lon="2.11588734">
        <ele>155.0</ele>
        <time>2021-03-03T09:54:52Z</time>
      </trkpt>
      <trkpt lat="41.45031833" lon="2.11590333">
        <ele>155.0</ele>
        <time>2021-03-03T09:54:53Z</time>
      </trkpt>
      <trkpt lat="41.45036365" lon="2.11591733">
        <ele>154.0</ele>
        <time>2021-03-03T09:54:54Z</time>
      </trkpt>
      <trkpt lat="41.45040832" lon="2.11592698">
        <ele>154.0</ele>
        <time>2021-03-03T09:54:55Z</time>
      </trkpt>
      <trkpt lat="41.45045864" lon="2.11593098">
        <ele>154.0</ele>
        <time>2021-03-03T09:54:56Z</time>
      </trkpt>
      <trkpt lat="41.45050831" lon="2.11592899">
        <ele>154.0</ele>
        <time>2021-03-03T09:54:57Z</time>
      </trkpt>
      <trkpt lat="41.45055531" lon="2.11592534">
        <ele>153.0</ele>
        <time>2021-03-03T09:54:58Z</time>
      </trkpt>
      <trkpt lat="41.45059897" lon="2.11592267">
        <ele>153.0</ele>
        <time>2021-03-03T09:54:59Z</time>
      </trkpt>
      <trkpt lat="41.45064363" lon="2.115929">
        <ele>153.0</ele>
        <time>2021-03-03T09:55:00Z</time>
      </trkpt>
      <trkpt lat="41.4506813" lon="2.11593599">
        <ele>153.0</ele>
        <time>2021-03-03T09:55:01Z</time>
      </trkpt>
      <trkpt lat="41.45071797" lon="2.11594333">
        <ele>153.0</ele>
        <time>2021-03-03T09:55:02Z</time>
      </trkpt>
      <trkpt lat="41.45075696" lon="2.11594866">
        <ele>153.0</ele>
        <time>2021-03-03T09:55:03Z</time>
      </trkpt>
      <trkpt lat="41.45079862" lon="2.11595099">
        <ele>153.0</ele>
        <time>2021-03-03T09:55:04Z</time>
      </trkpt>
      <trkpt lat="41.45084262" lon="2.11595232">
        <ele>153.0</ele>
        <time>2021-03-03T09:55:05Z</time>
      </trkpt>
      <trkpt lat="41.45088928" lon="2.11595332">
        <ele>153.0</ele>
        <time>2021-03-03T09:55:06Z</time>
      </trkpt>
      <trkpt lat="41.45094261" lon="2.11595664">
        <ele>153.0</ele>
        <time>2021-03-03T09:55:07Z</time>
      </trkpt>
      <trkpt lat="41.45099661" lon="2.11595963">
        <ele>153.0</ele>
        <time>2021-03-03T09:55:08Z</time>
      </trkpt>
      <trkpt lat="41.45104794" lon="2.1159623">
        <ele>153.0</ele>
        <time>2021-03-03T09:55:09Z</time>
      </trkpt>
      <trkpt lat="41.45110127" lon="2.11596295">
        <ele>154.0</ele>
        <time>2021-03-03T09:55:10Z</time>
      </trkpt>
      <trkpt lat="41.45115493" lon="2.11596062">
        <ele>154.0</ele>
        <time>2021-03-03T09:55:11Z</time>
      </trkpt>
      <trkpt lat="41.45120692" lon="2.11595662">
        <ele>154.0</ele>
        <time>2021-03-03T09:55:12Z</time>
      </trkpt>
      <trkpt lat="41.45125858" lon="2.11595263">
        <ele>154.0</ele>
        <time>2021-03-03T09:55:13Z</time>
      </trkpt>
      <trkpt lat="41.45131124" lon="2.11594996">
        <ele>154.0</ele>
        <time>2021-03-03T09:55:14Z</time>
      </trkpt>
      <trkpt lat="41.45136224" lon="2.11594763">
        <ele>154.0</ele>
        <time>2021-03-03T09:55:15Z</time>
      </trkpt>
      <trkpt lat="41.45141656" lon="2.11594397">
        <ele>154.0</ele>
        <time>2021-03-03T09:55:16Z</time>
      </trkpt>
      <trkpt lat="41.4514669" lon="2.11593798">
        <ele>155.0</ele>
        <time>2021-03-03T09:55:17Z</time>
      </trkpt>
      <trkpt lat="41.45151389" lon="2.11592698">
        <ele>155.0</ele>
        <time>2021-03-03T09:55:18Z</time>
      </trkpt>
      <trkpt lat="41.45155922" lon="2.11590933">
        <ele>155.0</ele>
        <time>2021-03-03T09:55:19Z</time>
      </trkpt>
      <trkpt lat="41.45159988" lon="2.11588699">
        <ele>155.0</ele>
        <time>2021-03-03T09:55:20Z</time>
      </trkpt>
      <trkpt lat="41.45164154" lon="2.11585834">
        <ele>155.0</ele>
        <time>2021-03-03T09:55:21Z</time>
      </trkpt>
      <trkpt lat="41.4516842" lon="2.11582767">
        <ele>155.0</ele>
        <time>2021-03-03T09:55:22Z</time>
      </trkpt>
      <trkpt lat="41.4517282" lon="2.11579167">
        <ele>155.0</ele>
        <time>2021-03-03T09:55:23Z</time>
      </trkpt>
      <trkpt lat="41.45176586" lon="2.11574868">
        <ele>155.0</ele>
        <time>2021-03-03T09:55:24Z</time>
      </trkpt>
      <trkpt lat="41.45180051" lon="2.11569936">
        <ele>155.0</ele>
        <time>2021-03-03T09:55:25Z</time>
      </trkpt>
      <trkpt lat="41.4518315" lon="2.11564369">
        <ele>155.0</ele>
        <time>2021-03-03T09:55:26Z</time>
      </trkpt>
      <trkpt lat="41.45185884" lon="2.11558802">
        <ele>155.0</ele>
        <time>2021-03-03T09:55:27Z</time>
      </trkpt>
      <trkpt lat="41.45189083" lon="2.11552903">
        <ele>155.0</ele>
        <time>2021-03-03T09:55:28Z</time>
      </trkpt>
      <trkpt lat="41.45192249" lon="2.11546403">
        <ele>155.0</ele>
        <time>2021-03-03T09:55:29Z</time>
      </trkpt>
      <trkpt lat="41.45195748" lon="2.11540303">
        <ele>155.0</ele>
        <time>2021-03-03T09:55:30Z</time>
      </trkpt>
      <trkpt lat="41.45199382" lon="2.11534838">
        <ele>154.0</ele>
        <time>2021-03-03T09:55:31Z</time>
      </trkpt>
      <trkpt lat="41.45202915" lon="2.11529139">
        <ele>154.0</ele>
        <time>2021-03-03T09:55:32Z</time>
      </trkpt>
      <trkpt lat="41.45206514" lon="2.1152324">
        <ele>153.0</ele>
        <time>2021-03-03T09:55:33Z</time>
      </trkpt>
      <trkpt lat="41.45210981" lon="2.11517473">
        <ele>153.0</ele>
        <time>2021-03-03T09:55:34Z</time>
      </trkpt>
      <trkpt lat="41.4521608" lon="2.11512007">
        <ele>153.0</ele>
        <time>2021-03-03T09:55:35Z</time>
      </trkpt>
      <trkpt lat="41.45221513" lon="2.11506508">
        <ele>152.0</ele>
        <time>2021-03-03T09:55:36Z</time>
      </trkpt>
      <trkpt lat="41.45226979" lon="2.11500775">
        <ele>151.0</ele>
        <time>2021-03-03T09:55:37Z</time>
      </trkpt>
      <trkpt lat="41.45231679" lon="2.11494442">
        <ele>151.0</ele>
        <time>2021-03-03T09:55:38Z</time>
      </trkpt>
      <trkpt lat="41.45235978" lon="2.11487609">
        <ele>150.0</ele>
        <time>2021-03-03T09:55:39Z</time>
      </trkpt>
      <trkpt lat="41.45239477" lon="2.11480244">
        <ele>149.0</ele>
        <time>2021-03-03T09:55:40Z</time>
      </trkpt>
      <trkpt lat="41.45242543" lon="2.11472544">
        <ele>149.0</ele>
        <time>2021-03-03T09:55:41Z</time>
      </trkpt>
      <trkpt lat="41.45245043" lon="2.11464878">
        <ele>148.0</ele>
        <time>2021-03-03T09:55:42Z</time>
      </trkpt>
      <trkpt lat="41.45247277" lon="2.11457746">
        <ele>148.0</ele>
        <time>2021-03-03T09:55:43Z</time>
      </trkpt>
      <trkpt lat="41.45249043" lon="2.11451147">
        <ele>147.0</ele>
        <time>2021-03-03T09:55:44Z</time>
      </trkpt>
      <trkpt lat="41.45250709" lon="2.11445613">
        <ele>146.0</ele>
        <time>2021-03-03T09:55:45Z</time>
      </trkpt>
      <trkpt lat="41.45252276" lon="2.11441413">
        <ele>146.0</ele>
        <time>2021-03-03T09:55:46Z</time>
      </trkpt>
      <trkpt lat="41.45253876" lon="2.11438381">
        <ele>145.0</ele>
        <time>2021-03-03T09:55:47Z</time>
      </trkpt>
      <trkpt lat="41.45255408" lon="2.11436282">
        <ele>145.0</ele>
        <time>2021-03-03T09:55:48Z</time>
      </trkpt>
      <trkpt lat="41.45256675" lon="2.1143465">
        <ele>145.0</ele>
        <time>2021-03-03T09:55:49Z</time>
      </trkpt>
      <trkpt lat="41.45257607" lon="2.11433283">
        <ele>145.0</ele>
        <time>2021-03-03T09:55:50Z</time>
      </trkpt>
      <trkpt lat="41.4525834" lon="2.11432251">
        <ele>144.0</ele>
        <time>2021-03-03T09:55:51Z</time>
      </trkpt>
      <trkpt lat="41.45259039" lon="2.11431452">
        <ele>144.0</ele>
        <time>2021-03-03T09:55:52Z</time>
      </trkpt>
      <trkpt lat="41.45259773" lon="2.11430919">
        <ele>144.0</ele>
        <time>2021-03-03T09:55:53Z</time>
      </trkpt>
      <trkpt lat="41.45260772" lon="2.11430586">
        <ele>144.0</ele>
        <time>2021-03-03T09:55:54Z</time>
      </trkpt>
      <trkpt lat="41.45262271" lon="2.11430486">
        <ele>144.0</ele>
        <time>2021-03-03T09:55:55Z</time>
      </trkpt>
      <trkpt lat="41.45264037" lon="2.11430319">
        <ele>144.0</ele>
        <time>2021-03-03T09:55:56Z</time>
      </trkpt>
      <trkpt lat="41.4526577" lon="2.11430087">
        <ele>144.0</ele>
        <time>2021-03-03T09:55:57Z</time>
      </trkpt>
      <trkpt lat="41.45267869" lon="2.11430054">
        <ele>144.0</ele>
        <time>2021-03-03T09:55:58Z</time>
      </trkpt>
      <trkpt lat="41.45270235" lon="2.11429855">
        <ele>144.0</ele>
        <time>2021-03-03T09:55:59Z</time>
      </trkpt>
      <trkpt lat="41.45272735" lon="2.11429521">
        <ele>144.0</ele>
        <time>2021-03-03T09:56:00Z</time>
      </trkpt>
      <trkpt lat="41.45275068" lon="2.11428622">
        <ele>144.0</ele>
        <time>2021-03-03T09:56:01Z</time>
      </trkpt>
      <trkpt lat="41.45277534" lon="2.11427322">
        <ele>144.0</ele>
        <time>2021-03-03T09:56:02Z</time>
      </trkpt>
      <trkpt lat="41.45280601" lon="2.11426156">
        <ele>144.0</ele>
        <time>2021-03-03T09:56:03Z</time>
      </trkpt>
      <trkpt lat="41.452839" lon="2.11425023">
        <ele>144.0</ele>
        <time>2021-03-03T09:56:04Z</time>
      </trkpt>
      <trkpt lat="41.452877" lon="2.1142419">
        <ele>144.0</ele>
        <time>2021-03-03T09:56:05Z</time>
      </trkpt>
      <trkpt lat="41.45291567" lon="2.11423224">
        <ele>144.0</ele>
        <time>2021-03-03T09:56:06Z</time>
      </trkpt>
      <trkpt lat="41.452952" lon="2.11421959">
        <ele>144.0</ele>
        <time>2021-03-03T09:56:07Z</time>
      </trkpt>
      <trkpt lat="41.45298732" lon="2.11420859">
        <ele>144.0</ele>
        <time>2021-03-03T09:56:08Z</time>
      </trkpt>
      <trkpt lat="41.45302899" lon="2.11420126">
        <ele>144.0</ele>
        <time>2021-03-03T09:56:09Z</time>
      </trkpt>
      <trkpt lat="41.45307632" lon="2.1141936">
        <ele>144.0</ele>
        <time>2021-03-03T09:56:10Z</time>
      </trkpt>
      <trkpt lat="41.45312465" lon="2.11418093">
        <ele>144.0</ele>
        <time>2021-03-03T09:56:11Z</time>
      </trkpt>
      <trkpt lat="41.45317364" lon="2.11416527">
        <ele>144.0</ele>
        <time>2021-03-03T09:56:12Z</time>
      </trkpt>
      <trkpt lat="41.45322163" lon="2.11415028">
        <ele>143.0</ele>
        <time>2021-03-03T09:56:13Z</time>
      </trkpt>
      <trkpt lat="41.45327296" lon="2.11413862">
        <ele>143.0</ele>
        <time>2021-03-03T09:56:14Z</time>
      </trkpt>
      <trkpt lat="41.45332762" lon="2.11412828">
        <ele>143.0</ele>
        <time>2021-03-03T09:56:15Z</time>
      </trkpt>
      <trkpt lat="41.45337695" lon="2.11411729">
        <ele>143.0</ele>
        <time>2021-03-03T09:56:16Z</time>
      </trkpt>
      <trkpt lat="41.45342427" lon="2.11410863">
        <ele>143.0</ele>
        <time>2021-03-03T09:56:17Z</time>
      </trkpt>
      <trkpt lat="41.4534726" lon="2.1141043">
        <ele>143.0</ele>
        <time>2021-03-03T09:56:18Z</time>
      </trkpt>
      <trkpt lat="41.45352293" lon="2.11410264">
        <ele>143.0</ele>
        <time>2021-03-03T09:56:19Z</time>
      </trkpt>
      <trkpt lat="41.4535696" lon="2.11410664">
        <ele>143.0</ele>
        <time>2021-03-03T09:56:20Z</time>
      </trkpt>
      <trkpt lat="41.45360826" lon="2.11411497">
        <ele>143.0</ele>
        <time>2021-03-03T09:56:21Z</time>
      </trkpt>
      <trkpt lat="41.45364325" lon="2.11412396">
        <ele>143.0</ele>
        <time>2021-03-03T09:56:22Z</time>
      </trkpt>
      <trkpt lat="41.45367424" lon="2.11413196">
        <ele>142.0</ele>
        <time>2021-03-03T09:56:23Z</time>
      </trkpt>
      <trkpt lat="41.45370224" lon="2.11413928">
        <ele>142.0</ele>
        <time>2021-03-03T09:56:24Z</time>
      </trkpt>
      <trkpt lat="41.45372924" lon="2.11414761">
        <ele>141.0</ele>
        <time>2021-03-03T09:56:25Z</time>
      </trkpt>
      <trkpt lat="41.45375257" lon="2.11415561">
        <ele>141.0</ele>
        <time>2021-03-03T09:56:26Z</time>
      </trkpt>
      <trkpt lat="41.45377123" lon="2.1141636">
        <ele>141.0</ele>
        <time>2021-03-03T09:56:27Z</time>
      </trkpt>
      <trkpt lat="41.45378589" lon="2.11416993">
        <ele>141.0</ele>
        <time>2021-03-03T09:56:28Z</time>
      </trkpt>
      <trkpt lat="41.45382989" lon="2.1142066">
        <ele>139.0</ele>
        <time>2021-03-03T09:56:32Z</time>
      </trkpt>
      <trkpt lat="41.45385155" lon="2.11422159">
        <ele>139.0</ele>
        <time>2021-03-03T09:56:38Z</time>
      </trkpt>
      <trkpt lat="41.45385089" lon="2.11422191">
        <ele>139.0</ele>
        <time>2021-03-03T09:56:39Z</time>
      </trkpt>
      <trkpt lat="41.45384956" lon="2.11422159">
        <ele>139.0</ele>
        <time>2021-03-03T09:56:40Z</time>
      </trkpt>
      <trkpt lat="41.45384923" lon="2.11422224">
        <ele>139.0</ele>
        <time>2021-03-03T09:56:41Z</time>
      </trkpt>
      <trkpt lat="41.45385423" lon="2.11422357">
        <ele>139.0</ele>
        <time>2021-03-03T09:56:42Z</time>
      </trkpt>
      <trkpt lat="41.45386457" lon="2.11422757">
        <ele>139.0</ele>
        <time>2021-03-03T09:56:43Z</time>
      </trkpt>
      <trkpt lat="41.45388156" lon="2.11423422">
        <ele>139.0</ele>
        <time>2021-03-03T09:56:44Z</time>
      </trkpt>
      <trkpt lat="41.45389988" lon="2.11424255">
        <ele>139.0</ele>
        <time>2021-03-03T09:56:45Z</time>
      </trkpt>
      <trkpt lat="41.45392188" lon="2.11425421">
        <ele>139.0</ele>
        <time>2021-03-03T09:56:46Z</time>
      </trkpt>
      <trkpt lat="41.4539472" lon="2.11426421">
        <ele>139.0</ele>
        <time>2021-03-03T09:56:47Z</time>
      </trkpt>
      <trkpt lat="41.45397554" lon="2.11427487">
        <ele>139.0</ele>
        <time>2021-03-03T09:56:48Z</time>
      </trkpt>
      <trkpt lat="41.45400587" lon="2.11428787">
        <ele>139.0</ele>
        <time>2021-03-03T09:56:49Z</time>
      </trkpt>
      <trkpt lat="41.45403887" lon="2.11430387">
        <ele>139.0</ele>
        <time>2021-03-03T09:56:50Z</time>
      </trkpt>
      <trkpt lat="41.45407554" lon="2.11432253">
        <ele>139.0</ele>
        <time>2021-03-03T09:56:51Z</time>
      </trkpt>
      <trkpt lat="41.45411154" lon="2.11434086">
        <ele>140.0</ele>
        <time>2021-03-03T09:56:52Z</time>
      </trkpt>
      <trkpt lat="41.45415086" lon="2.11435518">
        <ele>140.0</ele>
        <time>2021-03-03T09:56:53Z</time>
      </trkpt>
      <trkpt lat="41.45419018" lon="2.11436484">
        <ele>140.0</ele>
        <time>2021-03-03T09:56:54Z</time>
      </trkpt>
      <trkpt lat="41.45422851" lon="2.11437083">
        <ele>140.0</ele>
        <time>2021-03-03T09:56:55Z</time>
      </trkpt>
      <trkpt lat="41.45426651" lon="2.11437083">
        <ele>140.0</ele>
        <time>2021-03-03T09:56:56Z</time>
      </trkpt>
      <trkpt lat="41.45430316" lon="2.11436784">
        <ele>140.0</ele>
        <time>2021-03-03T09:56:57Z</time>
      </trkpt>
      <trkpt lat="41.45434082" lon="2.11436085">
        <ele>140.0</ele>
        <time>2021-03-03T09:56:58Z</time>
      </trkpt>
      <trkpt lat="41.45437848" lon="2.11434953">
        <ele>140.0</ele>
        <time>2021-03-03T09:56:59Z</time>
      </trkpt>
      <trkpt lat="41.45441614" lon="2.11433253">
        <ele>140.0</ele>
        <time>2021-03-03T09:57:00Z</time>
      </trkpt>
      <trkpt lat="41.45445548" lon="2.11431154">
        <ele>141.0</ele>
        <time>2021-03-03T09:57:01Z</time>
      </trkpt>
      <trkpt lat="41.4544958" lon="2.1142852">
        <ele>141.0</ele>
        <time>2021-03-03T09:57:02Z</time>
      </trkpt>
      <trkpt lat="41.45453346" lon="2.11425554">
        <ele>141.0</ele>
        <time>2021-03-03T09:57:03Z</time>
      </trkpt>
      <trkpt lat="41.45457012" lon="2.11422288">
        <ele>141.0</ele>
        <time>2021-03-03T09:57:04Z</time>
      </trkpt>
      <trkpt lat="41.45460578" lon="2.11419022">
        <ele>141.0</ele>
        <time>2021-03-03T09:57:05Z</time>
      </trkpt>
      <trkpt lat="41.45464544" lon="2.1141579">
        <ele>141.0</ele>
        <time>2021-03-03T09:57:06Z</time>
      </trkpt>
      <trkpt lat="41.45468444" lon="2.1141279">
        <ele>141.0</ele>
        <time>2021-03-03T09:57:07Z</time>
      </trkpt>
      <trkpt lat="41.45472944" lon="2.11409458">
        <ele>141.0</ele>
        <time>2021-03-03T09:57:08Z</time>
      </trkpt>
      <trkpt lat="41.45477543" lon="2.11406091">
        <ele>141.0</ele>
        <time>2021-03-03T09:57:09Z</time>
      </trkpt>
      <trkpt lat="41.45482109" lon="2.11402559">
        <ele>141.0</ele>
        <time>2021-03-03T09:57:10Z</time>
      </trkpt>
      <trkpt lat="41.45486708" lon="2.11398959">
        <ele>141.0</ele>
        <time>2021-03-03T09:57:11Z</time>
      </trkpt>
      <trkpt lat="41.45491274" lon="2.11395425">
        <ele>141.0</ele>
        <time>2021-03-03T09:57:12Z</time>
      </trkpt>
      <trkpt lat="41.45495974" lon="2.11392159">
        <ele>141.0</ele>
        <time>2021-03-03T09:57:13Z</time>
      </trkpt>
      <trkpt lat="41.45500707" lon="2.1138946">
        <ele>141.0</ele>
        <time>2021-03-03T09:57:14Z</time>
      </trkpt>
      <trkpt lat="41.45505373" lon="2.1138736">
        <ele>141.0</ele>
        <time>2021-03-03T09:57:15Z</time>
      </trkpt>
      <trkpt lat="41.45510006" lon="2.11385594">
        <ele>141.0</ele>
        <time>2021-03-03T09:57:16Z</time>
      </trkpt>
      <trkpt lat="41.45514973" lon="2.11384027">
        <ele>140.0</ele>
        <time>2021-03-03T09:57:17Z</time>
      </trkpt>
      <trkpt lat="41.45520306" lon="2.11382595">
        <ele>140.0</ele>
        <time>2021-03-03T09:57:18Z</time>
      </trkpt>
      <trkpt lat="41.45526605" lon="2.11381728">
        <ele>139.0</ele>
        <time>2021-03-03T09:57:19Z</time>
      </trkpt>
      <trkpt lat="41.45533171" lon="2.11380895">
        <ele>139.0</ele>
        <time>2021-03-03T09:57:20Z</time>
      </trkpt>
      <trkpt lat="41.45539703" lon="2.11379929">
        <ele>139.0</ele>
        <time>2021-03-03T09:57:21Z</time>
      </trkpt>
      <trkpt lat="41.45546403" lon="2.11378696">
        <ele>138.0</ele>
        <time>2021-03-03T09:57:22Z</time>
      </trkpt>
      <trkpt lat="41.4555287" lon="2.11377096">
        <ele>138.0</ele>
        <time>2021-03-03T09:57:23Z</time>
      </trkpt>
      <trkpt lat="41.45559069" lon="2.11375029">
        <ele>137.0</ele>
        <time>2021-03-03T09:57:24Z</time>
      </trkpt>
      <trkpt lat="41.45565136" lon="2.11372664">
        <ele>137.0</ele>
        <time>2021-03-03T09:57:25Z</time>
      </trkpt>
      <trkpt lat="41.45570935" lon="2.1137013">
        <ele>136.0</ele>
        <time>2021-03-03T09:57:26Z</time>
      </trkpt>
      <trkpt lat="41.45576501" lon="2.11367865">
        <ele>136.0</ele>
        <time>2021-03-03T09:57:27Z</time>
      </trkpt>
      <trkpt lat="41.45582167" lon="2.11366265">
        <ele>136.0</ele>
        <time>2021-03-03T09:57:28Z</time>
      </trkpt>
      <trkpt lat="41.45588" lon="2.11365565">
        <ele>136.0</ele>
        <time>2021-03-03T09:57:29Z</time>
      </trkpt>
      <trkpt lat="41.45594067" lon="2.11365965">
        <ele>135.0</ele>
        <time>2021-03-03T09:57:30Z</time>
      </trkpt>
      <trkpt lat="41.45600366" lon="2.11367297">
        <ele>135.0</ele>
        <time>2021-03-03T09:57:31Z</time>
      </trkpt>
      <trkpt lat="41.45606665" lon="2.11369263">
        <ele>135.0</ele>
        <time>2021-03-03T09:57:32Z</time>
      </trkpt>
      <trkpt lat="41.45613865" lon="2.11372063">
        <ele>135.0</ele>
        <time>2021-03-03T09:57:33Z</time>
      </trkpt>
      <trkpt lat="41.45620664" lon="2.11374728">
        <ele>135.0</ele>
        <time>2021-03-03T09:57:34Z</time>
      </trkpt>
      <trkpt lat="41.45627931" lon="2.11377162">
        <ele>135.0</ele>
        <time>2021-03-03T09:57:35Z</time>
      </trkpt>
      <trkpt lat="41.4563453" lon="2.11378894">
        <ele>134.0</ele>
        <time>2021-03-03T09:57:36Z</time>
      </trkpt>
      <trkpt lat="41.45641496" lon="2.11380194">
        <ele>134.0</ele>
        <time>2021-03-03T09:57:37Z</time>
      </trkpt>
      <trkpt lat="41.45647896" lon="2.11380593">
        <ele>134.0</ele>
        <time>2021-03-03T09:57:38Z</time>
      </trkpt>
      <trkpt lat="41.45653329" lon="2.11380494">
        <ele>134.0</ele>
        <time>2021-03-03T09:57:39Z</time>
      </trkpt>
      <trkpt lat="41.45658994" lon="2.11379227">
        <ele>134.0</ele>
        <time>2021-03-03T09:57:40Z</time>
      </trkpt>
      <trkpt lat="41.45664694" lon="2.11376695">
        <ele>134.0</ele>
        <time>2021-03-03T09:57:41Z</time>
      </trkpt>
      <trkpt lat="41.4567036" lon="2.11373195">
        <ele>134.0</ele>
        <time>2021-03-03T09:57:42Z</time>
      </trkpt>
      <trkpt lat="41.45675892" lon="2.11369062">
        <ele>134.0</ele>
        <time>2021-03-03T09:57:43Z</time>
      </trkpt>
      <trkpt lat="41.45681258" lon="2.11364328">
        <ele>134.0</ele>
        <time>2021-03-03T09:57:44Z</time>
      </trkpt>
      <trkpt lat="41.45686358" lon="2.11359429">
        <ele>133.0</ele>
        <time>2021-03-03T09:57:45Z</time>
      </trkpt>
      <trkpt lat="41.45690924" lon="2.11354296">
        <ele>133.0</ele>
        <time>2021-03-03T09:57:46Z</time>
      </trkpt>
      <trkpt lat="41.4569449" lon="2.11348729">
        <ele>132.0</ele>
        <time>2021-03-03T09:57:47Z</time>
      </trkpt>
      <trkpt lat="41.45696589" lon="2.11342796">
        <ele>132.0</ele>
        <time>2021-03-03T09:57:48Z</time>
      </trkpt>
      <trkpt lat="41.45697956" lon="2.1133673">
        <ele>132.0</ele>
        <time>2021-03-03T09:57:49Z</time>
      </trkpt>
      <trkpt lat="41.45698722" lon="2.11330765">
        <ele>132.0</ele>
        <time>2021-03-03T09:57:50Z</time>
      </trkpt>
      <trkpt lat="41.45699222" lon="2.11324931">
        <ele>132.0</ele>
        <time>2021-03-03T09:57:51Z</time>
      </trkpt>
      <trkpt lat="41.45699888" lon="2.11320065">
        <ele>132.0</ele>
        <time>2021-03-03T09:57:52Z</time>
      </trkpt>
      <trkpt lat="41.45700954" lon="2.11315931">
        <ele>132.0</ele>
        <time>2021-03-03T09:57:53Z</time>
      </trkpt>
      <trkpt lat="41.45702487" lon="2.11312966">
        <ele>132.0</ele>
        <time>2021-03-03T09:57:54Z</time>
      </trkpt>
      <trkpt lat="41.45704486" lon="2.11310566">
        <ele>132.0</ele>
        <time>2021-03-03T09:57:55Z</time>
      </trkpt>
      <trkpt lat="41.45706886" lon="2.11308467">
        <ele>133.0</ele>
        <time>2021-03-03T09:57:56Z</time>
      </trkpt>
      <trkpt lat="41.45709119" lon="2.11306268">
        <ele>133.0</ele>
        <time>2021-03-03T09:57:57Z</time>
      </trkpt>
      <trkpt lat="41.45711319" lon="2.11304168">
        <ele>133.0</ele>
        <time>2021-03-03T09:57:58Z</time>
      </trkpt>
      <trkpt lat="41.45713485" lon="2.11302135">
        <ele>133.0</ele>
        <time>2021-03-03T09:57:59Z</time>
      </trkpt>
      <trkpt lat="41.45715751" lon="2.11300069">
        <ele>134.0</ele>
        <time>2021-03-03T09:58:00Z</time>
      </trkpt>
      <trkpt lat="41.45718117" lon="2.11298002">
        <ele>134.0</ele>
        <time>2021-03-03T09:58:01Z</time>
      </trkpt>
      <trkpt lat="41.4572035" lon="2.11295869">
        <ele>134.0</ele>
        <time>2021-03-03T09:58:02Z</time>
      </trkpt>
      <trkpt lat="41.45722383" lon="2.11293836">
        <ele>135.0</ele>
        <time>2021-03-03T09:58:03Z</time>
      </trkpt>
      <trkpt lat="41.45724482" lon="2.1129207">
        <ele>135.0</ele>
        <time>2021-03-03T09:58:04Z</time>
      </trkpt>
      <trkpt lat="41.45726548" lon="2.11290371">
        <ele>136.0</ele>
        <time>2021-03-03T09:58:05Z</time>
      </trkpt>
      <trkpt lat="41.45728481" lon="2.11288705">
        <ele>136.0</ele>
        <time>2021-03-03T09:58:06Z</time>
      </trkpt>
      <trkpt lat="41.45730581" lon="2.11287038">
        <ele>137.0</ele>
        <time>2021-03-03T09:58:07Z</time>
      </trkpt>
      <trkpt lat="41.45732847" lon="2.11285406">
        <ele>137.0</ele>
        <time>2021-03-03T09:58:08Z</time>
      </trkpt>
      <trkpt lat="41.45735279" lon="2.11283674">
        <ele>137.0</ele>
        <time>2021-03-03T09:58:09Z</time>
      </trkpt>
      <trkpt lat="41.45737613" lon="2.11282074">
        <ele>138.0</ele>
        <time>2021-03-03T09:58:10Z</time>
      </trkpt>
      <trkpt lat="41.45739846" lon="2.11280474">
        <ele>138.0</ele>
        <time>2021-03-03T09:58:11Z</time>
      </trkpt>
      <trkpt lat="41.45741945" lon="2.1127884">
        <ele>139.0</ele>
        <time>2021-03-03T09:58:12Z</time>
      </trkpt>
      <trkpt lat="41.45744145" lon="2.11276975">
        <ele>139.0</ele>
        <time>2021-03-03T09:58:13Z</time>
      </trkpt>
      <trkpt lat="41.45746411" lon="2.11275108">
        <ele>139.0</ele>
        <time>2021-03-03T09:58:14Z</time>
      </trkpt>
      <trkpt lat="41.45748776" lon="2.11273342">
        <ele>140.0</ele>
        <time>2021-03-03T09:58:15Z</time>
      </trkpt>
      <trkpt lat="41.45751176" lon="2.11271476">
        <ele>140.0</ele>
        <time>2021-03-03T09:58:16Z</time>
      </trkpt>
      <trkpt lat="41.4575371" lon="2.11269577">
        <ele>140.0</ele>
        <time>2021-03-03T09:58:17Z</time>
      </trkpt>
      <trkpt lat="41.4575651" lon="2.11267644">
        <ele>140.0</ele>
        <time>2021-03-03T09:58:18Z</time>
      </trkpt>
      <trkpt lat="41.45759442" lon="2.11266044">
        <ele>140.0</ele>
        <time>2021-03-03T09:58:19Z</time>
      </trkpt>
      <trkpt lat="41.45763042" lon="2.11264844">
        <ele>141.0</ele>
        <time>2021-03-03T09:58:20Z</time>
      </trkpt>
      <trkpt lat="41.45766542" lon="2.11263912">
        <ele>141.0</ele>
        <time>2021-03-03T09:58:21Z</time>
      </trkpt>
      <trkpt lat="41.45770774" lon="2.11263112">
        <ele>141.0</ele>
        <time>2021-03-03T09:58:22Z</time>
      </trkpt>
      <trkpt lat="41.45775307" lon="2.1126238">
        <ele>141.0</ele>
        <time>2021-03-03T09:58:23Z</time>
      </trkpt>
      <trkpt lat="41.45780106" lon="2.11261714">
        <ele>141.0</ele>
        <time>2021-03-03T09:58:24Z</time>
      </trkpt>
      <trkpt lat="41.45785005" lon="2.11261415">
        <ele>141.0</ele>
        <time>2021-03-03T09:58:25Z</time>
      </trkpt>
      <trkpt lat="41.45789971" lon="2.11261215">
        <ele>141.0</ele>
        <time>2021-03-03T09:58:26Z</time>
      </trkpt>
      <trkpt lat="41.4579487" lon="2.11260549">
        <ele>141.0</ele>
        <time>2021-03-03T09:58:27Z</time>
      </trkpt>
      <trkpt lat="41.45799637" lon="2.11259216">
        <ele>141.0</ele>
        <time>2021-03-03T09:58:28Z</time>
      </trkpt>
      <trkpt lat="41.45804169" lon="2.1125735">
        <ele>141.0</ele>
        <time>2021-03-03T09:58:29Z</time>
      </trkpt>
      <trkpt lat="41.45808336" lon="2.1125505">
        <ele>141.0</ele>
        <time>2021-03-03T09:58:30Z</time>
      </trkpt>
      <trkpt lat="41.45812203" lon="2.11252418">
        <ele>141.0</ele>
        <time>2021-03-03T09:58:31Z</time>
      </trkpt>
      <trkpt lat="41.45815536" lon="2.11249386">
        <ele>141.0</ele>
        <time>2021-03-03T09:58:32Z</time>
      </trkpt>
      <trkpt lat="41.45818502" lon="2.11246019">
        <ele>141.0</ele>
        <time>2021-03-03T09:58:33Z</time>
      </trkpt>
      <trkpt lat="41.45820935" lon="2.11242486">
        <ele>141.0</ele>
        <time>2021-03-03T09:58:34Z</time>
      </trkpt>
      <trkpt lat="41.45822634" lon="2.1123872">
        <ele>141.0</ele>
        <time>2021-03-03T09:58:35Z</time>
      </trkpt>
      <trkpt lat="41.45823633" lon="2.11234987">
        <ele>141.0</ele>
        <time>2021-03-03T09:58:36Z</time>
      </trkpt>
      <trkpt lat="41.45824433" lon="2.11231153">
        <ele>141.0</ele>
        <time>2021-03-03T09:58:37Z</time>
      </trkpt>
      <trkpt lat="41.45824833" lon="2.11227221">
        <ele>141.0</ele>
        <time>2021-03-03T09:58:38Z</time>
      </trkpt>
      <trkpt lat="41.45824865" lon="2.11223155">
        <ele>141.0</ele>
        <time>2021-03-03T09:58:39Z</time>
      </trkpt>
      <trkpt lat="41.45824499" lon="2.11219055">
        <ele>141.0</ele>
        <time>2021-03-03T09:58:40Z</time>
      </trkpt>
      <trkpt lat="41.45823866" lon="2.11215056">
        <ele>142.0</ele>
        <time>2021-03-03T09:58:41Z</time>
      </trkpt>
      <trkpt lat="41.45823066" lon="2.11211124">
        <ele>142.0</ele>
        <time>2021-03-03T09:58:42Z</time>
      </trkpt>
      <trkpt lat="41.45822101" lon="2.11207258">
        <ele>142.0</ele>
        <time>2021-03-03T09:58:43Z</time>
      </trkpt>
      <trkpt lat="41.45820868" lon="2.11203558">
        <ele>142.0</ele>
        <time>2021-03-03T09:58:44Z</time>
      </trkpt>
      <trkpt lat="41.45819468" lon="2.11200093">
        <ele>143.0</ele>
        <time>2021-03-03T09:58:45Z</time>
      </trkpt>
      <trkpt lat="41.45818903" lon="2.11196694">
        <ele>143.0</ele>
        <time>2021-03-03T09:58:46Z</time>
      </trkpt>
      <trkpt lat="41.45818536" lon="2.11193294">
        <ele>143.0</ele>
        <time>2021-03-03T09:58:47Z</time>
      </trkpt>
      <trkpt lat="41.45818504" lon="2.11190195">
        <ele>143.0</ele>
        <time>2021-03-03T09:58:48Z</time>
      </trkpt>
      <trkpt lat="41.45818536" lon="2.11187196">
        <ele>144.0</ele>
        <time>2021-03-03T09:58:49Z</time>
      </trkpt>
      <trkpt lat="41.45818437" lon="2.11184462">
        <ele>144.0</ele>
        <time>2021-03-03T09:58:50Z</time>
      </trkpt>
      <trkpt lat="41.45818469" lon="2.11181863">
        <ele>144.0</ele>
        <time>2021-03-03T09:58:51Z</time>
      </trkpt>
      <trkpt lat="41.45818835" lon="2.1117933">
        <ele>144.0</ele>
        <time>2021-03-03T09:58:52Z</time>
      </trkpt>
      <trkpt lat="41.45819701" lon="2.11176998">
        <ele>144.0</ele>
        <time>2021-03-03T09:58:53Z</time>
      </trkpt>
      <trkpt lat="41.45821134" lon="2.11174799">
        <ele>144.0</ele>
        <time>2021-03-03T09:58:54Z</time>
      </trkpt>
      <trkpt lat="41.45822966" lon="2.11172699">
        <ele>144.0</ele>
        <time>2021-03-03T09:58:55Z</time>
      </trkpt>
      <trkpt lat="41.45824933" lon="2.111709">
        <ele>144.0</ele>
        <time>2021-03-03T09:58:56Z</time>
      </trkpt>
      <trkpt lat="41.45826932" lon="2.111693">
        <ele>144.0</ele>
        <time>2021-03-03T09:58:57Z</time>
      </trkpt>
      <trkpt lat="41.45829132" lon="2.11167666">
        <ele>145.0</ele>
        <time>2021-03-03T09:58:58Z</time>
      </trkpt>
      <trkpt lat="41.45831464" lon="2.11165867">
        <ele>145.0</ele>
        <time>2021-03-03T09:58:59Z</time>
      </trkpt>
      <trkpt lat="41.4583373" lon="2.11164002">
        <ele>145.0</ele>
        <time>2021-03-03T09:59:00Z</time>
      </trkpt>
      <trkpt lat="41.4583613" lon="2.11161869">
        <ele>145.0</ele>
        <time>2021-03-03T09:59:00Z</time>
      </trkpt>
      <trkpt lat="41.45839029" lon="2.11159203">
        <ele>145.0</ele>
        <time>2021-03-03T09:59:01Z</time>
      </trkpt>
      <trkpt lat="41.45841729" lon="2.11156303">
        <ele>145.0</ele>
        <time>2021-03-03T09:59:02Z</time>
      </trkpt>
      <trkpt lat="41.45844229" lon="2.11152769">
        <ele>144.0</ele>
        <time>2021-03-03T09:59:03Z</time>
      </trkpt>
      <trkpt lat="41.45846328" lon="2.11148637">
        <ele>144.0</ele>
        <time>2021-03-03T09:59:04Z</time>
      </trkpt>
      <trkpt lat="41.45848094" lon="2.1114397">
        <ele>144.0</ele>
        <time>2021-03-03T09:59:05Z</time>
      </trkpt>
      <trkpt lat="41.45849793" lon="2.11138671">
        <ele>144.0</ele>
        <time>2021-03-03T09:59:06Z</time>
      </trkpt>
      <trkpt lat="41.45851426" lon="2.11133338">
        <ele>144.0</ele>
        <time>2021-03-03T09:59:07Z</time>
      </trkpt>
      <trkpt lat="41.45853059" lon="2.11128205">
        <ele>144.0</ele>
        <time>2021-03-03T09:59:08Z</time>
      </trkpt>
      <trkpt lat="41.45854525" lon="2.11123771">
        <ele>144.0</ele>
        <time>2021-03-03T09:59:09Z</time>
      </trkpt>
      <trkpt lat="41.45856125" lon="2.11119706">
        <ele>144.0</ele>
        <time>2021-03-03T09:59:10Z</time>
      </trkpt>
      <trkpt lat="41.45857657" lon="2.11116307">
        <ele>144.0</ele>
        <time>2021-03-03T09:59:11Z</time>
      </trkpt>
      <trkpt lat="41.45859491" lon="2.11112873">
        <ele>144.0</ele>
        <time>2021-03-03T09:59:12Z</time>
      </trkpt>
      <trkpt lat="41.45861357" lon="2.11109707">
        <ele>144.0</ele>
        <time>2021-03-03T09:59:13Z</time>
      </trkpt>
      <trkpt lat="41.45863356" lon="2.11106308">
        <ele>144.0</ele>
        <time>2021-03-03T09:59:14Z</time>
      </trkpt>
      <trkpt lat="41.45865389" lon="2.11102709">
        <ele>144.0</ele>
        <time>2021-03-03T09:59:15Z</time>
      </trkpt>
      <trkpt lat="41.45867589" lon="2.11099009">
        <ele>144.0</ele>
        <time>2021-03-03T09:59:16Z</time>
      </trkpt>
      <trkpt lat="41.45869921" lon="2.11095109">
        <ele>144.0</ele>
        <time>2021-03-03T09:59:17Z</time>
      </trkpt>
      <trkpt lat="41.45872253" lon="2.11091143">
        <ele>144.0</ele>
        <time>2021-03-03T09:59:18Z</time>
      </trkpt>
      <trkpt lat="41.45874653" lon="2.11086643">
        <ele>144.0</ele>
        <time>2021-03-03T09:59:19Z</time>
      </trkpt>
      <trkpt lat="41.45876919" lon="2.11082343">
        <ele>144.0</ele>
        <time>2021-03-03T09:59:20Z</time>
      </trkpt>
      <trkpt lat="41.45879318" lon="2.11078076">
        <ele>145.0</ele>
        <time>2021-03-03T09:59:21Z</time>
      </trkpt>
      <trkpt lat="41.45881985" lon="2.11073977">
        <ele>145.0</ele>
        <time>2021-03-03T09:59:22Z</time>
      </trkpt>
      <trkpt lat="41.4588485" lon="2.11070011">
        <ele>145.0</ele>
        <time>2021-03-03T09:59:23Z</time>
      </trkpt>
      <trkpt lat="41.45887884" lon="2.11066078">
        <ele>145.0</ele>
        <time>2021-03-03T09:59:24Z</time>
      </trkpt>
      <trkpt lat="41.45891283" lon="2.11061945">
        <ele>145.0</ele>
        <time>2021-03-03T09:59:25Z</time>
      </trkpt>
      <trkpt lat="41.45894482" lon="2.11058213">
        <ele>145.0</ele>
        <time>2021-03-03T09:59:26Z</time>
      </trkpt>
      <trkpt lat="41.45897881" lon="2.11054546">
        <ele>145.0</ele>
        <time>2021-03-03T09:59:27Z</time>
      </trkpt>
      <trkpt lat="41.45901514" lon="2.1105098">
        <ele>145.0</ele>
        <time>2021-03-03T09:59:28Z</time>
      </trkpt>
      <trkpt lat="41.45905247" lon="2.1104738">
        <ele>145.0</ele>
        <time>2021-03-03T09:59:29Z</time>
      </trkpt>
      <trkpt lat="41.4590938" lon="2.1104378">
        <ele>145.0</ele>
        <time>2021-03-03T09:59:30Z</time>
      </trkpt>
      <trkpt lat="41.45913312" lon="2.11040748">
        <ele>145.0</ele>
        <time>2021-03-03T09:59:31Z</time>
      </trkpt>
      <trkpt lat="41.45917445" lon="2.11037982">
        <ele>145.0</ele>
        <time>2021-03-03T09:59:32Z</time>
      </trkpt>
      <trkpt lat="41.45921679" lon="2.11035382">
        <ele>145.0</ele>
        <time>2021-03-03T09:59:33Z</time>
      </trkpt>
      <trkpt lat="41.45925978" lon="2.11032716">
        <ele>145.0</ele>
        <time>2021-03-03T09:59:34Z</time>
      </trkpt>
      <trkpt lat="41.45930411" lon="2.11030116">
        <ele>145.0</ele>
        <time>2021-03-03T09:59:35Z</time>
      </trkpt>
      <trkpt lat="41.4593551" lon="2.11027917">
        <ele>145.0</ele>
        <time>2021-03-03T09:59:36Z</time>
      </trkpt>
      <trkpt lat="41.45940477" lon="2.11026251">
        <ele>145.0</ele>
        <time>2021-03-03T09:59:37Z</time>
      </trkpt>
      <trkpt lat="41.45946309" lon="2.11025218">
        <ele>145.0</ele>
        <time>2021-03-03T09:59:38Z</time>
      </trkpt>
      <trkpt lat="41.45952442" lon="2.11025152">
        <ele>145.0</ele>
        <time>2021-03-03T09:59:39Z</time>
      </trkpt>
      <trkpt lat="41.45958442" lon="2.11025885">
        <ele>144.0</ele>
        <time>2021-03-03T09:59:40Z</time>
      </trkpt>
      <trkpt lat="41.45965275" lon="2.11027251">
        <ele>144.0</ele>
        <time>2021-03-03T09:59:41Z</time>
      </trkpt>
      <trkpt lat="41.45971907" lon="2.1102875">
        <ele>144.0</ele>
        <time>2021-03-03T09:59:42Z</time>
      </trkpt>
      <trkpt lat="41.4597824" lon="2.11030116">
        <ele>143.0</ele>
        <time>2021-03-03T09:59:43Z</time>
      </trkpt>
      <trkpt lat="41.45983639" lon="2.11031015">
        <ele>143.0</ele>
        <time>2021-03-03T09:59:44Z</time>
      </trkpt>
      <trkpt lat="41.45988873" lon="2.11031781">
        <ele>142.0</ele>
        <time>2021-03-03T09:59:45Z</time>
      </trkpt>
      <trkpt lat="41.45994005" lon="2.11032415">
        <ele>142.0</ele>
        <time>2021-03-03T09:59:46Z</time>
      </trkpt>
      <trkpt lat="41.45998671" lon="2.11033214">
        <ele>141.0</ele>
        <time>2021-03-03T09:59:47Z</time>
      </trkpt>
      <trkpt lat="41.46003104" lon="2.11034514">
        <ele>141.0</ele>
        <time>2021-03-03T09:59:48Z</time>
      </trkpt>
      <trkpt lat="41.46007137" lon="2.11036114">
        <ele>140.0</ele>
        <time>2021-03-03T09:59:49Z</time>
      </trkpt>
      <trkpt lat="41.4601117" lon="2.11037947">
        <ele>140.0</ele>
        <time>2021-03-03T09:59:50Z</time>
      </trkpt>
      <trkpt lat="41.46014736" lon="2.1103978">
        <ele>139.0</ele>
        <time>2021-03-03T09:59:51Z</time>
      </trkpt>
      <trkpt lat="41.46017935" lon="2.1104138">
        <ele>138.0</ele>
        <time>2021-03-03T09:59:52Z</time>
      </trkpt>
      <trkpt lat="41.46021034" lon="2.11042579">
        <ele>138.0</ele>
        <time>2021-03-03T09:59:53Z</time>
      </trkpt>
      <trkpt lat="41.46024001" lon="2.11043446">
        <ele>137.0</ele>
        <time>2021-03-03T09:59:54Z</time>
      </trkpt>
      <trkpt lat="41.46026733" lon="2.11044279">
        <ele>136.0</ele>
        <time>2021-03-03T09:59:55Z</time>
      </trkpt>
      <trkpt lat="41.46029633" lon="2.11045145">
        <ele>136.0</ele>
        <time>2021-03-03T09:59:56Z</time>
      </trkpt>
      <trkpt lat="41.46032766" lon="2.11045878">
        <ele>136.0</ele>
        <time>2021-03-03T09:59:57Z</time>
      </trkpt>
      <trkpt lat="41.46036099" lon="2.11046677">
        <ele>136.0</ele>
        <time>2021-03-03T09:59:58Z</time>
      </trkpt>
      <trkpt lat="41.46040131" lon="2.11047777">
        <ele>135.0</ele>
        <time>2021-03-03T09:59:59Z</time>
      </trkpt>
      <trkpt lat="41.46044565" lon="2.11048777">
        <ele>135.0</ele>
        <time>2021-03-03T10:00:00Z</time>
      </trkpt>
      <trkpt lat="41.46049497" lon="2.11049643">
        <ele>134.0</ele>
        <time>2021-03-03T10:00:01Z</time>
      </trkpt>
      <trkpt lat="41.46054764" lon="2.11050476">
        <ele>134.0</ele>
        <time>2021-03-03T10:00:02Z</time>
      </trkpt>
      <trkpt lat="41.4606033" lon="2.11051476">
        <ele>133.0</ele>
        <time>2021-03-03T10:00:03Z</time>
      </trkpt>
      <trkpt lat="41.46066296" lon="2.11052542">
        <ele>133.0</ele>
        <time>2021-03-03T10:00:04Z</time>
      </trkpt>
      <trkpt lat="41.46072495" lon="2.11053441">
        <ele>133.0</ele>
        <time>2021-03-03T10:00:05Z</time>
      </trkpt>
      <trkpt lat="41.46078727" lon="2.11054474">
        <ele>133.0</ele>
        <time>2021-03-03T10:00:06Z</time>
      </trkpt>
      <trkpt lat="41.46084726" lon="2.1105534">
        <ele>132.0</ele>
        <time>2021-03-03T10:00:07Z</time>
      </trkpt>
      <trkpt lat="41.46090426" lon="2.11056007">
        <ele>132.0</ele>
        <time>2021-03-03T10:00:08Z</time>
      </trkpt>
      <trkpt lat="41.46095759" lon="2.11056606">
        <ele>131.0</ele>
        <time>2021-03-03T10:00:09Z</time>
      </trkpt>
      <trkpt lat="41.46100992" lon="2.11057139">
        <ele>131.0</ele>
        <time>2021-03-03T10:00:10Z</time>
      </trkpt>
      <trkpt lat="41.46106259" lon="2.11057571">
        <ele>131.0</ele>
        <time>2021-03-03T10:00:11Z</time>
      </trkpt>
      <trkpt lat="41.46111491" lon="2.11057905">
        <ele>131.0</ele>
        <time>2021-03-03T10:00:12Z</time>
      </trkpt>
      <trkpt lat="41.46116924" lon="2.11058137">
        <ele>130.0</ele>
        <time>2021-03-03T10:00:13Z</time>
      </trkpt>
      <trkpt lat="41.46122491" lon="2.11058604">
        <ele>129.0</ele>
        <time>2021-03-03T10:00:14Z</time>
      </trkpt>
      <trkpt lat="41.46128123" lon="2.11059736">
        <ele>129.0</ele>
        <time>2021-03-03T10:00:15Z</time>
      </trkpt>
      <trkpt lat="41.46133556" lon="2.11061503">
        <ele>129.0</ele>
        <time>2021-03-03T10:00:16Z</time>
      </trkpt>
      <trkpt lat="41.46138856" lon="2.11063636">
        <ele>128.0</ele>
        <time>2021-03-03T10:00:17Z</time>
      </trkpt>
      <trkpt lat="41.46143988" lon="2.11065968">
        <ele>128.0</ele>
        <time>2021-03-03T10:00:18Z</time>
      </trkpt>
      <trkpt lat="41.46148887" lon="2.11068502">
        <ele>127.0</ele>
        <time>2021-03-03T10:00:19Z</time>
      </trkpt>
      <trkpt lat="41.46153686" lon="2.11071067">
        <ele>127.0</ele>
        <time>2021-03-03T10:00:20Z</time>
      </trkpt>
      <trkpt lat="41.46158553" lon="2.11073667">
        <ele>126.0</ele>
        <time>2021-03-03T10:00:21Z</time>
      </trkpt>
      <trkpt lat="41.46163418" lon="2.11076667">
        <ele>126.0</ele>
        <time>2021-03-03T10:00:22Z</time>
      </trkpt>
      <trkpt lat="41.46167918" lon="2.110804">
        <ele>125.0</ele>
        <time>2021-03-03T10:00:23Z</time>
      </trkpt>
      <trkpt lat="41.46172284" lon="2.11084765">
        <ele>125.0</ele>
        <time>2021-03-03T10:00:24Z</time>
      </trkpt>
      <trkpt lat="41.46176517" lon="2.11089599">
        <ele>124.0</ele>
        <time>2021-03-03T10:00:25Z</time>
      </trkpt>
      <trkpt lat="41.46180783" lon="2.11094598">
        <ele>124.0</ele>
        <time>2021-03-03T10:00:26Z</time>
      </trkpt>
      <trkpt lat="41.46185082" lon="2.11099864">
        <ele>124.0</ele>
        <time>2021-03-03T10:00:27Z</time>
      </trkpt>
      <trkpt lat="41.46189448" lon="2.11105163">
        <ele>123.0</ele>
        <time>2021-03-03T10:00:28Z</time>
      </trkpt>
      <trkpt lat="41.46193881" lon="2.11110562">
        <ele>123.0</ele>
        <time>2021-03-03T10:00:29Z</time>
      </trkpt>
      <trkpt lat="41.46198314" lon="2.11115961">
        <ele>123.0</ele>
        <time>2021-03-03T10:00:30Z</time>
      </trkpt>
      <trkpt lat="41.46202548" lon="2.11121395">
        <ele>123.0</ele>
        <time>2021-03-03T10:00:31Z</time>
      </trkpt>
      <trkpt lat="41.4620658" lon="2.1112696">
        <ele>122.0</ele>
        <time>2021-03-03T10:00:32Z</time>
      </trkpt>
      <trkpt lat="41.46210546" lon="2.11132394">
        <ele>122.0</ele>
        <time>2021-03-03T10:00:33Z</time>
      </trkpt>
      <trkpt lat="41.46214478" lon="2.11137993">
        <ele>122.0</ele>
        <time>2021-03-03T10:00:34Z</time>
      </trkpt>
      <trkpt lat="41.46218545" lon="2.11143526">
        <ele>121.0</ele>
        <time>2021-03-03T10:00:35Z</time>
      </trkpt>
      <trkpt lat="41.46222644" lon="2.11148825">
        <ele>121.0</ele>
        <time>2021-03-03T10:00:36Z</time>
      </trkpt>
      <trkpt lat="41.46226644" lon="2.11153792">
        <ele>121.0</ele>
        <time>2021-03-03T10:00:37Z</time>
      </trkpt>
      <trkpt lat="41.46230543" lon="2.11158391">
        <ele>121.0</ele>
        <time>2021-03-03T10:00:38Z</time>
      </trkpt>
      <trkpt lat="41.46234309" lon="2.11162657">
        <ele>121.0</ele>
        <time>2021-03-03T10:00:39Z</time>
      </trkpt>
      <trkpt lat="41.46238042" lon="2.1116669">
        <ele>121.0</ele>
        <time>2021-03-03T10:00:40Z</time>
      </trkpt>
      <trkpt lat="41.46241642" lon="2.11170423">
        <ele>121.0</ele>
        <time>2021-03-03T10:00:41Z</time>
      </trkpt>
      <trkpt lat="41.46245041" lon="2.11173822">
        <ele>121.0</ele>
        <time>2021-03-03T10:00:42Z</time>
      </trkpt>
      <trkpt lat="41.4624844" lon="2.11176889">
        <ele>121.0</ele>
        <time>2021-03-03T10:00:43Z</time>
      </trkpt>
      <trkpt lat="41.46251839" lon="2.11179454">
        <ele>121.0</ele>
        <time>2021-03-03T10:00:44Z</time>
      </trkpt>
      <trkpt lat="41.46255172" lon="2.11181653">
        <ele>121.0</ele>
        <time>2021-03-03T10:00:45Z</time>
      </trkpt>
      <trkpt lat="41.46258472" lon="2.1118352">
        <ele>121.0</ele>
        <time>2021-03-03T10:00:46Z</time>
      </trkpt>
      <trkpt lat="41.46261638" lon="2.11184886">
        <ele>121.0</ele>
        <time>2021-03-03T10:00:47Z</time>
      </trkpt>
      <trkpt lat="41.46264737" lon="2.11185851">
        <ele>122.0</ele>
        <time>2021-03-03T10:00:48Z</time>
      </trkpt>
      <trkpt lat="41.46267669" lon="2.11186384">
        <ele>122.0</ele>
        <time>2021-03-03T10:00:49Z</time>
      </trkpt>
      <trkpt lat="41.46270469" lon="2.11186384">
        <ele>122.0</ele>
        <time>2021-03-03T10:00:50Z</time>
      </trkpt>
      <trkpt lat="41.46273336" lon="2.11185851">
        <ele>122.0</ele>
        <time>2021-03-03T10:00:51Z</time>
      </trkpt>
      <trkpt lat="41.46276068" lon="2.11185052">
        <ele>122.0</ele>
        <time>2021-03-03T10:00:52Z</time>
      </trkpt>
      <trkpt lat="41.46278835" lon="2.11183919">
        <ele>122.0</ele>
        <time>2021-03-03T10:00:53Z</time>
      </trkpt>
      <trkpt lat="41.46281734" lon="2.11182687">
        <ele>122.0</ele>
        <time>2021-03-03T10:00:54Z</time>
      </trkpt>
      <trkpt lat="41.46284734" lon="2.11181387">
        <ele>123.0</ele>
        <time>2021-03-03T10:00:55Z</time>
      </trkpt>
      <trkpt lat="41.46287734" lon="2.1118022">
        <ele>123.0</ele>
        <time>2021-03-03T10:00:56Z</time>
      </trkpt>
      <trkpt lat="41.46290599" lon="2.11179287">
        <ele>123.0</ele>
        <time>2021-03-03T10:00:57Z</time>
      </trkpt>
      <trkpt lat="41.46293299" lon="2.1117852">
        <ele>123.0</ele>
        <time>2021-03-03T10:00:58Z</time>
      </trkpt>
      <trkpt lat="41.46295932" lon="2.11178188">
        <ele>123.0</ele>
        <time>2021-03-03T10:00:59Z</time>
      </trkpt>
      <trkpt lat="41.46298797" lon="2.11177788">
        <ele>123.0</ele>
        <time>2021-03-03T10:01:00Z</time>
      </trkpt>
      <trkpt lat="41.46301831" lon="2.11177489">
        <ele>123.0</ele>
        <time>2021-03-03T10:01:01Z</time>
      </trkpt>
      <trkpt lat="41.4630483" lon="2.1117729">
        <ele>123.0</ele>
        <time>2021-03-03T10:01:02Z</time>
      </trkpt>
      <trkpt lat="41.46307863" lon="2.11177355">
        <ele>123.0</ele>
        <time>2021-03-03T10:01:03Z</time>
      </trkpt>
      <trkpt lat="41.4631063" lon="2.11177788">
        <ele>123.0</ele>
        <time>2021-03-03T10:01:04Z</time>
      </trkpt>
      <trkpt lat="41.4631333" lon="2.11178621">
        <ele>124.0</ele>
        <time>2021-03-03T10:01:05Z</time>
      </trkpt>
      <trkpt lat="41.46315962" lon="2.11179621">
        <ele>124.0</ele>
        <time>2021-03-03T10:01:06Z</time>
      </trkpt>
      <trkpt lat="41.46318662" lon="2.11180854">
        <ele>124.0</ele>
        <time>2021-03-03T10:01:07Z</time>
      </trkpt>
      <trkpt lat="41.46321128" lon="2.11181987">
        <ele>124.0</ele>
        <time>2021-03-03T10:01:08Z</time>
      </trkpt>
      <trkpt lat="41.46324261" lon="2.11183252">
        <ele>124.0</ele>
        <time>2021-03-03T10:01:09Z</time>
      </trkpt>
      <trkpt lat="41.46327627" lon="2.11184219">
        <ele>124.0</ele>
        <time>2021-03-03T10:01:10Z</time>
      </trkpt>
      <trkpt lat="41.4633136" lon="2.11184685">
        <ele>124.0</ele>
        <time>2021-03-03T10:01:11Z</time>
      </trkpt>
      <trkpt lat="41.46335126" lon="2.11184519">
        <ele>124.0</ele>
        <time>2021-03-03T10:01:12Z</time>
      </trkpt>
      <trkpt lat="41.46338525" lon="2.11183919">
        <ele>124.0</ele>
        <time>2021-03-03T10:01:13Z</time>
      </trkpt>
      <trkpt lat="41.46341458" lon="2.11183187">
        <ele>124.0</ele>
        <time>2021-03-03T10:01:14Z</time>
      </trkpt>
      <trkpt lat="41.46344424" lon="2.1118202">
        <ele>125.0</ele>
        <time>2021-03-03T10:01:15Z</time>
      </trkpt>
      <trkpt lat="41.46347357" lon="2.11180554">
        <ele>125.0</ele>
        <time>2021-03-03T10:01:16Z</time>
      </trkpt>
      <trkpt lat="41.46350023" lon="2.11178721">
        <ele>125.0</ele>
        <time>2021-03-03T10:01:17Z</time>
      </trkpt>
      <trkpt lat="41.46353089" lon="2.11175989">
        <ele>125.0</ele>
        <time>2021-03-03T10:01:18Z</time>
      </trkpt>
      <trkpt lat="41.46356488" lon="2.11172389">
        <ele>125.0</ele>
        <time>2021-03-03T10:01:19Z</time>
      </trkpt>
      <trkpt lat="41.46360122" lon="2.11168422">
        <ele>125.0</ele>
        <time>2021-03-03T10:01:20Z</time>
      </trkpt>
      <trkpt lat="41.46364322" lon="2.11163256">
        <ele>125.0</ele>
        <time>2021-03-03T10:01:21Z</time>
      </trkpt>
      <trkpt lat="41.46368421" lon="2.11157491">
        <ele>125.0</ele>
        <time>2021-03-03T10:01:22Z</time>
      </trkpt>
      <trkpt lat="41.46372287" lon="2.11151258">
        <ele>125.0</ele>
        <time>2021-03-03T10:01:23Z</time>
      </trkpt>
      <trkpt lat="41.46375787" lon="2.11144558">
        <ele>125.0</ele>
        <time>2021-03-03T10:01:24Z</time>
      </trkpt>
      <trkpt lat="41.4637892" lon="2.11137059">
        <ele>125.0</ele>
        <time>2021-03-03T10:01:25Z</time>
      </trkpt>
      <trkpt lat="41.46381686" lon="2.11129126">
        <ele>125.0</ele>
        <time>2021-03-03T10:01:26Z</time>
      </trkpt>
      <trkpt lat="41.46384285" lon="2.11120826">
        <ele>124.0</ele>
        <time>2021-03-03T10:01:27Z</time>
      </trkpt>
      <trkpt lat="41.46386951" lon="2.1111246">
        <ele>124.0</ele>
        <time>2021-03-03T10:01:28Z</time>
      </trkpt>
      <trkpt lat="41.46389584" lon="2.11104195">
        <ele>124.0</ele>
        <time>2021-03-03T10:01:29Z</time>
      </trkpt>
      <trkpt lat="41.46392384" lon="2.11095996">
        <ele>123.0</ele>
        <time>2021-03-03T10:01:30Z</time>
      </trkpt>
      <trkpt lat="41.46394983" lon="2.11087862">
        <ele>123.0</ele>
        <time>2021-03-03T10:01:31Z</time>
      </trkpt>
      <trkpt lat="41.46397849" lon="2.1107993">
        <ele>123.0</ele>
        <time>2021-03-03T10:01:32Z</time>
      </trkpt>
      <trkpt lat="41.46400782" lon="2.11072198">
        <ele>122.0</ele>
        <time>2021-03-03T10:01:33Z</time>
      </trkpt>
      <trkpt lat="41.46403248" lon="2.11064364">
        <ele>122.0</ele>
        <time>2021-03-03T10:01:34Z</time>
      </trkpt>
      <trkpt lat="41.46405181" lon="2.11056332">
        <ele>122.0</ele>
        <time>2021-03-03T10:01:35Z</time>
      </trkpt>
      <trkpt lat="41.46406614" lon="2.11048133">
        <ele>122.0</ele>
        <time>2021-03-03T10:01:36Z</time>
      </trkpt>
      <trkpt lat="41.4640738" lon="2.11039833">
        <ele>122.0</ele>
        <time>2021-03-03T10:01:37Z</time>
      </trkpt>
      <trkpt lat="41.46407813" lon="2.11031533">
        <ele>121.0</ele>
        <time>2021-03-03T10:01:38Z</time>
      </trkpt>
      <trkpt lat="41.46407979" lon="2.11023434">
        <ele>121.0</ele>
        <time>2021-03-03T10:01:39Z</time>
      </trkpt>
      <trkpt lat="41.46408146" lon="2.11015501">
        <ele>121.0</ele>
        <time>2021-03-03T10:01:40Z</time>
      </trkpt>
      <trkpt lat="41.46408312" lon="2.11007567">
        <ele>121.0</ele>
        <time>2021-03-03T10:01:41Z</time>
      </trkpt>
      <trkpt lat="41.46408445" lon="2.10999468">
        <ele>121.0</ele>
        <time>2021-03-03T10:01:42Z</time>
      </trkpt>
      <trkpt lat="41.46408877" lon="2.10991402">
        <ele>121.0</ele>
        <time>2021-03-03T10:01:43Z</time>
      </trkpt>
      <trkpt lat="41.46409476" lon="2.10983302">
        <ele>121.0</ele>
        <time>2021-03-03T10:01:44Z</time>
      </trkpt>
      <trkpt lat="41.46410143" lon="2.10975169">
        <ele>121.0</ele>
        <time>2021-03-03T10:01:45Z</time>
      </trkpt>
      <trkpt lat="41.46410842" lon="2.10967204">
        <ele>121.0</ele>
        <time>2021-03-03T10:01:46Z</time>
      </trkpt>
      <trkpt lat="41.46411875" lon="2.10959637">
        <ele>120.0</ele>
        <time>2021-03-03T10:01:47Z</time>
      </trkpt>
      <trkpt lat="41.46413408" lon="2.10952671">
        <ele>120.0</ele>
        <time>2021-03-03T10:01:48Z</time>
      </trkpt>
      <trkpt lat="41.46415608" lon="2.10946439">
        <ele>120.0</ele>
        <time>2021-03-03T10:01:49Z</time>
      </trkpt>
      <trkpt lat="41.4641874" lon="2.10940939">
        <ele>120.0</ele>
        <time>2021-03-03T10:01:50Z</time>
      </trkpt>
      <trkpt lat="41.4642254" lon="2.10935839">
        <ele>119.0</ele>
        <time>2021-03-03T10:01:51Z</time>
      </trkpt>
      <trkpt lat="41.46427007" lon="2.10930873">
        <ele>119.0</ele>
        <time>2021-03-03T10:01:52Z</time>
      </trkpt>
      <trkpt lat="41.46431872" lon="2.1092584">
        <ele>118.0</ele>
        <time>2021-03-03T10:01:53Z</time>
      </trkpt>
      <trkpt lat="41.46436872" lon="2.10920608">
        <ele>118.0</ele>
        <time>2021-03-03T10:01:54Z</time>
      </trkpt>
      <trkpt lat="41.46441872" lon="2.10915209">
        <ele>117.0</ele>
        <time>2021-03-03T10:01:55Z</time>
      </trkpt>
      <trkpt lat="41.46446305" lon="2.10909743">
        <ele>116.0</ele>
        <time>2021-03-03T10:01:56Z</time>
      </trkpt>
      <trkpt lat="41.46450405" lon="2.1090431">
        <ele>115.0</ele>
        <time>2021-03-03T10:01:57Z</time>
      </trkpt>
      <trkpt lat="41.46454404" lon="2.1089881">
        <ele>115.0</ele>
        <time>2021-03-03T10:01:58Z</time>
      </trkpt>
      <trkpt lat="41.46458604" lon="2.10893577">
        <ele>114.0</ele>
        <time>2021-03-03T10:01:59Z</time>
      </trkpt>
      <trkpt lat="41.46462936" lon="2.10889178">
        <ele>113.0</ele>
        <time>2021-03-03T10:02:00Z</time>
      </trkpt>
      <trkpt lat="41.46467536" lon="2.10885846">
        <ele>112.0</ele>
        <time>2021-03-03T10:02:01Z</time>
      </trkpt>
      <trkpt lat="41.46472502" lon="2.10883413">
        <ele>111.0</ele>
        <time>2021-03-03T10:02:02Z</time>
      </trkpt>
      <trkpt lat="41.46477635" lon="2.10881579">
        <ele>111.0</ele>
        <time>2021-03-03T10:02:03Z</time>
      </trkpt>
      <trkpt lat="41.46482567" lon="2.10880314">
        <ele>110.0</ele>
        <time>2021-03-03T10:02:04Z</time>
      </trkpt>
      <trkpt lat="41.46488101" lon="2.10879014">
        <ele>110.0</ele>
        <time>2021-03-03T10:02:05Z</time>
      </trkpt>
      <trkpt lat="41.46493266" lon="2.10876947">
        <ele>109.0</ele>
        <time>2021-03-03T10:02:06Z</time>
      </trkpt>
      <trkpt lat="41.46497633" lon="2.1087358">
        <ele>109.0</ele>
        <time>2021-03-03T10:02:07Z</time>
      </trkpt>
      <trkpt lat="41.46501533" lon="2.10869147">
        <ele>108.0</ele>
        <time>2021-03-03T10:02:08Z</time>
      </trkpt>
      <trkpt lat="41.46505065" lon="2.10863915">
        <ele>108.0</ele>
        <time>2021-03-03T10:02:09Z</time>
      </trkpt>
      <trkpt lat="41.46508265" lon="2.10857716">
        <ele>108.0</ele>
        <time>2021-03-03T10:02:10Z</time>
      </trkpt>
      <trkpt lat="41.46511064" lon="2.1085065">
        <ele>107.0</ele>
        <time>2021-03-03T10:02:11Z</time>
      </trkpt>
      <trkpt lat="41.46513598" lon="2.1084325">
        <ele>107.0</ele>
        <time>2021-03-03T10:02:12Z</time>
      </trkpt>
      <trkpt lat="41.46516031" lon="2.10836184">
        <ele>106.0</ele>
        <time>2021-03-03T10:02:13Z</time>
      </trkpt>
      <trkpt lat="41.46518798" lon="2.10828418">
        <ele>106.0</ele>
        <time>2021-03-03T10:02:14Z</time>
      </trkpt>
      <trkpt lat="41.46521763" lon="2.10821018">
        <ele>105.0</ele>
        <time>2021-03-03T10:02:15Z</time>
      </trkpt>
      <trkpt lat="41.4652463" lon="2.10813719">
        <ele>105.0</ele>
        <time>2021-03-03T10:02:16Z</time>
      </trkpt>
      <trkpt lat="41.46526796" lon="2.10806286">
        <ele>105.0</ele>
        <time>2021-03-03T10:02:17Z</time>
      </trkpt>
      <trkpt lat="41.46528495" lon="2.10799154">
        <ele>105.0</ele>
        <time>2021-03-03T10:02:18Z</time>
      </trkpt>
      <trkpt lat="41.46529261" lon="2.10791454">
        <ele>104.0</ele>
        <time>2021-03-03T10:02:19Z</time>
      </trkpt>
      <trkpt lat="41.46528996" lon="2.10783555">
        <ele>104.0</ele>
        <time>2021-03-03T10:02:20Z</time>
      </trkpt>
      <trkpt lat="41.46527963" lon="2.10775522">
        <ele>103.0</ele>
        <time>2021-03-03T10:02:21Z</time>
      </trkpt>
      <trkpt lat="41.46525997" lon="2.10766789">
        <ele>103.0</ele>
        <time>2021-03-03T10:02:22Z</time>
      </trkpt>
      <trkpt lat="41.46523698" lon="2.10758556">
        <ele>102.0</ele>
        <time>2021-03-03T10:02:23Z</time>
      </trkpt>
      <trkpt lat="41.46520832" lon="2.10749656">
        <ele>102.0</ele>
        <time>2021-03-03T10:02:24Z</time>
      </trkpt>
      <trkpt lat="41.46517933" lon="2.10741357">
        <ele>102.0</ele>
        <time>2021-03-03T10:02:25Z</time>
      </trkpt>
      <trkpt lat="41.465149" lon="2.10733057">
        <ele>102.0</ele>
        <time>2021-03-03T10:02:26Z</time>
      </trkpt>
      <trkpt lat="41.465122" lon="2.10724857">
        <ele>101.0</ele>
        <time>2021-03-03T10:02:27Z</time>
      </trkpt>
      <trkpt lat="41.46510001" lon="2.10716991">
        <ele>101.0</ele>
        <time>2021-03-03T10:02:28Z</time>
      </trkpt>
      <trkpt lat="41.46508734" lon="2.10709259">
        <ele>101.0</ele>
        <time>2021-03-03T10:02:29Z</time>
      </trkpt>
      <trkpt lat="41.46508534" lon="2.10702459">
        <ele>101.0</ele>
        <time>2021-03-03T10:02:30Z</time>
      </trkpt>
      <trkpt lat="41.46509167" lon="2.10696792">
        <ele>101.0</ele>
        <time>2021-03-03T10:02:31Z</time>
      </trkpt>
      <trkpt lat="41.465108" lon="2.10691527">
        <ele>101.0</ele>
        <time>2021-03-03T10:02:32Z</time>
      </trkpt>
      <trkpt lat="41.46513" lon="2.10686661">
        <ele>101.0</ele>
        <time>2021-03-03T10:02:33Z</time>
      </trkpt>
      <trkpt lat="41.46515466" lon="2.10681761">
        <ele>101.0</ele>
        <time>2021-03-03T10:02:34Z</time>
      </trkpt>
      <trkpt lat="41.46518133" lon="2.10676595">
        <ele>101.0</ele>
        <time>2021-03-03T10:02:35Z</time>
      </trkpt>
      <trkpt lat="41.46520932" lon="2.1067113">
        <ele>101.0</ele>
        <time>2021-03-03T10:02:36Z</time>
      </trkpt>
      <trkpt lat="41.46523465" lon="2.10665364">
        <ele>101.0</ele>
        <time>2021-03-03T10:02:37Z</time>
      </trkpt>
      <trkpt lat="41.46525664" lon="2.10659197">
        <ele>101.0</ele>
        <time>2021-03-03T10:02:38Z</time>
      </trkpt>
      <trkpt lat="41.46527498" lon="2.10652164">
        <ele>101.0</ele>
        <time>2021-03-03T10:02:39Z</time>
      </trkpt>
      <trkpt lat="41.4652903" lon="2.10645332">
        <ele>101.0</ele>
        <time>2021-03-03T10:02:40Z</time>
      </trkpt>
      <trkpt lat="41.46530496" lon="2.10637932">
        <ele>101.0</ele>
        <time>2021-03-03T10:02:41Z</time>
      </trkpt>
      <trkpt lat="41.46531796" lon="2.10630799">
        <ele>101.0</ele>
        <time>2021-03-03T10:02:42Z</time>
      </trkpt>
      <trkpt lat="41.46532896" lon="2.10624434">
        <ele>101.0</ele>
        <time>2021-03-03T10:02:43Z</time>
      </trkpt>
      <trkpt lat="41.46534061" lon="2.10618201">
        <ele>101.0</ele>
        <time>2021-03-03T10:02:44Z</time>
      </trkpt>
      <trkpt lat="41.46535227" lon="2.10611969">
        <ele>101.0</ele>
        <time>2021-03-03T10:02:45Z</time>
      </trkpt>
      <trkpt lat="41.4653646" lon="2.10605769">
        <ele>101.0</ele>
        <time>2021-03-03T10:02:46Z</time>
      </trkpt>
      <trkpt lat="41.46537993" lon="2.10599737">
        <ele>101.0</ele>
        <time>2021-03-03T10:02:47Z</time>
      </trkpt>
      <trkpt lat="41.46540025" lon="2.10594003">
        <ele>101.0</ele>
        <time>2021-03-03T10:02:48Z</time>
      </trkpt>
      <trkpt lat="41.46542392" lon="2.10588503">
        <ele>101.0</ele>
        <time>2021-03-03T10:02:49Z</time>
      </trkpt>
      <trkpt lat="41.46544791" lon="2.1058287">
        <ele>101.0</ele>
        <time>2021-03-03T10:02:50Z</time>
      </trkpt>
      <trkpt lat="41.46546824" lon="2.10577104">
        <ele>101.0</ele>
        <time>2021-03-03T10:02:51Z</time>
      </trkpt>
      <trkpt lat="41.46548623" lon="2.10571171">
        <ele>101.0</ele>
        <time>2021-03-03T10:02:52Z</time>
      </trkpt>
      <trkpt lat="41.46550189" lon="2.10565238">
        <ele>101.0</ele>
        <time>2021-03-03T10:02:53Z</time>
      </trkpt>
      <trkpt lat="41.46551888" lon="2.10559272">
        <ele>101.0</ele>
        <time>2021-03-03T10:02:54Z</time>
      </trkpt>
      <trkpt lat="41.46553721" lon="2.10553405">
        <ele>101.0</ele>
        <time>2021-03-03T10:02:55Z</time>
      </trkpt>
      <trkpt lat="41.46555888" lon="2.10547672">
        <ele>101.0</ele>
        <time>2021-03-03T10:02:56Z</time>
      </trkpt>
      <trkpt lat="41.4655842" lon="2.10542039">
        <ele>101.0</ele>
        <time>2021-03-03T10:02:57Z</time>
      </trkpt>
      <trkpt lat="41.46561286" lon="2.10536472">
        <ele>101.0</ele>
        <time>2021-03-03T10:02:58Z</time>
      </trkpt>
      <trkpt lat="41.46564185" lon="2.10530773">
        <ele>101.0</ele>
        <time>2021-03-03T10:02:59Z</time>
      </trkpt>
      <trkpt lat="41.46566951" lon="2.1052484">
        <ele>101.0</ele>
        <time>2021-03-03T10:03:00Z</time>
      </trkpt>
      <trkpt lat="41.46569584" lon="2.10518673">
        <ele>101.0</ele>
        <time>2021-03-03T10:03:01Z</time>
      </trkpt>
      <trkpt lat="41.46572017" lon="2.10512207">
        <ele>101.0</ele>
        <time>2021-03-03T10:03:02Z</time>
      </trkpt>
      <trkpt lat="41.46574349" lon="2.10505008">
        <ele>101.0</ele>
        <time>2021-03-03T10:03:03Z</time>
      </trkpt>
      <trkpt lat="41.46576683" lon="2.10498143">
        <ele>101.0</ele>
        <time>2021-03-03T10:03:04Z</time>
      </trkpt>
      <trkpt lat="41.46578748" lon="2.10490776">
        <ele>101.0</ele>
        <time>2021-03-03T10:03:05Z</time>
      </trkpt>
      <trkpt lat="41.46580781" lon="2.10483044">
        <ele>101.0</ele>
        <time>2021-03-03T10:03:06Z</time>
      </trkpt>
      <trkpt lat="41.46582813" lon="2.10475177">
        <ele>101.0</ele>
        <time>2021-03-03T10:03:07Z</time>
      </trkpt>
      <trkpt lat="41.46585113" lon="2.10467178">
        <ele>101.0</ele>
        <time>2021-03-03T10:03:08Z</time>
      </trkpt>
      <trkpt lat="41.46587679" lon="2.10458545">
        <ele>101.0</ele>
        <time>2021-03-03T10:03:09Z</time>
      </trkpt>
      <trkpt lat="41.46590111" lon="2.10450512">
        <ele>100.0</ele>
        <time>2021-03-03T10:03:10Z</time>
      </trkpt>
      <trkpt lat="41.46592744" lon="2.10442446">
        <ele>100.0</ele>
        <time>2021-03-03T10:03:11Z</time>
      </trkpt>
      <trkpt lat="41.46595643" lon="2.10434446">
        <ele>100.0</ele>
        <time>2021-03-03T10:03:12Z</time>
      </trkpt>
      <trkpt lat="41.46598977" lon="2.10426879">
        <ele>100.0</ele>
        <time>2021-03-03T10:03:13Z</time>
      </trkpt>
      <trkpt lat="41.46602909" lon="2.10420113">
        <ele>100.0</ele>
        <time>2021-03-03T10:03:14Z</time>
      </trkpt>
      <trkpt lat="41.46607308" lon="2.10414248">
        <ele>99.0</ele>
        <time>2021-03-03T10:03:15Z</time>
      </trkpt>
      <trkpt lat="41.46612108" lon="2.10409314">
        <ele>99.0</ele>
        <time>2021-03-03T10:03:15Z</time>
      </trkpt>
      <trkpt lat="41.46617074" lon="2.10404915">
        <ele>99.0</ele>
        <time>2021-03-03T10:03:16Z</time>
      </trkpt>
      <trkpt lat="41.46622074" lon="2.1040055">
        <ele>99.0</ele>
        <time>2021-03-03T10:03:17Z</time>
      </trkpt>
      <trkpt lat="41.46626639" lon="2.1039595">
        <ele>99.0</ele>
        <time>2021-03-03T10:03:18Z</time>
      </trkpt>
      <trkpt lat="41.46630605" lon="2.10391351">
        <ele>99.0</ele>
        <time>2021-03-03T10:03:19Z</time>
      </trkpt>
      <trkpt lat="41.46634004" lon="2.10387051">
        <ele>99.0</ele>
        <time>2021-03-03T10:03:20Z</time>
      </trkpt>
      <trkpt lat="41.46637103" lon="2.10382617">
        <ele>98.0</ele>
        <time>2021-03-03T10:03:21Z</time>
      </trkpt>
      <trkpt lat="41.46639935" lon="2.10378018">
        <ele>98.0</ele>
        <time>2021-03-03T10:03:22Z</time>
      </trkpt>
      <trkpt lat="41.46642735" lon="2.10373019">
        <ele>98.0</ele>
        <time>2021-03-03T10:03:23Z</time>
      </trkpt>
      <trkpt lat="41.46645535" lon="2.10367554">
        <ele>98.0</ele>
        <time>2021-03-03T10:03:24Z</time>
      </trkpt>
      <trkpt lat="41.46648402" lon="2.10361654">
        <ele>98.0</ele>
        <time>2021-03-03T10:03:25Z</time>
      </trkpt>
      <trkpt lat="41.46651268" lon="2.10355288">
        <ele>98.0</ele>
        <time>2021-03-03T10:03:26Z</time>
      </trkpt>
      <trkpt lat="41.46654068" lon="2.10348055">
        <ele>97.0</ele>
        <time>2021-03-03T10:03:27Z</time>
      </trkpt>
      <trkpt lat="41.46656433" lon="2.10341188">
        <ele>97.0</ele>
        <time>2021-03-03T10:03:28Z</time>
      </trkpt>
      <trkpt lat="41.46658633" lon="2.10334056">
        <ele>97.0</ele>
        <time>2021-03-03T10:03:29Z</time>
      </trkpt>
      <trkpt lat="41.466608" lon="2.10326822">
        <ele>97.0</ele>
        <time>2021-03-03T10:03:30Z</time>
      </trkpt>
      <trkpt lat="41.46663199" lon="2.10319857">
        <ele>97.0</ele>
        <time>2021-03-03T10:03:31Z</time>
      </trkpt>
      <trkpt lat="41.46665966" lon="2.10313324">
        <ele>97.0</ele>
        <time>2021-03-03T10:03:32Z</time>
      </trkpt>
      <trkpt lat="41.46668865" lon="2.10307224">
        <ele>97.0</ele>
        <time>2021-03-03T10:03:33Z</time>
      </trkpt>
      <trkpt lat="41.4667173" lon="2.10301424">
        <ele>97.0</ele>
        <time>2021-03-03T10:03:34Z</time>
      </trkpt>
      <trkpt lat="41.46674697" lon="2.10295759">
        <ele>97.0</ele>
        <time>2021-03-03T10:03:35Z</time>
      </trkpt>
      <trkpt lat="41.46677663" lon="2.1029006">
        <ele>97.0</ele>
        <time>2021-03-03T10:03:36Z</time>
      </trkpt>
      <trkpt lat="41.46680663" lon="2.10284093">
        <ele>97.0</ele>
        <time>2021-03-03T10:03:37Z</time>
      </trkpt>
      <trkpt lat="41.46683663" lon="2.10277327">
        <ele>97.0</ele>
        <time>2021-03-03T10:03:38Z</time>
      </trkpt>
      <trkpt lat="41.46686262" lon="2.10270694">
        <ele>97.0</ele>
        <time>2021-03-03T10:03:39Z</time>
      </trkpt>
      <trkpt lat="41.46688827" lon="2.10263662">
        <ele>97.0</ele>
        <time>2021-03-03T10:03:40Z</time>
      </trkpt>
      <trkpt lat="41.46691327" lon="2.10256195">
        <ele>97.0</ele>
        <time>2021-03-03T10:03:41Z</time>
      </trkpt>
      <trkpt lat="41.46693727" lon="2.10247795">
        <ele>97.0</ele>
        <time>2021-03-03T10:03:42Z</time>
      </trkpt>
      <trkpt lat="41.46695926" lon="2.10239795">
        <ele>97.0</ele>
        <time>2021-03-03T10:03:43Z</time>
      </trkpt>
      <trkpt lat="41.46697993" lon="2.10231463">
        <ele>97.0</ele>
        <time>2021-03-03T10:03:44Z</time>
      </trkpt>
      <trkpt lat="41.46700292" lon="2.10222497">
        <ele>96.0</ele>
        <time>2021-03-03T10:03:45Z</time>
      </trkpt>
      <trkpt lat="41.46702459" lon="2.1021373">
        <ele>96.0</ele>
        <time>2021-03-03T10:03:46Z</time>
      </trkpt>
      <trkpt lat="41.46704658" lon="2.10204865">
        <ele>96.0</ele>
        <time>2021-03-03T10:03:47Z</time>
      </trkpt>
      <trkpt lat="41.46706658" lon="2.10196031">
        <ele>96.0</ele>
        <time>2021-03-03T10:03:48Z</time>
      </trkpt>
      <trkpt lat="41.4670859" lon="2.10186766">
        <ele>96.0</ele>
        <time>2021-03-03T10:03:49Z</time>
      </trkpt>
      <trkpt lat="41.46710257" lon="2.10178332">
        <ele>96.0</ele>
        <time>2021-03-03T10:03:50Z</time>
      </trkpt>
      <trkpt lat="41.4671179" lon="2.10169933">
        <ele>96.0</ele>
        <time>2021-03-03T10:03:51Z</time>
      </trkpt>
      <trkpt lat="41.46713322" lon="2.10161633">
        <ele>95.0</ele>
        <time>2021-03-03T10:03:52Z</time>
      </trkpt>
      <trkpt lat="41.46714822" lon="2.10153301">
        <ele>95.0</ele>
        <time>2021-03-03T10:03:53Z</time>
      </trkpt>
      <trkpt lat="41.46716555" lon="2.10144968">
        <ele>95.0</ele>
        <time>2021-03-03T10:03:54Z</time>
      </trkpt>
      <trkpt lat="41.4671842" lon="2.10136002">
        <ele>95.0</ele>
        <time>2021-03-03T10:03:55Z</time>
      </trkpt>
      <trkpt lat="41.46720187" lon="2.1012767">
        <ele>94.0</ele>
        <time>2021-03-03T10:03:56Z</time>
      </trkpt>
      <trkpt lat="41.46721919" lon="2.10119236">
        <ele>94.0</ele>
        <time>2021-03-03T10:03:57Z</time>
      </trkpt>
      <trkpt lat="41.46723452" lon="2.10110704">
        <ele>94.0</ele>
        <time>2021-03-03T10:03:58Z</time>
      </trkpt>
      <trkpt lat="41.46724685" lon="2.10102137">
        <ele>94.0</ele>
        <time>2021-03-03T10:03:59Z</time>
      </trkpt>
      <trkpt lat="41.46725651" lon="2.10093505">
        <ele>93.0</ele>
        <time>2021-03-03T10:04:00Z</time>
      </trkpt>
      <trkpt lat="41.46726451" lon="2.10084872">
        <ele>93.0</ele>
        <time>2021-03-03T10:04:01Z</time>
      </trkpt>
      <trkpt lat="41.46727217" lon="2.10076306">
        <ele>93.0</ele>
        <time>2021-03-03T10:04:02Z</time>
      </trkpt>
      <trkpt lat="41.46728116" lon="2.10067773">
        <ele>93.0</ele>
        <time>2021-03-03T10:04:03Z</time>
      </trkpt>
      <trkpt lat="41.4672925" lon="2.1005934">
        <ele>92.0</ele>
        <time>2021-03-03T10:04:04Z</time>
      </trkpt>
      <trkpt lat="41.46730715" lon="2.1005134">
        <ele>92.0</ele>
        <time>2021-03-03T10:04:05Z</time>
      </trkpt>
      <trkpt lat="41.46732549" lon="2.10043708">
        <ele>91.0</ele>
        <time>2021-03-03T10:04:06Z</time>
      </trkpt>
      <trkpt lat="41.46734648" lon="2.10036341">
        <ele>91.0</ele>
        <time>2021-03-03T10:04:07Z</time>
      </trkpt>
      <trkpt lat="41.46737014" lon="2.10029209">
        <ele>91.0</ele>
        <time>2021-03-03T10:04:08Z</time>
      </trkpt>
      <trkpt lat="41.46739848" lon="2.10021809">
        <ele>91.0</ele>
        <time>2021-03-03T10:04:09Z</time>
      </trkpt>
      <trkpt lat="41.46742547" lon="2.1001501">
        <ele>91.0</ele>
        <time>2021-03-03T10:04:10Z</time>
      </trkpt>
      <trkpt lat="41.46745347" lon="2.1000821">
        <ele>91.0</ele>
        <time>2021-03-03T10:04:11Z</time>
      </trkpt>
      <trkpt lat="41.4674838" lon="2.10000778">
        <ele>90.0</ele>
        <time>2021-03-03T10:04:12Z</time>
      </trkpt>
      <trkpt lat="41.46751246" lon="2.09993911">
        <ele>90.0</ele>
        <time>2021-03-03T10:04:13Z</time>
      </trkpt>
      <trkpt lat="41.46754246" lon="2.09986911">
        <ele>90.0</ele>
        <time>2021-03-03T10:04:14Z</time>
      </trkpt>
      <trkpt lat="41.46757245" lon="2.09980479">
        <ele>90.0</ele>
        <time>2021-03-03T10:04:15Z</time>
      </trkpt>
      <trkpt lat="41.46760445" lon="2.09973912">
        <ele>90.0</ele>
        <time>2021-03-03T10:04:16Z</time>
      </trkpt>
      <trkpt lat="41.4676381" lon="2.09966912">
        <ele>90.0</ele>
        <time>2021-03-03T10:04:17Z</time>
      </trkpt>
      <trkpt lat="41.46767243" lon="2.09959813">
        <ele>90.0</ele>
        <time>2021-03-03T10:04:18Z</time>
      </trkpt>
      <trkpt lat="41.46770208" lon="2.09953613">
        <ele>89.0</ele>
        <time>2021-03-03T10:04:19Z</time>
      </trkpt>
      <trkpt lat="41.46772842" lon="2.09947813">
        <ele>89.0</ele>
        <time>2021-03-03T10:04:20Z</time>
      </trkpt>
      <trkpt lat="41.46775207" lon="2.09942547">
        <ele>89.0</ele>
        <time>2021-03-03T10:04:21Z</time>
      </trkpt>
      <trkpt lat="41.46777374" lon="2.09937881">
        <ele>89.0</ele>
        <time>2021-03-03T10:04:22Z</time>
      </trkpt>
      <trkpt lat="41.46779406" lon="2.09933582">
        <ele>89.0</ele>
        <time>2021-03-03T10:04:23Z</time>
      </trkpt>
      <trkpt lat="41.46781206" lon="2.09929715">
        <ele>89.0</ele>
        <time>2021-03-03T10:04:24Z</time>
      </trkpt>
      <trkpt lat="41.46783039" lon="2.09925783">
        <ele>88.0</ele>
        <time>2021-03-03T10:04:25Z</time>
      </trkpt>
      <trkpt lat="41.46784838" lon="2.09921684">
        <ele>88.0</ele>
        <time>2021-03-03T10:04:26Z</time>
      </trkpt>
      <trkpt lat="41.46787071" lon="2.09917184">
        <ele>88.0</ele>
        <time>2021-03-03T10:04:27Z</time>
      </trkpt>
      <trkpt lat="41.46789271" lon="2.0991305">
        <ele>88.0</ele>
        <time>2021-03-03T10:04:28Z</time>
      </trkpt>
      <trkpt lat="41.46791671" lon="2.09908985">
        <ele>88.0</ele>
        <time>2021-03-03T10:04:29Z</time>
      </trkpt>
      <trkpt lat="41.46794471" lon="2.09904519">
        <ele>88.0</ele>
        <time>2021-03-03T10:04:30Z</time>
      </trkpt>
      <trkpt lat="41.46797303" lon="2.09900186">
        <ele>88.0</ele>
        <time>2021-03-03T10:04:31Z</time>
      </trkpt>
      <trkpt lat="41.4680007" lon="2.09895719">
        <ele>88.0</ele>
        <time>2021-03-03T10:04:32Z</time>
      </trkpt>
      <trkpt lat="41.46802902" lon="2.0989132">
        <ele>88.0</ele>
        <time>2021-03-03T10:04:33Z</time>
      </trkpt>
      <trkpt lat="41.46806035" lon="2.09886721">
        <ele>88.0</ele>
        <time>2021-03-03T10:04:34Z</time>
      </trkpt>
      <trkpt lat="41.46809101" lon="2.09882688">
        <ele>88.0</ele>
        <time>2021-03-03T10:04:35Z</time>
      </trkpt>
      <trkpt lat="41.46812667" lon="2.09878955">
        <ele>88.0</ele>
        <time>2021-03-03T10:04:36Z</time>
      </trkpt>
      <trkpt lat="41.46816034" lon="2.0987579">
        <ele>88.0</ele>
        <time>2021-03-03T10:04:37Z</time>
      </trkpt>
      <trkpt lat="41.46819334" lon="2.09872656">
        <ele>88.0</ele>
        <time>2021-03-03T10:04:38Z</time>
      </trkpt>
      <trkpt lat="41.46822833" lon="2.09869323">
        <ele>88.0</ele>
        <time>2021-03-03T10:04:39Z</time>
      </trkpt>
      <trkpt lat="41.46825999" lon="2.09865924">
        <ele>88.0</ele>
        <time>2021-03-03T10:04:40Z</time>
      </trkpt>
      <trkpt lat="41.46828898" lon="2.09862158">
        <ele>88.0</ele>
        <time>2021-03-03T10:04:41Z</time>
      </trkpt>
      <trkpt lat="41.46831531" lon="2.09857925">
        <ele>88.0</ele>
        <time>2021-03-03T10:04:42Z</time>
      </trkpt>
      <trkpt lat="41.46834063" lon="2.09853293">
        <ele>88.0</ele>
        <time>2021-03-03T10:04:43Z</time>
      </trkpt>
      <trkpt lat="41.46836296" lon="2.0984876">
        <ele>88.0</ele>
        <time>2021-03-03T10:04:44Z</time>
      </trkpt>
      <trkpt lat="41.46838596" lon="2.0984396">
        <ele>88.0</ele>
        <time>2021-03-03T10:04:45Z</time>
      </trkpt>
      <trkpt lat="41.46841095" lon="2.09838661">
        <ele>88.0</ele>
        <time>2021-03-03T10:04:46Z</time>
      </trkpt>
      <trkpt lat="41.46843595" lon="2.09833395">
        <ele>88.0</ele>
        <time>2021-03-03T10:04:47Z</time>
      </trkpt>
      <trkpt lat="41.46845962" lon="2.09828495">
        <ele>88.0</ele>
        <time>2021-03-03T10:04:48Z</time>
      </trkpt>
      <trkpt lat="41.46848328" lon="2.09823562">
        <ele>88.0</ele>
        <time>2021-03-03T10:04:49Z</time>
      </trkpt>
      <trkpt lat="41.46850761" lon="2.09818663">
        <ele>88.0</ele>
        <time>2021-03-03T10:04:50Z</time>
      </trkpt>
      <trkpt lat="41.4685316" lon="2.09813563">
        <ele>88.0</ele>
        <time>2021-03-03T10:04:51Z</time>
      </trkpt>
      <trkpt lat="41.46855426" lon="2.09808263">
        <ele>88.0</ele>
        <time>2021-03-03T10:04:52Z</time>
      </trkpt>
      <trkpt lat="41.46857592" lon="2.09802864">
        <ele>88.0</ele>
        <time>2021-03-03T10:04:53Z</time>
      </trkpt>
      <trkpt lat="41.46859958" lon="2.09796999">
        <ele>88.0</ele>
        <time>2021-03-03T10:04:54Z</time>
      </trkpt>
      <trkpt lat="41.46862291" lon="2.09791199">
        <ele>88.0</ele>
        <time>2021-03-03T10:04:55Z</time>
      </trkpt>
      <trkpt lat="41.46864557" lon="2.09785465">
        <ele>88.0</ele>
        <time>2021-03-03T10:04:56Z</time>
      </trkpt>
      <trkpt lat="41.46866823" lon="2.097798">
        <ele>88.0</ele>
        <time>2021-03-03T10:04:57Z</time>
      </trkpt>
      <trkpt lat="41.46869023" lon="2.09774">
        <ele>88.0</ele>
        <time>2021-03-03T10:04:58Z</time>
      </trkpt>
      <trkpt lat="41.46871388" lon="2.09768234">
        <ele>88.0</ele>
        <time>2021-03-03T10:04:59Z</time>
      </trkpt>
      <trkpt lat="41.46873754" lon="2.09762367">
        <ele>88.0</ele>
        <time>2021-03-03T10:05:00Z</time>
      </trkpt>
      <trkpt lat="41.46875921" lon="2.09756801">
        <ele>88.0</ele>
        <time>2021-03-03T10:05:01Z</time>
      </trkpt>
      <trkpt lat="41.46878253" lon="2.09751067">
        <ele>88.0</ele>
        <time>2021-03-03T10:05:02Z</time>
      </trkpt>
      <trkpt lat="41.4688082" lon="2.09745302">
        <ele>88.0</ele>
        <time>2021-03-03T10:05:03Z</time>
      </trkpt>
      <trkpt lat="41.46883685" lon="2.09739103">
        <ele>88.0</ele>
        <time>2021-03-03T10:05:04Z</time>
      </trkpt>
      <trkpt lat="41.46886551" lon="2.09733104">
        <ele>88.0</ele>
        <time>2021-03-03T10:05:05Z</time>
      </trkpt>
      <trkpt lat="41.4688945" lon="2.0972727">
        <ele>88.0</ele>
        <time>2021-03-03T10:05:06Z</time>
      </trkpt>
      <trkpt lat="41.46892383" lon="2.09721538">
        <ele>88.0</ele>
        <time>2021-03-03T10:05:07Z</time>
      </trkpt>
      <trkpt lat="41.46895217" lon="2.09715871">
        <ele>88.0</ele>
        <time>2021-03-03T10:05:08Z</time>
      </trkpt>
      <trkpt lat="41.46898017" lon="2.09710172">
        <ele>88.0</ele>
        <time>2021-03-03T10:05:09Z</time>
      </trkpt>
      <trkpt lat="41.46900716" lon="2.09704473">
        <ele>88.0</ele>
        <time>2021-03-03T10:05:10Z</time>
      </trkpt>
      <trkpt lat="41.46903281" lon="2.0969884">
        <ele>88.0</ele>
        <time>2021-03-03T10:05:11Z</time>
      </trkpt>
      <trkpt lat="41.46905848" lon="2.09693241">
        <ele>88.0</ele>
        <time>2021-03-03T10:05:12Z</time>
      </trkpt>
      <trkpt lat="41.46908414" lon="2.09687808">
        <ele>88.0</ele>
        <time>2021-03-03T10:05:13Z</time>
      </trkpt>
      <trkpt lat="41.46911046" lon="2.09682509">
        <ele>88.0</ele>
        <time>2021-03-03T10:05:14Z</time>
      </trkpt>
      <trkpt lat="41.46913779" lon="2.09677242">
        <ele>88.0</ele>
        <time>2021-03-03T10:05:15Z</time>
      </trkpt>
      <trkpt lat="41.46916445" lon="2.09671843">
        <ele>88.0</ele>
        <time>2021-03-03T10:05:16Z</time>
      </trkpt>
      <trkpt lat="41.46918977" lon="2.09666311">
        <ele>88.0</ele>
        <time>2021-03-03T10:05:17Z</time>
      </trkpt>
      <trkpt lat="41.4692131" lon="2.09660577">
        <ele>88.0</ele>
        <time>2021-03-03T10:05:18Z</time>
      </trkpt>
      <trkpt lat="41.4692331" lon="2.09654644">
        <ele>88.0</ele>
        <time>2021-03-03T10:05:19Z</time>
      </trkpt>
      <trkpt lat="41.46924809" lon="2.09648612">
        <ele>88.0</ele>
        <time>2021-03-03T10:05:20Z</time>
      </trkpt>
      <trkpt lat="41.46925875" lon="2.09642545">
        <ele>87.0</ele>
        <time>2021-03-03T10:05:21Z</time>
      </trkpt>
      <trkpt lat="41.46926474" lon="2.09636446">
        <ele>87.0</ele>
        <time>2021-03-03T10:05:22Z</time>
      </trkpt>
      <trkpt lat="41.46926607" lon="2.09630546">
        <ele>87.0</ele>
        <time>2021-03-03T10:05:23Z</time>
      </trkpt>
      <trkpt lat="41.46926308" lon="2.09624947">
        <ele>87.0</ele>
        <time>2021-03-03T10:05:24Z</time>
      </trkpt>
      <trkpt lat="41.46925808" lon="2.09619614">
        <ele>86.0</ele>
        <time>2021-03-03T10:05:25Z</time>
      </trkpt>
      <trkpt lat="41.46925075" lon="2.0961458">
        <ele>86.0</ele>
        <time>2021-03-03T10:05:26Z</time>
      </trkpt>
      <trkpt lat="41.46924242" lon="2.0960978">
        <ele>86.0</ele>
        <time>2021-03-03T10:05:27Z</time>
      </trkpt>
      <trkpt lat="41.46923475" lon="2.09605047">
        <ele>86.0</ele>
        <time>2021-03-03T10:05:28Z</time>
      </trkpt>
      <trkpt lat="41.46922776" lon="2.09600381">
        <ele>85.0</ele>
        <time>2021-03-03T10:05:29Z</time>
      </trkpt>
      <trkpt lat="41.46922177" lon="2.09595749">
        <ele>85.0</ele>
        <time>2021-03-03T10:05:30Z</time>
      </trkpt>
      <trkpt lat="41.46921912" lon="2.09591449">
        <ele>85.0</ele>
        <time>2021-03-03T10:05:31Z</time>
      </trkpt>
      <trkpt lat="41.46922011" lon="2.09587017">
        <ele>85.0</ele>
        <time>2021-03-03T10:05:32Z</time>
      </trkpt>
      <trkpt lat="41.46922343" lon="2.09582217">
        <ele>85.0</ele>
        <time>2021-03-03T10:05:33Z</time>
      </trkpt>
      <trkpt lat="41.46922743" lon="2.09577417">
        <ele>85.0</ele>
        <time>2021-03-03T10:05:34Z</time>
      </trkpt>
      <trkpt lat="41.46923142" lon="2.09572851">
        <ele>86.0</ele>
        <time>2021-03-03T10:05:35Z</time>
      </trkpt>
      <trkpt lat="41.46923642" lon="2.09568518">
        <ele>86.0</ele>
        <time>2021-03-03T10:05:36Z</time>
      </trkpt>
      <trkpt lat="41.46924442" lon="2.09564618">
        <ele>86.0</ele>
        <time>2021-03-03T10:05:37Z</time>
      </trkpt>
      <trkpt lat="41.46925408" lon="2.09561285">
        <ele>87.0</ele>
        <time>2021-03-03T10:05:38Z</time>
      </trkpt>
      <trkpt lat="41.46926674" lon="2.09558985">
        <ele>87.0</ele>
        <time>2021-03-03T10:05:39Z</time>
      </trkpt>
      <trkpt lat="41.4692804" lon="2.09557885">
        <ele>87.0</ele>
        <time>2021-03-03T10:05:40Z</time>
      </trkpt>
      <trkpt lat="41.4692954" lon="2.09558152">
        <ele>88.0</ele>
        <time>2021-03-03T10:05:41Z</time>
      </trkpt>
      <trkpt lat="41.46931006" lon="2.09559351">
        <ele>88.0</ele>
        <time>2021-03-03T10:05:42Z</time>
      </trkpt>
      <trkpt lat="41.46932538" lon="2.0956125">
        <ele>89.0</ele>
        <time>2021-03-03T10:05:43Z</time>
      </trkpt>
      <trkpt lat="41.46933905" lon="2.09563783">
        <ele>89.0</ele>
        <time>2021-03-03T10:05:44Z</time>
      </trkpt>
      <trkpt lat="41.46935238" lon="2.09566683">
        <ele>89.0</ele>
        <time>2021-03-03T10:05:45Z</time>
      </trkpt>
      <trkpt lat="41.4693647" lon="2.09569449">
        <ele>89.0</ele>
        <time>2021-03-03T10:05:46Z</time>
      </trkpt>
      <trkpt lat="41.46937537" lon="2.09571682">
        <ele>89.0</ele>
        <time>2021-03-03T10:05:47Z</time>
      </trkpt>
      <trkpt lat="41.4693837" lon="2.09573316">
        <ele>89.0</ele>
        <time>2021-03-03T10:05:48Z</time>
      </trkpt>
      <trkpt lat="41.46938969" lon="2.09574448">
        <ele>89.0</ele>
        <time>2021-03-03T10:05:49Z</time>
      </trkpt>
      <trkpt lat="41.46940569" lon="2.0957698">
        <ele>89.0</ele>
        <time>2021-03-03T10:05:51Z</time>
      </trkpt>
      <trkpt lat="41.46940902" lon="2.09576815">
        <ele>89.0</ele>
        <time>2021-03-03T10:05:53Z</time>
      </trkpt>
      <trkpt lat="41.46940934" lon="2.09576847">
        <ele>89.0</ele>
        <time>2021-03-03T10:05:54Z</time>
      </trkpt>
      <trkpt lat="41.46941" lon="2.09576815">
        <ele>90.0</ele>
        <time>2021-03-03T10:05:55Z</time>
      </trkpt>
      <trkpt lat="41.46941066" lon="2.09576715">
        <ele>90.0</ele>
        <time>2021-03-03T10:05:56Z</time>
      </trkpt>
      <trkpt lat="41.46941165" lon="2.09576681">
        <ele>90.0</ele>
        <time>2021-03-03T10:05:57Z</time>
      </trkpt>
      <trkpt lat="41.46941231" lon="2.09576781">
        <ele>90.0</ele>
        <time>2021-03-03T10:05:58Z</time>
      </trkpt>
      <trkpt lat="41.46941464" lon="2.09576881">
        <ele>90.0</ele>
        <time>2021-03-03T10:05:59Z</time>
      </trkpt>
      <trkpt lat="41.46941763" lon="2.09576914">
        <ele>90.0</ele>
        <time>2021-03-03T10:06:00Z</time>
      </trkpt>
      <trkpt lat="41.46942062" lon="2.09577047">
        <ele>90.0</ele>
        <time>2021-03-03T10:06:01Z</time>
      </trkpt>
      <trkpt lat="41.46942896" lon="2.09577646">
        <ele>90.0</ele>
        <time>2021-03-03T10:06:03Z</time>
      </trkpt>
      <trkpt lat="41.46942396" lon="2.09577812">
        <ele>90.0</ele>
        <time>2021-03-03T10:06:05Z</time>
      </trkpt>
      <trkpt lat="41.46942263" lon="2.09577746">
        <ele>90.0</ele>
        <time>2021-03-03T10:06:06Z</time>
      </trkpt>
      <trkpt lat="41.46941998" lon="2.0957768">
        <ele>90.0</ele>
        <time>2021-03-03T10:06:07Z</time>
      </trkpt>
      <trkpt lat="41.46941699" lon="2.09577615">
        <ele>90.0</ele>
        <time>2021-03-03T10:06:08Z</time>
      </trkpt>
      <trkpt lat="41.46941232" lon="2.09576981">
        <ele>90.0</ele>
        <time>2021-03-03T10:06:12Z</time>
      </trkpt>
      <trkpt lat="41.46941166" lon="2.09576849">
        <ele>90.0</ele>
        <time>2021-03-03T10:06:13Z</time>
      </trkpt>
      <trkpt lat="41.46941101" lon="2.09576817">
        <ele>90.0</ele>
        <time>2021-03-03T10:06:14Z</time>
      </trkpt>
      <trkpt lat="41.46940567" lon="2.09577149">
        <ele>90.0</ele>
        <time>2021-03-03T10:06:17Z</time>
      </trkpt>
      <trkpt lat="41.46940468" lon="2.09577215">
        <ele>90.0</ele>
        <time>2021-03-03T10:06:18Z</time>
      </trkpt>
      <trkpt lat="41.46941067" lon="2.09577981">
        <ele>90.0</ele>
        <time>2021-03-03T10:06:34Z</time>
      </trkpt>
      <trkpt lat="41.469417" lon="2.09578248">
        <ele>90.0</ele>
        <time>2021-03-03T10:06:35Z</time>
      </trkpt>
      <trkpt lat="41.46943066" lon="2.09578781">
        <ele>90.0</ele>
        <time>2021-03-03T10:06:36Z</time>
      </trkpt>
      <trkpt lat="41.46945065" lon="2.09579414">
        <ele>90.0</ele>
        <time>2021-03-03T10:06:37Z</time>
      </trkpt>
      <trkpt lat="41.46947631" lon="2.09580014">
        <ele>90.0</ele>
        <time>2021-03-03T10:06:38Z</time>
      </trkpt>
      <trkpt lat="41.46950563" lon="2.09580446">
        <ele>90.0</ele>
        <time>2021-03-03T10:06:39Z</time>
      </trkpt>
      <trkpt lat="41.46953763" lon="2.09580545">
        <ele>90.0</ele>
        <time>2021-03-03T10:06:40Z</time>
      </trkpt>
      <trkpt lat="41.46957063" lon="2.09580313">
        <ele>90.0</ele>
        <time>2021-03-03T10:06:41Z</time>
      </trkpt>
      <trkpt lat="41.46960462" lon="2.09579813">
        <ele>90.0</ele>
        <time>2021-03-03T10:06:42Z</time>
      </trkpt>
      <trkpt lat="41.46963761" lon="2.09579147">
        <ele>90.0</ele>
        <time>2021-03-03T10:06:43Z</time>
      </trkpt>
      <trkpt lat="41.46966961" lon="2.09578115">
        <ele>90.0</ele>
        <time>2021-03-03T10:06:44Z</time>
      </trkpt>
      <trkpt lat="41.46970094" lon="2.09576915">
        <ele>90.0</ele>
        <time>2021-03-03T10:06:45Z</time>
      </trkpt>
      <trkpt lat="41.4697336" lon="2.09575849">
        <ele>90.0</ele>
        <time>2021-03-03T10:06:46Z</time>
      </trkpt>
      <trkpt lat="41.46976826" lon="2.09574883">
        <ele>90.0</ele>
        <time>2021-03-03T10:06:47Z</time>
      </trkpt>
      <trkpt lat="41.46980493" lon="2.0957425">
        <ele>90.0</ele>
        <time>2021-03-03T10:06:48Z</time>
      </trkpt>
      <trkpt lat="41.46984458" lon="2.09574218">
        <ele>90.0</ele>
        <time>2021-03-03T10:06:49Z</time>
      </trkpt>
      <trkpt lat="41.46988592" lon="2.09575017">
        <ele>90.0</ele>
        <time>2021-03-03T10:06:50Z</time>
      </trkpt>
      <trkpt lat="41.46992924" lon="2.09576517">
        <ele>90.0</ele>
        <time>2021-03-03T10:06:51Z</time>
      </trkpt>
      <trkpt lat="41.4699749" lon="2.09578649">
        <ele>90.0</ele>
        <time>2021-03-03T10:06:52Z</time>
      </trkpt>
      <trkpt lat="41.47001956" lon="2.09580982">
        <ele>90.0</ele>
        <time>2021-03-03T10:06:53Z</time>
      </trkpt>
      <trkpt lat="41.47007055" lon="2.09583915">
        <ele>89.0</ele>
        <time>2021-03-03T10:06:54Z</time>
      </trkpt>
      <trkpt lat="41.47012255" lon="2.09587048">
        <ele>89.0</ele>
        <time>2021-03-03T10:06:55Z</time>
      </trkpt>
      <trkpt lat="41.47017589" lon="2.09590348">
        <ele>89.0</ele>
        <time>2021-03-03T10:06:56Z</time>
      </trkpt>
      <trkpt lat="41.47022988" lon="2.0959378">
        <ele>89.0</ele>
        <time>2021-03-03T10:06:57Z</time>
      </trkpt>
      <trkpt lat="41.4702842" lon="2.0959738">
        <ele>89.0</ele>
        <time>2021-03-03T10:06:58Z</time>
      </trkpt>
      <trkpt lat="41.47033987" lon="2.09601079">
        <ele>89.0</ele>
        <time>2021-03-03T10:06:59Z</time>
      </trkpt>
      <trkpt lat="41.47039452" lon="2.09604812">
        <ele>89.0</ele>
        <time>2021-03-03T10:07:00Z</time>
      </trkpt>
      <trkpt lat="41.47044952" lon="2.09608578">
        <ele>89.0</ele>
        <time>2021-03-03T10:07:01Z</time>
      </trkpt>
      <trkpt lat="41.47050486" lon="2.09612412">
        <ele>89.0</ele>
        <time>2021-03-03T10:07:02Z</time>
      </trkpt>
      <trkpt lat="41.47056151" lon="2.09616311">
        <ele>88.0</ele>
        <time>2021-03-03T10:07:03Z</time>
      </trkpt>
      <trkpt lat="41.47061785" lon="2.09620244">
        <ele>88.0</ele>
        <time>2021-03-03T10:07:04Z</time>
      </trkpt>
      <trkpt lat="41.4706755" lon="2.09624143">
        <ele>88.0</ele>
        <time>2021-03-03T10:07:05Z</time>
      </trkpt>
      <trkpt lat="41.47073516" lon="2.0962811">
        <ele>88.0</ele>
        <time>2021-03-03T10:07:06Z</time>
      </trkpt>
      <trkpt lat="41.47079516" lon="2.0963211">
        <ele>88.0</ele>
        <time>2021-03-03T10:07:07Z</time>
      </trkpt>
      <trkpt lat="41.47085582" lon="2.09636175">
        <ele>88.0</ele>
        <time>2021-03-03T10:07:08Z</time>
      </trkpt>
      <trkpt lat="41.47091315" lon="2.09640075">
        <ele>87.0</ele>
        <time>2021-03-03T10:07:09Z</time>
      </trkpt>
      <trkpt lat="41.47097181" lon="2.09644074">
        <ele>87.0</ele>
        <time>2021-03-03T10:07:10Z</time>
      </trkpt>
      <trkpt lat="41.47103147" lon="2.09648208">
        <ele>87.0</ele>
        <time>2021-03-03T10:07:11Z</time>
      </trkpt>
      <trkpt lat="41.47109713" lon="2.09652774">
        <ele>87.0</ele>
        <time>2021-03-03T10:07:12Z</time>
      </trkpt>
      <trkpt lat="41.47115979" lon="2.09656974">
        <ele>87.0</ele>
        <time>2021-03-03T10:07:13Z</time>
      </trkpt>
      <trkpt lat="41.47122879" lon="2.0966144">
        <ele>87.0</ele>
        <time>2021-03-03T10:07:14Z</time>
      </trkpt>
      <trkpt lat="41.47129644" lon="2.09665873">
        <ele>87.0</ele>
        <time>2021-03-03T10:07:15Z</time>
      </trkpt>
      <trkpt lat="41.47136243" lon="2.09670106">
        <ele>86.0</ele>
        <time>2021-03-03T10:07:16Z</time>
      </trkpt>
      <trkpt lat="41.47142776" lon="2.09674271">
        <ele>86.0</ele>
        <time>2021-03-03T10:07:17Z</time>
      </trkpt>
      <trkpt lat="41.47149309" lon="2.09678471">
        <ele>86.0</ele>
        <time>2021-03-03T10:07:18Z</time>
      </trkpt>
      <trkpt lat="41.47155275" lon="2.09682337">
        <ele>85.0</ele>
        <time>2021-03-03T10:07:19Z</time>
      </trkpt>
      <trkpt lat="41.47161307" lon="2.09686203">
        <ele>85.0</ele>
        <time>2021-03-03T10:07:20Z</time>
      </trkpt>
      <trkpt lat="41.4716784" lon="2.09690336">
        <ele>85.0</ele>
        <time>2021-03-03T10:07:21Z</time>
      </trkpt>
      <trkpt lat="41.47174239" lon="2.09694402">
        <ele>85.0</ele>
        <time>2021-03-03T10:07:22Z</time>
      </trkpt>
      <trkpt lat="41.47180673" lon="2.09698468">
        <ele>85.0</ele>
        <time>2021-03-03T10:07:23Z</time>
      </trkpt>
      <trkpt lat="41.47187339" lon="2.09702767">
        <ele>85.0</ele>
        <time>2021-03-03T10:07:24Z</time>
      </trkpt>
      <trkpt lat="41.47193538" lon="2.09706834">
        <ele>85.0</ele>
        <time>2021-03-03T10:07:25Z</time>
      </trkpt>
      <trkpt lat="41.47199871" lon="2.09711034">
        <ele>84.0</ele>
        <time>2021-03-03T10:07:26Z</time>
      </trkpt>
      <trkpt lat="41.47206304" lon="2.09715466">
        <ele>84.0</ele>
        <time>2021-03-03T10:07:27Z</time>
      </trkpt>
      <trkpt lat="41.47212837" lon="2.09720066">
        <ele>84.0</ele>
        <time>2021-03-03T10:07:28Z</time>
      </trkpt>
      <trkpt lat="41.47219403" lon="2.09724665">
        <ele>83.0</ele>
        <time>2021-03-03T10:07:29Z</time>
      </trkpt>
      <trkpt lat="41.47226002" lon="2.09729231">
        <ele>83.0</ele>
        <time>2021-03-03T10:07:30Z</time>
      </trkpt>
      <trkpt lat="41.47232569" lon="2.09733797">
        <ele>83.0</ele>
        <time>2021-03-03T10:07:30Z</time>
      </trkpt>
      <trkpt lat="41.47239168" lon="2.09738197">
        <ele>83.0</ele>
        <time>2021-03-03T10:07:31Z</time>
      </trkpt>
      <trkpt lat="41.47245767" lon="2.09742396">
        <ele>82.0</ele>
        <time>2021-03-03T10:07:32Z</time>
      </trkpt>
      <trkpt lat="41.47252533" lon="2.09746296">
        <ele>82.0</ele>
        <time>2021-03-03T10:07:33Z</time>
      </trkpt>
      <trkpt lat="41.47259466" lon="2.09749896">
        <ele>82.0</ele>
        <time>2021-03-03T10:07:34Z</time>
      </trkpt>
      <trkpt lat="41.47266531" lon="2.09753128">
        <ele>82.0</ele>
        <time>2021-03-03T10:07:35Z</time>
      </trkpt>
      <trkpt lat="41.47273731" lon="2.09755927">
        <ele>82.0</ele>
        <time>2021-03-03T10:07:36Z</time>
      </trkpt>
      <trkpt lat="41.47281097" lon="2.09758094">
        <ele>82.0</ele>
        <time>2021-03-03T10:07:37Z</time>
      </trkpt>
      <trkpt lat="41.47288496" lon="2.09759694">
        <ele>82.0</ele>
        <time>2021-03-03T10:07:38Z</time>
      </trkpt>
      <trkpt lat="41.47295896" lon="2.09760659">
        <ele>82.0</ele>
        <time>2021-03-03T10:07:39Z</time>
      </trkpt>
      <trkpt lat="41.47303196" lon="2.09761025">
        <ele>82.0</ele>
        <time>2021-03-03T10:07:40Z</time>
      </trkpt>
      <trkpt lat="41.47310462" lon="2.09760926">
        <ele>82.0</ele>
        <time>2021-03-03T10:07:41Z</time>
      </trkpt>
      <trkpt lat="41.47317528" lon="2.09760293">
        <ele>82.0</ele>
        <time>2021-03-03T10:07:42Z</time>
      </trkpt>
      <trkpt lat="41.47324394" lon="2.09759027">
        <ele>82.0</ele>
        <time>2021-03-03T10:07:43Z</time>
      </trkpt>
      <trkpt lat="41.47331094" lon="2.0975726">
        <ele>82.0</ele>
        <time>2021-03-03T10:07:44Z</time>
      </trkpt>
      <trkpt lat="41.47337693" lon="2.09755127">
        <ele>82.0</ele>
        <time>2021-03-03T10:07:45Z</time>
      </trkpt>
      <trkpt lat="41.47344126" lon="2.09752928">
        <ele>82.0</ele>
        <time>2021-03-03T10:07:46Z</time>
      </trkpt>
      <trkpt lat="41.47350493" lon="2.09750761">
        <ele>82.0</ele>
        <time>2021-03-03T10:07:47Z</time>
      </trkpt>
      <trkpt lat="41.4735666" lon="2.09748696">
        <ele>82.0</ele>
        <time>2021-03-03T10:07:48Z</time>
      </trkpt>
      <trkpt lat="41.47362725" lon="2.09746797">
        <ele>82.0</ele>
        <time>2021-03-03T10:07:49Z</time>
      </trkpt>
      <trkpt lat="41.47368792" lon="2.09745163">
        <ele>82.0</ele>
        <time>2021-03-03T10:07:50Z</time>
      </trkpt>
      <trkpt lat="41.47374758" lon="2.09743831">
        <ele>82.0</ele>
        <time>2021-03-03T10:07:51Z</time>
      </trkpt>
      <trkpt lat="41.4738069" lon="2.09742731">
        <ele>83.0</ele>
        <time>2021-03-03T10:07:52Z</time>
      </trkpt>
      <trkpt lat="41.4738659" lon="2.09741931">
        <ele>83.0</ele>
        <time>2021-03-03T10:07:53Z</time>
      </trkpt>
      <trkpt lat="41.47392522" lon="2.09741499">
        <ele>83.0</ele>
        <time>2021-03-03T10:07:54Z</time>
      </trkpt>
      <trkpt lat="41.47398188" lon="2.09741433">
        <ele>83.0</ele>
        <time>2021-03-03T10:07:55Z</time>
      </trkpt>
      <trkpt lat="41.47403887" lon="2.09741799">
        <ele>83.0</ele>
        <time>2021-03-03T10:07:56Z</time>
      </trkpt>
      <trkpt lat="41.47409887" lon="2.09742565">
        <ele>83.0</ele>
        <time>2021-03-03T10:07:57Z</time>
      </trkpt>
      <trkpt lat="41.47416253" lon="2.09743799">
        <ele>83.0</ele>
        <time>2021-03-03T10:07:58Z</time>
      </trkpt>
      <trkpt lat="41.47422553" lon="2.09745265">
        <ele>84.0</ele>
        <time>2021-03-03T10:07:59Z</time>
      </trkpt>
      <trkpt lat="41.47428285" lon="2.09746731">
        <ele>84.0</ele>
        <time>2021-03-03T10:08:00Z</time>
      </trkpt>
      <trkpt lat="41.47433717" lon="2.09748131">
        <ele>84.0</ele>
        <time>2021-03-03T10:08:01Z</time>
      </trkpt>
      <trkpt lat="41.47438984" lon="2.09749431">
        <ele>84.0</ele>
        <time>2021-03-03T10:08:02Z</time>
      </trkpt>
      <trkpt lat="41.47445051" lon="2.09750898">
        <ele>84.0</ele>
        <time>2021-03-03T10:08:03Z</time>
      </trkpt>
      <trkpt lat="41.47451217" lon="2.0975263">
        <ele>84.0</ele>
        <time>2021-03-03T10:08:04Z</time>
      </trkpt>
      <trkpt lat="41.4745695" lon="2.09754362">
        <ele>84.0</ele>
        <time>2021-03-03T10:08:05Z</time>
      </trkpt>
      <trkpt lat="41.47462483" lon="2.09756095">
        <ele>84.0</ele>
        <time>2021-03-03T10:08:06Z</time>
      </trkpt>
      <trkpt lat="41.47468049" lon="2.09757661">
        <ele>84.0</ele>
        <time>2021-03-03T10:08:07Z</time>
      </trkpt>
      <trkpt lat="41.47474115" lon="2.0975946">
        <ele>84.0</ele>
        <time>2021-03-03T10:08:08Z</time>
      </trkpt>
      <trkpt lat="41.47480148" lon="2.0976116">
        <ele>84.0</ele>
        <time>2021-03-03T10:08:09Z</time>
      </trkpt>
      <trkpt lat="41.47486114" lon="2.0976276">
        <ele>84.0</ele>
        <time>2021-03-03T10:08:10Z</time>
      </trkpt>
      <trkpt lat="41.47491813" lon="2.09764293">
        <ele>85.0</ele>
        <time>2021-03-03T10:08:11Z</time>
      </trkpt>
      <trkpt lat="41.47497279" lon="2.09765759">
        <ele>85.0</ele>
        <time>2021-03-03T10:08:12Z</time>
      </trkpt>
      <trkpt lat="41.47502812" lon="2.09767258">
        <ele>85.0</ele>
        <time>2021-03-03T10:08:13Z</time>
      </trkpt>
      <trkpt lat="41.47508511" lon="2.09768792">
        <ele>85.0</ele>
        <time>2021-03-03T10:08:14Z</time>
      </trkpt>
      <trkpt lat="41.47514345" lon="2.09770325">
        <ele>85.0</ele>
        <time>2021-03-03T10:08:15Z</time>
      </trkpt>
      <trkpt lat="41.47520178" lon="2.09771792">
        <ele>85.0</ele>
        <time>2021-03-03T10:08:16Z</time>
      </trkpt>
      <trkpt lat="41.47526044" lon="2.09773191">
        <ele>85.0</ele>
        <time>2021-03-03T10:08:17Z</time>
      </trkpt>
      <trkpt lat="41.47531744" lon="2.09774524">
        <ele>85.0</ele>
        <time>2021-03-03T10:08:18Z</time>
      </trkpt>
      <trkpt lat="41.47537409" lon="2.09776156">
        <ele>85.0</ele>
        <time>2021-03-03T10:08:19Z</time>
      </trkpt>
      <trkpt lat="41.47543276" lon="2.09777822">
        <ele>85.0</ele>
        <time>2021-03-03T10:08:20Z</time>
      </trkpt>
      <trkpt lat="41.47549042" lon="2.09779655">
        <ele>85.0</ele>
        <time>2021-03-03T10:08:21Z</time>
      </trkpt>
      <trkpt lat="41.47554542" lon="2.09782422">
        <ele>85.0</ele>
        <time>2021-03-03T10:08:22Z</time>
      </trkpt>
      <trkpt lat="41.47559374" lon="2.09786354">
        <ele>85.0</ele>
        <time>2021-03-03T10:08:23Z</time>
      </trkpt>
      <trkpt lat="41.47563241" lon="2.09791354">
        <ele>85.0</ele>
        <time>2021-03-03T10:08:24Z</time>
      </trkpt>
      <trkpt lat="41.4756654" lon="2.09796853">
        <ele>85.0</ele>
        <time>2021-03-03T10:08:25Z</time>
      </trkpt>
      <trkpt lat="41.47569905" lon="2.09802287">
        <ele>85.0</ele>
        <time>2021-03-03T10:08:26Z</time>
      </trkpt>
      <trkpt lat="41.47573672" lon="2.09807252">
        <ele>85.0</ele>
        <time>2021-03-03T10:08:27Z</time>
      </trkpt>
      <trkpt lat="41.47578038" lon="2.09811186">
        <ele>85.0</ele>
        <time>2021-03-03T10:08:28Z</time>
      </trkpt>
      <trkpt lat="41.47582704" lon="2.09813418">
        <ele>85.0</ele>
        <time>2021-03-03T10:08:29Z</time>
      </trkpt>
      <trkpt lat="41.47587404" lon="2.09813585">
        <ele>85.0</ele>
        <time>2021-03-03T10:08:30Z</time>
      </trkpt>
      <trkpt lat="41.47592003" lon="2.09812051">
        <ele>85.0</ele>
        <time>2021-03-03T10:08:31Z</time>
      </trkpt>
      <trkpt lat="41.47596536" lon="2.09809219">
        <ele>85.0</ele>
        <time>2021-03-03T10:08:32Z</time>
      </trkpt>
      <trkpt lat="41.47601068" lon="2.0980542">
        <ele>85.0</ele>
        <time>2021-03-03T10:08:33Z</time>
      </trkpt>
      <trkpt lat="41.47605468" lon="2.09800953">
        <ele>85.0</ele>
        <time>2021-03-03T10:08:34Z</time>
      </trkpt>
      <trkpt lat="41.47609834" lon="2.09795787">
        <ele>85.0</ele>
        <time>2021-03-03T10:08:35Z</time>
      </trkpt>
      <trkpt lat="41.47614267" lon="2.09790321">
        <ele>85.0</ele>
        <time>2021-03-03T10:08:36Z</time>
      </trkpt>
      <trkpt lat="41.476187" lon="2.09784789">
        <ele>85.0</ele>
        <time>2021-03-03T10:08:37Z</time>
      </trkpt>
      <trkpt lat="41.47623167" lon="2.09779256">
        <ele>85.0</ele>
        <time>2021-03-03T10:08:38Z</time>
      </trkpt>
      <trkpt lat="41.47627633" lon="2.0977369">
        <ele>85.0</ele>
        <time>2021-03-03T10:08:39Z</time>
      </trkpt>
      <trkpt lat="41.47632033" lon="2.0976819">
        <ele>85.0</ele>
        <time>2021-03-03T10:08:40Z</time>
      </trkpt>
      <trkpt lat="41.47636332" lon="2.09762691">
        <ele>85.0</ele>
        <time>2021-03-03T10:08:41Z</time>
      </trkpt>
      <trkpt lat="41.47640532" lon="2.09757191">
        <ele>85.0</ele>
        <time>2021-03-03T10:08:42Z</time>
      </trkpt>
      <trkpt lat="41.47644598" lon="2.09751757">
        <ele>85.0</ele>
        <time>2021-03-03T10:08:43Z</time>
      </trkpt>
      <trkpt lat="41.47648664" lon="2.09746525">
        <ele>85.0</ele>
        <time>2021-03-03T10:08:44Z</time>
      </trkpt>
      <trkpt lat="41.47652596" lon="2.09741526">
        <ele>86.0</ele>
        <time>2021-03-03T10:08:45Z</time>
      </trkpt>
      <trkpt lat="41.47656329" lon="2.09736626">
        <ele>86.0</ele>
        <time>2021-03-03T10:08:46Z</time>
      </trkpt>
      <trkpt lat="41.47659995" lon="2.0973186">
        <ele>87.0</ele>
        <time>2021-03-03T10:08:47Z</time>
      </trkpt>
      <trkpt lat="41.47663494" lon="2.09727294">
        <ele>87.0</ele>
        <time>2021-03-03T10:08:48Z</time>
      </trkpt>
      <trkpt lat="41.47666861" lon="2.09722927">
        <ele>87.0</ele>
        <time>2021-03-03T10:08:49Z</time>
      </trkpt>
      <trkpt lat="41.47670194" lon="2.09718728">
        <ele>87.0</ele>
        <time>2021-03-03T10:08:50Z</time>
      </trkpt>
      <trkpt lat="41.47673293" lon="2.09714695">
        <ele>88.0</ele>
        <time>2021-03-03T10:08:51Z</time>
      </trkpt>
      <trkpt lat="41.47676292" lon="2.09710828">
        <ele>88.0</ele>
        <time>2021-03-03T10:08:52Z</time>
      </trkpt>
      <trkpt lat="41.47679192" lon="2.09707162">
        <ele>89.0</ele>
        <time>2021-03-03T10:08:53Z</time>
      </trkpt>
      <trkpt lat="41.47681959" lon="2.09703529">
        <ele>89.0</ele>
        <time>2021-03-03T10:08:54Z</time>
      </trkpt>
      <trkpt lat="41.47684658" lon="2.09699997">
        <ele>89.0</ele>
        <time>2021-03-03T10:08:55Z</time>
      </trkpt>
      <trkpt lat="41.47687257" lon="2.09696598">
        <ele>89.0</ele>
        <time>2021-03-03T10:08:56Z</time>
      </trkpt>
      <trkpt lat="41.47689724" lon="2.09693498">
        <ele>90.0</ele>
        <time>2021-03-03T10:08:57Z</time>
      </trkpt>
      <trkpt lat="41.47692424" lon="2.09690265">
        <ele>90.0</ele>
        <time>2021-03-03T10:08:58Z</time>
      </trkpt>
      <trkpt lat="41.47695123" lon="2.09687265">
        <ele>90.0</ele>
        <time>2021-03-03T10:08:59Z</time>
      </trkpt>
      <trkpt lat="41.47697923" lon="2.096847">
        <ele>90.0</ele>
        <time>2021-03-03T10:09:00Z</time>
      </trkpt>
      <trkpt lat="41.47700989" lon="2.09682633">
        <ele>91.0</ele>
        <time>2021-03-03T10:09:01Z</time>
      </trkpt>
      <trkpt lat="41.47704388" lon="2.09681267">
        <ele>91.0</ele>
        <time>2021-03-03T10:09:02Z</time>
      </trkpt>
      <trkpt lat="41.47708022" lon="2.09680501">
        <ele>91.0</ele>
        <time>2021-03-03T10:09:03Z</time>
      </trkpt>
      <trkpt lat="41.47711888" lon="2.09680101">
        <ele>91.0</ele>
        <time>2021-03-03T10:09:04Z</time>
      </trkpt>
      <trkpt lat="41.47715954" lon="2.09679735">
        <ele>91.0</ele>
        <time>2021-03-03T10:09:05Z</time>
      </trkpt>
      <trkpt lat="41.47720154" lon="2.09679103">
        <ele>91.0</ele>
        <time>2021-03-03T10:09:06Z</time>
      </trkpt>
      <trkpt lat="41.47724487" lon="2.09677969">
        <ele>92.0</ele>
        <time>2021-03-03T10:09:07Z</time>
      </trkpt>
      <trkpt lat="41.47728721" lon="2.09676037">
        <ele>92.0</ele>
        <time>2021-03-03T10:09:08Z</time>
      </trkpt>
      <trkpt lat="41.47732853" lon="2.09673405">
        <ele>92.0</ele>
        <time>2021-03-03T10:09:09Z</time>
      </trkpt>
      <trkpt lat="41.4773662" lon="2.09670038">
        <ele>92.0</ele>
        <time>2021-03-03T10:09:10Z</time>
      </trkpt>
      <trkpt lat="41.47740019" lon="2.09666005">
        <ele>92.0</ele>
        <time>2021-03-03T10:09:11Z</time>
      </trkpt>
      <trkpt lat="41.47742851" lon="2.09661338">
        <ele>92.0</ele>
        <time>2021-03-03T10:09:12Z</time>
      </trkpt>
      <trkpt lat="41.47745051" lon="2.09656071">
        <ele>92.0</ele>
        <time>2021-03-03T10:09:13Z</time>
      </trkpt>
      <trkpt lat="41.47746783" lon="2.09650306">
        <ele>92.0</ele>
        <time>2021-03-03T10:09:14Z</time>
      </trkpt>
      <trkpt lat="41.47747982" lon="2.09644107">
        <ele>93.0</ele>
        <time>2021-03-03T10:09:15Z</time>
      </trkpt>
      <trkpt lat="41.47748816" lon="2.0963774">
        <ele>93.0</ele>
        <time>2021-03-03T10:09:16Z</time>
      </trkpt>
      <trkpt lat="41.47749715" lon="2.09631474">
        <ele>93.0</ele>
        <time>2021-03-03T10:09:17Z</time>
      </trkpt>
      <trkpt lat="41.47751181" lon="2.09625574">
        <ele>93.0</ele>
        <time>2021-03-03T10:09:18Z</time>
      </trkpt>
      <trkpt lat="41.4775318" lon="2.09620109">
        <ele>93.0</ele>
        <time>2021-03-03T10:09:19Z</time>
      </trkpt>
      <trkpt lat="41.47755613" lon="2.09614976">
        <ele>93.0</ele>
        <time>2021-03-03T10:09:20Z</time>
      </trkpt>
      <trkpt lat="41.47758346" lon="2.09610176">
        <ele>93.0</ele>
        <time>2021-03-03T10:09:21Z</time>
      </trkpt>
      <trkpt lat="41.47761346" lon="2.0960561">
        <ele>93.0</ele>
        <time>2021-03-03T10:09:22Z</time>
      </trkpt>
      <trkpt lat="41.47764445" lon="2.09601243">
        <ele>93.0</ele>
        <time>2021-03-03T10:09:23Z</time>
      </trkpt>
      <trkpt lat="41.47767577" lon="2.09597011">
        <ele>93.0</ele>
        <time>2021-03-03T10:09:24Z</time>
      </trkpt>
      <trkpt lat="41.47770644" lon="2.09592778">
        <ele>94.0</ele>
        <time>2021-03-03T10:09:25Z</time>
      </trkpt>
      <trkpt lat="41.47773743" lon="2.09588679">
        <ele>94.0</ele>
        <time>2021-03-03T10:09:26Z</time>
      </trkpt>
      <trkpt lat="41.47776875" lon="2.09584679">
        <ele>94.0</ele>
        <time>2021-03-03T10:09:27Z</time>
      </trkpt>
      <trkpt lat="41.47780008" lon="2.09580779">
        <ele>94.0</ele>
        <time>2021-03-03T10:09:28Z</time>
      </trkpt>
      <trkpt lat="41.47783173" lon="2.09577014">
        <ele>94.0</ele>
        <time>2021-03-03T10:09:29Z</time>
      </trkpt>
      <trkpt lat="41.47786272" lon="2.09573347">
        <ele>94.0</ele>
        <time>2021-03-03T10:09:30Z</time>
      </trkpt>
      <trkpt lat="41.47789339" lon="2.09569715">
        <ele>94.0</ele>
        <time>2021-03-03T10:09:31Z</time>
      </trkpt>
      <trkpt lat="41.47792372" lon="2.09566149">
        <ele>94.0</ele>
        <time>2021-03-03T10:09:32Z</time>
      </trkpt>
      <trkpt lat="41.47795372" lon="2.09562583">
        <ele>95.0</ele>
        <time>2021-03-03T10:09:33Z</time>
      </trkpt>
      <trkpt lat="41.47798338" lon="2.0955905">
        <ele>95.0</ele>
        <time>2021-03-03T10:09:34Z</time>
      </trkpt>
      <trkpt lat="41.47801271" lon="2.09555584">
        <ele>95.0</ele>
        <time>2021-03-03T10:09:35Z</time>
      </trkpt>
      <trkpt lat="41.4780417" lon="2.09552084">
        <ele>95.0</ele>
        <time>2021-03-03T10:09:36Z</time>
      </trkpt>
      <trkpt lat="41.47807004" lon="2.09548684">
        <ele>95.0</ele>
        <time>2021-03-03T10:09:37Z</time>
      </trkpt>
      <trkpt lat="41.47809836" lon="2.09545219">
        <ele>95.0</ele>
        <time>2021-03-03T10:09:38Z</time>
      </trkpt>
      <trkpt lat="41.47812668" lon="2.09541753">
        <ele>96.0</ele>
        <time>2021-03-03T10:09:39Z</time>
      </trkpt>
      <trkpt lat="41.47815534" lon="2.0953832">
        <ele>96.0</ele>
        <time>2021-03-03T10:09:40Z</time>
      </trkpt>
      <trkpt lat="41.47818467" lon="2.09534886">
        <ele>96.0</ele>
        <time>2021-03-03T10:09:41Z</time>
      </trkpt>
      <trkpt lat="41.47821301" lon="2.09531453">
        <ele>96.0</ele>
        <time>2021-03-03T10:09:42Z</time>
      </trkpt>
      <trkpt lat="41.47824067" lon="2.0952802">
        <ele>96.0</ele>
        <time>2021-03-03T10:09:43Z</time>
      </trkpt>
      <trkpt lat="41.47826867" lon="2.09524621">
        <ele>97.0</ele>
        <time>2021-03-03T10:09:44Z</time>
      </trkpt>
      <trkpt lat="41.47829633" lon="2.09521222">
        <ele>97.0</ele>
        <time>2021-03-03T10:09:45Z</time>
      </trkpt>
      <trkpt lat="41.47832465" lon="2.09517855">
        <ele>97.0</ele>
        <time>2021-03-03T10:09:46Z</time>
      </trkpt>
      <trkpt lat="41.47835299" lon="2.09514456">
        <ele>97.0</ele>
        <time>2021-03-03T10:09:47Z</time>
      </trkpt>
      <trkpt lat="41.47838199" lon="2.09511089">
        <ele>97.0</ele>
        <time>2021-03-03T10:09:48Z</time>
      </trkpt>
      <trkpt lat="41.47841064" lon="2.09507723">
        <ele>98.0</ele>
        <time>2021-03-03T10:09:49Z</time>
      </trkpt>
      <trkpt lat="41.47843798" lon="2.09504356">
        <ele>98.0</ele>
        <time>2021-03-03T10:09:50Z</time>
      </trkpt>
      <trkpt lat="41.47846463" lon="2.09500957">
        <ele>98.0</ele>
        <time>2021-03-03T10:09:51Z</time>
      </trkpt>
      <trkpt lat="41.47849097" lon="2.09497625">
        <ele>98.0</ele>
        <time>2021-03-03T10:09:52Z</time>
      </trkpt>
      <trkpt lat="41.47851762" lon="2.09494391">
        <ele>98.0</ele>
        <time>2021-03-03T10:09:53Z</time>
      </trkpt>
      <trkpt lat="41.47854462" lon="2.09491191">
        <ele>98.0</ele>
        <time>2021-03-03T10:09:54Z</time>
      </trkpt>
      <trkpt lat="41.47857296" lon="2.09488059">
        <ele>99.0</ele>
        <time>2021-03-03T10:09:55Z</time>
      </trkpt>
      <trkpt lat="41.47860028" lon="2.09484859">
        <ele>99.0</ele>
        <time>2021-03-03T10:09:56Z</time>
      </trkpt>
      <trkpt lat="41.47862795" lon="2.09481692">
        <ele>99.0</ele>
        <time>2021-03-03T10:09:57Z</time>
      </trkpt>
      <trkpt lat="41.47865561" lon="2.09478492">
        <ele>99.0</ele>
        <time>2021-03-03T10:09:58Z</time>
      </trkpt>
      <trkpt lat="41.47868328" lon="2.09475327">
        <ele>99.0</ele>
        <time>2021-03-03T10:09:59Z</time>
      </trkpt>
      <trkpt lat="41.47871027" lon="2.09472161">
        <ele>100.0</ele>
        <time>2021-03-03T10:10:00Z</time>
      </trkpt>
      <trkpt lat="41.47873694" lon="2.09468928">
        <ele>100.0</ele>
        <time>2021-03-03T10:10:01Z</time>
      </trkpt>
      <trkpt lat="41.47876326" lon="2.09465662">
        <ele>100.0</ele>
        <time>2021-03-03T10:10:02Z</time>
      </trkpt>
      <trkpt lat="41.47879093" lon="2.09462363">
        <ele>100.0</ele>
        <time>2021-03-03T10:10:03Z</time>
      </trkpt>
      <trkpt lat="41.47881893" lon="2.0945913">
        <ele>100.0</ele>
        <time>2021-03-03T10:10:04Z</time>
      </trkpt>
      <trkpt lat="41.47884693" lon="2.09455864">
        <ele>100.0</ele>
        <time>2021-03-03T10:10:05Z</time>
      </trkpt>
      <trkpt lat="41.47887459" lon="2.09452497">
        <ele>101.0</ele>
        <time>2021-03-03T10:10:06Z</time>
      </trkpt>
      <trkpt lat="41.47890193" lon="2.09449165">
        <ele>101.0</ele>
        <time>2021-03-03T10:10:07Z</time>
      </trkpt>
      <trkpt lat="41.47893058" lon="2.09445766">
        <ele>101.0</ele>
        <time>2021-03-03T10:10:08Z</time>
      </trkpt>
      <trkpt lat="41.47895924" lon="2.09442333">
        <ele>101.0</ele>
        <time>2021-03-03T10:10:09Z</time>
      </trkpt>
      <trkpt lat="41.47898756" lon="2.09438767">
        <ele>102.0</ele>
        <time>2021-03-03T10:10:10Z</time>
      </trkpt>
      <trkpt lat="41.4790149" lon="2.09435234">
        <ele>102.0</ele>
        <time>2021-03-03T10:10:11Z</time>
      </trkpt>
      <trkpt lat="41.47904256" lon="2.09431701">
        <ele>102.0</ele>
        <time>2021-03-03T10:10:12Z</time>
      </trkpt>
      <trkpt lat="41.47907122" lon="2.09428235">
        <ele>102.0</ele>
        <time>2021-03-03T10:10:13Z</time>
      </trkpt>
      <trkpt lat="41.47910054" lon="2.09424836">
        <ele>102.0</ele>
        <time>2021-03-03T10:10:14Z</time>
      </trkpt>
      <trkpt lat="41.47912954" lon="2.09421503">
        <ele>102.0</ele>
        <time>2021-03-03T10:10:15Z</time>
      </trkpt>
      <trkpt lat="41.47915788" lon="2.0941827">
        <ele>102.0</ele>
        <time>2021-03-03T10:10:16Z</time>
      </trkpt>
      <trkpt lat="41.4791852" lon="2.09415004">
        <ele>102.0</ele>
        <time>2021-03-03T10:10:17Z</time>
      </trkpt>
      <trkpt lat="41.47921187" lon="2.09411839">
        <ele>102.0</ele>
        <time>2021-03-03T10:10:18Z</time>
      </trkpt>
      <trkpt lat="41.47923819" lon="2.09408673">
        <ele>103.0</ele>
        <time>2021-03-03T10:10:19Z</time>
      </trkpt>
      <trkpt lat="41.47926552" lon="2.0940554">
        <ele>103.0</ele>
        <time>2021-03-03T10:10:20Z</time>
      </trkpt>
      <trkpt lat="41.47929285" lon="2.0940234">
        <ele>103.0</ele>
        <time>2021-03-03T10:10:21Z</time>
      </trkpt>
      <trkpt lat="41.47931951" lon="2.09399106">
        <ele>104.0</ele>
        <time>2021-03-03T10:10:22Z</time>
      </trkpt>
      <trkpt lat="41.47934584" lon="2.09395906">
        <ele>104.0</ele>
        <time>2021-03-03T10:10:23Z</time>
      </trkpt>
      <trkpt lat="41.4793715" lon="2.09392706">
        <ele>104.0</ele>
        <time>2021-03-03T10:10:24Z</time>
      </trkpt>
      <trkpt lat="41.47939716" lon="2.09389507">
        <ele>104.0</ele>
        <time>2021-03-03T10:10:25Z</time>
      </trkpt>
      <trkpt lat="41.47942282" lon="2.09386441">
        <ele>104.0</ele>
        <time>2021-03-03T10:10:26Z</time>
      </trkpt>
      <trkpt lat="41.47944914" lon="2.09383342">
        <ele>104.0</ele>
        <time>2021-03-03T10:10:27Z</time>
      </trkpt>
      <trkpt lat="41.47947546" lon="2.09380275">
        <ele>104.0</ele>
        <time>2021-03-03T10:10:28Z</time>
      </trkpt>
      <trkpt lat="41.4795018" lon="2.09377243">
        <ele>105.0</ele>
        <time>2021-03-03T10:10:29Z</time>
      </trkpt>
      <trkpt lat="41.47952879" lon="2.09374144">
        <ele>105.0</ele>
        <time>2021-03-03T10:10:30Z</time>
      </trkpt>
      <trkpt lat="41.47955645" lon="2.09371144">
        <ele>105.0</ele>
        <time>2021-03-03T10:10:31Z</time>
      </trkpt>
      <trkpt lat="41.47958412" lon="2.09368244">
        <ele>105.0</ele>
        <time>2021-03-03T10:10:32Z</time>
      </trkpt>
      <trkpt lat="41.47961311" lon="2.09365478">
        <ele>105.0</ele>
        <time>2021-03-03T10:10:33Z</time>
      </trkpt>
      <trkpt lat="41.47964244" lon="2.09362811">
        <ele>105.0</ele>
        <time>2021-03-03T10:10:34Z</time>
      </trkpt>
      <trkpt lat="41.47967143" lon="2.09360145">
        <ele>106.0</ele>
        <time>2021-03-03T10:10:35Z</time>
      </trkpt>
      <trkpt lat="41.47970009" lon="2.09357578">
        <ele>106.0</ele>
        <time>2021-03-03T10:10:36Z</time>
      </trkpt>
      <trkpt lat="41.47972942" lon="2.09355079">
        <ele>106.0</ele>
        <time>2021-03-03T10:10:37Z</time>
      </trkpt>
      <trkpt lat="41.47976009" lon="2.09352712">
        <ele>106.0</ele>
        <time>2021-03-03T10:10:38Z</time>
      </trkpt>
      <trkpt lat="41.47979141" lon="2.09350447">
        <ele>106.0</ele>
        <time>2021-03-03T10:10:39Z</time>
      </trkpt>
      <trkpt lat="41.47982407" lon="2.0934838">
        <ele>106.0</ele>
        <time>2021-03-03T10:10:40Z</time>
      </trkpt>
      <trkpt lat="41.47985674" lon="2.09346414">
        <ele>107.0</ele>
        <time>2021-03-03T10:10:41Z</time>
      </trkpt>
      <trkpt lat="41.4798894" lon="2.09344581">
        <ele>107.0</ele>
        <time>2021-03-03T10:10:42Z</time>
      </trkpt>
      <trkpt lat="41.47992206" lon="2.09342849">
        <ele>107.0</ele>
        <time>2021-03-03T10:10:43Z</time>
      </trkpt>
      <trkpt lat="41.47995506" lon="2.09341315">
        <ele>107.0</ele>
        <time>2021-03-03T10:10:44Z</time>
      </trkpt>
      <trkpt lat="41.47998806" lon="2.09339916">
        <ele>107.0</ele>
        <time>2021-03-03T10:10:45Z</time>
      </trkpt>
      <trkpt lat="41.48002173" lon="2.09338616">
        <ele>107.0</ele>
        <time>2021-03-03T10:10:46Z</time>
      </trkpt>
      <trkpt lat="41.48005638" lon="2.09337484">
        <ele>108.0</ele>
        <time>2021-03-03T10:10:47Z</time>
      </trkpt>
      <trkpt lat="41.48009171" lon="2.09336517">
        <ele>108.0</ele>
        <time>2021-03-03T10:10:48Z</time>
      </trkpt>
      <trkpt lat="41.48012771" lon="2.09335751">
        <ele>108.0</ele>
        <time>2021-03-03T10:10:49Z</time>
      </trkpt>
      <trkpt lat="41.48016371" lon="2.09335352">
        <ele>108.0</ele>
        <time>2021-03-03T10:10:50Z</time>
      </trkpt>
      <trkpt lat="41.48020103" lon="2.09335286">
        <ele>108.0</ele>
        <time>2021-03-03T10:10:51Z</time>
      </trkpt>
      <trkpt lat="41.48023802" lon="2.09335585">
        <ele>108.0</ele>
        <time>2021-03-03T10:10:52Z</time>
      </trkpt>
      <trkpt lat="41.48027602" lon="2.09336151">
        <ele>109.0</ele>
        <time>2021-03-03T10:10:53Z</time>
      </trkpt>
      <trkpt lat="41.48031368" lon="2.09337084">
        <ele>109.0</ele>
        <time>2021-03-03T10:10:54Z</time>
      </trkpt>
      <trkpt lat="41.48035067" lon="2.09338317">
        <ele>109.0</ele>
        <time>2021-03-03T10:10:55Z</time>
      </trkpt>
      <trkpt lat="41.48038733" lon="2.09339783">
        <ele>109.0</ele>
        <time>2021-03-03T10:10:56Z</time>
      </trkpt>
      <trkpt lat="41.48042432" lon="2.09341383">
        <ele>109.0</ele>
        <time>2021-03-03T10:10:57Z</time>
      </trkpt>
      <trkpt lat="41.48046332" lon="2.09342916">
        <ele>109.0</ele>
        <time>2021-03-03T10:10:58Z</time>
      </trkpt>
      <trkpt lat="41.48050231" lon="2.09344016">
        <ele>110.0</ele>
        <time>2021-03-03T10:10:59Z</time>
      </trkpt>
      <trkpt lat="41.48054231" lon="2.09344682">
        <ele>110.0</ele>
        <time>2021-03-03T10:11:00Z</time>
      </trkpt>
      <trkpt lat="41.48058264" lon="2.09344715">
        <ele>110.0</ele>
        <time>2021-03-03T10:11:01Z</time>
      </trkpt>
      <trkpt lat="41.48062263" lon="2.09344115">
        <ele>110.0</ele>
        <time>2021-03-03T10:11:02Z</time>
      </trkpt>
      <trkpt lat="41.48066195" lon="2.09342883">
        <ele>110.0</ele>
        <time>2021-03-03T10:11:03Z</time>
      </trkpt>
      <trkpt lat="41.48069927" lon="2.09340984">
        <ele>110.0</ele>
        <time>2021-03-03T10:11:04Z</time>
      </trkpt>
      <trkpt lat="41.48073461" lon="2.09338584">
        <ele>111.0</ele>
        <time>2021-03-03T10:11:05Z</time>
      </trkpt>
      <trkpt lat="41.48076794" lon="2.09335785">
        <ele>111.0</ele>
        <time>2021-03-03T10:11:06Z</time>
      </trkpt>
      <trkpt lat="41.48079993" lon="2.09332686">
        <ele>111.0</ele>
        <time>2021-03-03T10:11:07Z</time>
      </trkpt>
      <trkpt lat="41.48083026" lon="2.09329519">
        <ele>111.0</ele>
        <time>2021-03-03T10:11:08Z</time>
      </trkpt>
      <trkpt lat="41.4808606" lon="2.0932622">
        <ele>111.0</ele>
        <time>2021-03-03T10:11:09Z</time>
      </trkpt>
      <trkpt lat="41.48089059" lon="2.09322987">
        <ele>111.0</ele>
        <time>2021-03-03T10:11:10Z</time>
      </trkpt>
      <trkpt lat="41.48092025" lon="2.09319655">
        <ele>111.0</ele>
        <time>2021-03-03T10:11:11Z</time>
      </trkpt>
      <trkpt lat="41.48094924" lon="2.09316322">
        <ele>112.0</ele>
        <time>2021-03-03T10:11:12Z</time>
      </trkpt>
      <trkpt lat="41.48097824" lon="2.09312956">
        <ele>112.0</ele>
        <time>2021-03-03T10:11:13Z</time>
      </trkpt>
      <trkpt lat="41.48100623" lon="2.09309522">
        <ele>112.0</ele>
        <time>2021-03-03T10:11:14Z</time>
      </trkpt>
      <trkpt lat="41.4810339" lon="2.09306089">
        <ele>113.0</ele>
        <time>2021-03-03T10:11:15Z</time>
      </trkpt>
      <trkpt lat="41.48106123" lon="2.09302557">
        <ele>113.0</ele>
        <time>2021-03-03T10:11:16Z</time>
      </trkpt>
      <trkpt lat="41.48108857" lon="2.09299057">
        <ele>113.0</ele>
        <time>2021-03-03T10:11:17Z</time>
      </trkpt>
      <trkpt lat="41.48111589" lon="2.09295523">
        <ele>113.0</ele>
        <time>2021-03-03T10:11:18Z</time>
      </trkpt>
      <trkpt lat="41.48114389" lon="2.09292091">
        <ele>113.0</ele>
        <time>2021-03-03T10:11:19Z</time>
      </trkpt>
      <trkpt lat="41.48117189" lon="2.09288658">
        <ele>114.0</ele>
        <time>2021-03-03T10:11:20Z</time>
      </trkpt>
      <trkpt lat="41.48119922" lon="2.09285224">
        <ele>114.0</ele>
        <time>2021-03-03T10:11:21Z</time>
      </trkpt>
      <trkpt lat="41.48122722" lon="2.09281724">
        <ele>114.0</ele>
        <time>2021-03-03T10:11:22Z</time>
      </trkpt>
      <trkpt lat="41.48125456" lon="2.09278191">
        <ele>114.0</ele>
        <time>2021-03-03T10:11:23Z</time>
      </trkpt>
      <trkpt lat="41.48128288" lon="2.09274758">
        <ele>114.0</ele>
        <time>2021-03-03T10:11:24Z</time>
      </trkpt>
      <trkpt lat="41.4813122" lon="2.09271292">
        <ele>114.0</ele>
        <time>2021-03-03T10:11:25Z</time>
      </trkpt>
      <trkpt lat="41.4813412" lon="2.09267859">
        <ele>115.0</ele>
        <time>2021-03-03T10:11:26Z</time>
      </trkpt>
      <trkpt lat="41.48136986" lon="2.0926446">
        <ele>115.0</ele>
        <time>2021-03-03T10:11:27Z</time>
      </trkpt>
      <trkpt lat="41.48140085" lon="2.09260827">
        <ele>115.0</ele>
        <time>2021-03-03T10:11:28Z</time>
      </trkpt>
      <trkpt lat="41.48142851" lon="2.09257394">
        <ele>115.0</ele>
        <time>2021-03-03T10:11:29Z</time>
      </trkpt>
      <trkpt lat="41.48145817" lon="2.09253661">
        <ele>115.0</ele>
        <time>2021-03-03T10:11:30Z</time>
      </trkpt>
      <trkpt lat="41.48148851" lon="2.09249994">
        <ele>115.0</ele>
        <time>2021-03-03T10:11:31Z</time>
      </trkpt>
      <trkpt lat="41.48151917" lon="2.09246295">
        <ele>115.0</ele>
        <time>2021-03-03T10:11:32Z</time>
      </trkpt>
      <trkpt lat="41.4815505" lon="2.09242595">
        <ele>116.0</ele>
        <time>2021-03-03T10:11:33Z</time>
      </trkpt>
      <trkpt lat="41.48158149" lon="2.09238862">
        <ele>116.0</ele>
        <time>2021-03-03T10:11:34Z</time>
      </trkpt>
      <trkpt lat="41.48161182" lon="2.09234963">
        <ele>116.0</ele>
        <time>2021-03-03T10:11:35Z</time>
      </trkpt>
      <trkpt lat="41.48164148" lon="2.09230829">
        <ele>116.0</ele>
        <time>2021-03-03T10:11:36Z</time>
      </trkpt>
      <trkpt lat="41.48167013" lon="2.0922653">
        <ele>116.0</ele>
        <time>2021-03-03T10:11:37Z</time>
      </trkpt>
      <trkpt lat="41.48169613" lon="2.09222264">
        <ele>116.0</ele>
        <time>2021-03-03T10:11:38Z</time>
      </trkpt>
      <trkpt lat="41.48172147" lon="2.09217297">
        <ele>116.0</ele>
        <time>2021-03-03T10:11:39Z</time>
      </trkpt>
      <trkpt lat="41.48174312" lon="2.09212065">
        <ele>116.0</ele>
        <time>2021-03-03T10:11:40Z</time>
      </trkpt>
      <trkpt lat="41.48176045" lon="2.09206599">
        <ele>116.0</ele>
        <time>2021-03-03T10:11:41Z</time>
      </trkpt>
      <trkpt lat="41.48177245" lon="2.092009">
        <ele>116.0</ele>
        <time>2021-03-03T10:11:42Z</time>
      </trkpt>
      <trkpt lat="41.48177744" lon="2.09195067">
        <ele>116.0</ele>
        <time>2021-03-03T10:11:43Z</time>
      </trkpt>
      <trkpt lat="41.48177445" lon="2.09189268">
        <ele>116.0</ele>
        <time>2021-03-03T10:11:44Z</time>
      </trkpt>
      <trkpt lat="41.48176446" lon="2.09183734">
        <ele>116.0</ele>
        <time>2021-03-03T10:11:45Z</time>
      </trkpt>
      <trkpt lat="41.48174912" lon="2.09178735">
        <ele>116.0</ele>
        <time>2021-03-03T10:11:45Z</time>
      </trkpt>
      <trkpt lat="41.48172513" lon="2.09173736">
        <ele>116.0</ele>
        <time>2021-03-03T10:11:46Z</time>
      </trkpt>
      <trkpt lat="41.4816928" lon="2.09168971">
        <ele>116.0</ele>
        <time>2021-03-03T10:11:47Z</time>
      </trkpt>
      <trkpt lat="41.48165613" lon="2.09164171">
        <ele>116.0</ele>
        <time>2021-03-03T10:11:48Z</time>
      </trkpt>
      <trkpt lat="41.4816198" lon="2.09159104">
        <ele>116.0</ele>
        <time>2021-03-03T10:11:49Z</time>
      </trkpt>
      <trkpt lat="41.48158748" lon="2.09152838">
        <ele>116.0</ele>
        <time>2021-03-03T10:11:50Z</time>
      </trkpt>
      <trkpt lat="41.48156614" lon="2.09146606">
        <ele>116.0</ele>
        <time>2021-03-03T10:11:51Z</time>
      </trkpt>
      <trkpt lat="41.48155482" lon="2.09140406">
        <ele>116.0</ele>
        <time>2021-03-03T10:11:52Z</time>
      </trkpt>
      <trkpt lat="41.4815545" lon="2.09133773">
        <ele>116.0</ele>
        <time>2021-03-03T10:11:53Z</time>
      </trkpt>
      <trkpt lat="41.48156416" lon="2.0912704">
        <ele>116.0</ele>
        <time>2021-03-03T10:11:54Z</time>
      </trkpt>
      <trkpt lat="41.48158215" lon="2.0912024">
        <ele>116.0</ele>
        <time>2021-03-03T10:11:55Z</time>
      </trkpt>
      <trkpt lat="41.48160582" lon="2.09113441">
        <ele>116.0</ele>
        <time>2021-03-03T10:11:56Z</time>
      </trkpt>
      <trkpt lat="41.48163414" lon="2.09106741">
        <ele>116.0</ele>
        <time>2021-03-03T10:11:57Z</time>
      </trkpt>
      <trkpt lat="41.48166513" lon="2.09100008">
        <ele>116.0</ele>
        <time>2021-03-03T10:11:58Z</time>
      </trkpt>
      <trkpt lat="41.48169379" lon="2.09093075">
        <ele>116.0</ele>
        <time>2021-03-03T10:11:59Z</time>
      </trkpt>
      <trkpt lat="41.48172378" lon="2.09086176">
        <ele>116.0</ele>
        <time>2021-03-03T10:12:00Z</time>
      </trkpt>
      <trkpt lat="41.48175778" lon="2.09078842">
        <ele>116.0</ele>
        <time>2021-03-03T10:12:01Z</time>
      </trkpt>
      <trkpt lat="41.48179544" lon="2.09071043">
        <ele>116.0</ele>
        <time>2021-03-03T10:12:02Z</time>
      </trkpt>
      <trkpt lat="41.4818311" lon="2.0906321">
        <ele>116.0</ele>
        <time>2021-03-03T10:12:03Z</time>
      </trkpt>
      <trkpt lat="41.48186209" lon="2.09055411">
        <ele>116.0</ele>
        <time>2021-03-03T10:12:04Z</time>
      </trkpt>
      <trkpt lat="41.48189043" lon="2.09047611">
        <ele>115.0</ele>
        <time>2021-03-03T10:12:05Z</time>
      </trkpt>
      <trkpt lat="41.48191675" lon="2.09040479">
        <ele>115.0</ele>
        <time>2021-03-03T10:12:06Z</time>
      </trkpt>
      <trkpt lat="41.48194375" lon="2.09033612">
        <ele>115.0</ele>
        <time>2021-03-03T10:12:07Z</time>
      </trkpt>
      <trkpt lat="41.48197607" lon="2.0902528">
        <ele>115.0</ele>
        <time>2021-03-03T10:12:08Z</time>
      </trkpt>
      <trkpt lat="41.48200807" lon="2.09016946">
        <ele>115.0</ele>
        <time>2021-03-03T10:12:09Z</time>
      </trkpt>
      <trkpt lat="41.4820374" lon="2.09009147">
        <ele>115.0</ele>
        <time>2021-03-03T10:12:10Z</time>
      </trkpt>
      <trkpt lat="41.4820674" lon="2.09000648">
        <ele>114.0</ele>
        <time>2021-03-03T10:12:11Z</time>
      </trkpt>
      <trkpt lat="41.48209639" lon="2.08992148">
        <ele>114.0</ele>
        <time>2021-03-03T10:12:12Z</time>
      </trkpt>
      <trkpt lat="41.48212405" lon="2.08983616">
        <ele>114.0</ele>
        <time>2021-03-03T10:12:13Z</time>
      </trkpt>
      <trkpt lat="41.48215138" lon="2.08975083">
        <ele>114.0</ele>
        <time>2021-03-03T10:12:14Z</time>
      </trkpt>
      <trkpt lat="41.4821767" lon="2.08966549">
        <ele>114.0</ele>
        <time>2021-03-03T10:12:15Z</time>
      </trkpt>
      <trkpt lat="41.48220137" lon="2.0895805">
        <ele>113.0</ele>
        <time>2021-03-03T10:12:16Z</time>
      </trkpt>
      <trkpt lat="41.48222469" lon="2.08949584">
        <ele>113.0</ele>
        <time>2021-03-03T10:12:17Z</time>
      </trkpt>
      <trkpt lat="41.48224735" lon="2.08941751">
        <ele>113.0</ele>
        <time>2021-03-03T10:12:18Z</time>
      </trkpt>
      <trkpt lat="41.48227201" lon="2.08933319">
        <ele>113.0</ele>
        <time>2021-03-03T10:12:19Z</time>
      </trkpt>
      <trkpt lat="41.48229668" lon="2.08925086">
        <ele>113.0</ele>
        <time>2021-03-03T10:12:20Z</time>
      </trkpt>
      <trkpt lat="41.48231868" lon="2.0891742">
        <ele>113.0</ele>
        <time>2021-03-03T10:12:21Z</time>
      </trkpt>
      <trkpt lat="41.48234" lon="2.08909487">
        <ele>113.0</ele>
        <time>2021-03-03T10:12:22Z</time>
      </trkpt>
      <trkpt lat="41.48236034" lon="2.0890142">
        <ele>113.0</ele>
        <time>2021-03-03T10:12:23Z</time>
      </trkpt>
      <trkpt lat="41.48238133" lon="2.08893488">
        <ele>113.0</ele>
        <time>2021-03-03T10:12:24Z</time>
      </trkpt>
      <trkpt lat="41.48240233" lon="2.08885554">
        <ele>113.0</ele>
        <time>2021-03-03T10:12:25Z</time>
      </trkpt>
      <trkpt lat="41.48242365" lon="2.08877154">
        <ele>113.0</ele>
        <time>2021-03-03T10:12:26Z</time>
      </trkpt>
      <trkpt lat="41.48244332" lon="2.08869022">
        <ele>112.0</ele>
        <time>2021-03-03T10:12:27Z</time>
      </trkpt>
      <trkpt lat="41.48246165" lon="2.08861523">
        <ele>112.0</ele>
        <time>2021-03-03T10:12:28Z</time>
      </trkpt>
      <trkpt lat="41.48247964" lon="2.08853656">
        <ele>112.0</ele>
        <time>2021-03-03T10:12:29Z</time>
      </trkpt>
      <trkpt lat="41.4824973" lon="2.08846024">
        <ele>112.0</ele>
        <time>2021-03-03T10:12:30Z</time>
      </trkpt>
      <trkpt lat="41.4825133" lon="2.08839091">
        <ele>112.0</ele>
        <time>2021-03-03T10:12:31Z</time>
      </trkpt>
      <trkpt lat="41.4825293" lon="2.08831691">
        <ele>112.0</ele>
        <time>2021-03-03T10:12:32Z</time>
      </trkpt>
      <trkpt lat="41.48254429" lon="2.08824492">
        <ele>112.0</ele>
        <time>2021-03-03T10:12:33Z</time>
      </trkpt>
      <trkpt lat="41.48255829" lon="2.08817893">
        <ele>112.0</ele>
        <time>2021-03-03T10:12:34Z</time>
      </trkpt>
      <trkpt lat="41.48257229" lon="2.08811326">
        <ele>112.0</ele>
        <time>2021-03-03T10:12:35Z</time>
      </trkpt>
      <trkpt lat="41.48258629" lon="2.08804826">
        <ele>112.0</ele>
        <time>2021-03-03T10:12:36Z</time>
      </trkpt>
      <trkpt lat="41.48260094" lon="2.0879836">
        <ele>112.0</ele>
        <time>2021-03-03T10:12:37Z</time>
      </trkpt>
      <trkpt lat="41.48261494" lon="2.08791861">
        <ele>113.0</ele>
        <time>2021-03-03T10:12:38Z</time>
      </trkpt>
      <trkpt lat="41.48262927" lon="2.08785428">
        <ele>113.0</ele>
        <time>2021-03-03T10:12:39Z</time>
      </trkpt>
      <trkpt lat="41.48264327" lon="2.08778996">
        <ele>113.0</ele>
        <time>2021-03-03T10:12:40Z</time>
      </trkpt>
      <trkpt lat="41.48265727" lon="2.08772697">
        <ele>113.0</ele>
        <time>2021-03-03T10:12:41Z</time>
      </trkpt>
      <trkpt lat="41.48267027" lon="2.08766363">
        <ele>113.0</ele>
        <time>2021-03-03T10:12:42Z</time>
      </trkpt>
      <trkpt lat="41.48268459" lon="2.08759764">
        <ele>113.0</ele>
        <time>2021-03-03T10:12:43Z</time>
      </trkpt>
      <trkpt lat="41.48269725" lon="2.08753731">
        <ele>114.0</ele>
        <time>2021-03-03T10:12:44Z</time>
      </trkpt>
      <trkpt lat="41.48271091" lon="2.08747765">
        <ele>114.0</ele>
        <time>2021-03-03T10:12:45Z</time>
      </trkpt>
      <trkpt lat="41.48272491" lon="2.08741799">
        <ele>114.0</ele>
        <time>2021-03-03T10:12:46Z</time>
      </trkpt>
      <trkpt lat="41.48273758" lon="2.087358">
        <ele>115.0</ele>
        <time>2021-03-03T10:12:47Z</time>
      </trkpt>
      <trkpt lat="41.48274957" lon="2.08729933">
        <ele>115.0</ele>
        <time>2021-03-03T10:12:48Z</time>
      </trkpt>
      <trkpt lat="41.48276189" lon="2.08724133">
        <ele>115.0</ele>
        <time>2021-03-03T10:12:49Z</time>
      </trkpt>
      <trkpt lat="41.48277456" lon="2.08718401">
        <ele>115.0</ele>
        <time>2021-03-03T10:12:50Z</time>
      </trkpt>
      <trkpt lat="41.48278622" lon="2.08712667">
        <ele>115.0</ele>
        <time>2021-03-03T10:12:51Z</time>
      </trkpt>
      <trkpt lat="41.48279754" lon="2.08706902">
        <ele>115.0</ele>
        <time>2021-03-03T10:12:52Z</time>
      </trkpt>
      <trkpt lat="41.48280886" lon="2.08701102">
        <ele>115.0</ele>
        <time>2021-03-03T10:12:53Z</time>
      </trkpt>
      <trkpt lat="41.48281953" lon="2.08695302">
        <ele>115.0</ele>
        <time>2021-03-03T10:12:54Z</time>
      </trkpt>
      <trkpt lat="41.48282986" lon="2.08689403">
        <ele>115.0</ele>
        <time>2021-03-03T10:12:55Z</time>
      </trkpt>
      <trkpt lat="41.48283985" lon="2.08683504">
        <ele>115.0</ele>
        <time>2021-03-03T10:12:56Z</time>
      </trkpt>
      <trkpt lat="41.48284884" lon="2.08677505">
        <ele>116.0</ele>
        <time>2021-03-03T10:12:57Z</time>
      </trkpt>
      <trkpt lat="41.48285684" lon="2.08671571">
        <ele>116.0</ele>
        <time>2021-03-03T10:12:58Z</time>
      </trkpt>
      <trkpt lat="41.48286451" lon="2.08665606">
        <ele>116.0</ele>
        <time>2021-03-03T10:12:59Z</time>
      </trkpt>
      <trkpt lat="41.48287184" lon="2.0865954">
        <ele>117.0</ele>
        <time>2021-03-03T10:13:00Z</time>
      </trkpt>
      <trkpt lat="41.48287783" lon="2.08653407">
        <ele>117.0</ele>
        <time>2021-03-03T10:13:01Z</time>
      </trkpt>
      <trkpt lat="41.48288249" lon="2.08647274">
        <ele>117.0</ele>
        <time>2021-03-03T10:13:02Z</time>
      </trkpt>
      <trkpt lat="41.48288516" lon="2.08641708">
        <ele>117.0</ele>
        <time>2021-03-03T10:13:03Z</time>
      </trkpt>
      <trkpt lat="41.48288616" lon="2.08636009">
        <ele>117.0</ele>
        <time>2021-03-03T10:13:04Z</time>
      </trkpt>
      <trkpt lat="41.48288715" lon="2.08629742">
        <ele>117.0</ele>
        <time>2021-03-03T10:13:05Z</time>
      </trkpt>
      <trkpt lat="41.48288747" lon="2.08623243">
        <ele>118.0</ele>
        <time>2021-03-03T10:13:06Z</time>
      </trkpt>
      <trkpt lat="41.48288779" lon="2.08617544">
        <ele>118.0</ele>
        <time>2021-03-03T10:13:07Z</time>
      </trkpt>
      <trkpt lat="41.48288747" lon="2.08612044">
        <ele>118.0</ele>
        <time>2021-03-03T10:13:08Z</time>
      </trkpt>
      <trkpt lat="41.48288615" lon="2.08606477">
        <ele>118.0</ele>
        <time>2021-03-03T10:13:09Z</time>
      </trkpt>
      <trkpt lat="41.48288647" lon="2.08600878">
        <ele>119.0</ele>
        <time>2021-03-03T10:13:10Z</time>
      </trkpt>
      <trkpt lat="41.48288846" lon="2.08595579">
        <ele>119.0</ele>
        <time>2021-03-03T10:13:11Z</time>
      </trkpt>
      <trkpt lat="41.48289346" lon="2.08590647">
        <ele>119.0</ele>
        <time>2021-03-03T10:13:12Z</time>
      </trkpt>
      <trkpt lat="41.48290478" lon="2.08586081">
        <ele>119.0</ele>
        <time>2021-03-03T10:13:13Z</time>
      </trkpt>
      <trkpt lat="41.48292345" lon="2.08582148">
        <ele>119.0</ele>
        <time>2021-03-03T10:13:14Z</time>
      </trkpt>
      <trkpt lat="41.48294812" lon="2.08578282">
        <ele>120.0</ele>
        <time>2021-03-03T10:13:15Z</time>
      </trkpt>
      <trkpt lat="41.48297411" lon="2.08574183">
        <ele>120.0</ele>
        <time>2021-03-03T10:13:16Z</time>
      </trkpt>
      <trkpt lat="41.48299776" lon="2.08569551">
        <ele>120.0</ele>
        <time>2021-03-03T10:13:17Z</time>
      </trkpt>
      <trkpt lat="41.48301509" lon="2.08564418">
        <ele>120.0</ele>
        <time>2021-03-03T10:13:18Z</time>
      </trkpt>
      <trkpt lat="41.48302342" lon="2.08559052">
        <ele>120.0</ele>
        <time>2021-03-03T10:13:19Z</time>
      </trkpt>
      <trkpt lat="41.48302442" lon="2.08553986">
        <ele>120.0</ele>
        <time>2021-03-03T10:13:20Z</time>
      </trkpt>
      <trkpt lat="41.48301775" lon="2.0854882">
        <ele>120.0</ele>
        <time>2021-03-03T10:13:21Z</time>
      </trkpt>
      <trkpt lat="41.4830061" lon="2.08543586">
        <ele>120.0</ele>
        <time>2021-03-03T10:13:22Z</time>
      </trkpt>
      <trkpt lat="41.48298811" lon="2.08538054">
        <ele>120.0</ele>
        <time>2021-03-03T10:13:23Z</time>
      </trkpt>
      <trkpt lat="41.48296812" lon="2.08532721">
        <ele>121.0</ele>
        <time>2021-03-03T10:13:24Z</time>
      </trkpt>
      <trkpt lat="41.48294645" lon="2.08527488">
        <ele>121.0</ele>
        <time>2021-03-03T10:13:25Z</time>
      </trkpt>
      <trkpt lat="41.48292379" lon="2.08522322">
        <ele>121.0</ele>
        <time>2021-03-03T10:13:26Z</time>
      </trkpt>
      <trkpt lat="41.4829008" lon="2.08517256">
        <ele>121.0</ele>
        <time>2021-03-03T10:13:27Z</time>
      </trkpt>
      <trkpt lat="41.48287747" lon="2.0851239">
        <ele>121.0</ele>
        <time>2021-03-03T10:13:28Z</time>
      </trkpt>
      <trkpt lat="41.48285381" lon="2.08507757">
        <ele>121.0</ele>
        <time>2021-03-03T10:13:29Z</time>
      </trkpt>
      <trkpt lat="41.48283148" lon="2.08503391">
        <ele>121.0</ele>
        <time>2021-03-03T10:13:30Z</time>
      </trkpt>
      <trkpt lat="41.48280715" lon="2.08499025">
        <ele>121.0</ele>
        <time>2021-03-03T10:13:31Z</time>
      </trkpt>
      <trkpt lat="41.48278016" lon="2.08494225">
        <ele>121.0</ele>
        <time>2021-03-03T10:13:32Z</time>
      </trkpt>
      <trkpt lat="41.48275282" lon="2.08489492">
        <ele>122.0</ele>
        <time>2021-03-03T10:13:33Z</time>
      </trkpt>
      <trkpt lat="41.48272583" lon="2.08484759">
        <ele>122.0</ele>
        <time>2021-03-03T10:13:34Z</time>
      </trkpt>
      <trkpt lat="41.4826995" lon="2.08480227">
        <ele>122.0</ele>
        <time>2021-03-03T10:13:35Z</time>
      </trkpt>
      <trkpt lat="41.48267284" lon="2.0847596">
        <ele>122.0</ele>
        <time>2021-03-03T10:13:36Z</time>
      </trkpt>
      <trkpt lat="41.48264584" lon="2.08471793">
        <ele>122.0</ele>
        <time>2021-03-03T10:13:37Z</time>
      </trkpt>
      <trkpt lat="41.48262118" lon="2.08467961">
        <ele>122.0</ele>
        <time>2021-03-03T10:13:38Z</time>
      </trkpt>
      <trkpt lat="41.48259519" lon="2.08463961">
        <ele>123.0</ele>
        <time>2021-03-03T10:13:39Z</time>
      </trkpt>
      <trkpt lat="41.48256786" lon="2.08459562">
        <ele>123.0</ele>
        <time>2021-03-03T10:13:40Z</time>
      </trkpt>
      <trkpt lat="41.48254186" lon="2.0845513">
        <ele>123.0</ele>
        <time>2021-03-03T10:13:41Z</time>
      </trkpt>
      <trkpt lat="41.48251787" lon="2.08450796">
        <ele>123.0</ele>
        <time>2021-03-03T10:13:42Z</time>
      </trkpt>
      <trkpt lat="41.48249621" lon="2.08446431">
        <ele>123.0</ele>
        <time>2021-03-03T10:13:43Z</time>
      </trkpt>
      <trkpt lat="41.48247421" lon="2.08441865">
        <ele>123.0</ele>
        <time>2021-03-03T10:13:44Z</time>
      </trkpt>
      <trkpt lat="41.48245322" lon="2.08437399">
        <ele>124.0</ele>
        <time>2021-03-03T10:13:45Z</time>
      </trkpt>
      <trkpt lat="41.48242888" lon="2.08432166">
        <ele>124.0</ele>
        <time>2021-03-03T10:13:46Z</time>
      </trkpt>
      <trkpt lat="41.48240623" lon="2.08427334">
        <ele>124.0</ele>
        <time>2021-03-03T10:13:47Z</time>
      </trkpt>
      <trkpt lat="41.48238423" lon="2.08422667">
        <ele>124.0</ele>
        <time>2021-03-03T10:13:48Z</time>
      </trkpt>
      <trkpt lat="41.48236057" lon="2.08417835">
        <ele>124.0</ele>
        <time>2021-03-03T10:13:49Z</time>
      </trkpt>
      <trkpt lat="41.48233824" lon="2.08413468">
        <ele>124.0</ele>
        <time>2021-03-03T10:13:50Z</time>
      </trkpt>
      <trkpt lat="41.48231657" lon="2.08409201">
        <ele>124.0</ele>
        <time>2021-03-03T10:13:51Z</time>
      </trkpt>
      <trkpt lat="41.48229525" lon="2.08404836">
        <ele>125.0</ele>
        <time>2021-03-03T10:13:52Z</time>
      </trkpt>
      <trkpt lat="41.48227391" lon="2.08400402">
        <ele>125.0</ele>
        <time>2021-03-03T10:13:53Z</time>
      </trkpt>
      <trkpt lat="41.48225225" lon="2.08395902">
        <ele>125.0</ele>
        <time>2021-03-03T10:13:54Z</time>
      </trkpt>
      <trkpt lat="41.48222959" lon="2.0839137">
        <ele>125.0</ele>
        <time>2021-03-03T10:13:55Z</time>
      </trkpt>
      <trkpt lat="41.48220693" lon="2.08386804">
        <ele>125.0</ele>
        <time>2021-03-03T10:13:56Z</time>
      </trkpt>
      <trkpt lat="41.48218361" lon="2.08382138">
        <ele>125.0</ele>
        <time>2021-03-03T10:13:57Z</time>
      </trkpt>
      <trkpt lat="41.48216029" lon="2.08377472">
        <ele>125.0</ele>
        <time>2021-03-03T10:13:58Z</time>
      </trkpt>
      <trkpt lat="41.48213662" lon="2.08372805">
        <ele>125.0</ele>
        <time>2021-03-03T10:13:59Z</time>
      </trkpt>
      <trkpt lat="41.48211396" lon="2.08368106">
        <ele>126.0</ele>
        <time>2021-03-03T10:14:00Z</time>
      </trkpt>
      <trkpt lat="41.48209097" lon="2.08363406">
        <ele>126.0</ele>
        <time>2021-03-03T10:14:01Z</time>
      </trkpt>
      <trkpt lat="41.48206832" lon="2.08358774">
        <ele>126.0</ele>
        <time>2021-03-03T10:14:02Z</time>
      </trkpt>
      <trkpt lat="41.48204665" lon="2.08354208">
        <ele>126.0</ele>
        <time>2021-03-03T10:14:03Z</time>
      </trkpt>
      <trkpt lat="41.48202566" lon="2.08349709">
        <ele>126.0</ele>
        <time>2021-03-03T10:14:04Z</time>
      </trkpt>
      <trkpt lat="41.48200599" lon="2.08345176">
        <ele>126.0</ele>
        <time>2021-03-03T10:14:05Z</time>
      </trkpt>
      <trkpt lat="41.48198666" lon="2.08340843">
        <ele>126.0</ele>
        <time>2021-03-03T10:14:06Z</time>
      </trkpt>
      <trkpt lat="41.48196833" lon="2.0833671">
        <ele>126.0</ele>
        <time>2021-03-03T10:14:07Z</time>
      </trkpt>
      <trkpt lat="41.48194934" lon="2.08332777">
        <ele>127.0</ele>
        <time>2021-03-03T10:14:08Z</time>
      </trkpt>
      <trkpt lat="41.481931" lon="2.08329011">
        <ele>127.0</ele>
        <time>2021-03-03T10:14:09Z</time>
      </trkpt>
      <trkpt lat="41.48191335" lon="2.08325311">
        <ele>127.0</ele>
        <time>2021-03-03T10:14:10Z</time>
      </trkpt>
      <trkpt lat="41.48189501" lon="2.08321546">
        <ele>127.0</ele>
        <time>2021-03-03T10:14:11Z</time>
      </trkpt>
      <trkpt lat="41.48187536" lon="2.0831768">
        <ele>127.0</ele>
        <time>2021-03-03T10:14:12Z</time>
      </trkpt>
      <trkpt lat="41.48185537" lon="2.0831348">
        <ele>127.0</ele>
        <time>2021-03-03T10:14:13Z</time>
      </trkpt>
      <trkpt lat="41.48183337" lon="2.08308948">
        <ele>127.0</ele>
        <time>2021-03-03T10:14:14Z</time>
      </trkpt>
      <trkpt lat="41.48181004" lon="2.08304082">
        <ele>127.0</ele>
        <time>2021-03-03T10:14:15Z</time>
      </trkpt>
      <trkpt lat="41.48178571" lon="2.08298982">
        <ele>127.0</ele>
        <time>2021-03-03T10:14:16Z</time>
      </trkpt>
      <trkpt lat="41.48176039" lon="2.08293715">
        <ele>127.0</ele>
        <time>2021-03-03T10:14:17Z</time>
      </trkpt>
      <trkpt lat="41.48173473" lon="2.08288215">
        <ele>127.0</ele>
        <time>2021-03-03T10:14:18Z</time>
      </trkpt>
      <trkpt lat="41.48170841" lon="2.08282483">
        <ele>127.0</ele>
        <time>2021-03-03T10:14:19Z</time>
      </trkpt>
      <trkpt lat="41.48168074" lon="2.08276683">
        <ele>127.0</ele>
        <time>2021-03-03T10:14:20Z</time>
      </trkpt>
      <trkpt lat="41.48165208" lon="2.08270816">
        <ele>127.0</ele>
        <time>2021-03-03T10:14:21Z</time>
      </trkpt>
      <trkpt lat="41.48162343" lon="2.0826485">
        <ele>127.0</ele>
        <time>2021-03-03T10:14:22Z</time>
      </trkpt>
      <trkpt lat="41.48159409" lon="2.08258751">
        <ele>127.0</ele>
        <time>2021-03-03T10:14:23Z</time>
      </trkpt>
      <trkpt lat="41.48156444" lon="2.08252584">
        <ele>128.0</ele>
        <time>2021-03-03T10:14:24Z</time>
      </trkpt>
      <trkpt lat="41.4815341" lon="2.08246251">
        <ele>128.0</ele>
        <time>2021-03-03T10:14:25Z</time>
      </trkpt>
      <trkpt lat="41.4815041" lon="2.08239917">
        <ele>128.0</ele>
        <time>2021-03-03T10:14:26Z</time>
      </trkpt>
      <trkpt lat="41.48147078" lon="2.08233151">
        <ele>128.0</ele>
        <time>2021-03-03T10:14:27Z</time>
      </trkpt>
      <trkpt lat="41.48143845" lon="2.08226517">
        <ele>128.0</ele>
        <time>2021-03-03T10:14:28Z</time>
      </trkpt>
      <trkpt lat="41.48140845" lon="2.08220385">
        <ele>128.0</ele>
        <time>2021-03-03T10:14:29Z</time>
      </trkpt>
      <trkpt lat="41.48137646" lon="2.08213786">
        <ele>128.0</ele>
        <time>2021-03-03T10:14:30Z</time>
      </trkpt>
      <trkpt lat="41.48134513" lon="2.0820732">
        <ele>128.0</ele>
        <time>2021-03-03T10:14:31Z</time>
      </trkpt>
      <trkpt lat="41.48131447" lon="2.0820092">
        <ele>128.0</ele>
        <time>2021-03-03T10:14:32Z</time>
      </trkpt>
      <trkpt lat="41.4812838" lon="2.0819452">
        <ele>128.0</ele>
        <time>2021-03-03T10:14:33Z</time>
      </trkpt>
      <trkpt lat="41.48125214" lon="2.08188088">
        <ele>128.0</ele>
        <time>2021-03-03T10:14:34Z</time>
      </trkpt>
      <trkpt lat="41.48122281" lon="2.08182021">
        <ele>128.0</ele>
        <time>2021-03-03T10:14:35Z</time>
      </trkpt>
      <trkpt lat="41.48119082" lon="2.08175389">
        <ele>128.0</ele>
        <time>2021-03-03T10:14:36Z</time>
      </trkpt>
      <trkpt lat="41.48115916" lon="2.08168789">
        <ele>128.0</ele>
        <time>2021-03-03T10:14:37Z</time>
      </trkpt>
      <trkpt lat="41.48112751" lon="2.08162323">
        <ele>128.0</ele>
        <time>2021-03-03T10:14:38Z</time>
      </trkpt>
      <trkpt lat="41.48109617" lon="2.08155924">
        <ele>128.0</ele>
        <time>2021-03-03T10:14:39Z</time>
      </trkpt>
      <trkpt lat="41.48106551" lon="2.08149692">
        <ele>128.0</ele>
        <time>2021-03-03T10:14:40Z</time>
      </trkpt>
      <trkpt lat="41.48103385" lon="2.08143725">
        <ele>128.0</ele>
        <time>2021-03-03T10:14:41Z</time>
      </trkpt>
      <trkpt lat="41.48100318" lon="2.0813766">
        <ele>128.0</ele>
        <time>2021-03-03T10:14:42Z</time>
      </trkpt>
      <trkpt lat="41.48097353" lon="2.08131594">
        <ele>128.0</ele>
        <time>2021-03-03T10:14:43Z</time>
      </trkpt>
      <trkpt lat="41.48094453" lon="2.08125527">
        <ele>128.0</ele>
        <time>2021-03-03T10:14:44Z</time>
      </trkpt>
      <trkpt lat="41.48082754" lon="2.08100961">
        <ele>128.0</ele>
        <time>2021-03-03T10:14:46Z</time>
      </trkpt>
      <trkpt lat="41.48081987" lon="2.08099395">
        <ele>128.0</ele>
        <time>2021-03-03T10:14:47Z</time>
      </trkpt>
      <trkpt lat="41.48080488" lon="2.08096162">
        <ele>128.0</ele>
        <time>2021-03-03T10:14:48Z</time>
      </trkpt>
      <trkpt lat="41.48078456" lon="2.08091763">
        <ele>128.0</ele>
        <time>2021-03-03T10:14:49Z</time>
      </trkpt>
      <trkpt lat="41.48076156" lon="2.08086429">
        <ele>128.0</ele>
        <time>2021-03-03T10:14:50Z</time>
      </trkpt>
      <trkpt lat="41.48074057" lon="2.08080496">
        <ele>128.0</ele>
        <time>2021-03-03T10:14:51Z</time>
      </trkpt>
      <trkpt lat="41.48072291" lon="2.0807423">
        <ele>128.0</ele>
        <time>2021-03-03T10:14:52Z</time>
      </trkpt>
      <trkpt lat="41.48070891" lon="2.08067664">
        <ele>128.0</ele>
        <time>2021-03-03T10:14:53Z</time>
      </trkpt>
      <trkpt lat="41.48069992" lon="2.08060664">
        <ele>128.0</ele>
        <time>2021-03-03T10:14:54Z</time>
      </trkpt>
      <trkpt lat="41.48069559" lon="2.08053931">
        <ele>128.0</ele>
        <time>2021-03-03T10:14:55Z</time>
      </trkpt>
      <trkpt lat="41.48069858" lon="2.08046431">
        <ele>128.0</ele>
        <time>2021-03-03T10:14:56Z</time>
      </trkpt>
      <trkpt lat="41.48070291" lon="2.08039566">
        <ele>128.0</ele>
        <time>2021-03-03T10:14:57Z</time>
      </trkpt>
      <trkpt lat="41.48070824" lon="2.08032033">
        <ele>128.0</ele>
        <time>2021-03-03T10:14:58Z</time>
      </trkpt>
      <trkpt lat="41.48070957" lon="2.08024633">
        <ele>129.0</ele>
        <time>2021-03-03T10:14:59Z</time>
      </trkpt>
      <trkpt lat="41.48070524" lon="2.080174">
        <ele>129.0</ele>
        <time>2021-03-03T10:15:00Z</time>
      </trkpt>
      <trkpt lat="41.48069391" lon="2.08010501">
        <ele>129.0</ele>
        <time>2021-03-03T10:15:01Z</time>
      </trkpt>
      <trkpt lat="41.48067525" lon="2.08003801">
        <ele>129.0</ele>
        <time>2021-03-03T10:15:02Z</time>
      </trkpt>
      <trkpt lat="41.48064859" lon="2.07997401">
        <ele>129.0</ele>
        <time>2021-03-03T10:15:03Z</time>
      </trkpt>
      <trkpt lat="41.48061492" lon="2.07991468">
        <ele>129.0</ele>
        <time>2021-03-03T10:15:04Z</time>
      </trkpt>
      <trkpt lat="41.48057193" lon="2.07986201">
        <ele>129.0</ele>
        <time>2021-03-03T10:15:05Z</time>
      </trkpt>
      <trkpt lat="41.48052394" lon="2.07981802">
        <ele>129.0</ele>
        <time>2021-03-03T10:15:06Z</time>
      </trkpt>
      <trkpt lat="41.48047161" lon="2.07978636">
        <ele>129.0</ele>
        <time>2021-03-03T10:15:07Z</time>
      </trkpt>
      <trkpt lat="41.48041562" lon="2.07976936">
        <ele>129.0</ele>
        <time>2021-03-03T10:15:08Z</time>
      </trkpt>
      <trkpt lat="41.48035762" lon="2.07976671">
        <ele>129.0</ele>
        <time>2021-03-03T10:15:09Z</time>
      </trkpt>
      <trkpt lat="41.48029928" lon="2.07977536">
        <ele>129.0</ele>
        <time>2021-03-03T10:15:10Z</time>
      </trkpt>
      <trkpt lat="41.48023963" lon="2.07978936">
        <ele>129.0</ele>
        <time>2021-03-03T10:15:11Z</time>
      </trkpt>
      <trkpt lat="41.4801803" lon="2.07980069">
        <ele>129.0</ele>
        <time>2021-03-03T10:15:12Z</time>
      </trkpt>
      <trkpt lat="41.48012598" lon="2.07980368">
        <ele>129.0</ele>
        <time>2021-03-03T10:15:13Z</time>
      </trkpt>
      <trkpt lat="41.48007232" lon="2.07979402">
        <ele>129.0</ele>
        <time>2021-03-03T10:15:14Z</time>
      </trkpt>
      <trkpt lat="41.48001732" lon="2.07976869">
        <ele>129.0</ele>
        <time>2021-03-03T10:15:15Z</time>
      </trkpt>
      <trkpt lat="41.47996367" lon="2.07973236">
        <ele>129.0</ele>
        <time>2021-03-03T10:15:16Z</time>
      </trkpt>
      <trkpt lat="41.479911" lon="2.07968703">
        <ele>129.0</ele>
        <time>2021-03-03T10:15:17Z</time>
      </trkpt>
      <trkpt lat="41.47985734" lon="2.07963537">
        <ele>129.0</ele>
        <time>2021-03-03T10:15:18Z</time>
      </trkpt>
      <trkpt lat="41.47980269" lon="2.07957737">
        <ele>128.0</ele>
        <time>2021-03-03T10:15:19Z</time>
      </trkpt>
      <trkpt lat="41.47974702" lon="2.07951338">
        <ele>128.0</ele>
        <time>2021-03-03T10:15:20Z</time>
      </trkpt>
      <trkpt lat="41.47969036" lon="2.07944605">
        <ele>127.0</ele>
        <time>2021-03-03T10:15:21Z</time>
      </trkpt>
      <trkpt lat="41.47963536" lon="2.07938006">
        <ele>127.0</ele>
        <time>2021-03-03T10:15:22Z</time>
      </trkpt>
      <trkpt lat="41.47957704" lon="2.07930839">
        <ele>126.0</ele>
        <time>2021-03-03T10:15:23Z</time>
      </trkpt>
      <trkpt lat="41.47951537" lon="2.0792334">
        <ele>125.0</ele>
        <time>2021-03-03T10:15:24Z</time>
      </trkpt>
      <trkpt lat="41.47945038" lon="2.07915507">
        <ele>125.0</ele>
        <time>2021-03-03T10:15:25Z</time>
      </trkpt>
      <trkpt lat="41.47938238" lon="2.07907507">
        <ele>124.0</ele>
        <time>2021-03-03T10:15:26Z</time>
      </trkpt>
      <trkpt lat="41.47930873" lon="2.0789864">
        <ele>124.0</ele>
        <time>2021-03-03T10:15:27Z</time>
      </trkpt>
      <trkpt lat="41.47923606" lon="2.07889675">
        <ele>124.0</ele>
        <time>2021-03-03T10:15:28Z</time>
      </trkpt>
      <trkpt lat="41.47916407" lon="2.07880576">
        <ele>123.0</ele>
        <time>2021-03-03T10:15:29Z</time>
      </trkpt>
      <trkpt lat="41.4790914" lon="2.0787131">
        <ele>122.0</ele>
        <time>2021-03-03T10:15:30Z</time>
      </trkpt>
      <trkpt lat="41.47902275" lon="2.0786261">
        <ele>121.0</ele>
        <time>2021-03-03T10:15:31Z</time>
      </trkpt>
      <trkpt lat="41.47894642" lon="2.07853278">
        <ele>120.0</ele>
        <time>2021-03-03T10:15:32Z</time>
      </trkpt>
      <trkpt lat="41.47887009" lon="2.07844412">
        <ele>119.0</ele>
        <time>2021-03-03T10:15:33Z</time>
      </trkpt>
      <trkpt lat="41.47879877" lon="2.07836012">
        <ele>118.0</ele>
        <time>2021-03-03T10:15:34Z</time>
      </trkpt>
      <trkpt lat="41.47874043" lon="2.0782858">
        <ele>117.0</ele>
        <time>2021-03-03T10:15:35Z</time>
      </trkpt>
      <trkpt lat="41.47869411" lon="2.0782138">
        <ele>116.0</ele>
        <time>2021-03-03T10:15:36Z</time>
      </trkpt>
      <trkpt lat="41.47866245" lon="2.07814247">
        <ele>116.0</ele>
        <time>2021-03-03T10:15:37Z</time>
      </trkpt>
      <trkpt lat="41.47864712" lon="2.07808081">
        <ele>116.0</ele>
        <time>2021-03-03T10:15:38Z</time>
      </trkpt>
      <trkpt lat="41.47864845" lon="2.07802315">
        <ele>115.0</ele>
        <time>2021-03-03T10:15:39Z</time>
      </trkpt>
      <trkpt lat="41.47866344" lon="2.07796716">
        <ele>115.0</ele>
        <time>2021-03-03T10:15:40Z</time>
      </trkpt>
      <trkpt lat="41.47869277" lon="2.07791017">
        <ele>115.0</ele>
        <time>2021-03-03T10:15:41Z</time>
      </trkpt>
      <trkpt lat="41.47872777" lon="2.07785417">
        <ele>115.0</ele>
        <time>2021-03-03T10:15:42Z</time>
      </trkpt>
      <trkpt lat="41.47876476" lon="2.07779751">
        <ele>115.0</ele>
        <time>2021-03-03T10:15:43Z</time>
      </trkpt>
      <trkpt lat="41.47880076" lon="2.07774418">
        <ele>115.0</ele>
        <time>2021-03-03T10:15:44Z</time>
      </trkpt>
      <trkpt lat="41.47884108" lon="2.07768652">
        <ele>115.0</ele>
        <time>2021-03-03T10:15:45Z</time>
      </trkpt>
      <trkpt lat="41.47888275" lon="2.07762852">
        <ele>115.0</ele>
        <time>2021-03-03T10:15:46Z</time>
      </trkpt>
      <trkpt lat="41.47892408" lon="2.07757087">
        <ele>115.0</ele>
        <time>2021-03-03T10:15:47Z</time>
      </trkpt>
      <trkpt lat="41.4789664" lon="2.07751487">
        <ele>115.0</ele>
        <time>2021-03-03T10:15:48Z</time>
      </trkpt>
      <trkpt lat="41.47900939" lon="2.07745888">
        <ele>115.0</ele>
        <time>2021-03-03T10:15:49Z</time>
      </trkpt>
      <trkpt lat="41.47905305" lon="2.07740454">
        <ele>115.0</ele>
        <time>2021-03-03T10:15:50Z</time>
      </trkpt>
      <trkpt lat="41.47909705" lon="2.07735222">
        <ele>115.0</ele>
        <time>2021-03-03T10:15:51Z</time>
      </trkpt>
      <trkpt lat="41.47914271" lon="2.07730156">
        <ele>116.0</ele>
        <time>2021-03-03T10:15:52Z</time>
      </trkpt>
      <trkpt lat="41.47918971" lon="2.07725524">
        <ele>116.0</ele>
        <time>2021-03-03T10:15:53Z</time>
      </trkpt>
      <trkpt lat="41.4792377" lon="2.07721224">
        <ele>116.0</ele>
        <time>2021-03-03T10:15:54Z</time>
      </trkpt>
      <trkpt lat="41.47928736" lon="2.07717092">
        <ele>117.0</ele>
        <time>2021-03-03T10:15:55Z</time>
      </trkpt>
      <trkpt lat="41.47933503" lon="2.07713392">
        <ele>117.0</ele>
        <time>2021-03-03T10:15:56Z</time>
      </trkpt>
      <trkpt lat="41.47938335" lon="2.07709659">
        <ele>117.0</ele>
        <time>2021-03-03T10:15:57Z</time>
      </trkpt>
      <trkpt lat="41.47943001" lon="2.07705727">
        <ele>117.0</ele>
        <time>2021-03-03T10:15:58Z</time>
      </trkpt>
      <trkpt lat="41.47947468" lon="2.07700994">
        <ele>117.0</ele>
        <time>2021-03-03T10:15:59Z</time>
      </trkpt>
      <trkpt lat="41.47951167" lon="2.07696295">
        <ele>117.0</ele>
        <time>2021-03-03T10:16:00Z</time>
      </trkpt>
      <trkpt lat="41.47954467" lon="2.07691229">
        <ele>118.0</ele>
        <time>2021-03-03T10:16:00Z</time>
      </trkpt>
      <trkpt lat="41.479575" lon="2.07685896">
        <ele>118.0</ele>
        <time>2021-03-03T10:16:01Z</time>
      </trkpt>
      <trkpt lat="41.479605" lon="2.07680497">
        <ele>118.0</ele>
        <time>2021-03-03T10:16:02Z</time>
      </trkpt>
      <trkpt lat="41.47963399" lon="2.07675098">
        <ele>118.0</ele>
        <time>2021-03-03T10:16:03Z</time>
      </trkpt>
      <trkpt lat="41.47966265" lon="2.07669699">
        <ele>118.0</ele>
        <time>2021-03-03T10:16:04Z</time>
      </trkpt>
      <trkpt lat="41.47968998" lon="2.07664233">
        <ele>118.0</ele>
        <time>2021-03-03T10:16:05Z</time>
      </trkpt>
      <trkpt lat="41.47971597" lon="2.07658633">
        <ele>119.0</ele>
        <time>2021-03-03T10:16:06Z</time>
      </trkpt>
      <trkpt lat="41.4797403" lon="2.07653066">
        <ele>119.0</ele>
        <time>2021-03-03T10:16:07Z</time>
      </trkpt>
      <trkpt lat="41.47976296" lon="2.07647501">
        <ele>119.0</ele>
        <time>2021-03-03T10:16:08Z</time>
      </trkpt>
      <trkpt lat="41.47978362" lon="2.07641934">
        <ele>119.0</ele>
        <time>2021-03-03T10:16:09Z</time>
      </trkpt>
      <trkpt lat="41.47980228" lon="2.07636367">
        <ele>119.0</ele>
        <time>2021-03-03T10:16:10Z</time>
      </trkpt>
      <trkpt lat="41.47981861" lon="2.07630768">
        <ele>119.0</ele>
        <time>2021-03-03T10:16:11Z</time>
      </trkpt>
      <trkpt lat="41.47983461" lon="2.07625202">
        <ele>120.0</ele>
        <time>2021-03-03T10:16:12Z</time>
      </trkpt>
      <trkpt lat="41.47984994" lon="2.07619669">
        <ele>120.0</ele>
        <time>2021-03-03T10:16:13Z</time>
      </trkpt>
      <trkpt lat="41.47986326" lon="2.07614204">
        <ele>120.0</ele>
        <time>2021-03-03T10:16:14Z</time>
      </trkpt>
      <trkpt lat="41.4798746" lon="2.0760877">
        <ele>120.0</ele>
        <time>2021-03-03T10:16:15Z</time>
      </trkpt>
      <trkpt lat="41.47988359" lon="2.07603337">
        <ele>120.0</ele>
        <time>2021-03-03T10:16:16Z</time>
      </trkpt>
      <trkpt lat="41.47989159" lon="2.07597905">
        <ele>120.0</ele>
        <time>2021-03-03T10:16:17Z</time>
      </trkpt>
      <trkpt lat="41.47989724" lon="2.07592471">
        <ele>121.0</ele>
        <time>2021-03-03T10:16:18Z</time>
      </trkpt>
      <trkpt lat="41.47990158" lon="2.07587006">
        <ele>121.0</ele>
        <time>2021-03-03T10:16:19Z</time>
      </trkpt>
      <trkpt lat="41.47990423" lon="2.07581607">
        <ele>121.0</ele>
        <time>2021-03-03T10:16:20Z</time>
      </trkpt>
      <trkpt lat="41.47990522" lon="2.07576208">
        <ele>121.0</ele>
        <time>2021-03-03T10:16:21Z</time>
      </trkpt>
      <trkpt lat="41.47990656" lon="2.07570874">
        <ele>121.0</ele>
        <time>2021-03-03T10:16:22Z</time>
      </trkpt>
      <trkpt lat="41.47990688" lon="2.07565575">
        <ele>122.0</ele>
        <time>2021-03-03T10:16:23Z</time>
      </trkpt>
      <trkpt lat="41.47990656" lon="2.07560309">
        <ele>122.0</ele>
        <time>2021-03-03T10:16:24Z</time>
      </trkpt>
      <trkpt lat="41.47990456" lon="2.0755511">
        <ele>122.0</ele>
        <time>2021-03-03T10:16:25Z</time>
      </trkpt>
      <trkpt lat="41.47990289" lon="2.07550043">
        <ele>122.0</ele>
        <time>2021-03-03T10:16:26Z</time>
      </trkpt>
      <trkpt lat="41.4799009" lon="2.07545211">
        <ele>123.0</ele>
        <time>2021-03-03T10:16:27Z</time>
      </trkpt>
      <trkpt lat="41.47989923" lon="2.07540711">
        <ele>123.0</ele>
        <time>2021-03-03T10:16:28Z</time>
      </trkpt>
      <trkpt lat="41.47989757" lon="2.07536378">
        <ele>124.0</ele>
        <time>2021-03-03T10:16:29Z</time>
      </trkpt>
      <trkpt lat="41.47989658" lon="2.07532045">
        <ele>124.0</ele>
        <time>2021-03-03T10:16:30Z</time>
      </trkpt>
      <trkpt lat="41.47989525" lon="2.07527646">
        <ele>124.0</ele>
        <time>2021-03-03T10:16:31Z</time>
      </trkpt>
      <trkpt lat="41.47989359" lon="2.07523346">
        <ele>124.0</ele>
        <time>2021-03-03T10:16:32Z</time>
      </trkpt>
      <trkpt lat="41.47989226" lon="2.07519013">
        <ele>125.0</ele>
        <time>2021-03-03T10:16:33Z</time>
      </trkpt>
      <trkpt lat="41.47989126" lon="2.07514746">
        <ele>125.0</ele>
        <time>2021-03-03T10:16:34Z</time>
      </trkpt>
      <trkpt lat="41.47988994" lon="2.07510514">
        <ele>125.0</ele>
        <time>2021-03-03T10:16:35Z</time>
      </trkpt>
      <trkpt lat="41.47988794" lon="2.07506247">
        <ele>126.0</ele>
        <time>2021-03-03T10:16:36Z</time>
      </trkpt>
      <trkpt lat="41.47988561" lon="2.07502015">
        <ele>126.0</ele>
        <time>2021-03-03T10:16:37Z</time>
      </trkpt>
      <trkpt lat="41.47988395" lon="2.07497815">
        <ele>127.0</ele>
        <time>2021-03-03T10:16:38Z</time>
      </trkpt>
      <trkpt lat="41.47988295" lon="2.07493548">
        <ele>127.0</ele>
        <time>2021-03-03T10:16:39Z</time>
      </trkpt>
      <trkpt lat="41.47988229" lon="2.07489382">
        <ele>127.0</ele>
        <time>2021-03-03T10:16:40Z</time>
      </trkpt>
      <trkpt lat="41.4798813" lon="2.07485249">
        <ele>127.0</ele>
        <time>2021-03-03T10:16:41Z</time>
      </trkpt>
      <trkpt lat="41.47988064" lon="2.07481183">
        <ele>128.0</ele>
        <time>2021-03-03T10:16:42Z</time>
      </trkpt>
      <trkpt lat="41.47987965" lon="2.07477017">
        <ele>128.0</ele>
        <time>2021-03-03T10:16:43Z</time>
      </trkpt>
      <trkpt lat="41.47987765" lon="2.0747275">
        <ele>129.0</ele>
        <time>2021-03-03T10:16:44Z</time>
      </trkpt>
      <trkpt lat="41.47987599" lon="2.07468151">
        <ele>129.0</ele>
        <time>2021-03-03T10:16:45Z</time>
      </trkpt>
      <trkpt lat="41.47987533" lon="2.07463718">
        <ele>129.0</ele>
        <time>2021-03-03T10:16:46Z</time>
      </trkpt>
      <trkpt lat="41.479874" lon="2.07458952">
        <ele>129.0</ele>
        <time>2021-03-03T10:16:47Z</time>
      </trkpt>
      <trkpt lat="41.47987334" lon="2.07454585">
        <ele>130.0</ele>
        <time>2021-03-03T10:16:48Z</time>
      </trkpt>
      <trkpt lat="41.47987302" lon="2.0744992">
        <ele>130.0</ele>
        <time>2021-03-03T10:16:49Z</time>
      </trkpt>
      <trkpt lat="41.47987334" lon="2.07445287">
        <ele>130.0</ele>
        <time>2021-03-03T10:16:50Z</time>
      </trkpt>
      <trkpt lat="41.47987467" lon="2.07440787">
        <ele>130.0</ele>
        <time>2021-03-03T10:16:51Z</time>
      </trkpt>
      <trkpt lat="41.47987732" lon="2.07436254">
        <ele>130.0</ele>
        <time>2021-03-03T10:16:52Z</time>
      </trkpt>
      <trkpt lat="41.47988132" lon="2.07432088">
        <ele>130.0</ele>
        <time>2021-03-03T10:16:53Z</time>
      </trkpt>
      <trkpt lat="41.47988699" lon="2.07427623">
        <ele>131.0</ele>
        <time>2021-03-03T10:16:54Z</time>
      </trkpt>
      <trkpt lat="41.47989499" lon="2.07423256">
        <ele>131.0</ele>
        <time>2021-03-03T10:16:55Z</time>
      </trkpt>
      <trkpt lat="41.47990565" lon="2.07419024">
        <ele>131.0</ele>
        <time>2021-03-03T10:16:56Z</time>
      </trkpt>
      <trkpt lat="41.47991765" lon="2.07415158">
        <ele>131.0</ele>
        <time>2021-03-03T10:16:57Z</time>
      </trkpt>
      <trkpt lat="41.47993397" lon="2.07410992">
        <ele>131.0</ele>
        <time>2021-03-03T10:16:58Z</time>
      </trkpt>
      <trkpt lat="41.47995164" lon="2.07407326">
        <ele>131.0</ele>
        <time>2021-03-03T10:16:59Z</time>
      </trkpt>
      <trkpt lat="41.47997097" lon="2.07403792">
        <ele>132.0</ele>
        <time>2021-03-03T10:17:00Z</time>
      </trkpt>
      <trkpt lat="41.4799933" lon="2.07400192">
        <ele>132.0</ele>
        <time>2021-03-03T10:17:01Z</time>
      </trkpt>
      <trkpt lat="41.48001429" lon="2.07397127">
        <ele>132.0</ele>
        <time>2021-03-03T10:17:02Z</time>
      </trkpt>
      <trkpt lat="41.48003929" lon="2.07394127">
        <ele>132.0</ele>
        <time>2021-03-03T10:17:03Z</time>
      </trkpt>
      <trkpt lat="41.48006562" lon="2.0739146">
        <ele>132.0</ele>
        <time>2021-03-03T10:17:04Z</time>
      </trkpt>
      <trkpt lat="41.48009062" lon="2.07389194">
        <ele>133.0</ele>
        <time>2021-03-03T10:17:05Z</time>
      </trkpt>
      <trkpt lat="41.48011862" lon="2.07386962">
        <ele>133.0</ele>
        <time>2021-03-03T10:17:06Z</time>
      </trkpt>
      <trkpt lat="41.48014461" lon="2.07385063">
        <ele>133.0</ele>
        <time>2021-03-03T10:17:07Z</time>
      </trkpt>
      <trkpt lat="41.4801706" lon="2.07383196">
        <ele>133.0</ele>
        <time>2021-03-03T10:17:08Z</time>
      </trkpt>
      <trkpt lat="41.4801986" lon="2.07381363">
        <ele>134.0</ele>
        <time>2021-03-03T10:17:09Z</time>
      </trkpt>
      <trkpt lat="41.4802266" lon="2.07379631">
        <ele>134.0</ele>
        <time>2021-03-03T10:17:10Z</time>
      </trkpt>
      <trkpt lat="41.48025526" lon="2.07377997">
        <ele>134.0</ele>
        <time>2021-03-03T10:17:11Z</time>
      </trkpt>
      <trkpt lat="41.48028225" lon="2.07376465">
        <ele>134.0</ele>
        <time>2021-03-03T10:17:12Z</time>
      </trkpt>
      <trkpt lat="41.48031125" lon="2.07374798">
        <ele>134.0</ele>
        <time>2021-03-03T10:17:13Z</time>
      </trkpt>
      <trkpt lat="41.48033991" lon="2.07373132">
        <ele>134.0</ele>
        <time>2021-03-03T10:17:14Z</time>
      </trkpt>
      <trkpt lat="41.48036857" lon="2.07371433">
        <ele>134.0</ele>
        <time>2021-03-03T10:17:15Z</time>
      </trkpt>
      <trkpt lat="41.48039722" lon="2.07369899">
        <ele>135.0</ele>
        <time>2021-03-03T10:17:16Z</time>
      </trkpt>
      <trkpt lat="41.48042621" lon="2.07368334">
        <ele>135.0</ele>
        <time>2021-03-03T10:17:17Z</time>
      </trkpt>
      <trkpt lat="41.48045555" lon="2.073668">
        <ele>135.0</ele>
        <time>2021-03-03T10:17:18Z</time>
      </trkpt>
      <trkpt lat="41.4804852" lon="2.07365234">
        <ele>136.0</ele>
        <time>2021-03-03T10:17:19Z</time>
      </trkpt>
      <trkpt lat="41.48051487" lon="2.07363634">
        <ele>136.0</ele>
        <time>2021-03-03T10:17:20Z</time>
      </trkpt>
      <trkpt lat="41.48054453" lon="2.07362068">
        <ele>136.0</ele>
        <time>2021-03-03T10:17:21Z</time>
      </trkpt>
      <trkpt lat="41.48057453" lon="2.07360402">
        <ele>136.0</ele>
        <time>2021-03-03T10:17:22Z</time>
      </trkpt>
      <trkpt lat="41.48060486" lon="2.07358702">
        <ele>136.0</ele>
        <time>2021-03-03T10:17:23Z</time>
      </trkpt>
      <trkpt lat="41.48063585" lon="2.07356936">
        <ele>136.0</ele>
        <time>2021-03-03T10:17:24Z</time>
      </trkpt>
      <trkpt lat="41.48066784" lon="2.0735517">
        <ele>136.0</ele>
        <time>2021-03-03T10:17:25Z</time>
      </trkpt>
      <trkpt lat="41.48070051" lon="2.0735337">
        <ele>136.0</ele>
        <time>2021-03-03T10:17:26Z</time>
      </trkpt>
      <trkpt lat="41.48073351" lon="2.07351504">
        <ele>136.0</ele>
        <time>2021-03-03T10:17:27Z</time>
      </trkpt>
      <trkpt lat="41.48076416" lon="2.07349772">
        <ele>136.0</ele>
        <time>2021-03-03T10:17:28Z</time>
      </trkpt>
      <trkpt lat="41.4807975" lon="2.07347873">
        <ele>136.0</ele>
        <time>2021-03-03T10:17:29Z</time>
      </trkpt>
      <trkpt lat="41.48083083" lon="2.07345974">
        <ele>136.0</ele>
        <time>2021-03-03T10:17:30Z</time>
      </trkpt>
      <trkpt lat="41.48086416" lon="2.07344007">
        <ele>137.0</ele>
        <time>2021-03-03T10:17:31Z</time>
      </trkpt>
      <trkpt lat="41.48089849" lon="2.07342042">
        <ele>137.0</ele>
        <time>2021-03-03T10:17:32Z</time>
      </trkpt>
      <trkpt lat="41.48093514" lon="2.07340143">
        <ele>137.0</ele>
        <time>2021-03-03T10:17:33Z</time>
      </trkpt>
      <trkpt lat="41.48097247" lon="2.07338244">
        <ele>137.0</ele>
        <time>2021-03-03T10:17:34Z</time>
      </trkpt>
      <trkpt lat="41.4810108" lon="2.07336211">
        <ele>137.0</ele>
        <time>2021-03-03T10:17:35Z</time>
      </trkpt>
      <trkpt lat="41.48104846" lon="2.07334112">
        <ele>137.0</ele>
        <time>2021-03-03T10:17:36Z</time>
      </trkpt>
      <trkpt lat="41.48108312" lon="2.07332079">
        <ele>137.0</ele>
        <time>2021-03-03T10:17:37Z</time>
      </trkpt>
      <trkpt lat="41.48112145" lon="2.07329747">
        <ele>137.0</ele>
        <time>2021-03-03T10:17:38Z</time>
      </trkpt>
      <trkpt lat="41.48116011" lon="2.0732738">
        <ele>137.0</ele>
        <time>2021-03-03T10:17:39Z</time>
      </trkpt>
      <trkpt lat="41.48119845" lon="2.07325048">
        <ele>137.0</ele>
        <time>2021-03-03T10:17:40Z</time>
      </trkpt>
      <trkpt lat="41.48123745" lon="2.07322681">
        <ele>137.0</ele>
        <time>2021-03-03T10:17:41Z</time>
      </trkpt>
      <trkpt lat="41.48127677" lon="2.07320349">
        <ele>137.0</ele>
        <time>2021-03-03T10:17:42Z</time>
      </trkpt>
      <trkpt lat="41.48131743" lon="2.07317982">
        <ele>137.0</ele>
        <time>2021-03-03T10:17:43Z</time>
      </trkpt>
      <trkpt lat="41.48135775" lon="2.07315783">
        <ele>137.0</ele>
        <time>2021-03-03T10:17:44Z</time>
      </trkpt>
      <trkpt lat="41.48139408" lon="2.07313683">
        <ele>137.0</ele>
        <time>2021-03-03T10:17:45Z</time>
      </trkpt>
      <trkpt lat="41.48143275" lon="2.07311484">
        <ele>137.0</ele>
        <time>2021-03-03T10:17:46Z</time>
      </trkpt>
      <trkpt lat="41.48147041" lon="2.07309484">
        <ele>138.0</ele>
        <time>2021-03-03T10:17:47Z</time>
      </trkpt>
      <trkpt lat="41.4815044" lon="2.07307685">
        <ele>138.0</ele>
        <time>2021-03-03T10:17:48Z</time>
      </trkpt>
      <trkpt lat="41.48153806" lon="2.07305953">
        <ele>138.0</ele>
        <time>2021-03-03T10:17:49Z</time>
      </trkpt>
      <trkpt lat="41.48157439" lon="2.07304186">
        <ele>138.0</ele>
        <time>2021-03-03T10:17:50Z</time>
      </trkpt>
      <trkpt lat="41.48160905" lon="2.07302486">
        <ele>138.0</ele>
        <time>2021-03-03T10:17:51Z</time>
      </trkpt>
      <trkpt lat="41.48164338" lon="2.0730082">
        <ele>138.0</ele>
        <time>2021-03-03T10:17:52Z</time>
      </trkpt>
      <trkpt lat="41.48167703" lon="2.07299188">
        <ele>139.0</ele>
        <time>2021-03-03T10:17:53Z</time>
      </trkpt>
      <trkpt lat="41.48170936" lon="2.07297555">
        <ele>139.0</ele>
        <time>2021-03-03T10:17:54Z</time>
      </trkpt>
      <trkpt lat="41.48174136" lon="2.07296021">
        <ele>140.0</ele>
        <time>2021-03-03T10:17:55Z</time>
      </trkpt>
      <trkpt lat="41.48177401" lon="2.07294556">
        <ele>140.0</ele>
        <time>2021-03-03T10:17:56Z</time>
      </trkpt>
      <trkpt lat="41.48180668" lon="2.0729319">
        <ele>140.0</ele>
        <time>2021-03-03T10:17:57Z</time>
      </trkpt>
      <trkpt lat="41.481838" lon="2.07291923">
        <ele>141.0</ele>
        <time>2021-03-03T10:17:58Z</time>
      </trkpt>
      <trkpt lat="41.48186733" lon="2.07290658">
        <ele>141.0</ele>
        <time>2021-03-03T10:17:59Z</time>
      </trkpt>
      <trkpt lat="41.48189399" lon="2.07289358">
        <ele>141.0</ele>
        <time>2021-03-03T10:18:00Z</time>
      </trkpt>
      <trkpt lat="41.48192032" lon="2.07288124">
        <ele>142.0</ele>
        <time>2021-03-03T10:18:01Z</time>
      </trkpt>
      <trkpt lat="41.48194597" lon="2.07286992">
        <ele>142.0</ele>
        <time>2021-03-03T10:18:02Z</time>
      </trkpt>
      <trkpt lat="41.48197131" lon="2.0728596">
        <ele>143.0</ele>
        <time>2021-03-03T10:18:03Z</time>
      </trkpt>
      <trkpt lat="41.48199797" lon="2.0728486">
        <ele>143.0</ele>
        <time>2021-03-03T10:18:04Z</time>
      </trkpt>
      <trkpt lat="41.4820243" lon="2.07283694">
        <ele>143.0</ele>
        <time>2021-03-03T10:18:05Z</time>
      </trkpt>
      <trkpt lat="41.48205096" lon="2.07282562">
        <ele>143.0</ele>
        <time>2021-03-03T10:18:06Z</time>
      </trkpt>
      <trkpt lat="41.48207662" lon="2.07281462">
        <ele>144.0</ele>
        <time>2021-03-03T10:18:07Z</time>
      </trkpt>
      <trkpt lat="41.48210528" lon="2.07280295">
        <ele>144.0</ele>
        <time>2021-03-03T10:18:08Z</time>
      </trkpt>
      <trkpt lat="41.4821346" lon="2.07279129">
        <ele>145.0</ele>
        <time>2021-03-03T10:18:09Z</time>
      </trkpt>
      <trkpt lat="41.4821646" lon="2.07277929">
        <ele>145.0</ele>
        <time>2021-03-03T10:18:10Z</time>
      </trkpt>
      <trkpt lat="41.48219326" lon="2.0727693">
        <ele>145.0</ele>
        <time>2021-03-03T10:18:11Z</time>
      </trkpt>
      <trkpt lat="41.48222492" lon="2.0727583">
        <ele>145.0</ele>
        <time>2021-03-03T10:18:12Z</time>
      </trkpt>
      <trkpt lat="41.48225758" lon="2.07274631">
        <ele>146.0</ele>
        <time>2021-03-03T10:18:13Z</time>
      </trkpt>
      <trkpt lat="41.48229025" lon="2.07273465">
        <ele>146.0</ele>
        <time>2021-03-03T10:18:14Z</time>
      </trkpt>
      <trkpt lat="41.48232424" lon="2.07272165">
        <ele>146.0</ele>
        <time>2021-03-03T10:18:15Z</time>
      </trkpt>
      <trkpt lat="41.48235823" lon="2.07270865">
        <ele>146.0</ele>
        <time>2021-03-03T10:18:16Z</time>
      </trkpt>
      <trkpt lat="41.48239389" lon="2.07269466">
        <ele>146.0</ele>
        <time>2021-03-03T10:18:17Z</time>
      </trkpt>
      <trkpt lat="41.48242888" lon="2.07267699">
        <ele>146.0</ele>
        <time>2021-03-03T10:18:18Z</time>
      </trkpt>
      <trkpt lat="41.48246122" lon="2.07265399">
        <ele>147.0</ele>
        <time>2021-03-03T10:18:19Z</time>
      </trkpt>
      <trkpt lat="41.48248921" lon="2.07262433">
        <ele>147.0</ele>
        <time>2021-03-03T10:18:20Z</time>
      </trkpt>
      <trkpt lat="41.48251087" lon="2.07258933">
        <ele>147.0</ele>
        <time>2021-03-03T10:18:21Z</time>
      </trkpt>
      <trkpt lat="41.48252621" lon="2.07254967">
        <ele>147.0</ele>
        <time>2021-03-03T10:18:22Z</time>
      </trkpt>
      <trkpt lat="41.48253553" lon="2.07250734">
        <ele>147.0</ele>
        <time>2021-03-03T10:18:23Z</time>
      </trkpt>
      <trkpt lat="41.48254086" lon="2.07246234">
        <ele>147.0</ele>
        <time>2021-03-03T10:18:24Z</time>
      </trkpt>
      <trkpt lat="41.48254353" lon="2.07241635">
        <ele>147.0</ele>
        <time>2021-03-03T10:18:25Z</time>
      </trkpt>
      <trkpt lat="41.48254353" lon="2.07236969">
        <ele>147.0</ele>
        <time>2021-03-03T10:18:26Z</time>
      </trkpt>
      <trkpt lat="41.48254253" lon="2.07232235">
        <ele>148.0</ele>
        <time>2021-03-03T10:18:27Z</time>
      </trkpt>
      <trkpt lat="41.48254087" lon="2.07227703">
        <ele>148.0</ele>
        <time>2021-03-03T10:18:28Z</time>
      </trkpt>
      <trkpt lat="41.48254022" lon="2.07222636">
        <ele>148.0</ele>
        <time>2021-03-03T10:18:29Z</time>
      </trkpt>
      <trkpt lat="41.48254187" lon="2.07217671">
        <ele>148.0</ele>
        <time>2021-03-03T10:18:30Z</time>
      </trkpt>
      <trkpt lat="41.48254954" lon="2.07213105">
        <ele>148.0</ele>
        <time>2021-03-03T10:18:31Z</time>
      </trkpt>
      <trkpt lat="41.48256287" lon="2.07209205">
        <ele>148.0</ele>
        <time>2021-03-03T10:18:32Z</time>
      </trkpt>
      <trkpt lat="41.48258353" lon="2.07205973">
        <ele>149.0</ele>
        <time>2021-03-03T10:18:33Z</time>
      </trkpt>
      <trkpt lat="41.48260652" lon="2.07203439">
        <ele>149.0</ele>
        <time>2021-03-03T10:18:34Z</time>
      </trkpt>
      <trkpt lat="41.48263784" lon="2.07201139">
        <ele>149.0</ele>
        <time>2021-03-03T10:18:35Z</time>
      </trkpt>
      <trkpt lat="41.48267351" lon="2.0719904">
        <ele>149.0</ele>
        <time>2021-03-03T10:18:36Z</time>
      </trkpt>
      <trkpt lat="41.48270984" lon="2.0719724">
        <ele>149.0</ele>
        <time>2021-03-03T10:18:37Z</time>
      </trkpt>
      <trkpt lat="41.48275151" lon="2.07195541">
        <ele>149.0</ele>
        <time>2021-03-03T10:18:38Z</time>
      </trkpt>
      <trkpt lat="41.48279217" lon="2.07193908">
        <ele>149.0</ele>
        <time>2021-03-03T10:18:39Z</time>
      </trkpt>
      <trkpt lat="41.48283749" lon="2.07192308">
        <ele>149.0</ele>
        <time>2021-03-03T10:18:40Z</time>
      </trkpt>
      <trkpt lat="41.48288649" lon="2.07190708">
        <ele>149.0</ele>
        <time>2021-03-03T10:18:41Z</time>
      </trkpt>
      <trkpt lat="41.48294081" lon="2.07188642">
        <ele>149.0</ele>
        <time>2021-03-03T10:18:42Z</time>
      </trkpt>
      <trkpt lat="41.48299581" lon="2.07186242">
        <ele>149.0</ele>
        <time>2021-03-03T10:18:43Z</time>
      </trkpt>
      <trkpt lat="41.48305347" lon="2.0718361">
        <ele>148.0</ele>
        <time>2021-03-03T10:18:44Z</time>
      </trkpt>
      <trkpt lat="41.48311646" lon="2.0718061">
        <ele>148.0</ele>
        <time>2021-03-03T10:18:45Z</time>
      </trkpt>
      <trkpt lat="41.48318179" lon="2.07177144">
        <ele>147.0</ele>
        <time>2021-03-03T10:18:46Z</time>
      </trkpt>
      <trkpt lat="41.48324745" lon="2.07173279">
        <ele>147.0</ele>
        <time>2021-03-03T10:18:47Z</time>
      </trkpt>
      <trkpt lat="41.48331378" lon="2.0716918">
        <ele>147.0</ele>
        <time>2021-03-03T10:18:48Z</time>
      </trkpt>
      <trkpt lat="41.48338211" lon="2.0716478">
        <ele>147.0</ele>
        <time>2021-03-03T10:18:49Z</time>
      </trkpt>
      <trkpt lat="41.48345076" lon="2.07159881">
        <ele>147.0</ele>
        <time>2021-03-03T10:18:50Z</time>
      </trkpt>
      <trkpt lat="41.4835211" lon="2.07154415">
        <ele>147.0</ele>
        <time>2021-03-03T10:18:51Z</time>
      </trkpt>
      <trkpt lat="41.48359243" lon="2.07148515">
        <ele>146.0</ele>
        <time>2021-03-03T10:18:52Z</time>
      </trkpt>
      <trkpt lat="41.48366442" lon="2.07142249">
        <ele>146.0</ele>
        <time>2021-03-03T10:18:53Z</time>
      </trkpt>
      <trkpt lat="41.48373675" lon="2.07135516">
        <ele>145.0</ele>
        <time>2021-03-03T10:18:54Z</time>
      </trkpt>
      <trkpt lat="41.48380741" lon="2.07128416">
        <ele>144.0</ele>
        <time>2021-03-03T10:18:55Z</time>
      </trkpt>
      <trkpt lat="41.48387708" lon="2.0712115">
        <ele>144.0</ele>
        <time>2021-03-03T10:18:56Z</time>
      </trkpt>
      <trkpt lat="41.48394708" lon="2.07113817">
        <ele>143.0</ele>
        <time>2021-03-03T10:18:57Z</time>
      </trkpt>
      <trkpt lat="41.4840164" lon="2.07106451">
        <ele>143.0</ele>
        <time>2021-03-03T10:18:58Z</time>
      </trkpt>
      <trkpt lat="41.48408607" lon="2.07099319">
        <ele>142.0</ele>
        <time>2021-03-03T10:18:59Z</time>
      </trkpt>
      <trkpt lat="41.48415472" lon="2.07092587">
        <ele>141.0</ele>
        <time>2021-03-03T10:19:00Z</time>
      </trkpt>
      <trkpt lat="41.48422206" lon="2.07086354">
        <ele>141.0</ele>
        <time>2021-03-03T10:19:01Z</time>
      </trkpt>
      <trkpt lat="41.48428639" lon="2.07080721">
        <ele>141.0</ele>
        <time>2021-03-03T10:19:02Z</time>
      </trkpt>
      <trkpt lat="41.48434772" lon="2.07075754">
        <ele>141.0</ele>
        <time>2021-03-03T10:19:03Z</time>
      </trkpt>
      <trkpt lat="41.48440538" lon="2.07071488">
        <ele>141.0</ele>
        <time>2021-03-03T10:19:04Z</time>
      </trkpt>
      <trkpt lat="41.48446005" lon="2.07067855">
        <ele>141.0</ele>
        <time>2021-03-03T10:19:05Z</time>
      </trkpt>
      <trkpt lat="41.48451204" lon="2.07064689">
        <ele>141.0</ele>
        <time>2021-03-03T10:19:06Z</time>
      </trkpt>
      <trkpt lat="41.4845607" lon="2.0706199">
        <ele>141.0</ele>
        <time>2021-03-03T10:19:07Z</time>
      </trkpt>
      <trkpt lat="41.48460703" lon="2.07059724">
        <ele>141.0</ele>
        <time>2021-03-03T10:19:08Z</time>
      </trkpt>
      <trkpt lat="41.48465103" lon="2.07057825">
        <ele>141.0</ele>
        <time>2021-03-03T10:19:09Z</time>
      </trkpt>
      <trkpt lat="41.48469303" lon="2.07056159">
        <ele>142.0</ele>
        <time>2021-03-03T10:19:10Z</time>
      </trkpt>
      <trkpt lat="41.48473202" lon="2.07054693">
        <ele>143.0</ele>
        <time>2021-03-03T10:19:11Z</time>
      </trkpt>
      <trkpt lat="41.48476902" lon="2.07053459">
        <ele>143.0</ele>
        <time>2021-03-03T10:19:12Z</time>
      </trkpt>
      <trkpt lat="41.48480334" lon="2.0705236">
        <ele>144.0</ele>
        <time>2021-03-03T10:19:13Z</time>
      </trkpt>
      <trkpt lat="41.48483667" lon="2.07051427">
        <ele>144.0</ele>
        <time>2021-03-03T10:19:14Z</time>
      </trkpt>
      <trkpt lat="41.48487001" lon="2.07050761">
        <ele>144.0</ele>
        <time>2021-03-03T10:19:15Z</time>
      </trkpt>
      <trkpt lat="41.484903" lon="2.07050261">
        <ele>145.0</ele>
        <time>2021-03-03T10:19:16Z</time>
      </trkpt>
      <trkpt lat="41.48493533" lon="2.07049829">
        <ele>145.0</ele>
        <time>2021-03-03T10:19:17Z</time>
      </trkpt>
      <trkpt lat="41.48496632" lon="2.07049362">
        <ele>146.0</ele>
        <time>2021-03-03T10:19:18Z</time>
      </trkpt>
      <trkpt lat="41.48499665" lon="2.07048997">
        <ele>146.0</ele>
        <time>2021-03-03T10:19:19Z</time>
      </trkpt>
      <trkpt lat="41.48502731" lon="2.07048698">
        <ele>147.0</ele>
        <time>2021-03-03T10:19:20Z</time>
      </trkpt>
      <trkpt lat="41.48505898" lon="2.07048399">
        <ele>147.0</ele>
        <time>2021-03-03T10:19:21Z</time>
      </trkpt>
      <trkpt lat="41.48508863" lon="2.07048065">
        <ele>148.0</ele>
        <time>2021-03-03T10:19:22Z</time>
      </trkpt>
      <trkpt lat="41.4851153" lon="2.070477">
        <ele>148.0</ele>
        <time>2021-03-03T10:19:23Z</time>
      </trkpt>
      <trkpt lat="41.48514062" lon="2.07047334">
        <ele>148.0</ele>
        <time>2021-03-03T10:19:24Z</time>
      </trkpt>
      <trkpt lat="41.48516829" lon="2.07047301">
        <ele>149.0</ele>
        <time>2021-03-03T10:19:25Z</time>
      </trkpt>
      <trkpt lat="41.48519629" lon="2.07047334">
        <ele>149.0</ele>
        <time>2021-03-03T10:19:26Z</time>
      </trkpt>
      <trkpt lat="41.48522261" lon="2.07047433">
        <ele>150.0</ele>
        <time>2021-03-03T10:19:27Z</time>
      </trkpt>
      <trkpt lat="41.4852496" lon="2.07047433">
        <ele>150.0</ele>
        <time>2021-03-03T10:19:28Z</time>
      </trkpt>
      <trkpt lat="41.48527727" lon="2.07047134">
        <ele>150.0</ele>
        <time>2021-03-03T10:19:29Z</time>
      </trkpt>
      <trkpt lat="41.48530259" lon="2.07046802">
        <ele>150.0</ele>
        <time>2021-03-03T10:19:30Z</time>
      </trkpt>
      <trkpt lat="41.48532693" lon="2.07046402">
        <ele>151.0</ele>
        <time>2021-03-03T10:19:31Z</time>
      </trkpt>
      <trkpt lat="41.48535025" lon="2.07046136">
        <ele>151.0</ele>
        <time>2021-03-03T10:19:32Z</time>
      </trkpt>
      <trkpt lat="41.48537225" lon="2.07046069">
        <ele>152.0</ele>
        <time>2021-03-03T10:19:33Z</time>
      </trkpt>
      <trkpt lat="41.48539325" lon="2.07046069">
        <ele>152.0</ele>
        <time>2021-03-03T10:19:34Z</time>
      </trkpt>
      <trkpt lat="41.48541457" lon="2.07046069">
        <ele>152.0</ele>
        <time>2021-03-03T10:19:35Z</time>
      </trkpt>
      <trkpt lat="41.48543723" lon="2.07046037">
        <ele>152.0</ele>
        <time>2021-03-03T10:19:36Z</time>
      </trkpt>
      <trkpt lat="41.48546123" lon="2.07046004">
        <ele>153.0</ele>
        <time>2021-03-03T10:19:37Z</time>
      </trkpt>
      <trkpt lat="41.48548655" lon="2.07045905">
        <ele>153.0</ele>
        <time>2021-03-03T10:19:38Z</time>
      </trkpt>
      <trkpt lat="41.48551288" lon="2.07045871">
        <ele>153.0</ele>
        <time>2021-03-03T10:19:39Z</time>
      </trkpt>
      <trkpt lat="41.48554021" lon="2.07045871">
        <ele>153.0</ele>
        <time>2021-03-03T10:19:40Z</time>
      </trkpt>
      <trkpt lat="41.48556521" lon="2.07045937">
        <ele>154.0</ele>
        <time>2021-03-03T10:19:41Z</time>
      </trkpt>
      <trkpt lat="41.48559187" lon="2.07046037">
        <ele>154.0</ele>
        <time>2021-03-03T10:19:42Z</time>
      </trkpt>
      <trkpt lat="41.48561853" lon="2.07046103">
        <ele>154.0</ele>
        <time>2021-03-03T10:19:43Z</time>
      </trkpt>
      <trkpt lat="41.48564586" lon="2.07046203">
        <ele>154.0</ele>
        <time>2021-03-03T10:19:44Z</time>
      </trkpt>
      <trkpt lat="41.48567352" lon="2.07046235">
        <ele>155.0</ele>
        <time>2021-03-03T10:19:45Z</time>
      </trkpt>
      <trkpt lat="41.48570086" lon="2.07046235">
        <ele>155.0</ele>
        <time>2021-03-03T10:19:46Z</time>
      </trkpt>
      <trkpt lat="41.48572886" lon="2.07046235">
        <ele>155.0</ele>
        <time>2021-03-03T10:19:47Z</time>
      </trkpt>
      <trkpt lat="41.48575718" lon="2.07046235">
        <ele>155.0</ele>
        <time>2021-03-03T10:19:48Z</time>
      </trkpt>
      <trkpt lat="41.48578417" lon="2.07046301">
        <ele>156.0</ele>
        <time>2021-03-03T10:19:49Z</time>
      </trkpt>
      <trkpt lat="41.4858135" lon="2.07046401">
        <ele>156.0</ele>
        <time>2021-03-03T10:19:50Z</time>
      </trkpt>
      <trkpt lat="41.48584283" lon="2.07046501">
        <ele>156.0</ele>
        <time>2021-03-03T10:19:51Z</time>
      </trkpt>
      <trkpt lat="41.48587216" lon="2.07046533">
        <ele>156.0</ele>
        <time>2021-03-03T10:19:52Z</time>
      </trkpt>
      <trkpt lat="41.48590048" lon="2.07046434">
        <ele>157.0</ele>
        <time>2021-03-03T10:19:53Z</time>
      </trkpt>
      <trkpt lat="41.48592848" lon="2.07046367">
        <ele>157.0</ele>
        <time>2021-03-03T10:19:54Z</time>
      </trkpt>
      <trkpt lat="41.48595747" lon="2.07046335">
        <ele>157.0</ele>
        <time>2021-03-03T10:19:55Z</time>
      </trkpt>
      <trkpt lat="41.4859868" lon="2.07046203">
        <ele>157.0</ele>
        <time>2021-03-03T10:19:56Z</time>
      </trkpt>
      <trkpt lat="41.48601413" lon="2.07046069">
        <ele>157.0</ele>
        <time>2021-03-03T10:19:57Z</time>
      </trkpt>
      <trkpt lat="41.48604279" lon="2.0704597">
        <ele>157.0</ele>
        <time>2021-03-03T10:19:58Z</time>
      </trkpt>
      <trkpt lat="41.48607445" lon="2.07045937">
        <ele>158.0</ele>
        <time>2021-03-03T10:19:59Z</time>
      </trkpt>
      <trkpt lat="41.48610711" lon="2.07046037">
        <ele>158.0</ele>
        <time>2021-03-03T10:20:00Z</time>
      </trkpt>
      <trkpt lat="41.48614011" lon="2.07046169">
        <ele>158.0</ele>
        <time>2021-03-03T10:20:01Z</time>
      </trkpt>
      <trkpt lat="41.48617443" lon="2.07046203">
        <ele>158.0</ele>
        <time>2021-03-03T10:20:02Z</time>
      </trkpt>
      <trkpt lat="41.48620977" lon="2.07046103">
        <ele>158.0</ele>
        <time>2021-03-03T10:20:03Z</time>
      </trkpt>
      <trkpt lat="41.48624509" lon="2.07045936">
        <ele>158.0</ele>
        <time>2021-03-03T10:20:04Z</time>
      </trkpt>
      <trkpt lat="41.48628109" lon="2.07045836">
        <ele>158.0</ele>
        <time>2021-03-03T10:20:05Z</time>
      </trkpt>
      <trkpt lat="41.48631642" lon="2.07045704">
        <ele>158.0</ele>
        <time>2021-03-03T10:20:06Z</time>
      </trkpt>
      <trkpt lat="41.48634875" lon="2.07045537">
        <ele>158.0</ele>
        <time>2021-03-03T10:20:07Z</time>
      </trkpt>
      <trkpt lat="41.48637908" lon="2.07045271">
        <ele>159.0</ele>
        <time>2021-03-03T10:20:08Z</time>
      </trkpt>
      <trkpt lat="41.48640941" lon="2.07044738">
        <ele>159.0</ele>
        <time>2021-03-03T10:20:09Z</time>
      </trkpt>
      <trkpt lat="41.48643907" lon="2.07043472">
        <ele>159.0</ele>
        <time>2021-03-03T10:20:10Z</time>
      </trkpt>
      <trkpt lat="41.48646607" lon="2.07041439">
        <ele>159.0</ele>
        <time>2021-03-03T10:20:11Z</time>
      </trkpt>
      <trkpt lat="41.48649139" lon="2.07038607">
        <ele>159.0</ele>
        <time>2021-03-03T10:20:12Z</time>
      </trkpt>
      <trkpt lat="41.48651339" lon="2.07035107">
        <ele>159.0</ele>
        <time>2021-03-03T10:20:13Z</time>
      </trkpt>
      <trkpt lat="41.48653238" lon="2.07031374">
        <ele>159.0</ele>
        <time>2021-03-03T10:20:14Z</time>
      </trkpt>
      <trkpt lat="41.48654905" lon="2.07026708">
        <ele>159.0</ele>
        <time>2021-03-03T10:20:15Z</time>
      </trkpt>
      <trkpt lat="41.48656305" lon="2.07021508">
        <ele>159.0</ele>
        <time>2021-03-03T10:20:15Z</time>
      </trkpt>
      <trkpt lat="41.48657405" lon="2.07016042">
        <ele>159.0</ele>
        <time>2021-03-03T10:20:16Z</time>
      </trkpt>
      <trkpt lat="41.48658205" lon="2.0701031">
        <ele>159.0</ele>
        <time>2021-03-03T10:20:17Z</time>
      </trkpt>
      <trkpt lat="41.48658938" lon="2.07004776">
        <ele>159.0</ele>
        <time>2021-03-03T10:20:18Z</time>
      </trkpt>
      <trkpt lat="41.48659772" lon="2.06998444">
        <ele>159.0</ele>
        <time>2021-03-03T10:20:19Z</time>
      </trkpt>
      <trkpt lat="41.48660571" lon="2.06991912">
        <ele>159.0</ele>
        <time>2021-03-03T10:20:20Z</time>
      </trkpt>
      <trkpt lat="41.48661237" lon="2.06985645">
        <ele>159.0</ele>
        <time>2021-03-03T10:20:21Z</time>
      </trkpt>
      <trkpt lat="41.48661936" lon="2.06979012">
        <ele>159.0</ele>
        <time>2021-03-03T10:20:22Z</time>
      </trkpt>
      <trkpt lat="41.4866267" lon="2.06971545">
        <ele>159.0</ele>
        <time>2021-03-03T10:20:23Z</time>
      </trkpt>
      <trkpt lat="41.48663369" lon="2.06964012">
        <ele>159.0</ele>
        <time>2021-03-03T10:20:24Z</time>
      </trkpt>
      <trkpt lat="41.48664102" lon="2.06956413">
        <ele>159.0</ele>
        <time>2021-03-03T10:20:25Z</time>
      </trkpt>
      <trkpt lat="41.48664835" lon="2.06948547">
        <ele>158.0</ele>
        <time>2021-03-03T10:20:26Z</time>
      </trkpt>
      <trkpt lat="41.48665534" lon="2.06940514">
        <ele>158.0</ele>
        <time>2021-03-03T10:20:27Z</time>
      </trkpt>
      <trkpt lat="41.48666334" lon="2.06932415">
        <ele>158.0</ele>
        <time>2021-03-03T10:20:28Z</time>
      </trkpt>
      <trkpt lat="41.486672" lon="2.06924149">
        <ele>158.0</ele>
        <time>2021-03-03T10:20:29Z</time>
      </trkpt>
      <trkpt lat="41.48668233" lon="2.06915782">
        <ele>158.0</ele>
        <time>2021-03-03T10:20:30Z</time>
      </trkpt>
      <trkpt lat="41.48669333" lon="2.06907183">
        <ele>157.0</ele>
        <time>2021-03-03T10:20:31Z</time>
      </trkpt>
      <trkpt lat="41.48670699" lon="2.06898417">
        <ele>157.0</ele>
        <time>2021-03-03T10:20:32Z</time>
      </trkpt>
      <trkpt lat="41.48672099" lon="2.06889517">
        <ele>157.0</ele>
        <time>2021-03-03T10:20:33Z</time>
      </trkpt>
      <trkpt lat="41.48673499" lon="2.06880517">
        <ele>157.0</ele>
        <time>2021-03-03T10:20:34Z</time>
      </trkpt>
      <trkpt lat="41.48675232" lon="2.06871683">
        <ele>156.0</ele>
        <time>2021-03-03T10:20:35Z</time>
      </trkpt>
      <trkpt lat="41.48677565" lon="2.06863317">
        <ele>156.0</ele>
        <time>2021-03-03T10:20:36Z</time>
      </trkpt>
      <trkpt lat="41.48680631" lon="2.06855818">
        <ele>156.0</ele>
        <time>2021-03-03T10:20:37Z</time>
      </trkpt>
      <trkpt lat="41.4868443" lon="2.06849118">
        <ele>156.0</ele>
        <time>2021-03-03T10:20:38Z</time>
      </trkpt>
      <trkpt lat="41.48688429" lon="2.06842885">
        <ele>156.0</ele>
        <time>2021-03-03T10:20:39Z</time>
      </trkpt>
      <trkpt lat="41.48692329" lon="2.06836785">
        <ele>156.0</ele>
        <time>2021-03-03T10:20:40Z</time>
      </trkpt>
      <trkpt lat="41.48695996" lon="2.06830452">
        <ele>156.0</ele>
        <time>2021-03-03T10:20:41Z</time>
      </trkpt>
      <trkpt lat="41.48699529" lon="2.06824153">
        <ele>156.0</ele>
        <time>2021-03-03T10:20:42Z</time>
      </trkpt>
      <trkpt lat="41.48703295" lon="2.06818387">
        <ele>156.0</ele>
        <time>2021-03-03T10:20:43Z</time>
      </trkpt>
      <trkpt lat="41.48707328" lon="2.06813555">
        <ele>156.0</ele>
        <time>2021-03-03T10:20:44Z</time>
      </trkpt>
      <trkpt lat="41.48711761" lon="2.06809588">
        <ele>156.0</ele>
        <time>2021-03-03T10:20:45Z</time>
      </trkpt>
      <trkpt lat="41.48716526" lon="2.06806355">
        <ele>156.0</ele>
        <time>2021-03-03T10:20:46Z</time>
      </trkpt>
      <trkpt lat="41.48721526" lon="2.06803589">
        <ele>156.0</ele>
        <time>2021-03-03T10:20:47Z</time>
      </trkpt>
      <trkpt lat="41.48726726" lon="2.06801324">
        <ele>156.0</ele>
        <time>2021-03-03T10:20:48Z</time>
      </trkpt>
      <trkpt lat="41.48731892" lon="2.0679939">
        <ele>156.0</ele>
        <time>2021-03-03T10:20:49Z</time>
      </trkpt>
      <trkpt lat="41.48737091" lon="2.06797658">
        <ele>156.0</ele>
        <time>2021-03-03T10:20:50Z</time>
      </trkpt>
      <trkpt lat="41.48742358" lon="2.06796058">
        <ele>156.0</ele>
        <time>2021-03-03T10:20:51Z</time>
      </trkpt>
      <trkpt lat="41.48747523" lon="2.06794558">
        <ele>156.0</ele>
        <time>2021-03-03T10:20:52Z</time>
      </trkpt>
      <trkpt lat="41.48752757" lon="2.06793026">
        <ele>157.0</ele>
        <time>2021-03-03T10:20:53Z</time>
      </trkpt>
      <trkpt lat="41.48757856" lon="2.06791592">
        <ele>157.0</ele>
        <time>2021-03-03T10:20:54Z</time>
      </trkpt>
      <trkpt lat="41.48762822" lon="2.06790127">
        <ele>158.0</ele>
        <time>2021-03-03T10:20:55Z</time>
      </trkpt>
      <trkpt lat="41.48767355" lon="2.06788793">
        <ele>158.0</ele>
        <time>2021-03-03T10:20:56Z</time>
      </trkpt>
      <trkpt lat="41.48772254" lon="2.06787361">
        <ele>158.0</ele>
        <time>2021-03-03T10:20:57Z</time>
      </trkpt>
      <trkpt lat="41.4877712" lon="2.06786029">
        <ele>158.0</ele>
        <time>2021-03-03T10:20:58Z</time>
      </trkpt>
      <trkpt lat="41.48781986" lon="2.06784695">
        <ele>159.0</ele>
        <time>2021-03-03T10:20:59Z</time>
      </trkpt>
      <trkpt lat="41.48786419" lon="2.06783395">
        <ele>159.0</ele>
        <time>2021-03-03T10:21:00Z</time>
      </trkpt>
      <trkpt lat="41.48790852" lon="2.0678223">
        <ele>159.0</ele>
        <time>2021-03-03T10:21:01Z</time>
      </trkpt>
      <trkpt lat="41.48795552" lon="2.06781596">
        <ele>159.0</ele>
        <time>2021-03-03T10:21:02Z</time>
      </trkpt>
      <trkpt lat="41.48799952" lon="2.06781795">
        <ele>159.0</ele>
        <time>2021-03-03T10:21:03Z</time>
      </trkpt>
      <trkpt lat="41.48804118" lon="2.06783062">
        <ele>159.0</ele>
        <time>2021-03-03T10:21:04Z</time>
      </trkpt>
      <trkpt lat="41.48807951" lon="2.06784894">
        <ele>160.0</ele>
        <time>2021-03-03T10:21:05Z</time>
      </trkpt>
      <trkpt lat="41.48811983" lon="2.06787128">
        <ele>160.0</ele>
        <time>2021-03-03T10:21:06Z</time>
      </trkpt>
      <trkpt lat="41.4881625" lon="2.06789661">
        <ele>160.0</ele>
        <time>2021-03-03T10:21:07Z</time>
      </trkpt>
      <trkpt lat="41.48820849" lon="2.06791827">
        <ele>160.0</ele>
        <time>2021-03-03T10:21:08Z</time>
      </trkpt>
      <trkpt lat="41.48826149" lon="2.0679316">
        <ele>160.0</ele>
        <time>2021-03-03T10:21:09Z</time>
      </trkpt>
      <trkpt lat="41.48831115" lon="2.06793492">
        <ele>160.0</ele>
        <time>2021-03-03T10:21:10Z</time>
      </trkpt>
      <trkpt lat="41.48836414" lon="2.06792227">
        <ele>160.0</ele>
        <time>2021-03-03T10:21:11Z</time>
      </trkpt>
      <trkpt lat="41.48841448" lon="2.06789728">
        <ele>160.0</ele>
        <time>2021-03-03T10:21:12Z</time>
      </trkpt>
      <trkpt lat="41.48846114" lon="2.06786795">
        <ele>160.0</ele>
        <time>2021-03-03T10:21:13Z</time>
      </trkpt>
      <trkpt lat="41.48851414" lon="2.06783295">
        <ele>160.0</ele>
        <time>2021-03-03T10:21:14Z</time>
      </trkpt>
      <trkpt lat="41.48856947" lon="2.06780129">
        <ele>160.0</ele>
        <time>2021-03-03T10:21:15Z</time>
      </trkpt>
      <trkpt lat="41.4886268" lon="2.06777496">
        <ele>160.0</ele>
        <time>2021-03-03T10:21:16Z</time>
      </trkpt>
      <trkpt lat="41.48868779" lon="2.06775464">
        <ele>160.0</ele>
        <time>2021-03-03T10:21:17Z</time>
      </trkpt>
      <trkpt lat="41.48875146" lon="2.06773864">
        <ele>160.0</ele>
        <time>2021-03-03T10:21:18Z</time>
      </trkpt>
      <trkpt lat="41.48881512" lon="2.06772697">
        <ele>160.0</ele>
        <time>2021-03-03T10:21:19Z</time>
      </trkpt>
      <trkpt lat="41.48888011" lon="2.06771798">
        <ele>160.0</ele>
        <time>2021-03-03T10:21:20Z</time>
      </trkpt>
      <trkpt lat="41.48894544" lon="2.06771133">
        <ele>160.0</ele>
        <time>2021-03-03T10:21:21Z</time>
      </trkpt>
      <trkpt lat="41.48901143" lon="2.06770566">
        <ele>160.0</ele>
        <time>2021-03-03T10:21:22Z</time>
      </trkpt>
      <trkpt lat="41.48907676" lon="2.06770033">
        <ele>160.0</ele>
        <time>2021-03-03T10:21:23Z</time>
      </trkpt>
      <trkpt lat="41.48914175" lon="2.06769534">
        <ele>160.0</ele>
        <time>2021-03-03T10:21:24Z</time>
      </trkpt>
      <trkpt lat="41.48920608" lon="2.06768967">
        <ele>160.0</ele>
        <time>2021-03-03T10:21:25Z</time>
      </trkpt>
      <trkpt lat="41.48927007" lon="2.06768468">
        <ele>160.0</ele>
        <time>2021-03-03T10:21:26Z</time>
      </trkpt>
      <trkpt lat="41.48933341" lon="2.06768135">
        <ele>160.0</ele>
        <time>2021-03-03T10:21:27Z</time>
      </trkpt>
      <trkpt lat="41.4893964" lon="2.06767801">
        <ele>160.0</ele>
        <time>2021-03-03T10:21:28Z</time>
      </trkpt>
      <trkpt lat="41.48945939" lon="2.06767536">
        <ele>160.0</ele>
        <time>2021-03-03T10:21:29Z</time>
      </trkpt>
      <trkpt lat="41.48952172" lon="2.06767269">
        <ele>160.0</ele>
        <time>2021-03-03T10:21:30Z</time>
      </trkpt>
      <trkpt lat="41.48958371" lon="2.06767003">
        <ele>160.0</ele>
        <time>2021-03-03T10:21:31Z</time>
      </trkpt>
      <trkpt lat="41.48964538" lon="2.0676667">
        <ele>160.0</ele>
        <time>2021-03-03T10:21:32Z</time>
      </trkpt>
      <trkpt lat="41.4897057" lon="2.06766271">
        <ele>160.0</ele>
        <time>2021-03-03T10:21:33Z</time>
      </trkpt>
      <trkpt lat="41.48976502" lon="2.06765938">
        <ele>160.0</ele>
        <time>2021-03-03T10:21:34Z</time>
      </trkpt>
      <trkpt lat="41.48982168" lon="2.06765838">
        <ele>160.0</ele>
        <time>2021-03-03T10:21:35Z</time>
      </trkpt>
      <trkpt lat="41.48987601" lon="2.06766271">
        <ele>160.0</ele>
        <time>2021-03-03T10:21:36Z</time>
      </trkpt>
      <trkpt lat="41.489926" lon="2.06767403">
        <ele>160.0</ele>
        <time>2021-03-03T10:21:37Z</time>
      </trkpt>
      <trkpt lat="41.48997034" lon="2.06769502">
        <ele>160.0</ele>
        <time>2021-03-03T10:21:38Z</time>
      </trkpt>
      <trkpt lat="41.49000934" lon="2.06772368">
        <ele>160.0</ele>
        <time>2021-03-03T10:21:39Z</time>
      </trkpt>
      <trkpt lat="41.490045" lon="2.06776068">
        <ele>161.0</ele>
        <time>2021-03-03T10:21:40Z</time>
      </trkpt>
      <trkpt lat="41.49007867" lon="2.067803">
        <ele>161.0</ele>
        <time>2021-03-03T10:21:41Z</time>
      </trkpt>
      <trkpt lat="41.49011266" lon="2.06784667">
        <ele>161.0</ele>
        <time>2021-03-03T10:21:42Z</time>
      </trkpt>
      <trkpt lat="41.49014933" lon="2.06789033">
        <ele>161.0</ele>
        <time>2021-03-03T10:21:43Z</time>
      </trkpt>
      <trkpt lat="41.49018832" lon="2.06793198">
        <ele>161.0</ele>
        <time>2021-03-03T10:21:44Z</time>
      </trkpt>
      <trkpt lat="41.49022965" lon="2.06797098">
        <ele>161.0</ele>
        <time>2021-03-03T10:21:45Z</time>
      </trkpt>
      <trkpt lat="41.49027332" lon="2.06800431">
        <ele>161.0</ele>
        <time>2021-03-03T10:21:46Z</time>
      </trkpt>
      <trkpt lat="41.49031897" lon="2.06803131">
        <ele>162.0</ele>
        <time>2021-03-03T10:21:47Z</time>
      </trkpt>
      <trkpt lat="41.49036331" lon="2.0680503">
        <ele>162.0</ele>
        <time>2021-03-03T10:21:48Z</time>
      </trkpt>
      <trkpt lat="41.4904103" lon="2.06806096">
        <ele>162.0</ele>
        <time>2021-03-03T10:21:49Z</time>
      </trkpt>
      <trkpt lat="41.49046095" lon="2.06806162">
        <ele>162.0</ele>
        <time>2021-03-03T10:21:50Z</time>
      </trkpt>
      <trkpt lat="41.49050962" lon="2.06805362">
        <ele>162.0</ele>
        <time>2021-03-03T10:21:51Z</time>
      </trkpt>
      <trkpt lat="41.49055661" lon="2.06803762">
        <ele>162.0</ele>
        <time>2021-03-03T10:21:52Z</time>
      </trkpt>
      <trkpt lat="41.49059794" lon="2.0680163">
        <ele>162.0</ele>
        <time>2021-03-03T10:21:53Z</time>
      </trkpt>
      <trkpt lat="41.4906406" lon="2.06798463">
        <ele>162.0</ele>
        <time>2021-03-03T10:21:54Z</time>
      </trkpt>
      <trkpt lat="41.49067893" lon="2.06794631">
        <ele>162.0</ele>
        <time>2021-03-03T10:21:55Z</time>
      </trkpt>
      <trkpt lat="41.4907126" lon="2.06790131">
        <ele>162.0</ele>
        <time>2021-03-03T10:21:56Z</time>
      </trkpt>
      <trkpt lat="41.49074027" lon="2.06785097">
        <ele>162.0</ele>
        <time>2021-03-03T10:21:57Z</time>
      </trkpt>
      <trkpt lat="41.49076359" lon="2.06779698">
        <ele>162.0</ele>
        <time>2021-03-03T10:21:58Z</time>
      </trkpt>
      <trkpt lat="41.49078091" lon="2.06773933">
        <ele>163.0</ele>
        <time>2021-03-03T10:21:59Z</time>
      </trkpt>
      <trkpt lat="41.49079191" lon="2.06767934">
        <ele>163.0</ele>
        <time>2021-03-03T10:22:00Z</time>
      </trkpt>
      <trkpt lat="41.49079758" lon="2.067618">
        <ele>163.0</ele>
        <time>2021-03-03T10:22:01Z</time>
      </trkpt>
      <trkpt lat="41.49079991" lon="2.06755735">
        <ele>163.0</ele>
        <time>2021-03-03T10:22:02Z</time>
      </trkpt>
      <trkpt lat="41.49080191" lon="2.06749701">
        <ele>164.0</ele>
        <time>2021-03-03T10:22:03Z</time>
      </trkpt>
      <trkpt lat="41.49080758" lon="2.06743802">
        <ele>164.0</ele>
        <time>2021-03-03T10:22:04Z</time>
      </trkpt>
      <trkpt lat="41.49081924" lon="2.06738337">
        <ele>164.0</ele>
        <time>2021-03-03T10:22:05Z</time>
      </trkpt>
      <trkpt lat="41.49083656" lon="2.06733303">
        <ele>164.0</ele>
        <time>2021-03-03T10:22:06Z</time>
      </trkpt>
      <trkpt lat="41.49085889" lon="2.06728371">
        <ele>164.0</ele>
        <time>2021-03-03T10:22:07Z</time>
      </trkpt>
      <trkpt lat="41.49088255" lon="2.06723439">
        <ele>164.0</ele>
        <time>2021-03-03T10:22:08Z</time>
      </trkpt>
      <trkpt lat="41.49090554" lon="2.06718239">
        <ele>164.0</ele>
        <time>2021-03-03T10:22:09Z</time>
      </trkpt>
      <trkpt lat="41.49092487" lon="2.06713139">
        <ele>164.0</ele>
        <time>2021-03-03T10:22:10Z</time>
      </trkpt>
      <trkpt lat="41.49093987" lon="2.06707173">
        <ele>164.0</ele>
        <time>2021-03-03T10:22:11Z</time>
      </trkpt>
      <trkpt lat="41.4909502" lon="2.06700973">
        <ele>165.0</ele>
        <time>2021-03-03T10:22:12Z</time>
      </trkpt>
      <trkpt lat="41.49095686" lon="2.06694573">
        <ele>165.0</ele>
        <time>2021-03-03T10:22:13Z</time>
      </trkpt>
      <trkpt lat="41.49096285" lon="2.06688041">
        <ele>165.0</ele>
        <time>2021-03-03T10:22:14Z</time>
      </trkpt>
      <trkpt lat="41.49096819" lon="2.06681508">
        <ele>165.0</ele>
        <time>2021-03-03T10:22:15Z</time>
      </trkpt>
      <trkpt lat="41.49097518" lon="2.06675209">
        <ele>165.0</ele>
        <time>2021-03-03T10:22:16Z</time>
      </trkpt>
      <trkpt lat="41.49098618" lon="2.06669276">
        <ele>165.0</ele>
        <time>2021-03-03T10:22:17Z</time>
      </trkpt>
      <trkpt lat="41.49100083" lon="2.06664143">
        <ele>165.0</ele>
        <time>2021-03-03T10:22:18Z</time>
      </trkpt>
      <trkpt lat="41.4910245" lon="2.06659444">
        <ele>165.0</ele>
        <time>2021-03-03T10:22:19Z</time>
      </trkpt>
      <trkpt lat="41.49105349" lon="2.06655511">
        <ele>165.0</ele>
        <time>2021-03-03T10:22:20Z</time>
      </trkpt>
      <trkpt lat="41.49108716" lon="2.06652311">
        <ele>165.0</ele>
        <time>2021-03-03T10:22:21Z</time>
      </trkpt>
      <trkpt lat="41.49112115" lon="2.06649812">
        <ele>165.0</ele>
        <time>2021-03-03T10:22:22Z</time>
      </trkpt>
      <trkpt lat="41.49116047" lon="2.06647512">
        <ele>165.0</ele>
        <time>2021-03-03T10:22:23Z</time>
      </trkpt>
      <trkpt lat="41.49120046" lon="2.06645512">
        <ele>166.0</ele>
        <time>2021-03-03T10:22:24Z</time>
      </trkpt>
      <trkpt lat="41.49124045" lon="2.06643713">
        <ele>166.0</ele>
        <time>2021-03-03T10:22:25Z</time>
      </trkpt>
      <trkpt lat="41.49127945" lon="2.06641981">
        <ele>167.0</ele>
        <time>2021-03-03T10:22:26Z</time>
      </trkpt>
      <trkpt lat="41.49131545" lon="2.06640448">
        <ele>167.0</ele>
        <time>2021-03-03T10:22:27Z</time>
      </trkpt>
      <trkpt lat="41.49135544" lon="2.06638814">
        <ele>167.0</ele>
        <time>2021-03-03T10:22:28Z</time>
      </trkpt>
      <trkpt lat="41.49139611" lon="2.06637182">
        <ele>167.0</ele>
        <time>2021-03-03T10:22:29Z</time>
      </trkpt>
      <trkpt lat="41.4914361" lon="2.06635582">
        <ele>168.0</ele>
        <time>2021-03-03T10:22:30Z</time>
      </trkpt>
      <trkpt lat="41.49147309" lon="2.06634115">
        <ele>168.0</ele>
        <time>2021-03-03T10:22:31Z</time>
      </trkpt>
      <trkpt lat="41.49151008" lon="2.06632716">
        <ele>168.0</ele>
        <time>2021-03-03T10:22:32Z</time>
      </trkpt>
      <trkpt lat="41.49155041" lon="2.0663115">
        <ele>168.0</ele>
        <time>2021-03-03T10:22:33Z</time>
      </trkpt>
      <trkpt lat="41.4915894" lon="2.0662955">
        <ele>168.0</ele>
        <time>2021-03-03T10:22:34Z</time>
      </trkpt>
      <trkpt lat="41.4916274" lon="2.06627984">
        <ele>168.0</ele>
        <time>2021-03-03T10:22:35Z</time>
      </trkpt>
      <trkpt lat="41.4916664" lon="2.06626417">
        <ele>169.0</ele>
        <time>2021-03-03T10:22:36Z</time>
      </trkpt>
      <trkpt lat="41.49170606" lon="2.06624785">
        <ele>169.0</ele>
        <time>2021-03-03T10:22:37Z</time>
      </trkpt>
      <trkpt lat="41.49174605" lon="2.06623152">
        <ele>169.0</ele>
        <time>2021-03-03T10:22:38Z</time>
      </trkpt>
      <trkpt lat="41.49178637" lon="2.06621519">
        <ele>169.0</ele>
        <time>2021-03-03T10:22:39Z</time>
      </trkpt>
      <trkpt lat="41.49182504" lon="2.06619953">
        <ele>169.0</ele>
        <time>2021-03-03T10:22:40Z</time>
      </trkpt>
      <trkpt lat="41.4918667" lon="2.06618387">
        <ele>169.0</ele>
        <time>2021-03-03T10:22:41Z</time>
      </trkpt>
      <trkpt lat="41.49190736" lon="2.06616787">
        <ele>169.0</ele>
        <time>2021-03-03T10:22:42Z</time>
      </trkpt>
      <trkpt lat="41.49194836" lon="2.06615187">
        <ele>170.0</ele>
        <time>2021-03-03T10:22:43Z</time>
      </trkpt>
      <trkpt lat="41.49198969" lon="2.06613555">
        <ele>170.0</ele>
        <time>2021-03-03T10:22:44Z</time>
      </trkpt>
      <trkpt lat="41.49203102" lon="2.06611888">
        <ele>170.0</ele>
        <time>2021-03-03T10:22:45Z</time>
      </trkpt>
      <trkpt lat="41.49207268" lon="2.06610256">
        <ele>170.0</ele>
        <time>2021-03-03T10:22:46Z</time>
      </trkpt>
      <trkpt lat="41.49211402" lon="2.06608656">
        <ele>170.0</ele>
        <time>2021-03-03T10:22:47Z</time>
      </trkpt>
      <trkpt lat="41.49215568" lon="2.06606956">
        <ele>170.0</ele>
        <time>2021-03-03T10:22:48Z</time>
      </trkpt>
      <trkpt lat="41.49219735" lon="2.06605323">
        <ele>170.0</ele>
        <time>2021-03-03T10:22:49Z</time>
      </trkpt>
      <trkpt lat="41.49223834" lon="2.0660369">
        <ele>170.0</ele>
        <time>2021-03-03T10:22:50Z</time>
      </trkpt>
      <trkpt lat="41.49227967" lon="2.0660209">
        <ele>170.0</ele>
        <time>2021-03-03T10:22:51Z</time>
      </trkpt>
      <trkpt lat="41.49232033" lon="2.06600458">
        <ele>170.0</ele>
        <time>2021-03-03T10:22:52Z</time>
      </trkpt>
      <trkpt lat="41.49235933" lon="2.06598924">
        <ele>171.0</ele>
        <time>2021-03-03T10:22:53Z</time>
      </trkpt>
      <trkpt lat="41.49240199" lon="2.06597258">
        <ele>171.0</ele>
        <time>2021-03-03T10:22:54Z</time>
      </trkpt>
      <trkpt lat="41.49244431" lon="2.06595592">
        <ele>171.0</ele>
        <time>2021-03-03T10:22:55Z</time>
      </trkpt>
      <trkpt lat="41.49248397" lon="2.06594059">
        <ele>171.0</ele>
        <time>2021-03-03T10:22:56Z</time>
      </trkpt>
      <trkpt lat="41.49252497" lon="2.06592459">
        <ele>171.0</ele>
        <time>2021-03-03T10:22:57Z</time>
      </trkpt>
      <trkpt lat="41.49256897" lon="2.0659066">
        <ele>171.0</ele>
        <time>2021-03-03T10:22:58Z</time>
      </trkpt>
      <trkpt lat="41.49261162" lon="2.06588893">
        <ele>171.0</ele>
        <time>2021-03-03T10:22:59Z</time>
      </trkpt>
      <trkpt lat="41.49265396" lon="2.06587126">
        <ele>171.0</ele>
        <time>2021-03-03T10:23:00Z</time>
      </trkpt>
      <trkpt lat="41.49269495" lon="2.06585327">
        <ele>172.0</ele>
        <time>2021-03-03T10:23:01Z</time>
      </trkpt>
      <trkpt lat="41.49273561" lon="2.06583627">
        <ele>172.0</ele>
        <time>2021-03-03T10:23:02Z</time>
      </trkpt>
      <trkpt lat="41.49277627" lon="2.06581995">
        <ele>172.0</ele>
        <time>2021-03-03T10:23:03Z</time>
      </trkpt>
      <trkpt lat="41.4928166" lon="2.06580395">
        <ele>172.0</ele>
        <time>2021-03-03T10:23:04Z</time>
      </trkpt>
      <trkpt lat="41.49285659" lon="2.06578795">
        <ele>172.0</ele>
        <time>2021-03-03T10:23:05Z</time>
      </trkpt>
      <trkpt lat="41.49289859" lon="2.06577095">
        <ele>172.0</ele>
        <time>2021-03-03T10:23:06Z</time>
      </trkpt>
      <trkpt lat="41.49294026" lon="2.06575363">
        <ele>173.0</ele>
        <time>2021-03-03T10:23:07Z</time>
      </trkpt>
      <trkpt lat="41.49298192" lon="2.06573663">
        <ele>173.0</ele>
        <time>2021-03-03T10:23:08Z</time>
      </trkpt>
      <trkpt lat="41.49302358" lon="2.06571896">
        <ele>173.0</ele>
        <time>2021-03-03T10:23:09Z</time>
      </trkpt>
      <trkpt lat="41.49306525" lon="2.0657013">
        <ele>173.0</ele>
        <time>2021-03-03T10:23:10Z</time>
      </trkpt>
      <trkpt lat="41.49310658" lon="2.0656833">
        <ele>173.0</ele>
        <time>2021-03-03T10:23:11Z</time>
      </trkpt>
      <trkpt lat="41.49314657" lon="2.06566565">
        <ele>174.0</ele>
        <time>2021-03-03T10:23:12Z</time>
      </trkpt>
      <trkpt lat="41.4931869" lon="2.06564865">
        <ele>174.0</ele>
        <time>2021-03-03T10:23:13Z</time>
      </trkpt>
      <trkpt lat="41.49322456" lon="2.06563298">
        <ele>174.0</ele>
        <time>2021-03-03T10:23:14Z</time>
      </trkpt>
      <trkpt lat="41.49326389" lon="2.06561766">
        <ele>174.0</ele>
        <time>2021-03-03T10:23:15Z</time>
      </trkpt>
      <trkpt lat="41.49330589" lon="2.06560032">
        <ele>175.0</ele>
        <time>2021-03-03T10:23:16Z</time>
      </trkpt>
      <trkpt lat="41.49334689" lon="2.06558333">
        <ele>175.0</ele>
        <time>2021-03-03T10:23:17Z</time>
      </trkpt>
      <trkpt lat="41.49338421" lon="2.06556867">
        <ele>175.0</ele>
        <time>2021-03-03T10:23:18Z</time>
      </trkpt>
      <trkpt lat="41.49342088" lon="2.06555467">
        <ele>175.0</ele>
        <time>2021-03-03T10:23:19Z</time>
      </trkpt>
      <trkpt lat="41.4934602" lon="2.06554001">
        <ele>176.0</ele>
        <time>2021-03-03T10:23:20Z</time>
      </trkpt>
      <trkpt lat="41.49349853" lon="2.06552569">
        <ele>176.0</ele>
        <time>2021-03-03T10:23:21Z</time>
      </trkpt>
      <trkpt lat="41.49353586" lon="2.06551235">
        <ele>176.0</ele>
        <time>2021-03-03T10:23:22Z</time>
      </trkpt>
      <trkpt lat="41.49357186" lon="2.06549835">
        <ele>176.0</ele>
        <time>2021-03-03T10:23:23Z</time>
      </trkpt>
      <trkpt lat="41.49360651" lon="2.06548403">
        <ele>177.0</ele>
        <time>2021-03-03T10:23:24Z</time>
      </trkpt>
      <trkpt lat="41.49363951" lon="2.06547004">
        <ele>177.0</ele>
        <time>2021-03-03T10:23:25Z</time>
      </trkpt>
      <trkpt lat="41.49367218" lon="2.06545572">
        <ele>177.0</ele>
        <time>2021-03-03T10:23:26Z</time>
      </trkpt>
      <trkpt lat="41.4937045" lon="2.06544206">
        <ele>177.0</ele>
        <time>2021-03-03T10:23:27Z</time>
      </trkpt>
      <trkpt lat="41.49373616" lon="2.06542806">
        <ele>177.0</ele>
        <time>2021-03-03T10:23:28Z</time>
      </trkpt>
      <trkpt lat="41.49376715" lon="2.06541573">
        <ele>178.0</ele>
        <time>2021-03-03T10:23:29Z</time>
      </trkpt>
      <trkpt lat="41.49379814" lon="2.06540339">
        <ele>178.0</ele>
        <time>2021-03-03T10:23:30Z</time>
      </trkpt>
      <trkpt lat="41.49382913" lon="2.06539174">
        <ele>178.0</ele>
        <time>2021-03-03T10:23:31Z</time>
      </trkpt>
      <trkpt lat="41.4938598" lon="2.06538074">
        <ele>178.0</ele>
        <time>2021-03-03T10:23:32Z</time>
      </trkpt>
      <trkpt lat="41.49388846" lon="2.06537108">
        <ele>178.0</ele>
        <time>2021-03-03T10:23:33Z</time>
      </trkpt>
      <trkpt lat="41.49391745" lon="2.06536376">
        <ele>178.0</ele>
        <time>2021-03-03T10:23:34Z</time>
      </trkpt>
      <trkpt lat="41.49394545" lon="2.06535809">
        <ele>178.0</ele>
        <time>2021-03-03T10:23:35Z</time>
      </trkpt>
      <trkpt lat="41.49396678" lon="2.06535377">
        <ele>178.0</ele>
        <time>2021-03-03T10:23:36Z</time>
      </trkpt>
      <trkpt lat="41.49398178" lon="2.06535043">
        <ele>178.0</ele>
        <time>2021-03-03T10:23:37Z</time>
      </trkpt>
      <trkpt lat="41.4939921" lon="2.06534744">
        <ele>178.0</ele>
        <time>2021-03-03T10:23:38Z</time>
      </trkpt>
      <trkpt lat="41.4940191" lon="2.06533845">
        <ele>179.0</ele>
        <time>2021-03-03T10:23:44Z</time>
      </trkpt>
      <trkpt lat="41.4940191" lon="2.06534012">
        <ele>179.0</ele>
        <time>2021-03-03T10:23:48Z</time>
      </trkpt>
      <trkpt lat="41.49402576" lon="2.06533679">
        <ele>179.0</ele>
        <time>2021-03-03T10:23:52Z</time>
      </trkpt>
      <trkpt lat="41.49402942" lon="2.06533446">
        <ele>179.0</ele>
        <time>2021-03-03T10:23:53Z</time>
      </trkpt>
      <trkpt lat="41.49403776" lon="2.06533147">
        <ele>179.0</ele>
        <time>2021-03-03T10:23:54Z</time>
      </trkpt>
      <trkpt lat="41.49405408" lon="2.06532681">
        <ele>179.0</ele>
        <time>2021-03-03T10:23:55Z</time>
      </trkpt>
      <trkpt lat="41.49407441" lon="2.06532182">
        <ele>179.0</ele>
        <time>2021-03-03T10:23:56Z</time>
      </trkpt>
      <trkpt lat="41.49409907" lon="2.06531748">
        <ele>179.0</ele>
        <time>2021-03-03T10:23:57Z</time>
      </trkpt>
      <trkpt lat="41.49412674" lon="2.06531249">
        <ele>179.0</ele>
        <time>2021-03-03T10:23:58Z</time>
      </trkpt>
      <trkpt lat="41.4941574" lon="2.06530616">
        <ele>179.0</ele>
        <time>2021-03-03T10:23:59Z</time>
      </trkpt>
      <trkpt lat="41.4941934" lon="2.06529884">
        <ele>179.0</ele>
        <time>2021-03-03T10:24:00Z</time>
      </trkpt>
      <trkpt lat="41.49423073" lon="2.06529151">
        <ele>179.0</ele>
        <time>2021-03-03T10:24:01Z</time>
      </trkpt>
      <trkpt lat="41.49427005" lon="2.06528285">
        <ele>179.0</ele>
        <time>2021-03-03T10:24:02Z</time>
      </trkpt>
      <trkpt lat="41.49430737" lon="2.06527386">
        <ele>179.0</ele>
        <time>2021-03-03T10:24:03Z</time>
      </trkpt>
      <trkpt lat="41.49434871" lon="2.06526253">
        <ele>179.0</ele>
        <time>2021-03-03T10:24:04Z</time>
      </trkpt>
      <trkpt lat="41.49439203" lon="2.06525153">
        <ele>179.0</ele>
        <time>2021-03-03T10:24:05Z</time>
      </trkpt>
      <trkpt lat="41.49443703" lon="2.06524153">
        <ele>179.0</ele>
        <time>2021-03-03T10:24:06Z</time>
      </trkpt>
      <trkpt lat="41.4944797" lon="2.06523388">
        <ele>179.0</ele>
        <time>2021-03-03T10:24:07Z</time>
      </trkpt>
      <trkpt lat="41.49452702" lon="2.06522554">
        <ele>179.0</ele>
        <time>2021-03-03T10:24:08Z</time>
      </trkpt>
      <trkpt lat="41.49457402" lon="2.06521655">
        <ele>180.0</ele>
        <time>2021-03-03T10:24:09Z</time>
      </trkpt>
      <trkpt lat="41.49462001" lon="2.0652069">
        <ele>180.0</ele>
        <time>2021-03-03T10:24:10Z</time>
      </trkpt>
      <trkpt lat="41.49466101" lon="2.06519857">
        <ele>180.0</ele>
        <time>2021-03-03T10:24:11Z</time>
      </trkpt>
      <trkpt lat="41.49470133" lon="2.06519157">
        <ele>180.0</ele>
        <time>2021-03-03T10:24:12Z</time>
      </trkpt>
      <trkpt lat="41.49474099" lon="2.06518624">
        <ele>180.0</ele>
        <time>2021-03-03T10:24:13Z</time>
      </trkpt>
      <trkpt lat="41.49477299" lon="2.06518258">
        <ele>180.0</ele>
        <time>2021-03-03T10:24:14Z</time>
      </trkpt>
      <trkpt lat="41.49479631" lon="2.06517993">
        <ele>180.0</ele>
        <time>2021-03-03T10:24:15Z</time>
      </trkpt>
      <trkpt lat="41.49484231" lon="2.06517193">
        <ele>180.0</ele>
        <time>2021-03-03T10:24:17Z</time>
      </trkpt>
      <trkpt lat="41.49484098" lon="2.06517193">
        <ele>180.0</ele>
        <time>2021-03-03T10:24:18Z</time>
      </trkpt>
      <trkpt lat="41.49483565" lon="2.06517026">
        <ele>180.0</ele>
        <time>2021-03-03T10:24:21Z</time>
      </trkpt>
      <trkpt lat="41.49483731" lon="2.06516694">
        <ele>180.0</ele>
        <time>2021-03-03T10:24:24Z</time>
      </trkpt>
      <trkpt lat="41.49483631" lon="2.06516627">
        <ele>180.0</ele>
        <time>2021-03-03T10:24:25Z</time>
      </trkpt>
      <trkpt lat="41.49483466" lon="2.06516495">
        <ele>180.0</ele>
        <time>2021-03-03T10:24:26Z</time>
      </trkpt>
      <trkpt lat="41.494834" lon="2.06516462">
        <ele>180.0</ele>
        <time>2021-03-03T10:24:27Z</time>
      </trkpt>
      <trkpt lat="41.49483432" lon="2.06516429">
        <ele>180.0</ele>
        <time>2021-03-03T10:24:28Z</time>
      </trkpt>
      <trkpt lat="41.49483531" lon="2.06516462">
        <ele>180.0</ele>
        <time>2021-03-03T10:24:29Z</time>
      </trkpt>
      <trkpt lat="41.49484065" lon="2.06516528">
        <ele>180.0</ele>
        <time>2021-03-03T10:24:30Z</time>
      </trkpt>
      <trkpt lat="41.49484364" lon="2.06516396">
        <ele>180.0</ele>
        <time>2021-03-03T10:24:31Z</time>
      </trkpt>
      <trkpt lat="41.49485229" lon="2.06516097">
        <ele>180.0</ele>
        <time>2021-03-03T10:24:32Z</time>
      </trkpt>
      <trkpt lat="41.49486529" lon="2.06515597">
        <ele>180.0</ele>
        <time>2021-03-03T10:24:33Z</time>
      </trkpt>
      <trkpt lat="41.49488595" lon="2.06514931">
        <ele>180.0</ele>
        <time>2021-03-03T10:24:34Z</time>
      </trkpt>
      <trkpt lat="41.49491194" lon="2.06514265">
        <ele>180.0</ele>
        <time>2021-03-03T10:24:35Z</time>
      </trkpt>
      <trkpt lat="41.49493894" lon="2.06513699">
        <ele>180.0</ele>
        <time>2021-03-03T10:24:36Z</time>
      </trkpt>
      <trkpt lat="41.49497126" lon="2.065131">
        <ele>180.0</ele>
        <time>2021-03-03T10:24:37Z</time>
      </trkpt>
      <trkpt lat="41.4950086" lon="2.06512466">
        <ele>180.0</ele>
        <time>2021-03-03T10:24:38Z</time>
      </trkpt>
      <trkpt lat="41.49504725" lon="2.06511766">
        <ele>180.0</ele>
        <time>2021-03-03T10:24:39Z</time>
      </trkpt>
      <trkpt lat="41.49508492" lon="2.06511034">
        <ele>180.0</ele>
        <time>2021-03-03T10:24:40Z</time>
      </trkpt>
      <trkpt lat="41.49512458" lon="2.06510334">
        <ele>180.0</ele>
        <time>2021-03-03T10:24:41Z</time>
      </trkpt>
      <trkpt lat="41.4951659" lon="2.06509567">
        <ele>180.0</ele>
        <time>2021-03-03T10:24:42Z</time>
      </trkpt>
      <trkpt lat="41.49520823" lon="2.06508734">
        <ele>180.0</ele>
        <time>2021-03-03T10:24:43Z</time>
      </trkpt>
      <trkpt lat="41.49525222" lon="2.06507901">
        <ele>180.0</ele>
        <time>2021-03-03T10:24:44Z</time>
      </trkpt>
      <trkpt lat="41.49529689" lon="2.06507068">
        <ele>180.0</ele>
        <time>2021-03-03T10:24:45Z</time>
      </trkpt>
      <trkpt lat="41.49534189" lon="2.06506235">
        <ele>180.0</ele>
        <time>2021-03-03T10:24:46Z</time>
      </trkpt>
      <trkpt lat="41.49539055" lon="2.06505269">
        <ele>181.0</ele>
        <time>2021-03-03T10:24:47Z</time>
      </trkpt>
      <trkpt lat="41.49543854" lon="2.06504269">
        <ele>181.0</ele>
        <time>2021-03-03T10:24:48Z</time>
      </trkpt>
      <trkpt lat="41.49548653" lon="2.06503304">
        <ele>181.0</ele>
        <time>2021-03-03T10:24:49Z</time>
      </trkpt>
      <trkpt lat="41.49553386" lon="2.06502337">
        <ele>181.0</ele>
        <time>2021-03-03T10:24:50Z</time>
      </trkpt>
      <trkpt lat="41.49557952" lon="2.06501238">
        <ele>181.0</ele>
        <time>2021-03-03T10:24:51Z</time>
      </trkpt>
      <trkpt lat="41.49562585" lon="2.06500138">
        <ele>181.0</ele>
        <time>2021-03-03T10:24:52Z</time>
      </trkpt>
      <trkpt lat="41.49567217" lon="2.06499106">
        <ele>181.0</ele>
        <time>2021-03-03T10:24:53Z</time>
      </trkpt>
      <trkpt lat="41.49571584" lon="2.06498207">
        <ele>181.0</ele>
        <time>2021-03-03T10:24:54Z</time>
      </trkpt>
      <trkpt lat="41.49576084" lon="2.06497207">
        <ele>182.0</ele>
        <time>2021-03-03T10:24:55Z</time>
      </trkpt>
      <trkpt lat="41.4958095" lon="2.06496074">
        <ele>182.0</ele>
        <time>2021-03-03T10:24:56Z</time>
      </trkpt>
      <trkpt lat="41.49585683" lon="2.06494809">
        <ele>182.0</ele>
        <time>2021-03-03T10:24:57Z</time>
      </trkpt>
      <trkpt lat="41.49590316" lon="2.06493275">
        <ele>182.0</ele>
        <time>2021-03-03T10:24:58Z</time>
      </trkpt>
      <trkpt lat="41.49594649" lon="2.06491609">
        <ele>182.0</ele>
        <time>2021-03-03T10:24:59Z</time>
      </trkpt>
      <trkpt lat="41.49599314" lon="2.06489442">
        <ele>182.0</ele>
        <time>2021-03-03T10:25:00Z</time>
      </trkpt>
      <trkpt lat="41.49603881" lon="2.06487075">
        <ele>182.0</ele>
        <time>2021-03-03T10:25:01Z</time>
      </trkpt>
      <trkpt lat="41.49608013" lon="2.06484642">
        <ele>182.0</ele>
        <time>2021-03-03T10:25:02Z</time>
      </trkpt>
      <trkpt lat="41.49612247" lon="2.06482042">
        <ele>182.0</ele>
        <time>2021-03-03T10:25:03Z</time>
      </trkpt>
      <trkpt lat="41.4961638" lon="2.06479243">
        <ele>183.0</ele>
        <time>2021-03-03T10:25:04Z</time>
      </trkpt>
      <trkpt lat="41.49620813" lon="2.06476176">
        <ele>183.0</ele>
        <time>2021-03-03T10:25:05Z</time>
      </trkpt>
      <trkpt lat="41.4962498" lon="2.06473077">
        <ele>183.0</ele>
        <time>2021-03-03T10:25:06Z</time>
      </trkpt>
      <trkpt lat="41.49628712" lon="2.06470145">
        <ele>183.0</ele>
        <time>2021-03-03T10:25:07Z</time>
      </trkpt>
      <trkpt lat="41.49632678" lon="2.06467113">
        <ele>183.0</ele>
        <time>2021-03-03T10:25:08Z</time>
      </trkpt>
      <trkpt lat="41.49636345" lon="2.06464346">
        <ele>183.0</ele>
        <time>2021-03-03T10:25:09Z</time>
      </trkpt>
      <trkpt lat="41.49640245" lon="2.06461446">
        <ele>183.0</ele>
        <time>2021-03-03T10:25:10Z</time>
      </trkpt>
      <trkpt lat="41.49644044" lon="2.06458546">
        <ele>183.0</ele>
        <time>2021-03-03T10:25:11Z</time>
      </trkpt>
      <trkpt lat="41.49647544" lon="2.06455814">
        <ele>184.0</ele>
        <time>2021-03-03T10:25:12Z</time>
      </trkpt>
      <trkpt lat="41.49651243" lon="2.06452815">
        <ele>184.0</ele>
        <time>2021-03-03T10:25:13Z</time>
      </trkpt>
      <trkpt lat="41.49654776" lon="2.06449815">
        <ele>184.0</ele>
        <time>2021-03-03T10:25:14Z</time>
      </trkpt>
      <trkpt lat="41.49657975" lon="2.06447215">
        <ele>184.0</ele>
        <time>2021-03-03T10:25:15Z</time>
      </trkpt>
      <trkpt lat="41.49661374" lon="2.06444482">
        <ele>185.0</ele>
        <time>2021-03-03T10:25:16Z</time>
      </trkpt>
      <trkpt lat="41.49664473" lon="2.06442049">
        <ele>185.0</ele>
        <time>2021-03-03T10:25:17Z</time>
      </trkpt>
      <trkpt lat="41.49667506" lon="2.06439616">
        <ele>185.0</ele>
        <time>2021-03-03T10:25:18Z</time>
      </trkpt>
      <trkpt lat="41.49670306" lon="2.06437317">
        <ele>185.0</ele>
        <time>2021-03-03T10:25:19Z</time>
      </trkpt>
      <trkpt lat="41.49672939" lon="2.06435083">
        <ele>186.0</ele>
        <time>2021-03-03T10:25:20Z</time>
      </trkpt>
      <trkpt lat="41.49675439" lon="2.0643295">
        <ele>186.0</ele>
        <time>2021-03-03T10:25:21Z</time>
      </trkpt>
      <trkpt lat="41.49678038" lon="2.06430783">
        <ele>187.0</ele>
        <time>2021-03-03T10:25:22Z</time>
      </trkpt>
      <trkpt lat="41.49680438" lon="2.06428851">
        <ele>187.0</ele>
        <time>2021-03-03T10:25:23Z</time>
      </trkpt>
      <trkpt lat="41.49682803" lon="2.06426984">
        <ele>187.0</ele>
        <time>2021-03-03T10:25:24Z</time>
      </trkpt>
      <trkpt lat="41.49685003" lon="2.06425252">
        <ele>187.0</ele>
        <time>2021-03-03T10:25:25Z</time>
      </trkpt>
      <trkpt lat="41.49687369" lon="2.0642332">
        <ele>188.0</ele>
        <time>2021-03-03T10:25:26Z</time>
      </trkpt>
      <trkpt lat="41.49689702" lon="2.06421386">
        <ele>188.0</ele>
        <time>2021-03-03T10:25:27Z</time>
      </trkpt>
      <trkpt lat="41.49692168" lon="2.06419453">
        <ele>188.0</ele>
        <time>2021-03-03T10:25:28Z</time>
      </trkpt>
      <trkpt lat="41.49694568" lon="2.06417521">
        <ele>188.0</ele>
        <time>2021-03-03T10:25:29Z</time>
      </trkpt>
      <trkpt lat="41.49696967" lon="2.06415555">
        <ele>189.0</ele>
        <time>2021-03-03T10:25:30Z</time>
      </trkpt>
      <trkpt lat="41.49699334" lon="2.06413788">
        <ele>189.0</ele>
        <time>2021-03-03T10:25:31Z</time>
      </trkpt>
      <trkpt lat="41.497018" lon="2.06411855">
        <ele>190.0</ele>
        <time>2021-03-03T10:25:32Z</time>
      </trkpt>
      <trkpt lat="41.49704066" lon="2.06409989">
        <ele>190.0</ele>
        <time>2021-03-03T10:25:33Z</time>
      </trkpt>
      <trkpt lat="41.49705999" lon="2.06408423">
        <ele>190.0</ele>
        <time>2021-03-03T10:25:34Z</time>
      </trkpt>
      <trkpt lat="41.49708032" lon="2.06406724">
        <ele>190.0</ele>
        <time>2021-03-03T10:25:35Z</time>
      </trkpt>
      <trkpt lat="41.49710064" lon="2.06405024">
        <ele>191.0</ele>
        <time>2021-03-03T10:25:36Z</time>
      </trkpt>
      <trkpt lat="41.49712163" lon="2.06403291">
        <ele>191.0</ele>
        <time>2021-03-03T10:25:37Z</time>
      </trkpt>
      <trkpt lat="41.49714396" lon="2.06401492">
        <ele>191.0</ele>
        <time>2021-03-03T10:25:38Z</time>
      </trkpt>
      <trkpt lat="41.49716696" lon="2.06399659">
        <ele>191.0</ele>
        <time>2021-03-03T10:25:39Z</time>
      </trkpt>
      <trkpt lat="41.49718962" lon="2.06397859">
        <ele>192.0</ele>
        <time>2021-03-03T10:25:40Z</time>
      </trkpt>
      <trkpt lat="41.49721294" lon="2.06396127">
        <ele>192.0</ele>
        <time>2021-03-03T10:25:41Z</time>
      </trkpt>
      <trkpt lat="41.4972366" lon="2.06394527">
        <ele>192.0</ele>
        <time>2021-03-03T10:25:42Z</time>
      </trkpt>
      <trkpt lat="41.49726027" lon="2.0639306">
        <ele>192.0</ele>
        <time>2021-03-03T10:25:43Z</time>
      </trkpt>
      <trkpt lat="41.49728292" lon="2.06391694">
        <ele>193.0</ele>
        <time>2021-03-03T10:25:44Z</time>
      </trkpt>
      <trkpt lat="41.49730558" lon="2.06390429">
        <ele>193.0</ele>
        <time>2021-03-03T10:25:45Z</time>
      </trkpt>
      <trkpt lat="41.49732624" lon="2.0638933">
        <ele>193.0</ele>
        <time>2021-03-03T10:25:46Z</time>
      </trkpt>
      <trkpt lat="41.49734889" lon="2.06388196">
        <ele>193.0</ele>
        <time>2021-03-03T10:25:47Z</time>
      </trkpt>
      <trkpt lat="41.49737089" lon="2.06387164">
        <ele>193.0</ele>
        <time>2021-03-03T10:25:48Z</time>
      </trkpt>
      <trkpt lat="41.49739355" lon="2.06386265">
        <ele>193.0</ele>
        <time>2021-03-03T10:25:49Z</time>
      </trkpt>
      <trkpt lat="41.49741555" lon="2.06385465">
        <ele>194.0</ele>
        <time>2021-03-03T10:25:50Z</time>
      </trkpt>
      <trkpt lat="41.49743554" lon="2.06384833">
        <ele>194.0</ele>
        <time>2021-03-03T10:25:51Z</time>
      </trkpt>
      <trkpt lat="41.4974562" lon="2.06384199">
        <ele>194.0</ele>
        <time>2021-03-03T10:25:52Z</time>
      </trkpt>
      <trkpt lat="41.49747486" lon="2.06383666">
        <ele>194.0</ele>
        <time>2021-03-03T10:25:53Z</time>
      </trkpt>
      <trkpt lat="41.4974912" lon="2.06383234">
        <ele>194.0</ele>
        <time>2021-03-03T10:25:54Z</time>
      </trkpt>
      <trkpt lat="41.49750852" lon="2.063828">
        <ele>194.0</ele>
        <time>2021-03-03T10:25:55Z</time>
      </trkpt>
      <trkpt lat="41.49752584" lon="2.06382335">
        <ele>195.0</ele>
        <time>2021-03-03T10:25:56Z</time>
      </trkpt>
      <trkpt lat="41.49754418" lon="2.06381736">
        <ele>195.0</ele>
        <time>2021-03-03T10:25:57Z</time>
      </trkpt>
      <trkpt lat="41.49756317" lon="2.06380936">
        <ele>195.0</ele>
        <time>2021-03-03T10:25:58Z</time>
      </trkpt>
      <trkpt lat="41.49758217" lon="2.06380103">
        <ele>195.0</ele>
        <time>2021-03-03T10:25:59Z</time>
      </trkpt>
      <trkpt lat="41.49760283" lon="2.0637927">
        <ele>195.0</ele>
        <time>2021-03-03T10:26:00Z</time>
      </trkpt>
      <trkpt lat="41.49762582" lon="2.06378304">
        <ele>195.0</ele>
        <time>2021-03-03T10:26:01Z</time>
      </trkpt>
      <trkpt lat="41.49764848" lon="2.06377371">
        <ele>196.0</ele>
        <time>2021-03-03T10:26:02Z</time>
      </trkpt>
      <trkpt lat="41.49767214" lon="2.06376438">
        <ele>196.0</ele>
        <time>2021-03-03T10:26:03Z</time>
      </trkpt>
      <trkpt lat="41.49769479" lon="2.06375539">
        <ele>196.0</ele>
        <time>2021-03-03T10:26:04Z</time>
      </trkpt>
      <trkpt lat="41.49772013" lon="2.06374573">
        <ele>196.0</ele>
        <time>2021-03-03T10:26:05Z</time>
      </trkpt>
      <trkpt lat="41.49774446" lon="2.06373573">
        <ele>196.0</ele>
        <time>2021-03-03T10:26:06Z</time>
      </trkpt>
      <trkpt lat="41.49776613" lon="2.0637254">
        <ele>197.0</ele>
        <time>2021-03-03T10:26:07Z</time>
      </trkpt>
      <trkpt lat="41.49778645" lon="2.06371507">
        <ele>197.0</ele>
        <time>2021-03-03T10:26:08Z</time>
      </trkpt>
      <trkpt lat="41.49780777" lon="2.06370542">
        <ele>198.0</ele>
        <time>2021-03-03T10:26:09Z</time>
      </trkpt>
      <trkpt lat="41.49782977" lon="2.06369508">
        <ele>198.0</ele>
        <time>2021-03-03T10:26:10Z</time>
      </trkpt>
      <trkpt lat="41.49785111" lon="2.06368309">
        <ele>198.0</ele>
        <time>2021-03-03T10:26:11Z</time>
      </trkpt>
      <trkpt lat="41.49787143" lon="2.06366977">
        <ele>198.0</ele>
        <time>2021-03-03T10:26:12Z</time>
      </trkpt>
      <trkpt lat="41.4978911" lon="2.06365577">
        <ele>199.0</ele>
        <time>2021-03-03T10:26:13Z</time>
      </trkpt>
      <trkpt lat="41.4979131" lon="2.0636411">
        <ele>199.0</ele>
        <time>2021-03-03T10:26:14Z</time>
      </trkpt>
      <trkpt lat="41.4979351" lon="2.06362678">
        <ele>199.0</ele>
        <time>2021-03-03T10:26:15Z</time>
      </trkpt>
      <trkpt lat="41.49795809" lon="2.06361279">
        <ele>199.0</ele>
        <time>2021-03-03T10:26:16Z</time>
      </trkpt>
      <trkpt lat="41.49797874" lon="2.06359846">
        <ele>200.0</ele>
        <time>2021-03-03T10:26:17Z</time>
      </trkpt>
      <trkpt lat="41.49799774" lon="2.0635848">
        <ele>200.0</ele>
        <time>2021-03-03T10:26:18Z</time>
      </trkpt>
      <trkpt lat="41.49801641" lon="2.06357048">
        <ele>200.0</ele>
        <time>2021-03-03T10:26:19Z</time>
      </trkpt>
      <trkpt lat="41.49803507" lon="2.06355615">
        <ele>200.0</ele>
        <time>2021-03-03T10:26:20Z</time>
      </trkpt>
      <trkpt lat="41.49805407" lon="2.06354183">
        <ele>201.0</ele>
        <time>2021-03-03T10:26:21Z</time>
      </trkpt>
      <trkpt lat="41.4980734" lon="2.0635285">
        <ele>201.0</ele>
        <time>2021-03-03T10:26:22Z</time>
      </trkpt>
      <trkpt lat="41.49809206" lon="2.06351651">
        <ele>201.0</ele>
        <time>2021-03-03T10:26:23Z</time>
      </trkpt>
      <trkpt lat="41.49811439" lon="2.06350485">
        <ele>201.0</ele>
        <time>2021-03-03T10:26:24Z</time>
      </trkpt>
      <trkpt lat="41.49813839" lon="2.06349419">
        <ele>202.0</ele>
        <time>2021-03-03T10:26:25Z</time>
      </trkpt>
      <trkpt lat="41.49816138" lon="2.06348486">
        <ele>202.0</ele>
        <time>2021-03-03T10:26:26Z</time>
      </trkpt>
      <trkpt lat="41.49818538" lon="2.06347587">
        <ele>202.0</ele>
        <time>2021-03-03T10:26:27Z</time>
      </trkpt>
      <trkpt lat="41.49821137" lon="2.06346554">
        <ele>202.0</ele>
        <time>2021-03-03T10:26:28Z</time>
      </trkpt>
      <trkpt lat="41.49823569" lon="2.06345621">
        <ele>202.0</ele>
        <time>2021-03-03T10:26:29Z</time>
      </trkpt>
      <trkpt lat="41.49825936" lon="2.06344888">
        <ele>202.0</ele>
        <time>2021-03-03T10:26:30Z</time>
      </trkpt>
      <trkpt lat="41.49828202" lon="2.06344355">
        <ele>203.0</ele>
        <time>2021-03-03T10:26:31Z</time>
      </trkpt>
      <trkpt lat="41.49830734" lon="2.06343922">
        <ele>203.0</ele>
        <time>2021-03-03T10:26:32Z</time>
      </trkpt>
      <trkpt lat="41.498333" lon="2.06343656">
        <ele>203.0</ele>
        <time>2021-03-03T10:26:33Z</time>
      </trkpt>
      <trkpt lat="41.49835865" lon="2.06343523">
        <ele>203.0</ele>
        <time>2021-03-03T10:26:34Z</time>
      </trkpt>
      <trkpt lat="41.49838299" lon="2.06343523">
        <ele>203.0</ele>
        <time>2021-03-03T10:26:35Z</time>
      </trkpt>
      <trkpt lat="41.49840998" lon="2.06343656">
        <ele>203.0</ele>
        <time>2021-03-03T10:26:36Z</time>
      </trkpt>
      <trkpt lat="41.49843498" lon="2.06343789">
        <ele>204.0</ele>
        <time>2021-03-03T10:26:37Z</time>
      </trkpt>
      <trkpt lat="41.49845998" lon="2.06343988">
        <ele>204.0</ele>
        <time>2021-03-03T10:26:38Z</time>
      </trkpt>
      <trkpt lat="41.49848364" lon="2.06344221">
        <ele>204.0</ele>
        <time>2021-03-03T10:26:39Z</time>
      </trkpt>
      <trkpt lat="41.49850563" lon="2.0634452">
        <ele>204.0</ele>
        <time>2021-03-03T10:26:40Z</time>
      </trkpt>
      <trkpt lat="41.49852897" lon="2.06344854">
        <ele>204.0</ele>
        <time>2021-03-03T10:26:41Z</time>
      </trkpt>
      <trkpt lat="41.49855229" lon="2.06345153">
        <ele>204.0</ele>
        <time>2021-03-03T10:26:42Z</time>
      </trkpt>
      <trkpt lat="41.49857662" lon="2.06345352">
        <ele>204.0</ele>
        <time>2021-03-03T10:26:43Z</time>
      </trkpt>
      <trkpt lat="41.49859961" lon="2.06345452">
        <ele>205.0</ele>
        <time>2021-03-03T10:26:44Z</time>
      </trkpt>
      <trkpt lat="41.49862461" lon="2.06345452">
        <ele>205.0</ele>
        <time>2021-03-03T10:26:45Z</time>
      </trkpt>
      <trkpt lat="41.49864827" lon="2.06345418">
        <ele>205.0</ele>
        <time>2021-03-03T10:26:46Z</time>
      </trkpt>
      <trkpt lat="41.4986706" lon="2.06345252">
        <ele>205.0</ele>
        <time>2021-03-03T10:26:47Z</time>
      </trkpt>
      <trkpt lat="41.49869227" lon="2.06344919">
        <ele>205.0</ele>
        <time>2021-03-03T10:26:48Z</time>
      </trkpt>
      <trkpt lat="41.4987116" lon="2.06344519">
        <ele>205.0</ele>
        <time>2021-03-03T10:26:49Z</time>
      </trkpt>
      <trkpt lat="41.49872959" lon="2.06343986">
        <ele>206.0</ele>
        <time>2021-03-03T10:26:50Z</time>
      </trkpt>
      <trkpt lat="41.49874725" lon="2.06343419">
        <ele>206.0</ele>
        <time>2021-03-03T10:26:51Z</time>
      </trkpt>
      <trkpt lat="41.49876424" lon="2.0634292">
        <ele>206.0</ele>
        <time>2021-03-03T10:26:52Z</time>
      </trkpt>
      <trkpt lat="41.49878257" lon="2.06342321">
        <ele>206.0</ele>
        <time>2021-03-03T10:26:53Z</time>
      </trkpt>
      <trkpt lat="41.49880023" lon="2.06341688">
        <ele>207.0</ele>
        <time>2021-03-03T10:26:54Z</time>
      </trkpt>
      <trkpt lat="41.49881755" lon="2.06341089">
        <ele>207.0</ele>
        <time>2021-03-03T10:26:55Z</time>
      </trkpt>
      <trkpt lat="41.49883522" lon="2.06340556">
        <ele>207.0</ele>
        <time>2021-03-03T10:26:56Z</time>
      </trkpt>
      <trkpt lat="41.49885154" lon="2.06340057">
        <ele>207.0</ele>
        <time>2021-03-03T10:26:57Z</time>
      </trkpt>
      <trkpt lat="41.49886788" lon="2.0633959">
        <ele>208.0</ele>
        <time>2021-03-03T10:26:58Z</time>
      </trkpt>
      <trkpt lat="41.49888587" lon="2.06339023">
        <ele>208.0</ele>
        <time>2021-03-03T10:26:59Z</time>
      </trkpt>
      <trkpt lat="41.4989012" lon="2.06338458">
        <ele>208.0</ele>
        <time>2021-03-03T10:27:00Z</time>
      </trkpt>
      <trkpt lat="41.49891619" lon="2.06337891">
        <ele>208.0</ele>
        <time>2021-03-03T10:27:01Z</time>
      </trkpt>
      <trkpt lat="41.49893085" lon="2.06337459">
        <ele>208.0</ele>
        <time>2021-03-03T10:27:02Z</time>
      </trkpt>
      <trkpt lat="41.49894851" lon="2.06336992">
        <ele>209.0</ele>
        <time>2021-03-03T10:27:03Z</time>
      </trkpt>
      <trkpt lat="41.4989685" lon="2.06336525">
        <ele>209.0</ele>
        <time>2021-03-03T10:27:04Z</time>
      </trkpt>
      <trkpt lat="41.49899084" lon="2.06336059">
        <ele>209.0</ele>
        <time>2021-03-03T10:27:05Z</time>
      </trkpt>
      <trkpt lat="41.49901216" lon="2.0633546">
        <ele>209.0</ele>
        <time>2021-03-03T10:27:06Z</time>
      </trkpt>
      <trkpt lat="41.49903383" lon="2.06334794">
        <ele>210.0</ele>
        <time>2021-03-03T10:27:07Z</time>
      </trkpt>
      <trkpt lat="41.49905549" lon="2.06333994">
        <ele>210.0</ele>
        <time>2021-03-03T10:27:08Z</time>
      </trkpt>
      <trkpt lat="41.49907582" lon="2.06333228">
        <ele>210.0</ele>
        <time>2021-03-03T10:27:09Z</time>
      </trkpt>
      <trkpt lat="41.49909947" lon="2.06332128">
        <ele>210.0</ele>
        <time>2021-03-03T10:27:10Z</time>
      </trkpt>
      <trkpt lat="41.49912314" lon="2.06330962">
        <ele>210.0</ele>
        <time>2021-03-03T10:27:11Z</time>
      </trkpt>
      <trkpt lat="41.49914646" lon="2.06329629">
        <ele>211.0</ele>
        <time>2021-03-03T10:27:12Z</time>
      </trkpt>
      <trkpt lat="41.49916945" lon="2.06328296">
        <ele>211.0</ele>
        <time>2021-03-03T10:27:13Z</time>
      </trkpt>
      <trkpt lat="41.49919312" lon="2.06326964">
        <ele>211.0</ele>
        <time>2021-03-03T10:27:14Z</time>
      </trkpt>
      <trkpt lat="41.49921478" lon="2.0632603">
        <ele>211.0</ele>
        <time>2021-03-03T10:27:15Z</time>
      </trkpt>
      <trkpt lat="41.49923944" lon="2.0632533">
        <ele>211.0</ele>
        <time>2021-03-03T10:27:16Z</time>
      </trkpt>
      <trkpt lat="41.4992651" lon="2.06324797">
        <ele>212.0</ele>
        <time>2021-03-03T10:27:17Z</time>
      </trkpt>
      <trkpt lat="41.49928943" lon="2.06324465">
        <ele>212.0</ele>
        <time>2021-03-03T10:27:18Z</time>
      </trkpt>
      <trkpt lat="41.49931576" lon="2.06324166">
        <ele>212.0</ele>
        <time>2021-03-03T10:27:19Z</time>
      </trkpt>
      <trkpt lat="41.49934476" lon="2.06323867">
        <ele>212.0</ele>
        <time>2021-03-03T10:27:20Z</time>
      </trkpt>
      <trkpt lat="41.49937208" lon="2.063236">
        <ele>212.0</ele>
        <time>2021-03-03T10:27:21Z</time>
      </trkpt>
      <trkpt lat="41.49940141" lon="2.06323501">
        <ele>212.0</ele>
        <time>2021-03-03T10:27:22Z</time>
      </trkpt>
      <trkpt lat="41.49943407" lon="2.06323468">
        <ele>212.0</ele>
        <time>2021-03-03T10:27:23Z</time>
      </trkpt>
      <trkpt lat="41.49946806" lon="2.06323501">
        <ele>212.0</ele>
        <time>2021-03-03T10:27:24Z</time>
      </trkpt>
      <trkpt lat="41.49950373" lon="2.06323633">
        <ele>212.0</ele>
        <time>2021-03-03T10:27:25Z</time>
      </trkpt>
      <trkpt lat="41.49953838" lon="2.06323899">
        <ele>212.0</ele>
        <time>2021-03-03T10:27:26Z</time>
      </trkpt>
      <trkpt lat="41.49957472" lon="2.06324232">
        <ele>212.0</ele>
        <time>2021-03-03T10:27:27Z</time>
      </trkpt>
      <trkpt lat="41.49961638" lon="2.06324632">
        <ele>212.0</ele>
        <time>2021-03-03T10:27:28Z</time>
      </trkpt>
      <trkpt lat="41.49965572" lon="2.06324831">
        <ele>212.0</ele>
        <time>2021-03-03T10:27:29Z</time>
      </trkpt>
      <trkpt lat="41.49969837" lon="2.06324897">
        <ele>212.0</ele>
        <time>2021-03-03T10:27:30Z</time>
      </trkpt>
      <trkpt lat="41.49973971" lon="2.06324865">
        <ele>212.0</ele>
        <time>2021-03-03T10:27:31Z</time>
      </trkpt>
      <trkpt lat="41.49978171" lon="2.06324831">
        <ele>212.0</ele>
        <time>2021-03-03T10:27:32Z</time>
      </trkpt>
      <trkpt lat="41.49982136" lon="2.06324798">
        <ele>212.0</ele>
        <time>2021-03-03T10:27:33Z</time>
      </trkpt>
      <trkpt lat="41.49986336" lon="2.06324831">
        <ele>212.0</ele>
        <time>2021-03-03T10:27:34Z</time>
      </trkpt>
      <trkpt lat="41.49990203" lon="2.06324865">
        <ele>212.0</ele>
        <time>2021-03-03T10:27:35Z</time>
      </trkpt>
      <trkpt lat="41.49993935" lon="2.06324831">
        <ele>212.0</ele>
        <time>2021-03-03T10:27:36Z</time>
      </trkpt>
      <trkpt lat="41.49997869" lon="2.06324897">
        <ele>212.0</ele>
        <time>2021-03-03T10:27:37Z</time>
      </trkpt>
      <trkpt lat="41.50001668" lon="2.06325029">
        <ele>212.0</ele>
        <time>2021-03-03T10:27:38Z</time>
      </trkpt>
      <trkpt lat="41.50005333" lon="2.06325196">
        <ele>212.0</ele>
        <time>2021-03-03T10:27:39Z</time>
      </trkpt>
      <trkpt lat="41.50008767" lon="2.06325328">
        <ele>213.0</ele>
        <time>2021-03-03T10:27:40Z</time>
      </trkpt>
      <trkpt lat="41.50012032" lon="2.06325229">
        <ele>213.0</ele>
        <time>2021-03-03T10:27:41Z</time>
      </trkpt>
      <trkpt lat="41.50015399" lon="2.06325097">
        <ele>213.0</ele>
        <time>2021-03-03T10:27:42Z</time>
      </trkpt>
      <trkpt lat="41.50018865" lon="2.06324864">
        <ele>213.0</ele>
        <time>2021-03-03T10:27:43Z</time>
      </trkpt>
      <trkpt lat="41.50022098" lon="2.0632473">
        <ele>213.0</ele>
        <time>2021-03-03T10:27:44Z</time>
      </trkpt>
      <trkpt lat="41.50025398" lon="2.0632473">
        <ele>213.0</ele>
        <time>2021-03-03T10:27:45Z</time>
      </trkpt>
      <trkpt lat="41.50028797" lon="2.06324665">
        <ele>213.0</ele>
        <time>2021-03-03T10:27:46Z</time>
      </trkpt>
      <trkpt lat="41.50032063" lon="2.06324532">
        <ele>213.0</ele>
        <time>2021-03-03T10:27:47Z</time>
      </trkpt>
      <trkpt lat="41.50035129" lon="2.06324499">
        <ele>213.0</ele>
        <time>2021-03-03T10:27:48Z</time>
      </trkpt>
      <trkpt lat="41.50038863" lon="2.063243">
        <ele>213.0</ele>
        <time>2021-03-03T10:27:49Z</time>
      </trkpt>
      <trkpt lat="41.50042995" lon="2.06324067">
        <ele>213.0</ele>
        <time>2021-03-03T10:27:50Z</time>
      </trkpt>
      <trkpt lat="41.50047495" lon="2.06324033">
        <ele>213.0</ele>
        <time>2021-03-03T10:27:51Z</time>
      </trkpt>
      <trkpt lat="41.50052462" lon="2.06324167">
        <ele>213.0</ele>
        <time>2021-03-03T10:27:52Z</time>
      </trkpt>
      <trkpt lat="41.50057594" lon="2.063244">
        <ele>213.0</ele>
        <time>2021-03-03T10:27:53Z</time>
      </trkpt>
      <trkpt lat="41.50063461" lon="2.06324799">
        <ele>213.0</ele>
        <time>2021-03-03T10:27:54Z</time>
      </trkpt>
      <trkpt lat="41.50069361" lon="2.06325199">
        <ele>213.0</ele>
        <time>2021-03-03T10:27:55Z</time>
      </trkpt>
      <trkpt lat="41.50075393" lon="2.06325599">
        <ele>213.0</ele>
        <time>2021-03-03T10:27:56Z</time>
      </trkpt>
      <trkpt lat="41.50081592" lon="2.06325965">
        <ele>213.0</ele>
        <time>2021-03-03T10:27:57Z</time>
      </trkpt>
      <trkpt lat="41.50087825" lon="2.06326465">
        <ele>213.0</ele>
        <time>2021-03-03T10:27:58Z</time>
      </trkpt>
      <trkpt lat="41.50094024" lon="2.06327097">
        <ele>213.0</ele>
        <time>2021-03-03T10:27:59Z</time>
      </trkpt>
      <trkpt lat="41.5010029" lon="2.06327897">
        <ele>213.0</ele>
        <time>2021-03-03T10:28:00Z</time>
      </trkpt>
      <trkpt lat="41.50106556" lon="2.06328796">
        <ele>213.0</ele>
        <time>2021-03-03T10:28:01Z</time>
      </trkpt>
      <trkpt lat="41.50112755" lon="2.06329528">
        <ele>213.0</ele>
        <time>2021-03-03T10:28:02Z</time>
      </trkpt>
      <trkpt lat="41.50118821" lon="2.06330194">
        <ele>213.0</ele>
        <time>2021-03-03T10:28:03Z</time>
      </trkpt>
      <trkpt lat="41.50124654" lon="2.06330761">
        <ele>213.0</ele>
        <time>2021-03-03T10:28:04Z</time>
      </trkpt>
      <trkpt lat="41.50130254" lon="2.06331126">
        <ele>213.0</ele>
        <time>2021-03-03T10:28:05Z</time>
      </trkpt>
      <trkpt lat="41.5013572" lon="2.06331293">
        <ele>213.0</ele>
        <time>2021-03-03T10:28:06Z</time>
      </trkpt>
      <trkpt lat="41.50141153" lon="2.06331161">
        <ele>213.0</ele>
        <time>2021-03-03T10:28:07Z</time>
      </trkpt>
      <trkpt lat="41.50146386" lon="2.06330928">
        <ele>213.0</ele>
        <time>2021-03-03T10:28:08Z</time>
      </trkpt>
      <trkpt lat="41.50151485" lon="2.06330595">
        <ele>213.0</ele>
        <time>2021-03-03T10:28:09Z</time>
      </trkpt>
      <trkpt lat="41.50156218" lon="2.06330163">
        <ele>213.0</ele>
        <time>2021-03-03T10:28:10Z</time>
      </trkpt>
      <trkpt lat="41.50161251" lon="2.06329564">
        <ele>213.0</ele>
        <time>2021-03-03T10:28:11Z</time>
      </trkpt>
      <trkpt lat="41.50166251" lon="2.0632893">
        <ele>213.0</ele>
        <time>2021-03-03T10:28:12Z</time>
      </trkpt>
      <trkpt lat="41.5017105" lon="2.06328164">
        <ele>213.0</ele>
        <time>2021-03-03T10:28:13Z</time>
      </trkpt>
      <trkpt lat="41.50175483" lon="2.06327298">
        <ele>214.0</ele>
        <time>2021-03-03T10:28:14Z</time>
      </trkpt>
      <trkpt lat="41.50180349" lon="2.06326198">
        <ele>214.0</ele>
        <time>2021-03-03T10:28:15Z</time>
      </trkpt>
      <trkpt lat="41.50184782" lon="2.06325066">
        <ele>214.0</ele>
        <time>2021-03-03T10:28:16Z</time>
      </trkpt>
      <trkpt lat="41.50189381" lon="2.063238">
        <ele>214.0</ele>
        <time>2021-03-03T10:28:17Z</time>
      </trkpt>
      <trkpt lat="41.50193914" lon="2.063226">
        <ele>215.0</ele>
        <time>2021-03-03T10:28:18Z</time>
      </trkpt>
      <trkpt lat="41.50198313" lon="2.06321334">
        <ele>215.0</ele>
        <time>2021-03-03T10:28:19Z</time>
      </trkpt>
      <trkpt lat="41.50202813" lon="2.06320002">
        <ele>215.0</ele>
        <time>2021-03-03T10:28:20Z</time>
      </trkpt>
      <trkpt lat="41.50207113" lon="2.06318669">
        <ele>215.0</ele>
        <time>2021-03-03T10:28:21Z</time>
      </trkpt>
      <trkpt lat="41.50211379" lon="2.0631727">
        <ele>215.0</ele>
        <time>2021-03-03T10:28:22Z</time>
      </trkpt>
      <trkpt lat="41.50215279" lon="2.0631607">
        <ele>216.0</ele>
        <time>2021-03-03T10:28:23Z</time>
      </trkpt>
      <trkpt lat="41.50219711" lon="2.06314637">
        <ele>216.0</ele>
        <time>2021-03-03T10:28:24Z</time>
      </trkpt>
      <trkpt lat="41.50224145" lon="2.06313104">
        <ele>216.0</ele>
        <time>2021-03-03T10:28:25Z</time>
      </trkpt>
      <trkpt lat="41.50228545" lon="2.06311571">
        <ele>216.0</ele>
        <time>2021-03-03T10:28:26Z</time>
      </trkpt>
      <trkpt lat="41.50232544" lon="2.06310138">
        <ele>216.0</ele>
        <time>2021-03-03T10:28:27Z</time>
      </trkpt>
      <trkpt lat="41.50236876" lon="2.06308373">
        <ele>216.0</ele>
        <time>2021-03-03T10:28:28Z</time>
      </trkpt>
      <trkpt lat="41.50241176" lon="2.06306439">
        <ele>217.0</ele>
        <time>2021-03-03T10:28:29Z</time>
      </trkpt>
      <trkpt lat="41.50245242" lon="2.06304474">
        <ele>217.0</ele>
        <time>2021-03-03T10:28:30Z</time>
      </trkpt>
      <trkpt lat="41.50249174" lon="2.06302307">
        <ele>217.0</ele>
        <time>2021-03-03T10:28:31Z</time>
      </trkpt>
      <trkpt lat="41.50252741" lon="2.06300275">
        <ele>217.0</ele>
        <time>2021-03-03T10:28:32Z</time>
      </trkpt>
      <trkpt lat="41.50256573" lon="2.06298341">
        <ele>217.0</ele>
        <time>2021-03-03T10:28:33Z</time>
      </trkpt>
      <trkpt lat="41.50260473" lon="2.06296642">
        <ele>217.0</ele>
        <time>2021-03-03T10:28:34Z</time>
      </trkpt>
      <trkpt lat="41.50264073" lon="2.0629521">
        <ele>217.0</ele>
        <time>2021-03-03T10:28:35Z</time>
      </trkpt>
      <trkpt lat="41.50267839" lon="2.06293743">
        <ele>218.0</ele>
        <time>2021-03-03T10:28:36Z</time>
      </trkpt>
      <trkpt lat="41.50271372" lon="2.06292343">
        <ele>218.0</ele>
        <time>2021-03-03T10:28:37Z</time>
      </trkpt>
      <trkpt lat="41.50274504" lon="2.06291011">
        <ele>219.0</ele>
        <time>2021-03-03T10:28:38Z</time>
      </trkpt>
      <trkpt lat="41.50277571" lon="2.06289879">
        <ele>219.0</ele>
        <time>2021-03-03T10:28:39Z</time>
      </trkpt>
      <trkpt lat="41.50280703" lon="2.06289145">
        <ele>219.0</ele>
        <time>2021-03-03T10:28:40Z</time>
      </trkpt>
      <trkpt lat="41.50283836" lon="2.0628868">
        <ele>219.0</ele>
        <time>2021-03-03T10:28:41Z</time>
      </trkpt>
      <trkpt lat="41.50287035" lon="2.0628828">
        <ele>220.0</ele>
        <time>2021-03-03T10:28:42Z</time>
      </trkpt>
      <trkpt lat="41.50290101" lon="2.06287981">
        <ele>220.0</ele>
        <time>2021-03-03T10:28:43Z</time>
      </trkpt>
      <trkpt lat="41.50293001" lon="2.06287881">
        <ele>220.0</ele>
        <time>2021-03-03T10:28:44Z</time>
      </trkpt>
      <trkpt lat="41.50296034" lon="2.06287946">
        <ele>220.0</ele>
        <time>2021-03-03T10:28:45Z</time>
      </trkpt>
      <trkpt lat="41.50298934" lon="2.06288312">
        <ele>221.0</ele>
        <time>2021-03-03T10:28:45Z</time>
      </trkpt>
      <trkpt lat="41.50301766" lon="2.06288911">
        <ele>221.0</ele>
        <time>2021-03-03T10:28:46Z</time>
      </trkpt>
      <trkpt lat="41.50304598" lon="2.06289611">
        <ele>221.0</ele>
        <time>2021-03-03T10:28:47Z</time>
      </trkpt>
      <trkpt lat="41.50307098" lon="2.06290378">
        <ele>221.0</ele>
        <time>2021-03-03T10:28:48Z</time>
      </trkpt>
      <trkpt lat="41.50309764" lon="2.06291478">
        <ele>221.0</ele>
        <time>2021-03-03T10:28:49Z</time>
      </trkpt>
      <trkpt lat="41.50312564" lon="2.06292677">
        <ele>221.0</ele>
        <time>2021-03-03T10:28:50Z</time>
      </trkpt>
      <trkpt lat="41.50315631" lon="2.06294009">
        <ele>222.0</ele>
        <time>2021-03-03T10:28:51Z</time>
      </trkpt>
      <trkpt lat="41.5031883" lon="2.06295409">
        <ele>222.0</ele>
        <time>2021-03-03T10:28:52Z</time>
      </trkpt>
      <trkpt lat="41.50322096" lon="2.06296775">
        <ele>222.0</ele>
        <time>2021-03-03T10:28:53Z</time>
      </trkpt>
      <trkpt lat="41.50325363" lon="2.0629804">
        <ele>223.0</ele>
        <time>2021-03-03T10:28:54Z</time>
      </trkpt>
      <trkpt lat="41.50328662" lon="2.06299374">
        <ele>223.0</ele>
        <time>2021-03-03T10:28:55Z</time>
      </trkpt>
      <trkpt lat="41.50332029" lon="2.06300639">
        <ele>223.0</ele>
        <time>2021-03-03T10:28:56Z</time>
      </trkpt>
      <trkpt lat="41.50335195" lon="2.06301772">
        <ele>223.0</ele>
        <time>2021-03-03T10:28:57Z</time>
      </trkpt>
      <trkpt lat="41.50338562" lon="2.06302872">
        <ele>223.0</ele>
        <time>2021-03-03T10:28:58Z</time>
      </trkpt>
      <trkpt lat="41.50341961" lon="2.06303872">
        <ele>223.0</ele>
        <time>2021-03-03T10:28:59Z</time>
      </trkpt>
      <trkpt lat="41.50345393" lon="2.06304872">
        <ele>224.0</ele>
        <time>2021-03-03T10:29:00Z</time>
      </trkpt>
      <trkpt lat="41.50348792" lon="2.06305804">
        <ele>224.0</ele>
        <time>2021-03-03T10:29:01Z</time>
      </trkpt>
      <trkpt lat="41.50352159" lon="2.06306671">
        <ele>224.0</ele>
        <time>2021-03-03T10:29:02Z</time>
      </trkpt>
      <trkpt lat="41.50355692" lon="2.0630757">
        <ele>224.0</ele>
        <time>2021-03-03T10:29:03Z</time>
      </trkpt>
      <trkpt lat="41.50358991" lon="2.06308336">
        <ele>224.0</ele>
        <time>2021-03-03T10:29:04Z</time>
      </trkpt>
      <trkpt lat="41.50362291" lon="2.06309036">
        <ele>225.0</ele>
        <time>2021-03-03T10:29:05Z</time>
      </trkpt>
      <trkpt lat="41.50365558" lon="2.06309602">
        <ele>225.0</ele>
        <time>2021-03-03T10:29:06Z</time>
      </trkpt>
      <trkpt lat="41.5036879" lon="2.06310069">
        <ele>225.0</ele>
        <time>2021-03-03T10:29:07Z</time>
      </trkpt>
      <trkpt lat="41.5037209" lon="2.06310569">
        <ele>225.0</ele>
        <time>2021-03-03T10:29:08Z</time>
      </trkpt>
      <trkpt lat="41.50375223" lon="2.06310968">
        <ele>225.0</ele>
        <time>2021-03-03T10:29:09Z</time>
      </trkpt>
      <trkpt lat="41.50378556" lon="2.06311368">
        <ele>225.0</ele>
        <time>2021-03-03T10:29:10Z</time>
      </trkpt>
      <trkpt lat="41.50382156" lon="2.06312001">
        <ele>225.0</ele>
        <time>2021-03-03T10:29:11Z</time>
      </trkpt>
      <trkpt lat="41.50385788" lon="2.06312667">
        <ele>226.0</ele>
        <time>2021-03-03T10:29:12Z</time>
      </trkpt>
      <trkpt lat="41.50389155" lon="2.063133">
        <ele>226.0</ele>
        <time>2021-03-03T10:29:13Z</time>
      </trkpt>
      <trkpt lat="41.50392522" lon="2.06313999">
        <ele>226.0</ele>
        <time>2021-03-03T10:29:14Z</time>
      </trkpt>
      <trkpt lat="41.50395887" lon="2.06314832">
        <ele>226.0</ele>
        <time>2021-03-03T10:29:15Z</time>
      </trkpt>
      <trkpt lat="41.50399321" lon="2.06315799">
        <ele>226.0</ele>
        <time>2021-03-03T10:29:16Z</time>
      </trkpt>
      <trkpt lat="41.50402886" lon="2.06316698">
        <ele>226.0</ele>
        <time>2021-03-03T10:29:17Z</time>
      </trkpt>
      <trkpt lat="41.5040652" lon="2.06317497">
        <ele>226.0</ele>
        <time>2021-03-03T10:29:18Z</time>
      </trkpt>
      <trkpt lat="41.50409985" lon="2.06318297">
        <ele>226.0</ele>
        <time>2021-03-03T10:29:19Z</time>
      </trkpt>
      <trkpt lat="41.50413385" lon="2.06319096">
        <ele>226.0</ele>
        <time>2021-03-03T10:29:20Z</time>
      </trkpt>
      <trkpt lat="41.50416884" lon="2.06319863">
        <ele>226.0</ele>
        <time>2021-03-03T10:29:21Z</time>
      </trkpt>
      <trkpt lat="41.50420383" lon="2.06320596">
        <ele>227.0</ele>
        <time>2021-03-03T10:29:22Z</time>
      </trkpt>
      <trkpt lat="41.50424117" lon="2.06321228">
        <ele>227.0</ele>
        <time>2021-03-03T10:29:23Z</time>
      </trkpt>
      <trkpt lat="41.50427382" lon="2.06321827">
        <ele>227.0</ele>
        <time>2021-03-03T10:29:24Z</time>
      </trkpt>
      <trkpt lat="41.50430616" lon="2.06322394">
        <ele>227.0</ele>
        <time>2021-03-03T10:29:25Z</time>
      </trkpt>
      <trkpt lat="41.50433715" lon="2.06322861">
        <ele>227.0</ele>
        <time>2021-03-03T10:29:26Z</time>
      </trkpt>
      <trkpt lat="41.5043668" lon="2.06323261">
        <ele>228.0</ele>
        <time>2021-03-03T10:29:27Z</time>
      </trkpt>
      <trkpt lat="41.5043948" lon="2.0632356">
        <ele>228.0</ele>
        <time>2021-03-03T10:29:28Z</time>
      </trkpt>
      <trkpt lat="41.50442414" lon="2.06323892">
        <ele>228.0</ele>
        <time>2021-03-03T10:29:29Z</time>
      </trkpt>
      <trkpt lat="41.50445246" lon="2.06324191">
        <ele>228.0</ele>
        <time>2021-03-03T10:29:30Z</time>
      </trkpt>
      <trkpt lat="41.50448145" lon="2.06324424">
        <ele>228.0</ele>
        <time>2021-03-03T10:29:31Z</time>
      </trkpt>
      <trkpt lat="41.50450945" lon="2.06324758">
        <ele>229.0</ele>
        <time>2021-03-03T10:29:32Z</time>
      </trkpt>
      <trkpt lat="41.50453877" lon="2.06325391">
        <ele>229.0</ele>
        <time>2021-03-03T10:29:33Z</time>
      </trkpt>
      <trkpt lat="41.50456277" lon="2.06325957">
        <ele>230.0</ele>
        <time>2021-03-03T10:29:34Z</time>
      </trkpt>
      <trkpt lat="41.5045861" lon="2.0632659">
        <ele>230.0</ele>
        <time>2021-03-03T10:29:35Z</time>
      </trkpt>
      <trkpt lat="41.50460743" lon="2.06327389">
        <ele>230.0</ele>
        <time>2021-03-03T10:29:36Z</time>
      </trkpt>
      <trkpt lat="41.50462809" lon="2.06328288">
        <ele>230.0</ele>
        <time>2021-03-03T10:29:37Z</time>
      </trkpt>
      <trkpt lat="41.50464709" lon="2.06329155">
        <ele>231.0</ele>
        <time>2021-03-03T10:29:38Z</time>
      </trkpt>
      <trkpt lat="41.50466441" lon="2.06329988">
        <ele>231.0</ele>
        <time>2021-03-03T10:29:39Z</time>
      </trkpt>
      <trkpt lat="41.50468008" lon="2.06330887">
        <ele>231.0</ele>
        <time>2021-03-03T10:29:40Z</time>
      </trkpt>
      <trkpt lat="41.50469707" lon="2.0633192">
        <ele>231.0</ele>
        <time>2021-03-03T10:29:41Z</time>
      </trkpt>
      <trkpt lat="41.50471306" lon="2.06333086">
        <ele>232.0</ele>
        <time>2021-03-03T10:29:42Z</time>
      </trkpt>
      <trkpt lat="41.50472972" lon="2.06334286">
        <ele>232.0</ele>
        <time>2021-03-03T10:29:43Z</time>
      </trkpt>
      <trkpt lat="41.50474705" lon="2.06335518">
        <ele>232.0</ele>
        <time>2021-03-03T10:29:44Z</time>
      </trkpt>
      <trkpt lat="41.50476505" lon="2.06337018">
        <ele>232.0</ele>
        <time>2021-03-03T10:29:45Z</time>
      </trkpt>
      <trkpt lat="41.50478337" lon="2.06338651">
        <ele>233.0</ele>
        <time>2021-03-03T10:29:46Z</time>
      </trkpt>
      <trkpt lat="41.50480204" lon="2.06340383">
        <ele>233.0</ele>
        <time>2021-03-03T10:29:47Z</time>
      </trkpt>
      <trkpt lat="41.50481837" lon="2.06342083">
        <ele>234.0</ele>
        <time>2021-03-03T10:29:48Z</time>
      </trkpt>
      <trkpt lat="41.5048317" lon="2.06343649">
        <ele>234.0</ele>
        <time>2021-03-03T10:29:49Z</time>
      </trkpt>
      <trkpt lat="41.50484603" lon="2.06345049">
        <ele>234.0</ele>
        <time>2021-03-03T10:29:50Z</time>
      </trkpt>
      <trkpt lat="41.50486003" lon="2.06346248">
        <ele>235.0</ele>
        <time>2021-03-03T10:29:51Z</time>
      </trkpt>
      <trkpt lat="41.50487435" lon="2.06347181">
        <ele>235.0</ele>
        <time>2021-03-03T10:29:52Z</time>
      </trkpt>
      <trkpt lat="41.50488835" lon="2.06347948">
        <ele>236.0</ele>
        <time>2021-03-03T10:29:53Z</time>
      </trkpt>
      <trkpt lat="41.50490401" lon="2.06348581">
        <ele>236.0</ele>
        <time>2021-03-03T10:29:54Z</time>
      </trkpt>
      <trkpt lat="41.50491767" lon="2.0634918">
        <ele>236.0</ele>
        <time>2021-03-03T10:29:55Z</time>
      </trkpt>
      <trkpt lat="41.50492933" lon="2.06349979">
        <ele>236.0</ele>
        <time>2021-03-03T10:29:56Z</time>
      </trkpt>
      <trkpt lat="41.50494133" lon="2.06350746">
        <ele>237.0</ele>
        <time>2021-03-03T10:29:57Z</time>
      </trkpt>
      <trkpt lat="41.50495365" lon="2.06352011">
        <ele>237.0</ele>
        <time>2021-03-03T10:29:58Z</time>
      </trkpt>
      <trkpt lat="41.50496564" lon="2.06353445">
        <ele>238.0</ele>
        <time>2021-03-03T10:29:59Z</time>
      </trkpt>
      <trkpt lat="41.50497831" lon="2.0635491">
        <ele>238.0</ele>
        <time>2021-03-03T10:30:00Z</time>
      </trkpt>
      <trkpt lat="41.50499097" lon="2.06356377">
        <ele>238.0</ele>
        <time>2021-03-03T10:30:01Z</time>
      </trkpt>
      <trkpt lat="41.50500296" lon="2.06357844">
        <ele>239.0</ele>
        <time>2021-03-03T10:30:02Z</time>
      </trkpt>
      <trkpt lat="41.50501229" lon="2.06359343">
        <ele>239.0</ele>
        <time>2021-03-03T10:30:03Z</time>
      </trkpt>
      <trkpt lat="41.50502062" lon="2.06361109">
        <ele>239.0</ele>
        <time>2021-03-03T10:30:04Z</time>
      </trkpt>
      <trkpt lat="41.50502828" lon="2.06362842">
        <ele>239.0</ele>
        <time>2021-03-03T10:30:05Z</time>
      </trkpt>
      <trkpt lat="41.50503661" lon="2.06364274">
        <ele>240.0</ele>
        <time>2021-03-03T10:30:06Z</time>
      </trkpt>
      <trkpt lat="41.50504761" lon="2.06365741">
        <ele>240.0</ele>
        <time>2021-03-03T10:30:07Z</time>
      </trkpt>
      <trkpt lat="41.50506061" lon="2.06367207">
        <ele>240.0</ele>
        <time>2021-03-03T10:30:08Z</time>
      </trkpt>
      <trkpt lat="41.50507428" lon="2.06368673">
        <ele>240.0</ele>
        <time>2021-03-03T10:30:09Z</time>
      </trkpt>
      <trkpt lat="41.50508727" lon="2.06370173">
        <ele>240.0</ele>
        <time>2021-03-03T10:30:10Z</time>
      </trkpt>
      <trkpt lat="41.50510027" lon="2.06372005">
        <ele>241.0</ele>
        <time>2021-03-03T10:30:11Z</time>
      </trkpt>
      <trkpt lat="41.50511226" lon="2.06373772">
        <ele>241.0</ele>
        <time>2021-03-03T10:30:12Z</time>
      </trkpt>
      <trkpt lat="41.50512859" lon="2.06375605">
        <ele>241.0</ele>
        <time>2021-03-03T10:30:13Z</time>
      </trkpt>
      <trkpt lat="41.50514358" lon="2.06377439">
        <ele>242.0</ele>
        <time>2021-03-03T10:30:14Z</time>
      </trkpt>
      <trkpt lat="41.50515558" lon="2.06379004">
        <ele>242.0</ele>
        <time>2021-03-03T10:30:15Z</time>
      </trkpt>
      <trkpt lat="41.50516658" lon="2.06380571">
        <ele>242.0</ele>
        <time>2021-03-03T10:30:16Z</time>
      </trkpt>
      <trkpt lat="41.50517758" lon="2.0638207">
        <ele>242.0</ele>
        <time>2021-03-03T10:30:17Z</time>
      </trkpt>
      <trkpt lat="41.50519057" lon="2.06383537">
        <ele>242.0</ele>
        <time>2021-03-03T10:30:18Z</time>
      </trkpt>
      <trkpt lat="41.50520424" lon="2.06384869">
        <ele>242.0</ele>
        <time>2021-03-03T10:30:19Z</time>
      </trkpt>
      <trkpt lat="41.50521824" lon="2.06385969">
        <ele>243.0</ele>
        <time>2021-03-03T10:30:20Z</time>
      </trkpt>
      <trkpt lat="41.50523191" lon="2.06386969">
        <ele>243.0</ele>
        <time>2021-03-03T10:30:21Z</time>
      </trkpt>
      <trkpt lat="41.50524557" lon="2.06387969">
        <ele>243.0</ele>
        <time>2021-03-03T10:30:22Z</time>
      </trkpt>
      <trkpt lat="41.5052609" lon="2.06389001">
        <ele>243.0</ele>
        <time>2021-03-03T10:30:23Z</time>
      </trkpt>
      <trkpt lat="41.50527889" lon="2.06390034">
        <ele>243.0</ele>
        <time>2021-03-03T10:30:24Z</time>
      </trkpt>
      <trkpt lat="41.50530055" lon="2.06391134">
        <ele>244.0</ele>
        <time>2021-03-03T10:30:25Z</time>
      </trkpt>
      <trkpt lat="41.50532255" lon="2.063922">
        <ele>244.0</ele>
        <time>2021-03-03T10:30:26Z</time>
      </trkpt>
      <trkpt lat="41.50534254" lon="2.06393299">
        <ele>244.0</ele>
        <time>2021-03-03T10:30:27Z</time>
      </trkpt>
      <trkpt lat="41.50536154" lon="2.06394299">
        <ele>244.0</ele>
        <time>2021-03-03T10:30:28Z</time>
      </trkpt>
      <trkpt lat="41.50538021" lon="2.06395099">
        <ele>245.0</ele>
        <time>2021-03-03T10:30:29Z</time>
      </trkpt>
      <trkpt lat="41.50540053" lon="2.06395732">
        <ele>245.0</ele>
        <time>2021-03-03T10:30:30Z</time>
      </trkpt>
      <trkpt lat="41.5054202" lon="2.06396398">
        <ele>245.0</ele>
        <time>2021-03-03T10:30:31Z</time>
      </trkpt>
      <trkpt lat="41.50543919" lon="2.06397031">
        <ele>245.0</ele>
        <time>2021-03-03T10:30:32Z</time>
      </trkpt>
      <trkpt lat="41.50545886" lon="2.06397597">
        <ele>245.0</ele>
        <time>2021-03-03T10:30:33Z</time>
      </trkpt>
      <trkpt lat="41.50548019" lon="2.06398064">
        <ele>246.0</ele>
        <time>2021-03-03T10:30:34Z</time>
      </trkpt>
      <trkpt lat="41.50550085" lon="2.0639843">
        <ele>246.0</ele>
        <time>2021-03-03T10:30:35Z</time>
      </trkpt>
      <trkpt lat="41.50552084" lon="2.06398795">
        <ele>246.0</ele>
        <time>2021-03-03T10:30:36Z</time>
      </trkpt>
      <trkpt lat="41.50554084" lon="2.06399161">
        <ele>246.0</ele>
        <time>2021-03-03T10:30:37Z</time>
      </trkpt>
      <trkpt lat="41.50556083" lon="2.0639946">
        <ele>246.0</ele>
        <time>2021-03-03T10:30:38Z</time>
      </trkpt>
      <trkpt lat="41.50558148" lon="2.06399593">
        <ele>247.0</ele>
        <time>2021-03-03T10:30:39Z</time>
      </trkpt>
      <trkpt lat="41.50560248" lon="2.0639956">
        <ele>247.0</ele>
        <time>2021-03-03T10:30:40Z</time>
      </trkpt>
      <trkpt lat="41.50562347" lon="2.0639946">
        <ele>247.0</ele>
        <time>2021-03-03T10:30:41Z</time>
      </trkpt>
      <trkpt lat="41.50564281" lon="2.06399194">
        <ele>247.0</ele>
        <time>2021-03-03T10:30:42Z</time>
      </trkpt>
      <trkpt lat="41.50566313" lon="2.06398895">
        <ele>247.0</ele>
        <time>2021-03-03T10:30:43Z</time>
      </trkpt>
      <trkpt lat="41.50568345" lon="2.06398729">
        <ele>247.0</ele>
        <time>2021-03-03T10:30:44Z</time>
      </trkpt>
      <trkpt lat="41.50570378" lon="2.06398762">
        <ele>248.0</ele>
        <time>2021-03-03T10:30:45Z</time>
      </trkpt>
      <trkpt lat="41.50572244" lon="2.06398961">
        <ele>248.0</ele>
        <time>2021-03-03T10:30:46Z</time>
      </trkpt>
      <trkpt lat="41.50574144" lon="2.06399327">
        <ele>248.0</ele>
        <time>2021-03-03T10:30:47Z</time>
      </trkpt>
      <trkpt lat="41.50576243" lon="2.06399759">
        <ele>248.0</ele>
        <time>2021-03-03T10:30:48Z</time>
      </trkpt>
      <trkpt lat="41.5057831" lon="2.06400192">
        <ele>248.0</ele>
        <time>2021-03-03T10:30:49Z</time>
      </trkpt>
      <trkpt lat="41.50580277" lon="2.06400591">
        <ele>248.0</ele>
        <time>2021-03-03T10:30:50Z</time>
      </trkpt>
      <trkpt lat="41.50582042" lon="2.06401058">
        <ele>249.0</ele>
        <time>2021-03-03T10:30:51Z</time>
      </trkpt>
      <trkpt lat="41.50584009" lon="2.06401558">
        <ele>249.0</ele>
        <time>2021-03-03T10:30:52Z</time>
      </trkpt>
      <trkpt lat="41.50585609" lon="2.0640159">
        <ele>249.0</ele>
        <time>2021-03-03T10:30:53Z</time>
      </trkpt>
      <trkpt lat="41.50587108" lon="2.06401158">
        <ele>249.0</ele>
        <time>2021-03-03T10:30:54Z</time>
      </trkpt>
      <trkpt lat="41.50588408" lon="2.06400391">
        <ele>249.0</ele>
        <time>2021-03-03T10:30:55Z</time>
      </trkpt>
      <trkpt lat="41.50589407" lon="2.06399091">
        <ele>249.0</ele>
        <time>2021-03-03T10:30:56Z</time>
      </trkpt>
      <trkpt lat="41.50590039" lon="2.06397425">
        <ele>250.0</ele>
        <time>2021-03-03T10:30:57Z</time>
      </trkpt>
      <trkpt lat="41.50590306" lon="2.06395591">
        <ele>250.0</ele>
        <time>2021-03-03T10:30:58Z</time>
      </trkpt>
      <trkpt lat="41.50590207" lon="2.06393792">
        <ele>250.0</ele>
        <time>2021-03-03T10:30:59Z</time>
      </trkpt>
      <trkpt lat="41.50589608" lon="2.06391859">
        <ele>250.0</ele>
        <time>2021-03-03T10:31:00Z</time>
      </trkpt>
      <trkpt lat="41.50588641" lon="2.06389993">
        <ele>250.0</ele>
        <time>2021-03-03T10:31:01Z</time>
      </trkpt>
      <trkpt lat="41.50587241" lon="2.06388261">
        <ele>250.0</ele>
        <time>2021-03-03T10:31:02Z</time>
      </trkpt>
      <trkpt lat="41.50585709" lon="2.06386661">
        <ele>250.0</ele>
        <time>2021-03-03T10:31:03Z</time>
      </trkpt>
      <trkpt lat="41.5058401" lon="2.06385161">
        <ele>250.0</ele>
        <time>2021-03-03T10:31:04Z</time>
      </trkpt>
      <trkpt lat="41.5058211" lon="2.06383629">
        <ele>250.0</ele>
        <time>2021-03-03T10:31:05Z</time>
      </trkpt>
      <trkpt lat="41.50579944" lon="2.06382029">
        <ele>250.0</ele>
        <time>2021-03-03T10:31:06Z</time>
      </trkpt>
      <trkpt lat="41.50577778" lon="2.06380229">
        <ele>250.0</ele>
        <time>2021-03-03T10:31:07Z</time>
      </trkpt>
      <trkpt lat="41.50575678" lon="2.06378462">
        <ele>251.0</ele>
        <time>2021-03-03T10:31:08Z</time>
      </trkpt>
      <trkpt lat="41.50573444" lon="2.06376696">
        <ele>251.0</ele>
        <time>2021-03-03T10:31:09Z</time>
      </trkpt>
      <trkpt lat="41.50571112" lon="2.0637483">
        <ele>251.0</ele>
        <time>2021-03-03T10:31:10Z</time>
      </trkpt>
      <trkpt lat="41.50568813" lon="2.06372897">
        <ele>251.0</ele>
        <time>2021-03-03T10:31:11Z</time>
      </trkpt>
      <trkpt lat="41.50566514" lon="2.06370797">
        <ele>251.0</ele>
        <time>2021-03-03T10:31:12Z</time>
      </trkpt>
      <trkpt lat="41.50564248" lon="2.06368532">
        <ele>251.0</ele>
        <time>2021-03-03T10:31:13Z</time>
      </trkpt>
      <trkpt lat="41.50561915" lon="2.06366033">
        <ele>251.0</ele>
        <time>2021-03-03T10:31:14Z</time>
      </trkpt>
      <trkpt lat="41.50559616" lon="2.06363234">
        <ele>251.0</ele>
        <time>2021-03-03T10:31:15Z</time>
      </trkpt>
      <trkpt lat="41.5055755" lon="2.06360501">
        <ele>251.0</ele>
        <time>2021-03-03T10:31:16Z</time>
      </trkpt>
      <trkpt lat="41.50555585" lon="2.06357668">
        <ele>251.0</ele>
        <time>2021-03-03T10:31:17Z</time>
      </trkpt>
      <trkpt lat="41.50553618" lon="2.06354802">
        <ele>251.0</ele>
        <time>2021-03-03T10:31:18Z</time>
      </trkpt>
      <trkpt lat="41.50551518" lon="2.06351602">
        <ele>251.0</ele>
        <time>2021-03-03T10:31:19Z</time>
      </trkpt>
      <trkpt lat="41.50549452" lon="2.06348402">
        <ele>251.0</ele>
        <time>2021-03-03T10:31:20Z</time>
      </trkpt>
      <trkpt lat="41.50547353" lon="2.06345336">
        <ele>251.0</ele>
        <time>2021-03-03T10:31:21Z</time>
      </trkpt>
      <trkpt lat="41.5054542" lon="2.06342502">
        <ele>251.0</ele>
        <time>2021-03-03T10:31:22Z</time>
      </trkpt>
      <trkpt lat="41.50543787" lon="2.06339902">
        <ele>251.0</ele>
        <time>2021-03-03T10:31:23Z</time>
      </trkpt>
      <trkpt lat="41.50542153" lon="2.0633737">
        <ele>252.0</ele>
        <time>2021-03-03T10:31:24Z</time>
      </trkpt>
      <trkpt lat="41.50540554" lon="2.0633497">
        <ele>252.0</ele>
        <time>2021-03-03T10:31:25Z</time>
      </trkpt>
      <trkpt lat="41.50539121" lon="2.06332438">
        <ele>252.0</ele>
        <time>2021-03-03T10:31:26Z</time>
      </trkpt>
      <trkpt lat="41.50537889" lon="2.06329804">
        <ele>252.0</ele>
        <time>2021-03-03T10:31:27Z</time>
      </trkpt>
      <trkpt lat="41.50536855" lon="2.06326939">
        <ele>252.0</ele>
        <time>2021-03-03T10:31:28Z</time>
      </trkpt>
      <trkpt lat="41.50535823" lon="2.06323973">
        <ele>253.0</ele>
        <time>2021-03-03T10:31:29Z</time>
      </trkpt>
      <trkpt lat="41.50534957" lon="2.06321273">
        <ele>253.0</ele>
        <time>2021-03-03T10:31:30Z</time>
      </trkpt>
      <trkpt lat="41.50534157" lon="2.06318574">
        <ele>253.0</ele>
        <time>2021-03-03T10:31:31Z</time>
      </trkpt>
      <trkpt lat="41.50533624" lon="2.06315674">
        <ele>253.0</ele>
        <time>2021-03-03T10:31:32Z</time>
      </trkpt>
      <trkpt lat="41.50533325" lon="2.06312742">
        <ele>253.0</ele>
        <time>2021-03-03T10:31:33Z</time>
      </trkpt>
      <trkpt lat="41.50533192" lon="2.06309742">
        <ele>253.0</ele>
        <time>2021-03-03T10:31:34Z</time>
      </trkpt>
      <trkpt lat="41.50533126" lon="2.06306842">
        <ele>253.0</ele>
        <time>2021-03-03T10:31:35Z</time>
      </trkpt>
      <trkpt lat="41.50533259" lon="2.06303408">
        <ele>253.0</ele>
        <time>2021-03-03T10:31:36Z</time>
      </trkpt>
      <trkpt lat="41.50533526" lon="2.06299743">
        <ele>253.0</ele>
        <time>2021-03-03T10:31:37Z</time>
      </trkpt>
      <trkpt lat="41.50533792" lon="2.06295809">
        <ele>253.0</ele>
        <time>2021-03-03T10:31:38Z</time>
      </trkpt>
      <trkpt lat="41.50534158" lon="2.0629191">
        <ele>253.0</ele>
        <time>2021-03-03T10:31:39Z</time>
      </trkpt>
      <trkpt lat="41.50534891" lon="2.06287677">
        <ele>253.0</ele>
        <time>2021-03-03T10:31:40Z</time>
      </trkpt>
      <trkpt lat="41.50535857" lon="2.06283177">
        <ele>253.0</ele>
        <time>2021-03-03T10:31:41Z</time>
      </trkpt>
      <trkpt lat="41.50536957" lon="2.06278811">
        <ele>254.0</ele>
        <time>2021-03-03T10:31:42Z</time>
      </trkpt>
      <trkpt lat="41.5053829" lon="2.06274678">
        <ele>254.0</ele>
        <time>2021-03-03T10:31:43Z</time>
      </trkpt>
      <trkpt lat="41.50539923" lon="2.06270312">
        <ele>254.0</ele>
        <time>2021-03-03T10:31:44Z</time>
      </trkpt>
      <trkpt lat="41.50541523" lon="2.06265479">
        <ele>254.0</ele>
        <time>2021-03-03T10:31:45Z</time>
      </trkpt>
      <trkpt lat="41.50543123" lon="2.0626058">
        <ele>254.0</ele>
        <time>2021-03-03T10:31:46Z</time>
      </trkpt>
      <trkpt lat="41.50544622" lon="2.0625588">
        <ele>254.0</ele>
        <time>2021-03-03T10:31:47Z</time>
      </trkpt>
      <trkpt lat="41.50546022" lon="2.06250648">
        <ele>254.0</ele>
        <time>2021-03-03T10:31:48Z</time>
      </trkpt>
      <trkpt lat="41.50547821" lon="2.06244649">
        <ele>254.0</ele>
        <time>2021-03-03T10:31:49Z</time>
      </trkpt>
      <trkpt lat="41.50549988" lon="2.0623845">
        <ele>253.0</ele>
        <time>2021-03-03T10:31:50Z</time>
      </trkpt>
      <trkpt lat="41.50552388" lon="2.0623205">
        <ele>253.0</ele>
        <time>2021-03-03T10:31:51Z</time>
      </trkpt>
      <trkpt lat="41.50554887" lon="2.06225983">
        <ele>253.0</ele>
        <time>2021-03-03T10:31:52Z</time>
      </trkpt>
      <trkpt lat="41.50558053" lon="2.06219084">
        <ele>253.0</ele>
        <time>2021-03-03T10:31:53Z</time>
      </trkpt>
      <trkpt lat="41.50561152" lon="2.06211785">
        <ele>252.0</ele>
        <time>2021-03-03T10:31:54Z</time>
      </trkpt>
      <trkpt lat="41.50564185" lon="2.06204286">
        <ele>252.0</ele>
        <time>2021-03-03T10:31:55Z</time>
      </trkpt>
      <trkpt lat="41.50567151" lon="2.06196453">
        <ele>252.0</ele>
        <time>2021-03-03T10:31:56Z</time>
      </trkpt>
      <trkpt lat="41.50569951" lon="2.06189019">
        <ele>252.0</ele>
        <time>2021-03-03T10:31:57Z</time>
      </trkpt>
      <trkpt lat="41.5057315" lon="2.06181054">
        <ele>252.0</ele>
        <time>2021-03-03T10:31:58Z</time>
      </trkpt>
      <trkpt lat="41.50576317" lon="2.06173188">
        <ele>252.0</ele>
        <time>2021-03-03T10:31:59Z</time>
      </trkpt>
      <trkpt lat="41.50579283" lon="2.06166088">
        <ele>252.0</ele>
        <time>2021-03-03T10:32:00Z</time>
      </trkpt>
      <trkpt lat="41.50581983" lon="2.06159422">
        <ele>252.0</ele>
        <time>2021-03-03T10:32:01Z</time>
      </trkpt>
      <trkpt lat="41.50584415" lon="2.06152789">
        <ele>252.0</ele>
        <time>2021-03-03T10:32:02Z</time>
      </trkpt>
      <trkpt lat="41.50586482" lon="2.06146056">
        <ele>252.0</ele>
        <time>2021-03-03T10:32:03Z</time>
      </trkpt>
      <trkpt lat="41.50587914" lon="2.06139723">
        <ele>252.0</ele>
        <time>2021-03-03T10:32:04Z</time>
      </trkpt>
      <trkpt lat="41.5058878" lon="2.06133157">
        <ele>252.0</ele>
        <time>2021-03-03T10:32:05Z</time>
      </trkpt>
      <trkpt lat="41.5058928" lon="2.06126157">
        <ele>252.0</ele>
        <time>2021-03-03T10:32:06Z</time>
      </trkpt>
      <trkpt lat="41.50589579" lon="2.0611799">
        <ele>251.0</ele>
        <time>2021-03-03T10:32:07Z</time>
      </trkpt>
      <trkpt lat="41.50589611" lon="2.06109524">
        <ele>251.0</ele>
        <time>2021-03-03T10:32:08Z</time>
      </trkpt>
      <trkpt lat="41.50589478" lon="2.06100924">
        <ele>251.0</ele>
        <time>2021-03-03T10:32:09Z</time>
      </trkpt>
      <trkpt lat="41.50589544" lon="2.06092224">
        <ele>251.0</ele>
        <time>2021-03-03T10:32:10Z</time>
      </trkpt>
      <trkpt lat="41.50589977" lon="2.06083425">
        <ele>250.0</ele>
        <time>2021-03-03T10:32:11Z</time>
      </trkpt>
      <trkpt lat="41.5059081" lon="2.06074559">
        <ele>250.0</ele>
        <time>2021-03-03T10:32:12Z</time>
      </trkpt>
      <trkpt lat="41.50592077" lon="2.06065393">
        <ele>249.0</ele>
        <time>2021-03-03T10:32:13Z</time>
      </trkpt>
      <trkpt lat="41.50593542" lon="2.06055726">
        <ele>249.0</ele>
        <time>2021-03-03T10:32:14Z</time>
      </trkpt>
      <trkpt lat="41.50595108" lon="2.06045627">
        <ele>248.0</ele>
        <time>2021-03-03T10:32:15Z</time>
      </trkpt>
      <trkpt lat="41.50596741" lon="2.06035327">
        <ele>248.0</ele>
        <time>2021-03-03T10:32:16Z</time>
      </trkpt>
      <trkpt lat="41.50598341" lon="2.06025028">
        <ele>248.0</ele>
        <time>2021-03-03T10:32:17Z</time>
      </trkpt>
      <trkpt lat="41.50599941" lon="2.06014728">
        <ele>247.0</ele>
        <time>2021-03-03T10:32:18Z</time>
      </trkpt>
      <trkpt lat="41.5060154" lon="2.06004329">
        <ele>247.0</ele>
        <time>2021-03-03T10:32:19Z</time>
      </trkpt>
      <trkpt lat="41.50603074" lon="2.05994263">
        <ele>247.0</ele>
        <time>2021-03-03T10:32:20Z</time>
      </trkpt>
      <trkpt lat="41.50604573" lon="2.05984363">
        <ele>247.0</ele>
        <time>2021-03-03T10:32:21Z</time>
      </trkpt>
      <trkpt lat="41.50605939" lon="2.05974764">
        <ele>247.0</ele>
        <time>2021-03-03T10:32:22Z</time>
      </trkpt>
      <trkpt lat="41.50607172" lon="2.05965464">
        <ele>246.0</ele>
        <time>2021-03-03T10:32:23Z</time>
      </trkpt>
      <trkpt lat="41.50608372" lon="2.0595653">
        <ele>246.0</ele>
        <time>2021-03-03T10:32:24Z</time>
      </trkpt>
      <trkpt lat="41.50609404" lon="2.05948031">
        <ele>246.0</ele>
        <time>2021-03-03T10:32:25Z</time>
      </trkpt>
      <trkpt lat="41.50610371" lon="2.05939899">
        <ele>246.0</ele>
        <time>2021-03-03T10:32:26Z</time>
      </trkpt>
      <trkpt lat="41.50611236" lon="2.05932132">
        <ele>246.0</ele>
        <time>2021-03-03T10:32:27Z</time>
      </trkpt>
      <trkpt lat="41.50612002" lon="2.05925132">
        <ele>246.0</ele>
        <time>2021-03-03T10:32:28Z</time>
      </trkpt>
      <trkpt lat="41.50612602" lon="2.05917732">
        <ele>246.0</ele>
        <time>2021-03-03T10:32:29Z</time>
      </trkpt>
      <trkpt lat="41.50613068" lon="2.059107">
        <ele>247.0</ele>
        <time>2021-03-03T10:32:30Z</time>
      </trkpt>
      <trkpt lat="41.50613333" lon="2.05904">
        <ele>247.0</ele>
        <time>2021-03-03T10:32:31Z</time>
      </trkpt>
      <trkpt lat="41.506135" lon="2.058975">
        <ele>247.0</ele>
        <time>2021-03-03T10:32:32Z</time>
      </trkpt>
      <trkpt lat="41.50613666" lon="2.05891368">
        <ele>247.0</ele>
        <time>2021-03-03T10:32:33Z</time>
      </trkpt>
      <trkpt lat="41.506136" lon="2.05885602">
        <ele>247.0</ele>
        <time>2021-03-03T10:32:34Z</time>
      </trkpt>
      <trkpt lat="41.50613301" lon="2.05880335">
        <ele>248.0</ele>
        <time>2021-03-03T10:32:35Z</time>
      </trkpt>
      <trkpt lat="41.50612501" lon="2.0587497">
        <ele>248.0</ele>
        <time>2021-03-03T10:32:36Z</time>
      </trkpt>
      <trkpt lat="41.50611401" lon="2.05870203">
        <ele>248.0</ele>
        <time>2021-03-03T10:32:37Z</time>
      </trkpt>
      <trkpt lat="41.50609935" lon="2.05865504">
        <ele>249.0</ele>
        <time>2021-03-03T10:32:38Z</time>
      </trkpt>
      <trkpt lat="41.50608103" lon="2.05861371">
        <ele>249.0</ele>
        <time>2021-03-03T10:32:39Z</time>
      </trkpt>
      <trkpt lat="41.50606203" lon="2.05857805">
        <ele>250.0</ele>
        <time>2021-03-03T10:32:40Z</time>
      </trkpt>
      <trkpt lat="41.50604137" lon="2.05854406">
        <ele>250.0</ele>
        <time>2021-03-03T10:32:41Z</time>
      </trkpt>
      <trkpt lat="41.50601837" lon="2.05851273">
        <ele>250.0</ele>
        <time>2021-03-03T10:32:42Z</time>
      </trkpt>
      <trkpt lat="41.50599604" lon="2.05848174">
        <ele>250.0</ele>
        <time>2021-03-03T10:32:43Z</time>
      </trkpt>
      <trkpt lat="41.50597572" lon="2.05845141">
        <ele>251.0</ele>
        <time>2021-03-03T10:32:44Z</time>
      </trkpt>
      <trkpt lat="41.50595239" lon="2.05841775">
        <ele>251.0</ele>
        <time>2021-03-03T10:32:45Z</time>
      </trkpt>
      <trkpt lat="41.5059294" lon="2.05838376">
        <ele>252.0</ele>
        <time>2021-03-03T10:32:46Z</time>
      </trkpt>
      <trkpt lat="41.50590675" lon="2.05835076">
        <ele>252.0</ele>
        <time>2021-03-03T10:32:47Z</time>
      </trkpt>
      <trkpt lat="41.50588508" lon="2.0583191">
        <ele>252.0</ele>
        <time>2021-03-03T10:32:48Z</time>
      </trkpt>
      <trkpt lat="41.50586442" lon="2.05828843">
        <ele>253.0</ele>
        <time>2021-03-03T10:32:49Z</time>
      </trkpt>
      <trkpt lat="41.50584376" lon="2.05825811">
        <ele>253.0</ele>
        <time>2021-03-03T10:32:50Z</time>
      </trkpt>
      <trkpt lat="41.5058231" lon="2.05822911">
        <ele>254.0</ele>
        <time>2021-03-03T10:32:51Z</time>
      </trkpt>
      <trkpt lat="41.50580343" lon="2.05820279">
        <ele>254.0</ele>
        <time>2021-03-03T10:32:52Z</time>
      </trkpt>
      <trkpt lat="41.50578544" lon="2.05817713">
        <ele>255.0</ele>
        <time>2021-03-03T10:32:53Z</time>
      </trkpt>
      <trkpt lat="41.50577278" lon="2.05815213">
        <ele>255.0</ele>
        <time>2021-03-03T10:32:54Z</time>
      </trkpt>
      <trkpt lat="41.50576312" lon="2.05812881">
        <ele>255.0</ele>
        <time>2021-03-03T10:32:55Z</time>
      </trkpt>
      <trkpt lat="41.50575579" lon="2.05810647">
        <ele>256.0</ele>
        <time>2021-03-03T10:32:56Z</time>
      </trkpt>
      <trkpt lat="41.5057468" lon="2.05808382">
        <ele>256.0</ele>
        <time>2021-03-03T10:32:57Z</time>
      </trkpt>
      <trkpt lat="41.50573546" lon="2.05805449">
        <ele>257.0</ele>
        <time>2021-03-03T10:32:58Z</time>
      </trkpt>
      <trkpt lat="41.50572347" lon="2.0580235">
        <ele>257.0</ele>
        <time>2021-03-03T10:32:59Z</time>
      </trkpt>
      <trkpt lat="41.50571214" lon="2.0579925">
        <ele>257.0</ele>
        <time>2021-03-03T10:33:00Z</time>
      </trkpt>
      <trkpt lat="41.50570215" lon="2.05796251">
        <ele>257.0</ele>
        <time>2021-03-03T10:33:00Z</time>
      </trkpt>
      <trkpt lat="41.50569182" lon="2.05792885">
        <ele>258.0</ele>
        <time>2021-03-03T10:33:01Z</time>
      </trkpt>
      <trkpt lat="41.50568149" lon="2.05789186">
        <ele>258.0</ele>
        <time>2021-03-03T10:33:02Z</time>
      </trkpt>
      <trkpt lat="41.50567183" lon="2.05785586">
        <ele>259.0</ele>
        <time>2021-03-03T10:33:03Z</time>
      </trkpt>
      <trkpt lat="41.50566416" lon="2.05782152">
        <ele>259.0</ele>
        <time>2021-03-03T10:33:04Z</time>
      </trkpt>
      <trkpt lat="41.50565917" lon="2.05778687">
        <ele>259.0</ele>
        <time>2021-03-03T10:33:05Z</time>
      </trkpt>
      <trkpt lat="41.5056535" lon="2.05775153">
        <ele>259.0</ele>
        <time>2021-03-03T10:33:06Z</time>
      </trkpt>
      <trkpt lat="41.5056465" lon="2.0577172">
        <ele>260.0</ele>
        <time>2021-03-03T10:33:07Z</time>
      </trkpt>
      <trkpt lat="41.50564117" lon="2.05768488">
        <ele>260.0</ele>
        <time>2021-03-03T10:33:08Z</time>
      </trkpt>
      <trkpt lat="41.50563651" lon="2.05765254">
        <ele>260.0</ele>
        <time>2021-03-03T10:33:09Z</time>
      </trkpt>
      <trkpt lat="41.50563352" lon="2.05761922">
        <ele>260.0</ele>
        <time>2021-03-03T10:33:10Z</time>
      </trkpt>
      <trkpt lat="41.50563186" lon="2.05758255">
        <ele>260.0</ele>
        <time>2021-03-03T10:33:11Z</time>
      </trkpt>
      <trkpt lat="41.50562986" lon="2.05754556">
        <ele>260.0</ele>
        <time>2021-03-03T10:33:12Z</time>
      </trkpt>
      <trkpt lat="41.50562719" lon="2.05750624">
        <ele>260.0</ele>
        <time>2021-03-03T10:33:13Z</time>
      </trkpt>
      <trkpt lat="41.5056262" lon="2.05746692">
        <ele>261.0</ele>
        <time>2021-03-03T10:33:14Z</time>
      </trkpt>
      <trkpt lat="41.50562686" lon="2.05742725">
        <ele>261.0</ele>
        <time>2021-03-03T10:33:15Z</time>
      </trkpt>
      <trkpt lat="41.50562852" lon="2.05738825">
        <ele>261.0</ele>
        <time>2021-03-03T10:33:16Z</time>
      </trkpt>
      <trkpt lat="41.50563151" lon="2.05735026">
        <ele>261.0</ele>
        <time>2021-03-03T10:33:17Z</time>
      </trkpt>
      <trkpt lat="41.50563418" lon="2.05730959">
        <ele>261.0</ele>
        <time>2021-03-03T10:33:18Z</time>
      </trkpt>
      <trkpt lat="41.50563918" lon="2.05726626">
        <ele>261.0</ele>
        <time>2021-03-03T10:33:19Z</time>
      </trkpt>
      <trkpt lat="41.5056445" lon="2.05722293">
        <ele>261.0</ele>
        <time>2021-03-03T10:33:20Z</time>
      </trkpt>
      <trkpt lat="41.50565117" lon="2.05717694">
        <ele>261.0</ele>
        <time>2021-03-03T10:33:21Z</time>
      </trkpt>
      <trkpt lat="41.50565917" lon="2.0571356">
        <ele>261.0</ele>
        <time>2021-03-03T10:33:22Z</time>
      </trkpt>
      <trkpt lat="41.50567049" lon="2.05709161">
        <ele>261.0</ele>
        <time>2021-03-03T10:33:23Z</time>
      </trkpt>
      <trkpt lat="41.50568449" lon="2.05704929">
        <ele>261.0</ele>
        <time>2021-03-03T10:33:24Z</time>
      </trkpt>
      <trkpt lat="41.50570116" lon="2.05700796">
        <ele>261.0</ele>
        <time>2021-03-03T10:33:25Z</time>
      </trkpt>
      <trkpt lat="41.50571682" lon="2.05696896">
        <ele>261.0</ele>
        <time>2021-03-03T10:33:26Z</time>
      </trkpt>
      <trkpt lat="41.50573114" lon="2.05692929">
        <ele>261.0</ele>
        <time>2021-03-03T10:33:27Z</time>
      </trkpt>
      <trkpt lat="41.50574447" lon="2.05688563">
        <ele>261.0</ele>
        <time>2021-03-03T10:33:28Z</time>
      </trkpt>
      <trkpt lat="41.50575613" lon="2.05684098">
        <ele>261.0</ele>
        <time>2021-03-03T10:33:29Z</time>
      </trkpt>
      <trkpt lat="41.50576745" lon="2.05679131">
        <ele>261.0</ele>
        <time>2021-03-03T10:33:30Z</time>
      </trkpt>
      <trkpt lat="41.50577911" lon="2.05674098">
        <ele>261.0</ele>
        <time>2021-03-03T10:33:31Z</time>
      </trkpt>
      <trkpt lat="41.50579211" lon="2.05668898">
        <ele>261.0</ele>
        <time>2021-03-03T10:33:32Z</time>
      </trkpt>
      <trkpt lat="41.50580177" lon="2.05663965">
        <ele>261.0</ele>
        <time>2021-03-03T10:33:33Z</time>
      </trkpt>
      <trkpt lat="41.5058101" lon="2.056586">
        <ele>261.0</ele>
        <time>2021-03-03T10:33:34Z</time>
      </trkpt>
      <trkpt lat="41.50581577" lon="2.056538">
        <ele>261.0</ele>
        <time>2021-03-03T10:33:35Z</time>
      </trkpt>
      <trkpt lat="41.5058181" lon="2.05648966">
        <ele>262.0</ele>
        <time>2021-03-03T10:33:36Z</time>
      </trkpt>
      <trkpt lat="41.50581842" lon="2.05644501">
        <ele>262.0</ele>
        <time>2021-03-03T10:33:37Z</time>
      </trkpt>
      <trkpt lat="41.50581477" lon="2.05640168">
        <ele>262.0</ele>
        <time>2021-03-03T10:33:38Z</time>
      </trkpt>
      <trkpt lat="41.50580844" lon="2.05635835">
        <ele>262.0</ele>
        <time>2021-03-03T10:33:39Z</time>
      </trkpt>
      <trkpt lat="41.50579744" lon="2.05631402">
        <ele>262.0</ele>
        <time>2021-03-03T10:33:40Z</time>
      </trkpt>
      <trkpt lat="41.50578378" lon="2.05626669">
        <ele>263.0</ele>
        <time>2021-03-03T10:33:41Z</time>
      </trkpt>
      <trkpt lat="41.50576612" lon="2.05621836">
        <ele>263.0</ele>
        <time>2021-03-03T10:33:42Z</time>
      </trkpt>
      <trkpt lat="41.50574579" lon="2.05616637">
        <ele>263.0</ele>
        <time>2021-03-03T10:33:43Z</time>
      </trkpt>
      <trkpt lat="41.5057238" lon="2.05610937">
        <ele>263.0</ele>
        <time>2021-03-03T10:33:44Z</time>
      </trkpt>
      <trkpt lat="41.5057008" lon="2.05605038">
        <ele>263.0</ele>
        <time>2021-03-03T10:33:45Z</time>
      </trkpt>
      <trkpt lat="41.50567647" lon="2.05598938">
        <ele>263.0</ele>
        <time>2021-03-03T10:33:46Z</time>
      </trkpt>
      <trkpt lat="41.50565247" lon="2.05593039">
        <ele>262.0</ele>
        <time>2021-03-03T10:33:47Z</time>
      </trkpt>
      <trkpt lat="41.50562415" lon="2.05586573">
        <ele>262.0</ele>
        <time>2021-03-03T10:33:48Z</time>
      </trkpt>
      <trkpt lat="41.50559483" lon="2.05580208">
        <ele>262.0</ele>
        <time>2021-03-03T10:33:49Z</time>
      </trkpt>
      <trkpt lat="41.50556816" lon="2.05574008">
        <ele>261.0</ele>
        <time>2021-03-03T10:33:50Z</time>
      </trkpt>
      <trkpt lat="41.50554384" lon="2.05568075">
        <ele>261.0</ele>
        <time>2021-03-03T10:33:51Z</time>
      </trkpt>
      <trkpt lat="41.50552184" lon="2.05562509">
        <ele>261.0</ele>
        <time>2021-03-03T10:33:52Z</time>
      </trkpt>
      <trkpt lat="41.5055005" lon="2.05557242">
        <ele>261.0</ele>
        <time>2021-03-03T10:33:53Z</time>
      </trkpt>
      <trkpt lat="41.50547918" lon="2.05551976">
        <ele>261.0</ele>
        <time>2021-03-03T10:33:54Z</time>
      </trkpt>
      <trkpt lat="41.50545485" lon="2.0554661">
        <ele>261.0</ele>
        <time>2021-03-03T10:33:55Z</time>
      </trkpt>
      <trkpt lat="41.50543119" lon="2.05541411">
        <ele>261.0</ele>
        <time>2021-03-03T10:33:56Z</time>
      </trkpt>
      <trkpt lat="41.50540719" lon="2.05536177">
        <ele>261.0</ele>
        <time>2021-03-03T10:33:57Z</time>
      </trkpt>
      <trkpt lat="41.50538486" lon="2.05531077">
        <ele>261.0</ele>
        <time>2021-03-03T10:33:58Z</time>
      </trkpt>
      <trkpt lat="41.50536252" lon="2.05525478">
        <ele>261.0</ele>
        <time>2021-03-03T10:33:59Z</time>
      </trkpt>
      <trkpt lat="41.50534052" lon="2.05519845">
        <ele>261.0</ele>
        <time>2021-03-03T10:34:00Z</time>
      </trkpt>
      <trkpt lat="41.50532253" lon="2.05514413">
        <ele>261.0</ele>
        <time>2021-03-03T10:34:01Z</time>
      </trkpt>
      <trkpt lat="41.50530554" lon="2.05507979">
        <ele>261.0</ele>
        <time>2021-03-03T10:34:02Z</time>
      </trkpt>
      <trkpt lat="41.50529188" lon="2.05501747">
        <ele>261.0</ele>
        <time>2021-03-03T10:34:03Z</time>
      </trkpt>
      <trkpt lat="41.50527922" lon="2.05494381">
        <ele>261.0</ele>
        <time>2021-03-03T10:34:04Z</time>
      </trkpt>
      <trkpt lat="41.50527089" lon="2.05486548">
        <ele>260.0</ele>
        <time>2021-03-03T10:34:05Z</time>
      </trkpt>
      <trkpt lat="41.5052679" lon="2.05478582">
        <ele>260.0</ele>
        <time>2021-03-03T10:34:06Z</time>
      </trkpt>
      <trkpt lat="41.50527055" lon="2.05469749">
        <ele>259.0</ele>
        <time>2021-03-03T10:34:07Z</time>
      </trkpt>
      <trkpt lat="41.50527488" lon="2.05460816">
        <ele>259.0</ele>
        <time>2021-03-03T10:34:08Z</time>
      </trkpt>
      <trkpt lat="41.50528153" lon="2.05451683">
        <ele>259.0</ele>
        <time>2021-03-03T10:34:09Z</time>
      </trkpt>
      <trkpt lat="41.5052892" lon="2.05442384">
        <ele>259.0</ele>
        <time>2021-03-03T10:34:10Z</time>
      </trkpt>
      <trkpt lat="41.50529786" lon="2.05432352">
        <ele>258.0</ele>
        <time>2021-03-03T10:34:11Z</time>
      </trkpt>
      <trkpt lat="41.50530586" lon="2.05423085">
        <ele>258.0</ele>
        <time>2021-03-03T10:34:12Z</time>
      </trkpt>
      <trkpt lat="41.50531218" lon="2.0541322">
        <ele>257.0</ele>
        <time>2021-03-03T10:34:13Z</time>
      </trkpt>
      <trkpt lat="41.50531651" lon="2.05404287">
        <ele>257.0</ele>
        <time>2021-03-03T10:34:14Z</time>
      </trkpt>
      <trkpt lat="41.50531717" lon="2.05395421">
        <ele>257.0</ele>
        <time>2021-03-03T10:34:15Z</time>
      </trkpt>
      <trkpt lat="41.50531217" lon="2.05386155">
        <ele>257.0</ele>
        <time>2021-03-03T10:34:16Z</time>
      </trkpt>
      <trkpt lat="41.50530285" lon="2.05377255">
        <ele>257.0</ele>
        <time>2021-03-03T10:34:17Z</time>
      </trkpt>
      <trkpt lat="41.50529019" lon="2.05369356">
        <ele>257.0</ele>
        <time>2021-03-03T10:34:18Z</time>
      </trkpt>
      <trkpt lat="41.50527486" lon="2.0536169">
        <ele>257.0</ele>
        <time>2021-03-03T10:34:19Z</time>
      </trkpt>
      <trkpt lat="41.50525852" lon="2.05353791">
        <ele>256.0</ele>
        <time>2021-03-03T10:34:20Z</time>
      </trkpt>
      <trkpt lat="41.50524387" lon="2.05346525">
        <ele>256.0</ele>
        <time>2021-03-03T10:34:21Z</time>
      </trkpt>
      <trkpt lat="41.50522921" lon="2.05338591">
        <ele>255.0</ele>
        <time>2021-03-03T10:34:22Z</time>
      </trkpt>
      <trkpt lat="41.50521489" lon="2.05330559">
        <ele>255.0</ele>
        <time>2021-03-03T10:34:23Z</time>
      </trkpt>
      <trkpt lat="41.50520122" lon="2.05322792">
        <ele>254.0</ele>
        <time>2021-03-03T10:34:24Z</time>
      </trkpt>
      <trkpt lat="41.50518956" lon="2.05315092">
        <ele>254.0</ele>
        <time>2021-03-03T10:34:25Z</time>
      </trkpt>
      <trkpt lat="41.50517791" lon="2.05307293">
        <ele>253.0</ele>
        <time>2021-03-03T10:34:26Z</time>
      </trkpt>
      <trkpt lat="41.50516657" lon="2.05299861">
        <ele>253.0</ele>
        <time>2021-03-03T10:34:27Z</time>
      </trkpt>
      <trkpt lat="41.50515591" lon="2.05292262">
        <ele>252.0</ele>
        <time>2021-03-03T10:34:28Z</time>
      </trkpt>
      <trkpt lat="41.50514491" lon="2.05285062">
        <ele>251.0</ele>
        <time>2021-03-03T10:34:29Z</time>
      </trkpt>
      <trkpt lat="41.50513724" lon="2.05279129">
        <ele>251.0</ele>
        <time>2021-03-03T10:34:30Z</time>
      </trkpt>
      <trkpt lat="41.50513224" lon="2.05274395">
        <ele>250.0</ele>
        <time>2021-03-03T10:34:31Z</time>
      </trkpt>
      <trkpt lat="41.50513224" lon="2.05270163">
        <ele>249.0</ele>
        <time>2021-03-03T10:34:32Z</time>
      </trkpt>
      <trkpt lat="41.50513158" lon="2.05266064">
        <ele>249.0</ele>
        <time>2021-03-03T10:34:33Z</time>
      </trkpt>
      <trkpt lat="41.50513026" lon="2.05261832">
        <ele>248.0</ele>
        <time>2021-03-03T10:34:34Z</time>
      </trkpt>
      <trkpt lat="41.50512626" lon="2.05257298">
        <ele>248.0</ele>
        <time>2021-03-03T10:34:35Z</time>
      </trkpt>
      <trkpt lat="41.50511994" lon="2.05251899">
        <ele>247.0</ele>
        <time>2021-03-03T10:34:36Z</time>
      </trkpt>
      <trkpt lat="41.50511294" lon="2.05246067">
        <ele>246.0</ele>
        <time>2021-03-03T10:34:37Z</time>
      </trkpt>
      <trkpt lat="41.50510795" lon="2.05238935">
        <ele>246.0</ele>
        <time>2021-03-03T10:34:38Z</time>
      </trkpt>
      <trkpt lat="41.50510395" lon="2.05231201">
        <ele>245.0</ele>
        <time>2021-03-03T10:34:39Z</time>
      </trkpt>
      <trkpt lat="41.50510162" lon="2.05223102">
        <ele>244.0</ele>
        <time>2021-03-03T10:34:40Z</time>
      </trkpt>
      <trkpt lat="41.50510062" lon="2.05215203">
        <ele>244.0</ele>
        <time>2021-03-03T10:34:41Z</time>
      </trkpt>
      <trkpt lat="41.50509997" lon="2.05206203">
        <ele>243.0</ele>
        <time>2021-03-03T10:34:42Z</time>
      </trkpt>
      <trkpt lat="41.50509698" lon="2.05197171">
        <ele>242.0</ele>
        <time>2021-03-03T10:34:43Z</time>
      </trkpt>
      <trkpt lat="41.50508931" lon="2.05188139">
        <ele>241.0</ele>
        <time>2021-03-03T10:34:44Z</time>
      </trkpt>
      <trkpt lat="41.50508265" lon="2.05178739">
        <ele>240.0</ele>
        <time>2021-03-03T10:34:45Z</time>
      </trkpt>
      <trkpt lat="41.50507465" lon="2.05168873">
        <ele>239.0</ele>
        <time>2021-03-03T10:34:46Z</time>
      </trkpt>
      <trkpt lat="41.50506632" lon="2.05158474">
        <ele>238.0</ele>
        <time>2021-03-03T10:34:47Z</time>
      </trkpt>
      <trkpt lat="41.505055" lon="2.05147675">
        <ele>237.0</ele>
        <time>2021-03-03T10:34:48Z</time>
      </trkpt>
      <trkpt lat="41.50504034" lon="2.05136576">
        <ele>236.0</ele>
        <time>2021-03-03T10:34:49Z</time>
      </trkpt>
      <trkpt lat="41.50502134" lon="2.05124909">
        <ele>235.0</ele>
        <time>2021-03-03T10:34:50Z</time>
      </trkpt>
      <trkpt lat="41.50499802" lon="2.05112677">
        <ele>234.0</ele>
        <time>2021-03-03T10:34:51Z</time>
      </trkpt>
      <trkpt lat="41.50497202" lon="2.05099777">
        <ele>233.0</ele>
        <time>2021-03-03T10:34:52Z</time>
      </trkpt>
      <trkpt lat="41.50494603" lon="2.05087011">
        <ele>231.0</ele>
        <time>2021-03-03T10:34:53Z</time>
      </trkpt>
      <trkpt lat="41.50491904" lon="2.05074446">
        <ele>230.0</ele>
        <time>2021-03-03T10:34:54Z</time>
      </trkpt>
      <trkpt lat="41.50489204" lon="2.05062646">
        <ele>230.0</ele>
        <time>2021-03-03T10:34:55Z</time>
      </trkpt>
      <trkpt lat="41.50486938" lon="2.0505178">
        <ele>229.0</ele>
        <time>2021-03-03T10:34:56Z</time>
      </trkpt>
      <trkpt lat="41.50485005" lon="2.0504208">
        <ele>228.0</ele>
        <time>2021-03-03T10:34:57Z</time>
      </trkpt>
      <trkpt lat="41.50483371" lon="2.0503348">
        <ele>228.0</ele>
        <time>2021-03-03T10:34:58Z</time>
      </trkpt>
      <trkpt lat="41.50482072" lon="2.0502578">
        <ele>228.0</ele>
        <time>2021-03-03T10:34:59Z</time>
      </trkpt>
      <trkpt lat="41.50481239" lon="2.05018614">
        <ele>227.0</ele>
        <time>2021-03-03T10:35:00Z</time>
      </trkpt>
      <trkpt lat="41.50480572" lon="2.05011814">
        <ele>227.0</ele>
        <time>2021-03-03T10:35:01Z</time>
      </trkpt>
      <trkpt lat="41.50479739" lon="2.05005248">
        <ele>227.0</ele>
        <time>2021-03-03T10:35:02Z</time>
      </trkpt>
      <trkpt lat="41.50478807" lon="2.04998982">
        <ele>227.0</ele>
        <time>2021-03-03T10:35:03Z</time>
      </trkpt>
      <trkpt lat="41.5047774" lon="2.04993216">
        <ele>227.0</ele>
        <time>2021-03-03T10:35:04Z</time>
      </trkpt>
      <trkpt lat="41.50476373" lon="2.0498785">
        <ele>227.0</ele>
        <time>2021-03-03T10:35:05Z</time>
      </trkpt>
      <trkpt lat="41.50474973" lon="2.04983017">
        <ele>227.0</ele>
        <time>2021-03-03T10:35:06Z</time>
      </trkpt>
      <trkpt lat="41.50473341" lon="2.04977951">
        <ele>227.0</ele>
        <time>2021-03-03T10:35:07Z</time>
      </trkpt>
      <trkpt lat="41.50471574" lon="2.04972818">
        <ele>227.0</ele>
        <time>2021-03-03T10:35:08Z</time>
      </trkpt>
      <trkpt lat="41.50469709" lon="2.04967952">
        <ele>227.0</ele>
        <time>2021-03-03T10:35:09Z</time>
      </trkpt>
      <trkpt lat="41.50467809" lon="2.04963052">
        <ele>227.0</ele>
        <time>2021-03-03T10:35:10Z</time>
      </trkpt>
      <trkpt lat="41.50465875" lon="2.04957853">
        <ele>227.0</ele>
        <time>2021-03-03T10:35:11Z</time>
      </trkpt>
      <trkpt lat="41.50463843" lon="2.04952419">
        <ele>227.0</ele>
        <time>2021-03-03T10:35:12Z</time>
      </trkpt>
      <trkpt lat="41.50461676" lon="2.04946919">
        <ele>227.0</ele>
        <time>2021-03-03T10:35:13Z</time>
      </trkpt>
      <trkpt lat="41.50459277" lon="2.0494132">
        <ele>227.0</ele>
        <time>2021-03-03T10:35:14Z</time>
      </trkpt>
      <trkpt lat="41.50456877" lon="2.04935687">
        <ele>227.0</ele>
        <time>2021-03-03T10:35:15Z</time>
      </trkpt>
      <trkpt lat="41.50454478" lon="2.0493002">
        <ele>227.0</ele>
        <time>2021-03-03T10:35:16Z</time>
      </trkpt>
      <trkpt lat="41.50452145" lon="2.04924155">
        <ele>226.0</ele>
        <time>2021-03-03T10:35:17Z</time>
      </trkpt>
      <trkpt lat="41.50450113" lon="2.04918321">
        <ele>226.0</ele>
        <time>2021-03-03T10:35:18Z</time>
      </trkpt>
      <trkpt lat="41.50448513" lon="2.04912656">
        <ele>226.0</ele>
        <time>2021-03-03T10:35:19Z</time>
      </trkpt>
      <trkpt lat="41.50447314" lon="2.04907123">
        <ele>226.0</ele>
        <time>2021-03-03T10:35:20Z</time>
      </trkpt>
      <trkpt lat="41.50446681" lon="2.0490189">
        <ele>226.0</ele>
        <time>2021-03-03T10:35:21Z</time>
      </trkpt>
      <trkpt lat="41.50446582" lon="2.04897024">
        <ele>225.0</ele>
        <time>2021-03-03T10:35:22Z</time>
      </trkpt>
      <trkpt lat="41.50446815" lon="2.04892592">
        <ele>225.0</ele>
        <time>2021-03-03T10:35:23Z</time>
      </trkpt>
      <trkpt lat="41.50447148" lon="2.04888892">
        <ele>225.0</ele>
        <time>2021-03-03T10:35:24Z</time>
      </trkpt>
      <trkpt lat="41.5044768" lon="2.04885726">
        <ele>225.0</ele>
        <time>2021-03-03T10:35:25Z</time>
      </trkpt>
      <trkpt lat="41.50448347" lon="2.04882861">
        <ele>225.0</ele>
        <time>2021-03-03T10:35:26Z</time>
      </trkpt>
      <trkpt lat="41.5044918" lon="2.04879895">
        <ele>225.0</ele>
        <time>2021-03-03T10:35:27Z</time>
      </trkpt>
      <trkpt lat="41.50450247" lon="2.04876562">
        <ele>225.0</ele>
        <time>2021-03-03T10:35:28Z</time>
      </trkpt>
      <trkpt lat="41.50451446" lon="2.04872729">
        <ele>224.0</ele>
        <time>2021-03-03T10:35:29Z</time>
      </trkpt>
      <trkpt lat="41.50452678" lon="2.04868497">
        <ele>224.0</ele>
        <time>2021-03-03T10:35:30Z</time>
      </trkpt>
      <trkpt lat="41.50454111" lon="2.0486413">
        <ele>224.0</ele>
        <time>2021-03-03T10:35:31Z</time>
      </trkpt>
      <trkpt lat="41.50455777" lon="2.04859498">
        <ele>224.0</ele>
        <time>2021-03-03T10:35:32Z</time>
      </trkpt>
      <trkpt lat="41.50457677" lon="2.04854531">
        <ele>224.0</ele>
        <time>2021-03-03T10:35:33Z</time>
      </trkpt>
      <trkpt lat="41.50459544" lon="2.04849399">
        <ele>224.0</ele>
        <time>2021-03-03T10:35:34Z</time>
      </trkpt>
      <trkpt lat="41.50460976" lon="2.04844066">
        <ele>224.0</ele>
        <time>2021-03-03T10:35:35Z</time>
      </trkpt>
      <trkpt lat="41.50462275" lon="2.048386">
        <ele>224.0</ele>
        <time>2021-03-03T10:35:36Z</time>
      </trkpt>
      <trkpt lat="41.50463575" lon="2.04833">
        <ele>224.0</ele>
        <time>2021-03-03T10:35:37Z</time>
      </trkpt>
      <trkpt lat="41.50464875" lon="2.04827268">
        <ele>224.0</ele>
        <time>2021-03-03T10:35:38Z</time>
      </trkpt>
      <trkpt lat="41.50465974" lon="2.04821869">
        <ele>224.0</ele>
        <time>2021-03-03T10:35:39Z</time>
      </trkpt>
      <trkpt lat="41.50467308" lon="2.04816035">
        <ele>224.0</ele>
        <time>2021-03-03T10:35:40Z</time>
      </trkpt>
      <trkpt lat="41.50468874" lon="2.0481027">
        <ele>224.0</ele>
        <time>2021-03-03T10:35:41Z</time>
      </trkpt>
      <trkpt lat="41.50470607" lon="2.04805337">
        <ele>224.0</ele>
        <time>2021-03-03T10:35:42Z</time>
      </trkpt>
      <trkpt lat="41.50472672" lon="2.04801572">
        <ele>224.0</ele>
        <time>2021-03-03T10:35:43Z</time>
      </trkpt>
      <trkpt lat="41.50475272" lon="2.04798972">
        <ele>224.0</ele>
        <time>2021-03-03T10:35:44Z</time>
      </trkpt>
      <trkpt lat="41.50478106" lon="2.04797738">
        <ele>224.0</ele>
        <time>2021-03-03T10:35:45Z</time>
      </trkpt>
      <trkpt lat="41.50481071" lon="2.04797572">
        <ele>224.0</ele>
        <time>2021-03-03T10:35:46Z</time>
      </trkpt>
      <trkpt lat="41.50484038" lon="2.04798105">
        <ele>224.0</ele>
        <time>2021-03-03T10:35:47Z</time>
      </trkpt>
      <trkpt lat="41.5048687" lon="2.04799272">
        <ele>224.0</ele>
        <time>2021-03-03T10:35:48Z</time>
      </trkpt>
      <trkpt lat="41.50489736" lon="2.04800837">
        <ele>224.0</ele>
        <time>2021-03-03T10:35:49Z</time>
      </trkpt>
      <trkpt lat="41.50492402" lon="2.0480287">
        <ele>225.0</ele>
        <time>2021-03-03T10:35:50Z</time>
      </trkpt>
      <trkpt lat="41.50494701" lon="2.04805103">
        <ele>225.0</ele>
        <time>2021-03-03T10:35:51Z</time>
      </trkpt>
      <trkpt lat="41.50496867" lon="2.04807735">
        <ele>226.0</ele>
        <time>2021-03-03T10:35:52Z</time>
      </trkpt>
      <trkpt lat="41.50498866" lon="2.04810669">
        <ele>226.0</ele>
        <time>2021-03-03T10:35:53Z</time>
      </trkpt>
      <trkpt lat="41.50500666" lon="2.04813735">
        <ele>226.0</ele>
        <time>2021-03-03T10:35:54Z</time>
      </trkpt>
      <trkpt lat="41.50502365" lon="2.04817068">
        <ele>226.0</ele>
        <time>2021-03-03T10:35:55Z</time>
      </trkpt>
      <trkpt lat="41.50504032" lon="2.04820533">
        <ele>226.0</ele>
        <time>2021-03-03T10:35:56Z</time>
      </trkpt>
      <trkpt lat="41.50505731" lon="2.04824367">
        <ele>227.0</ele>
        <time>2021-03-03T10:35:57Z</time>
      </trkpt>
      <trkpt lat="41.50507263" lon="2.04828567">
        <ele>227.0</ele>
        <time>2021-03-03T10:35:58Z</time>
      </trkpt>
      <trkpt lat="41.50508397" lon="2.04833299">
        <ele>227.0</ele>
        <time>2021-03-03T10:35:59Z</time>
      </trkpt>
      <trkpt lat="41.50509296" lon="2.04838566">
        <ele>227.0</ele>
        <time>2021-03-03T10:36:00Z</time>
      </trkpt>
      <trkpt lat="41.50510162" lon="2.04844165">
        <ele>227.0</ele>
        <time>2021-03-03T10:36:01Z</time>
      </trkpt>
      <trkpt lat="41.50510995" lon="2.04850031">
        <ele>227.0</ele>
        <time>2021-03-03T10:36:02Z</time>
      </trkpt>
      <trkpt lat="41.50512095" lon="2.04855865">
        <ele>226.0</ele>
        <time>2021-03-03T10:36:03Z</time>
      </trkpt>
      <trkpt lat="41.50513495" lon="2.04861664">
        <ele>226.0</ele>
        <time>2021-03-03T10:36:04Z</time>
      </trkpt>
      <trkpt lat="41.50515227" lon="2.04867129">
        <ele>226.0</ele>
        <time>2021-03-03T10:36:05Z</time>
      </trkpt>
      <trkpt lat="41.50517327" lon="2.04872063">
        <ele>226.0</ele>
        <time>2021-03-03T10:36:06Z</time>
      </trkpt>
      <trkpt lat="41.50519959" lon="2.04876262">
        <ele>225.0</ele>
        <time>2021-03-03T10:36:07Z</time>
      </trkpt>
      <trkpt lat="41.50523326" lon="2.04879295">
        <ele>224.0</ele>
        <time>2021-03-03T10:36:08Z</time>
      </trkpt>
      <trkpt lat="41.50527459" lon="2.04880561">
        <ele>224.0</ele>
        <time>2021-03-03T10:36:09Z</time>
      </trkpt>
      <trkpt lat="41.50532126" lon="2.04879994">
        <ele>223.0</ele>
        <time>2021-03-03T10:36:10Z</time>
      </trkpt>
      <trkpt lat="41.50536792" lon="2.04877561">
        <ele>222.0</ele>
        <time>2021-03-03T10:36:11Z</time>
      </trkpt>
      <trkpt lat="41.50541125" lon="2.04873662">
        <ele>222.0</ele>
        <time>2021-03-03T10:36:12Z</time>
      </trkpt>
      <trkpt lat="41.50545324" lon="2.04868595">
        <ele>221.0</ele>
        <time>2021-03-03T10:36:13Z</time>
      </trkpt>
      <trkpt lat="41.50549557" lon="2.04863163">
        <ele>221.0</ele>
        <time>2021-03-03T10:36:14Z</time>
      </trkpt>
      <trkpt lat="41.50553656" lon="2.04857696">
        <ele>221.0</ele>
        <time>2021-03-03T10:36:15Z</time>
      </trkpt>
      <trkpt lat="41.50557756" lon="2.04852564">
        <ele>220.0</ele>
        <time>2021-03-03T10:36:16Z</time>
      </trkpt>
      <trkpt lat="41.50561789" lon="2.04847631">
        <ele>220.0</ele>
        <time>2021-03-03T10:36:17Z</time>
      </trkpt>
      <trkpt lat="41.50565754" lon="2.04842999">
        <ele>220.0</ele>
        <time>2021-03-03T10:36:18Z</time>
      </trkpt>
      <trkpt lat="41.5056972" lon="2.04838699">
        <ele>220.0</ele>
        <time>2021-03-03T10:36:19Z</time>
      </trkpt>
      <trkpt lat="41.50573753" lon="2.04834533">
        <ele>220.0</ele>
        <time>2021-03-03T10:36:20Z</time>
      </trkpt>
      <trkpt lat="41.50577619" lon="2.04830468">
        <ele>219.0</ele>
        <time>2021-03-03T10:36:21Z</time>
      </trkpt>
      <trkpt lat="41.50581186" lon="2.04826601">
        <ele>219.0</ele>
        <time>2021-03-03T10:36:22Z</time>
      </trkpt>
      <trkpt lat="41.50584418" lon="2.04822702">
        <ele>219.0</ele>
        <time>2021-03-03T10:36:23Z</time>
      </trkpt>
      <trkpt lat="41.50587185" lon="2.04818769">
        <ele>219.0</ele>
        <time>2021-03-03T10:36:24Z</time>
      </trkpt>
      <trkpt lat="41.5058915" lon="2.04814703">
        <ele>219.0</ele>
        <time>2021-03-03T10:36:25Z</time>
      </trkpt>
      <trkpt lat="41.5059015" lon="2.04810703">
        <ele>218.0</ele>
        <time>2021-03-03T10:36:26Z</time>
      </trkpt>
      <trkpt lat="41.50590616" lon="2.04806871">
        <ele>218.0</ele>
        <time>2021-03-03T10:36:27Z</time>
      </trkpt>
      <trkpt lat="41.50590915" lon="2.04803204">
        <ele>218.0</ele>
        <time>2021-03-03T10:36:28Z</time>
      </trkpt>
      <trkpt lat="41.50591448" lon="2.04799972">
        <ele>218.0</ele>
        <time>2021-03-03T10:36:29Z</time>
      </trkpt>
      <trkpt lat="41.50592548" lon="2.04797305">
        <ele>217.0</ele>
        <time>2021-03-03T10:36:30Z</time>
      </trkpt>
      <trkpt lat="41.50594348" lon="2.04795205">
        <ele>217.0</ele>
        <time>2021-03-03T10:36:31Z</time>
      </trkpt>
      <trkpt lat="41.50596647" lon="2.04793273">
        <ele>217.0</ele>
        <time>2021-03-03T10:36:32Z</time>
      </trkpt>
      <trkpt lat="41.50599346" lon="2.04791673">
        <ele>217.0</ele>
        <time>2021-03-03T10:36:33Z</time>
      </trkpt>
      <trkpt lat="41.50602746" lon="2.04790139">
        <ele>216.0</ele>
        <time>2021-03-03T10:36:34Z</time>
      </trkpt>
      <trkpt lat="41.50607112" lon="2.04788673">
        <ele>216.0</ele>
        <time>2021-03-03T10:36:35Z</time>
      </trkpt>
      <trkpt lat="41.50611879" lon="2.04787107">
        <ele>216.0</ele>
        <time>2021-03-03T10:36:36Z</time>
      </trkpt>
      <trkpt lat="41.50616944" lon="2.04785375">
        <ele>216.0</ele>
        <time>2021-03-03T10:36:37Z</time>
      </trkpt>
      <trkpt lat="41.50622343" lon="2.04783575">
        <ele>215.0</ele>
        <time>2021-03-03T10:36:38Z</time>
      </trkpt>
      <trkpt lat="41.5062791" lon="2.04781741">
        <ele>215.0</ele>
        <time>2021-03-03T10:36:39Z</time>
      </trkpt>
      <trkpt lat="41.50633743" lon="2.04779976">
        <ele>215.0</ele>
        <time>2021-03-03T10:36:40Z</time>
      </trkpt>
      <trkpt lat="41.50639809" lon="2.04778342">
        <ele>215.0</ele>
        <time>2021-03-03T10:36:41Z</time>
      </trkpt>
      <trkpt lat="41.50645976" lon="2.04776709">
        <ele>214.0</ele>
        <time>2021-03-03T10:36:42Z</time>
      </trkpt>
      <trkpt lat="41.50652775" lon="2.04774843">
        <ele>214.0</ele>
        <time>2021-03-03T10:36:43Z</time>
      </trkpt>
      <trkpt lat="41.50659208" lon="2.04773111">
        <ele>214.0</ele>
        <time>2021-03-03T10:36:44Z</time>
      </trkpt>
      <trkpt lat="41.50666341" lon="2.04771111">
        <ele>214.0</ele>
        <time>2021-03-03T10:36:45Z</time>
      </trkpt>
      <trkpt lat="41.50672907" lon="2.04769212">
        <ele>214.0</ele>
        <time>2021-03-03T10:36:46Z</time>
      </trkpt>
      <trkpt lat="41.50679673" lon="2.04767246">
        <ele>214.0</ele>
        <time>2021-03-03T10:36:47Z</time>
      </trkpt>
      <trkpt lat="41.50686606" lon="2.04765214">
        <ele>214.0</ele>
        <time>2021-03-03T10:36:48Z</time>
      </trkpt>
      <trkpt lat="41.50693538" lon="2.04763247">
        <ele>214.0</ele>
        <time>2021-03-03T10:36:49Z</time>
      </trkpt>
      <trkpt lat="41.50700572" lon="2.04761048">
        <ele>214.0</ele>
        <time>2021-03-03T10:36:50Z</time>
      </trkpt>
      <trkpt lat="41.50708372" lon="2.04758149">
        <ele>214.0</ele>
        <time>2021-03-03T10:36:51Z</time>
      </trkpt>
      <trkpt lat="41.50715804" lon="2.04755049">
        <ele>214.0</ele>
        <time>2021-03-03T10:36:52Z</time>
      </trkpt>
      <trkpt lat="41.50723237" lon="2.0475145">
        <ele>213.0</ele>
        <time>2021-03-03T10:36:53Z</time>
      </trkpt>
      <trkpt lat="41.50730936" lon="2.04747217">
        <ele>213.0</ele>
        <time>2021-03-03T10:36:54Z</time>
      </trkpt>
      <trkpt lat="41.50738569" lon="2.04742385">
        <ele>213.0</ele>
        <time>2021-03-03T10:36:55Z</time>
      </trkpt>
      <trkpt lat="41.50745869" lon="2.04737318">
        <ele>213.0</ele>
        <time>2021-03-03T10:36:56Z</time>
      </trkpt>
      <trkpt lat="41.50752968" lon="2.04731819">
        <ele>213.0</ele>
        <time>2021-03-03T10:36:57Z</time>
      </trkpt>
      <trkpt lat="41.50759968" lon="2.0472522">
        <ele>212.0</ele>
        <time>2021-03-03T10:36:58Z</time>
      </trkpt>
      <trkpt lat="41.50765801" lon="2.0471842">
        <ele>211.0</ele>
        <time>2021-03-03T10:36:59Z</time>
      </trkpt>
      <trkpt lat="41.50770568" lon="2.04710653">
        <ele>211.0</ele>
        <time>2021-03-03T10:37:00Z</time>
      </trkpt>
      <trkpt lat="41.50774168" lon="2.04702088">
        <ele>211.0</ele>
        <time>2021-03-03T10:37:01Z</time>
      </trkpt>
      <trkpt lat="41.507763" lon="2.04693122">
        <ele>211.0</ele>
        <time>2021-03-03T10:37:02Z</time>
      </trkpt>
      <trkpt lat="41.50777033" lon="2.04684355">
        <ele>210.0</ele>
        <time>2021-03-03T10:37:03Z</time>
      </trkpt>
      <trkpt lat="41.507763" lon="2.0467539">
        <ele>210.0</ele>
        <time>2021-03-03T10:37:04Z</time>
      </trkpt>
      <trkpt lat="41.50774234" lon="2.0466609">
        <ele>210.0</ele>
        <time>2021-03-03T10:37:05Z</time>
      </trkpt>
      <trkpt lat="41.50771402" lon="2.04657291">
        <ele>210.0</ele>
        <time>2021-03-03T10:37:06Z</time>
      </trkpt>
      <trkpt lat="41.50767835" lon="2.04648891">
        <ele>210.0</ele>
        <time>2021-03-03T10:37:07Z</time>
      </trkpt>
      <trkpt lat="41.50763669" lon="2.04641058">
        <ele>209.0</ele>
        <time>2021-03-03T10:37:08Z</time>
      </trkpt>
      <trkpt lat="41.50759636" lon="2.04634226">
        <ele>209.0</ele>
        <time>2021-03-03T10:37:09Z</time>
      </trkpt>
      <trkpt lat="41.50754837" lon="2.04627293">
        <ele>209.0</ele>
        <time>2021-03-03T10:37:10Z</time>
      </trkpt>
      <trkpt lat="41.50749772" lon="2.0462086">
        <ele>209.0</ele>
        <time>2021-03-03T10:37:11Z</time>
      </trkpt>
      <trkpt lat="41.50744772" lon="2.04615227">
        <ele>208.0</ele>
        <time>2021-03-03T10:37:12Z</time>
      </trkpt>
      <trkpt lat="41.50739438" lon="2.04610094">
        <ele>208.0</ele>
        <time>2021-03-03T10:37:13Z</time>
      </trkpt>
      <trkpt lat="41.50733906" lon="2.04605428">
        <ele>208.0</ele>
        <time>2021-03-03T10:37:14Z</time>
      </trkpt>
      <trkpt lat="41.50728206" lon="2.04600828">
        <ele>208.0</ele>
        <time>2021-03-03T10:37:15Z</time>
      </trkpt>
      <trkpt lat="41.50722574" lon="2.04595529">
        <ele>208.0</ele>
        <time>2021-03-03T10:37:15Z</time>
      </trkpt>
      <trkpt lat="41.50718008" lon="2.04590029">
        <ele>208.0</ele>
        <time>2021-03-03T10:37:16Z</time>
      </trkpt>
      <trkpt lat="41.50714309" lon="2.04583197">
        <ele>208.0</ele>
        <time>2021-03-03T10:37:17Z</time>
      </trkpt>
      <trkpt lat="41.5071141" lon="2.04575831">
        <ele>208.0</ele>
        <time>2021-03-03T10:37:18Z</time>
      </trkpt>
      <trkpt lat="41.50709043" lon="2.04567364">
        <ele>208.0</ele>
        <time>2021-03-03T10:37:19Z</time>
      </trkpt>
      <trkpt lat="41.50707178" lon="2.04558865">
        <ele>207.0</ele>
        <time>2021-03-03T10:37:20Z</time>
      </trkpt>
      <trkpt lat="41.50705778" lon="2.04550232">
        <ele>207.0</ele>
        <time>2021-03-03T10:37:21Z</time>
      </trkpt>
      <trkpt lat="41.50704611" lon="2.04542033">
        <ele>207.0</ele>
        <time>2021-03-03T10:37:22Z</time>
      </trkpt>
      <trkpt lat="41.50703545" lon="2.045335">
        <ele>207.0</ele>
        <time>2021-03-03T10:37:23Z</time>
      </trkpt>
      <trkpt lat="41.50702445" lon="2.04524834">
        <ele>207.0</ele>
        <time>2021-03-03T10:37:24Z</time>
      </trkpt>
      <trkpt lat="41.50701145" lon="2.04516035">
        <ele>207.0</ele>
        <time>2021-03-03T10:37:25Z</time>
      </trkpt>
      <trkpt lat="41.5069938" lon="2.04507303">
        <ele>206.0</ele>
        <time>2021-03-03T10:37:26Z</time>
      </trkpt>
      <trkpt lat="41.50696913" lon="2.0449887">
        <ele>206.0</ele>
        <time>2021-03-03T10:37:27Z</time>
      </trkpt>
      <trkpt lat="41.50693246" lon="2.04490738">
        <ele>206.0</ele>
        <time>2021-03-03T10:37:28Z</time>
      </trkpt>
      <trkpt lat="41.50688746" lon="2.04483771">
        <ele>206.0</ele>
        <time>2021-03-03T10:37:29Z</time>
      </trkpt>
      <trkpt lat="41.50683413" lon="2.04478306">
        <ele>206.0</ele>
        <time>2021-03-03T10:37:30Z</time>
      </trkpt>
      <trkpt lat="41.50678047" lon="2.04474406">
        <ele>206.0</ele>
        <time>2021-03-03T10:37:31Z</time>
      </trkpt>
      <trkpt lat="41.50671715" lon="2.0447154">
        <ele>206.0</ele>
        <time>2021-03-03T10:37:32Z</time>
      </trkpt>
      <trkpt lat="41.50665582" lon="2.04469707">
        <ele>205.0</ele>
        <time>2021-03-03T10:37:33Z</time>
      </trkpt>
      <trkpt lat="41.50659215" lon="2.04468541">
        <ele>205.0</ele>
        <time>2021-03-03T10:37:34Z</time>
      </trkpt>
      <trkpt lat="41.50652782" lon="2.04468008">
        <ele>205.0</ele>
        <time>2021-03-03T10:37:35Z</time>
      </trkpt>
      <trkpt lat="41.50646249" lon="2.04467874">
        <ele>205.0</ele>
        <time>2021-03-03T10:37:36Z</time>
      </trkpt>
      <trkpt lat="41.50639283" lon="2.04468074">
        <ele>205.0</ele>
        <time>2021-03-03T10:37:37Z</time>
      </trkpt>
      <trkpt lat="41.50632917" lon="2.04468573">
        <ele>205.0</ele>
        <time>2021-03-03T10:37:38Z</time>
      </trkpt>
      <trkpt lat="41.5062655" lon="2.0446944">
        <ele>205.0</ele>
        <time>2021-03-03T10:37:39Z</time>
      </trkpt>
      <trkpt lat="41.50620318" lon="2.04470806">
        <ele>205.0</ele>
        <time>2021-03-03T10:37:40Z</time>
      </trkpt>
      <trkpt lat="41.50614285" lon="2.04472805">
        <ele>205.0</ele>
        <time>2021-03-03T10:37:41Z</time>
      </trkpt>
      <trkpt lat="41.50608119" lon="2.04475705">
        <ele>204.0</ele>
        <time>2021-03-03T10:37:42Z</time>
      </trkpt>
      <trkpt lat="41.50602753" lon="2.04479005">
        <ele>204.0</ele>
        <time>2021-03-03T10:37:43Z</time>
      </trkpt>
      <trkpt lat="41.5059792" lon="2.0448257">
        <ele>204.0</ele>
        <time>2021-03-03T10:37:44Z</time>
      </trkpt>
      <trkpt lat="41.50592988" lon="2.04487103">
        <ele>204.0</ele>
        <time>2021-03-03T10:37:45Z</time>
      </trkpt>
      <trkpt lat="41.50588288" lon="2.04491936">
        <ele>204.0</ele>
        <time>2021-03-03T10:37:46Z</time>
      </trkpt>
      <trkpt lat="41.50583788" lon="2.04496969">
        <ele>204.0</ele>
        <time>2021-03-03T10:37:47Z</time>
      </trkpt>
      <trkpt lat="41.50579155" lon="2.04502468">
        <ele>204.0</ele>
        <time>2021-03-03T10:37:48Z</time>
      </trkpt>
      <trkpt lat="41.50574989" lon="2.04507634">
        <ele>204.0</ele>
        <time>2021-03-03T10:37:49Z</time>
      </trkpt>
      <trkpt lat="41.5057069" lon="2.04513334">
        <ele>204.0</ele>
        <time>2021-03-03T10:37:50Z</time>
      </trkpt>
      <trkpt lat="41.5056669" lon="2.04519266">
        <ele>204.0</ele>
        <time>2021-03-03T10:37:51Z</time>
      </trkpt>
      <trkpt lat="41.50563157" lon="2.04524933">
        <ele>204.0</ele>
        <time>2021-03-03T10:37:52Z</time>
      </trkpt>
      <trkpt lat="41.50559557" lon="2.04531266">
        <ele>204.0</ele>
        <time>2021-03-03T10:37:53Z</time>
      </trkpt>
      <trkpt lat="41.50555991" lon="2.04537632">
        <ele>204.0</ele>
        <time>2021-03-03T10:37:54Z</time>
      </trkpt>
      <trkpt lat="41.50552525" lon="2.04543832">
        <ele>204.0</ele>
        <time>2021-03-03T10:37:55Z</time>
      </trkpt>
      <trkpt lat="41.50548958" lon="2.04549931">
        <ele>204.0</ele>
        <time>2021-03-03T10:37:56Z</time>
      </trkpt>
      <trkpt lat="41.50545293" lon="2.0455593">
        <ele>204.0</ele>
        <time>2021-03-03T10:37:57Z</time>
      </trkpt>
      <trkpt lat="41.50541327" lon="2.04561629">
        <ele>204.0</ele>
        <time>2021-03-03T10:37:58Z</time>
      </trkpt>
      <trkpt lat="41.5053686" lon="2.04567129">
        <ele>203.0</ele>
        <time>2021-03-03T10:37:59Z</time>
      </trkpt>
      <trkpt lat="41.50531795" lon="2.04572361">
        <ele>203.0</ele>
        <time>2021-03-03T10:38:00Z</time>
      </trkpt>
      <trkpt lat="41.50526396" lon="2.04576828">
        <ele>202.0</ele>
        <time>2021-03-03T10:38:01Z</time>
      </trkpt>
      <trkpt lat="41.50520229" lon="2.04580795">
        <ele>202.0</ele>
        <time>2021-03-03T10:38:02Z</time>
      </trkpt>
      <trkpt lat="41.5051273" lon="2.0458366">
        <ele>202.0</ele>
        <time>2021-03-03T10:38:03Z</time>
      </trkpt>
      <trkpt lat="41.50504963" lon="2.04585159">
        <ele>201.0</ele>
        <time>2021-03-03T10:38:04Z</time>
      </trkpt>
      <trkpt lat="41.50497163" lon="2.04584894">
        <ele>201.0</ele>
        <time>2021-03-03T10:38:05Z</time>
      </trkpt>
      <trkpt lat="41.50489698" lon="2.04582927">
        <ele>201.0</ele>
        <time>2021-03-03T10:38:06Z</time>
      </trkpt>
      <trkpt lat="41.50482531" lon="2.04579361">
        <ele>200.0</ele>
        <time>2021-03-03T10:38:07Z</time>
      </trkpt>
      <trkpt lat="41.50475732" lon="2.04574495">
        <ele>200.0</ele>
        <time>2021-03-03T10:38:08Z</time>
      </trkpt>
      <trkpt lat="41.50469265" lon="2.04568628">
        <ele>200.0</ele>
        <time>2021-03-03T10:38:09Z</time>
      </trkpt>
      <trkpt lat="41.50463233" lon="2.04561862">
        <ele>200.0</ele>
        <time>2021-03-03T10:38:10Z</time>
      </trkpt>
      <trkpt lat="41.50457666" lon="2.04554663">
        <ele>200.0</ele>
        <time>2021-03-03T10:38:11Z</time>
      </trkpt>
      <trkpt lat="41.50452333" lon="2.04547364">
        <ele>200.0</ele>
        <time>2021-03-03T10:38:12Z</time>
      </trkpt>
      <trkpt lat="41.50447033" lon="2.04539932">
        <ele>200.0</ele>
        <time>2021-03-03T10:38:13Z</time>
      </trkpt>
      <trkpt lat="41.50441733" lon="2.04532599">
        <ele>200.0</ele>
        <time>2021-03-03T10:38:14Z</time>
      </trkpt>
      <trkpt lat="41.50436501" lon="2.04525266">
        <ele>199.0</ele>
        <time>2021-03-03T10:38:15Z</time>
      </trkpt>
      <trkpt lat="41.50431601" lon="2.045184">
        <ele>199.0</ele>
        <time>2021-03-03T10:38:16Z</time>
      </trkpt>
      <trkpt lat="41.50426235" lon="2.04511034">
        <ele>199.0</ele>
        <time>2021-03-03T10:38:17Z</time>
      </trkpt>
      <trkpt lat="41.50421036" lon="2.04503934">
        <ele>199.0</ele>
        <time>2021-03-03T10:38:18Z</time>
      </trkpt>
      <trkpt lat="41.50415836" lon="2.04496968">
        <ele>198.0</ele>
        <time>2021-03-03T10:38:19Z</time>
      </trkpt>
      <trkpt lat="41.50411037" lon="2.04490535">
        <ele>197.0</ele>
        <time>2021-03-03T10:38:20Z</time>
      </trkpt>
      <trkpt lat="41.50405871" lon="2.04483668">
        <ele>197.0</ele>
        <time>2021-03-03T10:38:21Z</time>
      </trkpt>
      <trkpt lat="41.50400772" lon="2.04476736">
        <ele>197.0</ele>
        <time>2021-03-03T10:38:22Z</time>
      </trkpt>
      <trkpt lat="41.50396172" lon="2.04470136">
        <ele>197.0</ele>
        <time>2021-03-03T10:38:23Z</time>
      </trkpt>
      <trkpt lat="41.50391507" lon="2.04463337">
        <ele>196.0</ele>
        <time>2021-03-03T10:38:24Z</time>
      </trkpt>
      <trkpt lat="41.50386708" lon="2.0445647">
        <ele>196.0</ele>
        <time>2021-03-03T10:38:25Z</time>
      </trkpt>
      <trkpt lat="41.50381508" lon="2.0444907">
        <ele>196.0</ele>
        <time>2021-03-03T10:38:26Z</time>
      </trkpt>
      <trkpt lat="41.50376409" lon="2.04441771">
        <ele>196.0</ele>
        <time>2021-03-03T10:38:27Z</time>
      </trkpt>
      <trkpt lat="41.50371243" lon="2.04434672">
        <ele>195.0</ele>
        <time>2021-03-03T10:38:28Z</time>
      </trkpt>
      <trkpt lat="41.50366111" lon="2.04427672">
        <ele>195.0</ele>
        <time>2021-03-03T10:38:29Z</time>
      </trkpt>
      <trkpt lat="41.50360944" lon="2.04420806">
        <ele>195.0</ele>
        <time>2021-03-03T10:38:30Z</time>
      </trkpt>
      <trkpt lat="41.50355845" lon="2.04413939">
        <ele>195.0</ele>
        <time>2021-03-03T10:38:31Z</time>
      </trkpt>
      <trkpt lat="41.50350778" lon="2.0440704">
        <ele>194.0</ele>
        <time>2021-03-03T10:38:32Z</time>
      </trkpt>
      <trkpt lat="41.50345778" lon="2.04400208">
        <ele>194.0</ele>
        <time>2021-03-03T10:38:33Z</time>
      </trkpt>
      <trkpt lat="41.50340979" lon="2.04393442">
        <ele>194.0</ele>
        <time>2021-03-03T10:38:34Z</time>
      </trkpt>
      <trkpt lat="41.50336246" lon="2.04386875">
        <ele>194.0</ele>
        <time>2021-03-03T10:38:35Z</time>
      </trkpt>
      <trkpt lat="41.50331647" lon="2.04380976">
        <ele>193.0</ele>
        <time>2021-03-03T10:38:36Z</time>
      </trkpt>
      <trkpt lat="41.50327247" lon="2.04376344">
        <ele>193.0</ele>
        <time>2021-03-03T10:38:37Z</time>
      </trkpt>
      <trkpt lat="41.50323148" lon="2.04373244">
        <ele>193.0</ele>
        <time>2021-03-03T10:38:38Z</time>
      </trkpt>
      <trkpt lat="41.50319581" lon="2.04371778">
        <ele>193.0</ele>
        <time>2021-03-03T10:38:39Z</time>
      </trkpt>
      <trkpt lat="41.50316781" lon="2.04372077">
        <ele>193.0</ele>
        <time>2021-03-03T10:38:40Z</time>
      </trkpt>
      <trkpt lat="41.50315115" lon="2.04373776">
        <ele>193.0</ele>
        <time>2021-03-03T10:38:41Z</time>
      </trkpt>
      <trkpt lat="41.50314516" lon="2.0437621">
        <ele>193.0</ele>
        <time>2021-03-03T10:38:42Z</time>
      </trkpt>
      <trkpt lat="41.50314582" lon="2.04378909">
        <ele>193.0</ele>
        <time>2021-03-03T10:38:43Z</time>
      </trkpt>
      <trkpt lat="41.50315115" lon="2.04381909">
        <ele>193.0</ele>
        <time>2021-03-03T10:38:44Z</time>
      </trkpt>
      <trkpt lat="41.50315748" lon="2.04385241">
        <ele>192.0</ele>
        <time>2021-03-03T10:38:45Z</time>
      </trkpt>
      <trkpt lat="41.50316414" lon="2.04388674">
        <ele>192.0</ele>
        <time>2021-03-03T10:38:46Z</time>
      </trkpt>
      <trkpt lat="41.50316947" lon="2.04391973">
        <ele>192.0</ele>
        <time>2021-03-03T10:38:47Z</time>
      </trkpt>
      <trkpt lat="41.50317379" lon="2.04395072">
        <ele>192.0</ele>
        <time>2021-03-03T10:38:48Z</time>
      </trkpt>
      <trkpt lat="41.50317646" lon="2.04397572">
        <ele>192.0</ele>
        <time>2021-03-03T10:38:49Z</time>
      </trkpt>
      <trkpt lat="41.50317846" lon="2.04399471">
        <ele>192.0</ele>
        <time>2021-03-03T10:38:50Z</time>
      </trkpt>
      <trkpt lat="41.50317979" lon="2.04400604">
        <ele>192.0</ele>
        <time>2021-03-03T10:38:51Z</time>
      </trkpt>
      <trkpt lat="41.50317946" lon="2.04401336">
        <ele>192.0</ele>
        <time>2021-03-03T10:38:52Z</time>
      </trkpt>
      <trkpt lat="41.50317247" lon="2.04402569">
        <ele>192.0</ele>
        <time>2021-03-03T10:38:54Z</time>
      </trkpt>
      <trkpt lat="41.50317181" lon="2.04402504">
        <ele>192.0</ele>
        <time>2021-03-03T10:38:55Z</time>
      </trkpt>
      <trkpt lat="41.50317115" lon="2.04402438">
        <ele>192.0</ele>
        <time>2021-03-03T10:38:56Z</time>
      </trkpt>
      <trkpt lat="41.50316916" lon="2.04401905">
        <ele>192.0</ele>
        <time>2021-03-03T10:38:59Z</time>
      </trkpt>
      <trkpt lat="41.50316916" lon="2.04401805">
        <ele>192.0</ele>
        <time>2021-03-03T10:39:00Z</time>
      </trkpt>
      <trkpt lat="41.50316981" lon="2.04401672">
        <ele>192.0</ele>
        <time>2021-03-03T10:39:01Z</time>
      </trkpt>
      <trkpt lat="41.5031708" lon="2.04401506">
        <ele>192.0</ele>
        <time>2021-03-03T10:39:02Z</time>
      </trkpt>
      <trkpt lat="41.50317015" lon="2.04401239">
        <ele>192.0</ele>
        <time>2021-03-03T10:39:03Z</time>
      </trkpt>
      <trkpt lat="41.5031758" lon="2.04400907">
        <ele>192.0</ele>
        <time>2021-03-03T10:39:20Z</time>
      </trkpt>
      <trkpt lat="41.50317847" lon="2.04400939">
        <ele>192.0</ele>
        <time>2021-03-03T10:39:21Z</time>
      </trkpt>
      <trkpt lat="41.50318246" lon="2.04400972">
        <ele>192.0</ele>
        <time>2021-03-03T10:39:22Z</time>
      </trkpt>
      <trkpt lat="41.50318646" lon="2.04400939">
        <ele>192.0</ele>
        <time>2021-03-03T10:39:23Z</time>
      </trkpt>
      <trkpt lat="41.50318879" lon="2.04400972">
        <ele>192.0</ele>
        <time>2021-03-03T10:39:24Z</time>
      </trkpt>
      <trkpt lat="41.50319012" lon="2.04401105">
        <ele>192.0</ele>
        <time>2021-03-03T10:39:25Z</time>
      </trkpt>
      <trkpt lat="41.50318846" lon="2.04401271">
        <ele>192.0</ele>
        <time>2021-03-03T10:39:26Z</time>
      </trkpt>
      <trkpt lat="41.50318713" lon="2.04401504">
        <ele>192.0</ele>
        <time>2021-03-03T10:39:27Z</time>
      </trkpt>
      <trkpt lat="41.50318647" lon="2.04401737">
        <ele>192.0</ele>
        <time>2021-03-03T10:39:28Z</time>
      </trkpt>
      <trkpt lat="41.50318746" lon="2.04401904">
        <ele>192.0</ele>
        <time>2021-03-03T10:39:29Z</time>
      </trkpt>
      <trkpt lat="41.50319246" lon="2.04402403">
        <ele>192.0</ele>
        <time>2021-03-03T10:39:31Z</time>
      </trkpt>
      <trkpt lat="41.50319312" lon="2.04402403">
        <ele>192.0</ele>
        <time>2021-03-03T10:39:32Z</time>
      </trkpt>
      <trkpt lat="41.50319478" lon="2.04402468">
        <ele>192.0</ele>
        <time>2021-03-03T10:39:33Z</time>
      </trkpt>
      <trkpt lat="41.50319978" lon="2.04402667">
        <ele>192.0</ele>
        <time>2021-03-03T10:39:34Z</time>
      </trkpt>
      <trkpt lat="41.50320411" lon="2.044029">
        <ele>192.0</ele>
        <time>2021-03-03T10:39:35Z</time>
      </trkpt>
      <trkpt lat="41.50320844" lon="2.04403">
        <ele>192.0</ele>
        <time>2021-03-03T10:39:36Z</time>
      </trkpt>
      <trkpt lat="41.5032131" lon="2.04402967">
        <ele>192.0</ele>
        <time>2021-03-03T10:39:37Z</time>
      </trkpt>
      <trkpt lat="41.50321643" lon="2.04402867">
        <ele>192.0</ele>
        <time>2021-03-03T10:39:38Z</time>
      </trkpt>
      <trkpt lat="41.50321842" lon="2.04402735">
        <ele>192.0</ele>
        <time>2021-03-03T10:39:39Z</time>
      </trkpt>
      <trkpt lat="41.50403333" lon="2.04703333">
        <ele>205.0</ele>
        <time>2021-03-03T08:54:02Z</time>
      </trkpt>
      <trkpt lat="41.50403366" lon="2.04703599">
        <ele>205.0</ele>
        <time>2021-03-03T08:54:03Z</time>
      </trkpt>
      <trkpt lat="41.50403333" lon="2.04704432">
        <ele>205.0</ele>
        <time>2021-03-03T08:54:04Z</time>
      </trkpt>
      <trkpt lat="41.50403399" lon="2.04704965">
        <ele>205.0</ele>
        <time>2021-03-03T08:54:05Z</time>
      </trkpt>
      <trkpt lat="41.50403432" lon="2.04705665">
        <ele>205.0</ele>
        <time>2021-03-03T08:54:06Z</time>
      </trkpt>
      <trkpt lat="41.50403332" lon="2.04704832">
        <ele>205.0</ele>
        <time>2021-03-03T08:54:07Z</time>
      </trkpt>
      <trkpt lat="41.50403099" lon="2.04703599">
        <ele>205.0</ele>
        <time>2021-03-03T08:54:08Z</time>
      </trkpt>
      <trkpt lat="41.50403" lon="2.04702067">
        <ele>205.0</ele>
        <time>2021-03-03T08:54:09Z</time>
      </trkpt>
      <trkpt lat="41.50402934" lon="2.04700133">
        <ele>205.0</ele>
        <time>2021-03-03T08:54:10Z</time>
      </trkpt>
      <trkpt lat="41.50402902" lon="2.04698433">
        <ele>205.0</ele>
        <time>2021-03-03T08:54:11Z</time>
      </trkpt>
      <trkpt lat="41.50402603" lon="2.04696868">
        <ele>205.0</ele>
        <time>2021-03-03T08:54:12Z</time>
      </trkpt>
      <trkpt lat="41.50402403" lon="2.04695502">
        <ele>205.0</ele>
        <time>2021-03-03T08:54:13Z</time>
      </trkpt>
      <trkpt lat="41.50402037" lon="2.04694402">
        <ele>205.0</ele>
        <time>2021-03-03T08:54:14Z</time>
      </trkpt>
      <trkpt lat="41.50401637" lon="2.0469367">
        <ele>205.0</ele>
        <time>2021-03-03T08:54:15Z</time>
      </trkpt>
      <trkpt lat="41.50401372" lon="2.04693336">
        <ele>205.0</ele>
        <time>2021-03-03T08:54:16Z</time>
      </trkpt>
      <trkpt lat="41.50401039" lon="2.04692937">
        <ele>205.0</ele>
        <time>2021-03-03T08:54:17Z</time>
      </trkpt>
      <trkpt lat="41.50400806" lon="2.04692837">
        <ele>205.0</ele>
        <time>2021-03-03T08:54:18Z</time>
      </trkpt>
      <trkpt lat="41.50400573" lon="2.0469307">
        <ele>205.0</ele>
        <time>2021-03-03T08:54:19Z</time>
      </trkpt>
      <trkpt lat="41.5040044" lon="2.04693536">
        <ele>205.0</ele>
        <time>2021-03-03T08:54:20Z</time>
      </trkpt>
      <trkpt lat="41.50400307" lon="2.04693902">
        <ele>205.0</ele>
        <time>2021-03-03T08:54:21Z</time>
      </trkpt>
      <trkpt lat="41.50400075" lon="2.04694034">
        <ele>205.0</ele>
        <time>2021-03-03T08:54:22Z</time>
      </trkpt>
      <trkpt lat="41.50399775" lon="2.04694002">
        <ele>205.0</ele>
        <time>2021-03-03T08:54:23Z</time>
      </trkpt>
      <trkpt lat="41.50399142" lon="2.04693969">
        <ele>205.0</ele>
        <time>2021-03-03T08:54:24Z</time>
      </trkpt>
      <trkpt lat="41.5039821" lon="2.04693802">
        <ele>205.0</ele>
        <time>2021-03-03T08:54:25Z</time>
      </trkpt>
      <trkpt lat="41.50396943" lon="2.04693436">
        <ele>205.0</ele>
        <time>2021-03-03T08:54:26Z</time>
      </trkpt>
      <trkpt lat="41.5039471" lon="2.0469257">
        <ele>205.0</ele>
        <time>2021-03-03T08:54:27Z</time>
      </trkpt>
      <trkpt lat="41.50392344" lon="2.04691504">
        <ele>205.0</ele>
        <time>2021-03-03T08:54:28Z</time>
      </trkpt>
      <trkpt lat="41.50389945" lon="2.04690338">
        <ele>205.0</ele>
        <time>2021-03-03T08:54:29Z</time>
      </trkpt>
      <trkpt lat="41.50387179" lon="2.04689038">
        <ele>205.0</ele>
        <time>2021-03-03T08:54:30Z</time>
      </trkpt>
      <trkpt lat="41.50384279" lon="2.04687773">
        <ele>205.0</ele>
        <time>2021-03-03T08:54:31Z</time>
      </trkpt>
      <trkpt lat="41.50381779" lon="2.04686373">
        <ele>206.0</ele>
        <time>2021-03-03T08:54:32Z</time>
      </trkpt>
      <trkpt lat="41.50379613" lon="2.04684539">
        <ele>206.0</ele>
        <time>2021-03-03T08:54:33Z</time>
      </trkpt>
      <trkpt lat="41.50377946" lon="2.04682606">
        <ele>206.0</ele>
        <time>2021-03-03T08:54:34Z</time>
      </trkpt>
      <trkpt lat="41.5037658" lon="2.04681207">
        <ele>206.0</ele>
        <time>2021-03-03T08:54:35Z</time>
      </trkpt>
      <trkpt lat="41.5037558" lon="2.04680107">
        <ele>206.0</ele>
        <time>2021-03-03T08:54:36Z</time>
      </trkpt>
      <trkpt lat="41.50374714" lon="2.04679241">
        <ele>206.0</ele>
        <time>2021-03-03T08:54:37Z</time>
      </trkpt>
      <trkpt lat="41.50373948" lon="2.04678675">
        <ele>206.0</ele>
        <time>2021-03-03T08:54:38Z</time>
      </trkpt>
      <trkpt lat="41.50373083" lon="2.04678176">
        <ele>206.0</ele>
        <time>2021-03-03T08:54:39Z</time>
      </trkpt>
      <trkpt lat="41.50372449" lon="2.04677776">
        <ele>206.0</ele>
        <time>2021-03-03T08:54:40Z</time>
      </trkpt>
      <trkpt lat="41.5037205" lon="2.04677376">
        <ele>206.0</ele>
        <time>2021-03-03T08:54:41Z</time>
      </trkpt>
      <trkpt lat="41.50371817" lon="2.04676977">
        <ele>206.0</ele>
        <time>2021-03-03T08:54:42Z</time>
      </trkpt>
      <trkpt lat="41.50371651" lon="2.0467661">
        <ele>206.0</ele>
        <time>2021-03-03T08:54:43Z</time>
      </trkpt>
      <trkpt lat="41.50371351" lon="2.04676344">
        <ele>206.0</ele>
        <time>2021-03-03T08:54:46Z</time>
      </trkpt>
      <trkpt lat="41.50371385" lon="2.04676377">
        <ele>206.0</ele>
        <time>2021-03-03T08:54:47Z</time>
      </trkpt>
      <trkpt lat="41.50371018" lon="2.04675844">
        <ele>206.0</ele>
        <time>2021-03-03T08:54:49Z</time>
      </trkpt>
      <trkpt lat="41.50370719" lon="2.04675712">
        <ele>206.0</ele>
        <time>2021-03-03T08:54:50Z</time>
      </trkpt>
      <trkpt lat="41.5037032" lon="2.04675413">
        <ele>206.0</ele>
        <time>2021-03-03T08:54:51Z</time>
      </trkpt>
      <trkpt lat="41.50370153" lon="2.04675081">
        <ele>206.0</ele>
        <time>2021-03-03T08:54:52Z</time>
      </trkpt>
      <trkpt lat="41.50370021" lon="2.04674014">
        <ele>206.0</ele>
        <time>2021-03-03T08:54:54Z</time>
      </trkpt>
      <trkpt lat="41.50370087" lon="2.04674014">
        <ele>206.0</ele>
        <time>2021-03-03T08:54:55Z</time>
      </trkpt>
      <trkpt lat="41.50370152" lon="2.04673915">
        <ele>206.0</ele>
        <time>2021-03-03T08:54:56Z</time>
      </trkpt>
      <trkpt lat="41.5037002" lon="2.04673849">
        <ele>206.0</ele>
        <time>2021-03-03T08:55:01Z</time>
      </trkpt>
      <trkpt lat="41.50369453" lon="2.04673915">
        <ele>206.0</ele>
        <time>2021-03-03T08:55:02Z</time>
      </trkpt>
      <trkpt lat="41.5036822" lon="2.04673882">
        <ele>206.0</ele>
        <time>2021-03-03T08:55:03Z</time>
      </trkpt>
      <trkpt lat="41.50366287" lon="2.04673549">
        <ele>206.0</ele>
        <time>2021-03-03T08:55:04Z</time>
      </trkpt>
      <trkpt lat="41.50363921" lon="2.04673016">
        <ele>206.0</ele>
        <time>2021-03-03T08:55:05Z</time>
      </trkpt>
      <trkpt lat="41.50361188" lon="2.04672349">
        <ele>206.0</ele>
        <time>2021-03-03T08:55:06Z</time>
      </trkpt>
      <trkpt lat="41.50358189" lon="2.0467165">
        <ele>206.0</ele>
        <time>2021-03-03T08:55:07Z</time>
      </trkpt>
      <trkpt lat="41.50354922" lon="2.0467085">
        <ele>206.0</ele>
        <time>2021-03-03T08:55:08Z</time>
      </trkpt>
      <trkpt lat="41.50351456" lon="2.04669917">
        <ele>206.0</ele>
        <time>2021-03-03T08:55:09Z</time>
      </trkpt>
      <trkpt lat="41.50347856" lon="2.04668851">
        <ele>206.0</ele>
        <time>2021-03-03T08:55:10Z</time>
      </trkpt>
      <trkpt lat="41.50344157" lon="2.04667519">
        <ele>206.0</ele>
        <time>2021-03-03T08:55:11Z</time>
      </trkpt>
      <trkpt lat="41.50340391" lon="2.04665953">
        <ele>206.0</ele>
        <time>2021-03-03T08:55:12Z</time>
      </trkpt>
      <trkpt lat="41.50336492" lon="2.0466432">
        <ele>206.0</ele>
        <time>2021-03-03T08:55:13Z</time>
      </trkpt>
      <trkpt lat="41.50332492" lon="2.04662688">
        <ele>206.0</ele>
        <time>2021-03-03T08:55:14Z</time>
      </trkpt>
      <trkpt lat="41.50328359" lon="2.04661088">
        <ele>206.0</ele>
        <time>2021-03-03T08:55:15Z</time>
      </trkpt>
      <trkpt lat="41.50324193" lon="2.04659488">
        <ele>206.0</ele>
        <time>2021-03-03T08:55:16Z</time>
      </trkpt>
      <trkpt lat="41.50319993" lon="2.04657788">
        <ele>206.0</ele>
        <time>2021-03-03T08:55:17Z</time>
      </trkpt>
      <trkpt lat="41.5031566" lon="2.04656122">
        <ele>207.0</ele>
        <time>2021-03-03T08:55:18Z</time>
      </trkpt>
      <trkpt lat="41.50311294" lon="2.04654456">
        <ele>207.0</ele>
        <time>2021-03-03T08:55:19Z</time>
      </trkpt>
      <trkpt lat="41.50306894" lon="2.04652823">
        <ele>207.0</ele>
        <time>2021-03-03T08:55:20Z</time>
      </trkpt>
      <trkpt lat="41.50302328" lon="2.04651557">
        <ele>207.0</ele>
        <time>2021-03-03T08:55:21Z</time>
      </trkpt>
      <trkpt lat="41.50297796" lon="2.04650892">
        <ele>207.0</ele>
        <time>2021-03-03T08:55:22Z</time>
      </trkpt>
      <trkpt lat="41.5029323" lon="2.04651157">
        <ele>207.0</ele>
        <time>2021-03-03T08:55:23Z</time>
      </trkpt>
      <trkpt lat="41.50288897" lon="2.0465229">
        <ele>207.0</ele>
        <time>2021-03-03T08:55:24Z</time>
      </trkpt>
      <trkpt lat="41.50284731" lon="2.04654322">
        <ele>208.0</ele>
        <time>2021-03-03T08:55:25Z</time>
      </trkpt>
      <trkpt lat="41.50280731" lon="2.04657222">
        <ele>208.0</ele>
        <time>2021-03-03T08:55:26Z</time>
      </trkpt>
      <trkpt lat="41.50277098" lon="2.04660655">
        <ele>208.0</ele>
        <time>2021-03-03T08:55:27Z</time>
      </trkpt>
      <trkpt lat="41.50274232" lon="2.04664555">
        <ele>208.0</ele>
        <time>2021-03-03T08:55:28Z</time>
      </trkpt>
      <trkpt lat="41.50271933" lon="2.04668954">
        <ele>208.0</ele>
        <time>2021-03-03T08:55:29Z</time>
      </trkpt>
      <trkpt lat="41.502703" lon="2.04673621">
        <ele>208.0</ele>
        <time>2021-03-03T08:55:30Z</time>
      </trkpt>
      <trkpt lat="41.50269667" lon="2.04678387">
        <ele>208.0</ele>
        <time>2021-03-03T08:55:31Z</time>
      </trkpt>
      <trkpt lat="41.50269766" lon="2.0468322">
        <ele>208.0</ele>
        <time>2021-03-03T08:55:32Z</time>
      </trkpt>
      <trkpt lat="41.50270466" lon="2.04688186">
        <ele>208.0</ele>
        <time>2021-03-03T08:55:33Z</time>
      </trkpt>
      <trkpt lat="41.502718" lon="2.04693086">
        <ele>208.0</ele>
        <time>2021-03-03T08:55:34Z</time>
      </trkpt>
      <trkpt lat="41.50273665" lon="2.04697886">
        <ele>208.0</ele>
        <time>2021-03-03T08:55:35Z</time>
      </trkpt>
      <trkpt lat="41.50276299" lon="2.04701951">
        <ele>208.0</ele>
        <time>2021-03-03T08:55:36Z</time>
      </trkpt>
      <trkpt lat="41.50279431" lon="2.04705418">
        <ele>208.0</ele>
        <time>2021-03-03T08:55:37Z</time>
      </trkpt>
      <trkpt lat="41.5028283" lon="2.0470835">
        <ele>208.0</ele>
        <time>2021-03-03T08:55:38Z</time>
      </trkpt>
      <trkpt lat="41.50286497" lon="2.04711017">
        <ele>207.0</ele>
        <time>2021-03-03T08:55:39Z</time>
      </trkpt>
      <trkpt lat="41.50290429" lon="2.04713583">
        <ele>207.0</ele>
        <time>2021-03-03T08:55:40Z</time>
      </trkpt>
      <trkpt lat="41.50294661" lon="2.04715916">
        <ele>207.0</ele>
        <time>2021-03-03T08:55:41Z</time>
      </trkpt>
      <trkpt lat="41.50299194" lon="2.04718015">
        <ele>207.0</ele>
        <time>2021-03-03T08:55:42Z</time>
      </trkpt>
      <trkpt lat="41.50304059" lon="2.04719814">
        <ele>207.0</ele>
        <time>2021-03-03T08:55:43Z</time>
      </trkpt>
      <trkpt lat="41.50308959" lon="2.04721713">
        <ele>207.0</ele>
        <time>2021-03-03T08:55:44Z</time>
      </trkpt>
      <trkpt lat="41.50313892" lon="2.0472368">
        <ele>207.0</ele>
        <time>2021-03-03T08:55:45Z</time>
      </trkpt>
      <trkpt lat="41.50318892" lon="2.04725645">
        <ele>207.0</ele>
        <time>2021-03-03T08:55:46Z</time>
      </trkpt>
      <trkpt lat="41.50323858" lon="2.04727544">
        <ele>206.0</ele>
        <time>2021-03-03T08:55:47Z</time>
      </trkpt>
      <trkpt lat="41.50328892" lon="2.04729443">
        <ele>206.0</ele>
        <time>2021-03-03T08:55:48Z</time>
      </trkpt>
      <trkpt lat="41.50333724" lon="2.04731043">
        <ele>206.0</ele>
        <time>2021-03-03T08:55:49Z</time>
      </trkpt>
      <trkpt lat="41.50338423" lon="2.04732709">
        <ele>206.0</ele>
        <time>2021-03-03T08:55:50Z</time>
      </trkpt>
      <trkpt lat="41.50342923" lon="2.04734708">
        <ele>206.0</ele>
        <time>2021-03-03T08:55:51Z</time>
      </trkpt>
      <trkpt lat="41.50347556" lon="2.04737008">
        <ele>206.0</ele>
        <time>2021-03-03T08:55:52Z</time>
      </trkpt>
      <trkpt lat="41.50352122" lon="2.04739274">
        <ele>206.0</ele>
        <time>2021-03-03T08:55:53Z</time>
      </trkpt>
      <trkpt lat="41.50357221" lon="2.04741307">
        <ele>206.0</ele>
        <time>2021-03-03T08:55:54Z</time>
      </trkpt>
      <trkpt lat="41.50362188" lon="2.04743606">
        <ele>206.0</ele>
        <time>2021-03-03T08:55:55Z</time>
      </trkpt>
      <trkpt lat="41.50367253" lon="2.04746039">
        <ele>205.0</ele>
        <time>2021-03-03T08:55:56Z</time>
      </trkpt>
      <trkpt lat="41.50372787" lon="2.04748139">
        <ele>205.0</ele>
        <time>2021-03-03T08:55:57Z</time>
      </trkpt>
      <trkpt lat="41.50378286" lon="2.04750105">
        <ele>205.0</ele>
        <time>2021-03-03T08:55:59Z</time>
      </trkpt>
      <trkpt lat="41.50383718" lon="2.04752204">
        <ele>205.0</ele>
        <time>2021-03-03T08:55:59Z</time>
      </trkpt>
      <trkpt lat="41.50389151" lon="2.04754437">
        <ele>204.0</ele>
        <time>2021-03-03T08:56:00Z</time>
      </trkpt>
      <trkpt lat="41.50394751" lon="2.04756636">
        <ele>204.0</ele>
        <time>2021-03-03T08:56:01Z</time>
      </trkpt>
      <trkpt lat="41.50400217" lon="2.0475857">
        <ele>204.0</ele>
        <time>2021-03-03T08:56:02Z</time>
      </trkpt>
      <trkpt lat="41.5040545" lon="2.04759835">
        <ele>204.0</ele>
        <time>2021-03-03T08:56:03Z</time>
      </trkpt>
      <trkpt lat="41.50410449" lon="2.04760535">
        <ele>204.0</ele>
        <time>2021-03-03T08:56:04Z</time>
      </trkpt>
      <trkpt lat="41.50415216" lon="2.04760035">
        <ele>204.0</ele>
        <time>2021-03-03T08:56:05Z</time>
      </trkpt>
      <trkpt lat="41.50419583" lon="2.0475817">
        <ele>204.0</ele>
        <time>2021-03-03T08:56:06Z</time>
      </trkpt>
      <trkpt lat="41.50423582" lon="2.04755103">
        <ele>204.0</ele>
        <time>2021-03-03T08:56:07Z</time>
      </trkpt>
      <trkpt lat="41.50427281" lon="2.04751171">
        <ele>204.0</ele>
        <time>2021-03-03T08:56:08Z</time>
      </trkpt>
      <trkpt lat="41.50430747" lon="2.04746637">
        <ele>204.0</ele>
        <time>2021-03-03T08:56:09Z</time>
      </trkpt>
      <trkpt lat="41.50434146" lon="2.04741672">
        <ele>204.0</ele>
        <time>2021-03-03T08:56:10Z</time>
      </trkpt>
      <trkpt lat="41.50437545" lon="2.04736405">
        <ele>204.0</ele>
        <time>2021-03-03T08:56:11Z</time>
      </trkpt>
      <trkpt lat="41.50441011" lon="2.04730772">
        <ele>204.0</ele>
        <time>2021-03-03T08:56:12Z</time>
      </trkpt>
      <trkpt lat="41.50444743" lon="2.04724873">
        <ele>204.0</ele>
        <time>2021-03-03T08:56:13Z</time>
      </trkpt>
      <trkpt lat="41.50448577" lon="2.04719107">
        <ele>204.0</ele>
        <time>2021-03-03T08:56:14Z</time>
      </trkpt>
      <trkpt lat="41.50452642" lon="2.04713407">
        <ele>204.0</ele>
        <time>2021-03-03T08:56:15Z</time>
      </trkpt>
      <trkpt lat="41.50456876" lon="2.04707641">
        <ele>204.0</ele>
        <time>2021-03-03T08:56:16Z</time>
      </trkpt>
      <trkpt lat="41.50461076" lon="2.04701809">
        <ele>204.0</ele>
        <time>2021-03-03T08:56:17Z</time>
      </trkpt>
      <trkpt lat="41.50465308" lon="2.04695677">
        <ele>204.0</ele>
        <time>2021-03-03T08:56:18Z</time>
      </trkpt>
      <trkpt lat="41.50469508" lon="2.04689277">
        <ele>204.0</ele>
        <time>2021-03-03T08:56:19Z</time>
      </trkpt>
      <trkpt lat="41.5047344" lon="2.04682678">
        <ele>204.0</ele>
        <time>2021-03-03T08:56:20Z</time>
      </trkpt>
      <trkpt lat="41.50477107" lon="2.04675912">
        <ele>204.0</ele>
        <time>2021-03-03T08:56:21Z</time>
      </trkpt>
      <trkpt lat="41.50480474" lon="2.04669279">
        <ele>204.0</ele>
        <time>2021-03-03T08:56:22Z</time>
      </trkpt>
      <trkpt lat="41.50483474" lon="2.04663179">
        <ele>204.0</ele>
        <time>2021-03-03T08:56:23Z</time>
      </trkpt>
      <trkpt lat="41.50486373" lon="2.04657912">
        <ele>204.0</ele>
        <time>2021-03-03T08:56:24Z</time>
      </trkpt>
      <trkpt lat="41.50489205" lon="2.04653613">
        <ele>204.0</ele>
        <time>2021-03-03T08:56:25Z</time>
      </trkpt>
      <trkpt lat="41.50492071" lon="2.04650146">
        <ele>204.0</ele>
        <time>2021-03-03T08:56:26Z</time>
      </trkpt>
      <trkpt lat="41.50495104" lon="2.04647214">
        <ele>204.0</ele>
        <time>2021-03-03T08:56:27Z</time>
      </trkpt>
      <trkpt lat="41.50498304" lon="2.04644547">
        <ele>204.0</ele>
        <time>2021-03-03T08:56:28Z</time>
      </trkpt>
      <trkpt lat="41.5050157" lon="2.04641815">
        <ele>204.0</ele>
        <time>2021-03-03T08:56:29Z</time>
      </trkpt>
      <trkpt lat="41.5050487" lon="2.04638748">
        <ele>204.0</ele>
        <time>2021-03-03T08:56:30Z</time>
      </trkpt>
      <trkpt lat="41.50508136" lon="2.04635183">
        <ele>204.0</ele>
        <time>2021-03-03T08:56:31Z</time>
      </trkpt>
      <trkpt lat="41.50511369" lon="2.0463095">
        <ele>204.0</ele>
        <time>2021-03-03T08:56:32Z</time>
      </trkpt>
      <trkpt lat="41.50514402" lon="2.04626318">
        <ele>204.0</ele>
        <time>2021-03-03T08:56:33Z</time>
      </trkpt>
      <trkpt lat="41.50517401" lon="2.04621585">
        <ele>204.0</ele>
        <time>2021-03-03T08:56:34Z</time>
      </trkpt>
      <trkpt lat="41.50520268" lon="2.04616618">
        <ele>204.0</ele>
        <time>2021-03-03T08:56:35Z</time>
      </trkpt>
      <trkpt lat="41.50523068" lon="2.04611552">
        <ele>204.0</ele>
        <time>2021-03-03T08:56:36Z</time>
      </trkpt>
      <trkpt lat="41.50525767" lon="2.04606419">
        <ele>205.0</ele>
        <time>2021-03-03T08:56:37Z</time>
      </trkpt>
      <trkpt lat="41.50528533" lon="2.04601152">
        <ele>205.0</ele>
        <time>2021-03-03T08:56:38Z</time>
      </trkpt>
      <trkpt lat="41.50531399" lon="2.04595787">
        <ele>205.0</ele>
        <time>2021-03-03T08:56:39Z</time>
      </trkpt>
      <trkpt lat="41.50534265" lon="2.04590453">
        <ele>205.0</ele>
        <time>2021-03-03T08:56:40Z</time>
      </trkpt>
      <trkpt lat="41.50537231" lon="2.04585054">
        <ele>205.0</ele>
        <time>2021-03-03T08:56:41Z</time>
      </trkpt>
      <trkpt lat="41.50540197" lon="2.04579689">
        <ele>205.0</ele>
        <time>2021-03-03T08:56:42Z</time>
      </trkpt>
      <trkpt lat="41.5054313" lon="2.04574223">
        <ele>205.0</ele>
        <time>2021-03-03T08:56:43Z</time>
      </trkpt>
      <trkpt lat="41.5054593" lon="2.0456879">
        <ele>205.0</ele>
        <time>2021-03-03T08:56:44Z</time>
      </trkpt>
      <trkpt lat="41.50548664" lon="2.04563356">
        <ele>206.0</ele>
        <time>2021-03-03T08:56:45Z</time>
      </trkpt>
      <trkpt lat="41.50551496" lon="2.04558157">
        <ele>206.0</ele>
        <time>2021-03-03T08:56:46Z</time>
      </trkpt>
      <trkpt lat="41.50554628" lon="2.04553392">
        <ele>206.0</ele>
        <time>2021-03-03T08:56:47Z</time>
      </trkpt>
      <trkpt lat="41.50558127" lon="2.04549225">
        <ele>206.0</ele>
        <time>2021-03-03T08:56:48Z</time>
      </trkpt>
      <trkpt lat="41.5056186" lon="2.04545593">
        <ele>206.0</ele>
        <time>2021-03-03T08:56:49Z</time>
      </trkpt>
      <trkpt lat="41.5056576" lon="2.04542294">
        <ele>206.0</ele>
        <time>2021-03-03T08:56:50Z</time>
      </trkpt>
      <trkpt lat="41.5056976" lon="2.04539127">
        <ele>206.0</ele>
        <time>2021-03-03T08:56:51Z</time>
      </trkpt>
      <trkpt lat="41.50573659" lon="2.04535694">
        <ele>206.0</ele>
        <time>2021-03-03T08:56:52Z</time>
      </trkpt>
      <trkpt lat="41.50577159" lon="2.04531761">
        <ele>207.0</ele>
        <time>2021-03-03T08:56:53Z</time>
      </trkpt>
      <trkpt lat="41.50580225" lon="2.04527296">
        <ele>207.0</ele>
        <time>2021-03-03T08:56:54Z</time>
      </trkpt>
      <trkpt lat="41.50582858" lon="2.04522362">
        <ele>207.0</ele>
        <time>2021-03-03T08:56:55Z</time>
      </trkpt>
      <trkpt lat="41.50585457" lon="2.04517097">
        <ele>207.0</ele>
        <time>2021-03-03T08:56:56Z</time>
      </trkpt>
      <trkpt lat="41.5058809" lon="2.0451173">
        <ele>207.0</ele>
        <time>2021-03-03T08:56:57Z</time>
      </trkpt>
      <trkpt lat="41.50590856" lon="2.04506298">
        <ele>207.0</ele>
        <time>2021-03-03T08:56:58Z</time>
      </trkpt>
      <trkpt lat="41.50593889" lon="2.04500899">
        <ele>207.0</ele>
        <time>2021-03-03T08:56:59Z</time>
      </trkpt>
      <trkpt lat="41.50597256" lon="2.04495699">
        <ele>207.0</ele>
        <time>2021-03-03T08:57:00Z</time>
      </trkpt>
      <trkpt lat="41.50600989" lon="2.04490833">
        <ele>208.0</ele>
        <time>2021-03-03T08:57:01Z</time>
      </trkpt>
      <trkpt lat="41.50605021" lon="2.04486566">
        <ele>208.0</ele>
        <time>2021-03-03T08:57:02Z</time>
      </trkpt>
      <trkpt lat="41.50609387" lon="2.04483101">
        <ele>208.0</ele>
        <time>2021-03-03T08:57:03Z</time>
      </trkpt>
      <trkpt lat="41.50613987" lon="2.04480501">
        <ele>208.0</ele>
        <time>2021-03-03T08:57:04Z</time>
      </trkpt>
      <trkpt lat="41.50618919" lon="2.04478602">
        <ele>208.0</ele>
        <time>2021-03-03T08:57:05Z</time>
      </trkpt>
      <trkpt lat="41.50624119" lon="2.04477268">
        <ele>208.0</ele>
        <time>2021-03-03T08:57:06Z</time>
      </trkpt>
      <trkpt lat="41.50629518" lon="2.04476303">
        <ele>208.0</ele>
        <time>2021-03-03T08:57:07Z</time>
      </trkpt>
      <trkpt lat="41.50635017" lon="2.0447557">
        <ele>208.0</ele>
        <time>2021-03-03T08:57:08Z</time>
      </trkpt>
      <trkpt lat="41.50640484" lon="2.04475004">
        <ele>208.0</ele>
        <time>2021-03-03T08:57:09Z</time>
      </trkpt>
      <trkpt lat="41.5064595" lon="2.04474671">
        <ele>208.0</ele>
        <time>2021-03-03T08:57:10Z</time>
      </trkpt>
      <trkpt lat="41.5065125" lon="2.04474471">
        <ele>208.0</ele>
        <time>2021-03-03T08:57:11Z</time>
      </trkpt>
      <trkpt lat="41.50656416" lon="2.04474306">
        <ele>208.0</ele>
        <time>2021-03-03T08:57:12Z</time>
      </trkpt>
      <trkpt lat="41.50661249" lon="2.04474505">
        <ele>208.0</ele>
        <time>2021-03-03T08:57:13Z</time>
      </trkpt>
      <trkpt lat="41.50665348" lon="2.0447487">
        <ele>208.0</ele>
        <time>2021-03-03T08:57:14Z</time>
      </trkpt>
      <trkpt lat="41.50668447" lon="2.04475303">
        <ele>208.0</ele>
        <time>2021-03-03T08:57:15Z</time>
      </trkpt>
      <trkpt lat="41.50670746" lon="2.04475602">
        <ele>208.0</ele>
        <time>2021-03-03T08:57:16Z</time>
      </trkpt>
      <trkpt lat="41.50672412" lon="2.04475667">
        <ele>208.0</ele>
        <time>2021-03-03T08:57:17Z</time>
      </trkpt>
      <trkpt lat="41.50675811" lon="2.04476367">
        <ele>208.0</ele>
        <time>2021-03-03T08:57:20Z</time>
      </trkpt>
      <trkpt lat="41.50675911" lon="2.04476235">
        <ele>208.0</ele>
        <time>2021-03-03T08:57:21Z</time>
      </trkpt>
      <trkpt lat="41.50676111" lon="2.04476068">
        <ele>208.0</ele>
        <time>2021-03-03T08:57:22Z</time>
      </trkpt>
      <trkpt lat="41.50676544" lon="2.04475736">
        <ele>208.0</ele>
        <time>2021-03-03T08:57:23Z</time>
      </trkpt>
      <trkpt lat="41.50676943" lon="2.04475403">
        <ele>208.0</ele>
        <time>2021-03-03T08:57:24Z</time>
      </trkpt>
      <trkpt lat="41.50677208" lon="2.04475003">
        <ele>208.0</ele>
        <time>2021-03-03T08:57:25Z</time>
      </trkpt>
      <trkpt lat="41.50678808" lon="2.04474536">
        <ele>208.0</ele>
        <time>2021-03-03T08:57:27Z</time>
      </trkpt>
      <trkpt lat="41.50679008" lon="2.0447447">
        <ele>208.0</ele>
        <time>2021-03-03T08:57:28Z</time>
      </trkpt>
      <trkpt lat="41.50679242" lon="2.04474405">
        <ele>208.0</ele>
        <time>2021-03-03T08:57:29Z</time>
      </trkpt>
      <trkpt lat="41.50679507" lon="2.04474272">
        <ele>208.0</ele>
        <time>2021-03-03T08:57:30Z</time>
      </trkpt>
      <trkpt lat="41.50679906" lon="2.04474306">
        <ele>208.0</ele>
        <time>2021-03-03T08:57:31Z</time>
      </trkpt>
      <trkpt lat="41.50680473" lon="2.04474438">
        <ele>208.0</ele>
        <time>2021-03-03T08:57:32Z</time>
      </trkpt>
      <trkpt lat="41.5068124" lon="2.04474737">
        <ele>208.0</ele>
        <time>2021-03-03T08:57:33Z</time>
      </trkpt>
      <trkpt lat="41.50682172" lon="2.0447527">
        <ele>208.0</ele>
        <time>2021-03-03T08:57:34Z</time>
      </trkpt>
      <trkpt lat="41.50683239" lon="2.04475836">
        <ele>208.0</ele>
        <time>2021-03-03T08:57:35Z</time>
      </trkpt>
      <trkpt lat="41.50684471" lon="2.04476603">
        <ele>208.0</ele>
        <time>2021-03-03T08:57:36Z</time>
      </trkpt>
      <trkpt lat="41.50685937" lon="2.04477735">
        <ele>208.0</ele>
        <time>2021-03-03T08:57:37Z</time>
      </trkpt>
      <trkpt lat="41.5068757" lon="2.04479235">
        <ele>208.0</ele>
        <time>2021-03-03T08:57:38Z</time>
      </trkpt>
      <trkpt lat="41.50689302" lon="2.04481302">
        <ele>208.0</ele>
        <time>2021-03-03T08:57:39Z</time>
      </trkpt>
      <trkpt lat="41.50691102" lon="2.04483934">
        <ele>208.0</ele>
        <time>2021-03-03T08:57:40Z</time>
      </trkpt>
      <trkpt lat="41.50692901" lon="2.04487033">
        <ele>208.0</ele>
        <time>2021-03-03T08:57:41Z</time>
      </trkpt>
      <trkpt lat="41.50694568" lon="2.04490566">
        <ele>208.0</ele>
        <time>2021-03-03T08:57:42Z</time>
      </trkpt>
      <trkpt lat="41.50696" lon="2.04494665">
        <ele>208.0</ele>
        <time>2021-03-03T08:57:43Z</time>
      </trkpt>
      <trkpt lat="41.506972" lon="2.04499131">
        <ele>208.0</ele>
        <time>2021-03-03T08:57:44Z</time>
      </trkpt>
      <trkpt lat="41.50698033" lon="2.04504063">
        <ele>208.0</ele>
        <time>2021-03-03T08:57:45Z</time>
      </trkpt>
      <trkpt lat="41.50698833" lon="2.04509362">
        <ele>208.0</ele>
        <time>2021-03-03T08:57:46Z</time>
      </trkpt>
      <trkpt lat="41.50699566" lon="2.04514862">
        <ele>208.0</ele>
        <time>2021-03-03T08:57:47Z</time>
      </trkpt>
      <trkpt lat="41.50700399" lon="2.04520328">
        <ele>208.0</ele>
        <time>2021-03-03T08:57:48Z</time>
      </trkpt>
      <trkpt lat="41.50701298" lon="2.04526027">
        <ele>209.0</ele>
        <time>2021-03-03T08:57:49Z</time>
      </trkpt>
      <trkpt lat="41.50702098" lon="2.04531794">
        <ele>209.0</ele>
        <time>2021-03-03T08:57:50Z</time>
      </trkpt>
      <trkpt lat="41.50702697" lon="2.04537726">
        <ele>209.0</ele>
        <time>2021-03-03T08:57:51Z</time>
      </trkpt>
      <trkpt lat="41.50703063" lon="2.04543726">
        <ele>209.0</ele>
        <time>2021-03-03T08:57:52Z</time>
      </trkpt>
      <trkpt lat="41.50703463" lon="2.04549893">
        <ele>209.0</ele>
        <time>2021-03-03T08:57:53Z</time>
      </trkpt>
      <trkpt lat="41.50703795" lon="2.04556092">
        <ele>209.0</ele>
        <time>2021-03-03T08:57:54Z</time>
      </trkpt>
      <trkpt lat="41.50704262" lon="2.04562192">
        <ele>209.0</ele>
        <time>2021-03-03T08:57:55Z</time>
      </trkpt>
      <trkpt lat="41.50704829" lon="2.04568292">
        <ele>209.0</ele>
        <time>2021-03-03T08:57:56Z</time>
      </trkpt>
      <trkpt lat="41.50705561" lon="2.04574324">
        <ele>209.0</ele>
        <time>2021-03-03T08:57:57Z</time>
      </trkpt>
      <trkpt lat="41.50706894" lon="2.04580057">
        <ele>210.0</ele>
        <time>2021-03-03T08:57:58Z</time>
      </trkpt>
      <trkpt lat="41.50708828" lon="2.0458529">
        <ele>210.0</ele>
        <time>2021-03-03T08:57:59Z</time>
      </trkpt>
      <trkpt lat="41.50711328" lon="2.04590222">
        <ele>210.0</ele>
        <time>2021-03-03T08:58:00Z</time>
      </trkpt>
      <trkpt lat="41.50714627" lon="2.04594522">
        <ele>210.0</ele>
        <time>2021-03-03T08:58:01Z</time>
      </trkpt>
      <trkpt lat="41.5071836" lon="2.04598189">
        <ele>210.0</ele>
        <time>2021-03-03T08:58:02Z</time>
      </trkpt>
      <trkpt lat="41.5072226" lon="2.04601188">
        <ele>210.0</ele>
        <time>2021-03-03T08:58:03Z</time>
      </trkpt>
      <trkpt lat="41.50726259" lon="2.04604088">
        <ele>210.0</ele>
        <time>2021-03-03T08:58:04Z</time>
      </trkpt>
      <trkpt lat="41.50730358" lon="2.04607221">
        <ele>210.0</ele>
        <time>2021-03-03T08:58:05Z</time>
      </trkpt>
      <trkpt lat="41.50734425" lon="2.04610588">
        <ele>210.0</ele>
        <time>2021-03-03T08:58:06Z</time>
      </trkpt>
      <trkpt lat="41.5073819" lon="2.04614287">
        <ele>210.0</ele>
        <time>2021-03-03T08:58:07Z</time>
      </trkpt>
      <trkpt lat="41.50741957" lon="2.04618052">
        <ele>210.0</ele>
        <time>2021-03-03T08:58:08Z</time>
      </trkpt>
      <trkpt lat="41.50745589" lon="2.04621986">
        <ele>210.0</ele>
        <time>2021-03-03T08:58:09Z</time>
      </trkpt>
      <trkpt lat="41.50749223" lon="2.04626019">
        <ele>210.0</ele>
        <time>2021-03-03T08:58:10Z</time>
      </trkpt>
      <trkpt lat="41.50752823" lon="2.04630185">
        <ele>210.0</ele>
        <time>2021-03-03T08:58:11Z</time>
      </trkpt>
      <trkpt lat="41.50756488" lon="2.04634451">
        <ele>210.0</ele>
        <time>2021-03-03T08:58:12Z</time>
      </trkpt>
      <trkpt lat="41.50759954" lon="2.04638817">
        <ele>210.0</ele>
        <time>2021-03-03T08:58:13Z</time>
      </trkpt>
      <trkpt lat="41.50763221" lon="2.04643417">
        <ele>210.0</ele>
        <time>2021-03-03T08:58:14Z</time>
      </trkpt>
      <trkpt lat="41.50766353" lon="2.04648217">
        <ele>210.0</ele>
        <time>2021-03-03T08:58:15Z</time>
      </trkpt>
      <trkpt lat="41.50769386" lon="2.04653116">
        <ele>210.0</ele>
        <time>2021-03-03T08:58:16Z</time>
      </trkpt>
      <trkpt lat="41.50772086" lon="2.04658216">
        <ele>210.0</ele>
        <time>2021-03-03T08:58:16Z</time>
      </trkpt>
      <trkpt lat="41.50774385" lon="2.04663649">
        <ele>211.0</ele>
        <time>2021-03-03T08:58:17Z</time>
      </trkpt>
      <trkpt lat="41.50776251" lon="2.04669348">
        <ele>211.0</ele>
        <time>2021-03-03T08:58:18Z</time>
      </trkpt>
      <trkpt lat="41.50777751" lon="2.04675082">
        <ele>211.0</ele>
        <time>2021-03-03T08:58:19Z</time>
      </trkpt>
      <trkpt lat="41.50778417" lon="2.04681047">
        <ele>211.0</ele>
        <time>2021-03-03T08:58:20Z</time>
      </trkpt>
      <trkpt lat="41.50778318" lon="2.04686946">
        <ele>211.0</ele>
        <time>2021-03-03T08:58:21Z</time>
      </trkpt>
      <trkpt lat="41.50777351" lon="2.04692713">
        <ele>211.0</ele>
        <time>2021-03-03T08:58:22Z</time>
      </trkpt>
      <trkpt lat="41.50775652" lon="2.04698212">
        <ele>211.0</ele>
        <time>2021-03-03T08:58:23Z</time>
      </trkpt>
      <trkpt lat="41.50773053" lon="2.04703444">
        <ele>211.0</ele>
        <time>2021-03-03T08:58:24Z</time>
      </trkpt>
      <trkpt lat="41.50769854" lon="2.04708378">
        <ele>211.0</ele>
        <time>2021-03-03T08:58:25Z</time>
      </trkpt>
      <trkpt lat="41.50766287" lon="2.0471301">
        <ele>211.0</ele>
        <time>2021-03-03T08:58:26Z</time>
      </trkpt>
      <trkpt lat="41.50762322" lon="2.04717277">
        <ele>211.0</ele>
        <time>2021-03-03T08:58:27Z</time>
      </trkpt>
      <trkpt lat="41.50758155" lon="2.04721176">
        <ele>211.0</ele>
        <time>2021-03-03T08:58:28Z</time>
      </trkpt>
      <trkpt lat="41.50753889" lon="2.04724942">
        <ele>211.0</ele>
        <time>2021-03-03T08:58:29Z</time>
      </trkpt>
      <trkpt lat="41.50749624" lon="2.04728575">
        <ele>211.0</ele>
        <time>2021-03-03T08:58:30Z</time>
      </trkpt>
      <trkpt lat="41.50745424" lon="2.04732075">
        <ele>211.0</ele>
        <time>2021-03-03T08:58:31Z</time>
      </trkpt>
      <trkpt lat="41.50741158" lon="2.04735508">
        <ele>211.0</ele>
        <time>2021-03-03T08:58:32Z</time>
      </trkpt>
      <trkpt lat="41.50736892" lon="2.04738607">
        <ele>211.0</ele>
        <time>2021-03-03T08:58:33Z</time>
      </trkpt>
      <trkpt lat="41.50732592" lon="2.04741474">
        <ele>211.0</ele>
        <time>2021-03-03T08:58:34Z</time>
      </trkpt>
      <trkpt lat="41.50728159" lon="2.04744106">
        <ele>211.0</ele>
        <time>2021-03-03T08:58:35Z</time>
      </trkpt>
      <trkpt lat="41.50723727" lon="2.04746638">
        <ele>212.0</ele>
        <time>2021-03-03T08:58:36Z</time>
      </trkpt>
      <trkpt lat="41.5071926" lon="2.04748872">
        <ele>212.0</ele>
        <time>2021-03-03T08:58:37Z</time>
      </trkpt>
      <trkpt lat="41.50714893" lon="2.04750771">
        <ele>212.0</ele>
        <time>2021-03-03T08:58:38Z</time>
      </trkpt>
      <trkpt lat="41.50710528" lon="2.04752371">
        <ele>212.0</ele>
        <time>2021-03-03T08:58:39Z</time>
      </trkpt>
      <trkpt lat="41.50706194" lon="2.04753737">
        <ele>212.0</ele>
        <time>2021-03-03T08:58:40Z</time>
      </trkpt>
      <trkpt lat="41.50701862" lon="2.04754971">
        <ele>212.0</ele>
        <time>2021-03-03T08:58:41Z</time>
      </trkpt>
      <trkpt lat="41.50697395" lon="2.04756071">
        <ele>212.0</ele>
        <time>2021-03-03T08:58:42Z</time>
      </trkpt>
      <trkpt lat="41.5069303" lon="2.04757136">
        <ele>213.0</ele>
        <time>2021-03-03T08:58:43Z</time>
      </trkpt>
      <trkpt lat="41.50688763" lon="2.0475827">
        <ele>213.0</ele>
        <time>2021-03-03T08:58:44Z</time>
      </trkpt>
      <trkpt lat="41.50684564" lon="2.04759535">
        <ele>213.0</ele>
        <time>2021-03-03T08:58:45Z</time>
      </trkpt>
      <trkpt lat="41.50680364" lon="2.04760934">
        <ele>213.0</ele>
        <time>2021-03-03T08:58:46Z</time>
      </trkpt>
      <trkpt lat="41.50676231" lon="2.04762334">
        <ele>213.0</ele>
        <time>2021-03-03T08:58:47Z</time>
      </trkpt>
      <trkpt lat="41.50672031" lon="2.047637">
        <ele>214.0</ele>
        <time>2021-03-03T08:58:48Z</time>
      </trkpt>
      <trkpt lat="41.50667897" lon="2.047651">
        <ele>214.0</ele>
        <time>2021-03-03T08:58:49Z</time>
      </trkpt>
      <trkpt lat="41.50663832" lon="2.047667">
        <ele>214.0</ele>
        <time>2021-03-03T08:58:51Z</time>
      </trkpt>
      <trkpt lat="41.50659765" lon="2.04768199">
        <ele>214.0</ele>
        <time>2021-03-03T08:58:51Z</time>
      </trkpt>
      <trkpt lat="41.50655733" lon="2.04769666">
        <ele>214.0</ele>
        <time>2021-03-03T08:58:52Z</time>
      </trkpt>
      <trkpt lat="41.50651634" lon="2.04771098">
        <ele>215.0</ele>
        <time>2021-03-03T08:58:53Z</time>
      </trkpt>
      <trkpt lat="41.506476" lon="2.04772464">
        <ele>215.0</ele>
        <time>2021-03-03T08:58:54Z</time>
      </trkpt>
      <trkpt lat="41.50643601" lon="2.04773729">
        <ele>215.0</ele>
        <time>2021-03-03T08:58:55Z</time>
      </trkpt>
      <trkpt lat="41.50639636" lon="2.04774795">
        <ele>215.0</ele>
        <time>2021-03-03T08:58:56Z</time>
      </trkpt>
      <trkpt lat="41.50635637" lon="2.04775795">
        <ele>215.0</ele>
        <time>2021-03-03T08:58:57Z</time>
      </trkpt>
      <trkpt lat="41.50631703" lon="2.04776628">
        <ele>216.0</ele>
        <time>2021-03-03T08:58:58Z</time>
      </trkpt>
      <trkpt lat="41.50627803" lon="2.04777562">
        <ele>216.0</ele>
        <time>2021-03-03T08:58:59Z</time>
      </trkpt>
      <trkpt lat="41.5062397" lon="2.04778628">
        <ele>216.0</ele>
        <time>2021-03-03T08:59:00Z</time>
      </trkpt>
      <trkpt lat="41.50620138" lon="2.04779928">
        <ele>216.0</ele>
        <time>2021-03-03T08:59:01Z</time>
      </trkpt>
      <trkpt lat="41.50616304" lon="2.04781361">
        <ele>217.0</ele>
        <time>2021-03-03T08:59:02Z</time>
      </trkpt>
      <trkpt lat="41.50612539" lon="2.04782827">
        <ele>217.0</ele>
        <time>2021-03-03T08:59:03Z</time>
      </trkpt>
      <trkpt lat="41.50608839" lon="2.04784226">
        <ele>217.0</ele>
        <time>2021-03-03T08:59:04Z</time>
      </trkpt>
      <trkpt lat="41.50605172" lon="2.04785693">
        <ele>217.0</ele>
        <time>2021-03-03T08:59:05Z</time>
      </trkpt>
      <trkpt lat="41.50601606" lon="2.04787259">
        <ele>217.0</ele>
        <time>2021-03-03T08:59:06Z</time>
      </trkpt>
      <trkpt lat="41.50598174" lon="2.04789192">
        <ele>217.0</ele>
        <time>2021-03-03T08:59:07Z</time>
      </trkpt>
      <trkpt lat="41.50595241" lon="2.04791291">
        <ele>218.0</ele>
        <time>2021-03-03T08:59:08Z</time>
      </trkpt>
      <trkpt lat="41.50592875" lon="2.04793991">
        <ele>218.0</ele>
        <time>2021-03-03T08:59:09Z</time>
      </trkpt>
      <trkpt lat="41.50591242" lon="2.04796823">
        <ele>218.0</ele>
        <time>2021-03-03T08:59:10Z</time>
      </trkpt>
      <trkpt lat="41.50590276" lon="2.04799757">
        <ele>218.0</ele>
        <time>2021-03-03T08:59:11Z</time>
      </trkpt>
      <trkpt lat="41.50589643" lon="2.04802789">
        <ele>218.0</ele>
        <time>2021-03-03T08:59:12Z</time>
      </trkpt>
      <trkpt lat="41.50589076" lon="2.04806022">
        <ele>219.0</ele>
        <time>2021-03-03T08:59:13Z</time>
      </trkpt>
      <trkpt lat="41.50588377" lon="2.04809221">
        <ele>219.0</ele>
        <time>2021-03-03T08:59:14Z</time>
      </trkpt>
      <trkpt lat="41.50587478" lon="2.04812255">
        <ele>219.0</ele>
        <time>2021-03-03T08:59:15Z</time>
      </trkpt>
      <trkpt lat="41.50586278" lon="2.04815155">
        <ele>219.0</ele>
        <time>2021-03-03T08:59:16Z</time>
      </trkpt>
      <trkpt lat="41.50584645" lon="2.04818054">
        <ele>220.0</ele>
        <time>2021-03-03T08:59:17Z</time>
      </trkpt>
      <trkpt lat="41.50582712" lon="2.04820754">
        <ele>220.0</ele>
        <time>2021-03-03T08:59:18Z</time>
      </trkpt>
      <trkpt lat="41.50580612" lon="2.04823453">
        <ele>221.0</ele>
        <time>2021-03-03T08:59:19Z</time>
      </trkpt>
      <trkpt lat="41.5057848" lon="2.04826119">
        <ele>221.0</ele>
        <time>2021-03-03T08:59:20Z</time>
      </trkpt>
      <trkpt lat="41.5057618" lon="2.04828753">
        <ele>221.0</ele>
        <time>2021-03-03T08:59:21Z</time>
      </trkpt>
      <trkpt lat="41.50573714" lon="2.04831353">
        <ele>221.0</ele>
        <time>2021-03-03T08:59:22Z</time>
      </trkpt>
      <trkpt lat="41.50571048" lon="2.04833952">
        <ele>221.0</ele>
        <time>2021-03-03T08:59:23Z</time>
      </trkpt>
      <trkpt lat="41.50568281" lon="2.04836752">
        <ele>222.0</ele>
        <time>2021-03-03T08:59:24Z</time>
      </trkpt>
      <trkpt lat="41.50565515" lon="2.04839784">
        <ele>222.0</ele>
        <time>2021-03-03T08:59:25Z</time>
      </trkpt>
      <trkpt lat="41.50562749" lon="2.04843016">
        <ele>222.0</ele>
        <time>2021-03-03T08:59:26Z</time>
      </trkpt>
      <trkpt lat="41.50559949" lon="2.04846483">
        <ele>222.0</ele>
        <time>2021-03-03T08:59:27Z</time>
      </trkpt>
      <trkpt lat="41.50557115" lon="2.04850182">
        <ele>222.0</ele>
        <time>2021-03-03T08:59:28Z</time>
      </trkpt>
      <trkpt lat="41.50554215" lon="2.04854149">
        <ele>222.0</ele>
        <time>2021-03-03T08:59:29Z</time>
      </trkpt>
      <trkpt lat="41.5055135" lon="2.04858415">
        <ele>222.0</ele>
        <time>2021-03-03T08:59:30Z</time>
      </trkpt>
      <trkpt lat="41.50548451" lon="2.04862814">
        <ele>222.0</ele>
        <time>2021-03-03T08:59:31Z</time>
      </trkpt>
      <trkpt lat="41.50545384" lon="2.04867347">
        <ele>222.0</ele>
        <time>2021-03-03T08:59:32Z</time>
      </trkpt>
      <trkpt lat="41.50542252" lon="2.04871647">
        <ele>222.0</ele>
        <time>2021-03-03T08:59:33Z</time>
      </trkpt>
      <trkpt lat="41.50539052" lon="2.04875479">
        <ele>222.0</ele>
        <time>2021-03-03T08:59:34Z</time>
      </trkpt>
      <trkpt lat="41.50527153" lon="2.04886812">
        <ele>222.0</ele>
        <time>2021-03-03T08:59:36Z</time>
      </trkpt>
      <trkpt lat="41.50526487" lon="2.04886912">
        <ele>222.0</ele>
        <time>2021-03-03T08:59:37Z</time>
      </trkpt>
      <trkpt lat="41.5052512" lon="2.04886978">
        <ele>222.0</ele>
        <time>2021-03-03T08:59:38Z</time>
      </trkpt>
      <trkpt lat="41.50523388" lon="2.04886612">
        <ele>223.0</ele>
        <time>2021-03-03T08:59:39Z</time>
      </trkpt>
      <trkpt lat="41.50521588" lon="2.0488588">
        <ele>223.0</ele>
        <time>2021-03-03T08:59:40Z</time>
      </trkpt>
      <trkpt lat="41.50519889" lon="2.04884547">
        <ele>223.0</ele>
        <time>2021-03-03T08:59:41Z</time>
      </trkpt>
      <trkpt lat="41.5051829" lon="2.04882847">
        <ele>224.0</ele>
        <time>2021-03-03T08:59:42Z</time>
      </trkpt>
      <trkpt lat="41.50516657" lon="2.04880748">
        <ele>224.0</ele>
        <time>2021-03-03T08:59:43Z</time>
      </trkpt>
      <trkpt lat="41.50515224" lon="2.04878482">
        <ele>225.0</ele>
        <time>2021-03-03T08:59:44Z</time>
      </trkpt>
      <trkpt lat="41.50513724" lon="2.04876082">
        <ele>225.0</ele>
        <time>2021-03-03T08:59:45Z</time>
      </trkpt>
      <trkpt lat="41.50512325" lon="2.04873415">
        <ele>226.0</ele>
        <time>2021-03-03T08:59:46Z</time>
      </trkpt>
      <trkpt lat="41.50511192" lon="2.04870583">
        <ele>226.0</ele>
        <time>2021-03-03T08:59:47Z</time>
      </trkpt>
      <trkpt lat="41.50510226" lon="2.04867551">
        <ele>227.0</ele>
        <time>2021-03-03T08:59:48Z</time>
      </trkpt>
      <trkpt lat="41.50509426" lon="2.04864251">
        <ele>227.0</ele>
        <time>2021-03-03T08:59:49Z</time>
      </trkpt>
      <trkpt lat="41.50508794" lon="2.04860884">
        <ele>227.0</ele>
        <time>2021-03-03T08:59:50Z</time>
      </trkpt>
      <trkpt lat="41.50508195" lon="2.04857252">
        <ele>227.0</ele>
        <time>2021-03-03T08:59:51Z</time>
      </trkpt>
      <trkpt lat="41.50507795" lon="2.04853285">
        <ele>228.0</ele>
        <time>2021-03-03T08:59:52Z</time>
      </trkpt>
      <trkpt lat="41.50507629" lon="2.04849252">
        <ele>228.0</ele>
        <time>2021-03-03T08:59:53Z</time>
      </trkpt>
      <trkpt lat="41.50507463" lon="2.04845052">
        <ele>229.0</ele>
        <time>2021-03-03T08:59:54Z</time>
      </trkpt>
      <trkpt lat="41.50506997" lon="2.04840819">
        <ele>229.0</ele>
        <time>2021-03-03T08:59:55Z</time>
      </trkpt>
      <trkpt lat="41.5050633" lon="2.04836654">
        <ele>229.0</ele>
        <time>2021-03-03T08:59:56Z</time>
      </trkpt>
      <trkpt lat="41.50505665" lon="2.04832654">
        <ele>229.0</ele>
        <time>2021-03-03T08:59:58Z</time>
      </trkpt>
      <trkpt lat="41.50504831" lon="2.04828788">
        <ele>230.0</ele>
        <time>2021-03-03T08:59:58Z</time>
      </trkpt>
      <trkpt lat="41.50503898" lon="2.04825189">
        <ele>230.0</ele>
        <time>2021-03-03T08:59:59Z</time>
      </trkpt>
      <trkpt lat="41.50502832" lon="2.04821822">
        <ele>230.0</ele>
        <time>2021-03-03T09:00:00Z</time>
      </trkpt>
      <trkpt lat="41.50501732" lon="2.04818589">
        <ele>230.0</ele>
        <time>2021-03-03T09:00:01Z</time>
      </trkpt>
      <trkpt lat="41.50500399" lon="2.04815323">
        <ele>230.0</ele>
        <time>2021-03-03T09:00:02Z</time>
      </trkpt>
      <trkpt lat="41.50498667" lon="2.04812057">
        <ele>231.0</ele>
        <time>2021-03-03T09:00:03Z</time>
      </trkpt>
      <trkpt lat="41.50496533" lon="2.04808524">
        <ele>231.0</ele>
        <time>2021-03-03T09:00:04Z</time>
      </trkpt>
      <trkpt lat="41.50493901" lon="2.04804891">
        <ele>231.0</ele>
        <time>2021-03-03T09:00:05Z</time>
      </trkpt>
      <trkpt lat="41.50490634" lon="2.04801259">
        <ele>231.0</ele>
        <time>2021-03-03T09:00:06Z</time>
      </trkpt>
      <trkpt lat="41.50487001" lon="2.0479796">
        <ele>231.0</ele>
        <time>2021-03-03T09:00:07Z</time>
      </trkpt>
      <trkpt lat="41.50482935" lon="2.04795393">
        <ele>231.0</ele>
        <time>2021-03-03T09:00:08Z</time>
      </trkpt>
      <trkpt lat="41.50478735" lon="2.04794227">
        <ele>231.0</ele>
        <time>2021-03-03T09:00:09Z</time>
      </trkpt>
      <trkpt lat="41.5047467" lon="2.04794694">
        <ele>230.0</ele>
        <time>2021-03-03T09:00:10Z</time>
      </trkpt>
      <trkpt lat="41.50471103" lon="2.0479686">
        <ele>230.0</ele>
        <time>2021-03-03T09:00:11Z</time>
      </trkpt>
      <trkpt lat="41.50468403" lon="2.04800659">
        <ele>229.0</ele>
        <time>2021-03-03T09:00:12Z</time>
      </trkpt>
      <trkpt lat="41.5046617" lon="2.04805459">
        <ele>229.0</ele>
        <time>2021-03-03T09:00:13Z</time>
      </trkpt>
      <trkpt lat="41.50464437" lon="2.04810725">
        <ele>229.0</ele>
        <time>2021-03-03T09:00:14Z</time>
      </trkpt>
      <trkpt lat="41.50462872" lon="2.04816324">
        <ele>229.0</ele>
        <time>2021-03-03T09:00:15Z</time>
      </trkpt>
      <trkpt lat="41.50461305" lon="2.04822124">
        <ele>228.0</ele>
        <time>2021-03-03T09:00:16Z</time>
      </trkpt>
      <trkpt lat="41.50459839" lon="2.0482819">
        <ele>228.0</ele>
        <time>2021-03-03T09:00:17Z</time>
      </trkpt>
      <trkpt lat="41.50458374" lon="2.04834523">
        <ele>228.0</ele>
        <time>2021-03-03T09:00:18Z</time>
      </trkpt>
      <trkpt lat="41.50456874" lon="2.04840722">
        <ele>228.0</ele>
        <time>2021-03-03T09:00:19Z</time>
      </trkpt>
      <trkpt lat="41.50455341" lon="2.04846822">
        <ele>228.0</ele>
        <time>2021-03-03T09:00:20Z</time>
      </trkpt>
      <trkpt lat="41.50453576" lon="2.04852789">
        <ele>228.0</ele>
        <time>2021-03-03T09:00:21Z</time>
      </trkpt>
      <trkpt lat="41.50451577" lon="2.04858621">
        <ele>228.0</ele>
        <time>2021-03-03T09:00:22Z</time>
      </trkpt>
      <trkpt lat="41.50449643" lon="2.04864655">
        <ele>228.0</ele>
        <time>2021-03-03T09:00:23Z</time>
      </trkpt>
      <trkpt lat="41.5044801" lon="2.0487022">
        <ele>228.0</ele>
        <time>2021-03-03T09:00:24Z</time>
      </trkpt>
      <trkpt lat="41.50446578" lon="2.04876254">
        <ele>228.0</ele>
        <time>2021-03-03T09:00:25Z</time>
      </trkpt>
      <trkpt lat="41.50445578" lon="2.0488222">
        <ele>228.0</ele>
        <time>2021-03-03T09:00:26Z</time>
      </trkpt>
      <trkpt lat="41.50445044" lon="2.04888053">
        <ele>228.0</ele>
        <time>2021-03-03T09:00:27Z</time>
      </trkpt>
      <trkpt lat="41.50445077" lon="2.04893585">
        <ele>228.0</ele>
        <time>2021-03-03T09:00:29Z</time>
      </trkpt>
      <trkpt lat="41.50445543" lon="2.04898952">
        <ele>228.0</ele>
        <time>2021-03-03T09:00:29Z</time>
      </trkpt>
      <trkpt lat="41.50446442" lon="2.04904217">
        <ele>228.0</ele>
        <time>2021-03-03T09:00:30Z</time>
      </trkpt>
      <trkpt lat="41.50447608" lon="2.04908984">
        <ele>228.0</ele>
        <time>2021-03-03T09:00:31Z</time>
      </trkpt>
      <trkpt lat="41.50449108" lon="2.04913683">
        <ele>228.0</ele>
        <time>2021-03-03T09:00:32Z</time>
      </trkpt>
      <trkpt lat="41.50451041" lon="2.04918583">
        <ele>228.0</ele>
        <time>2021-03-03T09:00:33Z</time>
      </trkpt>
      <trkpt lat="41.5045304" lon="2.04923315">
        <ele>228.0</ele>
        <time>2021-03-03T09:00:34Z</time>
      </trkpt>
      <trkpt lat="41.50455139" lon="2.04927949">
        <ele>228.0</ele>
        <time>2021-03-03T09:00:35Z</time>
      </trkpt>
      <trkpt lat="41.50457239" lon="2.04932448">
        <ele>228.0</ele>
        <time>2021-03-03T09:00:36Z</time>
      </trkpt>
      <trkpt lat="41.50459173" lon="2.04937048">
        <ele>229.0</ele>
        <time>2021-03-03T09:00:37Z</time>
      </trkpt>
      <trkpt lat="41.50460972" lon="2.04941548">
        <ele>229.0</ele>
        <time>2021-03-03T09:00:38Z</time>
      </trkpt>
      <trkpt lat="41.50462771" lon="2.04946013">
        <ele>229.0</ele>
        <time>2021-03-03T09:00:39Z</time>
      </trkpt>
      <trkpt lat="41.50464604" lon="2.04950346">
        <ele>229.0</ele>
        <time>2021-03-03T09:00:40Z</time>
      </trkpt>
      <trkpt lat="41.50466303" lon="2.04954779">
        <ele>229.0</ele>
        <time>2021-03-03T09:00:41Z</time>
      </trkpt>
      <trkpt lat="41.50467835" lon="2.04959245">
        <ele>229.0</ele>
        <time>2021-03-03T09:00:42Z</time>
      </trkpt>
      <trkpt lat="41.50469435" lon="2.0496371">
        <ele>229.0</ele>
        <time>2021-03-03T09:00:43Z</time>
      </trkpt>
      <trkpt lat="41.50471201" lon="2.04968109">
        <ele>230.0</ele>
        <time>2021-03-03T09:00:44Z</time>
      </trkpt>
      <trkpt lat="41.50473101" lon="2.04972409">
        <ele>230.0</ele>
        <time>2021-03-03T09:00:45Z</time>
      </trkpt>
      <trkpt lat="41.50475133" lon="2.04976575">
        <ele>230.0</ele>
        <time>2021-03-03T09:00:46Z</time>
      </trkpt>
      <trkpt lat="41.504772" lon="2.04980974">
        <ele>230.0</ele>
        <time>2021-03-03T09:00:47Z</time>
      </trkpt>
      <trkpt lat="41.50479199" lon="2.04985707">
        <ele>230.0</ele>
        <time>2021-03-03T09:00:48Z</time>
      </trkpt>
      <trkpt lat="41.50480898" lon="2.04991041">
        <ele>230.0</ele>
        <time>2021-03-03T09:00:49Z</time>
      </trkpt>
      <trkpt lat="41.50482231" lon="2.04996541">
        <ele>230.0</ele>
        <time>2021-03-03T09:00:50Z</time>
      </trkpt>
      <trkpt lat="41.50483297" lon="2.05002406">
        <ele>230.0</ele>
        <time>2021-03-03T09:00:51Z</time>
      </trkpt>
      <trkpt lat="41.50484297" lon="2.05008673">
        <ele>230.0</ele>
        <time>2021-03-03T09:00:52Z</time>
      </trkpt>
      <trkpt lat="41.50485596" lon="2.05015205">
        <ele>230.0</ele>
        <time>2021-03-03T09:00:53Z</time>
      </trkpt>
      <trkpt lat="41.50486996" lon="2.05022239">
        <ele>230.0</ele>
        <time>2021-03-03T09:00:54Z</time>
      </trkpt>
      <trkpt lat="41.50488129" lon="2.05029738">
        <ele>230.0</ele>
        <time>2021-03-03T09:00:55Z</time>
      </trkpt>
      <trkpt lat="41.50489228" lon="2.05037571">
        <ele>230.0</ele>
        <time>2021-03-03T09:00:56Z</time>
      </trkpt>
      <trkpt lat="41.50490295" lon="2.05045571">
        <ele>230.0</ele>
        <time>2021-03-03T09:00:57Z</time>
      </trkpt>
      <trkpt lat="41.50491328" lon="2.05053571">
        <ele>230.0</ele>
        <time>2021-03-03T09:00:58Z</time>
      </trkpt>
      <trkpt lat="41.50492594" lon="2.05061437">
        <ele>229.0</ele>
        <time>2021-03-03T09:00:59Z</time>
      </trkpt>
      <trkpt lat="41.5049376" lon="2.05069203">
        <ele>229.0</ele>
        <time>2021-03-03T09:01:00Z</time>
      </trkpt>
      <trkpt lat="41.5049496" lon="2.0507677">
        <ele>229.0</ele>
        <time>2021-03-03T09:01:01Z</time>
      </trkpt>
      <trkpt lat="41.5049606" lon="2.05084169">
        <ele>229.0</ele>
        <time>2021-03-03T09:01:02Z</time>
      </trkpt>
      <trkpt lat="41.50496859" lon="2.05090969">
        <ele>229.0</ele>
        <time>2021-03-03T09:01:03Z</time>
      </trkpt>
      <trkpt lat="41.50497559" lon="2.05097101">
        <ele>229.0</ele>
        <time>2021-03-03T09:01:04Z</time>
      </trkpt>
      <trkpt lat="41.50498359" lon="2.05102567">
        <ele>229.0</ele>
        <time>2021-03-03T09:01:05Z</time>
      </trkpt>
      <trkpt lat="41.50499058" lon="2.05107267">
        <ele>229.0</ele>
        <time>2021-03-03T09:01:06Z</time>
      </trkpt>
      <trkpt lat="41.50499791" lon="2.05111767">
        <ele>229.0</ele>
        <time>2021-03-03T09:01:07Z</time>
      </trkpt>
      <trkpt lat="41.5050049" lon="2.05115866">
        <ele>230.0</ele>
        <time>2021-03-03T09:01:08Z</time>
      </trkpt>
      <trkpt lat="41.50501157" lon="2.05119832">
        <ele>230.0</ele>
        <time>2021-03-03T09:01:09Z</time>
      </trkpt>
      <trkpt lat="41.5050169" lon="2.05123365">
        <ele>231.0</ele>
        <time>2021-03-03T09:01:10Z</time>
      </trkpt>
      <trkpt lat="41.50502223" lon="2.05126565">
        <ele>231.0</ele>
        <time>2021-03-03T09:01:12Z</time>
      </trkpt>
      <trkpt lat="41.5050279" lon="2.05129431">
        <ele>231.0</ele>
        <time>2021-03-03T09:01:13Z</time>
      </trkpt>
      <trkpt lat="41.50503456" lon="2.05132064">
        <ele>231.0</ele>
        <time>2021-03-03T09:01:13Z</time>
      </trkpt>
      <trkpt lat="41.50504121" lon="2.05134463">
        <ele>232.0</ele>
        <time>2021-03-03T09:01:14Z</time>
      </trkpt>
      <trkpt lat="41.5050472" lon="2.05137029">
        <ele>232.0</ele>
        <time>2021-03-03T09:01:16Z</time>
      </trkpt>
      <trkpt lat="41.50505254" lon="2.05139562">
        <ele>233.0</ele>
        <time>2021-03-03T09:01:17Z</time>
      </trkpt>
      <trkpt lat="41.5050592" lon="2.05141929">
        <ele>233.0</ele>
        <time>2021-03-03T09:01:17Z</time>
      </trkpt>
      <trkpt lat="41.50506519" lon="2.05144295">
        <ele>234.0</ele>
        <time>2021-03-03T09:01:18Z</time>
      </trkpt>
      <trkpt lat="41.50507118" lon="2.05146861">
        <ele>234.0</ele>
        <time>2021-03-03T09:01:19Z</time>
      </trkpt>
      <trkpt lat="41.50507217" lon="2.05150228">
        <ele>234.0</ele>
        <time>2021-03-03T09:01:20Z</time>
      </trkpt>
      <trkpt lat="41.50507484" lon="2.0515356">
        <ele>234.0</ele>
        <time>2021-03-03T09:01:21Z</time>
      </trkpt>
      <trkpt lat="41.50507783" lon="2.0515686">
        <ele>235.0</ele>
        <time>2021-03-03T09:01:22Z</time>
      </trkpt>
      <trkpt lat="41.50508082" lon="2.05160059">
        <ele>235.0</ele>
        <time>2021-03-03T09:01:23Z</time>
      </trkpt>
      <trkpt lat="41.50508415" lon="2.05163392">
        <ele>236.0</ele>
        <time>2021-03-03T09:01:24Z</time>
      </trkpt>
      <trkpt lat="41.50508648" lon="2.05166858">
        <ele>236.0</ele>
        <time>2021-03-03T09:01:25Z</time>
      </trkpt>
      <trkpt lat="41.50508714" lon="2.05170058">
        <ele>237.0</ele>
        <time>2021-03-03T09:01:26Z</time>
      </trkpt>
      <trkpt lat="41.50508581" lon="2.05173358">
        <ele>237.0</ele>
        <time>2021-03-03T09:01:27Z</time>
      </trkpt>
      <trkpt lat="41.50508314" lon="2.05176558">
        <ele>237.0</ele>
        <time>2021-03-03T09:01:28Z</time>
      </trkpt>
      <trkpt lat="41.50508081" lon="2.05179524">
        <ele>238.0</ele>
        <time>2021-03-03T09:01:29Z</time>
      </trkpt>
      <trkpt lat="41.50507949" lon="2.05182456">
        <ele>238.0</ele>
        <time>2021-03-03T09:01:30Z</time>
      </trkpt>
      <trkpt lat="41.50508115" lon="2.05185056">
        <ele>239.0</ele>
        <time>2021-03-03T09:01:31Z</time>
      </trkpt>
      <trkpt lat="41.50508514" lon="2.05187222">
        <ele>239.0</ele>
        <time>2021-03-03T09:01:32Z</time>
      </trkpt>
      <trkpt lat="41.5050888" lon="2.05189588">
        <ele>239.0</ele>
        <time>2021-03-03T09:01:33Z</time>
      </trkpt>
      <trkpt lat="41.5050908" lon="2.05192554">
        <ele>240.0</ele>
        <time>2021-03-03T09:01:34Z</time>
      </trkpt>
      <trkpt lat="41.5050888" lon="2.05195621">
        <ele>240.0</ele>
        <time>2021-03-03T09:01:35Z</time>
      </trkpt>
      <trkpt lat="41.50508681" lon="2.05198353">
        <ele>241.0</ele>
        <time>2021-03-03T09:01:36Z</time>
      </trkpt>
      <trkpt lat="41.50508614" lon="2.05200685">
        <ele>241.0</ele>
        <time>2021-03-03T09:01:38Z</time>
      </trkpt>
      <trkpt lat="41.50508549" lon="2.05202685">
        <ele>241.0</ele>
        <time>2021-03-03T09:01:38Z</time>
      </trkpt>
      <trkpt lat="41.50508483" lon="2.05204551">
        <ele>241.0</ele>
        <time>2021-03-03T09:01:39Z</time>
      </trkpt>
      <trkpt lat="41.50508417" lon="2.05206418">
        <ele>242.0</ele>
        <time>2021-03-03T09:01:40Z</time>
      </trkpt>
      <trkpt lat="41.5050845" lon="2.05208184">
        <ele>242.0</ele>
        <time>2021-03-03T09:01:41Z</time>
      </trkpt>
      <trkpt lat="41.50508549" lon="2.05210283">
        <ele>243.0</ele>
        <time>2021-03-03T09:01:42Z</time>
      </trkpt>
      <trkpt lat="41.50508782" lon="2.05212149">
        <ele>243.0</ele>
        <time>2021-03-03T09:01:43Z</time>
      </trkpt>
      <trkpt lat="41.50509015" lon="2.05214316">
        <ele>243.0</ele>
        <time>2021-03-03T09:01:44Z</time>
      </trkpt>
      <trkpt lat="41.50509114" lon="2.05216716">
        <ele>243.0</ele>
        <time>2021-03-03T09:01:45Z</time>
      </trkpt>
      <trkpt lat="41.50509213" lon="2.05219081">
        <ele>244.0</ele>
        <time>2021-03-03T09:01:46Z</time>
      </trkpt>
      <trkpt lat="41.50509347" lon="2.05221481">
        <ele>244.0</ele>
        <time>2021-03-03T09:01:47Z</time>
      </trkpt>
      <trkpt lat="41.50509513" lon="2.05223914">
        <ele>245.0</ele>
        <time>2021-03-03T09:01:48Z</time>
      </trkpt>
      <trkpt lat="41.50509879" lon="2.05226347">
        <ele>245.0</ele>
        <time>2021-03-03T09:01:49Z</time>
      </trkpt>
      <trkpt lat="41.50510178" lon="2.0522848">
        <ele>245.0</ele>
        <time>2021-03-03T09:01:50Z</time>
      </trkpt>
      <trkpt lat="41.50510277" lon="2.05230646">
        <ele>245.0</ele>
        <time>2021-03-03T09:01:51Z</time>
      </trkpt>
      <trkpt lat="41.50510277" lon="2.05232946">
        <ele>246.0</ele>
        <time>2021-03-03T09:01:52Z</time>
      </trkpt>
      <trkpt lat="41.50510343" lon="2.05235379">
        <ele>246.0</ele>
        <time>2021-03-03T09:01:53Z</time>
      </trkpt>
      <trkpt lat="41.50510277" lon="2.05237979">
        <ele>246.0</ele>
        <time>2021-03-03T09:01:54Z</time>
      </trkpt>
      <trkpt lat="41.50510277" lon="2.05240678">
        <ele>246.0</ele>
        <time>2021-03-03T09:01:55Z</time>
      </trkpt>
      <trkpt lat="41.50510178" lon="2.05243445">
        <ele>247.0</ele>
        <time>2021-03-03T09:01:56Z</time>
      </trkpt>
      <trkpt lat="41.50510112" lon="2.05245844">
        <ele>247.0</ele>
        <time>2021-03-03T09:01:57Z</time>
      </trkpt>
      <trkpt lat="41.50510278" lon="2.05248011">
        <ele>247.0</ele>
        <time>2021-03-03T09:01:58Z</time>
      </trkpt>
      <trkpt lat="41.50510545" lon="2.05250011">
        <ele>247.0</ele>
        <time>2021-03-03T09:01:59Z</time>
      </trkpt>
      <trkpt lat="41.50510844" lon="2.05251844">
        <ele>248.0</ele>
        <time>2021-03-03T09:02:00Z</time>
      </trkpt>
      <trkpt lat="41.5051101" lon="2.05253843">
        <ele>248.0</ele>
        <time>2021-03-03T09:02:01Z</time>
      </trkpt>
      <trkpt lat="41.50511143" lon="2.05255943">
        <ele>248.0</ele>
        <time>2021-03-03T09:02:02Z</time>
      </trkpt>
      <trkpt lat="41.50511309" lon="2.05258076">
        <ele>248.0</ele>
        <time>2021-03-03T09:02:03Z</time>
      </trkpt>
      <trkpt lat="41.50511509" lon="2.05260375">
        <ele>248.0</ele>
        <time>2021-03-03T09:02:04Z</time>
      </trkpt>
      <trkpt lat="41.50511776" lon="2.05262842">
        <ele>248.0</ele>
        <time>2021-03-03T09:02:05Z</time>
      </trkpt>
      <trkpt lat="41.50512208" lon="2.05264741">
        <ele>249.0</ele>
        <time>2021-03-03T09:02:07Z</time>
      </trkpt>
      <trkpt lat="41.50512675" lon="2.05266808">
        <ele>249.0</ele>
        <time>2021-03-03T09:02:08Z</time>
      </trkpt>
      <trkpt lat="41.50513107" lon="2.0526904">
        <ele>249.0</ele>
        <time>2021-03-03T09:02:08Z</time>
      </trkpt>
      <trkpt lat="41.5051344" lon="2.05271239">
        <ele>250.0</ele>
        <time>2021-03-03T09:02:09Z</time>
      </trkpt>
      <trkpt lat="41.5051354" lon="2.05273472">
        <ele>250.0</ele>
        <time>2021-03-03T09:02:10Z</time>
      </trkpt>
      <trkpt lat="41.50513406" lon="2.05275805">
        <ele>250.0</ele>
        <time>2021-03-03T09:02:11Z</time>
      </trkpt>
      <trkpt lat="41.50513307" lon="2.05278138">
        <ele>250.0</ele>
        <time>2021-03-03T09:02:12Z</time>
      </trkpt>
      <trkpt lat="41.50513242" lon="2.05280304">
        <ele>251.0</ele>
        <time>2021-03-03T09:02:13Z</time>
      </trkpt>
      <trkpt lat="41.50513307" lon="2.05282437">
        <ele>251.0</ele>
        <time>2021-03-03T09:02:14Z</time>
      </trkpt>
      <trkpt lat="41.50513541" lon="2.0528457">
        <ele>251.0</ele>
        <time>2021-03-03T09:02:15Z</time>
      </trkpt>
      <trkpt lat="41.50513606" lon="2.05286469">
        <ele>251.0</ele>
        <time>2021-03-03T09:02:16Z</time>
      </trkpt>
      <trkpt lat="41.50513672" lon="2.05288469">
        <ele>252.0</ele>
        <time>2021-03-03T09:02:17Z</time>
      </trkpt>
      <trkpt lat="41.50513772" lon="2.05290469">
        <ele>252.0</ele>
        <time>2021-03-03T09:02:18Z</time>
      </trkpt>
      <trkpt lat="41.50514104" lon="2.05292435">
        <ele>252.0</ele>
        <time>2021-03-03T09:02:19Z</time>
      </trkpt>
      <trkpt lat="41.50514503" lon="2.05294167">
        <ele>252.0</ele>
        <time>2021-03-03T09:02:20Z</time>
      </trkpt>
      <trkpt lat="41.5051497" lon="2.052959">
        <ele>253.0</ele>
        <time>2021-03-03T09:02:21Z</time>
      </trkpt>
      <trkpt lat="41.5051547" lon="2.052975">
        <ele>253.0</ele>
        <time>2021-03-03T09:02:22Z</time>
      </trkpt>
      <trkpt lat="41.50515737" lon="2.05299366">
        <ele>253.0</ele>
        <time>2021-03-03T09:02:23Z</time>
      </trkpt>
      <trkpt lat="41.50515869" lon="2.05301532">
        <ele>253.0</ele>
        <time>2021-03-03T09:02:24Z</time>
      </trkpt>
      <trkpt lat="41.50515935" lon="2.05303932">
        <ele>253.0</ele>
        <time>2021-03-03T09:02:25Z</time>
      </trkpt>
      <trkpt lat="41.50516101" lon="2.05306464">
        <ele>254.0</ele>
        <time>2021-03-03T09:02:26Z</time>
      </trkpt>
      <trkpt lat="41.50516335" lon="2.05308897">
        <ele>254.0</ele>
        <time>2021-03-03T09:02:27Z</time>
      </trkpt>
      <trkpt lat="41.505166" lon="2.05311297">
        <ele>255.0</ele>
        <time>2021-03-03T09:02:28Z</time>
      </trkpt>
      <trkpt lat="41.50516699" lon="2.05313897">
        <ele>255.0</ele>
        <time>2021-03-03T09:02:29Z</time>
      </trkpt>
      <trkpt lat="41.50516667" lon="2.05316962">
        <ele>255.0</ele>
        <time>2021-03-03T09:02:30Z</time>
      </trkpt>
      <trkpt lat="41.50516834" lon="2.05319995">
        <ele>255.0</ele>
        <time>2021-03-03T09:02:31Z</time>
      </trkpt>
      <trkpt lat="41.50517199" lon="2.05322861">
        <ele>256.0</ele>
        <time>2021-03-03T09:02:31Z</time>
      </trkpt>
      <trkpt lat="41.50517832" lon="2.0532546">
        <ele>256.0</ele>
        <time>2021-03-03T09:02:32Z</time>
      </trkpt>
      <trkpt lat="41.50518565" lon="2.05327893">
        <ele>256.0</ele>
        <time>2021-03-03T09:02:33Z</time>
      </trkpt>
      <trkpt lat="41.50519297" lon="2.05330026">
        <ele>256.0</ele>
        <time>2021-03-03T09:02:34Z</time>
      </trkpt>
      <trkpt lat="41.50520064" lon="2.05332193">
        <ele>257.0</ele>
        <time>2021-03-03T09:02:35Z</time>
      </trkpt>
      <trkpt lat="41.50520831" lon="2.05334292">
        <ele>257.0</ele>
        <time>2021-03-03T09:02:36Z</time>
      </trkpt>
      <trkpt lat="41.50521597" lon="2.05336458">
        <ele>257.0</ele>
        <time>2021-03-03T09:02:37Z</time>
      </trkpt>
      <trkpt lat="41.50522296" lon="2.05338724">
        <ele>257.0</ele>
        <time>2021-03-03T09:02:38Z</time>
      </trkpt>
      <trkpt lat="41.50522996" lon="2.05341091">
        <ele>258.0</ele>
        <time>2021-03-03T09:02:39Z</time>
      </trkpt>
      <trkpt lat="41.50523695" lon="2.05343691">
        <ele>258.0</ele>
        <time>2021-03-03T09:02:40Z</time>
      </trkpt>
      <trkpt lat="41.50524394" lon="2.05346657">
        <ele>258.0</ele>
        <time>2021-03-03T09:02:41Z</time>
      </trkpt>
      <trkpt lat="41.50525094" lon="2.05349857">
        <ele>258.0</ele>
        <time>2021-03-03T09:02:42Z</time>
      </trkpt>
      <trkpt lat="41.50525861" lon="2.05353156">
        <ele>258.0</ele>
        <time>2021-03-03T09:02:43Z</time>
      </trkpt>
      <trkpt lat="41.50526493" lon="2.0535679">
        <ele>258.0</ele>
        <time>2021-03-03T09:02:44Z</time>
      </trkpt>
      <trkpt lat="41.50527092" lon="2.05360589">
        <ele>258.0</ele>
        <time>2021-03-03T09:02:45Z</time>
      </trkpt>
      <trkpt lat="41.50527626" lon="2.05364588">
        <ele>259.0</ele>
        <time>2021-03-03T09:02:46Z</time>
      </trkpt>
      <trkpt lat="41.50528225" lon="2.05368687">
        <ele>259.0</ele>
        <time>2021-03-03T09:02:47Z</time>
      </trkpt>
      <trkpt lat="41.50528624" lon="2.05373187">
        <ele>259.0</ele>
        <time>2021-03-03T09:02:48Z</time>
      </trkpt>
      <trkpt lat="41.50529124" lon="2.05377786">
        <ele>259.0</ele>
        <time>2021-03-03T09:02:49Z</time>
      </trkpt>
      <trkpt lat="41.5052959" lon="2.05382586">
        <ele>259.0</ele>
        <time>2021-03-03T09:02:50Z</time>
      </trkpt>
      <trkpt lat="41.50529923" lon="2.05387152">
        <ele>259.0</ele>
        <time>2021-03-03T09:02:51Z</time>
      </trkpt>
      <trkpt lat="41.50530156" lon="2.05391785">
        <ele>259.0</ele>
        <time>2021-03-03T09:02:53Z</time>
      </trkpt>
      <trkpt lat="41.50530356" lon="2.05396585">
        <ele>259.0</ele>
        <time>2021-03-03T09:02:53Z</time>
      </trkpt>
      <trkpt lat="41.50530289" lon="2.05401151">
        <ele>259.0</ele>
        <time>2021-03-03T09:02:54Z</time>
      </trkpt>
      <trkpt lat="41.50529957" lon="2.05405784">
        <ele>259.0</ele>
        <time>2021-03-03T09:02:55Z</time>
      </trkpt>
      <trkpt lat="41.50529558" lon="2.05410416">
        <ele>259.0</ele>
        <time>2021-03-03T09:02:56Z</time>
      </trkpt>
      <trkpt lat="41.50529192" lon="2.05414883">
        <ele>259.0</ele>
        <time>2021-03-03T09:02:57Z</time>
      </trkpt>
      <trkpt lat="41.50528526" lon="2.05419415">
        <ele>259.0</ele>
        <time>2021-03-03T09:02:58Z</time>
      </trkpt>
      <trkpt lat="41.50527627" lon="2.05423947">
        <ele>259.0</ele>
        <time>2021-03-03T09:02:59Z</time>
      </trkpt>
      <trkpt lat="41.50526627" lon="2.05428481">
        <ele>260.0</ele>
        <time>2021-03-03T09:03:00Z</time>
      </trkpt>
      <trkpt lat="41.50525961" lon="2.05433246">
        <ele>260.0</ele>
        <time>2021-03-03T09:03:01Z</time>
      </trkpt>
      <trkpt lat="41.50525528" lon="2.05438112">
        <ele>260.0</ele>
        <time>2021-03-03T09:03:02Z</time>
      </trkpt>
      <trkpt lat="41.50525162" lon="2.05443079">
        <ele>260.0</ele>
        <time>2021-03-03T09:03:03Z</time>
      </trkpt>
      <trkpt lat="41.50524929" lon="2.05447978">
        <ele>260.0</ele>
        <time>2021-03-03T09:03:04Z</time>
      </trkpt>
      <trkpt lat="41.5052473" lon="2.05452644">
        <ele>260.0</ele>
        <time>2021-03-03T09:03:05Z</time>
      </trkpt>
      <trkpt lat="41.5052463" lon="2.05456711">
        <ele>260.0</ele>
        <time>2021-03-03T09:03:06Z</time>
      </trkpt>
      <trkpt lat="41.50524531" lon="2.05460978">
        <ele>260.0</ele>
        <time>2021-03-03T09:03:07Z</time>
      </trkpt>
      <trkpt lat="41.50524997" lon="2.0546521">
        <ele>261.0</ele>
        <time>2021-03-03T09:03:08Z</time>
      </trkpt>
      <trkpt lat="41.50525564" lon="2.05469442">
        <ele>261.0</ele>
        <time>2021-03-03T09:03:09Z</time>
      </trkpt>
      <trkpt lat="41.5052593" lon="2.05474176">
        <ele>261.0</ele>
        <time>2021-03-03T09:03:10Z</time>
      </trkpt>
      <trkpt lat="41.50526195" lon="2.05478941">
        <ele>261.0</ele>
        <time>2021-03-03T09:03:11Z</time>
      </trkpt>
      <trkpt lat="41.50526261" lon="2.05483841">
        <ele>261.0</ele>
        <time>2021-03-03T09:03:12Z</time>
      </trkpt>
      <trkpt lat="41.50526394" lon="2.0548824">
        <ele>262.0</ele>
        <time>2021-03-03T09:03:13Z</time>
      </trkpt>
      <trkpt lat="41.50526727" lon="2.0549174">
        <ele>262.0</ele>
        <time>2021-03-03T09:03:14Z</time>
      </trkpt>
      <trkpt lat="41.50527527" lon="2.0549474">
        <ele>262.0</ele>
        <time>2021-03-03T09:03:15Z</time>
      </trkpt>
      <trkpt lat="41.50528426" lon="2.05497673">
        <ele>262.0</ele>
        <time>2021-03-03T09:03:16Z</time>
      </trkpt>
      <trkpt lat="41.50529458" lon="2.05500305">
        <ele>262.0</ele>
        <time>2021-03-03T09:03:17Z</time>
      </trkpt>
      <trkpt lat="41.50530591" lon="2.05502972">
        <ele>263.0</ele>
        <time>2021-03-03T09:03:18Z</time>
      </trkpt>
      <trkpt lat="41.50531857" lon="2.05505905">
        <ele>263.0</ele>
        <time>2021-03-03T09:03:19Z</time>
      </trkpt>
      <trkpt lat="41.50533089" lon="2.05508904">
        <ele>263.0</ele>
        <time>2021-03-03T09:03:20Z</time>
      </trkpt>
      <trkpt lat="41.50534289" lon="2.05511904">
        <ele>263.0</ele>
        <time>2021-03-03T09:03:21Z</time>
      </trkpt>
      <trkpt lat="41.50535423" lon="2.05514971">
        <ele>263.0</ele>
        <time>2021-03-03T09:03:22Z</time>
      </trkpt>
      <trkpt lat="41.50536789" lon="2.05518036">
        <ele>263.0</ele>
        <time>2021-03-03T09:03:23Z</time>
      </trkpt>
      <trkpt lat="41.50537888" lon="2.05521435">
        <ele>264.0</ele>
        <time>2021-03-03T09:03:24Z</time>
      </trkpt>
      <trkpt lat="41.50539122" lon="2.05524435">
        <ele>264.0</ele>
        <time>2021-03-03T09:03:25Z</time>
      </trkpt>
      <trkpt lat="41.50540687" lon="2.05527269">
        <ele>264.0</ele>
        <time>2021-03-03T09:03:26Z</time>
      </trkpt>
      <trkpt lat="41.50542187" lon="2.05530134">
        <ele>264.0</ele>
        <time>2021-03-03T09:03:27Z</time>
      </trkpt>
      <trkpt lat="41.50543653" lon="2.05533268">
        <ele>264.0</ele>
        <time>2021-03-03T09:03:28Z</time>
      </trkpt>
      <trkpt lat="41.50544953" lon="2.05536768">
        <ele>264.0</ele>
        <time>2021-03-03T09:03:29Z</time>
      </trkpt>
      <trkpt lat="41.50546019" lon="2.055403">
        <ele>264.0</ele>
        <time>2021-03-03T09:03:30Z</time>
      </trkpt>
      <trkpt lat="41.50546918" lon="2.05544467">
        <ele>264.0</ele>
        <time>2021-03-03T09:03:31Z</time>
      </trkpt>
      <trkpt lat="41.50547584" lon="2.05548766">
        <ele>264.0</ele>
        <time>2021-03-03T09:03:32Z</time>
      </trkpt>
      <trkpt lat="41.5054825" lon="2.05553165">
        <ele>264.0</ele>
        <time>2021-03-03T09:03:33Z</time>
      </trkpt>
      <trkpt lat="41.50548917" lon="2.05557831">
        <ele>264.0</ele>
        <time>2021-03-03T09:03:34Z</time>
      </trkpt>
      <trkpt lat="41.50549582" lon="2.05562865">
        <ele>264.0</ele>
        <time>2021-03-03T09:03:35Z</time>
      </trkpt>
      <trkpt lat="41.50550515" lon="2.05568297">
        <ele>264.0</ele>
        <time>2021-03-03T09:03:36Z</time>
      </trkpt>
      <trkpt lat="41.50551681" lon="2.05573996">
        <ele>264.0</ele>
        <time>2021-03-03T09:03:37Z</time>
      </trkpt>
      <trkpt lat="41.50552914" lon="2.05580096">
        <ele>264.0</ele>
        <time>2021-03-03T09:03:38Z</time>
      </trkpt>
      <trkpt lat="41.5055428" lon="2.05586529">
        <ele>264.0</ele>
        <time>2021-03-03T09:03:39Z</time>
      </trkpt>
      <trkpt lat="41.50555746" lon="2.05593195">
        <ele>264.0</ele>
        <time>2021-03-03T09:03:40Z</time>
      </trkpt>
      <trkpt lat="41.50557245" lon="2.05599927">
        <ele>263.0</ele>
        <time>2021-03-03T09:03:41Z</time>
      </trkpt>
      <trkpt lat="41.50558711" lon="2.05606861">
        <ele>263.0</ele>
        <time>2021-03-03T09:03:43Z</time>
      </trkpt>
      <trkpt lat="41.50559944" lon="2.05613961">
        <ele>263.0</ele>
        <time>2021-03-03T09:03:43Z</time>
      </trkpt>
      <trkpt lat="41.50560977" lon="2.05621194">
        <ele>263.0</ele>
        <time>2021-03-03T09:03:44Z</time>
      </trkpt>
      <trkpt lat="41.50561843" lon="2.05627827">
        <ele>263.0</ele>
        <time>2021-03-03T09:03:45Z</time>
      </trkpt>
      <trkpt lat="41.50562575" lon="2.05634326">
        <ele>263.0</ele>
        <time>2021-03-03T09:03:46Z</time>
      </trkpt>
      <trkpt lat="41.50563075" lon="2.05640625">
        <ele>263.0</ele>
        <time>2021-03-03T09:03:47Z</time>
      </trkpt>
      <trkpt lat="41.50563174" lon="2.05646792">
        <ele>262.0</ele>
        <time>2021-03-03T09:03:48Z</time>
      </trkpt>
      <trkpt lat="41.50562709" lon="2.05653192">
        <ele>262.0</ele>
        <time>2021-03-03T09:03:49Z</time>
      </trkpt>
      <trkpt lat="41.50561742" lon="2.05659558">
        <ele>262.0</ele>
        <time>2021-03-03T09:03:50Z</time>
      </trkpt>
      <trkpt lat="41.50560176" lon="2.05665658">
        <ele>262.0</ele>
        <time>2021-03-03T09:03:51Z</time>
      </trkpt>
      <trkpt lat="41.5055811" lon="2.05671791">
        <ele>262.0</ele>
        <time>2021-03-03T09:03:52Z</time>
      </trkpt>
      <trkpt lat="41.5055561" lon="2.05678557">
        <ele>262.0</ele>
        <time>2021-03-03T09:03:53Z</time>
      </trkpt>
      <trkpt lat="41.50553076" lon="2.05685422">
        <ele>262.0</ele>
        <time>2021-03-03T09:03:54Z</time>
      </trkpt>
      <trkpt lat="41.50550844" lon="2.05692256">
        <ele>262.0</ele>
        <time>2021-03-03T09:03:55Z</time>
      </trkpt>
      <trkpt lat="41.50549111" lon="2.05699055">
        <ele>262.0</ele>
        <time>2021-03-03T09:03:56Z</time>
      </trkpt>
      <trkpt lat="41.50547912" lon="2.05705821">
        <ele>262.0</ele>
        <time>2021-03-03T09:03:57Z</time>
      </trkpt>
      <trkpt lat="41.50547213" lon="2.05712887">
        <ele>261.0</ele>
        <time>2021-03-03T09:03:58Z</time>
      </trkpt>
      <trkpt lat="41.50547013" lon="2.0572022">
        <ele>261.0</ele>
        <time>2021-03-03T09:03:59Z</time>
      </trkpt>
      <trkpt lat="41.50547045" lon="2.05727687">
        <ele>261.0</ele>
        <time>2021-03-03T09:04:00Z</time>
      </trkpt>
      <trkpt lat="41.50547278" lon="2.05735019">
        <ele>261.0</ele>
        <time>2021-03-03T09:04:01Z</time>
      </trkpt>
      <trkpt lat="41.50547711" lon="2.05742286">
        <ele>261.0</ele>
        <time>2021-03-03T09:04:02Z</time>
      </trkpt>
      <trkpt lat="41.5054831" lon="2.05749485">
        <ele>261.0</ele>
        <time>2021-03-03T09:04:03Z</time>
      </trkpt>
      <trkpt lat="41.50549176" lon="2.05756752">
        <ele>261.0</ele>
        <time>2021-03-03T09:04:04Z</time>
      </trkpt>
      <trkpt lat="41.50550142" lon="2.05764351">
        <ele>261.0</ele>
        <time>2021-03-03T09:04:05Z</time>
      </trkpt>
      <trkpt lat="41.50551209" lon="2.05772016">
        <ele>261.0</ele>
        <time>2021-03-03T09:04:06Z</time>
      </trkpt>
      <trkpt lat="41.50552609" lon="2.05779649">
        <ele>261.0</ele>
        <time>2021-03-03T09:04:07Z</time>
      </trkpt>
      <trkpt lat="41.50554441" lon="2.05787215">
        <ele>261.0</ele>
        <time>2021-03-03T09:04:08Z</time>
      </trkpt>
      <trkpt lat="41.5055674" lon="2.05794814">
        <ele>260.0</ele>
        <time>2021-03-03T09:04:09Z</time>
      </trkpt>
      <trkpt lat="41.50559807" lon="2.05801981">
        <ele>260.0</ele>
        <time>2021-03-03T09:04:10Z</time>
      </trkpt>
      <trkpt lat="41.50563506" lon="2.05808848">
        <ele>260.0</ele>
        <time>2021-03-03T09:04:11Z</time>
      </trkpt>
      <trkpt lat="41.50567472" lon="2.0581518">
        <ele>260.0</ele>
        <time>2021-03-03T09:04:12Z</time>
      </trkpt>
      <trkpt lat="41.50571706" lon="2.05820813">
        <ele>260.0</ele>
        <time>2021-03-03T09:04:13Z</time>
      </trkpt>
      <trkpt lat="41.50576271" lon="2.05825847">
        <ele>259.0</ele>
        <time>2021-03-03T09:04:14Z</time>
      </trkpt>
      <trkpt lat="41.50581238" lon="2.05830846">
        <ele>258.0</ele>
        <time>2021-03-03T09:04:15Z</time>
      </trkpt>
      <trkpt lat="41.50586637" lon="2.05835979">
        <ele>258.0</ele>
        <time>2021-03-03T09:04:16Z</time>
      </trkpt>
      <trkpt lat="41.50592436" lon="2.05841445">
        <ele>257.0</ele>
        <time>2021-03-03T09:04:17Z</time>
      </trkpt>
      <trkpt lat="41.50597903" lon="2.0584811">
        <ele>256.0</ele>
        <time>2021-03-03T09:04:18Z</time>
      </trkpt>
      <trkpt lat="41.50602802" lon="2.05855544">
        <ele>256.0</ele>
        <time>2021-03-03T09:04:19Z</time>
      </trkpt>
      <trkpt lat="41.50606568" lon="2.05863743">
        <ele>255.0</ele>
        <time>2021-03-03T09:04:20Z</time>
      </trkpt>
      <trkpt lat="41.50609034" lon="2.05873008">
        <ele>254.0</ele>
        <time>2021-03-03T09:04:21Z</time>
      </trkpt>
      <trkpt lat="41.50610567" lon="2.05883241">
        <ele>254.0</ele>
        <time>2021-03-03T09:04:22Z</time>
      </trkpt>
      <trkpt lat="41.50611333" lon="2.05894106">
        <ele>253.0</ele>
        <time>2021-03-03T09:04:23Z</time>
      </trkpt>
      <trkpt lat="41.506116" lon="2.05905273">
        <ele>253.0</ele>
        <time>2021-03-03T09:04:24Z</time>
      </trkpt>
      <trkpt lat="41.50611301" lon="2.05916739">
        <ele>252.0</ele>
        <time>2021-03-03T09:04:25Z</time>
      </trkpt>
      <trkpt lat="41.50610467" lon="2.05928338">
        <ele>251.0</ele>
        <time>2021-03-03T09:04:26Z</time>
      </trkpt>
      <trkpt lat="41.50609402" lon="2.05940038">
        <ele>251.0</ele>
        <time>2021-03-03T09:04:27Z</time>
      </trkpt>
      <trkpt lat="41.50608035" lon="2.05951803">
        <ele>250.0</ele>
        <time>2021-03-03T09:04:28Z</time>
      </trkpt>
      <trkpt lat="41.50606535" lon="2.05963569">
        <ele>249.0</ele>
        <time>2021-03-03T09:04:29Z</time>
      </trkpt>
      <trkpt lat="41.50604969" lon="2.05975236">
        <ele>249.0</ele>
        <time>2021-03-03T09:04:30Z</time>
      </trkpt>
      <trkpt lat="41.50603436" lon="2.05986701">
        <ele>249.0</ele>
        <time>2021-03-03T09:04:31Z</time>
      </trkpt>
      <trkpt lat="41.50601837" lon="2.059978">
        <ele>248.0</ele>
        <time>2021-03-03T09:04:32Z</time>
      </trkpt>
      <trkpt lat="41.50600004" lon="2.06008733">
        <ele>248.0</ele>
        <time>2021-03-03T09:04:33Z</time>
      </trkpt>
      <trkpt lat="41.5059807" lon="2.06019366">
        <ele>248.0</ele>
        <time>2021-03-03T09:04:34Z</time>
      </trkpt>
      <trkpt lat="41.50596105" lon="2.06029632">
        <ele>248.0</ele>
        <time>2021-03-03T09:04:35Z</time>
      </trkpt>
      <trkpt lat="41.50594072" lon="2.06039531">
        <ele>248.0</ele>
        <time>2021-03-03T09:04:36Z</time>
      </trkpt>
      <trkpt lat="41.50592073" lon="2.06048564">
        <ele>248.0</ele>
        <time>2021-03-03T09:04:37Z</time>
      </trkpt>
      <trkpt lat="41.50590041" lon="2.06057763">
        <ele>248.0</ele>
        <time>2021-03-03T09:04:38Z</time>
      </trkpt>
      <trkpt lat="41.50588408" lon="2.06066262">
        <ele>248.0</ele>
        <time>2021-03-03T09:04:39Z</time>
      </trkpt>
      <trkpt lat="41.50587442" lon="2.06074694">
        <ele>248.0</ele>
        <time>2021-03-03T09:04:40Z</time>
      </trkpt>
      <trkpt lat="41.50587209" lon="2.06082527">
        <ele>248.0</ele>
        <time>2021-03-03T09:04:41Z</time>
      </trkpt>
      <trkpt lat="41.50587608" lon="2.0608956">
        <ele>249.0</ele>
        <time>2021-03-03T09:04:42Z</time>
      </trkpt>
      <trkpt lat="41.50588308" lon="2.06096326">
        <ele>249.0</ele>
        <time>2021-03-03T09:04:43Z</time>
      </trkpt>
      <trkpt lat="41.50588773" lon="2.06103225">
        <ele>250.0</ele>
        <time>2021-03-03T09:04:44Z</time>
      </trkpt>
      <trkpt lat="41.5058944" lon="2.06109757">
        <ele>250.0</ele>
        <time>2021-03-03T09:04:45Z</time>
      </trkpt>
      <trkpt lat="41.50589806" lon="2.06115589">
        <ele>250.0</ele>
        <time>2021-03-03T09:04:46Z</time>
      </trkpt>
      <trkpt lat="41.50589972" lon="2.06121522">
        <ele>251.0</ele>
        <time>2021-03-03T09:04:47Z</time>
      </trkpt>
      <trkpt lat="41.50589772" lon="2.06126822">
        <ele>251.0</ele>
        <time>2021-03-03T09:04:48Z</time>
      </trkpt>
      <trkpt lat="41.50589006" lon="2.06131854">
        <ele>252.0</ele>
        <time>2021-03-03T09:04:49Z</time>
      </trkpt>
      <trkpt lat="41.50587773" lon="2.06136821">
        <ele>252.0</ele>
        <time>2021-03-03T09:04:50Z</time>
      </trkpt>
      <trkpt lat="41.50586074" lon="2.06142021">
        <ele>253.0</ele>
        <time>2021-03-03T09:04:51Z</time>
      </trkpt>
      <trkpt lat="41.50584375" lon="2.06147054">
        <ele>253.0</ele>
        <time>2021-03-03T09:04:52Z</time>
      </trkpt>
      <trkpt lat="41.50582542" lon="2.06152386">
        <ele>253.0</ele>
        <time>2021-03-03T09:04:53Z</time>
      </trkpt>
      <trkpt lat="41.50580443" lon="2.06157785">
        <ele>253.0</ele>
        <time>2021-03-03T09:04:54Z</time>
      </trkpt>
      <trkpt lat="41.50578076" lon="2.06163385">
        <ele>253.0</ele>
        <time>2021-03-03T09:04:55Z</time>
      </trkpt>
      <trkpt lat="41.50575777" lon="2.06169051">
        <ele>253.0</ele>
        <time>2021-03-03T09:04:56Z</time>
      </trkpt>
      <trkpt lat="41.50573277" lon="2.06174818">
        <ele>253.0</ele>
        <time>2021-03-03T09:04:57Z</time>
      </trkpt>
      <trkpt lat="41.50570145" lon="2.06181483">
        <ele>253.0</ele>
        <time>2021-03-03T09:04:59Z</time>
      </trkpt>
      <trkpt lat="41.50567013" lon="2.06188216">
        <ele>253.0</ele>
        <time>2021-03-03T09:04:59Z</time>
      </trkpt>
      <trkpt lat="41.5056388" lon="2.06194916">
        <ele>253.0</ele>
        <time>2021-03-03T09:05:00Z</time>
      </trkpt>
      <trkpt lat="41.50560847" lon="2.06201516">
        <ele>253.0</ele>
        <time>2021-03-03T09:05:01Z</time>
      </trkpt>
      <trkpt lat="41.50557748" lon="2.06208015">
        <ele>253.0</ele>
        <time>2021-03-03T09:05:02Z</time>
      </trkpt>
      <trkpt lat="41.50554748" lon="2.06214447">
        <ele>253.0</ele>
        <time>2021-03-03T09:05:03Z</time>
      </trkpt>
      <trkpt lat="41.50552016" lon="2.06220814">
        <ele>253.0</ele>
        <time>2021-03-03T09:05:04Z</time>
      </trkpt>
      <trkpt lat="41.50549582" lon="2.06227113">
        <ele>254.0</ele>
        <time>2021-03-03T09:05:05Z</time>
      </trkpt>
      <trkpt lat="41.50547583" lon="2.06232979">
        <ele>254.0</ele>
        <time>2021-03-03T09:05:06Z</time>
      </trkpt>
      <trkpt lat="41.50545818" lon="2.06238546">
        <ele>254.0</ele>
        <time>2021-03-03T09:05:07Z</time>
      </trkpt>
      <trkpt lat="41.50544218" lon="2.06244012">
        <ele>254.0</ele>
        <time>2021-03-03T09:05:08Z</time>
      </trkpt>
      <trkpt lat="41.50542884" lon="2.06249178">
        <ele>255.0</ele>
        <time>2021-03-03T09:05:09Z</time>
      </trkpt>
      <trkpt lat="41.50541585" lon="2.06254278">
        <ele>255.0</ele>
        <time>2021-03-03T09:05:10Z</time>
      </trkpt>
      <trkpt lat="41.50540453" lon="2.06259044">
        <ele>255.0</ele>
        <time>2021-03-03T09:05:11Z</time>
      </trkpt>
      <trkpt lat="41.50539453" lon="2.06263844">
        <ele>255.0</ele>
        <time>2021-03-03T09:05:12Z</time>
      </trkpt>
      <trkpt lat="41.50538353" lon="2.0626871">
        <ele>255.0</ele>
        <time>2021-03-03T09:05:13Z</time>
      </trkpt>
      <trkpt lat="41.50537121" lon="2.06273709">
        <ele>256.0</ele>
        <time>2021-03-03T09:05:14Z</time>
      </trkpt>
      <trkpt lat="41.50535587" lon="2.06278842">
        <ele>256.0</ele>
        <time>2021-03-03T09:05:15Z</time>
      </trkpt>
      <trkpt lat="41.50534022" lon="2.06284074">
        <ele>256.0</ele>
        <time>2021-03-03T09:05:16Z</time>
      </trkpt>
      <trkpt lat="41.50532688" lon="2.0628924">
        <ele>256.0</ele>
        <time>2021-03-03T09:05:17Z</time>
      </trkpt>
      <trkpt lat="41.50531622" lon="2.06294306">
        <ele>256.0</ele>
        <time>2021-03-03T09:05:18Z</time>
      </trkpt>
      <trkpt lat="41.50530956" lon="2.06299372">
        <ele>256.0</ele>
        <time>2021-03-03T09:05:19Z</time>
      </trkpt>
      <trkpt lat="41.50530689" lon="2.06304071">
        <ele>256.0</ele>
        <time>2021-03-03T09:05:20Z</time>
      </trkpt>
      <trkpt lat="41.50530722" lon="2.06309171">
        <ele>256.0</ele>
        <time>2021-03-03T09:05:22Z</time>
      </trkpt>
      <trkpt lat="41.50531321" lon="2.06314404">
        <ele>256.0</ele>
        <time>2021-03-03T09:05:22Z</time>
      </trkpt>
      <trkpt lat="41.50532453" lon="2.06319737">
        <ele>256.0</ele>
        <time>2021-03-03T09:05:23Z</time>
      </trkpt>
      <trkpt lat="41.50534253" lon="2.06324903">
        <ele>256.0</ele>
        <time>2021-03-03T09:05:24Z</time>
      </trkpt>
      <trkpt lat="41.50536485" lon="2.06329668">
        <ele>256.0</ele>
        <time>2021-03-03T09:05:25Z</time>
      </trkpt>
      <trkpt lat="41.50539585" lon="2.06334635">
        <ele>256.0</ele>
        <time>2021-03-03T09:05:26Z</time>
      </trkpt>
      <trkpt lat="41.50543584" lon="2.06340334">
        <ele>256.0</ele>
        <time>2021-03-03T09:05:27Z</time>
      </trkpt>
      <trkpt lat="41.5054785" lon="2.06346333">
        <ele>256.0</ele>
        <time>2021-03-03T09:05:28Z</time>
      </trkpt>
      <trkpt lat="41.50552416" lon="2.063524">
        <ele>255.0</ele>
        <time>2021-03-03T09:05:29Z</time>
      </trkpt>
      <trkpt lat="41.50557181" lon="2.06358432">
        <ele>255.0</ele>
        <time>2021-03-03T09:05:30Z</time>
      </trkpt>
      <trkpt lat="41.50562181" lon="2.06364232">
        <ele>255.0</ele>
        <time>2021-03-03T09:05:31Z</time>
      </trkpt>
      <trkpt lat="41.5056728" lon="2.06369565">
        <ele>254.0</ele>
        <time>2021-03-03T09:05:32Z</time>
      </trkpt>
      <trkpt lat="41.5057258" lon="2.06374299">
        <ele>254.0</ele>
        <time>2021-03-03T09:05:33Z</time>
      </trkpt>
      <trkpt lat="41.50577679" lon="2.06378632">
        <ele>253.0</ele>
        <time>2021-03-03T09:05:34Z</time>
      </trkpt>
      <trkpt lat="41.50582512" lon="2.06382564">
        <ele>253.0</ele>
        <time>2021-03-03T09:05:35Z</time>
      </trkpt>
      <trkpt lat="41.50586477" lon="2.06386363">
        <ele>253.0</ele>
        <time>2021-03-03T09:05:36Z</time>
      </trkpt>
      <trkpt lat="41.50589177" lon="2.06389662">
        <ele>253.0</ele>
        <time>2021-03-03T09:05:37Z</time>
      </trkpt>
      <trkpt lat="41.50590343" lon="2.06392329">
        <ele>253.0</ele>
        <time>2021-03-03T09:05:38Z</time>
      </trkpt>
      <trkpt lat="41.50589776" lon="2.06394129">
        <ele>253.0</ele>
        <time>2021-03-03T09:05:39Z</time>
      </trkpt>
      <trkpt lat="41.50587876" lon="2.06395028">
        <ele>253.0</ele>
        <time>2021-03-03T09:05:40Z</time>
      </trkpt>
      <trkpt lat="41.50584511" lon="2.06395394">
        <ele>253.0</ele>
        <time>2021-03-03T09:05:41Z</time>
      </trkpt>
      <trkpt lat="41.50579978" lon="2.06395594">
        <ele>253.0</ele>
        <time>2021-03-03T09:05:42Z</time>
      </trkpt>
      <trkpt lat="41.50574678" lon="2.06395659">
        <ele>253.0</ele>
        <time>2021-03-03T09:05:43Z</time>
      </trkpt>
      <trkpt lat="41.50568646" lon="2.06395526">
        <ele>252.0</ele>
        <time>2021-03-03T09:05:44Z</time>
      </trkpt>
      <trkpt lat="41.50561913" lon="2.06394927">
        <ele>252.0</ele>
        <time>2021-03-03T09:05:45Z</time>
      </trkpt>
      <trkpt lat="41.50554579" lon="2.06393561">
        <ele>251.0</ele>
        <time>2021-03-03T09:05:46Z</time>
      </trkpt>
      <trkpt lat="41.50546947" lon="2.06391296">
        <ele>250.0</ele>
        <time>2021-03-03T09:05:47Z</time>
      </trkpt>
      <trkpt lat="41.5053928" lon="2.06387796">
        <ele>249.0</ele>
        <time>2021-03-03T09:05:48Z</time>
      </trkpt>
      <trkpt lat="41.50531748" lon="2.06382897">
        <ele>248.0</ele>
        <time>2021-03-03T09:05:49Z</time>
      </trkpt>
      <trkpt lat="41.50524248" lon="2.06376897">
        <ele>247.0</ele>
        <time>2021-03-03T09:05:50Z</time>
      </trkpt>
      <trkpt lat="41.50516381" lon="2.06370031">
        <ele>247.0</ele>
        <time>2021-03-03T09:05:51Z</time>
      </trkpt>
      <trkpt lat="41.50508082" lon="2.06362798">
        <ele>246.0</ele>
        <time>2021-03-03T09:05:52Z</time>
      </trkpt>
      <trkpt lat="41.50499149" lon="2.06355598">
        <ele>244.0</ele>
        <time>2021-03-03T09:05:53Z</time>
      </trkpt>
      <trkpt lat="41.50489517" lon="2.06348465">
        <ele>243.0</ele>
        <time>2021-03-03T09:05:54Z</time>
      </trkpt>
      <trkpt lat="41.50479417" lon="2.063418">
        <ele>241.0</ele>
        <time>2021-03-03T09:05:55Z</time>
      </trkpt>
      <trkpt lat="41.50468817" lon="2.06335967">
        <ele>239.0</ele>
        <time>2021-03-03T09:05:56Z</time>
      </trkpt>
      <trkpt lat="41.50457984" lon="2.06331034">
        <ele>237.0</ele>
        <time>2021-03-03T09:05:57Z</time>
      </trkpt>
      <trkpt lat="41.50446918" lon="2.06326835">
        <ele>236.0</ele>
        <time>2021-03-03T09:05:58Z</time>
      </trkpt>
      <trkpt lat="41.50435718" lon="2.06323168">
        <ele>235.0</ele>
        <time>2021-03-03T09:05:59Z</time>
      </trkpt>
      <trkpt lat="41.50424419" lon="2.06319935">
        <ele>233.0</ele>
        <time>2021-03-03T09:06:00Z</time>
      </trkpt>
      <trkpt lat="41.50413185" lon="2.06317069">
        <ele>232.0</ele>
        <time>2021-03-03T09:06:01Z</time>
      </trkpt>
      <trkpt lat="41.50401952" lon="2.06314469">
        <ele>231.0</ele>
        <time>2021-03-03T09:06:02Z</time>
      </trkpt>
      <trkpt lat="41.50390853" lon="2.0631197">
        <ele>230.0</ele>
        <time>2021-03-03T09:06:03Z</time>
      </trkpt>
      <trkpt lat="41.50379986" lon="2.0630967">
        <ele>229.0</ele>
        <time>2021-03-03T09:06:04Z</time>
      </trkpt>
      <trkpt lat="41.50369487" lon="2.06307305">
        <ele>228.0</ele>
        <time>2021-03-03T09:06:05Z</time>
      </trkpt>
      <trkpt lat="41.50359087" lon="2.06304805">
        <ele>227.0</ele>
        <time>2021-03-03T09:06:06Z</time>
      </trkpt>
      <trkpt lat="41.50348822" lon="2.06301872">
        <ele>227.0</ele>
        <time>2021-03-03T09:06:07Z</time>
      </trkpt>
      <trkpt lat="41.50338688" lon="2.06298672">
        <ele>226.0</ele>
        <time>2021-03-03T09:06:08Z</time>
      </trkpt>
      <trkpt lat="41.50328722" lon="2.06295439">
        <ele>225.0</ele>
        <time>2021-03-03T09:06:09Z</time>
      </trkpt>
      <trkpt lat="41.50318723" lon="2.06292573">
        <ele>225.0</ele>
        <time>2021-03-03T09:06:10Z</time>
      </trkpt>
      <trkpt lat="41.50308923" lon="2.06290408">
        <ele>225.0</ele>
        <time>2021-03-03T09:06:11Z</time>
      </trkpt>
      <trkpt lat="41.50299189" lon="2.06289441">
        <ele>224.0</ele>
        <time>2021-03-03T09:06:12Z</time>
      </trkpt>
      <trkpt lat="41.5028949" lon="2.06290108">
        <ele>224.0</ele>
        <time>2021-03-03T09:06:13Z</time>
      </trkpt>
      <trkpt lat="41.5027969" lon="2.06292273">
        <ele>224.0</ele>
        <time>2021-03-03T09:06:14Z</time>
      </trkpt>
      <trkpt lat="41.50269491" lon="2.06295672">
        <ele>223.0</ele>
        <time>2021-03-03T09:06:15Z</time>
      </trkpt>
      <trkpt lat="41.50259091" lon="2.06299705">
        <ele>223.0</ele>
        <time>2021-03-03T09:06:17Z</time>
      </trkpt>
      <trkpt lat="41.50248491" lon="2.06303638">
        <ele>222.0</ele>
        <time>2021-03-03T09:06:17Z</time>
      </trkpt>
      <trkpt lat="41.50237891" lon="2.06307337">
        <ele>221.0</ele>
        <time>2021-03-03T09:06:18Z</time>
      </trkpt>
      <trkpt lat="41.50227359" lon="2.06310903">
        <ele>220.0</ele>
        <time>2021-03-03T09:06:19Z</time>
      </trkpt>
      <trkpt lat="41.50216827" lon="2.06314136">
        <ele>220.0</ele>
        <time>2021-03-03T09:06:20Z</time>
      </trkpt>
      <trkpt lat="41.50206427" lon="2.06317702">
        <ele>219.0</ele>
        <time>2021-03-03T09:06:21Z</time>
      </trkpt>
      <trkpt lat="41.50196261" lon="2.06320968">
        <ele>219.0</ele>
        <time>2021-03-03T09:06:22Z</time>
      </trkpt>
      <trkpt lat="41.50186061" lon="2.06324034">
        <ele>218.0</ele>
        <time>2021-03-03T09:06:23Z</time>
      </trkpt>
      <trkpt lat="41.50176029" lon="2.06326467">
        <ele>218.0</ele>
        <time>2021-03-03T09:06:24Z</time>
      </trkpt>
      <trkpt lat="41.50165829" lon="2.06328401">
        <ele>217.0</ele>
        <time>2021-03-03T09:06:25Z</time>
      </trkpt>
      <trkpt lat="41.50155429" lon="2.06329734">
        <ele>217.0</ele>
        <time>2021-03-03T09:06:26Z</time>
      </trkpt>
      <trkpt lat="41.5014493" lon="2.06330633">
        <ele>216.0</ele>
        <time>2021-03-03T09:06:27Z</time>
      </trkpt>
      <trkpt lat="41.50134563" lon="2.06331199">
        <ele>216.0</ele>
        <time>2021-03-03T09:06:28Z</time>
      </trkpt>
      <trkpt lat="41.50124264" lon="2.06331432">
        <ele>216.0</ele>
        <time>2021-03-03T09:06:29Z</time>
      </trkpt>
      <trkpt lat="41.50114031" lon="2.06331465">
        <ele>215.0</ele>
        <time>2021-03-03T09:06:30Z</time>
      </trkpt>
      <trkpt lat="41.50104132" lon="2.063311">
        <ele>215.0</ele>
        <time>2021-03-03T09:06:31Z</time>
      </trkpt>
      <trkpt lat="41.50094499" lon="2.06330333">
        <ele>215.0</ele>
        <time>2021-03-03T09:06:32Z</time>
      </trkpt>
      <trkpt lat="41.50085234" lon="2.063295">
        <ele>215.0</ele>
        <time>2021-03-03T09:06:33Z</time>
      </trkpt>
      <trkpt lat="41.50076468" lon="2.06328633">
        <ele>215.0</ele>
        <time>2021-03-03T09:06:34Z</time>
      </trkpt>
      <trkpt lat="41.50068201" lon="2.06327933">
        <ele>215.0</ele>
        <time>2021-03-03T09:06:35Z</time>
      </trkpt>
      <trkpt lat="41.50060402" lon="2.06327334">
        <ele>215.0</ele>
        <time>2021-03-03T09:06:36Z</time>
      </trkpt>
      <trkpt lat="41.50052936" lon="2.06327101">
        <ele>215.0</ele>
        <time>2021-03-03T09:06:37Z</time>
      </trkpt>
      <trkpt lat="41.50045902" lon="2.06326868">
        <ele>215.0</ele>
        <time>2021-03-03T09:06:38Z</time>
      </trkpt>
      <trkpt lat="41.5003937" lon="2.06326803">
        <ele>215.0</ele>
        <time>2021-03-03T09:06:39Z</time>
      </trkpt>
      <trkpt lat="41.50033104" lon="2.06326636">
        <ele>215.0</ele>
        <time>2021-03-03T09:06:40Z</time>
      </trkpt>
      <trkpt lat="41.50026938" lon="2.0632637">
        <ele>215.0</ele>
        <time>2021-03-03T09:06:41Z</time>
      </trkpt>
      <trkpt lat="41.50021104" lon="2.06326071">
        <ele>215.0</ele>
        <time>2021-03-03T09:06:42Z</time>
      </trkpt>
      <trkpt lat="41.50014639" lon="2.06325871">
        <ele>215.0</ele>
        <time>2021-03-03T09:06:43Z</time>
      </trkpt>
      <trkpt lat="41.5000804" lon="2.06325472">
        <ele>215.0</ele>
        <time>2021-03-03T09:06:44Z</time>
      </trkpt>
      <trkpt lat="41.50001073" lon="2.06325039">
        <ele>215.0</ele>
        <time>2021-03-03T09:06:45Z</time>
      </trkpt>
      <trkpt lat="41.49993974" lon="2.06324707">
        <ele>215.0</ele>
        <time>2021-03-03T09:06:46Z</time>
      </trkpt>
      <trkpt lat="41.49987041" lon="2.06324408">
        <ele>215.0</ele>
        <time>2021-03-03T09:06:46Z</time>
      </trkpt>
      <trkpt lat="41.49980242" lon="2.06324008">
        <ele>215.0</ele>
        <time>2021-03-03T09:06:47Z</time>
      </trkpt>
      <trkpt lat="41.49973542" lon="2.06323575">
        <ele>215.0</ele>
        <time>2021-03-03T09:06:48Z</time>
      </trkpt>
      <trkpt lat="41.49966909" lon="2.06322942">
        <ele>215.0</ele>
        <time>2021-03-03T09:06:49Z</time>
      </trkpt>
      <trkpt lat="41.49960309" lon="2.06321976">
        <ele>215.0</ele>
        <time>2021-03-03T09:06:50Z</time>
      </trkpt>
      <trkpt lat="41.4995381" lon="2.06320876">
        <ele>215.0</ele>
        <time>2021-03-03T09:06:51Z</time>
      </trkpt>
      <trkpt lat="41.4994741" lon="2.06320211">
        <ele>215.0</ele>
        <time>2021-03-03T09:06:52Z</time>
      </trkpt>
      <trkpt lat="41.49941178" lon="2.06319978">
        <ele>215.0</ele>
        <time>2021-03-03T09:06:53Z</time>
      </trkpt>
      <trkpt lat="41.49934979" lon="2.06320577">
        <ele>215.0</ele>
        <time>2021-03-03T09:06:54Z</time>
      </trkpt>
      <trkpt lat="41.49928812" lon="2.06322243">
        <ele>215.0</ele>
        <time>2021-03-03T09:06:55Z</time>
      </trkpt>
      <trkpt lat="41.49922613" lon="2.06324442">
        <ele>215.0</ele>
        <time>2021-03-03T09:06:56Z</time>
      </trkpt>
      <trkpt lat="41.49916513" lon="2.06326975">
        <ele>215.0</ele>
        <time>2021-03-03T09:06:57Z</time>
      </trkpt>
      <trkpt lat="41.49910214" lon="2.06329708">
        <ele>214.0</ele>
        <time>2021-03-03T09:06:58Z</time>
      </trkpt>
      <trkpt lat="41.49903149" lon="2.06332474">
        <ele>214.0</ele>
        <time>2021-03-03T09:06:59Z</time>
      </trkpt>
      <trkpt lat="41.49895149" lon="2.0633504">
        <ele>214.0</ele>
        <time>2021-03-03T09:07:00Z</time>
      </trkpt>
      <trkpt lat="41.49886683" lon="2.06337506">
        <ele>213.0</ele>
        <time>2021-03-03T09:07:01Z</time>
      </trkpt>
      <trkpt lat="41.49877817" lon="2.06338872">
        <ele>212.0</ele>
        <time>2021-03-03T09:07:02Z</time>
      </trkpt>
      <trkpt lat="41.49868684" lon="2.06339672">
        <ele>212.0</ele>
        <time>2021-03-03T09:07:03Z</time>
      </trkpt>
      <trkpt lat="41.49859252" lon="2.06340205">
        <ele>211.0</ele>
        <time>2021-03-03T09:07:05Z</time>
      </trkpt>
      <trkpt lat="41.49849818" lon="2.06340637">
        <ele>210.0</ele>
        <time>2021-03-03T09:07:05Z</time>
      </trkpt>
      <trkpt lat="41.49840253" lon="2.06341404">
        <ele>209.0</ele>
        <time>2021-03-03T09:07:06Z</time>
      </trkpt>
      <trkpt lat="41.4983042" lon="2.06343237">
        <ele>209.0</ele>
        <time>2021-03-03T09:07:07Z</time>
      </trkpt>
      <trkpt lat="41.49820987" lon="2.06346036">
        <ele>208.0</ele>
        <time>2021-03-03T09:07:08Z</time>
      </trkpt>
      <trkpt lat="41.49811955" lon="2.06349968">
        <ele>207.0</ele>
        <time>2021-03-03T09:07:09Z</time>
      </trkpt>
      <trkpt lat="41.49803055" lon="2.06354668">
        <ele>207.0</ele>
        <time>2021-03-03T09:07:10Z</time>
      </trkpt>
      <trkpt lat="41.49794055" lon="2.06359567">
        <ele>206.0</ele>
        <time>2021-03-03T09:07:11Z</time>
      </trkpt>
      <trkpt lat="41.49784856" lon="2.06364467">
        <ele>205.0</ele>
        <time>2021-03-03T09:07:12Z</time>
      </trkpt>
      <trkpt lat="41.49775756" lon="2.06369066">
        <ele>203.0</ele>
        <time>2021-03-03T09:07:13Z</time>
      </trkpt>
      <trkpt lat="41.49766423" lon="2.06373366">
        <ele>202.0</ele>
        <time>2021-03-03T09:07:14Z</time>
      </trkpt>
      <trkpt lat="41.49758191" lon="2.06376665">
        <ele>202.0</ele>
        <time>2021-03-03T09:07:15Z</time>
      </trkpt>
      <trkpt lat="41.49750259" lon="2.06379399">
        <ele>201.0</ele>
        <time>2021-03-03T09:07:16Z</time>
      </trkpt>
      <trkpt lat="41.49742559" lon="2.06381898">
        <ele>200.0</ele>
        <time>2021-03-03T09:07:17Z</time>
      </trkpt>
      <trkpt lat="41.49735093" lon="2.06384597">
        <ele>199.0</ele>
        <time>2021-03-03T09:07:18Z</time>
      </trkpt>
      <trkpt lat="41.49727727" lon="2.06388162">
        <ele>198.0</ele>
        <time>2021-03-03T09:07:19Z</time>
      </trkpt>
      <trkpt lat="41.49720427" lon="2.06392596">
        <ele>197.0</ele>
        <time>2021-03-03T09:07:20Z</time>
      </trkpt>
      <trkpt lat="41.49713061" lon="2.06397462">
        <ele>197.0</ele>
        <time>2021-03-03T09:07:21Z</time>
      </trkpt>
      <trkpt lat="41.49705495" lon="2.06402562">
        <ele>195.0</ele>
        <time>2021-03-03T09:07:22Z</time>
      </trkpt>
      <trkpt lat="41.49697962" lon="2.06407896">
        <ele>195.0</ele>
        <time>2021-03-03T09:07:23Z</time>
      </trkpt>
      <trkpt lat="41.49690128" lon="2.06413428">
        <ele>194.0</ele>
        <time>2021-03-03T09:07:24Z</time>
      </trkpt>
      <trkpt lat="41.49682229" lon="2.06419395">
        <ele>193.0</ele>
        <time>2021-03-03T09:07:25Z</time>
      </trkpt>
      <trkpt lat="41.49673997" lon="2.0642566">
        <ele>192.0</ele>
        <time>2021-03-03T09:07:26Z</time>
      </trkpt>
      <trkpt lat="41.49665531" lon="2.06432227">
        <ele>192.0</ele>
        <time>2021-03-03T09:07:27Z</time>
      </trkpt>
      <trkpt lat="41.49656765" lon="2.06439126">
        <ele>191.0</ele>
        <time>2021-03-03T09:07:28Z</time>
      </trkpt>
      <trkpt lat="41.49647699" lon="2.06446459">
        <ele>191.0</ele>
        <time>2021-03-03T09:07:29Z</time>
      </trkpt>
      <trkpt lat="41.49638667" lon="2.06453725">
        <ele>190.0</ele>
        <time>2021-03-03T09:07:30Z</time>
      </trkpt>
      <trkpt lat="41.496297" lon="2.06460958">
        <ele>189.0</ele>
        <time>2021-03-03T09:07:31Z</time>
      </trkpt>
      <trkpt lat="41.49620733" lon="2.06467925">
        <ele>188.0</ele>
        <time>2021-03-03T09:07:32Z</time>
      </trkpt>
      <trkpt lat="41.49611668" lon="2.06474324">
        <ele>187.0</ele>
        <time>2021-03-03T09:07:34Z</time>
      </trkpt>
      <trkpt lat="41.49602502" lon="2.06480124">
        <ele>186.0</ele>
        <time>2021-03-03T09:07:34Z</time>
      </trkpt>
      <trkpt lat="41.49593302" lon="2.06485091">
        <ele>186.0</ele>
        <time>2021-03-03T09:07:35Z</time>
      </trkpt>
      <trkpt lat="41.4958397" lon="2.06489223">
        <ele>185.0</ele>
        <time>2021-03-03T09:07:36Z</time>
      </trkpt>
      <trkpt lat="41.4957447" lon="2.0649279">
        <ele>185.0</ele>
        <time>2021-03-03T09:07:37Z</time>
      </trkpt>
      <trkpt lat="41.49564903" lon="2.06495955">
        <ele>184.0</ele>
        <time>2021-03-03T09:07:38Z</time>
      </trkpt>
      <trkpt lat="41.49555537" lon="2.06498688">
        <ele>184.0</ele>
        <time>2021-03-03T09:07:39Z</time>
      </trkpt>
      <trkpt lat="41.49546104" lon="2.06501253">
        <ele>184.0</ele>
        <time>2021-03-03T09:07:40Z</time>
      </trkpt>
      <trkpt lat="41.49536738" lon="2.06503452">
        <ele>184.0</ele>
        <time>2021-03-03T09:07:41Z</time>
      </trkpt>
      <trkpt lat="41.49527373" lon="2.06505418">
        <ele>184.0</ele>
        <time>2021-03-03T09:07:42Z</time>
      </trkpt>
      <trkpt lat="41.49518106" lon="2.06507285">
        <ele>183.0</ele>
        <time>2021-03-03T09:07:43Z</time>
      </trkpt>
      <trkpt lat="41.49509006" lon="2.06508951">
        <ele>183.0</ele>
        <time>2021-03-03T09:07:44Z</time>
      </trkpt>
      <trkpt lat="41.49499974" lon="2.06510418">
        <ele>183.0</ele>
        <time>2021-03-03T09:07:45Z</time>
      </trkpt>
      <trkpt lat="41.49491007" lon="2.06511984">
        <ele>183.0</ele>
        <time>2021-03-03T09:07:46Z</time>
      </trkpt>
      <trkpt lat="41.49482108" lon="2.0651355">
        <ele>182.0</ele>
        <time>2021-03-03T09:07:47Z</time>
      </trkpt>
      <trkpt lat="41.49473208" lon="2.06515149">
        <ele>182.0</ele>
        <time>2021-03-03T09:07:48Z</time>
      </trkpt>
      <trkpt lat="41.49464241" lon="2.06516783">
        <ele>181.0</ele>
        <time>2021-03-03T09:07:49Z</time>
      </trkpt>
      <trkpt lat="41.49455241" lon="2.06518483">
        <ele>181.0</ele>
        <time>2021-03-03T09:07:50Z</time>
      </trkpt>
      <trkpt lat="41.49446241" lon="2.06520215">
        <ele>181.0</ele>
        <time>2021-03-03T09:07:51Z</time>
      </trkpt>
      <trkpt lat="41.49437309" lon="2.06521947">
        <ele>181.0</ele>
        <time>2021-03-03T09:07:52Z</time>
      </trkpt>
      <trkpt lat="41.49428409" lon="2.06523647">
        <ele>181.0</ele>
        <time>2021-03-03T09:07:53Z</time>
      </trkpt>
      <trkpt lat="41.49419643" lon="2.0652538">
        <ele>180.0</ele>
        <time>2021-03-03T09:07:54Z</time>
      </trkpt>
      <trkpt lat="41.49410911" lon="2.0652738">
        <ele>180.0</ele>
        <time>2021-03-03T09:07:55Z</time>
      </trkpt>
      <trkpt lat="41.49402244" lon="2.06529645">
        <ele>180.0</ele>
        <time>2021-03-03T09:07:56Z</time>
      </trkpt>
      <trkpt lat="41.49393578" lon="2.06531945">
        <ele>180.0</ele>
        <time>2021-03-03T09:07:57Z</time>
      </trkpt>
      <trkpt lat="41.49385012" lon="2.06534278">
        <ele>180.0</ele>
        <time>2021-03-03T09:07:58Z</time>
      </trkpt>
      <trkpt lat="41.49376445" lon="2.06537077">
        <ele>180.0</ele>
        <time>2021-03-03T09:07:59Z</time>
      </trkpt>
      <trkpt lat="41.49367946" lon="2.06540143">
        <ele>179.0</ele>
        <time>2021-03-03T09:08:00Z</time>
      </trkpt>
      <trkpt lat="41.49359414" lon="2.06543409">
        <ele>179.0</ele>
        <time>2021-03-03T09:08:01Z</time>
      </trkpt>
      <trkpt lat="41.49350982" lon="2.06546875">
        <ele>179.0</ele>
        <time>2021-03-03T09:08:02Z</time>
      </trkpt>
      <trkpt lat="41.49342148" lon="2.06550608">
        <ele>179.0</ele>
        <time>2021-03-03T09:08:03Z</time>
      </trkpt>
      <trkpt lat="41.49333116" lon="2.06554608">
        <ele>179.0</ele>
        <time>2021-03-03T09:08:04Z</time>
      </trkpt>
      <trkpt lat="41.49323917" lon="2.06558674">
        <ele>178.0</ele>
        <time>2021-03-03T09:08:05Z</time>
      </trkpt>
      <trkpt lat="41.49314484" lon="2.06562707">
        <ele>178.0</ele>
        <time>2021-03-03T09:08:06Z</time>
      </trkpt>
      <trkpt lat="41.49304984" lon="2.06566674">
        <ele>177.0</ele>
        <time>2021-03-03T09:08:07Z</time>
      </trkpt>
      <trkpt lat="41.49295485" lon="2.06570473">
        <ele>176.0</ele>
        <time>2021-03-03T09:08:08Z</time>
      </trkpt>
      <trkpt lat="41.49286018" lon="2.06574306">
        <ele>175.0</ele>
        <time>2021-03-03T09:08:09Z</time>
      </trkpt>
      <trkpt lat="41.49276551" lon="2.06578072">
        <ele>175.0</ele>
        <time>2021-03-03T09:08:10Z</time>
      </trkpt>
      <trkpt lat="41.49267186" lon="2.06581537">
        <ele>174.0</ele>
        <time>2021-03-03T09:08:11Z</time>
      </trkpt>
      <trkpt lat="41.49257787" lon="2.06585037">
        <ele>174.0</ele>
        <time>2021-03-03T09:08:12Z</time>
      </trkpt>
      <trkpt lat="41.49248454" lon="2.06588571">
        <ele>174.0</ele>
        <time>2021-03-03T09:08:13Z</time>
      </trkpt>
      <trkpt lat="41.49239254" lon="2.06592136">
        <ele>173.0</ele>
        <time>2021-03-03T09:08:14Z</time>
      </trkpt>
      <trkpt lat="41.49230154" lon="2.06595803">
        <ele>173.0</ele>
        <time>2021-03-03T09:08:15Z</time>
      </trkpt>
      <trkpt lat="41.49221122" lon="2.06599569">
        <ele>172.0</ele>
        <time>2021-03-03T09:08:16Z</time>
      </trkpt>
      <trkpt lat="41.4921219" lon="2.06603402">
        <ele>172.0</ele>
        <time>2021-03-03T09:08:17Z</time>
      </trkpt>
      <trkpt lat="41.49203323" lon="2.06607201">
        <ele>172.0</ele>
        <time>2021-03-03T09:08:18Z</time>
      </trkpt>
      <trkpt lat="41.49194524" lon="2.06610868">
        <ele>171.0</ele>
        <time>2021-03-03T09:08:19Z</time>
      </trkpt>
      <trkpt lat="41.49185792" lon="2.06614733">
        <ele>171.0</ele>
        <time>2021-03-03T09:08:20Z</time>
      </trkpt>
      <trkpt lat="41.49177158" lon="2.06618633">
        <ele>171.0</ele>
        <time>2021-03-03T09:08:21Z</time>
      </trkpt>
      <trkpt lat="41.49168593" lon="2.06622499">
        <ele>171.0</ele>
        <time>2021-03-03T09:08:23Z</time>
      </trkpt>
      <trkpt lat="41.49160026" lon="2.06626265">
        <ele>171.0</ele>
        <time>2021-03-03T09:08:24Z</time>
      </trkpt>
      <trkpt lat="41.4915146" lon="2.06629765">
        <ele>171.0</ele>
        <time>2021-03-03T09:08:24Z</time>
      </trkpt>
      <trkpt lat="41.49143327" lon="2.06632931">
        <ele>170.0</ele>
        <time>2021-03-03T09:08:25Z</time>
      </trkpt>
      <trkpt lat="41.49134327" lon="2.06636497">
        <ele>170.0</ele>
        <time>2021-03-03T09:08:26Z</time>
      </trkpt>
      <trkpt lat="41.49125295" lon="2.06640129">
        <ele>170.0</ele>
        <time>2021-03-03T09:08:27Z</time>
      </trkpt>
      <trkpt lat="41.49116395" lon="2.06644162">
        <ele>170.0</ele>
        <time>2021-03-03T09:08:28Z</time>
      </trkpt>
      <trkpt lat="41.49108129" lon="2.06649362">
        <ele>169.0</ele>
        <time>2021-03-03T09:08:29Z</time>
      </trkpt>
      <trkpt lat="41.49101162" lon="2.06656327">
        <ele>169.0</ele>
        <time>2021-03-03T09:08:30Z</time>
      </trkpt>
      <trkpt lat="41.49095929" lon="2.06664993">
        <ele>168.0</ele>
        <time>2021-03-03T09:08:31Z</time>
      </trkpt>
      <trkpt lat="41.4909213" lon="2.0667476">
        <ele>168.0</ele>
        <time>2021-03-03T09:08:32Z</time>
      </trkpt>
      <trkpt lat="41.49089097" lon="2.06684726">
        <ele>167.0</ele>
        <time>2021-03-03T09:08:33Z</time>
      </trkpt>
      <trkpt lat="41.49086398" lon="2.06694093">
        <ele>167.0</ele>
        <time>2021-03-03T09:08:34Z</time>
      </trkpt>
      <trkpt lat="41.49083598" lon="2.06702325">
        <ele>166.0</ele>
        <time>2021-03-03T09:08:35Z</time>
      </trkpt>
      <trkpt lat="41.49080398" lon="2.06709192">
        <ele>166.0</ele>
        <time>2021-03-03T09:08:36Z</time>
      </trkpt>
      <trkpt lat="41.49076764" lon="2.06713992">
        <ele>166.0</ele>
        <time>2021-03-03T09:08:37Z</time>
      </trkpt>
      <trkpt lat="41.49072599" lon="2.06716759">
        <ele>166.0</ele>
        <time>2021-03-03T09:08:38Z</time>
      </trkpt>
      <trkpt lat="41.49067932" lon="2.06717458">
        <ele>166.0</ele>
        <time>2021-03-03T09:08:39Z</time>
      </trkpt>
      <trkpt lat="41.490628" lon="2.06716925">
        <ele>166.0</ele>
        <time>2021-03-03T09:08:40Z</time>
      </trkpt>
      <trkpt lat="41.490572" lon="2.06715393">
        <ele>166.0</ele>
        <time>2021-03-03T09:08:41Z</time>
      </trkpt>
      <trkpt lat="41.49051166" lon="2.06713593">
        <ele>166.0</ele>
        <time>2021-03-03T09:08:42Z</time>
      </trkpt>
      <trkpt lat="41.49044801" lon="2.06712394">
        <ele>166.0</ele>
        <time>2021-03-03T09:08:43Z</time>
      </trkpt>
      <trkpt lat="41.49038234" lon="2.06712361">
        <ele>166.0</ele>
        <time>2021-03-03T09:08:44Z</time>
      </trkpt>
      <trkpt lat="41.49031735" lon="2.06713694">
        <ele>166.0</ele>
        <time>2021-03-03T09:08:45Z</time>
      </trkpt>
      <trkpt lat="41.49025302" lon="2.06716626">
        <ele>166.0</ele>
        <time>2021-03-03T09:08:46Z</time>
      </trkpt>
      <trkpt lat="41.49019203" lon="2.06721093">
        <ele>166.0</ele>
        <time>2021-03-03T09:08:47Z</time>
      </trkpt>
      <trkpt lat="41.49013369" lon="2.06726892">
        <ele>166.0</ele>
        <time>2021-03-03T09:08:48Z</time>
      </trkpt>
      <trkpt lat="41.49007437" lon="2.06733292">
        <ele>165.0</ele>
        <time>2021-03-03T09:08:49Z</time>
      </trkpt>
      <trkpt lat="41.49001637" lon="2.06739259">
        <ele>165.0</ele>
        <time>2021-03-03T09:08:50Z</time>
      </trkpt>
      <trkpt lat="41.48994605" lon="2.06744892">
        <ele>165.0</ele>
        <time>2021-03-03T09:08:51Z</time>
      </trkpt>
      <trkpt lat="41.48987039" lon="2.06749391">
        <ele>165.0</ele>
        <time>2021-03-03T09:08:52Z</time>
      </trkpt>
      <trkpt lat="41.48979006" lon="2.06752858">
        <ele>164.0</ele>
        <time>2021-03-03T09:08:53Z</time>
      </trkpt>
      <trkpt lat="41.48970572" lon="2.06755323">
        <ele>164.0</ele>
        <time>2021-03-03T09:08:54Z</time>
      </trkpt>
      <trkpt lat="41.48961939" lon="2.0675719">
        <ele>164.0</ele>
        <time>2021-03-03T09:08:55Z</time>
      </trkpt>
      <trkpt lat="41.48953207" lon="2.06758556">
        <ele>163.0</ele>
        <time>2021-03-03T09:08:56Z</time>
      </trkpt>
      <trkpt lat="41.48944408" lon="2.06759556">
        <ele>163.0</ele>
        <time>2021-03-03T09:08:57Z</time>
      </trkpt>
      <trkpt lat="41.48935609" lon="2.06760389">
        <ele>162.0</ele>
        <time>2021-03-03T09:08:58Z</time>
      </trkpt>
      <trkpt lat="41.48926843" lon="2.06761121">
        <ele>162.0</ele>
        <time>2021-03-03T09:08:59Z</time>
      </trkpt>
      <trkpt lat="41.48918143" lon="2.0676172">
        <ele>162.0</ele>
        <time>2021-03-03T09:09:00Z</time>
      </trkpt>
      <trkpt lat="41.48909543" lon="2.06762287">
        <ele>162.0</ele>
        <time>2021-03-03T09:09:01Z</time>
      </trkpt>
      <trkpt lat="41.48901044" lon="2.06762886">
        <ele>162.0</ele>
        <time>2021-03-03T09:09:02Z</time>
      </trkpt>
      <trkpt lat="41.48892812" lon="2.06763453">
        <ele>161.0</ele>
        <time>2021-03-03T09:09:03Z</time>
      </trkpt>
      <trkpt lat="41.48884745" lon="2.06763918">
        <ele>161.0</ele>
        <time>2021-03-03T09:09:04Z</time>
      </trkpt>
      <trkpt lat="41.48876779" lon="2.06764217">
        <ele>161.0</ele>
        <time>2021-03-03T09:09:05Z</time>
      </trkpt>
      <trkpt lat="41.4886918" lon="2.06763718">
        <ele>161.0</ele>
        <time>2021-03-03T09:09:06Z</time>
      </trkpt>
      <trkpt lat="41.48861947" lon="2.06762153">
        <ele>161.0</ele>
        <time>2021-03-03T09:09:07Z</time>
      </trkpt>
      <trkpt lat="41.48855214" lon="2.06759354">
        <ele>161.0</ele>
        <time>2021-03-03T09:09:08Z</time>
      </trkpt>
      <trkpt lat="41.48848648" lon="2.06755887">
        <ele>161.0</ele>
        <time>2021-03-03T09:09:09Z</time>
      </trkpt>
      <trkpt lat="41.48841981" lon="2.0675252">
        <ele>161.0</ele>
        <time>2021-03-03T09:09:10Z</time>
      </trkpt>
      <trkpt lat="41.48835281" lon="2.06750021">
        <ele>161.0</ele>
        <time>2021-03-03T09:09:11Z</time>
      </trkpt>
      <trkpt lat="41.48828649" lon="2.06748955">
        <ele>161.0</ele>
        <time>2021-03-03T09:09:12Z</time>
      </trkpt>
      <trkpt lat="41.48822417" lon="2.06749888">
        <ele>161.0</ele>
        <time>2021-03-03T09:09:13Z</time>
      </trkpt>
      <trkpt lat="41.4881685" lon="2.0675262">
        <ele>162.0</ele>
        <time>2021-03-03T09:09:14Z</time>
      </trkpt>
      <trkpt lat="41.48811817" lon="2.06756553">
        <ele>162.0</ele>
        <time>2021-03-03T09:09:15Z</time>
      </trkpt>
      <trkpt lat="41.48807018" lon="2.06760718">
        <ele>162.0</ele>
        <time>2021-03-03T09:09:16Z</time>
      </trkpt>
      <trkpt lat="41.48802051" lon="2.06764618">
        <ele>162.0</ele>
        <time>2021-03-03T09:09:17Z</time>
      </trkpt>
      <trkpt lat="41.48796819" lon="2.06768017">
        <ele>162.0</ele>
        <time>2021-03-03T09:09:18Z</time>
      </trkpt>
      <trkpt lat="41.48791252" lon="2.06771051">
        <ele>162.0</ele>
        <time>2021-03-03T09:09:19Z</time>
      </trkpt>
      <trkpt lat="41.48785286" lon="2.06773916">
        <ele>162.0</ele>
        <time>2021-03-03T09:09:20Z</time>
      </trkpt>
      <trkpt lat="41.4877892" lon="2.06776583">
        <ele>162.0</ele>
        <time>2021-03-03T09:09:21Z</time>
      </trkpt>
      <trkpt lat="41.48772121" lon="2.06779116">
        <ele>162.0</ele>
        <time>2021-03-03T09:09:22Z</time>
      </trkpt>
      <trkpt lat="41.48764988" lon="2.06781515">
        <ele>161.0</ele>
        <time>2021-03-03T09:09:23Z</time>
      </trkpt>
      <trkpt lat="41.48757622" lon="2.06783948">
        <ele>161.0</ele>
        <time>2021-03-03T09:09:24Z</time>
      </trkpt>
      <trkpt lat="41.48750123" lon="2.06786348">
        <ele>161.0</ele>
        <time>2021-03-03T09:09:25Z</time>
      </trkpt>
      <trkpt lat="41.48742389" lon="2.0678888">
        <ele>161.0</ele>
        <time>2021-03-03T09:09:26Z</time>
      </trkpt>
      <trkpt lat="41.48734524" lon="2.06791413">
        <ele>160.0</ele>
        <time>2021-03-03T09:09:27Z</time>
      </trkpt>
      <trkpt lat="41.48726925" lon="2.06793812">
        <ele>160.0</ele>
        <time>2021-03-03T09:09:28Z</time>
      </trkpt>
      <trkpt lat="41.48719958" lon="2.06795945">
        <ele>159.0</ele>
        <time>2021-03-03T09:09:29Z</time>
      </trkpt>
      <trkpt lat="41.48714026" lon="2.06797578">
        <ele>159.0</ele>
        <time>2021-03-03T09:09:30Z</time>
      </trkpt>
      <trkpt lat="41.48709227" lon="2.06798677">
        <ele>159.0</ele>
        <time>2021-03-03T09:09:31Z</time>
      </trkpt>
      <trkpt lat="41.48705293" lon="2.06799244">
        <ele>159.0</ele>
        <time>2021-03-03T09:09:32Z</time>
      </trkpt>
      <trkpt lat="41.48701861" lon="2.0679921">
        <ele>159.0</ele>
        <time>2021-03-03T09:09:33Z</time>
      </trkpt>
      <trkpt lat="41.48698762" lon="2.06798278">
        <ele>159.0</ele>
        <time>2021-03-03T09:09:34Z</time>
      </trkpt>
      <trkpt lat="41.48695695" lon="2.06796578">
        <ele>159.0</ele>
        <time>2021-03-03T09:09:35Z</time>
      </trkpt>
      <trkpt lat="41.48692362" lon="2.06794145">
        <ele>159.0</ele>
        <time>2021-03-03T09:09:36Z</time>
      </trkpt>
      <trkpt lat="41.48688695" lon="2.06791545">
        <ele>159.0</ele>
        <time>2021-03-03T09:09:37Z</time>
      </trkpt>
      <trkpt lat="41.4868443" lon="2.06789446">
        <ele>159.0</ele>
        <time>2021-03-03T09:09:38Z</time>
      </trkpt>
      <trkpt lat="41.48679764" lon="2.06788613">
        <ele>159.0</ele>
        <time>2021-03-03T09:09:39Z</time>
      </trkpt>
      <trkpt lat="41.48674897" lon="2.06789212">
        <ele>159.0</ele>
        <time>2021-03-03T09:09:40Z</time>
      </trkpt>
      <trkpt lat="41.48670132" lon="2.06791746">
        <ele>159.0</ele>
        <time>2021-03-03T09:09:41Z</time>
      </trkpt>
      <trkpt lat="41.48665666" lon="2.06796079">
        <ele>159.0</ele>
        <time>2021-03-03T09:09:42Z</time>
      </trkpt>
      <trkpt lat="41.48662199" lon="2.06801911">
        <ele>159.0</ele>
        <time>2021-03-03T09:09:43Z</time>
      </trkpt>
      <trkpt lat="41.48660134" lon="2.06809078">
        <ele>159.0</ele>
        <time>2021-03-03T09:09:44Z</time>
      </trkpt>
      <trkpt lat="41.48659667" lon="2.0681701">
        <ele>159.0</ele>
        <time>2021-03-03T09:09:45Z</time>
      </trkpt>
      <trkpt lat="41.48660234" lon="2.06825509">
        <ele>159.0</ele>
        <time>2021-03-03T09:09:46Z</time>
      </trkpt>
      <trkpt lat="41.48661034" lon="2.06834509">
        <ele>159.0</ele>
        <time>2021-03-03T09:09:47Z</time>
      </trkpt>
      <trkpt lat="41.48661599" lon="2.06843876">
        <ele>158.0</ele>
        <time>2021-03-03T09:09:48Z</time>
      </trkpt>
      <trkpt lat="41.48661632" lon="2.06853343">
        <ele>158.0</ele>
        <time>2021-03-03T09:09:49Z</time>
      </trkpt>
      <trkpt lat="41.48661266" lon="2.06862675">
        <ele>157.0</ele>
        <time>2021-03-03T09:09:50Z</time>
      </trkpt>
      <trkpt lat="41.48660699" lon="2.06871774">
        <ele>157.0</ele>
        <time>2021-03-03T09:09:51Z</time>
      </trkpt>
      <trkpt lat="41.486601" lon="2.06880607">
        <ele>157.0</ele>
        <time>2021-03-03T09:09:52Z</time>
      </trkpt>
      <trkpt lat="41.48659367" lon="2.06889241">
        <ele>157.0</ele>
        <time>2021-03-03T09:09:53Z</time>
      </trkpt>
      <trkpt lat="41.48658567" lon="2.06897706">
        <ele>157.0</ele>
        <time>2021-03-03T09:09:54Z</time>
      </trkpt>
      <trkpt lat="41.48657701" lon="2.06906139">
        <ele>157.0</ele>
        <time>2021-03-03T09:09:55Z</time>
      </trkpt>
      <trkpt lat="41.48656769" lon="2.06914439">
        <ele>157.0</ele>
        <time>2021-03-03T09:09:56Z</time>
      </trkpt>
      <trkpt lat="41.48655837" lon="2.06922571">
        <ele>157.0</ele>
        <time>2021-03-03T09:09:57Z</time>
      </trkpt>
      <trkpt lat="41.48654903" lon="2.06930571">
        <ele>157.0</ele>
        <time>2021-03-03T09:09:58Z</time>
      </trkpt>
      <trkpt lat="41.4865407" lon="2.06938371">
        <ele>157.0</ele>
        <time>2021-03-03T09:09:59Z</time>
      </trkpt>
      <trkpt lat="41.48653304" lon="2.06946037">
        <ele>158.0</ele>
        <time>2021-03-03T09:10:00Z</time>
      </trkpt>
      <trkpt lat="41.48652739" lon="2.06953602">
        <ele>158.0</ele>
        <time>2021-03-03T09:10:01Z</time>
      </trkpt>
      <trkpt lat="41.48652172" lon="2.06961036">
        <ele>159.0</ele>
        <time>2021-03-03T09:10:02Z</time>
      </trkpt>
      <trkpt lat="41.48651605" lon="2.06968435">
        <ele>159.0</ele>
        <time>2021-03-03T09:10:03Z</time>
      </trkpt>
      <trkpt lat="41.48650972" lon="2.06975868">
        <ele>159.0</ele>
        <time>2021-03-03T09:10:04Z</time>
      </trkpt>
      <trkpt lat="41.48650405" lon="2.069832">
        <ele>159.0</ele>
        <time>2021-03-03T09:10:05Z</time>
      </trkpt>
      <trkpt lat="41.4864984" lon="2.06990499">
        <ele>159.0</ele>
        <time>2021-03-03T09:10:06Z</time>
      </trkpt>
      <trkpt lat="41.48649306" lon="2.06997733">
        <ele>160.0</ele>
        <time>2021-03-03T09:10:07Z</time>
      </trkpt>
      <trkpt lat="41.48648907" lon="2.07004999">
        <ele>160.0</ele>
        <time>2021-03-03T09:10:08Z</time>
      </trkpt>
      <trkpt lat="41.48648508" lon="2.07012232">
        <ele>160.0</ele>
        <time>2021-03-03T09:10:09Z</time>
      </trkpt>
      <trkpt lat="41.48647942" lon="2.07019798">
        <ele>160.0</ele>
        <time>2021-03-03T09:10:10Z</time>
      </trkpt>
      <trkpt lat="41.48647043" lon="2.07026264">
        <ele>160.0</ele>
        <time>2021-03-03T09:10:11Z</time>
      </trkpt>
      <trkpt lat="41.4864531" lon="2.0703173">
        <ele>160.0</ele>
        <time>2021-03-03T09:10:12Z</time>
      </trkpt>
      <trkpt lat="41.48642645" lon="2.07035895">
        <ele>161.0</ele>
        <time>2021-03-03T09:10:13Z</time>
      </trkpt>
      <trkpt lat="41.48639178" lon="2.07038895">
        <ele>161.0</ele>
        <time>2021-03-03T09:10:14Z</time>
      </trkpt>
      <trkpt lat="41.48635112" lon="2.07040994">
        <ele>161.0</ele>
        <time>2021-03-03T09:10:15Z</time>
      </trkpt>
      <trkpt lat="41.48630479" lon="2.07042394">
        <ele>161.0</ele>
        <time>2021-03-03T09:10:16Z</time>
      </trkpt>
      <trkpt lat="41.4862548" lon="2.07043328">
        <ele>161.0</ele>
        <time>2021-03-03T09:10:17Z</time>
      </trkpt>
      <trkpt lat="41.48620213" lon="2.0704396">
        <ele>161.0</ele>
        <time>2021-03-03T09:10:18Z</time>
      </trkpt>
      <trkpt lat="41.48614713" lon="2.0704436">
        <ele>161.0</ele>
        <time>2021-03-03T09:10:19Z</time>
      </trkpt>
      <trkpt lat="41.48608914" lon="2.0704476">
        <ele>161.0</ele>
        <time>2021-03-03T09:10:20Z</time>
      </trkpt>
      <trkpt lat="41.48602848" lon="2.07044859">
        <ele>161.0</ele>
        <time>2021-03-03T09:10:21Z</time>
      </trkpt>
      <trkpt lat="41.48596414" lon="2.07045059">
        <ele>161.0</ele>
        <time>2021-03-03T09:10:22Z</time>
      </trkpt>
      <trkpt lat="41.48589681" lon="2.07045125">
        <ele>161.0</ele>
        <time>2021-03-03T09:10:23Z</time>
      </trkpt>
      <trkpt lat="41.48582649" lon="2.07045059">
        <ele>161.0</ele>
        <time>2021-03-03T09:10:24Z</time>
      </trkpt>
      <trkpt lat="41.48575416" lon="2.07045059">
        <ele>160.0</ele>
        <time>2021-03-03T09:10:25Z</time>
      </trkpt>
      <trkpt lat="41.48567817" lon="2.07045325">
        <ele>160.0</ele>
        <time>2021-03-03T09:10:26Z</time>
      </trkpt>
      <trkpt lat="41.48559817" lon="2.07045725">
        <ele>159.0</ele>
        <time>2021-03-03T09:10:27Z</time>
      </trkpt>
      <trkpt lat="41.48551418" lon="2.07046191">
        <ele>159.0</ele>
        <time>2021-03-03T09:10:28Z</time>
      </trkpt>
      <trkpt lat="41.48542685" lon="2.07046525">
        <ele>158.0</ele>
        <time>2021-03-03T09:10:29Z</time>
      </trkpt>
      <trkpt lat="41.48532852" lon="2.07046857">
        <ele>157.0</ele>
        <time>2021-03-03T09:10:30Z</time>
      </trkpt>
      <trkpt lat="41.48523519" lon="2.07047257">
        <ele>156.0</ele>
        <time>2021-03-03T09:10:31Z</time>
      </trkpt>
      <trkpt lat="41.48513686" lon="2.07047856">
        <ele>155.0</ele>
        <time>2021-03-03T09:10:32Z</time>
      </trkpt>
      <trkpt lat="41.48503387" lon="2.07048689">
        <ele>154.0</ele>
        <time>2021-03-03T09:10:33Z</time>
      </trkpt>
      <trkpt lat="41.48492621" lon="2.07050122">
        <ele>153.0</ele>
        <time>2021-03-03T09:10:35Z</time>
      </trkpt>
      <trkpt lat="41.48481555" lon="2.07052255">
        <ele>152.0</ele>
        <time>2021-03-03T09:10:35Z</time>
      </trkpt>
      <trkpt lat="41.48470355" lon="2.07055121">
        <ele>151.0</ele>
        <time>2021-03-03T09:10:36Z</time>
      </trkpt>
      <trkpt lat="41.48459189" lon="2.07058987">
        <ele>150.0</ele>
        <time>2021-03-03T09:10:37Z</time>
      </trkpt>
      <trkpt lat="41.48448056" lon="2.07063786">
        <ele>149.0</ele>
        <time>2021-03-03T09:10:38Z</time>
      </trkpt>
      <trkpt lat="41.48437057" lon="2.07069453">
        <ele>148.0</ele>
        <time>2021-03-03T09:10:39Z</time>
      </trkpt>
      <trkpt lat="41.48426524" lon="2.07076086">
        <ele>147.0</ele>
        <time>2021-03-03T09:10:40Z</time>
      </trkpt>
      <trkpt lat="41.48416424" lon="2.07083619">
        <ele>146.0</ele>
        <time>2021-03-03T09:10:41Z</time>
      </trkpt>
      <trkpt lat="41.48407024" lon="2.07091851">
        <ele>145.0</ele>
        <time>2021-03-03T09:10:42Z</time>
      </trkpt>
      <trkpt lat="41.48398392" lon="2.07100451">
        <ele>144.0</ele>
        <time>2021-03-03T09:10:43Z</time>
      </trkpt>
      <trkpt lat="41.48390193" lon="2.07109251">
        <ele>143.0</ele>
        <time>2021-03-03T09:10:44Z</time>
      </trkpt>
      <trkpt lat="41.48382393" lon="2.07117917">
        <ele>143.0</ele>
        <time>2021-03-03T09:10:45Z</time>
      </trkpt>
      <trkpt lat="41.48375093" lon="2.07126049">
        <ele>143.0</ele>
        <time>2021-03-03T09:10:46Z</time>
      </trkpt>
      <trkpt lat="41.48367961" lon="2.07133481">
        <ele>143.0</ele>
        <time>2021-03-03T09:10:47Z</time>
      </trkpt>
      <trkpt lat="41.48361195" lon="2.07140247">
        <ele>143.0</ele>
        <time>2021-03-03T09:10:48Z</time>
      </trkpt>
      <trkpt lat="41.48354628" lon="2.07146313">
        <ele>143.0</ele>
        <time>2021-03-03T09:10:49Z</time>
      </trkpt>
      <trkpt lat="41.48348163" lon="2.07151813">
        <ele>143.0</ele>
        <time>2021-03-03T09:10:50Z</time>
      </trkpt>
      <trkpt lat="41.48341864" lon="2.07156578">
        <ele>144.0</ele>
        <time>2021-03-03T09:10:51Z</time>
      </trkpt>
      <trkpt lat="41.48335697" lon="2.07160945">
        <ele>144.0</ele>
        <time>2021-03-03T09:10:52Z</time>
      </trkpt>
      <trkpt lat="41.48329765" lon="2.07165044">
        <ele>144.0</ele>
        <time>2021-03-03T09:10:53Z</time>
      </trkpt>
      <trkpt lat="41.48323898" lon="2.07168811">
        <ele>145.0</ele>
        <time>2021-03-03T09:10:54Z</time>
      </trkpt>
      <trkpt lat="41.48317998" lon="2.07172543">
        <ele>145.0</ele>
        <time>2021-03-03T09:10:55Z</time>
      </trkpt>
      <trkpt lat="41.48312198" lon="2.07175843">
        <ele>146.0</ele>
        <time>2021-03-03T09:10:56Z</time>
      </trkpt>
      <trkpt lat="41.48306532" lon="2.07178376">
        <ele>146.0</ele>
        <time>2021-03-03T09:10:57Z</time>
      </trkpt>
      <trkpt lat="41.48301067" lon="2.07180509">
        <ele>147.0</ele>
        <time>2021-03-03T09:10:58Z</time>
      </trkpt>
      <trkpt lat="41.48295733" lon="2.07182608">
        <ele>147.0</ele>
        <time>2021-03-03T09:10:59Z</time>
      </trkpt>
      <trkpt lat="41.482905" lon="2.07184441">
        <ele>148.0</ele>
        <time>2021-03-03T09:11:00Z</time>
      </trkpt>
      <trkpt lat="41.48285334" lon="2.07186073">
        <ele>148.0</ele>
        <time>2021-03-03T09:11:01Z</time>
      </trkpt>
      <trkpt lat="41.48280668" lon="2.07187707">
        <ele>149.0</ele>
        <time>2021-03-03T09:11:01Z</time>
      </trkpt>
      <trkpt lat="41.48276035" lon="2.07189173">
        <ele>149.0</ele>
        <time>2021-03-03T09:11:02Z</time>
      </trkpt>
      <trkpt lat="41.48271236" lon="2.07190672">
        <ele>150.0</ele>
        <time>2021-03-03T09:11:03Z</time>
      </trkpt>
      <trkpt lat="41.48266437" lon="2.07192038">
        <ele>150.0</ele>
        <time>2021-03-03T09:11:04Z</time>
      </trkpt>
      <trkpt lat="41.48261737" lon="2.07193304">
        <ele>151.0</ele>
        <time>2021-03-03T09:11:05Z</time>
      </trkpt>
      <trkpt lat="41.48256771" lon="2.07194604">
        <ele>151.0</ele>
        <time>2021-03-03T09:11:06Z</time>
      </trkpt>
      <trkpt lat="41.48251505" lon="2.07195937">
        <ele>151.0</ele>
        <time>2021-03-03T09:11:07Z</time>
      </trkpt>
      <trkpt lat="41.48246172" lon="2.07197569">
        <ele>151.0</ele>
        <time>2021-03-03T09:11:08Z</time>
      </trkpt>
      <trkpt lat="41.48241073" lon="2.07199636">
        <ele>151.0</ele>
        <time>2021-03-03T09:11:09Z</time>
      </trkpt>
      <trkpt lat="41.48236106" lon="2.07202336">
        <ele>152.0</ele>
        <time>2021-03-03T09:11:10Z</time>
      </trkpt>
      <trkpt lat="41.4823174" lon="2.07206069">
        <ele>152.0</ele>
        <time>2021-03-03T09:11:11Z</time>
      </trkpt>
      <trkpt lat="41.48228474" lon="2.07210868">
        <ele>152.0</ele>
        <time>2021-03-03T09:11:12Z</time>
      </trkpt>
      <trkpt lat="41.48226441" lon="2.07216567">
        <ele>152.0</ele>
        <time>2021-03-03T09:11:13Z</time>
      </trkpt>
      <trkpt lat="41.48225341" lon="2.07223067">
        <ele>152.0</ele>
        <time>2021-03-03T09:11:14Z</time>
      </trkpt>
      <trkpt lat="41.48224808" lon="2.07230334">
        <ele>152.0</ele>
        <time>2021-03-03T09:11:15Z</time>
      </trkpt>
      <trkpt lat="41.48224509" lon="2.072381">
        <ele>152.0</ele>
        <time>2021-03-03T09:11:16Z</time>
      </trkpt>
      <trkpt lat="41.48224042" lon="2.07246">
        <ele>152.0</ele>
        <time>2021-03-03T09:11:17Z</time>
      </trkpt>
      <trkpt lat="41.48222743" lon="2.07253465">
        <ele>151.0</ele>
        <time>2021-03-03T09:11:18Z</time>
      </trkpt>
      <trkpt lat="41.48220243" lon="2.07259832">
        <ele>151.0</ele>
        <time>2021-03-03T09:11:19Z</time>
      </trkpt>
      <trkpt lat="41.48216578" lon="2.07265131">
        <ele>151.0</ele>
        <time>2021-03-03T09:11:20Z</time>
      </trkpt>
      <trkpt lat="41.48212045" lon="2.0726953">
        <ele>151.0</ele>
        <time>2021-03-03T09:11:21Z</time>
      </trkpt>
      <trkpt lat="41.48206645" lon="2.07273297">
        <ele>150.0</ele>
        <time>2021-03-03T09:11:22Z</time>
      </trkpt>
      <trkpt lat="41.4820058" lon="2.07276762">
        <ele>150.0</ele>
        <time>2021-03-03T09:11:23Z</time>
      </trkpt>
      <trkpt lat="41.48193814" lon="2.07280296">
        <ele>149.0</ele>
        <time>2021-03-03T09:11:24Z</time>
      </trkpt>
      <trkpt lat="41.48186347" lon="2.07283928">
        <ele>149.0</ele>
        <time>2021-03-03T09:11:25Z</time>
      </trkpt>
      <trkpt lat="41.48178415" lon="2.07287694">
        <ele>148.0</ele>
        <time>2021-03-03T09:11:26Z</time>
      </trkpt>
      <trkpt lat="41.48170149" lon="2.07291627">
        <ele>147.0</ele>
        <time>2021-03-03T09:11:27Z</time>
      </trkpt>
      <trkpt lat="41.48161516" lon="2.07295793">
        <ele>146.0</ele>
        <time>2021-03-03T09:11:28Z</time>
      </trkpt>
      <trkpt lat="41.48152583" lon="2.07300092">
        <ele>145.0</ele>
        <time>2021-03-03T09:11:29Z</time>
      </trkpt>
      <trkpt lat="41.48143349" lon="2.07304724">
        <ele>144.0</ele>
        <time>2021-03-03T09:11:30Z</time>
      </trkpt>
      <trkpt lat="41.4813415" lon="2.07309424">
        <ele>144.0</ele>
        <time>2021-03-03T09:11:31Z</time>
      </trkpt>
      <trkpt lat="41.48124851" lon="2.07314156">
        <ele>143.0</ele>
        <time>2021-03-03T09:11:32Z</time>
      </trkpt>
      <trkpt lat="41.48115451" lon="2.07319022">
        <ele>142.0</ele>
        <time>2021-03-03T09:11:33Z</time>
      </trkpt>
      <trkpt lat="41.48106152" lon="2.07324122">
        <ele>142.0</ele>
        <time>2021-03-03T09:11:34Z</time>
      </trkpt>
      <trkpt lat="41.4809712" lon="2.07329122">
        <ele>141.0</ele>
        <time>2021-03-03T09:11:35Z</time>
      </trkpt>
      <trkpt lat="41.4808822" lon="2.07334121">
        <ele>141.0</ele>
        <time>2021-03-03T09:11:36Z</time>
      </trkpt>
      <trkpt lat="41.48079421" lon="2.07338953">
        <ele>141.0</ele>
        <time>2021-03-03T09:11:37Z</time>
      </trkpt>
      <trkpt lat="41.48070855" lon="2.07343753">
        <ele>140.0</ele>
        <time>2021-03-03T09:11:38Z</time>
      </trkpt>
      <trkpt lat="41.48062755" lon="2.07348752">
        <ele>140.0</ele>
        <time>2021-03-03T09:11:39Z</time>
      </trkpt>
      <trkpt lat="41.48054655" lon="2.07353719">
        <ele>139.0</ele>
        <time>2021-03-03T09:11:40Z</time>
      </trkpt>
      <trkpt lat="41.48046555" lon="2.07358585">
        <ele>139.0</ele>
        <time>2021-03-03T09:11:41Z</time>
      </trkpt>
      <trkpt lat="41.4803839" lon="2.07363385">
        <ele>139.0</ele>
        <time>2021-03-03T09:11:42Z</time>
      </trkpt>
      <trkpt lat="41.48029991" lon="2.07368185">
        <ele>139.0</ele>
        <time>2021-03-03T09:11:43Z</time>
      </trkpt>
      <trkpt lat="41.48021391" lon="2.07373285">
        <ele>138.0</ele>
        <time>2021-03-03T09:11:44Z</time>
      </trkpt>
      <trkpt lat="41.48013057" lon="2.07379417">
        <ele>138.0</ele>
        <time>2021-03-03T09:11:45Z</time>
      </trkpt>
      <trkpt lat="41.48005358" lon="2.07386684">
        <ele>138.0</ele>
        <time>2021-03-03T09:11:46Z</time>
      </trkpt>
      <trkpt lat="41.47998625" lon="2.07395149">
        <ele>138.0</ele>
        <time>2021-03-03T09:11:47Z</time>
      </trkpt>
      <trkpt lat="41.47993092" lon="2.07404949">
        <ele>137.0</ele>
        <time>2021-03-03T09:11:48Z</time>
      </trkpt>
      <trkpt lat="41.47988793" lon="2.07415948">
        <ele>136.0</ele>
        <time>2021-03-03T09:11:49Z</time>
      </trkpt>
      <trkpt lat="41.47985759" lon="2.07427781">
        <ele>136.0</ele>
        <time>2021-03-03T09:11:50Z</time>
      </trkpt>
      <trkpt lat="41.47983694" lon="2.07440114">
        <ele>136.0</ele>
        <time>2021-03-03T09:11:51Z</time>
      </trkpt>
      <trkpt lat="41.47982461" lon="2.07452813">
        <ele>136.0</ele>
        <time>2021-03-03T09:11:52Z</time>
      </trkpt>
      <trkpt lat="41.47981795" lon="2.07465846">
        <ele>135.0</ele>
        <time>2021-03-03T09:11:53Z</time>
      </trkpt>
      <trkpt lat="41.47981562" lon="2.07479246">
        <ele>134.0</ele>
        <time>2021-03-03T09:11:54Z</time>
      </trkpt>
      <trkpt lat="41.47981595" lon="2.07492679">
        <ele>134.0</ele>
        <time>2021-03-03T09:11:55Z</time>
      </trkpt>
      <trkpt lat="41.4798176" lon="2.07506511">
        <ele>133.0</ele>
        <time>2021-03-03T09:11:56Z</time>
      </trkpt>
      <trkpt lat="41.47982093" lon="2.07520844">
        <ele>132.0</ele>
        <time>2021-03-03T09:11:57Z</time>
      </trkpt>
      <trkpt lat="41.47982426" lon="2.07535643">
        <ele>132.0</ele>
        <time>2021-03-03T09:11:58Z</time>
      </trkpt>
      <trkpt lat="41.47982658" lon="2.07550842">
        <ele>131.0</ele>
        <time>2021-03-03T09:11:59Z</time>
      </trkpt>
      <trkpt lat="41.47982792" lon="2.07566109">
        <ele>130.0</ele>
        <time>2021-03-03T09:12:00Z</time>
      </trkpt>
      <trkpt lat="41.47982459" lon="2.07581041">
        <ele>129.0</ele>
        <time>2021-03-03T09:12:01Z</time>
      </trkpt>
      <trkpt lat="41.47981459" lon="2.0759564">
        <ele>128.0</ele>
        <time>2021-03-03T09:12:02Z</time>
      </trkpt>
      <trkpt lat="41.47979727" lon="2.07609706">
        <ele>127.0</ele>
        <time>2021-03-03T09:12:03Z</time>
      </trkpt>
      <trkpt lat="41.47977428" lon="2.07622373">
        <ele>126.0</ele>
        <time>2021-03-03T09:12:04Z</time>
      </trkpt>
      <trkpt lat="41.47974329" lon="2.07634838">
        <ele>125.0</ele>
        <time>2021-03-03T09:12:05Z</time>
      </trkpt>
      <trkpt lat="41.47970229" lon="2.07647338">
        <ele>124.0</ele>
        <time>2021-03-03T09:12:06Z</time>
      </trkpt>
      <trkpt lat="41.47966029" lon="2.07658871">
        <ele>124.0</ele>
        <time>2021-03-03T09:12:07Z</time>
      </trkpt>
      <trkpt lat="41.47962497" lon="2.0766957">
        <ele>123.0</ele>
        <time>2021-03-03T09:12:08Z</time>
      </trkpt>
      <trkpt lat="41.47960464" lon="2.07679069">
        <ele>123.0</ele>
        <time>2021-03-03T09:12:09Z</time>
      </trkpt>
      <trkpt lat="41.47960464" lon="2.07687302">
        <ele>123.0</ele>
        <time>2021-03-03T09:12:10Z</time>
      </trkpt>
      <trkpt lat="41.47961997" lon="2.07694269">
        <ele>122.0</ele>
        <time>2021-03-03T09:12:11Z</time>
      </trkpt>
      <trkpt lat="41.47964362" lon="2.07700468">
        <ele>122.0</ele>
        <time>2021-03-03T09:12:12Z</time>
      </trkpt>
      <trkpt lat="41.47967229" lon="2.07706268">
        <ele>122.0</ele>
        <time>2021-03-03T09:12:13Z</time>
      </trkpt>
      <trkpt lat="41.47969861" lon="2.07712201">
        <ele>122.0</ele>
        <time>2021-03-03T09:12:14Z</time>
      </trkpt>
      <trkpt lat="41.4797196" lon="2.07718368">
        <ele>123.0</ele>
        <time>2021-03-03T09:12:15Z</time>
      </trkpt>
      <trkpt lat="41.47973594" lon="2.07724667">
        <ele>123.0</ele>
        <time>2021-03-03T09:12:16Z</time>
      </trkpt>
      <trkpt lat="41.47974793" lon="2.07731099">
        <ele>123.0</ele>
        <time>2021-03-03T09:12:17Z</time>
      </trkpt>
      <trkpt lat="41.47975893" lon="2.07737565">
        <ele>124.0</ele>
        <time>2021-03-03T09:12:18Z</time>
      </trkpt>
      <trkpt lat="41.47976826" lon="2.07743998">
        <ele>124.0</ele>
        <time>2021-03-03T09:12:19Z</time>
      </trkpt>
      <trkpt lat="41.47977625" lon="2.07750497">
        <ele>124.0</ele>
        <time>2021-03-03T09:12:20Z</time>
      </trkpt>
      <trkpt lat="41.47978325" lon="2.07757029">
        <ele>124.0</ele>
        <time>2021-03-03T09:12:21Z</time>
      </trkpt>
      <trkpt lat="41.47978924" lon="2.07763463">
        <ele>125.0</ele>
        <time>2021-03-03T09:12:22Z</time>
      </trkpt>
      <trkpt lat="41.47979424" lon="2.07769995">
        <ele>125.0</ele>
        <time>2021-03-03T09:12:23Z</time>
      </trkpt>
      <trkpt lat="41.4797979" lon="2.07776562">
        <ele>126.0</ele>
        <time>2021-03-03T09:12:24Z</time>
      </trkpt>
      <trkpt lat="41.47980023" lon="2.07783161">
        <ele>126.0</ele>
        <time>2021-03-03T09:12:25Z</time>
      </trkpt>
      <trkpt lat="41.47980256" lon="2.07789561">
        <ele>127.0</ele>
        <time>2021-03-03T09:12:26Z</time>
      </trkpt>
      <trkpt lat="41.47980655" lon="2.07795826">
        <ele>127.0</ele>
        <time>2021-03-03T09:12:27Z</time>
      </trkpt>
      <trkpt lat="41.47981222" lon="2.07801892">
        <ele>128.0</ele>
        <time>2021-03-03T09:12:28Z</time>
      </trkpt>
      <trkpt lat="41.47982055" lon="2.07807725">
        <ele>128.0</ele>
        <time>2021-03-03T09:12:29Z</time>
      </trkpt>
      <trkpt lat="41.47983389" lon="2.07813224">
        <ele>129.0</ele>
        <time>2021-03-03T09:12:30Z</time>
      </trkpt>
      <trkpt lat="41.47985255" lon="2.07818124">
        <ele>129.0</ele>
        <time>2021-03-03T09:12:31Z</time>
      </trkpt>
      <trkpt lat="41.47987621" lon="2.07822357">
        <ele>129.0</ele>
        <time>2021-03-03T09:12:32Z</time>
      </trkpt>
      <trkpt lat="41.47990354" lon="2.07826023">
        <ele>130.0</ele>
        <time>2021-03-03T09:12:33Z</time>
      </trkpt>
      <trkpt lat="41.47993421" lon="2.07829356">
        <ele>130.0</ele>
        <time>2021-03-03T09:12:34Z</time>
      </trkpt>
      <trkpt lat="41.47996887" lon="2.07832456">
        <ele>130.0</ele>
        <time>2021-03-03T09:12:35Z</time>
      </trkpt>
      <trkpt lat="41.48000552" lon="2.07835421">
        <ele>130.0</ele>
        <time>2021-03-03T09:12:36Z</time>
      </trkpt>
      <trkpt lat="41.48004119" lon="2.07838721">
        <ele>131.0</ele>
        <time>2021-03-03T09:12:37Z</time>
      </trkpt>
      <trkpt lat="41.48007452" lon="2.07842587">
        <ele>131.0</ele>
        <time>2021-03-03T09:12:38Z</time>
      </trkpt>
      <trkpt lat="41.48010385" lon="2.07847219">
        <ele>131.0</ele>
        <time>2021-03-03T09:12:39Z</time>
      </trkpt>
      <trkpt lat="41.48012885" lon="2.07852385">
        <ele>131.0</ele>
        <time>2021-03-03T09:12:40Z</time>
      </trkpt>
      <trkpt lat="41.48014917" lon="2.07857985">
        <ele>131.0</ele>
        <time>2021-03-03T09:12:41Z</time>
      </trkpt>
      <trkpt lat="41.48016683" lon="2.07863918">
        <ele>131.0</ele>
        <time>2021-03-03T09:12:42Z</time>
      </trkpt>
      <trkpt lat="41.48018016" lon="2.07870151">
        <ele>131.0</ele>
        <time>2021-03-03T09:12:43Z</time>
      </trkpt>
      <trkpt lat="41.48019248" lon="2.0787645">
        <ele>131.0</ele>
        <time>2021-03-03T09:12:44Z</time>
      </trkpt>
      <trkpt lat="41.48020282" lon="2.07882982">
        <ele>132.0</ele>
        <time>2021-03-03T09:12:45Z</time>
      </trkpt>
      <trkpt lat="41.48021248" lon="2.07889482">
        <ele>132.0</ele>
        <time>2021-03-03T09:12:46Z</time>
      </trkpt>
      <trkpt lat="41.48022181" lon="2.07896114">
        <ele>132.0</ele>
        <time>2021-03-03T09:12:47Z</time>
      </trkpt>
      <trkpt lat="41.48023046" lon="2.07902914">
        <ele>132.0</ele>
        <time>2021-03-03T09:12:48Z</time>
      </trkpt>
      <trkpt lat="41.4802388" lon="2.07909813">
        <ele>132.0</ele>
        <time>2021-03-03T09:12:49Z</time>
      </trkpt>
      <trkpt lat="41.48024713" lon="2.07916813">
        <ele>132.0</ele>
        <time>2021-03-03T09:12:50Z</time>
      </trkpt>
      <trkpt lat="41.48025612" lon="2.07923813">
        <ele>132.0</ele>
        <time>2021-03-03T09:12:51Z</time>
      </trkpt>
      <trkpt lat="41.48026478" lon="2.07930879">
        <ele>132.0</ele>
        <time>2021-03-03T09:12:52Z</time>
      </trkpt>
      <trkpt lat="41.48027178" lon="2.07938079">
        <ele>132.0</ele>
        <time>2021-03-03T09:12:53Z</time>
      </trkpt>
      <trkpt lat="41.48027477" lon="2.07945478">
        <ele>132.0</ele>
        <time>2021-03-03T09:12:54Z</time>
      </trkpt>
      <trkpt lat="41.48027277" lon="2.07953011">
        <ele>132.0</ele>
        <time>2021-03-03T09:12:55Z</time>
      </trkpt>
      <trkpt lat="41.48026311" lon="2.07960544">
        <ele>132.0</ele>
        <time>2021-03-03T09:12:56Z</time>
      </trkpt>
      <trkpt lat="41.48024311" lon="2.07967744">
        <ele>132.0</ele>
        <time>2021-03-03T09:12:57Z</time>
      </trkpt>
      <trkpt lat="41.48021579" lon="2.07974543">
        <ele>132.0</ele>
        <time>2021-03-03T09:12:58Z</time>
      </trkpt>
      <trkpt lat="41.48018345" lon="2.07981243">
        <ele>132.0</ele>
        <time>2021-03-03T09:12:59Z</time>
      </trkpt>
      <trkpt lat="41.48015113" lon="2.07988109">
        <ele>132.0</ele>
        <time>2021-03-03T09:13:00Z</time>
      </trkpt>
      <trkpt lat="41.4801208" lon="2.07995175">
        <ele>132.0</ele>
        <time>2021-03-03T09:13:01Z</time>
      </trkpt>
      <trkpt lat="41.48009646" lon="2.08002642">
        <ele>132.0</ele>
        <time>2021-03-03T09:13:02Z</time>
      </trkpt>
      <trkpt lat="41.48007914" lon="2.08010541">
        <ele>132.0</ele>
        <time>2021-03-03T09:13:03Z</time>
      </trkpt>
      <trkpt lat="41.48007048" lon="2.08018607">
        <ele>132.0</ele>
        <time>2021-03-03T09:13:04Z</time>
      </trkpt>
      <trkpt lat="41.48007114" lon="2.08026607">
        <ele>132.0</ele>
        <time>2021-03-03T09:13:05Z</time>
      </trkpt>
      <trkpt lat="41.48008214" lon="2.08034273">
        <ele>132.0</ele>
        <time>2021-03-03T09:13:06Z</time>
      </trkpt>
      <trkpt lat="41.48010181" lon="2.0804144">
        <ele>132.0</ele>
        <time>2021-03-03T09:13:07Z</time>
      </trkpt>
      <trkpt lat="41.48013114" lon="2.08047906">
        <ele>132.0</ele>
        <time>2021-03-03T09:13:08Z</time>
      </trkpt>
      <trkpt lat="41.4801688" lon="2.08053439">
        <ele>132.0</ele>
        <time>2021-03-03T09:13:09Z</time>
      </trkpt>
      <trkpt lat="41.4802128" lon="2.08058172">
        <ele>132.0</ele>
        <time>2021-03-03T09:13:10Z</time>
      </trkpt>
      <trkpt lat="41.48026279" lon="2.08061871">
        <ele>132.0</ele>
        <time>2021-03-03T09:13:11Z</time>
      </trkpt>
      <trkpt lat="41.48031745" lon="2.08064538">
        <ele>132.0</ele>
        <time>2021-03-03T09:13:12Z</time>
      </trkpt>
      <trkpt lat="41.48037544" lon="2.08066703">
        <ele>132.0</ele>
        <time>2021-03-03T09:13:13Z</time>
      </trkpt>
      <trkpt lat="41.48043311" lon="2.08069137">
        <ele>132.0</ele>
        <time>2021-03-03T09:13:14Z</time>
      </trkpt>
      <trkpt lat="41.48048878" lon="2.08072202">
        <ele>132.0</ele>
        <time>2021-03-03T09:13:15Z</time>
      </trkpt>
      <trkpt lat="41.48053977" lon="2.08076068">
        <ele>132.0</ele>
        <time>2021-03-03T09:13:16Z</time>
      </trkpt>
      <trkpt lat="41.48058609" lon="2.08080735">
        <ele>132.0</ele>
        <time>2021-03-03T09:13:17Z</time>
      </trkpt>
      <trkpt lat="41.48062841" lon="2.08085967">
        <ele>132.0</ele>
        <time>2021-03-03T09:13:18Z</time>
      </trkpt>
      <trkpt lat="41.48066807" lon="2.08091767">
        <ele>132.0</ele>
        <time>2021-03-03T09:13:19Z</time>
      </trkpt>
      <trkpt lat="41.48070507" lon="2.08097966">
        <ele>132.0</ele>
        <time>2021-03-03T09:13:20Z</time>
      </trkpt>
      <trkpt lat="41.48074039" lon="2.08104299">
        <ele>132.0</ele>
        <time>2021-03-03T09:13:21Z</time>
      </trkpt>
      <trkpt lat="41.48077673" lon="2.08110765">
        <ele>132.0</ele>
        <time>2021-03-03T09:13:22Z</time>
      </trkpt>
      <trkpt lat="41.48081172" lon="2.08117432">
        <ele>132.0</ele>
        <time>2021-03-03T09:13:23Z</time>
      </trkpt>
      <trkpt lat="41.48084705" lon="2.08124297">
        <ele>132.0</ele>
        <time>2021-03-03T09:13:24Z</time>
      </trkpt>
      <trkpt lat="41.48088204" lon="2.08131331">
        <ele>132.0</ele>
        <time>2021-03-03T09:13:25Z</time>
      </trkpt>
      <trkpt lat="41.48091771" lon="2.08138397">
        <ele>132.0</ele>
        <time>2021-03-03T09:13:26Z</time>
      </trkpt>
      <trkpt lat="41.48095436" lon="2.08145463">
        <ele>132.0</ele>
        <time>2021-03-03T09:13:27Z</time>
      </trkpt>
      <trkpt lat="41.48099103" lon="2.08152563">
        <ele>132.0</ele>
        <time>2021-03-03T09:13:28Z</time>
      </trkpt>
      <trkpt lat="41.48102802" lon="2.08159862">
        <ele>132.0</ele>
        <time>2021-03-03T09:13:29Z</time>
      </trkpt>
      <trkpt lat="41.48106435" lon="2.08167328">
        <ele>132.0</ele>
        <time>2021-03-03T09:13:30Z</time>
      </trkpt>
      <trkpt lat="41.48110002" lon="2.08174828">
        <ele>132.0</ele>
        <time>2021-03-03T09:13:31Z</time>
      </trkpt>
      <trkpt lat="41.48113535" lon="2.08182294">
        <ele>132.0</ele>
        <time>2021-03-03T09:13:32Z</time>
      </trkpt>
      <trkpt lat="41.48117034" lon="2.08189893">
        <ele>132.0</ele>
        <time>2021-03-03T09:13:33Z</time>
      </trkpt>
      <trkpt lat="41.48120601" lon="2.08197526">
        <ele>132.0</ele>
        <time>2021-03-03T09:13:34Z</time>
      </trkpt>
      <trkpt lat="41.48124268" lon="2.08204992">
        <ele>132.0</ele>
        <time>2021-03-03T09:13:35Z</time>
      </trkpt>
      <trkpt lat="41.48127967" lon="2.08212459">
        <ele>132.0</ele>
        <time>2021-03-03T09:13:36Z</time>
      </trkpt>
      <trkpt lat="41.48131732" lon="2.08219958">
        <ele>132.0</ele>
        <time>2021-03-03T09:13:37Z</time>
      </trkpt>
      <trkpt lat="41.48135599" lon="2.08227958">
        <ele>132.0</ele>
        <time>2021-03-03T09:13:38Z</time>
      </trkpt>
      <trkpt lat="41.48139166" lon="2.08235291">
        <ele>132.0</ele>
        <time>2021-03-03T09:13:39Z</time>
      </trkpt>
      <trkpt lat="41.48142631" lon="2.08242657">
        <ele>132.0</ele>
        <time>2021-03-03T09:13:40Z</time>
      </trkpt>
      <trkpt lat="41.48146164" lon="2.0825019">
        <ele>131.0</ele>
        <time>2021-03-03T09:13:41Z</time>
      </trkpt>
      <trkpt lat="41.4814973" lon="2.08257723">
        <ele>131.0</ele>
        <time>2021-03-03T09:13:42Z</time>
      </trkpt>
      <trkpt lat="41.48153397" lon="2.08265189">
        <ele>131.0</ele>
        <time>2021-03-03T09:13:43Z</time>
      </trkpt>
      <trkpt lat="41.48156964" lon="2.08272656">
        <ele>131.0</ele>
        <time>2021-03-03T09:13:44Z</time>
      </trkpt>
      <trkpt lat="41.48160496" lon="2.08280122">
        <ele>131.0</ele>
        <time>2021-03-03T09:13:45Z</time>
      </trkpt>
      <trkpt lat="41.48164029" lon="2.08287622">
        <ele>131.0</ele>
        <time>2021-03-03T09:13:46Z</time>
      </trkpt>
      <trkpt lat="41.48167596" lon="2.08295121">
        <ele>131.0</ele>
        <time>2021-03-03T09:13:47Z</time>
      </trkpt>
      <trkpt lat="41.48171095" lon="2.08302553">
        <ele>131.0</ele>
        <time>2021-03-03T09:13:48Z</time>
      </trkpt>
      <trkpt lat="41.48174594" lon="2.08309953">
        <ele>131.0</ele>
        <time>2021-03-03T09:13:49Z</time>
      </trkpt>
      <trkpt lat="41.48178194" lon="2.08317286">
        <ele>131.0</ele>
        <time>2021-03-03T09:13:50Z</time>
      </trkpt>
      <trkpt lat="41.48181761" lon="2.08324619">
        <ele>131.0</ele>
        <time>2021-03-03T09:13:51Z</time>
      </trkpt>
      <trkpt lat="41.4818526" lon="2.08332119">
        <ele>131.0</ele>
        <time>2021-03-03T09:13:52Z</time>
      </trkpt>
      <trkpt lat="41.4818886" lon="2.08339784">
        <ele>131.0</ele>
        <time>2021-03-03T09:13:53Z</time>
      </trkpt>
      <trkpt lat="41.48192493" lon="2.08347551">
        <ele>131.0</ele>
        <time>2021-03-03T09:13:54Z</time>
      </trkpt>
      <trkpt lat="41.48196126" lon="2.08355384">
        <ele>130.0</ele>
        <time>2021-03-03T09:13:55Z</time>
      </trkpt>
      <trkpt lat="41.48199825" lon="2.08363217">
        <ele>130.0</ele>
        <time>2021-03-03T09:13:56Z</time>
      </trkpt>
      <trkpt lat="41.48203625" lon="2.08371182">
        <ele>130.0</ele>
        <time>2021-03-03T09:13:57Z</time>
      </trkpt>
      <trkpt lat="41.48207424" lon="2.08379182">
        <ele>130.0</ele>
        <time>2021-03-03T09:13:58Z</time>
      </trkpt>
      <trkpt lat="41.48211358" lon="2.08387416">
        <ele>129.0</ele>
        <time>2021-03-03T09:13:59Z</time>
      </trkpt>
      <trkpt lat="41.48215357" lon="2.08395815">
        <ele>129.0</ele>
        <time>2021-03-03T09:14:00Z</time>
      </trkpt>
      <trkpt lat="41.48219423" lon="2.08404315">
        <ele>129.0</ele>
        <time>2021-03-03T09:14:01Z</time>
      </trkpt>
      <trkpt lat="41.48223456" lon="2.08413014">
        <ele>129.0</ele>
        <time>2021-03-03T09:14:02Z</time>
      </trkpt>
      <trkpt lat="41.48227488" lon="2.08422014">
        <ele>129.0</ele>
        <time>2021-03-03T09:14:03Z</time>
      </trkpt>
      <trkpt lat="41.48231488" lon="2.08431113">
        <ele>129.0</ele>
        <time>2021-03-03T09:14:04Z</time>
      </trkpt>
      <trkpt lat="41.4823562" lon="2.08440312">
        <ele>129.0</ele>
        <time>2021-03-03T09:14:05Z</time>
      </trkpt>
      <trkpt lat="41.48239754" lon="2.08449545">
        <ele>129.0</ele>
        <time>2021-03-03T09:14:06Z</time>
      </trkpt>
      <trkpt lat="41.48243954" lon="2.08458978">
        <ele>128.0</ele>
        <time>2021-03-03T09:14:07Z</time>
      </trkpt>
      <trkpt lat="41.48248087" lon="2.08468744">
        <ele>128.0</ele>
        <time>2021-03-03T09:14:08Z</time>
      </trkpt>
      <trkpt lat="41.48252119" lon="2.08478811">
        <ele>127.0</ele>
        <time>2021-03-03T09:14:09Z</time>
      </trkpt>
      <trkpt lat="41.48255986" lon="2.0848921">
        <ele>127.0</ele>
        <time>2021-03-03T09:14:10Z</time>
      </trkpt>
      <trkpt lat="41.48259619" lon="2.08499943">
        <ele>127.0</ele>
        <time>2021-03-03T09:14:11Z</time>
      </trkpt>
      <trkpt lat="41.48263052" lon="2.08510875">
        <ele>126.0</ele>
        <time>2021-03-03T09:14:12Z</time>
      </trkpt>
      <trkpt lat="41.48266217" lon="2.08522009">
        <ele>126.0</ele>
        <time>2021-03-03T09:14:13Z</time>
      </trkpt>
      <trkpt lat="41.48269083" lon="2.08533308">
        <ele>125.0</ele>
        <time>2021-03-03T09:14:14Z</time>
      </trkpt>
      <trkpt lat="41.48271583" lon="2.08544874">
        <ele>125.0</ele>
        <time>2021-03-03T09:14:15Z</time>
      </trkpt>
      <trkpt lat="41.48273716" lon="2.08556608">
        <ele>125.0</ele>
        <time>2021-03-03T09:14:16Z</time>
      </trkpt>
      <trkpt lat="41.48275449" lon="2.08568474">
        <ele>124.0</ele>
        <time>2021-03-03T09:14:17Z</time>
      </trkpt>
      <trkpt lat="41.48276849" lon="2.08580473">
        <ele>124.0</ele>
        <time>2021-03-03T09:14:18Z</time>
      </trkpt>
      <trkpt lat="41.48278014" lon="2.0859254">
        <ele>123.0</ele>
        <time>2021-03-03T09:14:19Z</time>
      </trkpt>
      <trkpt lat="41.48278848" lon="2.08604672">
        <ele>123.0</ele>
        <time>2021-03-03T09:14:20Z</time>
      </trkpt>
      <trkpt lat="41.48279348" lon="2.08616772">
        <ele>123.0</ele>
        <time>2021-03-03T09:14:21Z</time>
      </trkpt>
      <trkpt lat="41.48279547" lon="2.08628972">
        <ele>122.0</ele>
        <time>2021-03-03T09:14:22Z</time>
      </trkpt>
      <trkpt lat="41.48279381" lon="2.08641105">
        <ele>122.0</ele>
        <time>2021-03-03T09:14:23Z</time>
      </trkpt>
      <trkpt lat="41.48278948" lon="2.0865317">
        <ele>121.0</ele>
        <time>2021-03-03T09:14:24Z</time>
      </trkpt>
      <trkpt lat="41.48278182" lon="2.0866517">
        <ele>121.0</ele>
        <time>2021-03-03T09:14:25Z</time>
      </trkpt>
      <trkpt lat="41.4827705" lon="2.08677136">
        <ele>120.0</ele>
        <time>2021-03-03T09:14:26Z</time>
      </trkpt>
      <trkpt lat="41.48275583" lon="2.08689103">
        <ele>120.0</ele>
        <time>2021-03-03T09:14:27Z</time>
      </trkpt>
      <trkpt lat="41.48273817" lon="2.08700969">
        <ele>120.0</ele>
        <time>2021-03-03T09:14:28Z</time>
      </trkpt>
      <trkpt lat="41.48271818" lon="2.08712703">
        <ele>120.0</ele>
        <time>2021-03-03T09:14:29Z</time>
      </trkpt>
      <trkpt lat="41.48269952" lon="2.08723868">
        <ele>119.0</ele>
        <time>2021-03-03T09:14:30Z</time>
      </trkpt>
      <trkpt lat="41.48267953" lon="2.08735068">
        <ele>119.0</ele>
        <time>2021-03-03T09:14:31Z</time>
      </trkpt>
      <trkpt lat="41.4826582" lon="2.08745568">
        <ele>119.0</ele>
        <time>2021-03-03T09:14:32Z</time>
      </trkpt>
      <trkpt lat="41.4826372" lon="2.08755101">
        <ele>119.0</ele>
        <time>2021-03-03T09:14:33Z</time>
      </trkpt>
      <trkpt lat="41.48261487" lon="2.08764667">
        <ele>118.0</ele>
        <time>2021-03-03T09:14:34Z</time>
      </trkpt>
      <trkpt lat="41.48259155" lon="2.08774366">
        <ele>118.0</ele>
        <time>2021-03-03T09:14:35Z</time>
      </trkpt>
      <trkpt lat="41.48256889" lon="2.08784232">
        <ele>118.0</ele>
        <time>2021-03-03T09:14:36Z</time>
      </trkpt>
      <trkpt lat="41.48254489" lon="2.08794264">
        <ele>118.0</ele>
        <time>2021-03-03T09:14:37Z</time>
      </trkpt>
      <trkpt lat="41.48252057" lon="2.08804498">
        <ele>117.0</ele>
        <time>2021-03-03T09:14:38Z</time>
      </trkpt>
      <trkpt lat="41.4824939" lon="2.08815497">
        <ele>117.0</ele>
        <time>2021-03-03T09:14:39Z</time>
      </trkpt>
      <trkpt lat="41.48246824" lon="2.08825697">
        <ele>117.0</ele>
        <time>2021-03-03T09:14:40Z</time>
      </trkpt>
      <trkpt lat="41.48244159" lon="2.0883613">
        <ele>117.0</ele>
        <time>2021-03-03T09:14:41Z</time>
      </trkpt>
      <trkpt lat="41.48241525" lon="2.08846662">
        <ele>117.0</ele>
        <time>2021-03-03T09:14:42Z</time>
      </trkpt>
      <trkpt lat="41.48238793" lon="2.08857262">
        <ele>116.0</ele>
        <time>2021-03-03T09:14:44Z</time>
      </trkpt>
      <trkpt lat="41.48236093" lon="2.08867796">
        <ele>116.0</ele>
        <time>2021-03-03T09:14:44Z</time>
      </trkpt>
      <trkpt lat="41.4823336" lon="2.08878362">
        <ele>116.0</ele>
        <time>2021-03-03T09:14:45Z</time>
      </trkpt>
      <trkpt lat="41.48230694" lon="2.08888828">
        <ele>116.0</ele>
        <time>2021-03-03T09:14:46Z</time>
      </trkpt>
      <trkpt lat="41.48228162" lon="2.08899195">
        <ele>115.0</ele>
        <time>2021-03-03T09:14:47Z</time>
      </trkpt>
      <trkpt lat="41.48225563" lon="2.08909328">
        <ele>115.0</ele>
        <time>2021-03-03T09:14:48Z</time>
      </trkpt>
      <trkpt lat="41.48222829" lon="2.08919327">
        <ele>115.0</ele>
        <time>2021-03-03T09:14:49Z</time>
      </trkpt>
      <trkpt lat="41.48220063" lon="2.08929193">
        <ele>115.0</ele>
        <time>2021-03-03T09:14:50Z</time>
      </trkpt>
      <trkpt lat="41.48217397" lon="2.08938893">
        <ele>115.0</ele>
        <time>2021-03-03T09:14:51Z</time>
      </trkpt>
      <trkpt lat="41.48214764" lon="2.08948326">
        <ele>115.0</ele>
        <time>2021-03-03T09:14:52Z</time>
      </trkpt>
      <trkpt lat="41.48211997" lon="2.08958092">
        <ele>115.0</ele>
        <time>2021-03-03T09:14:53Z</time>
      </trkpt>
      <trkpt lat="41.48209398" lon="2.08966892">
        <ele>115.0</ele>
        <time>2021-03-03T09:14:55Z</time>
      </trkpt>
      <trkpt lat="41.48206832" lon="2.08975591">
        <ele>115.0</ele>
        <time>2021-03-03T09:14:55Z</time>
      </trkpt>
      <trkpt lat="41.48204066" lon="2.0898479">
        <ele>115.0</ele>
        <time>2021-03-03T09:14:56Z</time>
      </trkpt>
      <trkpt lat="41.48201566" lon="2.08993156">
        <ele>115.0</ele>
        <time>2021-03-03T09:14:57Z</time>
      </trkpt>
      <trkpt lat="41.48199066" lon="2.0900149">
        <ele>115.0</ele>
        <time>2021-03-03T09:14:58Z</time>
      </trkpt>
      <trkpt lat="41.481965" lon="2.09009655">
        <ele>115.0</ele>
        <time>2021-03-03T09:14:59Z</time>
      </trkpt>
      <trkpt lat="41.48193834" lon="2.09017622">
        <ele>115.0</ele>
        <time>2021-03-03T09:15:00Z</time>
      </trkpt>
      <trkpt lat="41.48191068" lon="2.09025488">
        <ele>116.0</ele>
        <time>2021-03-03T09:15:01Z</time>
      </trkpt>
      <trkpt lat="41.48188034" lon="2.09033687">
        <ele>116.0</ele>
        <time>2021-03-03T09:15:02Z</time>
      </trkpt>
      <trkpt lat="41.48185102" lon="2.09040986">
        <ele>116.0</ele>
        <time>2021-03-03T09:15:03Z</time>
      </trkpt>
      <trkpt lat="41.48182035" lon="2.09048286">
        <ele>116.0</ele>
        <time>2021-03-03T09:15:04Z</time>
      </trkpt>
      <trkpt lat="41.4817867" lon="2.09056085">
        <ele>116.0</ele>
        <time>2021-03-03T09:15:05Z</time>
      </trkpt>
      <trkpt lat="41.48175471" lon="2.09063185">
        <ele>116.0</ele>
        <time>2021-03-03T09:15:06Z</time>
      </trkpt>
      <trkpt lat="41.48172171" lon="2.09070284">
        <ele>116.0</ele>
        <time>2021-03-03T09:15:07Z</time>
      </trkpt>
      <trkpt lat="41.48168772" lon="2.0907725">
        <ele>117.0</ele>
        <time>2021-03-03T09:15:08Z</time>
      </trkpt>
      <trkpt lat="41.48165272" lon="2.0908425">
        <ele>117.0</ele>
        <time>2021-03-03T09:15:09Z</time>
      </trkpt>
      <trkpt lat="41.48161638" lon="2.0909125">
        <ele>117.0</ele>
        <time>2021-03-03T09:15:10Z</time>
      </trkpt>
      <trkpt lat="41.48158239" lon="2.09098416">
        <ele>117.0</ele>
        <time>2021-03-03T09:15:11Z</time>
      </trkpt>
      <trkpt lat="41.48155173" lon="2.09105216">
        <ele>117.0</ele>
        <time>2021-03-03T09:15:12Z</time>
      </trkpt>
      <trkpt lat="41.4815204" lon="2.09112749">
        <ele>117.0</ele>
        <time>2021-03-03T09:15:13Z</time>
      </trkpt>
      <trkpt lat="41.48149175" lon="2.09120415">
        <ele>117.0</ele>
        <time>2021-03-03T09:15:14Z</time>
      </trkpt>
      <trkpt lat="41.48146475" lon="2.09128182">
        <ele>117.0</ele>
        <time>2021-03-03T09:15:15Z</time>
      </trkpt>
      <trkpt lat="41.48143842" lon="2.09135914">
        <ele>117.0</ele>
        <time>2021-03-03T09:15:16Z</time>
      </trkpt>
      <trkpt lat="41.4814101" lon="2.09143447">
        <ele>117.0</ele>
        <time>2021-03-03T09:15:16Z</time>
      </trkpt>
      <trkpt lat="41.48137778" lon="2.09150781">
        <ele>117.0</ele>
        <time>2021-03-03T09:15:17Z</time>
      </trkpt>
      <trkpt lat="41.48134044" lon="2.09157947">
        <ele>117.0</ele>
        <time>2021-03-03T09:15:18Z</time>
      </trkpt>
      <trkpt lat="41.48130079" lon="2.09164646">
        <ele>117.0</ele>
        <time>2021-03-03T09:15:19Z</time>
      </trkpt>
      <trkpt lat="41.48125713" lon="2.09171313">
        <ele>117.0</ele>
        <time>2021-03-03T09:15:20Z</time>
      </trkpt>
      <trkpt lat="41.48121147" lon="2.09177779">
        <ele>117.0</ele>
        <time>2021-03-03T09:15:21Z</time>
      </trkpt>
      <trkpt lat="41.48116247" lon="2.09184278">
        <ele>117.0</ele>
        <time>2021-03-03T09:15:22Z</time>
      </trkpt>
      <trkpt lat="41.48111115" lon="2.09190844">
        <ele>117.0</ele>
        <time>2021-03-03T09:15:23Z</time>
      </trkpt>
      <trkpt lat="41.48105882" lon="2.09197377">
        <ele>117.0</ele>
        <time>2021-03-03T09:15:24Z</time>
      </trkpt>
      <trkpt lat="41.48100548" lon="2.09203843">
        <ele>117.0</ele>
        <time>2021-03-03T09:15:25Z</time>
      </trkpt>
      <trkpt lat="41.48095083" lon="2.09210376">
        <ele>117.0</ele>
        <time>2021-03-03T09:15:27Z</time>
      </trkpt>
      <trkpt lat="41.48089449" lon="2.09217009">
        <ele>117.0</ele>
        <time>2021-03-03T09:15:27Z</time>
      </trkpt>
      <trkpt lat="41.48083649" lon="2.09223809">
        <ele>117.0</ele>
        <time>2021-03-03T09:15:28Z</time>
      </trkpt>
      <trkpt lat="41.48077783" lon="2.09230675">
        <ele>117.0</ele>
        <time>2021-03-03T09:15:29Z</time>
      </trkpt>
      <trkpt lat="41.48071817" lon="2.09237708">
        <ele>116.0</ele>
        <time>2021-03-03T09:15:30Z</time>
      </trkpt>
      <trkpt lat="41.48065851" lon="2.09244808">
        <ele>116.0</ele>
        <time>2021-03-03T09:15:31Z</time>
      </trkpt>
      <trkpt lat="41.48059751" lon="2.09252007">
        <ele>116.0</ele>
        <time>2021-03-03T09:15:32Z</time>
      </trkpt>
      <trkpt lat="41.48053686" lon="2.09259373">
        <ele>116.0</ele>
        <time>2021-03-03T09:15:33Z</time>
      </trkpt>
      <trkpt lat="41.48047753" lon="2.09267038">
        <ele>115.0</ele>
        <time>2021-03-03T09:15:34Z</time>
      </trkpt>
      <trkpt lat="41.4804242" lon="2.09275237">
        <ele>115.0</ele>
        <time>2021-03-03T09:15:35Z</time>
      </trkpt>
      <trkpt lat="41.48037621" lon="2.09283837">
        <ele>114.0</ele>
        <time>2021-03-03T09:15:36Z</time>
      </trkpt>
      <trkpt lat="41.48032754" lon="2.09292104">
        <ele>114.0</ele>
        <time>2021-03-03T09:15:37Z</time>
      </trkpt>
      <trkpt lat="41.48027822" lon="2.09299036">
        <ele>114.0</ele>
        <time>2021-03-03T09:15:38Z</time>
      </trkpt>
      <trkpt lat="41.48022289" lon="2.09305003">
        <ele>114.0</ele>
        <time>2021-03-03T09:15:39Z</time>
      </trkpt>
      <trkpt lat="41.48016056" lon="2.09310136">
        <ele>113.0</ele>
        <time>2021-03-03T09:15:40Z</time>
      </trkpt>
      <trkpt lat="41.48009291" lon="2.09314635">
        <ele>113.0</ele>
        <time>2021-03-03T09:15:41Z</time>
      </trkpt>
      <trkpt lat="41.48001625" lon="2.09319169">
        <ele>112.0</ele>
        <time>2021-03-03T09:15:42Z</time>
      </trkpt>
      <trkpt lat="41.47993925" lon="2.09323602">
        <ele>112.0</ele>
        <time>2021-03-03T09:15:43Z</time>
      </trkpt>
      <trkpt lat="41.47986159" lon="2.09328301">
        <ele>112.0</ele>
        <time>2021-03-03T09:15:44Z</time>
      </trkpt>
      <trkpt lat="41.47978494" lon="2.09333467">
        <ele>112.0</ele>
        <time>2021-03-03T09:15:45Z</time>
      </trkpt>
      <trkpt lat="41.47970994" lon="2.09339199">
        <ele>111.0</ele>
        <time>2021-03-03T09:15:46Z</time>
      </trkpt>
      <trkpt lat="41.47963595" lon="2.09345431">
        <ele>111.0</ele>
        <time>2021-03-03T09:15:47Z</time>
      </trkpt>
      <trkpt lat="41.47956295" lon="2.09352031">
        <ele>110.0</ele>
        <time>2021-03-03T09:15:48Z</time>
      </trkpt>
      <trkpt lat="41.47949128" lon="2.0935883">
        <ele>110.0</ele>
        <time>2021-03-03T09:15:49Z</time>
      </trkpt>
      <trkpt lat="41.47941962" lon="2.09365864">
        <ele>110.0</ele>
        <time>2021-03-03T09:15:50Z</time>
      </trkpt>
      <trkpt lat="41.47934796" lon="2.0937303">
        <ele>110.0</ele>
        <time>2021-03-03T09:15:51Z</time>
      </trkpt>
      <trkpt lat="41.4792763" lon="2.09380329">
        <ele>109.0</ele>
        <time>2021-03-03T09:15:52Z</time>
      </trkpt>
      <trkpt lat="41.47920397" lon="2.09387795">
        <ele>109.0</ele>
        <time>2021-03-03T09:15:53Z</time>
      </trkpt>
      <trkpt lat="41.47913097" lon="2.09395295">
        <ele>109.0</ele>
        <time>2021-03-03T09:15:54Z</time>
      </trkpt>
      <trkpt lat="41.47905664" lon="2.09402894">
        <ele>109.0</ele>
        <time>2021-03-03T09:15:55Z</time>
      </trkpt>
      <trkpt lat="41.47898164" lon="2.09410427">
        <ele>108.0</ele>
        <time>2021-03-03T09:15:56Z</time>
      </trkpt>
      <trkpt lat="41.47890665" lon="2.09418194">
        <ele>107.0</ele>
        <time>2021-03-03T09:15:57Z</time>
      </trkpt>
      <trkpt lat="41.47883199" lon="2.0942606">
        <ele>107.0</ele>
        <time>2021-03-03T09:15:58Z</time>
      </trkpt>
      <trkpt lat="41.478758" lon="2.0943416">
        <ele>106.0</ele>
        <time>2021-03-03T09:15:59Z</time>
      </trkpt>
      <trkpt lat="41.47868433" lon="2.0944246">
        <ele>106.0</ele>
        <time>2021-03-03T09:16:00Z</time>
      </trkpt>
      <trkpt lat="41.47861201" lon="2.09450792">
        <ele>105.0</ele>
        <time>2021-03-03T09:16:01Z</time>
      </trkpt>
      <trkpt lat="41.47854034" lon="2.09459192">
        <ele>105.0</ele>
        <time>2021-03-03T09:16:02Z</time>
      </trkpt>
      <trkpt lat="41.47846835" lon="2.09467691">
        <ele>105.0</ele>
        <time>2021-03-03T09:16:03Z</time>
      </trkpt>
      <trkpt lat="41.47839668" lon="2.09476158">
        <ele>104.0</ele>
        <time>2021-03-03T09:16:04Z</time>
      </trkpt>
      <trkpt lat="41.47832603" lon="2.09484657">
        <ele>104.0</ele>
        <time>2021-03-03T09:16:05Z</time>
      </trkpt>
      <trkpt lat="41.4782567" lon="2.09493057">
        <ele>103.0</ele>
        <time>2021-03-03T09:16:06Z</time>
      </trkpt>
      <trkpt lat="41.47818804" lon="2.09501356">
        <ele>103.0</ele>
        <time>2021-03-03T09:16:07Z</time>
      </trkpt>
      <trkpt lat="41.4781147" lon="2.09510189">
        <ele>102.0</ele>
        <time>2021-03-03T09:16:08Z</time>
      </trkpt>
      <trkpt lat="41.47804705" lon="2.09518356">
        <ele>102.0</ele>
        <time>2021-03-03T09:16:09Z</time>
      </trkpt>
      <trkpt lat="41.47797771" lon="2.09526488">
        <ele>101.0</ele>
        <time>2021-03-03T09:16:10Z</time>
      </trkpt>
      <trkpt lat="41.47790839" lon="2.09534721">
        <ele>101.0</ele>
        <time>2021-03-03T09:16:11Z</time>
      </trkpt>
      <trkpt lat="41.47783872" lon="2.0954302">
        <ele>100.0</ele>
        <time>2021-03-03T09:16:12Z</time>
      </trkpt>
      <trkpt lat="41.4777704" lon="2.09551354">
        <ele>100.0</ele>
        <time>2021-03-03T09:16:13Z</time>
      </trkpt>
      <trkpt lat="41.47770107" lon="2.0955972">
        <ele>99.0</ele>
        <time>2021-03-03T09:16:14Z</time>
      </trkpt>
      <trkpt lat="41.47763407" lon="2.09568053">
        <ele>98.0</ele>
        <time>2021-03-03T09:16:15Z</time>
      </trkpt>
      <trkpt lat="41.47756308" lon="2.09576686">
        <ele>98.0</ele>
        <time>2021-03-03T09:16:16Z</time>
      </trkpt>
      <trkpt lat="41.47749709" lon="2.09584018">
        <ele>98.0</ele>
        <time>2021-03-03T09:16:17Z</time>
      </trkpt>
      <trkpt lat="41.47742742" lon="2.09590152">
        <ele>97.0</ele>
        <time>2021-03-03T09:16:18Z</time>
      </trkpt>
      <trkpt lat="41.47735442" lon="2.09594952">
        <ele>97.0</ele>
        <time>2021-03-03T09:16:19Z</time>
      </trkpt>
      <trkpt lat="41.47727776" lon="2.09598685">
        <ele>97.0</ele>
        <time>2021-03-03T09:16:20Z</time>
      </trkpt>
      <trkpt lat="41.47719911" lon="2.09602384">
        <ele>97.0</ele>
        <time>2021-03-03T09:16:21Z</time>
      </trkpt>
      <trkpt lat="41.47712077" lon="2.0960715">
        <ele>97.0</ele>
        <time>2021-03-03T09:16:22Z</time>
      </trkpt>
      <trkpt lat="41.47705511" lon="2.09612516">
        <ele>96.0</ele>
        <time>2021-03-03T09:16:23Z</time>
      </trkpt>
      <trkpt lat="41.47699878" lon="2.0961915">
        <ele>96.0</ele>
        <time>2021-03-03T09:16:24Z</time>
      </trkpt>
      <trkpt lat="41.47695245" lon="2.09626882">
        <ele>96.0</ele>
        <time>2021-03-03T09:16:25Z</time>
      </trkpt>
      <trkpt lat="41.47691546" lon="2.09635482">
        <ele>96.0</ele>
        <time>2021-03-03T09:16:26Z</time>
      </trkpt>
      <trkpt lat="41.4768808" lon="2.09644448">
        <ele>96.0</ele>
        <time>2021-03-03T09:16:27Z</time>
      </trkpt>
      <trkpt lat="41.47684314" lon="2.09653348">
        <ele>96.0</ele>
        <time>2021-03-03T09:16:28Z</time>
      </trkpt>
      <trkpt lat="41.47680114" lon="2.0966178">
        <ele>96.0</ele>
        <time>2021-03-03T09:16:29Z</time>
      </trkpt>
      <trkpt lat="41.47675515" lon="2.09669847">
        <ele>96.0</ele>
        <time>2021-03-03T09:16:30Z</time>
      </trkpt>
      <trkpt lat="41.47670416" lon="2.0967768">
        <ele>96.0</ele>
        <time>2021-03-03T09:16:31Z</time>
      </trkpt>
      <trkpt lat="41.47665017" lon="2.09685513">
        <ele>95.0</ele>
        <time>2021-03-03T09:16:32Z</time>
      </trkpt>
      <trkpt lat="41.47659283" lon="2.09693447">
        <ele>95.0</ele>
        <time>2021-03-03T09:16:33Z</time>
      </trkpt>
      <trkpt lat="41.47653284" lon="2.09701646">
        <ele>94.0</ele>
        <time>2021-03-03T09:16:34Z</time>
      </trkpt>
      <trkpt lat="41.47646985" lon="2.09710012">
        <ele>94.0</ele>
        <time>2021-03-03T09:16:35Z</time>
      </trkpt>
      <trkpt lat="41.47640419" lon="2.09718511">
        <ele>93.0</ele>
        <time>2021-03-03T09:16:36Z</time>
      </trkpt>
      <trkpt lat="41.47633653" lon="2.09727111">
        <ele>93.0</ele>
        <time>2021-03-03T09:16:37Z</time>
      </trkpt>
      <trkpt lat="41.47626821" lon="2.09735777">
        <ele>92.0</ele>
        <time>2021-03-03T09:16:38Z</time>
      </trkpt>
      <trkpt lat="41.47619554" lon="2.09744876">
        <ele>91.0</ele>
        <time>2021-03-03T09:16:39Z</time>
      </trkpt>
      <trkpt lat="41.47612788" lon="2.09752809">
        <ele>91.0</ele>
        <time>2021-03-03T09:16:40Z</time>
      </trkpt>
      <trkpt lat="41.47605255" lon="2.09760342">
        <ele>90.0</ele>
        <time>2021-03-03T09:16:41Z</time>
      </trkpt>
      <trkpt lat="41.47597556" lon="2.09766574">
        <ele>90.0</ele>
        <time>2021-03-03T09:16:42Z</time>
      </trkpt>
      <trkpt lat="41.47590389" lon="2.09771973">
        <ele>89.0</ele>
        <time>2021-03-03T09:16:43Z</time>
      </trkpt>
      <trkpt lat="41.47583624" lon="2.09777672">
        <ele>89.0</ele>
        <time>2021-03-03T09:16:44Z</time>
      </trkpt>
      <trkpt lat="41.47578325" lon="2.09784305">
        <ele>89.0</ele>
        <time>2021-03-03T09:16:45Z</time>
      </trkpt>
      <trkpt lat="41.47575058" lon="2.09791671">
        <ele>89.0</ele>
        <time>2021-03-03T09:16:46Z</time>
      </trkpt>
      <trkpt lat="41.47573725" lon="2.0979927">
        <ele>88.0</ele>
        <time>2021-03-03T09:16:47Z</time>
      </trkpt>
      <trkpt lat="41.47573891" lon="2.09806869">
        <ele>88.0</ele>
        <time>2021-03-03T09:16:48Z</time>
      </trkpt>
      <trkpt lat="41.4757519" lon="2.09814202">
        <ele>88.0</ele>
        <time>2021-03-03T09:16:49Z</time>
      </trkpt>
      <trkpt lat="41.47577357" lon="2.09821235">
        <ele>88.0</ele>
        <time>2021-03-03T09:16:50Z</time>
      </trkpt>
      <trkpt lat="41.47580223" lon="2.09827901">
        <ele>88.0</ele>
        <time>2021-03-03T09:16:51Z</time>
      </trkpt>
      <trkpt lat="41.47583489" lon="2.098345">
        <ele>88.0</ele>
        <time>2021-03-03T09:16:52Z</time>
      </trkpt>
      <trkpt lat="41.47586756" lon="2.09840966">
        <ele>88.0</ele>
        <time>2021-03-03T09:16:53Z</time>
      </trkpt>
      <trkpt lat="41.47590122" lon="2.09847398">
        <ele>88.0</ele>
        <time>2021-03-03T09:16:54Z</time>
      </trkpt>
      <trkpt lat="41.47593522" lon="2.09853732">
        <ele>88.0</ele>
        <time>2021-03-03T09:16:55Z</time>
      </trkpt>
      <trkpt lat="41.47596821" lon="2.09859632">
        <ele>88.0</ele>
        <time>2021-03-03T09:16:56Z</time>
      </trkpt>
      <trkpt lat="41.47600054" lon="2.09864964">
        <ele>88.0</ele>
        <time>2021-03-03T09:16:57Z</time>
      </trkpt>
      <trkpt lat="41.47603087" lon="2.09869697">
        <ele>88.0</ele>
        <time>2021-03-03T09:16:58Z</time>
      </trkpt>
      <trkpt lat="41.47605887" lon="2.09873863">
        <ele>89.0</ele>
        <time>2021-03-03T09:16:59Z</time>
      </trkpt>
      <trkpt lat="41.4760842" lon="2.0987753">
        <ele>89.0</ele>
        <time>2021-03-03T09:17:00Z</time>
      </trkpt>
      <trkpt lat="41.47610853" lon="2.09880862">
        <ele>89.0</ele>
        <time>2021-03-03T09:17:01Z</time>
      </trkpt>
      <trkpt lat="41.47613286" lon="2.09884095">
        <ele>89.0</ele>
        <time>2021-03-03T09:17:02Z</time>
      </trkpt>
      <trkpt lat="41.4761582" lon="2.09887529">
        <ele>89.0</ele>
        <time>2021-03-03T09:17:03Z</time>
      </trkpt>
      <trkpt lat="41.47618385" lon="2.09891294">
        <ele>89.0</ele>
        <time>2021-03-03T09:17:04Z</time>
      </trkpt>
      <trkpt lat="41.47620984" lon="2.09895494">
        <ele>89.0</ele>
        <time>2021-03-03T09:17:05Z</time>
      </trkpt>
      <trkpt lat="41.47623883" lon="2.09899827">
        <ele>90.0</ele>
        <time>2021-03-03T09:17:06Z</time>
      </trkpt>
      <trkpt lat="41.4762695" lon="2.0990426">
        <ele>90.0</ele>
        <time>2021-03-03T09:17:07Z</time>
      </trkpt>
      <trkpt lat="41.47630183" lon="2.09908826">
        <ele>90.0</ele>
        <time>2021-03-03T09:17:08Z</time>
      </trkpt>
      <trkpt lat="41.47633517" lon="2.09913491">
        <ele>90.0</ele>
        <time>2021-03-03T09:17:09Z</time>
      </trkpt>
      <trkpt lat="41.47636882" lon="2.09918225">
        <ele>90.0</ele>
        <time>2021-03-03T09:17:10Z</time>
      </trkpt>
      <trkpt lat="41.47640281" lon="2.09922958">
        <ele>90.0</ele>
        <time>2021-03-03T09:17:11Z</time>
      </trkpt>
      <trkpt lat="41.4764378" lon="2.09927758">
        <ele>90.0</ele>
        <time>2021-03-03T09:17:12Z</time>
      </trkpt>
      <trkpt lat="41.47647414" lon="2.09932491">
        <ele>90.0</ele>
        <time>2021-03-03T09:17:13Z</time>
      </trkpt>
      <trkpt lat="41.47651079" lon="2.09937324">
        <ele>90.0</ele>
        <time>2021-03-03T09:17:14Z</time>
      </trkpt>
      <trkpt lat="41.47654646" lon="2.09942357">
        <ele>90.0</ele>
        <time>2021-03-03T09:17:15Z</time>
      </trkpt>
      <trkpt lat="41.47658313" lon="2.09947457">
        <ele>90.0</ele>
        <time>2021-03-03T09:17:16Z</time>
      </trkpt>
      <trkpt lat="41.47662345" lon="2.09952123">
        <ele>90.0</ele>
        <time>2021-03-03T09:17:17Z</time>
      </trkpt>
      <trkpt lat="41.47666745" lon="2.09956023">
        <ele>90.0</ele>
        <time>2021-03-03T09:17:18Z</time>
      </trkpt>
      <trkpt lat="41.47671512" lon="2.09958755">
        <ele>90.0</ele>
        <time>2021-03-03T09:17:19Z</time>
      </trkpt>
      <trkpt lat="41.47676411" lon="2.09959988">
        <ele>90.0</ele>
        <time>2021-03-03T09:17:20Z</time>
      </trkpt>
      <trkpt lat="41.47681243" lon="2.09959789">
        <ele>90.0</ele>
        <time>2021-03-03T09:17:21Z</time>
      </trkpt>
      <trkpt lat="41.47685809" lon="2.09958356">
        <ele>90.0</ele>
        <time>2021-03-03T09:17:22Z</time>
      </trkpt>
      <trkpt lat="41.47690009" lon="2.09956157">
        <ele>90.0</ele>
        <time>2021-03-03T09:17:23Z</time>
      </trkpt>
      <trkpt lat="41.47693609" lon="2.09953891">
        <ele>90.0</ele>
        <time>2021-03-03T09:17:24Z</time>
      </trkpt>
      <trkpt lat="41.47696342" lon="2.09951859">
        <ele>90.0</ele>
        <time>2021-03-03T09:17:25Z</time>
      </trkpt>
      <trkpt lat="41.47698509" lon="2.09950159">
        <ele>90.0</ele>
        <time>2021-03-03T09:17:26Z</time>
      </trkpt>
      <trkpt lat="41.47700074" lon="2.09948993">
        <ele>90.0</ele>
        <time>2021-03-03T09:17:27Z</time>
      </trkpt>
      <trkpt lat="41.47703141" lon="2.09946393">
        <ele>90.0</ele>
        <time>2021-03-03T09:17:29Z</time>
      </trkpt>
      <trkpt lat="41.47703141" lon="2.09946393">
        <ele>90.0</ele>
        <time>2021-03-03T09:17:35Z</time>
      </trkpt>
      <trkpt lat="41.47702975" lon="2.09946227">
        <ele>90.0</ele>
        <time>2021-03-03T09:17:37Z</time>
      </trkpt>
      <trkpt lat="41.47703641" lon="2.09945394">
        <ele>90.0</ele>
        <time>2021-03-03T09:18:15Z</time>
      </trkpt>
      <trkpt lat="41.47704108" lon="2.09944928">
        <ele>90.0</ele>
        <time>2021-03-03T09:18:16Z</time>
      </trkpt>
      <trkpt lat="41.47705073" lon="2.09943962">
        <ele>90.0</ele>
        <time>2021-03-03T09:18:17Z</time>
      </trkpt>
      <trkpt lat="41.47706339" lon="2.09942495">
        <ele>90.0</ele>
        <time>2021-03-03T09:18:18Z</time>
      </trkpt>
      <trkpt lat="41.47707772" lon="2.09940596">
        <ele>90.0</ele>
        <time>2021-03-03T09:18:19Z</time>
      </trkpt>
      <trkpt lat="41.47709371" lon="2.09938397">
        <ele>90.0</ele>
        <time>2021-03-03T09:18:20Z</time>
      </trkpt>
      <trkpt lat="41.47711305" lon="2.09936065">
        <ele>90.0</ele>
        <time>2021-03-03T09:18:21Z</time>
      </trkpt>
      <trkpt lat="41.47713205" lon="2.09933832">
        <ele>90.0</ele>
        <time>2021-03-03T09:18:22Z</time>
      </trkpt>
      <trkpt lat="41.47714805" lon="2.09931933">
        <ele>90.0</ele>
        <time>2021-03-03T09:18:23Z</time>
      </trkpt>
      <trkpt lat="41.47716004" lon="2.09930399">
        <ele>90.0</ele>
        <time>2021-03-03T09:18:24Z</time>
      </trkpt>
      <trkpt lat="41.47716804" lon="2.09929234">
        <ele>90.0</ele>
        <time>2021-03-03T09:18:25Z</time>
      </trkpt>
      <trkpt lat="41.47718303" lon="2.09926567">
        <ele>90.0</ele>
        <time>2021-03-03T09:18:30Z</time>
      </trkpt>
      <trkpt lat="41.47718469" lon="2.09926899">
        <ele>90.0</ele>
        <time>2021-03-03T09:18:33Z</time>
      </trkpt>
      <trkpt lat="41.47719635" lon="2.09926234">
        <ele>90.0</ele>
        <time>2021-03-03T09:18:35Z</time>
      </trkpt>
      <trkpt lat="41.47719902" lon="2.09925967">
        <ele>90.0</ele>
        <time>2021-03-03T09:18:36Z</time>
      </trkpt>
      <trkpt lat="41.47720601" lon="2.09925368">
        <ele>90.0</ele>
        <time>2021-03-03T09:18:37Z</time>
      </trkpt>
      <trkpt lat="41.47721834" lon="2.09924302">
        <ele>90.0</ele>
        <time>2021-03-03T09:18:38Z</time>
      </trkpt>
      <trkpt lat="41.477233" lon="2.0992277">
        <ele>90.0</ele>
        <time>2021-03-03T09:18:39Z</time>
      </trkpt>
      <trkpt lat="41.47724799" lon="2.09921137">
        <ele>90.0</ele>
        <time>2021-03-03T09:18:40Z</time>
      </trkpt>
      <trkpt lat="41.47726099" lon="2.09919638">
        <ele>90.0</ele>
        <time>2021-03-03T09:18:41Z</time>
      </trkpt>
      <trkpt lat="41.47727131" lon="2.09918404">
        <ele>90.0</ele>
        <time>2021-03-03T09:18:42Z</time>
      </trkpt>
      <trkpt lat="41.47729631" lon="2.09916404">
        <ele>90.0</ele>
        <time>2021-03-03T09:18:44Z</time>
      </trkpt>
      <trkpt lat="41.47729697" lon="2.09916305">
        <ele>90.0</ele>
        <time>2021-03-03T09:18:45Z</time>
      </trkpt>
      <trkpt lat="41.47730097" lon="2.09916039">
        <ele>90.0</ele>
        <time>2021-03-03T09:18:46Z</time>
      </trkpt>
      <trkpt lat="41.47730762" lon="2.09915473">
        <ele>90.0</ele>
        <time>2021-03-03T09:18:47Z</time>
      </trkpt>
      <trkpt lat="41.47731628" lon="2.09914606">
        <ele>90.0</ele>
        <time>2021-03-03T09:18:48Z</time>
      </trkpt>
      <trkpt lat="41.4773276" lon="2.09913273">
        <ele>90.0</ele>
        <time>2021-03-03T09:18:49Z</time>
      </trkpt>
      <trkpt lat="41.47734294" lon="2.09911541">
        <ele>90.0</ele>
        <time>2021-03-03T09:18:50Z</time>
      </trkpt>
      <trkpt lat="41.47736293" lon="2.09909242">
        <ele>92.0</ele>
        <time>2021-03-03T09:18:51Z</time>
      </trkpt>
      <trkpt lat="41.47738526" lon="2.09906575">
        <ele>92.0</ele>
        <time>2021-03-03T09:18:52Z</time>
      </trkpt>
      <trkpt lat="41.47741026" lon="2.09903442">
        <ele>92.0</ele>
        <time>2021-03-03T09:18:53Z</time>
      </trkpt>
      <trkpt lat="41.47743725" lon="2.09900042">
        <ele>92.0</ele>
        <time>2021-03-03T09:18:54Z</time>
      </trkpt>
      <trkpt lat="41.47746692" lon="2.09896509">
        <ele>92.0</ele>
        <time>2021-03-03T09:18:55Z</time>
      </trkpt>
      <trkpt lat="41.47749791" lon="2.09892909">
        <ele>92.0</ele>
        <time>2021-03-03T09:18:56Z</time>
      </trkpt>
      <trkpt lat="41.4775299" lon="2.09889243">
        <ele>92.0</ele>
        <time>2021-03-03T09:18:57Z</time>
      </trkpt>
      <trkpt lat="41.47756323" lon="2.0988541">
        <ele>92.0</ele>
        <time>2021-03-03T09:18:58Z</time>
      </trkpt>
      <trkpt lat="41.47759755" lon="2.09881478">
        <ele>92.0</ele>
        <time>2021-03-03T09:18:59Z</time>
      </trkpt>
      <trkpt lat="41.47763189" lon="2.09877411">
        <ele>93.0</ele>
        <time>2021-03-03T09:19:00Z</time>
      </trkpt>
      <trkpt lat="41.47766788" lon="2.09873346">
        <ele>93.0</ele>
        <time>2021-03-03T09:19:01Z</time>
      </trkpt>
      <trkpt lat="41.47770221" lon="2.09869612">
        <ele>93.0</ele>
        <time>2021-03-03T09:19:02Z</time>
      </trkpt>
      <trkpt lat="41.47774053" lon="2.09865547">
        <ele>93.0</ele>
        <time>2021-03-03T09:19:03Z</time>
      </trkpt>
      <trkpt lat="41.47777786" lon="2.09861548">
        <ele>93.0</ele>
        <time>2021-03-03T09:19:04Z</time>
      </trkpt>
      <trkpt lat="41.47781319" lon="2.09857581">
        <ele>93.0</ele>
        <time>2021-03-03T09:19:05Z</time>
      </trkpt>
      <trkpt lat="41.47784852" lon="2.09853581">
        <ele>93.0</ele>
        <time>2021-03-03T09:19:06Z</time>
      </trkpt>
      <trkpt lat="41.47788485" lon="2.09849482">
        <ele>93.0</ele>
        <time>2021-03-03T09:19:07Z</time>
      </trkpt>
      <trkpt lat="41.47792151" lon="2.09845416">
        <ele>94.0</ele>
        <time>2021-03-03T09:19:08Z</time>
      </trkpt>
      <trkpt lat="41.47795784" lon="2.0984135">
        <ele>94.0</ele>
        <time>2021-03-03T09:19:09Z</time>
      </trkpt>
      <trkpt lat="41.47799284" lon="2.0983745">
        <ele>94.0</ele>
        <time>2021-03-03T09:19:10Z</time>
      </trkpt>
      <trkpt lat="41.47802617" lon="2.09833617">
        <ele>94.0</ele>
        <time>2021-03-03T09:19:11Z</time>
      </trkpt>
      <trkpt lat="41.47805816" lon="2.09830052">
        <ele>94.0</ele>
        <time>2021-03-03T09:19:12Z</time>
      </trkpt>
      <trkpt lat="41.47808915" lon="2.09827253">
        <ele>94.0</ele>
        <time>2021-03-03T09:19:13Z</time>
      </trkpt>
      <trkpt lat="41.47811715" lon="2.09825887">
        <ele>94.0</ele>
        <time>2021-03-03T09:19:14Z</time>
      </trkpt>
      <trkpt lat="41.47814448" lon="2.09825953">
        <ele>94.0</ele>
        <time>2021-03-03T09:19:15Z</time>
      </trkpt>
      <trkpt lat="41.47817081" lon="2.09827418">
        <ele>94.0</ele>
        <time>2021-03-03T09:19:16Z</time>
      </trkpt>
      <trkpt lat="41.47819713" lon="2.09830151">
        <ele>94.0</ele>
        <time>2021-03-03T09:19:17Z</time>
      </trkpt>
      <trkpt lat="41.4782228" lon="2.09833884">
        <ele>95.0</ele>
        <time>2021-03-03T09:19:18Z</time>
      </trkpt>
      <trkpt lat="41.47824945" lon="2.09838484">
        <ele>95.0</ele>
        <time>2021-03-03T09:19:19Z</time>
      </trkpt>
      <trkpt lat="41.47827679" lon="2.09843751">
        <ele>95.0</ele>
        <time>2021-03-03T09:19:20Z</time>
      </trkpt>
      <trkpt lat="41.47830445" lon="2.0984965">
        <ele>95.0</ele>
        <time>2021-03-03T09:19:21Z</time>
      </trkpt>
      <trkpt lat="41.47833279" lon="2.09856015">
        <ele>95.0</ele>
        <time>2021-03-03T09:19:22Z</time>
      </trkpt>
      <trkpt lat="41.47836178" lon="2.09862749">
        <ele>95.0</ele>
        <time>2021-03-03T09:19:23Z</time>
      </trkpt>
      <trkpt lat="41.47839211" lon="2.09869682">
        <ele>95.0</ele>
        <time>2021-03-03T09:19:24Z</time>
      </trkpt>
      <trkpt lat="41.47842343" lon="2.09876814">
        <ele>95.0</ele>
        <time>2021-03-03T09:19:25Z</time>
      </trkpt>
      <trkpt lat="41.47845542" lon="2.09884048">
        <ele>95.0</ele>
        <time>2021-03-03T09:19:26Z</time>
      </trkpt>
      <trkpt lat="41.47848842" lon="2.09891448">
        <ele>95.0</ele>
        <time>2021-03-03T09:19:27Z</time>
      </trkpt>
      <trkpt lat="41.47852209" lon="2.09898947">
        <ele>95.0</ele>
        <time>2021-03-03T09:19:28Z</time>
      </trkpt>
      <trkpt lat="41.47855542" lon="2.09906546">
        <ele>94.0</ele>
        <time>2021-03-03T09:19:29Z</time>
      </trkpt>
      <trkpt lat="41.47858842" lon="2.09914246">
        <ele>94.0</ele>
        <time>2021-03-03T09:19:30Z</time>
      </trkpt>
      <trkpt lat="41.47862208" lon="2.09921946">
        <ele>94.0</ele>
        <time>2021-03-03T09:19:31Z</time>
      </trkpt>
      <trkpt lat="41.47865541" lon="2.09929811">
        <ele>94.0</ele>
        <time>2021-03-03T09:19:31Z</time>
      </trkpt>
      <trkpt lat="41.4786894" lon="2.0993771">
        <ele>93.0</ele>
        <time>2021-03-03T09:19:32Z</time>
      </trkpt>
      <trkpt lat="41.47872507" lon="2.09945644">
        <ele>93.0</ele>
        <time>2021-03-03T09:19:33Z</time>
      </trkpt>
      <trkpt lat="41.4787614" lon="2.09953577">
        <ele>93.0</ele>
        <time>2021-03-03T09:19:34Z</time>
      </trkpt>
      <trkpt lat="41.47879839" lon="2.09961543">
        <ele>93.0</ele>
        <time>2021-03-03T09:19:35Z</time>
      </trkpt>
      <trkpt lat="41.47883538" lon="2.09969543">
        <ele>93.0</ele>
        <time>2021-03-03T09:19:36Z</time>
      </trkpt>
      <trkpt lat="41.47887205" lon="2.09977575">
        <ele>93.0</ele>
        <time>2021-03-03T09:19:37Z</time>
      </trkpt>
      <trkpt lat="41.47890872" lon="2.09985707">
        <ele>93.0</ele>
        <time>2021-03-03T09:19:38Z</time>
      </trkpt>
      <trkpt lat="41.47894571" lon="2.09993973">
        <ele>93.0</ele>
        <time>2021-03-03T09:19:39Z</time>
      </trkpt>
      <trkpt lat="41.47898237" lon="2.1000224">
        <ele>93.0</ele>
        <time>2021-03-03T09:19:40Z</time>
      </trkpt>
      <trkpt lat="41.47902003" lon="2.10010439">
        <ele>92.0</ele>
        <time>2021-03-03T09:19:41Z</time>
      </trkpt>
      <trkpt lat="41.47905735" lon="2.10018605">
        <ele>92.0</ele>
        <time>2021-03-03T09:19:42Z</time>
      </trkpt>
      <trkpt lat="41.47909569" lon="2.10026672">
        <ele>92.0</ele>
        <time>2021-03-03T09:19:43Z</time>
      </trkpt>
      <trkpt lat="41.47913568" lon="2.10034671">
        <ele>92.0</ele>
        <time>2021-03-03T09:19:44Z</time>
      </trkpt>
      <trkpt lat="41.479176" lon="2.1004257">
        <ele>92.0</ele>
        <time>2021-03-03T09:19:45Z</time>
      </trkpt>
      <trkpt lat="41.47921767" lon="2.1005037">
        <ele>92.0</ele>
        <time>2021-03-03T09:19:46Z</time>
      </trkpt>
      <trkpt lat="41.479259" lon="2.1005807">
        <ele>92.0</ele>
        <time>2021-03-03T09:19:47Z</time>
      </trkpt>
      <trkpt lat="41.47930132" lon="2.10065569">
        <ele>91.0</ele>
        <time>2021-03-03T09:19:48Z</time>
      </trkpt>
      <trkpt lat="41.47934299" lon="2.10072868">
        <ele>91.0</ele>
        <time>2021-03-03T09:19:49Z</time>
      </trkpt>
      <trkpt lat="41.47938499" lon="2.10080101">
        <ele>91.0</ele>
        <time>2021-03-03T09:19:50Z</time>
      </trkpt>
      <trkpt lat="41.47942798" lon="2.10087201">
        <ele>91.0</ele>
        <time>2021-03-03T09:19:51Z</time>
      </trkpt>
      <trkpt lat="41.47947164" lon="2.10094234">
        <ele>91.0</ele>
        <time>2021-03-03T09:19:52Z</time>
      </trkpt>
      <trkpt lat="41.47951597" lon="2.10101167">
        <ele>91.0</ele>
        <time>2021-03-03T09:19:53Z</time>
      </trkpt>
      <trkpt lat="41.47956129" lon="2.10107967">
        <ele>91.0</ele>
        <time>2021-03-03T09:19:54Z</time>
      </trkpt>
      <trkpt lat="41.47960763" lon="2.10114599">
        <ele>90.0</ele>
        <time>2021-03-03T09:19:55Z</time>
      </trkpt>
      <trkpt lat="41.47965462" lon="2.10121133">
        <ele>90.0</ele>
        <time>2021-03-03T09:19:56Z</time>
      </trkpt>
      <trkpt lat="41.47970261" lon="2.10127565">
        <ele>90.0</ele>
        <time>2021-03-03T09:19:57Z</time>
      </trkpt>
      <trkpt lat="41.47975127" lon="2.10133832">
        <ele>90.0</ele>
        <time>2021-03-03T09:19:58Z</time>
      </trkpt>
      <trkpt lat="41.47980026" lon="2.10140097">
        <ele>90.0</ele>
        <time>2021-03-03T09:19:59Z</time>
      </trkpt>
      <trkpt lat="41.47985026" lon="2.10146197">
        <ele>90.0</ele>
        <time>2021-03-03T09:20:00Z</time>
      </trkpt>
      <trkpt lat="41.4799006" lon="2.10152196">
        <ele>90.0</ele>
        <time>2021-03-03T09:20:01Z</time>
      </trkpt>
      <trkpt lat="41.47995192" lon="2.10158063">
        <ele>90.0</ele>
        <time>2021-03-03T09:20:02Z</time>
      </trkpt>
      <trkpt lat="41.48000392" lon="2.10163795">
        <ele>90.0</ele>
        <time>2021-03-03T09:20:03Z</time>
      </trkpt>
      <trkpt lat="41.48005591" lon="2.10169395">
        <ele>90.0</ele>
        <time>2021-03-03T09:20:04Z</time>
      </trkpt>
      <trkpt lat="41.48010824" lon="2.10174962">
        <ele>90.0</ele>
        <time>2021-03-03T09:20:05Z</time>
      </trkpt>
      <trkpt lat="41.48016057" lon="2.10180494">
        <ele>90.0</ele>
        <time>2021-03-03T09:20:06Z</time>
      </trkpt>
      <trkpt lat="41.4802129" lon="2.10186027">
        <ele>90.0</ele>
        <time>2021-03-03T09:20:07Z</time>
      </trkpt>
      <trkpt lat="41.48026357" lon="2.10191726">
        <ele>90.0</ele>
        <time>2021-03-03T09:20:08Z</time>
      </trkpt>
      <trkpt lat="41.48030857" lon="2.10197958">
        <ele>90.0</ele>
        <time>2021-03-03T09:20:09Z</time>
      </trkpt>
      <trkpt lat="41.48034389" lon="2.10204925">
        <ele>90.0</ele>
        <time>2021-03-03T09:20:10Z</time>
      </trkpt>
      <trkpt lat="41.48036955" lon="2.1021229">
        <ele>90.0</ele>
        <time>2021-03-03T09:20:11Z</time>
      </trkpt>
      <trkpt lat="41.48038855" lon="2.10219956">
        <ele>90.0</ele>
        <time>2021-03-03T09:20:12Z</time>
      </trkpt>
      <trkpt lat="41.48040354" lon="2.10227756">
        <ele>90.0</ele>
        <time>2021-03-03T09:20:13Z</time>
      </trkpt>
      <trkpt lat="41.48041854" lon="2.10235322">
        <ele>89.0</ele>
        <time>2021-03-03T09:20:14Z</time>
      </trkpt>
      <trkpt lat="41.48043553" lon="2.10242287">
        <ele>89.0</ele>
        <time>2021-03-03T09:20:15Z</time>
      </trkpt>
      <trkpt lat="41.48045518" lon="2.10248554">
        <ele>89.0</ele>
        <time>2021-03-03T09:20:16Z</time>
      </trkpt>
      <trkpt lat="41.48047284" lon="2.1025432">
        <ele>89.0</ele>
        <time>2021-03-03T09:20:17Z</time>
      </trkpt>
      <trkpt lat="41.48048416" lon="2.10259653">
        <ele>89.0</ele>
        <time>2021-03-03T09:20:18Z</time>
      </trkpt>
      <trkpt lat="41.48048516" lon="2.10264253">
        <ele>89.0</ele>
        <time>2021-03-03T09:20:19Z</time>
      </trkpt>
      <trkpt lat="41.4804745" lon="2.10267753">
        <ele>89.0</ele>
        <time>2021-03-03T09:20:20Z</time>
      </trkpt>
      <trkpt lat="41.4804525" lon="2.10270019">
        <ele>89.0</ele>
        <time>2021-03-03T09:20:21Z</time>
      </trkpt>
      <trkpt lat="41.4804225" lon="2.10271284">
        <ele>89.0</ele>
        <time>2021-03-03T09:20:22Z</time>
      </trkpt>
      <trkpt lat="41.48038583" lon="2.10271851">
        <ele>89.0</ele>
        <time>2021-03-03T09:20:23Z</time>
      </trkpt>
      <trkpt lat="41.48034351" lon="2.10271983">
        <ele>89.0</ele>
        <time>2021-03-03T09:20:24Z</time>
      </trkpt>
      <trkpt lat="41.48029785" lon="2.10271883">
        <ele>89.0</ele>
        <time>2021-03-03T09:20:25Z</time>
      </trkpt>
      <trkpt lat="41.48024919" lon="2.10271917">
        <ele>88.0</ele>
        <time>2021-03-03T09:20:26Z</time>
      </trkpt>
      <trkpt lat="41.48019719" lon="2.10272349">
        <ele>88.0</ele>
        <time>2021-03-03T09:20:27Z</time>
      </trkpt>
      <trkpt lat="41.48014354" lon="2.10273382">
        <ele>88.0</ele>
        <time>2021-03-03T09:20:28Z</time>
      </trkpt>
      <trkpt lat="41.48008921" lon="2.10275115">
        <ele>88.0</ele>
        <time>2021-03-03T09:20:29Z</time>
      </trkpt>
      <trkpt lat="41.48003455" lon="2.10277614">
        <ele>88.0</ele>
        <time>2021-03-03T09:20:30Z</time>
      </trkpt>
      <trkpt lat="41.47998121" lon="2.10280747">
        <ele>88.0</ele>
        <time>2021-03-03T09:20:31Z</time>
      </trkpt>
      <trkpt lat="41.47992856" lon="2.10284513">
        <ele>88.0</ele>
        <time>2021-03-03T09:20:32Z</time>
      </trkpt>
      <trkpt lat="41.47987522" lon="2.10288879">
        <ele>88.0</ele>
        <time>2021-03-03T09:20:33Z</time>
      </trkpt>
      <trkpt lat="41.47982022" lon="2.10293812">
        <ele>88.0</ele>
        <time>2021-03-03T09:20:34Z</time>
      </trkpt>
      <trkpt lat="41.47976257" lon="2.10299078">
        <ele>88.0</ele>
        <time>2021-03-03T09:20:35Z</time>
      </trkpt>
      <trkpt lat="41.47970223" lon="2.10304677">
        <ele>88.0</ele>
        <time>2021-03-03T09:20:36Z</time>
      </trkpt>
      <trkpt lat="41.47963891" lon="2.10310644">
        <ele>87.0</ele>
        <time>2021-03-03T09:20:37Z</time>
      </trkpt>
      <trkpt lat="41.47957325" lon="2.1031711">
        <ele>86.0</ele>
        <time>2021-03-03T09:20:38Z</time>
      </trkpt>
      <trkpt lat="41.47950792" lon="2.10324242">
        <ele>86.0</ele>
        <time>2021-03-03T09:20:39Z</time>
      </trkpt>
      <trkpt lat="41.4794446" lon="2.10332041">
        <ele>85.0</ele>
        <time>2021-03-03T09:20:40Z</time>
      </trkpt>
      <trkpt lat="41.47938494" lon="2.10340407">
        <ele>84.0</ele>
        <time>2021-03-03T09:20:41Z</time>
      </trkpt>
      <trkpt lat="41.47933194" lon="2.10349173">
        <ele>84.0</ele>
        <time>2021-03-03T09:20:42Z</time>
      </trkpt>
      <trkpt lat="41.47928894" lon="2.10358107">
        <ele>83.0</ele>
        <time>2021-03-03T09:20:43Z</time>
      </trkpt>
      <trkpt lat="41.47925795" lon="2.10366939">
        <ele>82.0</ele>
        <time>2021-03-03T09:20:44Z</time>
      </trkpt>
      <trkpt lat="41.47924129" lon="2.10375606">
        <ele>81.0</ele>
        <time>2021-03-03T09:20:45Z</time>
      </trkpt>
      <trkpt lat="41.47923963" lon="2.10383971">
        <ele>81.0</ele>
        <time>2021-03-03T09:20:46Z</time>
      </trkpt>
      <trkpt lat="41.47925262" lon="2.10391905">
        <ele>80.0</ele>
        <time>2021-03-03T09:20:47Z</time>
      </trkpt>
      <trkpt lat="41.47927928" lon="2.10399238">
        <ele>80.0</ele>
        <time>2021-03-03T09:20:48Z</time>
      </trkpt>
      <trkpt lat="41.47931795" lon="2.10405437">
        <ele>79.0</ele>
        <time>2021-03-03T09:20:49Z</time>
      </trkpt>
      <trkpt lat="41.47936694" lon="2.10410337">
        <ele>79.0</ele>
        <time>2021-03-03T09:20:50Z</time>
      </trkpt>
      <trkpt lat="41.47942227" lon="2.1041437">
        <ele>78.0</ele>
        <time>2021-03-03T09:20:51Z</time>
      </trkpt>
      <trkpt lat="41.4794776" lon="2.10418369">
        <ele>78.0</ele>
        <time>2021-03-03T09:20:52Z</time>
      </trkpt>
      <trkpt lat="41.47952793" lon="2.10422736">
        <ele>77.0</ele>
        <time>2021-03-03T09:20:53Z</time>
      </trkpt>
      <trkpt lat="41.47956926" lon="2.10427802">
        <ele>77.0</ele>
        <time>2021-03-03T09:20:54Z</time>
      </trkpt>
      <trkpt lat="41.47959859" lon="2.10433402">
        <ele>76.0</ele>
        <time>2021-03-03T09:20:55Z</time>
      </trkpt>
      <trkpt lat="41.47961459" lon="2.10439167">
        <ele>76.0</ele>
        <time>2021-03-03T09:20:56Z</time>
      </trkpt>
      <trkpt lat="41.47961724" lon="2.104446">
        <ele>76.0</ele>
        <time>2021-03-03T09:20:57Z</time>
      </trkpt>
      <trkpt lat="41.47960792" lon="2.10448999">
        <ele>76.0</ele>
        <time>2021-03-03T09:20:58Z</time>
      </trkpt>
      <trkpt lat="41.47958859" lon="2.10452265">
        <ele>76.0</ele>
        <time>2021-03-03T09:20:59Z</time>
      </trkpt>
      <trkpt lat="41.47956092" lon="2.10454765">
        <ele>76.0</ele>
        <time>2021-03-03T09:21:00Z</time>
      </trkpt>
      <trkpt lat="41.47952492" lon="2.10456365">
        <ele>76.0</ele>
        <time>2021-03-03T09:21:01Z</time>
      </trkpt>
      <trkpt lat="41.4794826" lon="2.10457564">
        <ele>76.0</ele>
        <time>2021-03-03T09:21:02Z</time>
      </trkpt>
      <trkpt lat="41.47943561" lon="2.10458697">
        <ele>76.0</ele>
        <time>2021-03-03T09:21:03Z</time>
      </trkpt>
      <trkpt lat="41.47938927" lon="2.10459796">
        <ele>76.0</ele>
        <time>2021-03-03T09:21:04Z</time>
      </trkpt>
      <trkpt lat="41.47934427" lon="2.10460796">
        <ele>76.0</ele>
        <time>2021-03-03T09:21:05Z</time>
      </trkpt>
      <trkpt lat="41.47930062" lon="2.10461562">
        <ele>76.0</ele>
        <time>2021-03-03T09:21:06Z</time>
      </trkpt>
      <trkpt lat="41.47925628" lon="2.10462329">
        <ele>76.0</ele>
        <time>2021-03-03T09:21:07Z</time>
      </trkpt>
      <trkpt lat="41.47921295" lon="2.10463162">
        <ele>76.0</ele>
        <time>2021-03-03T09:21:08Z</time>
      </trkpt>
      <trkpt lat="41.47916963" lon="2.10463929">
        <ele>77.0</ele>
        <time>2021-03-03T09:21:09Z</time>
      </trkpt>
      <trkpt lat="41.47912697" lon="2.10464429">
        <ele>77.0</ele>
        <time>2021-03-03T09:21:10Z</time>
      </trkpt>
      <trkpt lat="41.47908431" lon="2.10464695">
        <ele>78.0</ele>
        <time>2021-03-03T09:21:11Z</time>
      </trkpt>
      <trkpt lat="41.47904131" lon="2.10464728">
        <ele>78.0</ele>
        <time>2021-03-03T09:21:12Z</time>
      </trkpt>
      <trkpt lat="41.47899666" lon="2.10464927">
        <ele>78.0</ele>
        <time>2021-03-03T09:21:13Z</time>
      </trkpt>
      <trkpt lat="41.47895166" lon="2.1046546">
        <ele>78.0</ele>
        <time>2021-03-03T09:21:14Z</time>
      </trkpt>
      <trkpt lat="41.47890666" lon="2.10466293">
        <ele>79.0</ele>
        <time>2021-03-03T09:21:15Z</time>
      </trkpt>
      <trkpt lat="41.47886166" lon="2.10467459">
        <ele>79.0</ele>
        <time>2021-03-03T09:21:16Z</time>
      </trkpt>
      <trkpt lat="41.47881633" lon="2.10468958">
        <ele>79.0</ele>
        <time>2021-03-03T09:21:17Z</time>
      </trkpt>
      <trkpt lat="41.47877133" lon="2.10470591">
        <ele>79.0</ele>
        <time>2021-03-03T09:21:18Z</time>
      </trkpt>
      <trkpt lat="41.47872633" lon="2.10472391">
        <ele>79.0</ele>
        <time>2021-03-03T09:21:19Z</time>
      </trkpt>
      <trkpt lat="41.478681" lon="2.10474224">
        <ele>79.0</ele>
        <time>2021-03-03T09:21:20Z</time>
      </trkpt>
      <trkpt lat="41.47863401" lon="2.10476057">
        <ele>79.0</ele>
        <time>2021-03-03T09:21:21Z</time>
      </trkpt>
      <trkpt lat="41.47858602" lon="2.10478023">
        <ele>79.0</ele>
        <time>2021-03-03T09:21:22Z</time>
      </trkpt>
      <trkpt lat="41.47853769" lon="2.10479989">
        <ele>79.0</ele>
        <time>2021-03-03T09:21:23Z</time>
      </trkpt>
      <trkpt lat="41.4784897" lon="2.10481888">
        <ele>79.0</ele>
        <time>2021-03-03T09:21:24Z</time>
      </trkpt>
      <trkpt lat="41.47844071" lon="2.10483721">
        <ele>79.0</ele>
        <time>2021-03-03T09:21:25Z</time>
      </trkpt>
      <trkpt lat="41.47839104" lon="2.1048542">
        <ele>79.0</ele>
        <time>2021-03-03T09:21:26Z</time>
      </trkpt>
      <trkpt lat="41.47834138" lon="2.10486853">
        <ele>80.0</ele>
        <time>2021-03-03T09:21:27Z</time>
      </trkpt>
      <trkpt lat="41.47829105" lon="2.10487952">
        <ele>80.0</ele>
        <time>2021-03-03T09:21:28Z</time>
      </trkpt>
      <trkpt lat="41.47824072" lon="2.10488451">
        <ele>80.0</ele>
        <time>2021-03-03T09:21:29Z</time>
      </trkpt>
      <trkpt lat="41.47818973" lon="2.10488419">
        <ele>80.0</ele>
        <time>2021-03-03T09:21:30Z</time>
      </trkpt>
      <trkpt lat="41.47813939" lon="2.10487852">
        <ele>80.0</ele>
        <time>2021-03-03T09:21:31Z</time>
      </trkpt>
      <trkpt lat="41.47808973" lon="2.1048692">
        <ele>80.0</ele>
        <time>2021-03-03T09:21:32Z</time>
      </trkpt>
      <trkpt lat="41.4780404" lon="2.10485854">
        <ele>80.0</ele>
        <time>2021-03-03T09:21:33Z</time>
      </trkpt>
      <trkpt lat="41.47799007" lon="2.10485088">
        <ele>80.0</ele>
        <time>2021-03-03T09:21:34Z</time>
      </trkpt>
      <trkpt lat="41.47794074" lon="2.10484789">
        <ele>80.0</ele>
        <time>2021-03-03T09:21:35Z</time>
      </trkpt>
      <trkpt lat="41.47789175" lon="2.10485189">
        <ele>80.0</ele>
        <time>2021-03-03T09:21:36Z</time>
      </trkpt>
      <trkpt lat="41.47784376" lon="2.10486121">
        <ele>80.0</ele>
        <time>2021-03-03T09:21:37Z</time>
      </trkpt>
      <trkpt lat="41.47779709" lon="2.10487388">
        <ele>81.0</ele>
        <time>2021-03-03T09:21:38Z</time>
      </trkpt>
      <trkpt lat="41.47775077" lon="2.10488953">
        <ele>81.0</ele>
        <time>2021-03-03T09:21:39Z</time>
      </trkpt>
      <trkpt lat="41.4777061" lon="2.10490787">
        <ele>81.0</ele>
        <time>2021-03-03T09:21:40Z</time>
      </trkpt>
      <trkpt lat="41.47766278" lon="2.10492886">
        <ele>82.0</ele>
        <time>2021-03-03T09:21:41Z</time>
      </trkpt>
      <trkpt lat="41.47762244" lon="2.10495319">
        <ele>82.0</ele>
        <time>2021-03-03T09:21:42Z</time>
      </trkpt>
      <trkpt lat="41.47758412" lon="2.10497952">
        <ele>82.0</ele>
        <time>2021-03-03T09:21:43Z</time>
      </trkpt>
      <trkpt lat="41.47754745" lon="2.10500818">
        <ele>82.0</ele>
        <time>2021-03-03T09:21:44Z</time>
      </trkpt>
      <trkpt lat="41.47751245" lon="2.1050375">
        <ele>82.0</ele>
        <time>2021-03-03T09:21:45Z</time>
      </trkpt>
      <trkpt lat="41.47747813" lon="2.10506784">
        <ele>82.0</ele>
        <time>2021-03-03T09:21:46Z</time>
      </trkpt>
      <trkpt lat="41.47744314" lon="2.10509816">
        <ele>82.0</ele>
        <time>2021-03-03T09:21:47Z</time>
      </trkpt>
      <trkpt lat="41.47740747" lon="2.10512782">
        <ele>83.0</ele>
        <time>2021-03-03T09:21:48Z</time>
      </trkpt>
      <trkpt lat="41.47737181" lon="2.10515514">
        <ele>83.0</ele>
        <time>2021-03-03T09:21:49Z</time>
      </trkpt>
      <trkpt lat="41.47733547" lon="2.10518146">
        <ele>83.0</ele>
        <time>2021-03-03T09:21:50Z</time>
      </trkpt>
      <trkpt lat="41.47729848" lon="2.10520712">
        <ele>83.0</ele>
        <time>2021-03-03T09:21:51Z</time>
      </trkpt>
      <trkpt lat="41.47725948" lon="2.10523379">
        <ele>83.0</ele>
        <time>2021-03-03T09:21:52Z</time>
      </trkpt>
      <trkpt lat="41.47721782" lon="2.10525979">
        <ele>83.0</ele>
        <time>2021-03-03T09:21:53Z</time>
      </trkpt>
      <trkpt lat="41.47717416" lon="2.10528611">
        <ele>83.0</ele>
        <time>2021-03-03T09:21:54Z</time>
      </trkpt>
      <trkpt lat="41.47712983" lon="2.10531244">
        <ele>83.0</ele>
        <time>2021-03-03T09:21:55Z</time>
      </trkpt>
      <trkpt lat="41.47708483" lon="2.10533911">
        <ele>83.0</ele>
        <time>2021-03-03T09:21:56Z</time>
      </trkpt>
      <trkpt lat="41.47703983" lon="2.10536543">
        <ele>83.0</ele>
        <time>2021-03-03T09:21:57Z</time>
      </trkpt>
      <trkpt lat="41.47699483" lon="2.10539276">
        <ele>83.0</ele>
        <time>2021-03-03T09:21:58Z</time>
      </trkpt>
      <trkpt lat="41.4769495" lon="2.10541976">
        <ele>83.0</ele>
        <time>2021-03-03T09:21:59Z</time>
      </trkpt>
      <trkpt lat="41.47690284" lon="2.10544475">
        <ele>83.0</ele>
        <time>2021-03-03T09:22:00Z</time>
      </trkpt>
      <trkpt lat="41.47685585" lon="2.1054704">
        <ele>83.0</ele>
        <time>2021-03-03T09:22:01Z</time>
      </trkpt>
      <trkpt lat="41.47680885" lon="2.10549674">
        <ele>83.0</ele>
        <time>2021-03-03T09:22:02Z</time>
      </trkpt>
      <trkpt lat="41.47676219" lon="2.10552373">
        <ele>84.0</ele>
        <time>2021-03-03T09:22:03Z</time>
      </trkpt>
      <trkpt lat="41.47671519" lon="2.10555273">
        <ele>84.0</ele>
        <time>2021-03-03T09:22:04Z</time>
      </trkpt>
      <trkpt lat="41.47666786" lon="2.10558173">
        <ele>84.0</ele>
        <time>2021-03-03T09:22:05Z</time>
      </trkpt>
      <trkpt lat="41.47662019" lon="2.10561005">
        <ele>84.0</ele>
        <time>2021-03-03T09:22:06Z</time>
      </trkpt>
      <trkpt lat="41.47657252" lon="2.10563805">
        <ele>84.0</ele>
        <time>2021-03-03T09:22:07Z</time>
      </trkpt>
      <trkpt lat="41.4765232" lon="2.10566705">
        <ele>84.0</ele>
        <time>2021-03-03T09:22:08Z</time>
      </trkpt>
      <trkpt lat="41.47647353" lon="2.10569737">
        <ele>84.0</ele>
        <time>2021-03-03T09:22:09Z</time>
      </trkpt>
      <trkpt lat="41.47642353" lon="2.10573036">
        <ele>84.0</ele>
        <time>2021-03-03T09:22:10Z</time>
      </trkpt>
      <trkpt lat="41.47637254" lon="2.1057657">
        <ele>84.0</ele>
        <time>2021-03-03T09:22:11Z</time>
      </trkpt>
      <trkpt lat="41.47632055" lon="2.10580035">
        <ele>84.0</ele>
        <time>2021-03-03T09:22:12Z</time>
      </trkpt>
      <trkpt lat="41.47626755" lon="2.10583202">
        <ele>84.0</ele>
        <time>2021-03-03T09:22:13Z</time>
      </trkpt>
      <trkpt lat="41.47621623" lon="2.10585635">
        <ele>84.0</ele>
        <time>2021-03-03T09:22:14Z</time>
      </trkpt>
      <trkpt lat="41.47616423" lon="2.10587235">
        <ele>84.0</ele>
        <time>2021-03-03T09:22:15Z</time>
      </trkpt>
      <trkpt lat="41.47611524" lon="2.10587601">
        <ele>84.0</ele>
        <time>2021-03-03T09:22:16Z</time>
      </trkpt>
      <trkpt lat="41.47607024" lon="2.10586834">
        <ele>84.0</ele>
        <time>2021-03-03T09:22:17Z</time>
      </trkpt>
      <trkpt lat="41.47602724" lon="2.10585234">
        <ele>83.0</ele>
        <time>2021-03-03T09:22:18Z</time>
      </trkpt>
      <trkpt lat="41.47598592" lon="2.10582969">
        <ele>83.0</ele>
        <time>2021-03-03T09:22:19Z</time>
      </trkpt>
      <trkpt lat="41.47594492" lon="2.10580135">
        <ele>83.0</ele>
        <time>2021-03-03T09:22:20Z</time>
      </trkpt>
      <trkpt lat="41.47590493" lon="2.10576635">
        <ele>83.0</ele>
        <time>2021-03-03T09:22:21Z</time>
      </trkpt>
      <trkpt lat="41.47586527" lon="2.10572602">
        <ele>83.0</ele>
        <time>2021-03-03T09:22:22Z</time>
      </trkpt>
      <trkpt lat="41.47582528" lon="2.1056837">
        <ele>83.0</ele>
        <time>2021-03-03T09:22:23Z</time>
      </trkpt>
      <trkpt lat="41.47578461" lon="2.1056407">
        <ele>83.0</ele>
        <time>2021-03-03T09:22:24Z</time>
      </trkpt>
      <trkpt lat="41.47574362" lon="2.10559904">
        <ele>83.0</ele>
        <time>2021-03-03T09:22:25Z</time>
      </trkpt>
      <trkpt lat="41.47570296" lon="2.10555871">
        <ele>83.0</ele>
        <time>2021-03-03T09:22:26Z</time>
      </trkpt>
      <trkpt lat="41.4756623" lon="2.10552405">
        <ele>83.0</ele>
        <time>2021-03-03T09:22:27Z</time>
      </trkpt>
      <trkpt lat="41.47562097" lon="2.10549505">
        <ele>83.0</ele>
        <time>2021-03-03T09:22:28Z</time>
      </trkpt>
      <trkpt lat="41.4755823" lon="2.10546905">
        <ele>83.0</ele>
        <time>2021-03-03T09:22:29Z</time>
      </trkpt>
      <trkpt lat="41.47554531" lon="2.10544639">
        <ele>83.0</ele>
        <time>2021-03-03T09:22:30Z</time>
      </trkpt>
      <trkpt lat="41.47551099" lon="2.10542906">
        <ele>84.0</ele>
        <time>2021-03-03T09:22:31Z</time>
      </trkpt>
      <trkpt lat="41.47547832" lon="2.10541607">
        <ele>84.0</ele>
        <time>2021-03-03T09:22:32Z</time>
      </trkpt>
      <trkpt lat="41.475447" lon="2.1054044">
        <ele>84.0</ele>
        <time>2021-03-03T09:22:33Z</time>
      </trkpt>
      <trkpt lat="41.47541734" lon="2.1053904">
        <ele>84.0</ele>
        <time>2021-03-03T09:22:34Z</time>
      </trkpt>
      <trkpt lat="41.47538801" lon="2.10537308">
        <ele>85.0</ele>
        <time>2021-03-03T09:22:35Z</time>
      </trkpt>
      <trkpt lat="41.47535668" lon="2.10535642">
        <ele>85.0</ele>
        <time>2021-03-03T09:22:36Z</time>
      </trkpt>
      <trkpt lat="41.47532436" lon="2.10534109">
        <ele>85.0</ele>
        <time>2021-03-03T09:22:37Z</time>
      </trkpt>
      <trkpt lat="41.47529036" lon="2.10532809">
        <ele>85.0</ele>
        <time>2021-03-03T09:22:38Z</time>
      </trkpt>
      <trkpt lat="41.47525537" lon="2.10531576">
        <ele>85.0</ele>
        <time>2021-03-03T09:22:39Z</time>
      </trkpt>
      <trkpt lat="41.47521838" lon="2.10530277">
        <ele>85.0</ele>
        <time>2021-03-03T09:22:40Z</time>
      </trkpt>
      <trkpt lat="41.47517938" lon="2.1052881">
        <ele>86.0</ele>
        <time>2021-03-03T09:22:41Z</time>
      </trkpt>
      <trkpt lat="41.47513906" lon="2.10527277">
        <ele>86.0</ele>
        <time>2021-03-03T09:22:42Z</time>
      </trkpt>
      <trkpt lat="41.47509772" lon="2.10525677">
        <ele>86.0</ele>
        <time>2021-03-03T09:22:43Z</time>
      </trkpt>
      <trkpt lat="41.47505673" lon="2.1052391">
        <ele>86.0</ele>
        <time>2021-03-03T09:22:44Z</time>
      </trkpt>
      <trkpt lat="41.4750174" lon="2.10521644">
        <ele>86.0</ele>
        <time>2021-03-03T09:22:45Z</time>
      </trkpt>
      <trkpt lat="41.47497974" lon="2.10519312">
        <ele>86.0</ele>
        <time>2021-03-03T09:22:46Z</time>
      </trkpt>
      <trkpt lat="41.47494242" lon="2.10516912">
        <ele>87.0</ele>
        <time>2021-03-03T09:22:47Z</time>
      </trkpt>
      <trkpt lat="41.4749081" lon="2.10514213">
        <ele>87.0</ele>
        <time>2021-03-03T09:22:48Z</time>
      </trkpt>
      <trkpt lat="41.47487576" lon="2.10511181">
        <ele>87.0</ele>
        <time>2021-03-03T09:22:49Z</time>
      </trkpt>
      <trkpt lat="41.47484477" lon="2.10507947">
        <ele>87.0</ele>
        <time>2021-03-03T09:22:50Z</time>
      </trkpt>
      <trkpt lat="41.47481411" lon="2.10504581">
        <ele>87.0</ele>
        <time>2021-03-03T09:22:51Z</time>
      </trkpt>
      <trkpt lat="41.47478412" lon="2.10501182">
        <ele>87.0</ele>
        <time>2021-03-03T09:22:52Z</time>
      </trkpt>
      <trkpt lat="41.47475378" lon="2.10497815">
        <ele>88.0</ele>
        <time>2021-03-03T09:22:53Z</time>
      </trkpt>
      <trkpt lat="41.47472513" lon="2.10494483">
        <ele>88.0</ele>
        <time>2021-03-03T09:22:54Z</time>
      </trkpt>
      <trkpt lat="41.47469546" lon="2.10491283">
        <ele>88.0</ele>
        <time>2021-03-03T09:22:55Z</time>
      </trkpt>
      <trkpt lat="41.47466447" lon="2.10488117">
        <ele>88.0</ele>
        <time>2021-03-03T09:22:56Z</time>
      </trkpt>
      <trkpt lat="41.47463447" lon="2.10485085">
        <ele>89.0</ele>
        <time>2021-03-03T09:22:57Z</time>
      </trkpt>
      <trkpt lat="41.47460548" lon="2.10482151">
        <ele>89.0</ele>
        <time>2021-03-03T09:22:58Z</time>
      </trkpt>
      <trkpt lat="41.47457649" lon="2.10479419">
        <ele>89.0</ele>
        <time>2021-03-03T09:22:59Z</time>
      </trkpt>
      <trkpt lat="41.47454849" lon="2.10476953">
        <ele>89.0</ele>
        <time>2021-03-03T09:23:00Z</time>
      </trkpt>
      <trkpt lat="41.47451983" lon="2.10474487">
        <ele>90.0</ele>
        <time>2021-03-03T09:23:01Z</time>
      </trkpt>
      <trkpt lat="41.47449083" lon="2.10472054">
        <ele>90.0</ele>
        <time>2021-03-03T09:23:02Z</time>
      </trkpt>
      <trkpt lat="41.47446218" lon="2.10469289">
        <ele>90.0</ele>
        <time>2021-03-03T09:23:03Z</time>
      </trkpt>
      <trkpt lat="41.47443384" lon="2.10466323">
        <ele>90.0</ele>
        <time>2021-03-03T09:23:04Z</time>
      </trkpt>
      <trkpt lat="41.47440685" lon="2.1046319">
        <ele>91.0</ele>
        <time>2021-03-03T09:23:05Z</time>
      </trkpt>
      <trkpt lat="41.47437985" lon="2.1046019">
        <ele>91.0</ele>
        <time>2021-03-03T09:23:06Z</time>
      </trkpt>
      <trkpt lat="41.47435252" lon="2.10457356">
        <ele>91.0</ele>
        <time>2021-03-03T09:23:07Z</time>
      </trkpt>
      <trkpt lat="41.47432485" lon="2.10454557">
        <ele>91.0</ele>
        <time>2021-03-03T09:23:08Z</time>
      </trkpt>
      <trkpt lat="41.47429753" lon="2.10451657">
        <ele>91.0</ele>
        <time>2021-03-03T09:23:09Z</time>
      </trkpt>
      <trkpt lat="41.4742702" lon="2.10448658">
        <ele>91.0</ele>
        <time>2021-03-03T09:23:10Z</time>
      </trkpt>
      <trkpt lat="41.47424154" lon="2.10445392">
        <ele>92.0</ele>
        <time>2021-03-03T09:23:11Z</time>
      </trkpt>
      <trkpt lat="41.47421521" lon="2.10442426">
        <ele>92.0</ele>
        <time>2021-03-03T09:23:12Z</time>
      </trkpt>
      <trkpt lat="41.47418955" lon="2.10439426">
        <ele>92.0</ele>
        <time>2021-03-03T09:23:13Z</time>
      </trkpt>
      <trkpt lat="41.47416455" lon="2.1043656">
        <ele>92.0</ele>
        <time>2021-03-03T09:23:14Z</time>
      </trkpt>
      <trkpt lat="41.47413923" lon="2.10433828">
        <ele>92.0</ele>
        <time>2021-03-03T09:23:15Z</time>
      </trkpt>
      <trkpt lat="41.4741149" lon="2.10431195">
        <ele>92.0</ele>
        <time>2021-03-03T09:23:16Z</time>
      </trkpt>
      <trkpt lat="41.47409024" lon="2.10428696">
        <ele>93.0</ele>
        <time>2021-03-03T09:23:17Z</time>
      </trkpt>
      <trkpt lat="41.47406557" lon="2.10426397">
        <ele>93.0</ele>
        <time>2021-03-03T09:23:18Z</time>
      </trkpt>
      <trkpt lat="41.47404025" lon="2.1042423">
        <ele>93.0</ele>
        <time>2021-03-03T09:23:19Z</time>
      </trkpt>
      <trkpt lat="41.47401392" lon="2.10422198">
        <ele>93.0</ele>
        <time>2021-03-03T09:23:20Z</time>
      </trkpt>
      <trkpt lat="41.47398626" lon="2.10420498">
        <ele>93.0</ele>
        <time>2021-03-03T09:23:21Z</time>
      </trkpt>
      <trkpt lat="41.47395727" lon="2.10419232">
        <ele>94.0</ele>
        <time>2021-03-03T09:23:22Z</time>
      </trkpt>
      <trkpt lat="41.47392693" lon="2.10418566">
        <ele>94.0</ele>
        <time>2021-03-03T09:23:23Z</time>
      </trkpt>
      <trkpt lat="41.47389494" lon="2.10418333">
        <ele>94.0</ele>
        <time>2021-03-03T09:23:24Z</time>
      </trkpt>
      <trkpt lat="41.47386261" lon="2.10418599">
        <ele>94.0</ele>
        <time>2021-03-03T09:23:25Z</time>
      </trkpt>
      <trkpt lat="41.47382995" lon="2.10419132">
        <ele>94.0</ele>
        <time>2021-03-03T09:23:26Z</time>
      </trkpt>
      <trkpt lat="41.47379895" lon="2.10419899">
        <ele>94.0</ele>
        <time>2021-03-03T09:23:27Z</time>
      </trkpt>
      <trkpt lat="41.47376863" lon="2.10420665">
        <ele>94.0</ele>
        <time>2021-03-03T09:23:28Z</time>
      </trkpt>
      <trkpt lat="41.47373896" lon="2.10421432">
        <ele>95.0</ele>
        <time>2021-03-03T09:23:29Z</time>
      </trkpt>
      <trkpt lat="41.47371031" lon="2.10422231">
        <ele>95.0</ele>
        <time>2021-03-03T09:23:30Z</time>
      </trkpt>
      <trkpt lat="41.47368398" lon="2.10423031">
        <ele>95.0</ele>
        <time>2021-03-03T09:23:31Z</time>
      </trkpt>
      <trkpt lat="41.47366065" lon="2.10423897">
        <ele>96.0</ele>
        <time>2021-03-03T09:23:32Z</time>
      </trkpt>
      <trkpt lat="41.47363799" lon="2.10424863">
        <ele>96.0</ele>
        <time>2021-03-03T09:23:33Z</time>
      </trkpt>
      <trkpt lat="41.47361566" lon="2.10425996">
        <ele>96.0</ele>
        <time>2021-03-03T09:23:34Z</time>
      </trkpt>
      <trkpt lat="41.47359234" lon="2.10427328">
        <ele>96.0</ele>
        <time>2021-03-03T09:23:35Z</time>
      </trkpt>
      <trkpt lat="41.47356868" lon="2.10428961">
        <ele>96.0</ele>
        <time>2021-03-03T09:23:36Z</time>
      </trkpt>
      <trkpt lat="41.47354401" lon="2.10430894">
        <ele>96.0</ele>
        <time>2021-03-03T09:23:37Z</time>
      </trkpt>
      <trkpt lat="41.47352001" lon="2.10433127">
        <ele>97.0</ele>
        <time>2021-03-03T09:23:38Z</time>
      </trkpt>
      <trkpt lat="41.47349702" lon="2.10435494">
        <ele>97.0</ele>
        <time>2021-03-03T09:23:39Z</time>
      </trkpt>
      <trkpt lat="41.47347502" lon="2.10437794">
        <ele>97.0</ele>
        <time>2021-03-03T09:23:40Z</time>
      </trkpt>
      <trkpt lat="41.47345437" lon="2.10440059">
        <ele>97.0</ele>
        <time>2021-03-03T09:23:41Z</time>
      </trkpt>
      <trkpt lat="41.47343537" lon="2.10442258">
        <ele>97.0</ele>
        <time>2021-03-03T09:23:42Z</time>
      </trkpt>
      <trkpt lat="41.47341771" lon="2.10444424">
        <ele>98.0</ele>
        <time>2021-03-03T09:23:43Z</time>
      </trkpt>
      <trkpt lat="41.47339938" lon="2.10446591">
        <ele>98.0</ele>
        <time>2021-03-03T09:23:44Z</time>
      </trkpt>
      <trkpt lat="41.47337872" lon="2.1044879">
        <ele>98.0</ele>
        <time>2021-03-03T09:23:45Z</time>
      </trkpt>
      <trkpt lat="41.4733584" lon="2.10450989">
        <ele>98.0</ele>
        <time>2021-03-03T09:23:46Z</time>
      </trkpt>
      <trkpt lat="41.4733374" lon="2.10453122">
        <ele>98.0</ele>
        <time>2021-03-03T09:23:46Z</time>
      </trkpt>
      <trkpt lat="41.47331641" lon="2.10455289">
        <ele>99.0</ele>
        <time>2021-03-03T09:23:47Z</time>
      </trkpt>
      <trkpt lat="41.47329407" lon="2.10457588">
        <ele>99.0</ele>
        <time>2021-03-03T09:23:48Z</time>
      </trkpt>
      <trkpt lat="41.47326907" lon="2.10460121">
        <ele>99.0</ele>
        <time>2021-03-03T09:23:49Z</time>
      </trkpt>
      <trkpt lat="41.47324474" lon="2.10462888">
        <ele>99.0</ele>
        <time>2021-03-03T09:23:50Z</time>
      </trkpt>
      <trkpt lat="41.47322075" lon="2.1046582">
        <ele>99.0</ele>
        <time>2021-03-03T09:23:51Z</time>
      </trkpt>
      <trkpt lat="41.47319743" lon="2.10468987">
        <ele>100.0</ele>
        <time>2021-03-03T09:23:52Z</time>
      </trkpt>
      <trkpt lat="41.47317609" lon="2.10472386">
        <ele>100.0</ele>
        <time>2021-03-03T09:23:53Z</time>
      </trkpt>
      <trkpt lat="41.47315743" lon="2.10475851">
        <ele>100.0</ele>
        <time>2021-03-03T09:23:54Z</time>
      </trkpt>
      <trkpt lat="41.47313877" lon="2.10479351">
        <ele>100.0</ele>
        <time>2021-03-03T09:23:55Z</time>
      </trkpt>
      <trkpt lat="41.47312044" lon="2.1048275">
        <ele>100.0</ele>
        <time>2021-03-03T09:23:56Z</time>
      </trkpt>
      <trkpt lat="41.47310345" lon="2.1048615">
        <ele>101.0</ele>
        <time>2021-03-03T09:23:57Z</time>
      </trkpt>
      <trkpt lat="41.47308646" lon="2.10489449">
        <ele>101.0</ele>
        <time>2021-03-03T09:23:58Z</time>
      </trkpt>
      <trkpt lat="41.47306913" lon="2.10492516">
        <ele>101.0</ele>
        <time>2021-03-03T09:23:59Z</time>
      </trkpt>
      <trkpt lat="41.47305114" lon="2.10495416">
        <ele>101.0</ele>
        <time>2021-03-03T09:24:00Z</time>
      </trkpt>
      <trkpt lat="41.47303382" lon="2.10498115">
        <ele>102.0</ele>
        <time>2021-03-03T09:24:01Z</time>
      </trkpt>
      <trkpt lat="41.47301615" lon="2.10500847">
        <ele>102.0</ele>
        <time>2021-03-03T09:24:02Z</time>
      </trkpt>
      <trkpt lat="41.4729985" lon="2.10503647">
        <ele>102.0</ele>
        <time>2021-03-03T09:24:03Z</time>
      </trkpt>
      <trkpt lat="41.47298016" lon="2.1050638">
        <ele>102.0</ele>
        <time>2021-03-03T09:24:04Z</time>
      </trkpt>
      <trkpt lat="41.47295984" lon="2.10509245">
        <ele>102.0</ele>
        <time>2021-03-03T09:24:05Z</time>
      </trkpt>
      <trkpt lat="41.47293918" lon="2.10512344">
        <ele>102.0</ele>
        <time>2021-03-03T09:24:06Z</time>
      </trkpt>
      <trkpt lat="41.47291919" lon="2.1051561">
        <ele>102.0</ele>
        <time>2021-03-03T09:24:07Z</time>
      </trkpt>
      <trkpt lat="41.47290153" lon="2.10519077">
        <ele>103.0</ele>
        <time>2021-03-03T09:24:08Z</time>
      </trkpt>
      <trkpt lat="41.4728872" lon="2.10522609">
        <ele>103.0</ele>
        <time>2021-03-03T09:24:09Z</time>
      </trkpt>
      <trkpt lat="41.47287721" lon="2.10526076">
        <ele>103.0</ele>
        <time>2021-03-03T09:24:10Z</time>
      </trkpt>
      <trkpt lat="41.47286888" lon="2.10529708">
        <ele>103.0</ele>
        <time>2021-03-03T09:24:11Z</time>
      </trkpt>
      <trkpt lat="41.47286121" lon="2.10533441">
        <ele>103.0</ele>
        <time>2021-03-03T09:24:12Z</time>
      </trkpt>
      <trkpt lat="41.47285189" lon="2.10537307">
        <ele>103.0</ele>
        <time>2021-03-03T09:24:13Z</time>
      </trkpt>
      <trkpt lat="41.47284089" lon="2.10541173">
        <ele>103.0</ele>
        <time>2021-03-03T09:24:14Z</time>
      </trkpt>
      <trkpt lat="41.47282989" lon="2.10545038">
        <ele>104.0</ele>
        <time>2021-03-03T09:24:15Z</time>
      </trkpt>
      <trkpt lat="41.4728179" lon="2.10548705">
        <ele>104.0</ele>
        <time>2021-03-03T09:24:16Z</time>
      </trkpt>
      <trkpt lat="41.47280257" lon="2.10551737">
        <ele>104.0</ele>
        <time>2021-03-03T09:24:17Z</time>
      </trkpt>
      <trkpt lat="41.47278391" lon="2.10554004">
        <ele>104.0</ele>
        <time>2021-03-03T09:24:18Z</time>
      </trkpt>
      <trkpt lat="41.47276458" lon="2.10555703">
        <ele>104.0</ele>
        <time>2021-03-03T09:24:19Z</time>
      </trkpt>
      <trkpt lat="41.47274558" lon="2.1055687">
        <ele>104.0</ele>
        <time>2021-03-03T09:24:20Z</time>
      </trkpt>
      <trkpt lat="41.47272691" lon="2.1055757">
        <ele>105.0</ele>
        <time>2021-03-03T09:24:21Z</time>
      </trkpt>
      <trkpt lat="41.47270659" lon="2.10557769">
        <ele>105.0</ele>
        <time>2021-03-03T09:24:22Z</time>
      </trkpt>
      <trkpt lat="41.4726826" lon="2.10557302">
        <ele>105.0</ele>
        <time>2021-03-03T09:24:23Z</time>
      </trkpt>
      <trkpt lat="41.47265626" lon="2.10556203">
        <ele>105.0</ele>
        <time>2021-03-03T09:24:24Z</time>
      </trkpt>
      <trkpt lat="41.47262794" lon="2.10554703">
        <ele>105.0</ele>
        <time>2021-03-03T09:24:25Z</time>
      </trkpt>
      <trkpt lat="41.47260027" lon="2.10553171">
        <ele>105.0</ele>
        <time>2021-03-03T09:24:26Z</time>
      </trkpt>
      <trkpt lat="41.47257495" lon="2.10551804">
        <ele>105.0</ele>
        <time>2021-03-03T09:24:27Z</time>
      </trkpt>
      <trkpt lat="41.47255262" lon="2.10550538">
        <ele>105.0</ele>
        <time>2021-03-03T09:24:28Z</time>
      </trkpt>
      <trkpt lat="41.47252996" lon="2.10549339">
        <ele>105.0</ele>
        <time>2021-03-03T09:24:29Z</time>
      </trkpt>
      <trkpt lat="41.4725043" lon="2.10548006">
        <ele>106.0</ele>
        <time>2021-03-03T09:24:30Z</time>
      </trkpt>
      <trkpt lat="41.47247831" lon="2.10546574">
        <ele>106.0</ele>
        <time>2021-03-03T09:24:31Z</time>
      </trkpt>
      <trkpt lat="41.47245331" lon="2.10545141">
        <ele>106.0</ele>
        <time>2021-03-03T09:24:32Z</time>
      </trkpt>
      <trkpt lat="41.47242766" lon="2.10543541">
        <ele>106.0</ele>
        <time>2021-03-03T09:24:33Z</time>
      </trkpt>
      <trkpt lat="41.47240332" lon="2.10542109">
        <ele>106.0</ele>
        <time>2021-03-03T09:24:34Z</time>
      </trkpt>
      <trkpt lat="41.47238333" lon="2.10540942">
        <ele>106.0</ele>
        <time>2021-03-03T09:24:35Z</time>
      </trkpt>
      <trkpt lat="41.47236301" lon="2.10540077">
        <ele>106.0</ele>
        <time>2021-03-03T09:24:36Z</time>
      </trkpt>
      <trkpt lat="41.47234068" lon="2.1053961">
        <ele>106.0</ele>
        <time>2021-03-03T09:24:37Z</time>
      </trkpt>
      <trkpt lat="41.47231769" lon="2.10539642">
        <ele>107.0</ele>
        <time>2021-03-03T09:24:38Z</time>
      </trkpt>
      <trkpt lat="41.47229403" lon="2.10539842">
        <ele>107.0</ele>
        <time>2021-03-03T09:24:39Z</time>
      </trkpt>
      <trkpt lat="41.47226903" lon="2.10540108">
        <ele>108.0</ele>
        <time>2021-03-03T09:24:40Z</time>
      </trkpt>
      <trkpt lat="41.47224371" lon="2.10540775">
        <ele>108.0</ele>
        <time>2021-03-03T09:24:41Z</time>
      </trkpt>
      <trkpt lat="41.47221871" lon="2.1054194">
        <ele>108.0</ele>
        <time>2021-03-03T09:24:42Z</time>
      </trkpt>
      <trkpt lat="41.47219071" lon="2.1054354">
        <ele>108.0</ele>
        <time>2021-03-03T09:24:43Z</time>
      </trkpt>
      <trkpt lat="41.47216205" lon="2.10545339">
        <ele>109.0</ele>
        <time>2021-03-03T09:24:44Z</time>
      </trkpt>
      <trkpt lat="41.47213472" lon="2.10547238">
        <ele>109.0</ele>
        <time>2021-03-03T09:24:45Z</time>
      </trkpt>
      <trkpt lat="41.47210873" lon="2.10549305">
        <ele>109.0</ele>
        <time>2021-03-03T09:24:46Z</time>
      </trkpt>
      <trkpt lat="41.47208406" lon="2.10551305">
        <ele>109.0</ele>
        <time>2021-03-03T09:24:47Z</time>
      </trkpt>
      <trkpt lat="41.4720614" lon="2.10553438">
        <ele>110.0</ele>
        <time>2021-03-03T09:24:48Z</time>
      </trkpt>
      <trkpt lat="41.47203974" lon="2.10555704">
        <ele>110.0</ele>
        <time>2021-03-03T09:24:49Z</time>
      </trkpt>
      <trkpt lat="41.47202074" lon="2.1055797">
        <ele>110.0</ele>
        <time>2021-03-03T09:24:50Z</time>
      </trkpt>
      <trkpt lat="41.47200308" lon="2.1056027">
        <ele>110.0</ele>
        <time>2021-03-03T09:24:51Z</time>
      </trkpt>
      <trkpt lat="41.47198576" lon="2.10562535">
        <ele>111.0</ele>
        <time>2021-03-03T09:24:52Z</time>
      </trkpt>
      <trkpt lat="41.47196743" lon="2.10564769">
        <ele>111.0</ele>
        <time>2021-03-03T09:24:53Z</time>
      </trkpt>
      <trkpt lat="41.47195043" lon="2.10566868">
        <ele>112.0</ele>
        <time>2021-03-03T09:24:54Z</time>
      </trkpt>
      <trkpt lat="41.47193078" lon="2.10568701">
        <ele>112.0</ele>
        <time>2021-03-03T09:24:55Z</time>
      </trkpt>
      <trkpt lat="41.47191045" lon="2.10570201">
        <ele>112.0</ele>
        <time>2021-03-03T09:24:56Z</time>
      </trkpt>
      <trkpt lat="41.47189112" lon="2.10571567">
        <ele>112.0</ele>
        <time>2021-03-03T09:24:57Z</time>
      </trkpt>
      <trkpt lat="41.47187346" lon="2.10572799">
        <ele>113.0</ele>
        <time>2021-03-03T09:24:58Z</time>
      </trkpt>
      <trkpt lat="41.4718578" lon="2.10573999">
        <ele>113.0</ele>
        <time>2021-03-03T09:24:59Z</time>
      </trkpt>
      <trkpt lat="41.47184447" lon="2.10575098">
        <ele>114.0</ele>
        <time>2021-03-03T09:25:00Z</time>
      </trkpt>
      <trkpt lat="41.47183047" lon="2.1057653">
        <ele>114.0</ele>
        <time>2021-03-03T09:25:01Z</time>
      </trkpt>
      <trkpt lat="41.47181514" lon="2.10578196">
        <ele>114.0</ele>
        <time>2021-03-03T09:25:02Z</time>
      </trkpt>
      <trkpt lat="41.47179815" lon="2.10580095">
        <ele>114.0</ele>
        <time>2021-03-03T09:25:03Z</time>
      </trkpt>
      <trkpt lat="41.47178182" lon="2.10581962">
        <ele>115.0</ele>
        <time>2021-03-03T09:25:04Z</time>
      </trkpt>
      <trkpt lat="41.47176683" lon="2.10583827">
        <ele>115.0</ele>
        <time>2021-03-03T09:25:05Z</time>
      </trkpt>
      <trkpt lat="41.47175083" lon="2.10585861">
        <ele>116.0</ele>
        <time>2021-03-03T09:25:06Z</time>
      </trkpt>
      <trkpt lat="41.4717355" lon="2.1058796">
        <ele>116.0</ele>
        <time>2021-03-03T09:25:07Z</time>
      </trkpt>
      <trkpt lat="41.47172184" lon="2.1059026">
        <ele>116.0</ele>
        <time>2021-03-03T09:25:08Z</time>
      </trkpt>
      <trkpt lat="41.47170751" lon="2.10592459">
        <ele>116.0</ele>
        <time>2021-03-03T09:25:09Z</time>
      </trkpt>
      <trkpt lat="41.47169486" lon="2.10594592">
        <ele>117.0</ele>
        <time>2021-03-03T09:25:10Z</time>
      </trkpt>
      <trkpt lat="41.47168152" lon="2.10596959">
        <ele>117.0</ele>
        <time>2021-03-03T09:25:11Z</time>
      </trkpt>
      <trkpt lat="41.47166752" lon="2.10599191">
        <ele>118.0</ele>
        <time>2021-03-03T09:25:12Z</time>
      </trkpt>
      <trkpt lat="41.47165253" lon="2.10601591">
        <ele>118.0</ele>
        <time>2021-03-03T09:25:13Z</time>
      </trkpt>
      <trkpt lat="41.47163987" lon="2.10604057">
        <ele>118.0</ele>
        <time>2021-03-03T09:25:14Z</time>
      </trkpt>
      <trkpt lat="41.47163021" lon="2.1060639">
        <ele>118.0</ele>
        <time>2021-03-03T09:25:15Z</time>
      </trkpt>
      <trkpt lat="41.47162155" lon="2.10608922">
        <ele>119.0</ele>
        <time>2021-03-03T09:25:16Z</time>
      </trkpt>
      <trkpt lat="41.47161355" lon="2.10611355">
        <ele>119.0</ele>
        <time>2021-03-03T09:25:17Z</time>
      </trkpt>
      <trkpt lat="41.4716049" lon="2.1061362">
        <ele>119.0</ele>
        <time>2021-03-03T09:25:18Z</time>
      </trkpt>
      <trkpt lat="41.47159523" lon="2.10615753">
        <ele>119.0</ele>
        <time>2021-03-03T09:25:19Z</time>
      </trkpt>
      <trkpt lat="41.4715849" lon="2.10617686">
        <ele>120.0</ele>
        <time>2021-03-03T09:25:20Z</time>
      </trkpt>
      <trkpt lat="41.47157624" lon="2.10619352">
        <ele>120.0</ele>
        <time>2021-03-03T09:25:21Z</time>
      </trkpt>
      <trkpt lat="41.47156658" lon="2.10620818">
        <ele>120.0</ele>
        <time>2021-03-03T09:25:22Z</time>
      </trkpt>
      <trkpt lat="41.47155493" lon="2.10622352">
        <ele>121.0</ele>
        <time>2021-03-03T09:25:23Z</time>
      </trkpt>
      <trkpt lat="41.47154126" lon="2.10623851">
        <ele>121.0</ele>
        <time>2021-03-03T09:25:24Z</time>
      </trkpt>
      <trkpt lat="41.47152694" lon="2.10624983">
        <ele>121.0</ele>
        <time>2021-03-03T09:25:25Z</time>
      </trkpt>
      <trkpt lat="41.47151094" lon="2.10625582">
        <ele>121.0</ele>
        <time>2021-03-03T09:25:26Z</time>
      </trkpt>
      <trkpt lat="41.47149295" lon="2.10625881">
        <ele>121.0</ele>
        <time>2021-03-03T09:25:27Z</time>
      </trkpt>
      <trkpt lat="41.47147361" lon="2.10626013">
        <ele>122.0</ele>
        <time>2021-03-03T09:25:28Z</time>
      </trkpt>
      <trkpt lat="41.47145495" lon="2.10625881">
        <ele>122.0</ele>
        <time>2021-03-03T09:25:29Z</time>
      </trkpt>
      <trkpt lat="41.47143762" lon="2.10625582">
        <ele>122.0</ele>
        <time>2021-03-03T09:25:30Z</time>
      </trkpt>
      <trkpt lat="41.47141997" lon="2.10625049">
        <ele>122.0</ele>
        <time>2021-03-03T09:25:31Z</time>
      </trkpt>
      <trkpt lat="41.47140063" lon="2.10624216">
        <ele>122.0</ele>
        <time>2021-03-03T09:25:32Z</time>
      </trkpt>
      <trkpt lat="41.47138098" lon="2.10623184">
        <ele>122.0</ele>
        <time>2021-03-03T09:25:33Z</time>
      </trkpt>
      <trkpt lat="41.47136065" lon="2.10621984">
        <ele>122.0</ele>
        <time>2021-03-03T09:25:34Z</time>
      </trkpt>
      <trkpt lat="41.47134033" lon="2.10620652">
        <ele>122.0</ele>
        <time>2021-03-03T09:25:35Z</time>
      </trkpt>
      <trkpt lat="41.471319" lon="2.10619386">
        <ele>122.0</ele>
        <time>2021-03-03T09:25:36Z</time>
      </trkpt>
      <trkpt lat="41.471297" lon="2.10618119">
        <ele>122.0</ele>
        <time>2021-03-03T09:25:37Z</time>
      </trkpt>
      <trkpt lat="41.47127567" lon="2.10616854">
        <ele>122.0</ele>
        <time>2021-03-03T09:25:38Z</time>
      </trkpt>
      <trkpt lat="41.47125534" lon="2.10615488">
        <ele>122.0</ele>
        <time>2021-03-03T09:25:39Z</time>
      </trkpt>
      <trkpt lat="41.47123535" lon="2.10613989">
        <ele>122.0</ele>
        <time>2021-03-03T09:25:40Z</time>
      </trkpt>
      <trkpt lat="41.47121503" lon="2.10612689">
        <ele>122.0</ele>
        <time>2021-03-03T09:25:41Z</time>
      </trkpt>
      <trkpt lat="41.47119437" lon="2.10611623">
        <ele>122.0</ele>
        <time>2021-03-03T09:25:42Z</time>
      </trkpt>
      <trkpt lat="41.47117304" lon="2.10610658">
        <ele>122.0</ele>
        <time>2021-03-03T09:25:43Z</time>
      </trkpt>
      <trkpt lat="41.47115038" lon="2.10609491">
        <ele>122.0</ele>
        <time>2021-03-03T09:25:44Z</time>
      </trkpt>
      <trkpt lat="41.47112706" lon="2.10608191">
        <ele>122.0</ele>
        <time>2021-03-03T09:25:45Z</time>
      </trkpt>
      <trkpt lat="41.47110172" lon="2.10606692">
        <ele>122.0</ele>
        <time>2021-03-03T09:25:46Z</time>
      </trkpt>
      <trkpt lat="41.47107573" lon="2.10604925">
        <ele>122.0</ele>
        <time>2021-03-03T09:25:47Z</time>
      </trkpt>
      <trkpt lat="41.47104907" lon="2.10603125">
        <ele>122.0</ele>
        <time>2021-03-03T09:25:48Z</time>
      </trkpt>
      <trkpt lat="41.47102173" lon="2.10601459">
        <ele>122.0</ele>
        <time>2021-03-03T09:25:49Z</time>
      </trkpt>
      <trkpt lat="41.47099274" lon="2.10599926">
        <ele>122.0</ele>
        <time>2021-03-03T09:25:50Z</time>
      </trkpt>
      <trkpt lat="41.47096308" lon="2.10598693">
        <ele>122.0</ele>
        <time>2021-03-03T09:25:51Z</time>
      </trkpt>
      <trkpt lat="41.47093209" lon="2.10597627">
        <ele>122.0</ele>
        <time>2021-03-03T09:25:52Z</time>
      </trkpt>
      <trkpt lat="41.47089943" lon="2.10596662">
        <ele>122.0</ele>
        <time>2021-03-03T09:25:53Z</time>
      </trkpt>
      <trkpt lat="41.4708661" lon="2.10595495">
        <ele>122.0</ele>
        <time>2021-03-03T09:25:54Z</time>
      </trkpt>
      <trkpt lat="41.47083243" lon="2.10594063">
        <ele>123.0</ele>
        <time>2021-03-03T09:25:55Z</time>
      </trkpt>
      <trkpt lat="41.47080144" lon="2.10592296">
        <ele>123.0</ele>
        <time>2021-03-03T09:25:56Z</time>
      </trkpt>
      <trkpt lat="41.47077278" lon="2.10590229">
        <ele>123.0</ele>
        <time>2021-03-03T09:25:57Z</time>
      </trkpt>
      <trkpt lat="41.47074679" lon="2.10587796">
        <ele>123.0</ele>
        <time>2021-03-03T09:25:58Z</time>
      </trkpt>
      <trkpt lat="41.47072446" lon="2.10585129">
        <ele>123.0</ele>
        <time>2021-03-03T09:25:59Z</time>
      </trkpt>
      <trkpt lat="41.47070413" lon="2.1058213">
        <ele>123.0</ele>
        <time>2021-03-03T09:26:00Z</time>
      </trkpt>
      <trkpt lat="41.47068547" lon="2.1057853">
        <ele>124.0</ele>
        <time>2021-03-03T09:26:01Z</time>
      </trkpt>
      <trkpt lat="41.47067081" lon="2.10574697">
        <ele>124.0</ele>
        <time>2021-03-03T09:26:02Z</time>
      </trkpt>
      <trkpt lat="41.47065981" lon="2.10570565">
        <ele>124.0</ele>
        <time>2021-03-03T09:26:03Z</time>
      </trkpt>
      <trkpt lat="41.47065148" lon="2.10566065">
        <ele>124.0</ele>
        <time>2021-03-03T09:26:04Z</time>
      </trkpt>
      <trkpt lat="41.47064515" lon="2.10561066">
        <ele>124.0</ele>
        <time>2021-03-03T09:26:05Z</time>
      </trkpt>
      <trkpt lat="41.47064049" lon="2.10555667">
        <ele>124.0</ele>
        <time>2021-03-03T09:26:06Z</time>
      </trkpt>
      <trkpt lat="41.47063816" lon="2.1055">
        <ele>124.0</ele>
        <time>2021-03-03T09:26:07Z</time>
      </trkpt>
      <trkpt lat="41.47063649" lon="2.10544101">
        <ele>124.0</ele>
        <time>2021-03-03T09:26:08Z</time>
      </trkpt>
      <trkpt lat="41.47063183" lon="2.10538102">
        <ele>124.0</ele>
        <time>2021-03-03T09:26:09Z</time>
      </trkpt>
      <trkpt lat="41.4706215" lon="2.10532635">
        <ele>124.0</ele>
        <time>2021-03-03T09:26:10Z</time>
      </trkpt>
      <trkpt lat="41.47060483" lon="2.10528336">
        <ele>124.0</ele>
        <time>2021-03-03T09:26:11Z</time>
      </trkpt>
      <trkpt lat="41.47058384" lon="2.10525537">
        <ele>124.0</ele>
        <time>2021-03-03T09:26:12Z</time>
      </trkpt>
      <trkpt lat="41.47056151" lon="2.10524171">
        <ele>124.0</ele>
        <time>2021-03-03T09:26:13Z</time>
      </trkpt>
      <trkpt lat="41.47053951" lon="2.10523938">
        <ele>124.0</ele>
        <time>2021-03-03T09:26:14Z</time>
      </trkpt>
      <trkpt lat="41.47051919" lon="2.10524671">
        <ele>124.0</ele>
        <time>2021-03-03T09:26:15Z</time>
      </trkpt>
      <trkpt lat="41.47050152" lon="2.10526071">
        <ele>124.0</ele>
        <time>2021-03-03T09:26:16Z</time>
      </trkpt>
      <trkpt lat="41.4704842" lon="2.10527904">
        <ele>124.0</ele>
        <time>2021-03-03T09:26:17Z</time>
      </trkpt>
      <trkpt lat="41.47046354" lon="2.10529971">
        <ele>125.0</ele>
        <time>2021-03-03T09:26:18Z</time>
      </trkpt>
      <trkpt lat="41.47043921" lon="2.10532303">
        <ele>125.0</ele>
        <time>2021-03-03T09:26:19Z</time>
      </trkpt>
      <trkpt lat="41.47041322" lon="2.10535035">
        <ele>126.0</ele>
        <time>2021-03-03T09:26:20Z</time>
      </trkpt>
      <trkpt lat="41.47038855" lon="2.10537935">
        <ele>126.0</ele>
        <time>2021-03-03T09:26:21Z</time>
      </trkpt>
      <trkpt lat="41.47036622" lon="2.10540734">
        <ele>126.0</ele>
        <time>2021-03-03T09:26:22Z</time>
      </trkpt>
      <trkpt lat="41.47034489" lon="2.10543367">
        <ele>126.0</ele>
        <time>2021-03-03T09:26:23Z</time>
      </trkpt>
      <trkpt lat="41.47032224" lon="2.10545866">
        <ele>127.0</ele>
        <time>2021-03-03T09:26:24Z</time>
      </trkpt>
      <trkpt lat="41.47030157" lon="2.10548299">
        <ele>127.0</ele>
        <time>2021-03-03T09:26:25Z</time>
      </trkpt>
      <trkpt lat="41.47028258" lon="2.10550732">
        <ele>128.0</ele>
        <time>2021-03-03T09:26:26Z</time>
      </trkpt>
      <trkpt lat="41.47026559" lon="2.10553032">
        <ele>128.0</ele>
        <time>2021-03-03T09:26:27Z</time>
      </trkpt>
      <trkpt lat="41.47025026" lon="2.10555332">
        <ele>129.0</ele>
        <time>2021-03-03T09:26:28Z</time>
      </trkpt>
      <trkpt lat="41.4702356" lon="2.10557598">
        <ele>129.0</ele>
        <time>2021-03-03T09:26:29Z</time>
      </trkpt>
      <trkpt lat="41.4702216" lon="2.1055993">
        <ele>129.0</ele>
        <time>2021-03-03T09:26:30Z</time>
      </trkpt>
      <trkpt lat="41.47020694" lon="2.10562164">
        <ele>130.0</ele>
        <time>2021-03-03T09:26:31Z</time>
      </trkpt>
      <trkpt lat="41.47019128" lon="2.1056463">
        <ele>130.0</ele>
        <time>2021-03-03T09:26:32Z</time>
      </trkpt>
      <trkpt lat="41.47017461" lon="2.10567163">
        <ele>130.0</ele>
        <time>2021-03-03T09:26:33Z</time>
      </trkpt>
      <trkpt lat="41.47015762" lon="2.10569763">
        <ele>131.0</ele>
        <time>2021-03-03T09:26:34Z</time>
      </trkpt>
      <trkpt lat="41.47014129" lon="2.10572463">
        <ele>131.0</ele>
        <time>2021-03-03T09:26:35Z</time>
      </trkpt>
      <trkpt lat="41.4701253" lon="2.10575262">
        <ele>132.0</ele>
        <time>2021-03-03T09:26:36Z</time>
      </trkpt>
      <trkpt lat="41.47010831" lon="2.10578162">
        <ele>132.0</ele>
        <time>2021-03-03T09:26:37Z</time>
      </trkpt>
      <trkpt lat="41.47009231" lon="2.10581128">
        <ele>132.0</ele>
        <time>2021-03-03T09:26:38Z</time>
      </trkpt>
      <trkpt lat="41.47007664" lon="2.10583894">
        <ele>132.0</ele>
        <time>2021-03-03T09:26:39Z</time>
      </trkpt>
      <trkpt lat="41.47006098" lon="2.10586327">
        <ele>133.0</ele>
        <time>2021-03-03T09:26:40Z</time>
      </trkpt>
      <trkpt lat="41.47004498" lon="2.10588561">
        <ele>133.0</ele>
        <time>2021-03-03T09:26:41Z</time>
      </trkpt>
      <trkpt lat="41.47002899" lon="2.10590794">
        <ele>133.0</ele>
        <time>2021-03-03T09:26:42Z</time>
      </trkpt>
      <trkpt lat="41.47001099" lon="2.10593193">
        <ele>133.0</ele>
        <time>2021-03-03T09:26:43Z</time>
      </trkpt>
      <trkpt lat="41.46999166" lon="2.10595593">
        <ele>133.0</ele>
        <time>2021-03-03T09:26:44Z</time>
      </trkpt>
      <trkpt lat="41.469969" lon="2.10597692">
        <ele>134.0</ele>
        <time>2021-03-03T09:26:45Z</time>
      </trkpt>
      <trkpt lat="41.46994468" lon="2.10599292">
        <ele>134.0</ele>
        <time>2021-03-03T09:26:46Z</time>
      </trkpt>
      <trkpt lat="41.46991868" lon="2.10600292">
        <ele>134.0</ele>
        <time>2021-03-03T09:26:47Z</time>
      </trkpt>
      <trkpt lat="41.46989169" lon="2.10600791">
        <ele>134.0</ele>
        <time>2021-03-03T09:26:48Z</time>
      </trkpt>
      <trkpt lat="41.46986136" lon="2.10601024">
        <ele>134.0</ele>
        <time>2021-03-03T09:26:49Z</time>
      </trkpt>
      <trkpt lat="41.46982836" lon="2.10601058">
        <ele>134.0</ele>
        <time>2021-03-03T09:26:50Z</time>
      </trkpt>
      <trkpt lat="41.4697927" lon="2.10600958">
        <ele>134.0</ele>
        <time>2021-03-03T09:26:51Z</time>
      </trkpt>
      <trkpt lat="41.4697537" lon="2.10600825">
        <ele>134.0</ele>
        <time>2021-03-03T09:26:52Z</time>
      </trkpt>
      <trkpt lat="41.4697117" lon="2.10600659">
        <ele>134.0</ele>
        <time>2021-03-03T09:26:53Z</time>
      </trkpt>
      <trkpt lat="41.4696677" lon="2.10600593">
        <ele>134.0</ele>
        <time>2021-03-03T09:26:54Z</time>
      </trkpt>
      <trkpt lat="41.46962238" lon="2.10600659">
        <ele>134.0</ele>
        <time>2021-03-03T09:26:55Z</time>
      </trkpt>
      <trkpt lat="41.46957771" lon="2.10600858">
        <ele>134.0</ele>
        <time>2021-03-03T09:26:56Z</time>
      </trkpt>
      <trkpt lat="41.46953239" lon="2.10601491">
        <ele>134.0</ele>
        <time>2021-03-03T09:26:57Z</time>
      </trkpt>
      <trkpt lat="41.46948706" lon="2.10602358">
        <ele>134.0</ele>
        <time>2021-03-03T09:26:58Z</time>
      </trkpt>
      <trkpt lat="41.46944141" lon="2.1060349">
        <ele>134.0</ele>
        <time>2021-03-03T09:26:59Z</time>
      </trkpt>
      <trkpt lat="41.46939641" lon="2.10604856">
        <ele>134.0</ele>
        <time>2021-03-03T09:27:00Z</time>
      </trkpt>
      <trkpt lat="41.46935241" lon="2.10606488">
        <ele>134.0</ele>
        <time>2021-03-03T09:27:01Z</time>
      </trkpt>
      <trkpt lat="41.46930708" lon="2.10608154">
        <ele>134.0</ele>
        <time>2021-03-03T09:27:02Z</time>
      </trkpt>
      <trkpt lat="41.46926143" lon="2.10609787">
        <ele>134.0</ele>
        <time>2021-03-03T09:27:03Z</time>
      </trkpt>
      <trkpt lat="41.46921409" lon="2.10611487">
        <ele>134.0</ele>
        <time>2021-03-03T09:27:04Z</time>
      </trkpt>
      <trkpt lat="41.4691651" lon="2.10613353">
        <ele>134.0</ele>
        <time>2021-03-03T09:27:05Z</time>
      </trkpt>
      <trkpt lat="41.4691161" lon="2.10615186">
        <ele>134.0</ele>
        <time>2021-03-03T09:27:06Z</time>
      </trkpt>
      <trkpt lat="41.46906745" lon="2.10617019">
        <ele>134.0</ele>
        <time>2021-03-03T09:27:07Z</time>
      </trkpt>
      <trkpt lat="41.46901678" lon="2.10618918">
        <ele>134.0</ele>
        <time>2021-03-03T09:27:08Z</time>
      </trkpt>
      <trkpt lat="41.46896678" lon="2.10620752">
        <ele>134.0</ele>
        <time>2021-03-03T09:27:09Z</time>
      </trkpt>
      <trkpt lat="41.46891846" lon="2.10622885">
        <ele>134.0</ele>
        <time>2021-03-03T09:27:10Z</time>
      </trkpt>
      <trkpt lat="41.46887047" lon="2.10625552">
        <ele>134.0</ele>
        <time>2021-03-03T09:27:11Z</time>
      </trkpt>
      <trkpt lat="41.46882313" lon="2.10628584">
        <ele>134.0</ele>
        <time>2021-03-03T09:27:12Z</time>
      </trkpt>
      <trkpt lat="41.46877647" lon="2.10631916">
        <ele>134.0</ele>
        <time>2021-03-03T09:27:13Z</time>
      </trkpt>
      <trkpt lat="41.46873048" lon="2.10635649">
        <ele>134.0</ele>
        <time>2021-03-03T09:27:14Z</time>
      </trkpt>
      <trkpt lat="41.46868415" lon="2.10639814">
        <ele>133.0</ele>
        <time>2021-03-03T09:27:15Z</time>
      </trkpt>
      <trkpt lat="41.46863782" lon="2.10644513">
        <ele>133.0</ele>
        <time>2021-03-03T09:27:16Z</time>
      </trkpt>
      <trkpt lat="41.46859116" lon="2.10649613">
        <ele>133.0</ele>
        <time>2021-03-03T09:27:17Z</time>
      </trkpt>
      <trkpt lat="41.4685465" lon="2.10655146">
        <ele>133.0</ele>
        <time>2021-03-03T09:27:18Z</time>
      </trkpt>
      <trkpt lat="41.46850316" lon="2.10660946">
        <ele>133.0</ele>
        <time>2021-03-03T09:27:19Z</time>
      </trkpt>
      <trkpt lat="41.46845917" lon="2.10666679">
        <ele>133.0</ele>
        <time>2021-03-03T09:27:20Z</time>
      </trkpt>
      <trkpt lat="41.46841351" lon="2.10672511">
        <ele>132.0</ele>
        <time>2021-03-03T09:27:21Z</time>
      </trkpt>
      <trkpt lat="41.46836885" lon="2.10678344">
        <ele>132.0</ele>
        <time>2021-03-03T09:27:22Z</time>
      </trkpt>
      <trkpt lat="41.46832218" lon="2.1068471">
        <ele>132.0</ele>
        <time>2021-03-03T09:27:23Z</time>
      </trkpt>
      <trkpt lat="41.46827785" lon="2.10690443">
        <ele>132.0</ele>
        <time>2021-03-03T09:27:24Z</time>
      </trkpt>
      <trkpt lat="41.46823486" lon="2.10695675">
        <ele>132.0</ele>
        <time>2021-03-03T09:27:25Z</time>
      </trkpt>
      <trkpt lat="41.46819154" lon="2.10700475">
        <ele>132.0</ele>
        <time>2021-03-03T09:27:26Z</time>
      </trkpt>
      <trkpt lat="41.4681492" lon="2.10704574">
        <ele>132.0</ele>
        <time>2021-03-03T09:27:27Z</time>
      </trkpt>
      <trkpt lat="41.4681062" lon="2.10707807">
        <ele>132.0</ele>
        <time>2021-03-03T09:27:28Z</time>
      </trkpt>
      <trkpt lat="41.46806355" lon="2.10710206">
        <ele>132.0</ele>
        <time>2021-03-03T09:27:29Z</time>
      </trkpt>
      <trkpt lat="41.46802556" lon="2.1071154">
        <ele>132.0</ele>
        <time>2021-03-03T09:27:30Z</time>
      </trkpt>
      <trkpt lat="41.46799356" lon="2.10711839">
        <ele>132.0</ele>
        <time>2021-03-03T09:27:31Z</time>
      </trkpt>
      <trkpt lat="41.4679669" lon="2.1071094">
        <ele>132.0</ele>
        <time>2021-03-03T09:27:32Z</time>
      </trkpt>
      <trkpt lat="41.46794657" lon="2.10708773">
        <ele>132.0</ele>
        <time>2021-03-03T09:27:33Z</time>
      </trkpt>
      <trkpt lat="41.46793091" lon="2.10705441">
        <ele>132.0</ele>
        <time>2021-03-03T09:27:34Z</time>
      </trkpt>
      <trkpt lat="41.46792058" lon="2.10701241">
        <ele>132.0</ele>
        <time>2021-03-03T09:27:35Z</time>
      </trkpt>
      <trkpt lat="41.46791192" lon="2.10696708">
        <ele>132.0</ele>
        <time>2021-03-03T09:27:36Z</time>
      </trkpt>
      <trkpt lat="41.4679026" lon="2.10692275">
        <ele>132.0</ele>
        <time>2021-03-03T09:27:37Z</time>
      </trkpt>
      <trkpt lat="41.46789094" lon="2.10688109">
        <ele>132.0</ele>
        <time>2021-03-03T09:27:38Z</time>
      </trkpt>
      <trkpt lat="41.46787727" lon="2.10684177">
        <ele>132.0</ele>
        <time>2021-03-03T09:27:39Z</time>
      </trkpt>
      <trkpt lat="41.46786228" lon="2.10680177">
        <ele>132.0</ele>
        <time>2021-03-03T09:27:40Z</time>
      </trkpt>
      <trkpt lat="41.46784562" lon="2.1067591">
        <ele>132.0</ele>
        <time>2021-03-03T09:27:41Z</time>
      </trkpt>
      <trkpt lat="41.46782995" lon="2.10671378">
        <ele>132.0</ele>
        <time>2021-03-03T09:27:42Z</time>
      </trkpt>
      <trkpt lat="41.46781829" lon="2.10666645">
        <ele>132.0</ele>
        <time>2021-03-03T09:27:43Z</time>
      </trkpt>
      <trkpt lat="41.46781264" lon="2.10661779">
        <ele>132.0</ele>
        <time>2021-03-03T09:27:44Z</time>
      </trkpt>
      <trkpt lat="41.46781164" lon="2.10656979">
        <ele>132.0</ele>
        <time>2021-03-03T09:27:45Z</time>
      </trkpt>
      <trkpt lat="41.46781264" lon="2.1065238">
        <ele>132.0</ele>
        <time>2021-03-03T09:27:46Z</time>
      </trkpt>
      <trkpt lat="41.46781963" lon="2.1064778">
        <ele>132.0</ele>
        <time>2021-03-03T09:27:47Z</time>
      </trkpt>
      <trkpt lat="41.46783395" lon="2.1064328">
        <ele>132.0</ele>
        <time>2021-03-03T09:27:48Z</time>
      </trkpt>
      <trkpt lat="41.46785762" lon="2.10638548">
        <ele>132.0</ele>
        <time>2021-03-03T09:27:49Z</time>
      </trkpt>
      <trkpt lat="41.46788427" lon="2.10633915">
        <ele>132.0</ele>
        <time>2021-03-03T09:27:50Z</time>
      </trkpt>
      <trkpt lat="41.46791327" lon="2.10629282">
        <ele>132.0</ele>
        <time>2021-03-03T09:27:51Z</time>
      </trkpt>
      <trkpt lat="41.46794226" lon="2.1062465">
        <ele>132.0</ele>
        <time>2021-03-03T09:27:52Z</time>
      </trkpt>
      <trkpt lat="41.46796525" lon="2.10619851">
        <ele>132.0</ele>
        <time>2021-03-03T09:27:53Z</time>
      </trkpt>
      <trkpt lat="41.46798359" lon="2.10614517">
        <ele>132.0</ele>
        <time>2021-03-03T09:27:54Z</time>
      </trkpt>
      <trkpt lat="41.46799924" lon="2.10608818">
        <ele>132.0</ele>
        <time>2021-03-03T09:27:55Z</time>
      </trkpt>
      <trkpt lat="41.46801291" lon="2.10602685">
        <ele>131.0</ele>
        <time>2021-03-03T09:27:56Z</time>
      </trkpt>
      <trkpt lat="41.4680249" lon="2.10596219">
        <ele>131.0</ele>
        <time>2021-03-03T09:27:57Z</time>
      </trkpt>
      <trkpt lat="41.46803457" lon="2.10589787">
        <ele>131.0</ele>
        <time>2021-03-03T09:27:58Z</time>
      </trkpt>
      <trkpt lat="41.46804089" lon="2.10583287">
        <ele>131.0</ele>
        <time>2021-03-03T09:27:59Z</time>
      </trkpt>
      <trkpt lat="41.46804421" lon="2.10576688">
        <ele>131.0</ele>
        <time>2021-03-03T09:28:00Z</time>
      </trkpt>
      <trkpt lat="41.46804156" lon="2.10570156">
        <ele>130.0</ele>
        <time>2021-03-03T09:28:01Z</time>
      </trkpt>
      <trkpt lat="41.46803157" lon="2.10563656">
        <ele>130.0</ele>
        <time>2021-03-03T09:28:01Z</time>
      </trkpt>
      <trkpt lat="41.46801623" lon="2.10557323">
        <ele>130.0</ele>
        <time>2021-03-03T09:28:02Z</time>
      </trkpt>
      <trkpt lat="41.46799658" lon="2.10551257">
        <ele>130.0</ele>
        <time>2021-03-03T09:28:03Z</time>
      </trkpt>
      <trkpt lat="41.46797559" lon="2.10545458">
        <ele>130.0</ele>
        <time>2021-03-03T09:28:04Z</time>
      </trkpt>
      <trkpt lat="41.46795826" lon="2.10539992">
        <ele>129.0</ele>
        <time>2021-03-03T09:28:05Z</time>
      </trkpt>
      <trkpt lat="41.46794293" lon="2.10535092">
        <ele>129.0</ele>
        <time>2021-03-03T09:28:06Z</time>
      </trkpt>
      <trkpt lat="41.4679296" lon="2.10530659">
        <ele>128.0</ele>
        <time>2021-03-03T09:28:07Z</time>
      </trkpt>
      <trkpt lat="41.46791826" lon="2.1052646">
        <ele>128.0</ele>
        <time>2021-03-03T09:28:08Z</time>
      </trkpt>
      <trkpt lat="41.46790661" lon="2.10522593">
        <ele>127.0</ele>
        <time>2021-03-03T09:28:09Z</time>
      </trkpt>
      <trkpt lat="41.46789561" lon="2.10519261">
        <ele>127.0</ele>
        <time>2021-03-03T09:28:10Z</time>
      </trkpt>
      <trkpt lat="41.46788161" lon="2.10515962">
        <ele>126.0</ele>
        <time>2021-03-03T09:28:11Z</time>
      </trkpt>
      <trkpt lat="41.46786494" lon="2.10512795">
        <ele>125.0</ele>
        <time>2021-03-03T09:28:12Z</time>
      </trkpt>
      <trkpt lat="41.46784562" lon="2.10510063">
        <ele>125.0</ele>
        <time>2021-03-03T09:28:13Z</time>
      </trkpt>
      <trkpt lat="41.46782328" lon="2.10507264">
        <ele>124.0</ele>
        <time>2021-03-03T09:28:14Z</time>
      </trkpt>
      <trkpt lat="41.46780029" lon="2.10504497">
        <ele>123.0</ele>
        <time>2021-03-03T09:28:15Z</time>
      </trkpt>
      <trkpt lat="41.46777663" lon="2.10501597">
        <ele>123.0</ele>
        <time>2021-03-03T09:28:16Z</time>
      </trkpt>
      <trkpt lat="41.46775463" lon="2.10498598">
        <ele>122.0</ele>
        <time>2021-03-03T09:28:17Z</time>
      </trkpt>
      <trkpt lat="41.46773364" lon="2.10495131">
        <ele>121.0</ele>
        <time>2021-03-03T09:28:18Z</time>
      </trkpt>
      <trkpt lat="41.4677153" lon="2.10490632">
        <ele>121.0</ele>
        <time>2021-03-03T09:28:19Z</time>
      </trkpt>
      <trkpt lat="41.46769831" lon="2.10485499">
        <ele>120.0</ele>
        <time>2021-03-03T09:28:20Z</time>
      </trkpt>
      <trkpt lat="41.46768099" lon="2.10479833">
        <ele>119.0</ele>
        <time>2021-03-03T09:28:21Z</time>
      </trkpt>
      <trkpt lat="41.467669" lon="2.10474033">
        <ele>119.0</ele>
        <time>2021-03-03T09:28:22Z</time>
      </trkpt>
      <trkpt lat="41.46765933" lon="2.10468268">
        <ele>118.0</ele>
        <time>2021-03-03T09:28:23Z</time>
      </trkpt>
      <trkpt lat="41.46765134" lon="2.10462768">
        <ele>118.0</ele>
        <time>2021-03-03T09:28:24Z</time>
      </trkpt>
      <trkpt lat="41.46764468" lon="2.10457469">
        <ele>117.0</ele>
        <time>2021-03-03T09:28:25Z</time>
      </trkpt>
      <trkpt lat="41.46763701" lon="2.10452402">
        <ele>117.0</ele>
        <time>2021-03-03T09:28:26Z</time>
      </trkpt>
      <trkpt lat="41.46762369" lon="2.1044697">
        <ele>117.0</ele>
        <time>2021-03-03T09:28:27Z</time>
      </trkpt>
      <trkpt lat="41.46760135" lon="2.10441736">
        <ele>116.0</ele>
        <time>2021-03-03T09:28:28Z</time>
      </trkpt>
      <trkpt lat="41.46757202" lon="2.10436837">
        <ele>116.0</ele>
        <time>2021-03-03T09:28:29Z</time>
      </trkpt>
      <trkpt lat="41.46753403" lon="2.10432404">
        <ele>115.0</ele>
        <time>2021-03-03T09:28:30Z</time>
      </trkpt>
      <trkpt lat="41.46749003" lon="2.10428405">
        <ele>115.0</ele>
        <time>2021-03-03T09:28:31Z</time>
      </trkpt>
      <trkpt lat="41.46744071" lon="2.10424638">
        <ele>115.0</ele>
        <time>2021-03-03T09:28:32Z</time>
      </trkpt>
      <trkpt lat="41.46738871" lon="2.10421039">
        <ele>114.0</ele>
        <time>2021-03-03T09:28:33Z</time>
      </trkpt>
      <trkpt lat="41.46733105" lon="2.10417474">
        <ele>114.0</ele>
        <time>2021-03-03T09:28:34Z</time>
      </trkpt>
      <trkpt lat="41.46727173" lon="2.10414407">
        <ele>113.0</ele>
        <time>2021-03-03T09:28:35Z</time>
      </trkpt>
      <trkpt lat="41.46721039" lon="2.10411541">
        <ele>113.0</ele>
        <time>2021-03-03T09:28:36Z</time>
      </trkpt>
      <trkpt lat="41.4671454" lon="2.10408308">
        <ele>113.0</ele>
        <time>2021-03-03T09:28:37Z</time>
      </trkpt>
      <trkpt lat="41.46708407" lon="2.10404641">
        <ele>112.0</ele>
        <time>2021-03-03T09:28:38Z</time>
      </trkpt>
      <trkpt lat="41.46701707" lon="2.10399841">
        <ele>111.0</ele>
        <time>2021-03-03T09:28:39Z</time>
      </trkpt>
      <trkpt lat="41.46694407" lon="2.10393976">
        <ele>110.0</ele>
        <time>2021-03-03T09:28:40Z</time>
      </trkpt>
      <trkpt lat="41.46686874" lon="2.10387642">
        <ele>109.0</ele>
        <time>2021-03-03T09:28:41Z</time>
      </trkpt>
      <trkpt lat="41.4667954" lon="2.10381476">
        <ele>108.0</ele>
        <time>2021-03-03T09:28:42Z</time>
      </trkpt>
      <trkpt lat="41.46672741" lon="2.10376177">
        <ele>107.0</ele>
        <time>2021-03-03T09:28:43Z</time>
      </trkpt>
      <trkpt lat="41.46666509" lon="2.10371311">
        <ele>106.0</ele>
        <time>2021-03-03T09:28:44Z</time>
      </trkpt>
      <trkpt lat="41.46661209" lon="2.10367211">
        <ele>105.0</ele>
        <time>2021-03-03T09:28:45Z</time>
      </trkpt>
      <trkpt lat="41.46656643" lon="2.10364412">
        <ele>105.0</ele>
        <time>2021-03-03T09:28:46Z</time>
      </trkpt>
      <trkpt lat="41.4665281" lon="2.10363013">
        <ele>104.0</ele>
        <time>2021-03-03T09:28:47Z</time>
      </trkpt>
      <trkpt lat="41.46649411" lon="2.10362913">
        <ele>104.0</ele>
        <time>2021-03-03T09:28:48Z</time>
      </trkpt>
      <trkpt lat="41.46646479" lon="2.10363979">
        <ele>104.0</ele>
        <time>2021-03-03T09:28:49Z</time>
      </trkpt>
      <trkpt lat="41.46643913" lon="2.10366178">
        <ele>103.0</ele>
        <time>2021-03-03T09:28:50Z</time>
      </trkpt>
      <trkpt lat="41.4664178" lon="2.1036921">
        <ele>103.0</ele>
        <time>2021-03-03T09:28:51Z</time>
      </trkpt>
      <trkpt lat="41.4663988" lon="2.10373076">
        <ele>103.0</ele>
        <time>2021-03-03T09:28:52Z</time>
      </trkpt>
      <trkpt lat="41.46637981" lon="2.10377476">
        <ele>103.0</ele>
        <time>2021-03-03T09:28:53Z</time>
      </trkpt>
      <trkpt lat="41.46635847" lon="2.10381975">
        <ele>103.0</ele>
        <time>2021-03-03T09:28:54Z</time>
      </trkpt>
      <trkpt lat="41.46633448" lon="2.10386408">
        <ele>103.0</ele>
        <time>2021-03-03T09:28:55Z</time>
      </trkpt>
      <trkpt lat="41.46630616" lon="2.10390207">
        <ele>103.0</ele>
        <time>2021-03-03T09:28:56Z</time>
      </trkpt>
      <trkpt lat="41.46627349" lon="2.10393207">
        <ele>103.0</ele>
        <time>2021-03-03T09:28:57Z</time>
      </trkpt>
      <trkpt lat="41.46623783" lon="2.1039564">
        <ele>103.0</ele>
        <time>2021-03-03T09:28:58Z</time>
      </trkpt>
      <trkpt lat="41.46620116" lon="2.10397773">
        <ele>103.0</ele>
        <time>2021-03-03T09:28:59Z</time>
      </trkpt>
      <trkpt lat="41.46616417" lon="2.10399872">
        <ele>103.0</ele>
        <time>2021-03-03T09:29:00Z</time>
      </trkpt>
      <trkpt lat="41.46612884" lon="2.10401971">
        <ele>103.0</ele>
        <time>2021-03-03T09:29:01Z</time>
      </trkpt>
      <trkpt lat="41.46609685" lon="2.1040417">
        <ele>104.0</ele>
        <time>2021-03-03T09:29:02Z</time>
      </trkpt>
      <trkpt lat="41.46606885" lon="2.10406336">
        <ele>104.0</ele>
        <time>2021-03-03T09:29:03Z</time>
      </trkpt>
      <trkpt lat="41.46604452" lon="2.10408469">
        <ele>105.0</ele>
        <time>2021-03-03T09:29:04Z</time>
      </trkpt>
      <trkpt lat="41.46602487" lon="2.10410501">
        <ele>105.0</ele>
        <time>2021-03-03T09:29:05Z</time>
      </trkpt>
      <trkpt lat="41.4660102" lon="2.10412501">
        <ele>105.0</ele>
        <time>2021-03-03T09:29:06Z</time>
      </trkpt>
      <trkpt lat="41.46599854" lon="2.10414268">
        <ele>105.0</ele>
        <time>2021-03-03T09:29:07Z</time>
      </trkpt>
      <trkpt lat="41.46598788" lon="2.10416033">
        <ele>105.0</ele>
        <time>2021-03-03T09:29:08Z</time>
      </trkpt>
      <trkpt lat="41.46597822" lon="2.10417867">
        <ele>105.0</ele>
        <time>2021-03-03T09:29:09Z</time>
      </trkpt>
      <trkpt lat="41.46596923" lon="2.10419867">
        <ele>105.0</ele>
        <time>2021-03-03T09:29:10Z</time>
      </trkpt>
      <trkpt lat="41.46596123" lon="2.10422199">
        <ele>104.0</ele>
        <time>2021-03-03T09:29:11Z</time>
      </trkpt>
      <trkpt lat="41.46595423" lon="2.10424766">
        <ele>104.0</ele>
        <time>2021-03-03T09:29:12Z</time>
      </trkpt>
      <trkpt lat="41.46594624" lon="2.10427565">
        <ele>104.0</ele>
        <time>2021-03-03T09:29:13Z</time>
      </trkpt>
      <trkpt lat="41.46593657" lon="2.10430664">
        <ele>104.0</ele>
        <time>2021-03-03T09:29:14Z</time>
      </trkpt>
      <trkpt lat="41.46592557" lon="2.10433864">
        <ele>104.0</ele>
        <time>2021-03-03T09:29:15Z</time>
      </trkpt>
      <trkpt lat="41.46591491" lon="2.10437297">
        <ele>104.0</ele>
        <time>2021-03-03T09:29:16Z</time>
      </trkpt>
      <trkpt lat="41.46590325" lon="2.10440863">
        <ele>104.0</ele>
        <time>2021-03-03T09:29:17Z</time>
      </trkpt>
      <trkpt lat="41.46589126" lon="2.10444562">
        <ele>104.0</ele>
        <time>2021-03-03T09:29:18Z</time>
      </trkpt>
      <trkpt lat="41.46587994" lon="2.10448028">
        <ele>104.0</ele>
        <time>2021-03-03T09:29:19Z</time>
      </trkpt>
      <trkpt lat="41.46586927" lon="2.10451228">
        <ele>104.0</ele>
        <time>2021-03-03T09:29:20Z</time>
      </trkpt>
      <trkpt lat="41.46586028" lon="2.10454161">
        <ele>104.0</ele>
        <time>2021-03-03T09:29:21Z</time>
      </trkpt>
      <trkpt lat="41.46585195" lon="2.10456726">
        <ele>104.0</ele>
        <time>2021-03-03T09:29:22Z</time>
      </trkpt>
      <trkpt lat="41.46584562" lon="2.10459159">
        <ele>104.0</ele>
        <time>2021-03-03T09:29:23Z</time>
      </trkpt>
      <trkpt lat="41.4658393" lon="2.10461459">
        <ele>104.0</ele>
        <time>2021-03-03T09:29:24Z</time>
      </trkpt>
      <trkpt lat="41.4658313" lon="2.10463759">
        <ele>104.0</ele>
        <time>2021-03-03T09:29:25Z</time>
      </trkpt>
      <trkpt lat="41.46582197" lon="2.10466391">
        <ele>104.0</ele>
        <time>2021-03-03T09:29:26Z</time>
      </trkpt>
      <trkpt lat="41.46581198" lon="2.10469324">
        <ele>104.0</ele>
        <time>2021-03-03T09:29:27Z</time>
      </trkpt>
      <trkpt lat="41.46580299" lon="2.1047259">
        <ele>104.0</ele>
        <time>2021-03-03T09:29:28Z</time>
      </trkpt>
      <trkpt lat="41.46579599" lon="2.10476222">
        <ele>104.0</ele>
        <time>2021-03-03T09:29:29Z</time>
      </trkpt>
      <trkpt lat="41.46578866" lon="2.10480021">
        <ele>104.0</ele>
        <time>2021-03-03T09:29:30Z</time>
      </trkpt>
      <trkpt lat="41.46578033" lon="2.10483754">
        <ele>104.0</ele>
        <time>2021-03-03T09:29:31Z</time>
      </trkpt>
      <trkpt lat="41.46577233" lon="2.10487487">
        <ele>104.0</ele>
        <time>2021-03-03T09:29:32Z</time>
      </trkpt>
      <trkpt lat="41.465764" lon="2.1049122">
        <ele>104.0</ele>
        <time>2021-03-03T09:29:33Z</time>
      </trkpt>
      <trkpt lat="41.46575433" lon="2.10494953">
        <ele>104.0</ele>
        <time>2021-03-03T09:29:34Z</time>
      </trkpt>
      <trkpt lat="41.46574401" lon="2.10498686">
        <ele>104.0</ele>
        <time>2021-03-03T09:29:35Z</time>
      </trkpt>
      <trkpt lat="41.46573334" lon="2.10502318">
        <ele>104.0</ele>
        <time>2021-03-03T09:29:36Z</time>
      </trkpt>
      <trkpt lat="41.46572234" lon="2.10505884">
        <ele>104.0</ele>
        <time>2021-03-03T09:29:37Z</time>
      </trkpt>
      <trkpt lat="41.46571134" lon="2.10509216">
        <ele>104.0</ele>
        <time>2021-03-03T09:29:38Z</time>
      </trkpt>
      <trkpt lat="41.46570034" lon="2.10512416">
        <ele>105.0</ele>
        <time>2021-03-03T09:29:39Z</time>
      </trkpt>
      <trkpt lat="41.46568868" lon="2.10515349">
        <ele>105.0</ele>
        <time>2021-03-03T09:29:40Z</time>
      </trkpt>
      <trkpt lat="41.46567669" lon="2.10517949">
        <ele>105.0</ele>
        <time>2021-03-03T09:29:41Z</time>
      </trkpt>
      <trkpt lat="41.46566403" lon="2.10520249">
        <ele>105.0</ele>
        <time>2021-03-03T09:29:42Z</time>
      </trkpt>
      <trkpt lat="41.46565269" lon="2.10522382">
        <ele>105.0</ele>
        <time>2021-03-03T09:29:43Z</time>
      </trkpt>
      <trkpt lat="41.46564203" lon="2.10524382">
        <ele>105.0</ele>
        <time>2021-03-03T09:29:44Z</time>
      </trkpt>
      <trkpt lat="41.46563104" lon="2.10526215">
        <ele>105.0</ele>
        <time>2021-03-03T09:29:45Z</time>
      </trkpt>
      <trkpt lat="41.4656197" lon="2.10527981">
        <ele>105.0</ele>
        <time>2021-03-03T09:29:46Z</time>
      </trkpt>
      <trkpt lat="41.46560937" lon="2.10529681">
        <ele>105.0</ele>
        <time>2021-03-03T09:29:47Z</time>
      </trkpt>
      <trkpt lat="41.46559904" lon="2.10531347">
        <ele>105.0</ele>
        <time>2021-03-03T09:29:48Z</time>
      </trkpt>
      <trkpt lat="41.46558938" lon="2.10533146">
        <ele>105.0</ele>
        <time>2021-03-03T09:29:49Z</time>
      </trkpt>
      <trkpt lat="41.46557938" lon="2.10535212">
        <ele>105.0</ele>
        <time>2021-03-03T09:29:50Z</time>
      </trkpt>
      <trkpt lat="41.46556806" lon="2.10537812">
        <ele>105.0</ele>
        <time>2021-03-03T09:29:51Z</time>
      </trkpt>
      <trkpt lat="41.46555706" lon="2.10540879">
        <ele>105.0</ele>
        <time>2021-03-03T09:29:52Z</time>
      </trkpt>
      <trkpt lat="41.46554773" lon="2.10544278">
        <ele>105.0</ele>
        <time>2021-03-03T09:29:53Z</time>
      </trkpt>
      <trkpt lat="41.46553908" lon="2.10547778">
        <ele>105.0</ele>
        <time>2021-03-03T09:29:54Z</time>
      </trkpt>
      <trkpt lat="41.46553108" lon="2.10551344">
        <ele>105.0</ele>
        <time>2021-03-03T09:29:55Z</time>
      </trkpt>
      <trkpt lat="41.46552142" lon="2.1055511">
        <ele>105.0</ele>
        <time>2021-03-03T09:29:56Z</time>
      </trkpt>
      <trkpt lat="41.46551109" lon="2.10558809">
        <ele>105.0</ele>
        <time>2021-03-03T09:29:57Z</time>
      </trkpt>
      <trkpt lat="41.46549643" lon="2.10562575">
        <ele>105.0</ele>
        <time>2021-03-03T09:29:58Z</time>
      </trkpt>
      <trkpt lat="41.46547843" lon="2.10566642">
        <ele>105.0</ele>
        <time>2021-03-03T09:29:59Z</time>
      </trkpt>
      <trkpt lat="41.46545811" lon="2.10570641">
        <ele>105.0</ele>
        <time>2021-03-03T09:30:00Z</time>
      </trkpt>
      <trkpt lat="41.46543844" lon="2.10574407">
        <ele>105.0</ele>
        <time>2021-03-03T09:30:01Z</time>
      </trkpt>
      <trkpt lat="41.46542145" lon="2.10577706">
        <ele>105.0</ele>
        <time>2021-03-03T09:30:02Z</time>
      </trkpt>
      <trkpt lat="41.46540679" lon="2.10580506">
        <ele>105.0</ele>
        <time>2021-03-03T09:30:03Z</time>
      </trkpt>
      <trkpt lat="41.46539379" lon="2.10583339">
        <ele>105.0</ele>
        <time>2021-03-03T09:30:04Z</time>
      </trkpt>
      <trkpt lat="41.4653848" lon="2.10586372">
        <ele>105.0</ele>
        <time>2021-03-03T09:30:05Z</time>
      </trkpt>
      <trkpt lat="41.46537714" lon="2.10589671">
        <ele>105.0</ele>
        <time>2021-03-03T09:30:06Z</time>
      </trkpt>
      <trkpt lat="41.46536948" lon="2.10593504">
        <ele>104.0</ele>
        <time>2021-03-03T09:30:07Z</time>
      </trkpt>
      <trkpt lat="41.46535981" lon="2.1059797">
        <ele>104.0</ele>
        <time>2021-03-03T09:30:08Z</time>
      </trkpt>
      <trkpt lat="41.46534982" lon="2.10603136">
        <ele>103.0</ele>
        <time>2021-03-03T09:30:09Z</time>
      </trkpt>
      <trkpt lat="41.46534016" lon="2.10609201">
        <ele>103.0</ele>
        <time>2021-03-03T09:30:10Z</time>
      </trkpt>
      <trkpt lat="41.46532983" lon="2.10615901">
        <ele>103.0</ele>
        <time>2021-03-03T09:30:11Z</time>
      </trkpt>
      <trkpt lat="41.4653185" lon="2.10622901">
        <ele>103.0</ele>
        <time>2021-03-03T09:30:12Z</time>
      </trkpt>
      <trkpt lat="41.46530618" lon="2.10630068">
        <ele>103.0</ele>
        <time>2021-03-03T09:30:13Z</time>
      </trkpt>
      <trkpt lat="41.46529284" lon="2.10637434">
        <ele>104.0</ele>
        <time>2021-03-03T09:30:14Z</time>
      </trkpt>
      <trkpt lat="41.46527552" lon="2.10645067">
        <ele>104.0</ele>
        <time>2021-03-03T09:30:15Z</time>
      </trkpt>
      <trkpt lat="41.46525686" lon="2.10651866">
        <ele>104.0</ele>
        <time>2021-03-03T09:30:16Z</time>
      </trkpt>
      <trkpt lat="41.4652332" lon="2.10658299">
        <ele>104.0</ele>
        <time>2021-03-03T09:30:17Z</time>
      </trkpt>
      <trkpt lat="41.46520586" lon="2.10664198">
        <ele>105.0</ele>
        <time>2021-03-03T09:30:18Z</time>
      </trkpt>
      <trkpt lat="41.46517554" lon="2.10669532">
        <ele>105.0</ele>
        <time>2021-03-03T09:30:19Z</time>
      </trkpt>
      <trkpt lat="41.46514587" lon="2.10674198">
        <ele>105.0</ele>
        <time>2021-03-03T09:30:20Z</time>
      </trkpt>
      <trkpt lat="41.46511821" lon="2.10678197">
        <ele>105.0</ele>
        <time>2021-03-03T09:30:21Z</time>
      </trkpt>
      <trkpt lat="41.46509321" lon="2.10681664">
        <ele>105.0</ele>
        <time>2021-03-03T09:30:22Z</time>
      </trkpt>
      <trkpt lat="41.46507155" lon="2.10684763">
        <ele>105.0</ele>
        <time>2021-03-03T09:30:23Z</time>
      </trkpt>
      <trkpt lat="41.46505222" lon="2.1068783">
        <ele>105.0</ele>
        <time>2021-03-03T09:30:24Z</time>
      </trkpt>
      <trkpt lat="41.46503622" lon="2.10691095">
        <ele>105.0</ele>
        <time>2021-03-03T09:30:25Z</time>
      </trkpt>
      <trkpt lat="41.46502488" lon="2.10694929">
        <ele>105.0</ele>
        <time>2021-03-03T09:30:26Z</time>
      </trkpt>
      <trkpt lat="41.46501856" lon="2.10699195">
        <ele>105.0</ele>
        <time>2021-03-03T09:30:27Z</time>
      </trkpt>
      <trkpt lat="41.46501623" lon="2.10703961">
        <ele>105.0</ele>
        <time>2021-03-03T09:30:28Z</time>
      </trkpt>
      <trkpt lat="41.46501789" lon="2.10708761">
        <ele>105.0</ele>
        <time>2021-03-03T09:30:29Z</time>
      </trkpt>
      <trkpt lat="41.46502422" lon="2.10713693">
        <ele>104.0</ele>
        <time>2021-03-03T09:30:30Z</time>
      </trkpt>
      <trkpt lat="41.46503488" lon="2.10718427">
        <ele>104.0</ele>
        <time>2021-03-03T09:30:31Z</time>
      </trkpt>
      <trkpt lat="41.46504954" lon="2.10722927">
        <ele>104.0</ele>
        <time>2021-03-03T09:30:32Z</time>
      </trkpt>
      <trkpt lat="41.4650682" lon="2.10727193">
        <ele>104.0</ele>
        <time>2021-03-03T09:30:33Z</time>
      </trkpt>
      <trkpt lat="41.46508686" lon="2.10731627">
        <ele>104.0</ele>
        <time>2021-03-03T09:30:34Z</time>
      </trkpt>
      <trkpt lat="41.46510419" lon="2.10736427">
        <ele>104.0</ele>
        <time>2021-03-03T09:30:35Z</time>
      </trkpt>
      <trkpt lat="41.46512052" lon="2.10741426">
        <ele>104.0</ele>
        <time>2021-03-03T09:30:36Z</time>
      </trkpt>
      <trkpt lat="41.46513619" lon="2.10746459">
        <ele>104.0</ele>
        <time>2021-03-03T09:30:37Z</time>
      </trkpt>
      <trkpt lat="41.46515051" lon="2.10751091">
        <ele>104.0</ele>
        <time>2021-03-03T09:30:38Z</time>
      </trkpt>
      <trkpt lat="41.46516418" lon="2.10755891">
        <ele>105.0</ele>
        <time>2021-03-03T09:30:39Z</time>
      </trkpt>
      <trkpt lat="41.46517517" lon="2.10761124">
        <ele>105.0</ele>
        <time>2021-03-03T09:30:40Z</time>
      </trkpt>
      <trkpt lat="41.4651835" lon="2.10766256">
        <ele>105.0</ele>
        <time>2021-03-03T09:30:41Z</time>
      </trkpt>
      <trkpt lat="41.4651865" lon="2.10771289">
        <ele>105.0</ele>
        <time>2021-03-03T09:30:42Z</time>
      </trkpt>
      <trkpt lat="41.4651855" lon="2.10776189">
        <ele>105.0</ele>
        <time>2021-03-03T09:30:43Z</time>
      </trkpt>
      <trkpt lat="41.46518218" lon="2.10780989">
        <ele>105.0</ele>
        <time>2021-03-03T09:30:44Z</time>
      </trkpt>
      <trkpt lat="41.46517585" lon="2.10785722">
        <ele>106.0</ele>
        <time>2021-03-03T09:30:45Z</time>
      </trkpt>
      <trkpt lat="41.46517085" lon="2.10790822">
        <ele>106.0</ele>
        <time>2021-03-03T09:30:46Z</time>
      </trkpt>
      <trkpt lat="41.46516453" lon="2.10795955">
        <ele>106.0</ele>
        <time>2021-03-03T09:30:47Z</time>
      </trkpt>
      <trkpt lat="41.46515686" lon="2.10800954">
        <ele>106.0</ele>
        <time>2021-03-03T09:30:48Z</time>
      </trkpt>
      <trkpt lat="41.46514821" lon="2.10805886">
        <ele>107.0</ele>
        <time>2021-03-03T09:30:49Z</time>
      </trkpt>
      <trkpt lat="41.46513521" lon="2.10810653">
        <ele>107.0</ele>
        <time>2021-03-03T09:30:50Z</time>
      </trkpt>
      <trkpt lat="41.46511822" lon="2.10815219">
        <ele>107.0</ele>
        <time>2021-03-03T09:30:51Z</time>
      </trkpt>
      <trkpt lat="41.46510023" lon="2.10819651">
        <ele>107.0</ele>
        <time>2021-03-03T09:30:52Z</time>
      </trkpt>
      <trkpt lat="41.46508423" lon="2.10824018">
        <ele>108.0</ele>
        <time>2021-03-03T09:30:53Z</time>
      </trkpt>
      <trkpt lat="41.46507257" lon="2.10828483">
        <ele>108.0</ele>
        <time>2021-03-03T09:30:54Z</time>
      </trkpt>
      <trkpt lat="41.46506091" lon="2.10832882">
        <ele>108.0</ele>
        <time>2021-03-03T09:30:55Z</time>
      </trkpt>
      <trkpt lat="41.46504959" lon="2.10837382">
        <ele>108.0</ele>
        <time>2021-03-03T09:30:56Z</time>
      </trkpt>
      <trkpt lat="41.46503892" lon="2.10841882">
        <ele>108.0</ele>
        <time>2021-03-03T09:30:57Z</time>
      </trkpt>
      <trkpt lat="41.46502792" lon="2.10846382">
        <ele>108.0</ele>
        <time>2021-03-03T09:30:58Z</time>
      </trkpt>
      <trkpt lat="41.4650156" lon="2.10850882">
        <ele>108.0</ele>
        <time>2021-03-03T09:30:59Z</time>
      </trkpt>
      <trkpt lat="41.46500227" lon="2.10855381">
        <ele>108.0</ele>
        <time>2021-03-03T09:31:00Z</time>
      </trkpt>
      <trkpt lat="41.46498827" lon="2.10859781">
        <ele>108.0</ele>
        <time>2021-03-03T09:31:01Z</time>
      </trkpt>
      <trkpt lat="41.46497328" lon="2.1086388">
        <ele>108.0</ele>
        <time>2021-03-03T09:31:02Z</time>
      </trkpt>
      <trkpt lat="41.46495528" lon="2.1086738">
        <ele>109.0</ele>
        <time>2021-03-03T09:31:03Z</time>
      </trkpt>
      <trkpt lat="41.46493729" lon="2.10870346">
        <ele>109.0</ele>
        <time>2021-03-03T09:31:04Z</time>
      </trkpt>
      <trkpt lat="41.4649173" lon="2.10872612">
        <ele>109.0</ele>
        <time>2021-03-03T09:31:05Z</time>
      </trkpt>
      <trkpt lat="41.4648953" lon="2.10874244">
        <ele>110.0</ele>
        <time>2021-03-03T09:31:06Z</time>
      </trkpt>
      <trkpt lat="41.46487464" lon="2.10875344">
        <ele>110.0</ele>
        <time>2021-03-03T09:31:07Z</time>
      </trkpt>
      <trkpt lat="41.46485397" lon="2.10875977">
        <ele>110.0</ele>
        <time>2021-03-03T09:31:08Z</time>
      </trkpt>
      <trkpt lat="41.46483731" lon="2.1087651">
        <ele>110.0</ele>
        <time>2021-03-03T09:31:09Z</time>
      </trkpt>
      <trkpt lat="41.46482232" lon="2.10876742">
        <ele>110.0</ele>
        <time>2021-03-03T09:31:10Z</time>
      </trkpt>
      <trkpt lat="41.46480632" lon="2.10877142">
        <ele>111.0</ele>
        <time>2021-03-03T09:31:11Z</time>
      </trkpt>
      <trkpt lat="41.46478733" lon="2.10877675">
        <ele>111.0</ele>
        <time>2021-03-03T09:31:12Z</time>
      </trkpt>
      <trkpt lat="41.46476433" lon="2.10878142">
        <ele>111.0</ele>
        <time>2021-03-03T09:31:13Z</time>
      </trkpt>
      <trkpt lat="41.46473834" lon="2.10878542">
        <ele>111.0</ele>
        <time>2021-03-03T09:31:14Z</time>
      </trkpt>
      <trkpt lat="41.46471168" lon="2.10879341">
        <ele>111.0</ele>
        <time>2021-03-03T09:31:15Z</time>
      </trkpt>
      <trkpt lat="41.46468435" lon="2.10880174">
        <ele>111.0</ele>
        <time>2021-03-03T09:31:16Z</time>
      </trkpt>
      <trkpt lat="41.46465502" lon="2.1088124">
        <ele>112.0</ele>
        <time>2021-03-03T09:31:17Z</time>
      </trkpt>
      <trkpt lat="41.4646267" lon="2.10882573">
        <ele>112.0</ele>
        <time>2021-03-03T09:31:18Z</time>
      </trkpt>
      <trkpt lat="41.4646017" lon="2.10883939">
        <ele>112.0</ele>
        <time>2021-03-03T09:31:19Z</time>
      </trkpt>
      <trkpt lat="41.4645797" lon="2.10885406">
        <ele>112.0</ele>
        <time>2021-03-03T09:31:20Z</time>
      </trkpt>
      <trkpt lat="41.46455904" lon="2.10887171">
        <ele>112.0</ele>
        <time>2021-03-03T09:31:21Z</time>
      </trkpt>
      <trkpt lat="41.46453671" lon="2.10889338">
        <ele>111.0</ele>
        <time>2021-03-03T09:31:22Z</time>
      </trkpt>
      <trkpt lat="41.46451204" lon="2.10891705">
        <ele>109.0</ele>
        <time>2021-03-03T09:31:23Z</time>
      </trkpt>
      <trkpt lat="41.46448971" lon="2.1089417">
        <ele>108.0</ele>
        <time>2021-03-03T09:31:24Z</time>
      </trkpt>
      <trkpt lat="41.46447004" lon="2.10896669">
        <ele>108.0</ele>
        <time>2021-03-03T09:31:25Z</time>
      </trkpt>
      <trkpt lat="41.46445371" lon="2.10898836">
        <ele>108.0</ele>
        <time>2021-03-03T09:31:26Z</time>
      </trkpt>
      <trkpt lat="41.46443738" lon="2.10900836">
        <ele>108.0</ele>
        <time>2021-03-03T09:31:27Z</time>
      </trkpt>
      <trkpt lat="41.46441872" lon="2.10902935">
        <ele>108.0</ele>
        <time>2021-03-03T09:31:28Z</time>
      </trkpt>
      <trkpt lat="41.46440039" lon="2.10905102">
        <ele>108.0</ele>
        <time>2021-03-03T09:31:29Z</time>
      </trkpt>
      <trkpt lat="41.4643824" lon="2.10907301">
        <ele>109.0</ele>
        <time>2021-03-03T09:31:30Z</time>
      </trkpt>
      <trkpt lat="41.46436207" lon="2.109093">
        <ele>110.0</ele>
        <time>2021-03-03T09:31:31Z</time>
      </trkpt>
      <trkpt lat="41.46434407" lon="2.10911199">
        <ele>110.0</ele>
        <time>2021-03-03T09:31:32Z</time>
      </trkpt>
      <trkpt lat="41.46432842" lon="2.10912865">
        <ele>111.0</ele>
        <time>2021-03-03T09:31:33Z</time>
      </trkpt>
      <trkpt lat="41.46431475" lon="2.10914299">
        <ele>112.0</ele>
        <time>2021-03-03T09:31:34Z</time>
      </trkpt>
      <trkpt lat="41.46430142" lon="2.10915631">
        <ele>113.0</ele>
        <time>2021-03-03T09:31:35Z</time>
      </trkpt>
      <trkpt lat="41.46428676" lon="2.10917031">
        <ele>114.0</ele>
        <time>2021-03-03T09:31:36Z</time>
      </trkpt>
      <trkpt lat="41.46427043" lon="2.10918597">
        <ele>115.0</ele>
        <time>2021-03-03T09:31:37Z</time>
      </trkpt>
      <trkpt lat="41.46425277" lon="2.1092023">
        <ele>115.0</ele>
        <time>2021-03-03T09:31:38Z</time>
      </trkpt>
      <trkpt lat="41.46423444" lon="2.10921929">
        <ele>116.0</ele>
        <time>2021-03-03T09:31:39Z</time>
      </trkpt>
      <trkpt lat="41.46421678" lon="2.10923762">
        <ele>117.0</ele>
        <time>2021-03-03T09:31:40Z</time>
      </trkpt>
      <trkpt lat="41.46419646" lon="2.10925795">
        <ele>117.0</ele>
        <time>2021-03-03T09:31:41Z</time>
      </trkpt>
      <trkpt lat="41.46417479" lon="2.10928061">
        <ele>118.0</ele>
        <time>2021-03-03T09:31:42Z</time>
      </trkpt>
      <trkpt lat="41.4641548" lon="2.1093046">
        <ele>119.0</ele>
        <time>2021-03-03T09:31:43Z</time>
      </trkpt>
      <trkpt lat="41.4641358" lon="2.10933193">
        <ele>119.0</ele>
        <time>2021-03-03T09:31:44Z</time>
      </trkpt>
      <trkpt lat="41.46411748" lon="2.10936093">
        <ele>120.0</ele>
        <time>2021-03-03T09:31:45Z</time>
      </trkpt>
      <trkpt lat="41.46410148" lon="2.10939093">
        <ele>120.0</ele>
        <time>2021-03-03T09:31:46Z</time>
      </trkpt>
      <trkpt lat="41.46408848" lon="2.10942092">
        <ele>121.0</ele>
        <time>2021-03-03T09:31:47Z</time>
      </trkpt>
      <trkpt lat="41.46407882" lon="2.10945092">
        <ele>121.0</ele>
        <time>2021-03-03T09:31:48Z</time>
      </trkpt>
      <trkpt lat="41.46407115" lon="2.10948191">
        <ele>121.0</ele>
        <time>2021-03-03T09:31:49Z</time>
      </trkpt>
      <trkpt lat="41.46406649" lon="2.10951423">
        <ele>122.0</ele>
        <time>2021-03-03T09:31:50Z</time>
      </trkpt>
      <trkpt lat="41.46406283" lon="2.10954755">
        <ele>122.0</ele>
        <time>2021-03-03T09:31:51Z</time>
      </trkpt>
      <trkpt lat="41.46405984" lon="2.10958155">
        <ele>123.0</ele>
        <time>2021-03-03T09:31:52Z</time>
      </trkpt>
      <trkpt lat="41.46405717" lon="2.10961522">
        <ele>123.0</ele>
        <time>2021-03-03T09:31:53Z</time>
      </trkpt>
      <trkpt lat="41.46405452" lon="2.10965288">
        <ele>123.0</ele>
        <time>2021-03-03T09:31:54Z</time>
      </trkpt>
      <trkpt lat="41.46405086" lon="2.10969321">
        <ele>123.0</ele>
        <time>2021-03-03T09:31:55Z</time>
      </trkpt>
      <trkpt lat="41.46404519" lon="2.10973553">
        <ele>123.0</ele>
        <time>2021-03-03T09:31:56Z</time>
      </trkpt>
      <trkpt lat="41.46403986" lon="2.10977753">
        <ele>124.0</ele>
        <time>2021-03-03T09:31:57Z</time>
      </trkpt>
      <trkpt lat="41.4640362" lon="2.10981852">
        <ele>124.0</ele>
        <time>2021-03-03T09:31:58Z</time>
      </trkpt>
      <trkpt lat="41.46403254" lon="2.10985852">
        <ele>124.0</ele>
        <time>2021-03-03T09:31:59Z</time>
      </trkpt>
      <trkpt lat="41.46402921" lon="2.10989751">
        <ele>124.0</ele>
        <time>2021-03-03T09:32:00Z</time>
      </trkpt>
      <trkpt lat="41.46402622" lon="2.10993585">
        <ele>124.0</ele>
        <time>2021-03-03T09:32:01Z</time>
      </trkpt>
      <trkpt lat="41.46402389" lon="2.1099745">
        <ele>124.0</ele>
        <time>2021-03-03T09:32:02Z</time>
      </trkpt>
      <trkpt lat="41.46402223" lon="2.11001249">
        <ele>124.0</ele>
        <time>2021-03-03T09:32:03Z</time>
      </trkpt>
      <trkpt lat="41.46402157" lon="2.11005016">
        <ele>125.0</ele>
        <time>2021-03-03T09:32:04Z</time>
      </trkpt>
      <trkpt lat="41.46402124" lon="2.11008815">
        <ele>125.0</ele>
        <time>2021-03-03T09:32:05Z</time>
      </trkpt>
      <trkpt lat="41.46402025" lon="2.11012814">
        <ele>125.0</ele>
        <time>2021-03-03T09:32:06Z</time>
      </trkpt>
      <trkpt lat="41.46401993" lon="2.11017181">
        <ele>125.0</ele>
        <time>2021-03-03T09:32:07Z</time>
      </trkpt>
      <trkpt lat="41.46401894" lon="2.1102178">
        <ele>125.0</ele>
        <time>2021-03-03T09:32:08Z</time>
      </trkpt>
      <trkpt lat="41.46401794" lon="2.11026613">
        <ele>125.0</ele>
        <time>2021-03-03T09:32:09Z</time>
      </trkpt>
      <trkpt lat="41.46401495" lon="2.11031512">
        <ele>125.0</ele>
        <time>2021-03-03T09:32:10Z</time>
      </trkpt>
      <trkpt lat="41.46401163" lon="2.11036512">
        <ele>125.0</ele>
        <time>2021-03-03T09:32:11Z</time>
      </trkpt>
      <trkpt lat="41.46400696" lon="2.11041544">
        <ele>125.0</ele>
        <time>2021-03-03T09:32:12Z</time>
      </trkpt>
      <trkpt lat="41.46400097" lon="2.11046578">
        <ele>125.0</ele>
        <time>2021-03-03T09:32:13Z</time>
      </trkpt>
      <trkpt lat="41.46399264" lon="2.1105151">
        <ele>125.0</ele>
        <time>2021-03-03T09:32:14Z</time>
      </trkpt>
      <trkpt lat="41.46398197" lon="2.1105621">
        <ele>125.0</ele>
        <time>2021-03-03T09:32:15Z</time>
      </trkpt>
      <trkpt lat="41.46396998" lon="2.11060876">
        <ele>125.0</ele>
        <time>2021-03-03T09:32:16Z</time>
      </trkpt>
      <trkpt lat="41.46395698" lon="2.11065476">
        <ele>125.0</ele>
        <time>2021-03-03T09:32:16Z</time>
      </trkpt>
      <trkpt lat="41.46394299" lon="2.11069976">
        <ele>125.0</ele>
        <time>2021-03-03T09:32:17Z</time>
      </trkpt>
      <trkpt lat="41.46392799" lon="2.11074441">
        <ele>125.0</ele>
        <time>2021-03-03T09:32:18Z</time>
      </trkpt>
      <trkpt lat="41.46391399" lon="2.1107884">
        <ele>125.0</ele>
        <time>2021-03-03T09:32:19Z</time>
      </trkpt>
      <trkpt lat="41.463902" lon="2.11083173">
        <ele>125.0</ele>
        <time>2021-03-03T09:32:20Z</time>
      </trkpt>
      <trkpt lat="41.46388734" lon="2.11087405">
        <ele>125.0</ele>
        <time>2021-03-03T09:32:21Z</time>
      </trkpt>
      <trkpt lat="41.46387234" lon="2.11091605">
        <ele>125.0</ele>
        <time>2021-03-03T09:32:22Z</time>
      </trkpt>
      <trkpt lat="41.46385869" lon="2.11095805">
        <ele>126.0</ele>
        <time>2021-03-03T09:32:23Z</time>
      </trkpt>
      <trkpt lat="41.46384402" lon="2.11099538">
        <ele>126.0</ele>
        <time>2021-03-03T09:32:24Z</time>
      </trkpt>
      <trkpt lat="41.4638297" lon="2.11103371">
        <ele>126.0</ele>
        <time>2021-03-03T09:32:25Z</time>
      </trkpt>
      <trkpt lat="41.46381637" lon="2.11107204">
        <ele>126.0</ele>
        <time>2021-03-03T09:32:26Z</time>
      </trkpt>
      <trkpt lat="41.46380404" lon="2.11111037">
        <ele>126.0</ele>
        <time>2021-03-03T09:32:27Z</time>
      </trkpt>
      <trkpt lat="41.46379105" lon="2.1111477">
        <ele>126.0</ele>
        <time>2021-03-03T09:32:28Z</time>
      </trkpt>
      <trkpt lat="41.46377972" lon="2.11118402">
        <ele>126.0</ele>
        <time>2021-03-03T09:32:29Z</time>
      </trkpt>
      <trkpt lat="41.46376806" lon="2.11121934">
        <ele>127.0</ele>
        <time>2021-03-03T09:32:30Z</time>
      </trkpt>
      <trkpt lat="41.46375406" lon="2.11125301">
        <ele>127.0</ele>
        <time>2021-03-03T09:32:31Z</time>
      </trkpt>
      <trkpt lat="41.46373974" lon="2.11128633">
        <ele>127.0</ele>
        <time>2021-03-03T09:32:32Z</time>
      </trkpt>
      <trkpt lat="41.46372375" lon="2.111321">
        <ele>127.0</ele>
        <time>2021-03-03T09:32:33Z</time>
      </trkpt>
      <trkpt lat="41.46370741" lon="2.11135532">
        <ele>127.0</ele>
        <time>2021-03-03T09:32:34Z</time>
      </trkpt>
      <trkpt lat="41.46369542" lon="2.11138699">
        <ele>127.0</ele>
        <time>2021-03-03T09:32:35Z</time>
      </trkpt>
      <trkpt lat="41.46368076" lon="2.11142098">
        <ele>128.0</ele>
        <time>2021-03-03T09:32:36Z</time>
      </trkpt>
      <trkpt lat="41.46366277" lon="2.11145531">
        <ele>128.0</ele>
        <time>2021-03-03T09:32:37Z</time>
      </trkpt>
      <trkpt lat="41.46364177" lon="2.11148965">
        <ele>128.0</ele>
        <time>2021-03-03T09:32:38Z</time>
      </trkpt>
      <trkpt lat="41.46361744" lon="2.11152398">
        <ele>128.0</ele>
        <time>2021-03-03T09:32:39Z</time>
      </trkpt>
      <trkpt lat="41.46359311" lon="2.11155664">
        <ele>128.0</ele>
        <time>2021-03-03T09:32:40Z</time>
      </trkpt>
      <trkpt lat="41.46357279" lon="2.11158864">
        <ele>128.0</ele>
        <time>2021-03-03T09:32:41Z</time>
      </trkpt>
      <trkpt lat="41.46355612" lon="2.11161796">
        <ele>128.0</ele>
        <time>2021-03-03T09:32:42Z</time>
      </trkpt>
      <trkpt lat="41.46354113" lon="2.11164629">
        <ele>128.0</ele>
        <time>2021-03-03T09:32:43Z</time>
      </trkpt>
      <trkpt lat="41.46352746" lon="2.11167095">
        <ele>128.0</ele>
        <time>2021-03-03T09:32:44Z</time>
      </trkpt>
      <trkpt lat="41.46351247" lon="2.11169428">
        <ele>128.0</ele>
        <time>2021-03-03T09:32:45Z</time>
      </trkpt>
      <trkpt lat="41.46349681" lon="2.11171661">
        <ele>129.0</ele>
        <time>2021-03-03T09:32:46Z</time>
      </trkpt>
      <trkpt lat="41.46347814" lon="2.11173794">
        <ele>129.0</ele>
        <time>2021-03-03T09:32:47Z</time>
      </trkpt>
      <trkpt lat="41.46345782" lon="2.11176027">
        <ele>129.0</ele>
        <time>2021-03-03T09:32:48Z</time>
      </trkpt>
      <trkpt lat="41.46343516" lon="2.11178226">
        <ele>129.0</ele>
        <time>2021-03-03T09:32:49Z</time>
      </trkpt>
      <trkpt lat="41.46341184" lon="2.11180192">
        <ele>129.0</ele>
        <time>2021-03-03T09:32:50Z</time>
      </trkpt>
      <trkpt lat="41.46338684" lon="2.11181759">
        <ele>129.0</ele>
        <time>2021-03-03T09:32:51Z</time>
      </trkpt>
      <trkpt lat="41.4633615" lon="2.11182858">
        <ele>129.0</ele>
        <time>2021-03-03T09:32:52Z</time>
      </trkpt>
      <trkpt lat="41.46333484" lon="2.1118329">
        <ele>129.0</ele>
        <time>2021-03-03T09:32:53Z</time>
      </trkpt>
      <trkpt lat="41.46330785" lon="2.11183224">
        <ele>129.0</ele>
        <time>2021-03-03T09:32:54Z</time>
      </trkpt>
      <trkpt lat="41.46328085" lon="2.11182559">
        <ele>129.0</ele>
        <time>2021-03-03T09:32:55Z</time>
      </trkpt>
      <trkpt lat="41.46325251" lon="2.11181392">
        <ele>129.0</ele>
        <time>2021-03-03T09:32:56Z</time>
      </trkpt>
      <trkpt lat="41.46322286" lon="2.11180093">
        <ele>129.0</ele>
        <time>2021-03-03T09:32:57Z</time>
      </trkpt>
      <trkpt lat="41.46319386" lon="2.11178693">
        <ele>129.0</ele>
        <time>2021-03-03T09:32:58Z</time>
      </trkpt>
      <trkpt lat="41.46316153" lon="2.11177293">
        <ele>129.0</ele>
        <time>2021-03-03T09:32:59Z</time>
      </trkpt>
      <trkpt lat="41.46312687" lon="2.11176161">
        <ele>129.0</ele>
        <time>2021-03-03T09:33:00Z</time>
      </trkpt>
      <trkpt lat="41.46309154" lon="2.11175762">
        <ele>129.0</ele>
        <time>2021-03-03T09:33:01Z</time>
      </trkpt>
      <trkpt lat="41.46305521" lon="2.11175894">
        <ele>129.0</ele>
        <time>2021-03-03T09:33:02Z</time>
      </trkpt>
      <trkpt lat="41.46301555" lon="2.1117656">
        <ele>129.0</ele>
        <time>2021-03-03T09:33:03Z</time>
      </trkpt>
      <trkpt lat="41.46297455" lon="2.11177626">
        <ele>129.0</ele>
        <time>2021-03-03T09:33:04Z</time>
      </trkpt>
      <trkpt lat="41.46293356" lon="2.1117886">
        <ele>129.0</ele>
        <time>2021-03-03T09:33:05Z</time>
      </trkpt>
      <trkpt lat="41.46289256" lon="2.11180125">
        <ele>129.0</ele>
        <time>2021-03-03T09:33:06Z</time>
      </trkpt>
      <trkpt lat="41.46285056" lon="2.11181459">
        <ele>129.0</ele>
        <time>2021-03-03T09:33:07Z</time>
      </trkpt>
      <trkpt lat="41.46280691" lon="2.11182691">
        <ele>129.0</ele>
        <time>2021-03-03T09:33:08Z</time>
      </trkpt>
      <trkpt lat="41.46276057" lon="2.11183691">
        <ele>128.0</ele>
        <time>2021-03-03T09:33:09Z</time>
      </trkpt>
      <trkpt lat="41.46271425" lon="2.11184224">
        <ele>128.0</ele>
        <time>2021-03-03T09:33:10Z</time>
      </trkpt>
      <trkpt lat="41.46266893" lon="2.11184124">
        <ele>128.0</ele>
        <time>2021-03-03T09:33:11Z</time>
      </trkpt>
      <trkpt lat="41.46262726" lon="2.11183159">
        <ele>128.0</ele>
        <time>2021-03-03T09:33:12Z</time>
      </trkpt>
      <trkpt lat="41.46258926" lon="2.11181493">
        <ele>128.0</ele>
        <time>2021-03-03T09:33:13Z</time>
      </trkpt>
      <trkpt lat="41.4625536" lon="2.11179094">
        <ele>128.0</ele>
        <time>2021-03-03T09:33:14Z</time>
      </trkpt>
      <trkpt lat="41.46251894" lon="2.11176362">
        <ele>127.0</ele>
        <time>2021-03-03T09:33:15Z</time>
      </trkpt>
      <trkpt lat="41.46248461" lon="2.11173528">
        <ele>127.0</ele>
        <time>2021-03-03T09:33:16Z</time>
      </trkpt>
      <trkpt lat="41.46245062" lon="2.11170395">
        <ele>127.0</ele>
        <time>2021-03-03T09:33:17Z</time>
      </trkpt>
      <trkpt lat="41.46241663" lon="2.11166962">
        <ele>127.0</ele>
        <time>2021-03-03T09:33:18Z</time>
      </trkpt>
      <trkpt lat="41.46238431" lon="2.11163163">
        <ele>126.0</ele>
        <time>2021-03-03T09:33:19Z</time>
      </trkpt>
      <trkpt lat="41.46235198" lon="2.11159029">
        <ele>126.0</ele>
        <time>2021-03-03T09:33:20Z</time>
      </trkpt>
      <trkpt lat="41.46231999" lon="2.1115473">
        <ele>126.0</ele>
        <time>2021-03-03T09:33:21Z</time>
      </trkpt>
      <trkpt lat="41.46228799" lon="2.11150297">
        <ele>126.0</ele>
        <time>2021-03-03T09:33:22Z</time>
      </trkpt>
      <trkpt lat="41.46225766" lon="2.11146098">
        <ele>126.0</ele>
        <time>2021-03-03T09:33:23Z</time>
      </trkpt>
      <trkpt lat="41.46222766" lon="2.11141831">
        <ele>126.0</ele>
        <time>2021-03-03T09:33:24Z</time>
      </trkpt>
      <trkpt lat="41.46219766" lon="2.11137431">
        <ele>126.0</ele>
        <time>2021-03-03T09:33:25Z</time>
      </trkpt>
      <trkpt lat="41.46216634" lon="2.11133098">
        <ele>126.0</ele>
        <time>2021-03-03T09:33:26Z</time>
      </trkpt>
      <trkpt lat="41.46213402" lon="2.11128699">
        <ele>126.0</ele>
        <time>2021-03-03T09:33:27Z</time>
      </trkpt>
      <trkpt lat="41.46210002" lon="2.11124267">
        <ele>126.0</ele>
        <time>2021-03-03T09:33:28Z</time>
      </trkpt>
      <trkpt lat="41.46206603" lon="2.11119934">
        <ele>126.0</ele>
        <time>2021-03-03T09:33:29Z</time>
      </trkpt>
      <trkpt lat="41.46203204" lon="2.11115701">
        <ele>126.0</ele>
        <time>2021-03-03T09:33:30Z</time>
      </trkpt>
      <trkpt lat="41.46199771" lon="2.11111402">
        <ele>126.0</ele>
        <time>2021-03-03T09:33:31Z</time>
      </trkpt>
      <trkpt lat="41.46196272" lon="2.11107235">
        <ele>126.0</ele>
        <time>2021-03-03T09:33:32Z</time>
      </trkpt>
      <trkpt lat="41.46192539" lon="2.11103203">
        <ele>126.0</ele>
        <time>2021-03-03T09:33:33Z</time>
      </trkpt>
      <trkpt lat="41.46188673" lon="2.1109927">
        <ele>126.0</ele>
        <time>2021-03-03T09:33:34Z</time>
      </trkpt>
      <trkpt lat="41.46184873" lon="2.11095303">
        <ele>126.0</ele>
        <time>2021-03-03T09:33:35Z</time>
      </trkpt>
      <trkpt lat="41.46181174" lon="2.11091504">
        <ele>126.0</ele>
        <time>2021-03-03T09:33:36Z</time>
      </trkpt>
      <trkpt lat="41.46177642" lon="2.11087805">
        <ele>126.0</ele>
        <time>2021-03-03T09:33:37Z</time>
      </trkpt>
      <trkpt lat="41.46174342" lon="2.11084173">
        <ele>127.0</ele>
        <time>2021-03-03T09:33:38Z</time>
      </trkpt>
      <trkpt lat="41.46170943" lon="2.11080573">
        <ele>127.0</ele>
        <time>2021-03-03T09:33:39Z</time>
      </trkpt>
      <trkpt lat="41.46167476" lon="2.11077506">
        <ele>127.0</ele>
        <time>2021-03-03T09:33:40Z</time>
      </trkpt>
      <trkpt lat="41.46164011" lon="2.1107464">
        <ele>127.0</ele>
        <time>2021-03-03T09:33:41Z</time>
      </trkpt>
      <trkpt lat="41.46160711" lon="2.11072207">
        <ele>127.0</ele>
        <time>2021-03-03T09:33:42Z</time>
      </trkpt>
      <trkpt lat="41.46157077" lon="2.11070008">
        <ele>127.0</ele>
        <time>2021-03-03T09:33:43Z</time>
      </trkpt>
      <trkpt lat="41.46153478" lon="2.11068109">
        <ele>128.0</ele>
        <time>2021-03-03T09:33:44Z</time>
      </trkpt>
      <trkpt lat="41.46149745" lon="2.11066077">
        <ele>128.0</ele>
        <time>2021-03-03T09:33:45Z</time>
      </trkpt>
      <trkpt lat="41.46145979" lon="2.11064277">
        <ele>129.0</ele>
        <time>2021-03-03T09:33:46Z</time>
      </trkpt>
      <trkpt lat="41.46142346" lon="2.11062611">
        <ele>129.0</ele>
        <time>2021-03-03T09:33:47Z</time>
      </trkpt>
      <trkpt lat="41.4613888" lon="2.11061279">
        <ele>129.0</ele>
        <time>2021-03-03T09:33:48Z</time>
      </trkpt>
      <trkpt lat="41.46135448" lon="2.11060345">
        <ele>129.0</ele>
        <time>2021-03-03T09:33:49Z</time>
      </trkpt>
      <trkpt lat="41.46132281" lon="2.11059546">
        <ele>130.0</ele>
        <time>2021-03-03T09:33:50Z</time>
      </trkpt>
      <trkpt lat="41.46129282" lon="2.11058713">
        <ele>130.0</ele>
        <time>2021-03-03T09:33:51Z</time>
      </trkpt>
      <trkpt lat="41.46125816" lon="2.11058246">
        <ele>130.0</ele>
        <time>2021-03-03T09:33:52Z</time>
      </trkpt>
      <trkpt lat="41.46121983" lon="2.1105768">
        <ele>130.0</ele>
        <time>2021-03-03T09:33:53Z</time>
      </trkpt>
      <trkpt lat="41.46117817" lon="2.11056881">
        <ele>131.0</ele>
        <time>2021-03-03T09:33:54Z</time>
      </trkpt>
      <trkpt lat="41.46113818" lon="2.11056014">
        <ele>131.0</ele>
        <time>2021-03-03T09:33:55Z</time>
      </trkpt>
      <trkpt lat="41.46109852" lon="2.11055282">
        <ele>132.0</ele>
        <time>2021-03-03T09:33:56Z</time>
      </trkpt>
      <trkpt lat="41.46106119" lon="2.11054715">
        <ele>132.0</ele>
        <time>2021-03-03T09:33:57Z</time>
      </trkpt>
      <trkpt lat="41.46102452" lon="2.11054449">
        <ele>132.0</ele>
        <time>2021-03-03T09:33:58Z</time>
      </trkpt>
      <trkpt lat="41.46098953" lon="2.11054416">
        <ele>132.0</ele>
        <time>2021-03-03T09:33:59Z</time>
      </trkpt>
      <trkpt lat="41.46095554" lon="2.11054516">
        <ele>133.0</ele>
        <time>2021-03-03T09:34:00Z</time>
      </trkpt>
      <trkpt lat="41.46092187" lon="2.11054548">
        <ele>133.0</ele>
        <time>2021-03-03T09:34:01Z</time>
      </trkpt>
      <trkpt lat="41.46088755" lon="2.11054449">
        <ele>133.0</ele>
        <time>2021-03-03T09:34:02Z</time>
      </trkpt>
      <trkpt lat="41.46085388" lon="2.11054216">
        <ele>133.0</ele>
        <time>2021-03-03T09:34:03Z</time>
      </trkpt>
      <trkpt lat="41.46081888" lon="2.11053883">
        <ele>134.0</ele>
        <time>2021-03-03T09:34:04Z</time>
      </trkpt>
      <trkpt lat="41.46078456" lon="2.1105345">
        <ele>134.0</ele>
        <time>2021-03-03T09:34:05Z</time>
      </trkpt>
      <trkpt lat="41.46075089" lon="2.1105305">
        <ele>134.0</ele>
        <time>2021-03-03T09:34:06Z</time>
      </trkpt>
      <trkpt lat="41.46071657" lon="2.11052685">
        <ele>134.0</ele>
        <time>2021-03-03T09:34:07Z</time>
      </trkpt>
      <trkpt lat="41.4606829" lon="2.11052319">
        <ele>135.0</ele>
        <time>2021-03-03T09:34:08Z</time>
      </trkpt>
      <trkpt lat="41.46065224" lon="2.11051953">
        <ele>135.0</ele>
        <time>2021-03-03T09:34:09Z</time>
      </trkpt>
      <trkpt lat="41.4606219" lon="2.11051553">
        <ele>135.0</ele>
        <time>2021-03-03T09:34:10Z</time>
      </trkpt>
      <trkpt lat="41.46059258" lon="2.11051287">
        <ele>136.0</ele>
        <time>2021-03-03T09:34:11Z</time>
      </trkpt>
      <trkpt lat="41.46056525" lon="2.11051154">
        <ele>136.0</ele>
        <time>2021-03-03T09:34:12Z</time>
      </trkpt>
      <trkpt lat="41.46053926" lon="2.11051022">
        <ele>136.0</ele>
        <time>2021-03-03T09:34:13Z</time>
      </trkpt>
      <trkpt lat="41.46051426" lon="2.11050822">
        <ele>136.0</ele>
        <time>2021-03-03T09:34:14Z</time>
      </trkpt>
      <trkpt lat="41.46048659" lon="2.11050423">
        <ele>136.0</ele>
        <time>2021-03-03T09:34:15Z</time>
      </trkpt>
      <trkpt lat="41.46045892" lon="2.11049656">
        <ele>137.0</ele>
        <time>2021-03-03T09:34:16Z</time>
      </trkpt>
      <trkpt lat="41.46043227" lon="2.1104879">
        <ele>137.0</ele>
        <time>2021-03-03T09:34:17Z</time>
      </trkpt>
      <trkpt lat="41.4604056" lon="2.1104779">
        <ele>137.0</ele>
        <time>2021-03-03T09:34:18Z</time>
      </trkpt>
      <trkpt lat="41.46037528" lon="2.11046691">
        <ele>137.0</ele>
        <time>2021-03-03T09:34:19Z</time>
      </trkpt>
      <trkpt lat="41.46034161" lon="2.11045657">
        <ele>137.0</ele>
        <time>2021-03-03T09:34:20Z</time>
      </trkpt>
      <trkpt lat="41.46031094" lon="2.11044758">
        <ele>137.0</ele>
        <time>2021-03-03T09:34:21Z</time>
      </trkpt>
      <trkpt lat="41.46028361" lon="2.11043826">
        <ele>138.0</ele>
        <time>2021-03-03T09:34:22Z</time>
      </trkpt>
      <trkpt lat="41.46025995" lon="2.11042826">
        <ele>138.0</ele>
        <time>2021-03-03T09:34:23Z</time>
      </trkpt>
      <trkpt lat="41.46023795" lon="2.11041959">
        <ele>139.0</ele>
        <time>2021-03-03T09:34:24Z</time>
      </trkpt>
      <trkpt lat="41.46021763" lon="2.11041193">
        <ele>139.0</ele>
        <time>2021-03-03T09:34:25Z</time>
      </trkpt>
      <trkpt lat="41.46019696" lon="2.11040227">
        <ele>139.0</ele>
        <time>2021-03-03T09:34:26Z</time>
      </trkpt>
      <trkpt lat="41.46017763" lon="2.11039294">
        <ele>139.0</ele>
        <time>2021-03-03T09:34:27Z</time>
      </trkpt>
      <trkpt lat="41.46015997" lon="2.11038527">
        <ele>140.0</ele>
        <time>2021-03-03T09:34:28Z</time>
      </trkpt>
      <trkpt lat="41.46014631" lon="2.11037928">
        <ele>140.0</ele>
        <time>2021-03-03T09:34:29Z</time>
      </trkpt>
      <trkpt lat="41.46013432" lon="2.11037329">
        <ele>140.0</ele>
        <time>2021-03-03T09:34:30Z</time>
      </trkpt>
      <trkpt lat="41.46012233" lon="2.1103653">
        <ele>140.0</ele>
        <time>2021-03-03T09:34:31Z</time>
      </trkpt>
      <trkpt lat="41.46011099" lon="2.1103573">
        <ele>141.0</ele>
        <time>2021-03-03T09:34:32Z</time>
      </trkpt>
      <trkpt lat="41.46009833" lon="2.11035097">
        <ele>142.0</ele>
        <time>2021-03-03T09:34:33Z</time>
      </trkpt>
      <trkpt lat="41.46008667" lon="2.11034698">
        <ele>142.0</ele>
        <time>2021-03-03T09:34:34Z</time>
      </trkpt>
      <trkpt lat="41.46007235" lon="2.11034399">
        <ele>142.0</ele>
        <time>2021-03-03T09:34:35Z</time>
      </trkpt>
      <trkpt lat="41.46005435" lon="2.11034299">
        <ele>142.0</ele>
        <time>2021-03-03T09:34:36Z</time>
      </trkpt>
      <trkpt lat="41.46003602" lon="2.11034532">
        <ele>142.0</ele>
        <time>2021-03-03T09:34:37Z</time>
      </trkpt>
      <trkpt lat="41.4600157" lon="2.11034765">
        <ele>142.0</ele>
        <time>2021-03-03T09:34:38Z</time>
      </trkpt>
      <trkpt lat="41.4599947" lon="2.11034831">
        <ele>142.0</ele>
        <time>2021-03-03T09:34:39Z</time>
      </trkpt>
      <trkpt lat="41.45997171" lon="2.11034798">
        <ele>142.0</ele>
        <time>2021-03-03T09:34:40Z</time>
      </trkpt>
      <trkpt lat="41.45995139" lon="2.11034798">
        <ele>142.0</ele>
        <time>2021-03-03T09:34:41Z</time>
      </trkpt>
      <trkpt lat="41.45992873" lon="2.11034432">
        <ele>143.0</ele>
        <time>2021-03-03T09:34:42Z</time>
      </trkpt>
      <trkpt lat="41.45990607" lon="2.11033732">
        <ele>143.0</ele>
        <time>2021-03-03T09:34:43Z</time>
      </trkpt>
      <trkpt lat="41.45988374" lon="2.11033033">
        <ele>143.0</ele>
        <time>2021-03-03T09:34:44Z</time>
      </trkpt>
      <trkpt lat="41.45986108" lon="2.110325">
        <ele>143.0</ele>
        <time>2021-03-03T09:34:45Z</time>
      </trkpt>
      <trkpt lat="41.45983809" lon="2.11031967">
        <ele>143.0</ele>
        <time>2021-03-03T09:34:46Z</time>
      </trkpt>
      <trkpt lat="41.45981743" lon="2.11031534">
        <ele>144.0</ele>
        <time>2021-03-03T09:34:47Z</time>
      </trkpt>
      <trkpt lat="41.45979776" lon="2.11030668">
        <ele>144.0</ele>
        <time>2021-03-03T09:34:48Z</time>
      </trkpt>
      <trkpt lat="41.45977543" lon="2.11030002">
        <ele>144.0</ele>
        <time>2021-03-03T09:34:49Z</time>
      </trkpt>
      <trkpt lat="41.45975377" lon="2.11029369">
        <ele>144.0</ele>
        <time>2021-03-03T09:34:50Z</time>
      </trkpt>
      <trkpt lat="41.4597301" lon="2.11028669">
        <ele>145.0</ele>
        <time>2021-03-03T09:34:51Z</time>
      </trkpt>
      <trkpt lat="41.45970411" lon="2.11027869">
        <ele>145.0</ele>
        <time>2021-03-03T09:34:52Z</time>
      </trkpt>
      <trkpt lat="41.45967711" lon="2.1102707">
        <ele>145.0</ele>
        <time>2021-03-03T09:34:53Z</time>
      </trkpt>
      <trkpt lat="41.45964512" lon="2.1102627">
        <ele>145.0</ele>
        <time>2021-03-03T09:34:54Z</time>
      </trkpt>
      <trkpt lat="41.4596138" lon="2.11025538">
        <ele>145.0</ele>
        <time>2021-03-03T09:34:55Z</time>
      </trkpt>
      <trkpt lat="41.45958613" lon="2.11025005">
        <ele>146.0</ele>
        <time>2021-03-03T09:34:56Z</time>
      </trkpt>
      <trkpt lat="41.45955948" lon="2.11024671">
        <ele>146.0</ele>
        <time>2021-03-03T09:34:57Z</time>
      </trkpt>
      <trkpt lat="41.45953548" lon="2.11024406">
        <ele>146.0</ele>
        <time>2021-03-03T09:34:58Z</time>
      </trkpt>
      <trkpt lat="41.45951348" lon="2.11024306">
        <ele>146.0</ele>
        <time>2021-03-03T09:34:59Z</time>
      </trkpt>
      <trkpt lat="41.45949249" lon="2.11024306">
        <ele>146.0</ele>
        <time>2021-03-03T09:35:00Z</time>
      </trkpt>
      <trkpt lat="41.45947115" lon="2.11024506">
        <ele>147.0</ele>
        <time>2021-03-03T09:35:01Z</time>
      </trkpt>
      <trkpt lat="41.45944716" lon="2.11024805">
        <ele>147.0</ele>
        <time>2021-03-03T09:35:02Z</time>
      </trkpt>
      <trkpt lat="41.45942451" lon="2.11025004">
        <ele>147.0</ele>
        <time>2021-03-03T09:35:03Z</time>
      </trkpt>
      <trkpt lat="41.45940117" lon="2.11025404">
        <ele>147.0</ele>
        <time>2021-03-03T09:35:04Z</time>
      </trkpt>
      <trkpt lat="41.45937552" lon="2.11026069">
        <ele>148.0</ele>
        <time>2021-03-03T09:35:05Z</time>
      </trkpt>
      <trkpt lat="41.45934752" lon="2.11026936">
        <ele>148.0</ele>
        <time>2021-03-03T09:35:06Z</time>
      </trkpt>
      <trkpt lat="41.45931918" lon="2.11027968">
        <ele>148.0</ele>
        <time>2021-03-03T09:35:07Z</time>
      </trkpt>
      <trkpt lat="41.45929053" lon="2.11029268">
        <ele>148.0</ele>
        <time>2021-03-03T09:35:08Z</time>
      </trkpt>
      <trkpt lat="41.4592612" lon="2.11030534">
        <ele>148.0</ele>
        <time>2021-03-03T09:35:09Z</time>
      </trkpt>
      <trkpt lat="41.45923288" lon="2.11031734">
        <ele>148.0</ele>
        <time>2021-03-03T09:35:10Z</time>
      </trkpt>
      <trkpt lat="41.45920488" lon="2.110329">
        <ele>148.0</ele>
        <time>2021-03-03T09:35:11Z</time>
      </trkpt>
      <trkpt lat="41.45918021" lon="2.11034032">
        <ele>149.0</ele>
        <time>2021-03-03T09:35:12Z</time>
      </trkpt>
      <trkpt lat="41.45915489" lon="2.11035532">
        <ele>149.0</ele>
        <time>2021-03-03T09:35:13Z</time>
      </trkpt>
      <trkpt lat="41.45912923" lon="2.11037298">
        <ele>149.0</ele>
        <time>2021-03-03T09:35:14Z</time>
      </trkpt>
      <trkpt lat="41.45910257" lon="2.11039197">
        <ele>149.0</ele>
        <time>2021-03-03T09:35:15Z</time>
      </trkpt>
      <trkpt lat="41.45907558" lon="2.11041163">
        <ele>149.0</ele>
        <time>2021-03-03T09:35:16Z</time>
      </trkpt>
      <trkpt lat="41.45904691" lon="2.11043262">
        <ele>149.0</ele>
        <time>2021-03-03T09:35:17Z</time>
      </trkpt>
      <trkpt lat="41.45901925" lon="2.11045496">
        <ele>149.0</ele>
        <time>2021-03-03T09:35:18Z</time>
      </trkpt>
      <trkpt lat="41.45899393" lon="2.11047761">
        <ele>149.0</ele>
        <time>2021-03-03T09:35:19Z</time>
      </trkpt>
      <trkpt lat="41.45896993" lon="2.11049994">
        <ele>149.0</ele>
        <time>2021-03-03T09:35:20Z</time>
      </trkpt>
      <trkpt lat="41.45894594" lon="2.1105236">
        <ele>150.0</ele>
        <time>2021-03-03T09:35:21Z</time>
      </trkpt>
      <trkpt lat="41.45892161" lon="2.1105506">
        <ele>150.0</ele>
        <time>2021-03-03T09:35:22Z</time>
      </trkpt>
      <trkpt lat="41.45889961" lon="2.11058226">
        <ele>150.0</ele>
        <time>2021-03-03T09:35:23Z</time>
      </trkpt>
      <trkpt lat="41.45887727" lon="2.11061893">
        <ele>150.0</ele>
        <time>2021-03-03T09:35:24Z</time>
      </trkpt>
      <trkpt lat="41.45885362" lon="2.11065892">
        <ele>150.0</ele>
        <time>2021-03-03T09:35:25Z</time>
      </trkpt>
      <trkpt lat="41.45882995" lon="2.11069958">
        <ele>150.0</ele>
        <time>2021-03-03T09:35:26Z</time>
      </trkpt>
      <trkpt lat="41.45880463" lon="2.11074124">
        <ele>150.0</ele>
        <time>2021-03-03T09:35:27Z</time>
      </trkpt>
      <trkpt lat="41.45877864" lon="2.11078424">
        <ele>150.0</ele>
        <time>2021-03-03T09:35:28Z</time>
      </trkpt>
      <trkpt lat="41.45874998" lon="2.1108279">
        <ele>150.0</ele>
        <time>2021-03-03T09:35:29Z</time>
      </trkpt>
      <trkpt lat="41.45872265" lon="2.11087255">
        <ele>150.0</ele>
        <time>2021-03-03T09:35:30Z</time>
      </trkpt>
      <trkpt lat="41.45869532" lon="2.11091855">
        <ele>150.0</ele>
        <time>2021-03-03T09:35:31Z</time>
      </trkpt>
      <trkpt lat="41.45866799" lon="2.11096454">
        <ele>150.0</ele>
        <time>2021-03-03T09:35:32Z</time>
      </trkpt>
      <trkpt lat="41.45863999" lon="2.1110102">
        <ele>150.0</ele>
        <time>2021-03-03T09:35:33Z</time>
      </trkpt>
      <trkpt lat="41.45861332" lon="2.1110562">
        <ele>150.0</ele>
        <time>2021-03-03T09:35:34Z</time>
      </trkpt>
      <trkpt lat="41.45858933" lon="2.11109987">
        <ele>150.0</ele>
        <time>2021-03-03T09:35:35Z</time>
      </trkpt>
      <trkpt lat="41.45856467" lon="2.11114986">
        <ele>150.0</ele>
        <time>2021-03-03T09:35:36Z</time>
      </trkpt>
      <trkpt lat="41.45854068" lon="2.11120051">
        <ele>150.0</ele>
        <time>2021-03-03T09:35:37Z</time>
      </trkpt>
      <trkpt lat="41.45851701" lon="2.11125251">
        <ele>150.0</ele>
        <time>2021-03-03T09:35:38Z</time>
      </trkpt>
      <trkpt lat="41.45849335" lon="2.11130417">
        <ele>150.0</ele>
        <time>2021-03-03T09:35:39Z</time>
      </trkpt>
      <trkpt lat="41.45847135" lon="2.11135716">
        <ele>150.0</ele>
        <time>2021-03-03T09:35:40Z</time>
      </trkpt>
      <trkpt lat="41.45844836" lon="2.11141016">
        <ele>150.0</ele>
        <time>2021-03-03T09:35:41Z</time>
      </trkpt>
      <trkpt lat="41.45842503" lon="2.11146215">
        <ele>150.0</ele>
        <time>2021-03-03T09:35:42Z</time>
      </trkpt>
      <trkpt lat="41.45839937" lon="2.11151048">
        <ele>150.0</ele>
        <time>2021-03-03T09:35:43Z</time>
      </trkpt>
      <trkpt lat="41.45837372" lon="2.11155047">
        <ele>149.0</ele>
        <time>2021-03-03T09:35:44Z</time>
      </trkpt>
      <trkpt lat="41.45834639" lon="2.11158613">
        <ele>149.0</ele>
        <time>2021-03-03T09:35:45Z</time>
      </trkpt>
      <trkpt lat="41.45831473" lon="2.11162012">
        <ele>149.0</ele>
        <time>2021-03-03T09:35:46Z</time>
      </trkpt>
      <trkpt lat="41.45828207" lon="2.11165312">
        <ele>149.0</ele>
        <time>2021-03-03T09:35:47Z</time>
      </trkpt>
      <trkpt lat="41.45824974" lon="2.11168745">
        <ele>149.0</ele>
        <time>2021-03-03T09:35:48Z</time>
      </trkpt>
      <trkpt lat="41.45821841" lon="2.11172245">
        <ele>149.0</ele>
        <time>2021-03-03T09:35:49Z</time>
      </trkpt>
      <trkpt lat="41.45819276" lon="2.11175944">
        <ele>149.0</ele>
        <time>2021-03-03T09:35:50Z</time>
      </trkpt>
      <trkpt lat="41.45817309" lon="2.11179743">
        <ele>149.0</ele>
        <time>2021-03-03T09:35:51Z</time>
      </trkpt>
      <trkpt lat="41.45815909" lon="2.1118361">
        <ele>149.0</ele>
        <time>2021-03-03T09:35:52Z</time>
      </trkpt>
      <trkpt lat="41.45815176" lon="2.11187276">
        <ele>149.0</ele>
        <time>2021-03-03T09:35:53Z</time>
      </trkpt>
      <trkpt lat="41.4581511" lon="2.11191309">
        <ele>149.0</ele>
        <time>2021-03-03T09:35:54Z</time>
      </trkpt>
      <trkpt lat="41.4581551" lon="2.11195309">
        <ele>149.0</ele>
        <time>2021-03-03T09:35:55Z</time>
      </trkpt>
      <trkpt lat="41.45816176" lon="2.11199375">
        <ele>149.0</ele>
        <time>2021-03-03T09:35:56Z</time>
      </trkpt>
      <trkpt lat="41.45817075" lon="2.11203474">
        <ele>149.0</ele>
        <time>2021-03-03T09:35:57Z</time>
      </trkpt>
      <trkpt lat="41.45818141" lon="2.11207707">
        <ele>149.0</ele>
        <time>2021-03-03T09:35:58Z</time>
      </trkpt>
      <trkpt lat="41.45819307" lon="2.11211974">
        <ele>149.0</ele>
        <time>2021-03-03T09:35:59Z</time>
      </trkpt>
      <trkpt lat="41.45820239" lon="2.11215939">
        <ele>149.0</ele>
        <time>2021-03-03T09:36:00Z</time>
      </trkpt>
      <trkpt lat="41.45821039" lon="2.11219806">
        <ele>149.0</ele>
        <time>2021-03-03T09:36:01Z</time>
      </trkpt>
      <trkpt lat="41.45821773" lon="2.11223872">
        <ele>148.0</ele>
        <time>2021-03-03T09:36:02Z</time>
      </trkpt>
      <trkpt lat="41.45822273" lon="2.11227872">
        <ele>148.0</ele>
        <time>2021-03-03T09:36:03Z</time>
      </trkpt>
      <trkpt lat="41.45822472" lon="2.11231704">
        <ele>147.0</ele>
        <time>2021-03-03T09:36:04Z</time>
      </trkpt>
      <trkpt lat="41.45822306" lon="2.11235036">
        <ele>147.0</ele>
        <time>2021-03-03T09:36:05Z</time>
      </trkpt>
      <trkpt lat="41.45821973" lon="2.11237936">
        <ele>147.0</ele>
        <time>2021-03-03T09:36:06Z</time>
      </trkpt>
      <trkpt lat="41.45821507" lon="2.1124027">
        <ele>147.0</ele>
        <time>2021-03-03T09:36:07Z</time>
      </trkpt>
      <trkpt lat="41.45820841" lon="2.11242435">
        <ele>147.0</ele>
        <time>2021-03-03T09:36:08Z</time>
      </trkpt>
      <trkpt lat="41.45819808" lon="2.11244669">
        <ele>147.0</ele>
        <time>2021-03-03T09:36:09Z</time>
      </trkpt>
      <trkpt lat="41.45818042" lon="2.11247034">
        <ele>147.0</ele>
        <time>2021-03-03T09:36:10Z</time>
      </trkpt>
      <trkpt lat="41.45815842" lon="2.11249334">
        <ele>146.0</ele>
        <time>2021-03-03T09:36:11Z</time>
      </trkpt>
      <trkpt lat="41.45813042" lon="2.11251701">
        <ele>146.0</ele>
        <time>2021-03-03T09:36:12Z</time>
      </trkpt>
      <trkpt lat="41.45810076" lon="2.112539">
        <ele>146.0</ele>
        <time>2021-03-03T09:36:13Z</time>
      </trkpt>
      <trkpt lat="41.45807042" lon="2.11256033">
        <ele>146.0</ele>
        <time>2021-03-03T09:36:14Z</time>
      </trkpt>
      <trkpt lat="41.45803643" lon="2.11257567">
        <ele>146.0</ele>
        <time>2021-03-03T09:36:15Z</time>
      </trkpt>
      <trkpt lat="41.45799944" lon="2.11258633">
        <ele>146.0</ele>
        <time>2021-03-03T09:36:16Z</time>
      </trkpt>
      <trkpt lat="41.45796078" lon="2.11259599">
        <ele>146.0</ele>
        <time>2021-03-03T09:36:17Z</time>
      </trkpt>
      <trkpt lat="41.45791945" lon="2.11260632">
        <ele>146.0</ele>
        <time>2021-03-03T09:36:18Z</time>
      </trkpt>
      <trkpt lat="41.45787879" lon="2.11261565">
        <ele>146.0</ele>
        <time>2021-03-03T09:36:19Z</time>
      </trkpt>
      <trkpt lat="41.4578358" lon="2.11262231">
        <ele>146.0</ele>
        <time>2021-03-03T09:36:20Z</time>
      </trkpt>
      <trkpt lat="41.45779413" lon="2.11262497">
        <ele>146.0</ele>
        <time>2021-03-03T09:36:21Z</time>
      </trkpt>
      <trkpt lat="41.45775213" lon="2.11262465">
        <ele>146.0</ele>
        <time>2021-03-03T09:36:22Z</time>
      </trkpt>
      <trkpt lat="41.45771481" lon="2.11262664">
        <ele>146.0</ele>
        <time>2021-03-03T09:36:23Z</time>
      </trkpt>
      <trkpt lat="41.45768114" lon="2.11263329">
        <ele>146.0</ele>
        <time>2021-03-03T09:36:24Z</time>
      </trkpt>
      <trkpt lat="41.45764915" lon="2.11264096">
        <ele>146.0</ele>
        <time>2021-03-03T09:36:25Z</time>
      </trkpt>
      <trkpt lat="41.45761749" lon="2.11265062">
        <ele>146.0</ele>
        <time>2021-03-03T09:36:26Z</time>
      </trkpt>
      <trkpt lat="41.45758716" lon="2.11266195">
        <ele>146.0</ele>
        <time>2021-03-03T09:36:27Z</time>
      </trkpt>
      <trkpt lat="41.45755483" lon="2.11268061">
        <ele>146.0</ele>
        <time>2021-03-03T09:36:28Z</time>
      </trkpt>
      <trkpt lat="41.4575195" lon="2.11270693">
        <ele>146.0</ele>
        <time>2021-03-03T09:36:29Z</time>
      </trkpt>
      <trkpt lat="41.45747684" lon="2.1127426">
        <ele>146.0</ele>
        <time>2021-03-03T09:36:30Z</time>
      </trkpt>
      <trkpt lat="41.45743418" lon="2.11278059">
        <ele>146.0</ele>
        <time>2021-03-03T09:36:31Z</time>
      </trkpt>
      <trkpt lat="41.45738819" lon="2.11282591">
        <ele>146.0</ele>
        <time>2021-03-03T09:36:31Z</time>
      </trkpt>
      <trkpt lat="41.45734386" lon="2.11287057">
        <ele>146.0</ele>
        <time>2021-03-03T09:36:32Z</time>
      </trkpt>
      <trkpt lat="41.45730053" lon="2.1129119">
        <ele>146.0</ele>
        <time>2021-03-03T09:36:33Z</time>
      </trkpt>
      <trkpt lat="41.4572572" lon="2.11295022">
        <ele>145.0</ele>
        <time>2021-03-03T09:36:34Z</time>
      </trkpt>
      <trkpt lat="41.45721454" lon="2.11298522">
        <ele>144.0</ele>
        <time>2021-03-03T09:36:35Z</time>
      </trkpt>
      <trkpt lat="41.45717489" lon="2.11301822">
        <ele>144.0</ele>
        <time>2021-03-03T09:36:36Z</time>
      </trkpt>
      <trkpt lat="41.45713822" lon="2.11305221">
        <ele>143.0</ele>
        <time>2021-03-03T09:36:37Z</time>
      </trkpt>
      <trkpt lat="41.45709989" lon="2.11309087">
        <ele>142.0</ele>
        <time>2021-03-03T09:36:38Z</time>
      </trkpt>
      <trkpt lat="41.4570629" lon="2.1131382">
        <ele>142.0</ele>
        <time>2021-03-03T09:36:39Z</time>
      </trkpt>
      <trkpt lat="41.45703456" lon="2.11319586">
        <ele>141.0</ele>
        <time>2021-03-03T09:36:40Z</time>
      </trkpt>
      <trkpt lat="41.45701691" lon="2.11326186">
        <ele>140.0</ele>
        <time>2021-03-03T09:36:41Z</time>
      </trkpt>
      <trkpt lat="41.45700525" lon="2.11332852">
        <ele>140.0</ele>
        <time>2021-03-03T09:36:42Z</time>
      </trkpt>
      <trkpt lat="41.45699659" lon="2.11338751">
        <ele>139.0</ele>
        <time>2021-03-03T09:36:43Z</time>
      </trkpt>
      <trkpt lat="41.4569846" lon="2.11343884">
        <ele>138.0</ele>
        <time>2021-03-03T09:36:44Z</time>
      </trkpt>
      <trkpt lat="41.45696627" lon="2.11348317">
        <ele>137.0</ele>
        <time>2021-03-03T09:36:45Z</time>
      </trkpt>
      <trkpt lat="41.45694561" lon="2.11351883">
        <ele>137.0</ele>
        <time>2021-03-03T09:36:46Z</time>
      </trkpt>
      <trkpt lat="41.45692428" lon="2.11354815">
        <ele>137.0</ele>
        <time>2021-03-03T09:36:47Z</time>
      </trkpt>
      <trkpt lat="41.45690429" lon="2.11357415">
        <ele>136.0</ele>
        <time>2021-03-03T09:36:48Z</time>
      </trkpt>
      <trkpt lat="41.45688529" lon="2.11359848">
        <ele>136.0</ele>
        <time>2021-03-03T09:36:49Z</time>
      </trkpt>
      <trkpt lat="41.4568683" lon="2.11362248">
        <ele>136.0</ele>
        <time>2021-03-03T09:36:50Z</time>
      </trkpt>
      <trkpt lat="41.45685197" lon="2.11364547">
        <ele>136.0</ele>
        <time>2021-03-03T09:36:51Z</time>
      </trkpt>
      <trkpt lat="41.45683731" lon="2.11366613">
        <ele>136.0</ele>
        <time>2021-03-03T09:36:52Z</time>
      </trkpt>
      <trkpt lat="41.45682299" lon="2.11368646">
        <ele>137.0</ele>
        <time>2021-03-03T09:36:53Z</time>
      </trkpt>
      <trkpt lat="41.45681199" lon="2.11370845">
        <ele>137.0</ele>
        <time>2021-03-03T09:36:54Z</time>
      </trkpt>
      <trkpt lat="41.45680333" lon="2.11373145">
        <ele>135.0</ele>
        <time>2021-03-03T09:36:55Z</time>
      </trkpt>
      <trkpt lat="41.45679201" lon="2.11374911">
        <ele>133.0</ele>
        <time>2021-03-03T09:36:56Z</time>
      </trkpt>
      <trkpt lat="41.45677768" lon="2.1137631">
        <ele>131.0</ele>
        <time>2021-03-03T09:36:57Z</time>
      </trkpt>
      <trkpt lat="41.45676202" lon="2.11377644">
        <ele>131.0</ele>
        <time>2021-03-03T09:36:58Z</time>
      </trkpt>
      <trkpt lat="41.45674336" lon="2.11378909">
        <ele>132.0</ele>
        <time>2021-03-03T09:36:59Z</time>
      </trkpt>
      <trkpt lat="41.45672003" lon="2.11380143">
        <ele>133.0</ele>
        <time>2021-03-03T09:37:00Z</time>
      </trkpt>
      <trkpt lat="41.45669169" lon="2.11381042">
        <ele>133.0</ele>
        <time>2021-03-03T09:37:01Z</time>
      </trkpt>
      <trkpt lat="41.4566567" lon="2.11381475">
        <ele>134.0</ele>
        <time>2021-03-03T09:37:02Z</time>
      </trkpt>
      <trkpt lat="41.4566157" lon="2.11381375">
        <ele>135.0</ele>
        <time>2021-03-03T09:37:03Z</time>
      </trkpt>
      <trkpt lat="41.45657138" lon="2.11381108">
        <ele>135.0</ele>
        <time>2021-03-03T09:37:04Z</time>
      </trkpt>
      <trkpt lat="41.45652405" lon="2.11380409">
        <ele>136.0</ele>
        <time>2021-03-03T09:37:05Z</time>
      </trkpt>
      <trkpt lat="41.45647405" lon="2.11379209">
        <ele>136.0</ele>
        <time>2021-03-03T09:37:06Z</time>
      </trkpt>
      <trkpt lat="41.45642306" lon="2.11377543">
        <ele>136.0</ele>
        <time>2021-03-03T09:37:07Z</time>
      </trkpt>
      <trkpt lat="41.45637339" lon="2.11375644">
        <ele>137.0</ele>
        <time>2021-03-03T09:37:08Z</time>
      </trkpt>
      <trkpt lat="41.45632872" lon="2.1137381">
        <ele>137.0</ele>
        <time>2021-03-03T09:37:09Z</time>
      </trkpt>
      <trkpt lat="41.45628607" lon="2.11372111">
        <ele>137.0</ele>
        <time>2021-03-03T09:37:10Z</time>
      </trkpt>
      <trkpt lat="41.45624641" lon="2.11370778">
        <ele>137.0</ele>
        <time>2021-03-03T09:37:11Z</time>
      </trkpt>
      <trkpt lat="41.45620942" lon="2.11369612">
        <ele>137.0</ele>
        <time>2021-03-03T09:37:12Z</time>
      </trkpt>
      <trkpt lat="41.45617309" lon="2.11368546">
        <ele>138.0</ele>
        <time>2021-03-03T09:37:13Z</time>
      </trkpt>
      <trkpt lat="41.45613543" lon="2.11367713">
        <ele>138.0</ele>
        <time>2021-03-03T09:37:14Z</time>
      </trkpt>
      <trkpt lat="41.45609611" lon="2.1136728">
        <ele>138.0</ele>
        <time>2021-03-03T09:37:15Z</time>
      </trkpt>
      <trkpt lat="41.45605277" lon="2.11367148">
        <ele>138.0</ele>
        <time>2021-03-03T09:37:16Z</time>
      </trkpt>
      <trkpt lat="41.45600811" lon="2.11367648">
        <ele>138.0</ele>
        <time>2021-03-03T09:37:17Z</time>
      </trkpt>
      <trkpt lat="41.45596078" lon="2.1136898">
        <ele>138.0</ele>
        <time>2021-03-03T09:37:18Z</time>
      </trkpt>
      <trkpt lat="41.45591645" lon="2.11370479">
        <ele>138.0</ele>
        <time>2021-03-03T09:37:19Z</time>
      </trkpt>
      <trkpt lat="41.45587278" lon="2.11372179">
        <ele>139.0</ele>
        <time>2021-03-03T09:37:20Z</time>
      </trkpt>
      <trkpt lat="41.45582813" lon="2.11373946">
        <ele>139.0</ele>
        <time>2021-03-03T09:37:21Z</time>
      </trkpt>
      <trkpt lat="41.45578179" lon="2.11375711">
        <ele>139.0</ele>
        <time>2021-03-03T09:37:22Z</time>
      </trkpt>
      <trkpt lat="41.45573614" lon="2.1137761">
        <ele>139.0</ele>
        <time>2021-03-03T09:37:23Z</time>
      </trkpt>
      <trkpt lat="41.4556938" lon="2.11379277">
        <ele>139.0</ele>
        <time>2021-03-03T09:37:24Z</time>
      </trkpt>
      <trkpt lat="41.45565115" lon="2.11380743">
        <ele>139.0</ele>
        <time>2021-03-03T09:37:25Z</time>
      </trkpt>
      <trkpt lat="41.45560881" lon="2.11382076">
        <ele>139.0</ele>
        <time>2021-03-03T09:37:26Z</time>
      </trkpt>
      <trkpt lat="41.45556448" lon="2.11383308">
        <ele>139.0</ele>
        <time>2021-03-03T09:37:27Z</time>
      </trkpt>
      <trkpt lat="41.45552115" lon="2.11384308">
        <ele>140.0</ele>
        <time>2021-03-03T09:37:28Z</time>
      </trkpt>
      <trkpt lat="41.45547916" lon="2.11384808">
        <ele>141.0</ele>
        <time>2021-03-03T09:37:29Z</time>
      </trkpt>
      <trkpt lat="41.45543749" lon="2.11385341">
        <ele>142.0</ele>
        <time>2021-03-03T09:37:30Z</time>
      </trkpt>
      <trkpt lat="41.45539649" lon="2.11385673">
        <ele>142.0</ele>
        <time>2021-03-03T09:37:31Z</time>
      </trkpt>
      <trkpt lat="41.45535717" lon="2.1138594">
        <ele>143.0</ele>
        <time>2021-03-03T09:37:32Z</time>
      </trkpt>
      <trkpt lat="41.45532284" lon="2.11386505">
        <ele>143.0</ele>
        <time>2021-03-03T09:37:33Z</time>
      </trkpt>
      <trkpt lat="41.45529085" lon="2.11387172">
        <ele>143.0</ele>
        <time>2021-03-03T09:37:34Z</time>
      </trkpt>
      <trkpt lat="41.45525852" lon="2.11387838">
        <ele>143.0</ele>
        <time>2021-03-03T09:37:35Z</time>
      </trkpt>
      <trkpt lat="41.45522785" lon="2.11388703">
        <ele>144.0</ele>
        <time>2021-03-03T09:37:36Z</time>
      </trkpt>
      <trkpt lat="41.4551982" lon="2.11389803">
        <ele>144.0</ele>
        <time>2021-03-03T09:37:37Z</time>
      </trkpt>
      <trkpt lat="41.45516886" lon="2.11391069">
        <ele>144.0</ele>
        <time>2021-03-03T09:37:38Z</time>
      </trkpt>
      <trkpt lat="41.45513654" lon="2.11392536">
        <ele>144.0</ele>
        <time>2021-03-03T09:37:39Z</time>
      </trkpt>
      <trkpt lat="41.45510054" lon="2.11394069">
        <ele>144.0</ele>
        <time>2021-03-03T09:37:40Z</time>
      </trkpt>
      <trkpt lat="41.45506288" lon="2.11396001">
        <ele>144.0</ele>
        <time>2021-03-03T09:37:41Z</time>
      </trkpt>
      <trkpt lat="41.45502655" lon="2.11398101">
        <ele>144.0</ele>
        <time>2021-03-03T09:37:42Z</time>
      </trkpt>
      <trkpt lat="41.45499122" lon="2.11400101">
        <ele>144.0</ele>
        <time>2021-03-03T09:37:43Z</time>
      </trkpt>
      <trkpt lat="41.45495822" lon="2.114021">
        <ele>144.0</ele>
        <time>2021-03-03T09:37:44Z</time>
      </trkpt>
      <trkpt lat="41.45492756" lon="2.11403967">
        <ele>145.0</ele>
        <time>2021-03-03T09:37:45Z</time>
      </trkpt>
      <trkpt lat="41.45489923" lon="2.114058">
        <ele>145.0</ele>
        <time>2021-03-03T09:37:46Z</time>
      </trkpt>
      <trkpt lat="41.4548729" lon="2.11407466">
        <ele>145.0</ele>
        <time>2021-03-03T09:37:47Z</time>
      </trkpt>
      <trkpt lat="41.45484625" lon="2.11408898">
        <ele>145.0</ele>
        <time>2021-03-03T09:37:48Z</time>
      </trkpt>
      <trkpt lat="41.45481758" lon="2.11410397">
        <ele>145.0</ele>
        <time>2021-03-03T09:37:49Z</time>
      </trkpt>
      <trkpt lat="41.45478892" lon="2.1141213">
        <ele>145.0</ele>
        <time>2021-03-03T09:37:50Z</time>
      </trkpt>
      <trkpt lat="41.4547606" lon="2.1141413">
        <ele>146.0</ele>
        <time>2021-03-03T09:37:51Z</time>
      </trkpt>
      <trkpt lat="41.45473428" lon="2.11416095">
        <ele>146.0</ele>
        <time>2021-03-03T09:37:52Z</time>
      </trkpt>
      <trkpt lat="41.45470894" lon="2.11418162">
        <ele>146.0</ele>
        <time>2021-03-03T09:37:53Z</time>
      </trkpt>
      <trkpt lat="41.45468528" lon="2.11420128">
        <ele>146.0</ele>
        <time>2021-03-03T09:37:54Z</time>
      </trkpt>
      <trkpt lat="41.45465962" lon="2.11422494">
        <ele>146.0</ele>
        <time>2021-03-03T09:37:55Z</time>
      </trkpt>
      <trkpt lat="41.45463096" lon="2.11424894">
        <ele>146.0</ele>
        <time>2021-03-03T09:37:56Z</time>
      </trkpt>
      <trkpt lat="41.45459796" lon="2.11427193">
        <ele>146.0</ele>
        <time>2021-03-03T09:37:57Z</time>
      </trkpt>
      <trkpt lat="41.45456163" lon="2.11429293">
        <ele>146.0</ele>
        <time>2021-03-03T09:37:58Z</time>
      </trkpt>
      <trkpt lat="41.45452097" lon="2.11431392">
        <ele>146.0</ele>
        <time>2021-03-03T09:37:59Z</time>
      </trkpt>
      <trkpt lat="41.45447865" lon="2.11433525">
        <ele>146.0</ele>
        <time>2021-03-03T09:38:00Z</time>
      </trkpt>
      <trkpt lat="41.45443765" lon="2.11435525">
        <ele>146.0</ele>
        <time>2021-03-03T09:38:01Z</time>
      </trkpt>
      <trkpt lat="41.45439766" lon="2.1143739">
        <ele>146.0</ele>
        <time>2021-03-03T09:38:02Z</time>
      </trkpt>
      <trkpt lat="41.454357" lon="2.11438724">
        <ele>146.0</ele>
        <time>2021-03-03T09:38:03Z</time>
      </trkpt>
      <trkpt lat="41.45431667" lon="2.11439323">
        <ele>146.0</ele>
        <time>2021-03-03T09:38:04Z</time>
      </trkpt>
      <trkpt lat="41.45427801" lon="2.11438957">
        <ele>146.0</ele>
        <time>2021-03-03T09:38:05Z</time>
      </trkpt>
      <trkpt lat="41.45424001" lon="2.11438157">
        <ele>146.0</ele>
        <time>2021-03-03T09:38:06Z</time>
      </trkpt>
      <trkpt lat="41.45420368" lon="2.11436891">
        <ele>146.0</ele>
        <time>2021-03-03T09:38:07Z</time>
      </trkpt>
      <trkpt lat="41.45417035" lon="2.11435459">
        <ele>146.0</ele>
        <time>2021-03-03T09:38:08Z</time>
      </trkpt>
      <trkpt lat="41.45413802" lon="2.11433826">
        <ele>145.0</ele>
        <time>2021-03-03T09:38:09Z</time>
      </trkpt>
      <trkpt lat="41.45410736" lon="2.11432027">
        <ele>145.0</ele>
        <time>2021-03-03T09:38:10Z</time>
      </trkpt>
      <trkpt lat="41.45407402" lon="2.11430427">
        <ele>145.0</ele>
        <time>2021-03-03T09:38:11Z</time>
      </trkpt>
      <trkpt lat="41.45403737" lon="2.11429327">
        <ele>145.0</ele>
        <time>2021-03-03T09:38:12Z</time>
      </trkpt>
      <trkpt lat="41.45399738" lon="2.11428461">
        <ele>145.0</ele>
        <time>2021-03-03T09:38:13Z</time>
      </trkpt>
      <trkpt lat="41.45395538" lon="2.11427329">
        <ele>146.0</ele>
        <time>2021-03-03T09:38:14Z</time>
      </trkpt>
      <trkpt lat="41.45391205" lon="2.11425762">
        <ele>147.0</ele>
        <time>2021-03-03T09:38:15Z</time>
      </trkpt>
      <trkpt lat="41.45387339" lon="2.11423695">
        <ele>148.0</ele>
        <time>2021-03-03T09:38:16Z</time>
      </trkpt>
      <trkpt lat="41.4538364" lon="2.11421562">
        <ele>149.0</ele>
        <time>2021-03-03T09:38:17Z</time>
      </trkpt>
      <trkpt lat="41.45380373" lon="2.11420063">
        <ele>149.0</ele>
        <time>2021-03-03T09:38:18Z</time>
      </trkpt>
      <trkpt lat="41.4537734" lon="2.11419063">
        <ele>150.0</ele>
        <time>2021-03-03T09:38:19Z</time>
      </trkpt>
      <trkpt lat="41.45374341" lon="2.11418464">
        <ele>151.0</ele>
        <time>2021-03-03T09:38:20Z</time>
      </trkpt>
      <trkpt lat="41.45371641" lon="2.11418032">
        <ele>151.0</ele>
        <time>2021-03-03T09:38:21Z</time>
      </trkpt>
      <trkpt lat="41.45369141" lon="2.11418132">
        <ele>152.0</ele>
        <time>2021-03-03T09:38:22Z</time>
      </trkpt>
      <trkpt lat="41.45367042" lon="2.11418631">
        <ele>152.0</ele>
        <time>2021-03-03T09:38:23Z</time>
      </trkpt>
      <trkpt lat="41.45364575" lon="2.11419196">
        <ele>152.0</ele>
        <time>2021-03-03T09:38:24Z</time>
      </trkpt>
      <trkpt lat="41.45361643" lon="2.11419463">
        <ele>152.0</ele>
        <time>2021-03-03T09:38:25Z</time>
      </trkpt>
      <trkpt lat="41.45357676" lon="2.11419696">
        <ele>152.0</ele>
        <time>2021-03-03T09:38:26Z</time>
      </trkpt>
      <trkpt lat="41.45353377" lon="2.1142003">
        <ele>152.0</ele>
        <time>2021-03-03T09:38:27Z</time>
      </trkpt>
      <trkpt lat="41.45348845" lon="2.11420495">
        <ele>151.0</ele>
        <time>2021-03-03T09:38:28Z</time>
      </trkpt>
      <trkpt lat="41.45344111" lon="2.11421162">
        <ele>151.0</ele>
        <time>2021-03-03T09:38:29Z</time>
      </trkpt>
      <trkpt lat="41.45339546" lon="2.11422162">
        <ele>150.0</ele>
        <time>2021-03-03T09:38:30Z</time>
      </trkpt>
      <trkpt lat="41.45335412" lon="2.11423261">
        <ele>150.0</ele>
        <time>2021-03-03T09:38:31Z</time>
      </trkpt>
      <trkpt lat="41.45331647" lon="2.11424661">
        <ele>150.0</ele>
        <time>2021-03-03T09:38:32Z</time>
      </trkpt>
      <trkpt lat="41.45327681" lon="2.11426127">
        <ele>149.0</ele>
        <time>2021-03-03T09:38:33Z</time>
      </trkpt>
      <trkpt lat="41.45323881" lon="2.11427627">
        <ele>149.0</ele>
        <time>2021-03-03T09:38:34Z</time>
      </trkpt>
      <trkpt lat="41.45320282" lon="2.11429326">
        <ele>149.0</ele>
        <time>2021-03-03T09:38:35Z</time>
      </trkpt>
      <trkpt lat="41.45316915" lon="2.11430859">
        <ele>149.0</ele>
        <time>2021-03-03T09:38:36Z</time>
      </trkpt>
      <trkpt lat="41.4531325" lon="2.11432492">
        <ele>149.0</ele>
        <time>2021-03-03T09:38:37Z</time>
      </trkpt>
      <trkpt lat="41.45309516" lon="2.11433825">
        <ele>149.0</ele>
        <time>2021-03-03T09:38:38Z</time>
      </trkpt>
      <trkpt lat="41.45305651" lon="2.1143449">
        <ele>148.0</ele>
        <time>2021-03-03T09:38:39Z</time>
      </trkpt>
      <trkpt lat="41.45301517" lon="2.11434757">
        <ele>148.0</ele>
        <time>2021-03-03T09:38:40Z</time>
      </trkpt>
      <trkpt lat="41.45297384" lon="2.11434789">
        <ele>148.0</ele>
        <time>2021-03-03T09:38:41Z</time>
      </trkpt>
      <trkpt lat="41.45293784" lon="2.11434856">
        <ele>148.0</ele>
        <time>2021-03-03T09:38:42Z</time>
      </trkpt>
      <trkpt lat="41.45290218" lon="2.11434922">
        <ele>148.0</ele>
        <time>2021-03-03T09:38:43Z</time>
      </trkpt>
      <trkpt lat="41.45287052" lon="2.11434922">
        <ele>148.0</ele>
        <time>2021-03-03T09:38:44Z</time>
      </trkpt>
      <trkpt lat="41.45284218" lon="2.11434922">
        <ele>148.0</ele>
        <time>2021-03-03T09:38:45Z</time>
      </trkpt>
      <trkpt lat="41.45281719" lon="2.11434822">
        <ele>149.0</ele>
        <time>2021-03-03T09:38:46Z</time>
      </trkpt>
      <trkpt lat="41.45279319" lon="2.11434655">
        <ele>149.0</ele>
        <time>2021-03-03T09:38:47Z</time>
      </trkpt>
      <trkpt lat="41.45277153" lon="2.11434787">
        <ele>149.0</ele>
        <time>2021-03-03T09:38:48Z</time>
      </trkpt>
      <trkpt lat="41.45275154" lon="2.11435054">
        <ele>149.0</ele>
        <time>2021-03-03T09:38:49Z</time>
      </trkpt>
      <trkpt lat="41.45272954" lon="2.11435486">
        <ele>149.0</ele>
        <time>2021-03-03T09:38:50Z</time>
      </trkpt>
      <trkpt lat="41.45270788" lon="2.11436253">
        <ele>148.0</ele>
        <time>2021-03-03T09:38:51Z</time>
      </trkpt>
      <trkpt lat="41.45268489" lon="2.1143742">
        <ele>148.0</ele>
        <time>2021-03-03T09:38:52Z</time>
      </trkpt>
      <trkpt lat="41.45266322" lon="2.11438985">
        <ele>148.0</ele>
        <time>2021-03-03T09:38:53Z</time>
      </trkpt>
      <trkpt lat="41.45264389" lon="2.11440452">
        <ele>148.0</ele>
        <time>2021-03-03T09:38:54Z</time>
      </trkpt>
      <trkpt lat="41.45262222" lon="2.11441685">
        <ele>148.0</ele>
        <time>2021-03-03T09:38:55Z</time>
      </trkpt>
      <trkpt lat="41.45259857" lon="2.11442452">
        <ele>148.0</ele>
        <time>2021-03-03T09:38:56Z</time>
      </trkpt>
      <trkpt lat="41.4525769" lon="2.11442784">
        <ele>148.0</ele>
        <time>2021-03-03T09:38:57Z</time>
      </trkpt>
      <trkpt lat="41.45255523" lon="2.11442752">
        <ele>148.0</ele>
        <time>2021-03-03T09:38:58Z</time>
      </trkpt>
      <trkpt lat="41.45253691" lon="2.11443118">
        <ele>148.0</ele>
        <time>2021-03-03T09:38:59Z</time>
      </trkpt>
      <trkpt lat="41.45252124" lon="2.1144385">
        <ele>148.0</ele>
        <time>2021-03-03T09:39:00Z</time>
      </trkpt>
      <trkpt lat="41.45250724" lon="2.1144515">
        <ele>148.0</ele>
        <time>2021-03-03T09:39:01Z</time>
      </trkpt>
      <trkpt lat="41.45249659" lon="2.1144675">
        <ele>148.0</ele>
        <time>2021-03-03T09:39:02Z</time>
      </trkpt>
      <trkpt lat="41.45248159" lon="2.11449016">
        <ele>148.0</ele>
        <time>2021-03-03T09:39:03Z</time>
      </trkpt>
      <trkpt lat="41.45246492" lon="2.11451682">
        <ele>148.0</ele>
        <time>2021-03-03T09:39:04Z</time>
      </trkpt>
      <trkpt lat="41.4524466" lon="2.11454582">
        <ele>148.0</ele>
        <time>2021-03-03T09:39:05Z</time>
      </trkpt>
      <trkpt lat="41.45242894" lon="2.11457649">
        <ele>148.0</ele>
        <time>2021-03-03T09:39:06Z</time>
      </trkpt>
      <trkpt lat="41.45241261" lon="2.11460782">
        <ele>148.0</ele>
        <time>2021-03-03T09:39:07Z</time>
      </trkpt>
      <trkpt lat="41.45240061" lon="2.11463681">
        <ele>148.0</ele>
        <time>2021-03-03T09:39:08Z</time>
      </trkpt>
      <trkpt lat="41.45239128" lon="2.11466947">
        <ele>148.0</ele>
        <time>2021-03-03T09:39:09Z</time>
      </trkpt>
      <trkpt lat="41.45238196" lon="2.11470247">
        <ele>149.0</ele>
        <time>2021-03-03T09:39:10Z</time>
      </trkpt>
      <trkpt lat="41.4523733" lon="2.11473346">
        <ele>149.0</ele>
        <time>2021-03-03T09:39:11Z</time>
      </trkpt>
      <trkpt lat="41.45236198" lon="2.11476378">
        <ele>149.0</ele>
        <time>2021-03-03T09:39:12Z</time>
      </trkpt>
      <trkpt lat="41.45235066" lon="2.11479478">
        <ele>149.0</ele>
        <time>2021-03-03T09:39:13Z</time>
      </trkpt>
      <trkpt lat="41.45233932" lon="2.11482511">
        <ele>149.0</ele>
        <time>2021-03-03T09:39:14Z</time>
      </trkpt>
      <trkpt lat="41.45232666" lon="2.11485443">
        <ele>150.0</ele>
        <time>2021-03-03T09:39:15Z</time>
      </trkpt>
      <trkpt lat="41.452314" lon="2.1148831">
        <ele>150.0</ele>
        <time>2021-03-03T09:39:16Z</time>
      </trkpt>
      <trkpt lat="41.45230033" lon="2.11490809">
        <ele>150.0</ele>
        <time>2021-03-03T09:39:17Z</time>
      </trkpt>
      <trkpt lat="41.45228667" lon="2.11493074">
        <ele>150.0</ele>
        <time>2021-03-03T09:39:18Z</time>
      </trkpt>
      <trkpt lat="41.452274" lon="2.1149524">
        <ele>151.0</ele>
        <time>2021-03-03T09:39:19Z</time>
      </trkpt>
      <trkpt lat="41.45225968" lon="2.1149724">
        <ele>151.0</ele>
        <time>2021-03-03T09:39:20Z</time>
      </trkpt>
      <trkpt lat="41.45224635" lon="2.11499073">
        <ele>151.0</ele>
        <time>2021-03-03T09:39:21Z</time>
      </trkpt>
      <trkpt lat="41.45223369" lon="2.11500907">
        <ele>151.0</ele>
        <time>2021-03-03T09:39:22Z</time>
      </trkpt>
      <trkpt lat="41.4522217" lon="2.11502607">
        <ele>151.0</ele>
        <time>2021-03-03T09:39:23Z</time>
      </trkpt>
      <trkpt lat="41.4522107" lon="2.11504106">
        <ele>151.0</ele>
        <time>2021-03-03T09:39:24Z</time>
      </trkpt>
      <trkpt lat="41.45219537" lon="2.11505538">
        <ele>152.0</ele>
        <time>2021-03-03T09:39:25Z</time>
      </trkpt>
      <trkpt lat="41.45217904" lon="2.11506838">
        <ele>152.0</ele>
        <time>2021-03-03T09:39:26Z</time>
      </trkpt>
      <trkpt lat="41.45216371" lon="2.11508138">
        <ele>152.0</ele>
        <time>2021-03-03T09:39:27Z</time>
      </trkpt>
      <trkpt lat="41.45214704" lon="2.11509404">
        <ele>152.0</ele>
        <time>2021-03-03T09:39:28Z</time>
      </trkpt>
      <trkpt lat="41.45212972" lon="2.11510637">
        <ele>152.0</ele>
        <time>2021-03-03T09:39:29Z</time>
      </trkpt>
      <trkpt lat="41.45211273" lon="2.11511836">
        <ele>153.0</ele>
        <time>2021-03-03T09:39:30Z</time>
      </trkpt>
      <trkpt lat="41.45209339" lon="2.11513136">
        <ele>153.0</ele>
        <time>2021-03-03T09:39:31Z</time>
      </trkpt>
      <trkpt lat="41.4520714" lon="2.11514635">
        <ele>153.0</ele>
        <time>2021-03-03T09:39:32Z</time>
      </trkpt>
      <trkpt lat="41.45204807" lon="2.11516435">
        <ele>153.0</ele>
        <time>2021-03-03T09:39:33Z</time>
      </trkpt>
      <trkpt lat="41.45202675" lon="2.11518701">
        <ele>153.0</ele>
        <time>2021-03-03T09:39:34Z</time>
      </trkpt>
      <trkpt lat="41.45200741" lon="2.11521301">
        <ele>154.0</ele>
        <time>2021-03-03T09:39:35Z</time>
      </trkpt>
      <trkpt lat="41.45199275" lon="2.115246">
        <ele>154.0</ele>
        <time>2021-03-03T09:39:36Z</time>
      </trkpt>
      <trkpt lat="41.45197842" lon="2.11528">
        <ele>155.0</ele>
        <time>2021-03-03T09:39:37Z</time>
      </trkpt>
      <trkpt lat="41.45196176" lon="2.11531365">
        <ele>155.0</ele>
        <time>2021-03-03T09:39:38Z</time>
      </trkpt>
      <trkpt lat="41.45194277" lon="2.11535032">
        <ele>155.0</ele>
        <time>2021-03-03T09:39:39Z</time>
      </trkpt>
      <trkpt lat="41.45192377" lon="2.11538598">
        <ele>155.0</ele>
        <time>2021-03-03T09:39:40Z</time>
      </trkpt>
      <trkpt lat="41.45190477" lon="2.11542064">
        <ele>156.0</ele>
        <time>2021-03-03T09:39:41Z</time>
      </trkpt>
      <trkpt lat="41.4518881" lon="2.11545264">
        <ele>156.0</ele>
        <time>2021-03-03T09:39:42Z</time>
      </trkpt>
      <trkpt lat="41.45187311" lon="2.11548497">
        <ele>157.0</ele>
        <time>2021-03-03T09:39:43Z</time>
      </trkpt>
      <trkpt lat="41.45185879" lon="2.11551662">
        <ele>157.0</ele>
        <time>2021-03-03T09:39:44Z</time>
      </trkpt>
      <trkpt lat="41.45184545" lon="2.11554762">
        <ele>157.0</ele>
        <time>2021-03-03T09:39:45Z</time>
      </trkpt>
      <trkpt lat="41.45183179" lon="2.11557861">
        <ele>157.0</ele>
        <time>2021-03-03T09:39:46Z</time>
      </trkpt>
      <trkpt lat="41.45181779" lon="2.11560794">
        <ele>158.0</ele>
        <time>2021-03-03T09:39:47Z</time>
      </trkpt>
      <trkpt lat="41.45180213" lon="2.11563627">
        <ele>158.0</ele>
        <time>2021-03-03T09:39:48Z</time>
      </trkpt>
      <trkpt lat="41.45178413" lon="2.11566659">
        <ele>159.0</ele>
        <time>2021-03-03T09:39:49Z</time>
      </trkpt>
      <trkpt lat="41.45176947" lon="2.11569593">
        <ele>159.0</ele>
        <time>2021-03-03T09:39:50Z</time>
      </trkpt>
      <trkpt lat="41.45175614" lon="2.11572493">
        <ele>159.0</ele>
        <time>2021-03-03T09:39:51Z</time>
      </trkpt>
      <trkpt lat="41.45174248" lon="2.11575325">
        <ele>159.0</ele>
        <time>2021-03-03T09:39:52Z</time>
      </trkpt>
      <trkpt lat="41.45172848" lon="2.11578158">
        <ele>160.0</ele>
        <time>2021-03-03T09:39:53Z</time>
      </trkpt>
      <trkpt lat="41.45171348" lon="2.11581058">
        <ele>160.0</ele>
        <time>2021-03-03T09:39:54Z</time>
      </trkpt>
      <trkpt lat="41.45169849" lon="2.11583658">
        <ele>160.0</ele>
        <time>2021-03-03T09:39:55Z</time>
      </trkpt>
      <trkpt lat="41.45167916" lon="2.11586124">
        <ele>160.0</ele>
        <time>2021-03-03T09:39:56Z</time>
      </trkpt>
      <trkpt lat="41.45165716" lon="2.11588091">
        <ele>160.0</ele>
        <time>2021-03-03T09:39:57Z</time>
      </trkpt>
      <trkpt lat="41.4516365" lon="2.1158959">
        <ele>160.0</ele>
        <time>2021-03-03T09:39:58Z</time>
      </trkpt>
      <trkpt lat="41.45161351" lon="2.11590689">
        <ele>160.0</ele>
        <time>2021-03-03T09:39:59Z</time>
      </trkpt>
      <trkpt lat="41.45158851" lon="2.11591821">
        <ele>160.0</ele>
        <time>2021-03-03T09:40:00Z</time>
      </trkpt>
      <trkpt lat="41.45155986" lon="2.11592788">
        <ele>160.0</ele>
        <time>2021-03-03T09:40:01Z</time>
      </trkpt>
      <trkpt lat="41.45152686" lon="2.11593387">
        <ele>160.0</ele>
        <time>2021-03-03T09:40:02Z</time>
      </trkpt>
      <trkpt lat="41.45149152" lon="2.11593819">
        <ele>160.0</ele>
        <time>2021-03-03T09:40:03Z</time>
      </trkpt>
      <trkpt lat="41.4514532" lon="2.11594185">
        <ele>160.0</ele>
        <time>2021-03-03T09:40:04Z</time>
      </trkpt>
      <trkpt lat="41.45141253" lon="2.1159455">
        <ele>160.0</ele>
        <time>2021-03-03T09:40:05Z</time>
      </trkpt>
      <trkpt lat="41.45136988" lon="2.1159495">
        <ele>160.0</ele>
        <time>2021-03-03T09:40:06Z</time>
      </trkpt>
      <trkpt lat="41.45132989" lon="2.11595384">
        <ele>160.0</ele>
        <time>2021-03-03T09:40:07Z</time>
      </trkpt>
      <trkpt lat="41.45129055" lon="2.11595983">
        <ele>160.0</ele>
        <time>2021-03-03T09:40:08Z</time>
      </trkpt>
      <trkpt lat="41.45124589" lon="2.11596582">
        <ele>160.0</ele>
        <time>2021-03-03T09:40:09Z</time>
      </trkpt>
      <trkpt lat="41.45119889" lon="2.11597348">
        <ele>160.0</ele>
        <time>2021-03-03T09:40:10Z</time>
      </trkpt>
      <trkpt lat="41.45114822" lon="2.11598247">
        <ele>160.0</ele>
        <time>2021-03-03T09:40:11Z</time>
      </trkpt>
      <trkpt lat="41.45109623" lon="2.11599146">
        <ele>160.0</ele>
        <time>2021-03-03T09:40:12Z</time>
      </trkpt>
      <trkpt lat="41.4510409" lon="2.11599512">
        <ele>160.0</ele>
        <time>2021-03-03T09:40:13Z</time>
      </trkpt>
      <trkpt lat="41.45098857" lon="2.11599446">
        <ele>160.0</ele>
        <time>2021-03-03T09:40:14Z</time>
      </trkpt>
      <trkpt lat="41.45093291" lon="2.11599081">
        <ele>159.0</ele>
        <time>2021-03-03T09:40:15Z</time>
      </trkpt>
      <trkpt lat="41.45087892" lon="2.11598914">
        <ele>159.0</ele>
        <time>2021-03-03T09:40:16Z</time>
      </trkpt>
      <trkpt lat="41.45082158" lon="2.11598681">
        <ele>159.0</ele>
        <time>2021-03-03T09:40:17Z</time>
      </trkpt>
      <trkpt lat="41.45076193" lon="2.11598813">
        <ele>159.0</ele>
        <time>2021-03-03T09:40:18Z</time>
      </trkpt>
      <trkpt lat="41.45070527" lon="2.1159898">
        <ele>159.0</ele>
        <time>2021-03-03T09:40:19Z</time>
      </trkpt>
      <trkpt lat="41.4506526" lon="2.11598847">
        <ele>159.0</ele>
        <time>2021-03-03T09:40:20Z</time>
      </trkpt>
      <trkpt lat="41.45060028" lon="2.11598281">
        <ele>159.0</ele>
        <time>2021-03-03T09:40:21Z</time>
      </trkpt>
      <trkpt lat="41.45054861" lon="2.11597048">
        <ele>159.0</ele>
        <time>2021-03-03T09:40:22Z</time>
      </trkpt>
      <trkpt lat="41.45050128" lon="2.11595282">
        <ele>159.0</ele>
        <time>2021-03-03T09:40:23Z</time>
      </trkpt>
      <trkpt lat="41.45045696" lon="2.11593648">
        <ele>159.0</ele>
        <time>2021-03-03T09:40:24Z</time>
      </trkpt>
      <trkpt lat="41.45041296" lon="2.11592048">
        <ele>159.0</ele>
        <time>2021-03-03T09:40:25Z</time>
      </trkpt>
      <trkpt lat="41.45037196" lon="2.11590716">
        <ele>159.0</ele>
        <time>2021-03-03T09:40:26Z</time>
      </trkpt>
      <trkpt lat="41.4503253" lon="2.11589217">
        <ele>159.0</ele>
        <time>2021-03-03T09:40:27Z</time>
      </trkpt>
      <trkpt lat="41.45027731" lon="2.11587817">
        <ele>159.0</ele>
        <time>2021-03-03T09:40:28Z</time>
      </trkpt>
      <trkpt lat="41.45023231" lon="2.11586884">
        <ele>159.0</ele>
        <time>2021-03-03T09:40:29Z</time>
      </trkpt>
      <trkpt lat="41.45018965" lon="2.11586518">
        <ele>159.0</ele>
        <time>2021-03-03T09:40:30Z</time>
      </trkpt>
      <trkpt lat="41.45014532" lon="2.11586386">
        <ele>159.0</ele>
        <time>2021-03-03T09:40:31Z</time>
      </trkpt>
    </trkseg>
  </trk>
</gpx>
